<?xml version='1.0' encoding='UTF-8'?><gpx version="1.1" creator="JPX - https://github.com/jenetics/jpx" xmlns="http://www.topografix.com/GPX/1/1"><trk><trkseg><trkpt lat="44.88405423297169" lon="10.085554325588026"><ele>60.0</ele><time>2026-04-24T10:46:23.999Z</time></trkpt><trkpt lat="44.884048953756576" lon="10.085465558496038"><ele>60.0</ele><time>2026-04-24T10:46:25.999Z</time></trkpt><trkpt lat="44.884132282414704" lon="10.085362665737634"><ele>60.0</ele><time>2026-04-24T10:46:28.999Z</time></trkpt><trkpt lat="44.88426676393879" lon="10.085359890849949"><ele>60.0</ele><time>2026-04-24T10:46:30.999Z</time></trkpt><trkpt lat="44.88439314635069" lon="10.085341467166385"><ele>60.0</ele><time>2026-04-24T10:46:31.999Z</time></trkpt><trkpt lat="44.88448980198244" lon="10.085338425656863"><ele>59.0</ele><time>2026-04-24T10:46:32.999Z</time></trkpt><trkpt lat="44.884598799898775" lon="10.085353308372346"><ele>58.0</ele><time>2026-04-24T10:46:33.999Z</time></trkpt><trkpt lat="44.8847141131296" lon="10.085375717245059"><ele>57.0</ele><time>2026-04-24T10:46:34.999Z</time></trkpt><trkpt lat="44.88484528958278" lon="10.085407536313845"><ele>56.0</ele><time>2026-04-24T10:46:35.999Z</time></trkpt><trkpt lat="44.884967692553474" lon="10.085440138079578"><ele>56.0</ele><time>2026-04-24T10:46:36.999Z</time></trkpt><trkpt lat="44.885094343170145" lon="10.085472962050702"><ele>56.0</ele><time>2026-04-24T10:46:37.999Z</time></trkpt><trkpt lat="44.885224531154066" lon="10.085514377044278"><ele>56.0</ele><time>2026-04-24T10:46:38.999Z</time></trkpt><trkpt lat="44.885355182814784" lon="10.085567764968298"><ele>56.0</ele><time>2026-04-24T10:46:39.999Z</time></trkpt><trkpt lat="44.885470785145294" lon="10.085641638496408"><ele>57.0</ele><time>2026-04-24T10:46:40.999Z</time></trkpt><trkpt lat="44.885569574105276" lon="10.085738345594462"><ele>57.99999999999999</ele><time>2026-04-24T10:46:41.999Z</time></trkpt><trkpt lat="44.88565561099672" lon="10.08585211417258"><ele>58.99999999999999</ele><time>2026-04-24T10:46:42.999Z</time></trkpt><trkpt lat="44.88572472232294" lon="10.085972158131174"><ele>60.0</ele><time>2026-04-24T10:46:43.999Z</time></trkpt><trkpt lat="44.88576434744633" lon="10.08607629803493"><ele>61.0</ele><time>2026-04-24T10:46:44.999Z</time></trkpt><trkpt lat="44.8857816521906" lon="10.086179288190213"><ele>61.0</ele><time>2026-04-24T10:46:45.999Z</time></trkpt><trkpt lat="44.885784097266864" lon="10.08630585244614"><ele>60.99999999999999</ele><time>2026-04-24T10:46:46.999Z</time></trkpt><trkpt lat="44.88575132043844" lon="10.08647131948014"><ele>60.99999999999999</ele><time>2026-04-24T10:46:47.999Z</time></trkpt><trkpt lat="44.88573981043733" lon="10.086644193843961"><ele>61.0</ele><time>2026-04-24T10:46:48.999Z</time></trkpt><trkpt lat="44.88577532558766" lon="10.086793934832622"><ele>61.0</ele><time>2026-04-24T10:46:49.999Z</time></trkpt><trkpt lat="44.885838755589084" lon="10.086918781181835"><ele>60.5</ele><time>2026-04-24T10:46:50.999Z</time></trkpt><trkpt lat="44.88592673061617" lon="10.087010265346418"><ele>60.0</ele><time>2026-04-24T10:46:51.999Z</time></trkpt><trkpt lat="44.8860286613694" lon="10.087054648194993"><ele>59.5</ele><time>2026-04-24T10:46:52.999Z</time></trkpt><trkpt lat="44.88612980491966" lon="10.08709879698954"><ele>59.0</ele><time>2026-04-24T10:46:53.999Z</time></trkpt><trkpt lat="44.886248106954156" lon="10.08700719391977"><ele>59.0</ele><time>2026-04-24T10:46:54.999Z</time></trkpt><trkpt lat="44.88633235954838" lon="10.08692293123748"><ele>59.00000000000001</ele><time>2026-04-24T10:46:55.999Z</time></trkpt><trkpt lat="44.88639647652714" lon="10.086811393674042"><ele>59.00000000000001</ele><time>2026-04-24T10:46:56.999Z</time></trkpt><trkpt lat="44.88646875481746" lon="10.086703527583612"><ele>59.0</ele><time>2026-04-24T10:46:57.999Z</time></trkpt><trkpt lat="44.886560516047" lon="10.086638630683344"><ele>59.0</ele><time>2026-04-24T10:46:58.999Z</time></trkpt><trkpt lat="44.886661864403465" lon="10.086628191554137"><ele>59.5</ele><time>2026-04-24T10:46:59.999Z</time></trkpt><trkpt lat="44.886765246880636" lon="10.086663661836434"><ele>60.0</ele><time>2026-04-24T10:47:00.999Z</time></trkpt><trkpt lat="44.88686445355375" lon="10.086747636015204"><ele>60.5</ele><time>2026-04-24T10:47:01.999Z</time></trkpt><trkpt lat="44.88694942206057" lon="10.086873364093174"><ele>61.0</ele><time>2026-04-24T10:47:02.999Z</time></trkpt><trkpt lat="44.887014221556655" lon="10.087016662061707"><ele>60.99999999999999</ele><time>2026-04-24T10:47:03.999Z</time></trkpt><trkpt lat="44.88702097803757" lon="10.087173211341181"><ele>61.0</ele><time>2026-04-24T10:47:04.999Z</time></trkpt><trkpt lat="44.887059841695454" lon="10.087281438588224"><ele>61.0</ele><time>2026-04-24T10:47:05.999Z</time></trkpt><trkpt lat="44.88711225898744" lon="10.087367974758637"><ele>61.0</ele><time>2026-04-24T10:47:06.999Z</time></trkpt><trkpt lat="44.88719204164497" lon="10.087396916519467"><ele>60.99999999999999</ele><time>2026-04-24T10:47:07.999Z</time></trkpt><trkpt lat="44.88727351069135" lon="10.08737479976874"><ele>61.0</ele><time>2026-04-24T10:47:08.999Z</time></trkpt><trkpt lat="44.88733800158494" lon="10.087321070926581"><ele>60.99999999999999</ele><time>2026-04-24T10:47:09.999Z</time></trkpt><trkpt lat="44.887368535888825" lon="10.087237208123659"><ele>61.0</ele><time>2026-04-24T10:47:10.999Z</time></trkpt><trkpt lat="44.88735064816761" lon="10.087056690554078"><ele>61.0</ele><time>2026-04-24T10:47:12.999Z</time></trkpt><trkpt lat="44.88731194189415" lon="10.086979999215677"><ele>61.0</ele><time>2026-04-24T10:47:13.999Z</time></trkpt><trkpt lat="44.88725561416469" lon="10.086915320310936"><ele>60.99999999999999</ele><time>2026-04-24T10:47:14.999Z</time></trkpt><trkpt lat="44.88716691455245" lon="10.086902627654888"><ele>61.0</ele><time>2026-04-24T10:47:15.999Z</time></trkpt><trkpt lat="44.887074610022715" lon="10.08685680239184"><ele>61.0</ele><time>2026-04-24T10:47:16.999Z</time></trkpt><trkpt lat="44.886979239839285" lon="10.086794388277804"><ele>60.99999999999999</ele><time>2026-04-24T10:47:17.999Z</time></trkpt><trkpt lat="44.88690240199458" lon="10.086701184038082"><ele>60.99999999999999</ele><time>2026-04-24T10:47:18.999Z</time></trkpt><trkpt lat="44.88681916017404" lon="10.08660507661433"><ele>61.0</ele><time>2026-04-24T10:47:19.999Z</time></trkpt><trkpt lat="44.88670788229691" lon="10.086528439212072"><ele>61.0</ele><time>2026-04-24T10:47:20.999Z</time></trkpt><trkpt lat="44.886603872408465" lon="10.086496064268891"><ele>61.0</ele><time>2026-04-24T10:47:21.999Z</time></trkpt><trkpt lat="44.88651811352656" lon="10.086467383744774"><ele>60.99999999999999</ele><time>2026-04-24T10:47:22.999Z</time></trkpt><trkpt lat="44.88644049602181" lon="10.08640209295381"><ele>60.99999999999999</ele><time>2026-04-24T10:47:23.999Z</time></trkpt><trkpt lat="44.88636732671686" lon="10.086286372264276"><ele>61.0</ele><time>2026-04-24T10:47:24.999Z</time></trkpt><trkpt lat="44.88630148591775" lon="10.086174165901863"><ele>61.0</ele><time>2026-04-24T10:47:25.999Z</time></trkpt><trkpt lat="44.88621914884139" lon="10.086102522254318"><ele>61.0</ele><time>2026-04-24T10:47:26.999Z</time></trkpt><trkpt lat="44.88610809651692" lon="10.086066285954521"><ele>61.0</ele><time>2026-04-24T10:47:27.999Z</time></trkpt><trkpt lat="44.88599108943088" lon="10.086077848808468"><ele>61.0</ele><time>2026-04-24T10:47:28.999Z</time></trkpt><trkpt lat="44.88588661015385" lon="10.086145120288242"><ele>61.0</ele><time>2026-04-24T10:47:29.999Z</time></trkpt><trkpt lat="44.88579761796321" lon="10.086263930491734"><ele>61.0</ele><time>2026-04-24T10:47:30.999Z</time></trkpt><trkpt lat="44.8857412657305" lon="10.08640721603155"><ele>60.99999999999999</ele><time>2026-04-24T10:47:31.999Z</time></trkpt><trkpt lat="44.8857236907064" lon="10.086557329135463"><ele>60.99999999999999</ele><time>2026-04-24T10:47:32.999Z</time></trkpt><trkpt lat="44.88574116304264" lon="10.086691085698824"><ele>61.0</ele><time>2026-04-24T10:47:33.999Z</time></trkpt><trkpt lat="44.885781674123756" lon="10.086811971383353"><ele>61.0</ele><time>2026-04-24T10:47:34.999Z</time></trkpt><trkpt lat="44.885843061178875" lon="10.086928318192092"><ele>60.5</ele><time>2026-04-24T10:47:35.999Z</time></trkpt><trkpt lat="44.88591853917629" lon="10.087026307068728"><ele>60.0</ele><time>2026-04-24T10:47:36.999Z</time></trkpt><trkpt lat="44.886018470716586" lon="10.087100117711348"><ele>59.5</ele><time>2026-04-24T10:47:37.999Z</time></trkpt><trkpt lat="44.88613148976976" lon="10.087171253601621"><ele>59.0</ele><time>2026-04-24T10:47:38.999Z</time></trkpt><trkpt lat="44.886249956431875" lon="10.087276224893754"><ele>59.0</ele><time>2026-04-24T10:47:39.999Z</time></trkpt><trkpt lat="44.88635592037762" lon="10.08741037404691"><ele>59.0</ele><time>2026-04-24T10:47:40.999Z</time></trkpt><trkpt lat="44.886453560716" lon="10.087548118178864"><ele>59.0</ele><time>2026-04-24T10:47:41.999Z</time></trkpt><trkpt lat="44.88654705831884" lon="10.087682502342556"><ele>59.0</ele><time>2026-04-24T10:47:42.999Z</time></trkpt><trkpt lat="44.88663867488296" lon="10.08779463025576"><ele>58.75</ele><time>2026-04-24T10:47:43.999Z</time></trkpt><trkpt lat="44.88671321210237" lon="10.0879080454776"><ele>58.5</ele><time>2026-04-24T10:47:44.999Z</time></trkpt><trkpt lat="44.88677290004776" lon="10.088047604817998"><ele>58.25</ele><time>2026-04-24T10:47:45.999Z</time></trkpt><trkpt lat="44.88681882763301" lon="10.088213017263097"><ele>58.0</ele><time>2026-04-24T10:47:46.999Z</time></trkpt><trkpt lat="44.886861465975656" lon="10.08839477844008"><ele>57.25</ele><time>2026-04-24T10:47:47.999Z</time></trkpt><trkpt lat="44.8869027358123" lon="10.088583381872818"><ele>56.5</ele><time>2026-04-24T10:47:48.999Z</time></trkpt><trkpt lat="44.88694517190036" lon="10.088777599039759"><ele>55.75</ele><time>2026-04-24T10:47:49.999Z</time></trkpt><trkpt lat="44.88698083442369" lon="10.0889769354906"><ele>55.0</ele><time>2026-04-24T10:47:50.999Z</time></trkpt><trkpt lat="44.887025732986366" lon="10.08914730461458"><ele>55.0</ele><time>2026-04-24T10:47:51.999Z</time></trkpt><trkpt lat="44.88706490283776" lon="10.089304336816827"><ele>55.0</ele><time>2026-04-24T10:47:52.999Z</time></trkpt><trkpt lat="44.887094303034836" lon="10.08944556561819"><ele>55.0</ele><time>2026-04-24T10:47:53.999Z</time></trkpt><trkpt lat="44.887118149386595" lon="10.089564861756108"><ele>55.0</ele><time>2026-04-24T10:47:54.999Z</time></trkpt><trkpt lat="44.8870888021155" lon="10.089679846821369"><ele>55.0</ele><time>2026-04-24T10:47:55.999Z</time></trkpt><trkpt lat="44.8871168628385" lon="10.08981288801359"><ele>55.4</ele><time>2026-04-24T10:47:57.999Z</time></trkpt><trkpt lat="44.887101022808906" lon="10.089930272241523"><ele>55.8</ele><time>2026-04-24T10:48:32.998Z</time></trkpt><trkpt lat="44.88711840409563" lon="10.090057339027057"><ele>56.2</ele><time>2026-04-24T10:48:34.998Z</time></trkpt><trkpt lat="44.88714496490728" lon="10.090181011822851"><ele>56.6</ele><time>2026-04-24T10:48:35.998Z</time></trkpt><trkpt lat="44.887249186468395" lon="10.090293663667607"><ele>57.0</ele><time>2026-04-24T10:48:36.998Z</time></trkpt><trkpt lat="44.88727009930077" lon="10.090437386557126"><ele>57.0</ele><time>2026-04-24T10:48:37.998Z</time></trkpt><trkpt lat="44.887289915135646" lon="10.090592848908088"><ele>57.0</ele><time>2026-04-24T10:48:38.998Z</time></trkpt><trkpt lat="44.88731101765308" lon="10.090763773432643"><ele>57.0</ele><time>2026-04-24T10:48:39.998Z</time></trkpt><trkpt lat="44.887334558459415" lon="10.090949291385206"><ele>57.0</ele><time>2026-04-24T10:48:40.998Z</time></trkpt><trkpt lat="44.88735906156352" lon="10.09114709057767"><ele>57.0</ele><time>2026-04-24T10:48:41.998Z</time></trkpt><trkpt lat="44.88739176776707" lon="10.091340641561654"><ele>57.0</ele><time>2026-04-24T10:48:42.998Z</time></trkpt><trkpt lat="44.88742486526342" lon="10.091536335358223"><ele>57.0</ele><time>2026-04-24T10:48:43.998Z</time></trkpt><trkpt lat="44.88748556961645" lon="10.091720622618322"><ele>57.0</ele><time>2026-04-24T10:48:44.999Z</time></trkpt><trkpt lat="44.88754755969228" lon="10.09191676618818"><ele>57.0</ele><time>2026-04-24T10:48:45.999Z</time></trkpt><trkpt lat="44.88758201406037" lon="10.092141702166018"><ele>57.0</ele><time>2026-04-24T10:48:46.999Z</time></trkpt><trkpt lat="44.88767234608014" lon="10.092338542801727"><ele>57.0</ele><time>2026-04-24T10:48:47.999Z</time></trkpt><trkpt lat="44.88778266766449" lon="10.092535749914418"><ele>56.66666666666667</ele><time>2026-04-24T10:48:48.999Z</time></trkpt><trkpt lat="44.887900329871265" lon="10.092719828559396"><ele>56.333333333333336</ele><time>2026-04-24T10:48:49.999Z</time></trkpt><trkpt lat="44.88800867298472" lon="10.092932687060252"><ele>56.0</ele><time>2026-04-24T10:48:50.999Z</time></trkpt><trkpt lat="44.888107182544985" lon="10.093159982769752"><ele>56.0</ele><time>2026-04-24T10:48:51.999Z</time></trkpt><trkpt lat="44.88819195226798" lon="10.09339414021495"><ele>56.0</ele><time>2026-04-24T10:48:52.999Z</time></trkpt><trkpt lat="44.88825695961817" lon="10.093659198343024"><ele>56.0</ele><time>2026-04-24T10:48:53.999Z</time></trkpt><trkpt lat="44.88830630615966" lon="10.093951262747977"><ele>55.333333333333336</ele><time>2026-04-24T10:48:54.999Z</time></trkpt><trkpt lat="44.88834437747132" lon="10.094254336152233"><ele>54.66666666666667</ele><time>2026-04-24T10:48:55.999Z</time></trkpt><trkpt lat="44.88835344208272" lon="10.094577407246987"><ele>54.0</ele><time>2026-04-24T10:48:56.999Z</time></trkpt><trkpt lat="44.88832851478721" lon="10.094915261002432"><ele>55.0</ele><time>2026-04-24T10:48:57.999Z</time></trkpt><trkpt lat="44.8882848364368" lon="10.09524723908176"><ele>56.0</ele><time>2026-04-24T10:48:58.999Z</time></trkpt><trkpt lat="44.88822783839409" lon="10.095583940729183"><ele>55.0</ele><time>2026-04-24T10:48:59.999Z</time></trkpt><trkpt lat="44.88817802267481" lon="10.0959336076009"><ele>54.0</ele><time>2026-04-24T10:49:00.999Z</time></trkpt><trkpt lat="44.888132224934786" lon="10.096290834123264"><ele>54.5</ele><time>2026-04-24T10:49:01.999Z</time></trkpt><trkpt lat="44.88807813203119" lon="10.096659936570987"><ele>55.0</ele><time>2026-04-24T10:49:02.999Z</time></trkpt><trkpt lat="44.888019221255824" lon="10.097037319791061"><ele>55.0</ele><time>2026-04-24T10:49:03.999Z</time></trkpt><trkpt lat="44.88795714789708" lon="10.097426878493597"><ele>55.0</ele><time>2026-04-24T10:49:04.999Z</time></trkpt><trkpt lat="44.88789528354431" lon="10.097809697666289"><ele>55.0</ele><time>2026-04-24T10:49:05.999Z</time></trkpt><trkpt lat="44.88783572963569" lon="10.098194310662468"><ele>55.0</ele><time>2026-04-24T10:49:06.999Z</time></trkpt><trkpt lat="44.887778397052536" lon="10.098582509539316"><ele>55.0</ele><time>2026-04-24T10:49:07.999Z</time></trkpt><trkpt lat="44.887722412835544" lon="10.098969415748233"><ele>55.0</ele><time>2026-04-24T10:49:08.999Z</time></trkpt><trkpt lat="44.88766589025644" lon="10.099352481225331"><ele>55.0</ele><time>2026-04-24T10:49:09.999Z</time></trkpt><trkpt lat="44.88760888710133" lon="10.099742930649642"><ele>55.0</ele><time>2026-04-24T10:49:10.999Z</time></trkpt><trkpt lat="44.887550462501075" lon="10.100121688319184"><ele>55.0</ele><time>2026-04-24T10:49:11.999Z</time></trkpt><trkpt lat="44.88749149223793" lon="10.100506049497366"><ele>55.0</ele><time>2026-04-24T10:49:12.999Z</time></trkpt><trkpt lat="44.887436187112414" lon="10.100888714532251"><ele>56.0</ele><time>2026-04-24T10:49:13.999Z</time></trkpt><trkpt lat="44.887380407497766" lon="10.101271761140891"><ele>57.0</ele><time>2026-04-24T10:49:14.999Z</time></trkpt><trkpt lat="44.88732342641681" lon="10.101649997199127"><ele>57.5</ele><time>2026-04-24T10:49:15.999Z</time></trkpt><trkpt lat="44.88726345643728" lon="10.102030190749591"><ele>58.0</ele><time>2026-04-24T10:49:16.999Z</time></trkpt><trkpt lat="44.88720452858929" lon="10.102405147710343"><ele>58.0</ele><time>2026-04-24T10:49:17.999Z</time></trkpt><trkpt lat="44.88714581503669" lon="10.102775032753074"><ele>58.0</ele><time>2026-04-24T10:49:18.999Z</time></trkpt><trkpt lat="44.887090962808706" lon="10.103140117321423"><ele>57.5</ele><time>2026-04-24T10:49:19.999Z</time></trkpt><trkpt lat="44.88703839995159" lon="10.103512608517843"><ele>57.0</ele><time>2026-04-24T10:49:20.999Z</time></trkpt><trkpt lat="44.8869845880742" lon="10.103885783629364"><ele>56.5</ele><time>2026-04-24T10:49:21.999Z</time></trkpt><trkpt lat="44.886926738197374" lon="10.104271169193654"><ele>56.0</ele><time>2026-04-24T10:49:22.999Z</time></trkpt><trkpt lat="44.88686795001494" lon="10.10465615644893"><ele>55.5</ele><time>2026-04-24T10:49:23.999Z</time></trkpt><trkpt lat="44.88680841038401" lon="10.105055774266503"><ele>55.0</ele><time>2026-04-24T10:49:24.999Z</time></trkpt><trkpt lat="44.88674505941757" lon="10.105452697816332"><ele>55.0</ele><time>2026-04-24T10:49:25.999Z</time></trkpt><trkpt lat="44.886684049597896" lon="10.1058491772138"><ele>55.0</ele><time>2026-04-24T10:49:26.999Z</time></trkpt><trkpt lat="44.88662385137174" lon="10.10624010425723"><ele>54.0</ele><time>2026-04-24T10:49:27.999Z</time></trkpt><trkpt lat="44.886564783630114" lon="10.106634255080785"><ele>53.0</ele><time>2026-04-24T10:49:28.999Z</time></trkpt><trkpt lat="44.88650488990828" lon="10.107033036492242"><ele>53.5</ele><time>2026-04-24T10:49:29.999Z</time></trkpt><trkpt lat="44.88644478953549" lon="10.107430085631618"><ele>54.0</ele><time>2026-04-24T10:49:30.999Z</time></trkpt><trkpt lat="44.88638334578765" lon="10.107832704362488"><ele>54.0</ele><time>2026-04-24T10:49:31.999Z</time></trkpt><trkpt lat="44.886320206250026" lon="10.10823586212771"><ele>54.0</ele><time>2026-04-24T10:49:32.999Z</time></trkpt><trkpt lat="44.88625714188073" lon="10.108636410172114"><ele>54.0</ele><time>2026-04-24T10:49:33.999Z</time></trkpt><trkpt lat="44.886196685393436" lon="10.109030690544072"><ele>54.0</ele><time>2026-04-24T10:49:34.999Z</time></trkpt><trkpt lat="44.886140286062364" lon="10.109413923793982"><ele>54.0</ele><time>2026-04-24T10:49:35.999Z</time></trkpt><trkpt lat="44.886087183607756" lon="10.109803227366223"><ele>54.0</ele><time>2026-04-24T10:49:36.999Z</time></trkpt><trkpt lat="44.88603917400094" lon="10.110203839991103"><ele>54.0</ele><time>2026-04-24T10:49:37.999Z</time></trkpt><trkpt lat="44.885991601053654" lon="10.110605764908051"><ele>54.0</ele><time>2026-04-24T10:49:38.999Z</time></trkpt><trkpt lat="44.88593595943298" lon="10.11100717562204"><ele>54.0</ele><time>2026-04-24T10:49:39.999Z</time></trkpt><trkpt lat="44.885874521430694" lon="10.11139975849452"><ele>54.0</ele><time>2026-04-24T10:49:40.999Z</time></trkpt><trkpt lat="44.88581356848058" lon="10.111789484014011"><ele>54.0</ele><time>2026-04-24T10:49:41.999Z</time></trkpt><trkpt lat="44.88575324085857" lon="10.112180976012535"><ele>54.0</ele><time>2026-04-24T10:49:42.999Z</time></trkpt><trkpt lat="44.88569104436617" lon="10.112569002496135"><ele>54.0</ele><time>2026-04-24T10:49:43.999Z</time></trkpt><trkpt lat="44.88563407972429" lon="10.112959268779996"><ele>54.0</ele><time>2026-04-24T10:49:44.999Z</time></trkpt><trkpt lat="44.88557793554153" lon="10.113346981226176"><ele>54.0</ele><time>2026-04-24T10:49:45.999Z</time></trkpt><trkpt lat="44.88552424951629" lon="10.113730874789828"><ele>54.0</ele><time>2026-04-24T10:49:46.999Z</time></trkpt><trkpt lat="44.88546665653083" lon="10.114119243339772"><ele>54.0</ele><time>2026-04-24T10:49:47.999Z</time></trkpt><trkpt lat="44.885406484608076" lon="10.114515156784417"><ele>54.0</ele><time>2026-04-24T10:49:48.999Z</time></trkpt><trkpt lat="44.88534195912472" lon="10.114913576657633"><ele>54.0</ele><time>2026-04-24T10:49:49.999Z</time></trkpt><trkpt lat="44.88527803201939" lon="10.115317812206937"><ele>54.0</ele><time>2026-04-24T10:49:50.999Z</time></trkpt><trkpt lat="44.88521752812643" lon="10.115718967676214"><ele>54.5</ele><time>2026-04-24T10:49:51.999Z</time></trkpt><trkpt lat="44.88515846062106" lon="10.116123280352252"><ele>55.0</ele><time>2026-04-24T10:49:52.999Z</time></trkpt><trkpt lat="44.88509669248577" lon="10.116528550226086"><ele>54.5</ele><time>2026-04-24T10:49:53.999Z</time></trkpt><trkpt lat="44.88503684098319" lon="10.116927615844814"><ele>54.0</ele><time>2026-04-24T10:49:54.999Z</time></trkpt><trkpt lat="44.88497684459842" lon="10.117330299682326"><ele>53.5</ele><time>2026-04-24T10:49:55.999Z</time></trkpt><trkpt lat="44.88491621029805" lon="10.11773072852022"><ele>53.0</ele><time>2026-04-24T10:49:56.999Z</time></trkpt><trkpt lat="44.88485510457128" lon="10.118129129699929"><ele>53.5</ele><time>2026-04-24T10:49:57.999Z</time></trkpt><trkpt lat="44.88479169579148" lon="10.11853224405782"><ele>54.0</ele><time>2026-04-24T10:49:58.999Z</time></trkpt><trkpt lat="44.88472901893948" lon="10.118933154096345"><ele>54.0</ele><time>2026-04-24T10:49:59.999Z</time></trkpt><trkpt lat="44.88466941805886" lon="10.11933401259494"><ele>54.0</ele><time>2026-04-24T10:50:00.999Z</time></trkpt><trkpt lat="44.88460928697736" lon="10.119734628855772"><ele>54.0</ele><time>2026-04-24T10:50:01.999Z</time></trkpt><trkpt lat="44.884549667320094" lon="10.120128666926492"><ele>54.0</ele><time>2026-04-24T10:50:02.999Z</time></trkpt><trkpt lat="44.88448639016116" lon="10.120529528988843"><ele>53.5</ele><time>2026-04-24T10:50:03.999Z</time></trkpt><trkpt lat="44.884420972404065" lon="10.12092581305832"><ele>53.0</ele><time>2026-04-24T10:50:04.999Z</time></trkpt><trkpt lat="44.88435189369176" lon="10.121325096670779"><ele>54.0</ele><time>2026-04-24T10:50:05.999Z</time></trkpt><trkpt lat="44.88428449306382" lon="10.12172554861171"><ele>55.0</ele><time>2026-04-24T10:50:06.999Z</time></trkpt><trkpt lat="44.88421917358225" lon="10.122126055276839"><ele>54.5</ele><time>2026-04-24T10:50:07.999Z</time></trkpt><trkpt lat="44.884150313332384" lon="10.122522231378602"><ele>54.0</ele><time>2026-04-24T10:50:08.999Z</time></trkpt><trkpt lat="44.88408997038752" lon="10.122918032550306"><ele>53.0</ele><time>2026-04-24T10:50:09.999Z</time></trkpt><trkpt lat="44.88402827799963" lon="10.123317323644457"><ele>52.0</ele><time>2026-04-24T10:50:10.999Z</time></trkpt><trkpt lat="44.88396933417975" lon="10.12371763483087"><ele>52.5</ele><time>2026-04-24T10:50:11.999Z</time></trkpt><trkpt lat="44.88390914196258" lon="10.124114887309727"><ele>53.0</ele><time>2026-04-24T10:50:12.999Z</time></trkpt><trkpt lat="44.88384839124313" lon="10.124515041550826"><ele>53.0</ele><time>2026-04-24T10:50:13.999Z</time></trkpt><trkpt lat="44.88378684518108" lon="10.12491518836318"><ele>53.0</ele><time>2026-04-24T10:50:14.999Z</time></trkpt><trkpt lat="44.883725853953905" lon="10.125314846080174"><ele>53.0</ele><time>2026-04-24T10:50:15.999Z</time></trkpt><trkpt lat="44.88366523690379" lon="10.125716465078487"><ele>53.0</ele><time>2026-04-24T10:50:16.999Z</time></trkpt><trkpt lat="44.88360362077352" lon="10.126115847242872"><ele>52.5</ele><time>2026-04-24T10:50:17.999Z</time></trkpt><trkpt lat="44.883543133231605" lon="10.126514171801158"><ele>52.0</ele><time>2026-04-24T10:50:18.999Z</time></trkpt><trkpt lat="44.88348200693499" lon="10.126919870858146"><ele>52.5</ele><time>2026-04-24T10:50:19.999Z</time></trkpt><trkpt lat="44.88342126027761" lon="10.127316241864719"><ele>53.0</ele><time>2026-04-24T10:50:20.999Z</time></trkpt><trkpt lat="44.88336098878373" lon="10.12771673689819"><ele>53.0</ele><time>2026-04-24T10:50:21.999Z</time></trkpt><trkpt lat="44.883302324554165" lon="10.128113861009604"><ele>53.0</ele><time>2026-04-24T10:50:22.999Z</time></trkpt><trkpt lat="44.88324467323685" lon="10.128515788595646"><ele>52.0</ele><time>2026-04-24T10:50:23.999Z</time></trkpt><trkpt lat="44.88318543608363" lon="10.12891964075029"><ele>51.0</ele><time>2026-04-24T10:50:24.999Z</time></trkpt><trkpt lat="44.88312494303313" lon="10.129322007356185"><ele>50.5</ele><time>2026-04-24T10:50:25.999Z</time></trkpt><trkpt lat="44.883062934271926" lon="10.12972091743771"><ele>50.0</ele><time>2026-04-24T10:50:26.999Z</time></trkpt><trkpt lat="44.88300134349701" lon="10.13012196453844"><ele>49.5</ele><time>2026-04-24T10:50:27.999Z</time></trkpt><trkpt lat="44.88294019559694" lon="10.130524039562626"><ele>49.0</ele><time>2026-04-24T10:50:28.999Z</time></trkpt><trkpt lat="44.882878627669484" lon="10.130920565171385"><ele>49.0</ele><time>2026-04-24T10:50:29.999Z</time></trkpt><trkpt lat="44.88281693736722" lon="10.13132284879931"><ele>49.0</ele><time>2026-04-24T10:50:30.999Z</time></trkpt><trkpt lat="44.882753894022116" lon="10.13172361939926"><ele>49.5</ele><time>2026-04-24T10:50:31.999Z</time></trkpt><trkpt lat="44.88269253228123" lon="10.132123723308519"><ele>50.0</ele><time>2026-04-24T10:50:32.999Z</time></trkpt><trkpt lat="44.88263172726837" lon="10.132522273127348"><ele>50.0</ele><time>2026-04-24T10:50:33.999Z</time></trkpt><trkpt lat="44.882570696984246" lon="10.132923024035861"><ele>50.0</ele><time>2026-04-24T10:50:34.999Z</time></trkpt><trkpt lat="44.882510290614306" lon="10.133324521581013"><ele>50.0</ele><time>2026-04-24T10:50:35.999Z</time></trkpt><trkpt lat="44.882448145364506" lon="10.133721462499574"><ele>50.0</ele><time>2026-04-24T10:50:36.999Z</time></trkpt><trkpt lat="44.88239196339823" lon="10.134117702163165"><ele>50.0</ele><time>2026-04-24T10:50:37.999Z</time></trkpt><trkpt lat="44.882339034638655" lon="10.134527085558021"><ele>50.0</ele><time>2026-04-24T10:50:38.999Z</time></trkpt><trkpt lat="44.88228643374046" lon="10.134924582547717"><ele>50.0</ele><time>2026-04-24T10:50:39.999Z</time></trkpt><trkpt lat="44.882233593564536" lon="10.135329151243136"><ele>50.0</ele><time>2026-04-24T10:50:40.999Z</time></trkpt><trkpt lat="44.88217835620352" lon="10.135731569463498"><ele>50.5</ele><time>2026-04-24T10:50:41.999Z</time></trkpt><trkpt lat="44.882118569492505" lon="10.136129628987002"><ele>51.0</ele><time>2026-04-24T10:50:42.999Z</time></trkpt><trkpt lat="44.88205787408386" lon="10.136534268565516"><ele>50.5</ele><time>2026-04-24T10:50:43.999Z</time></trkpt><trkpt lat="44.88199729755171" lon="10.136933390290011"><ele>50.0</ele><time>2026-04-24T10:50:44.999Z</time></trkpt><trkpt lat="44.881938227987256" lon="10.13733493405678"><ele>49.5</ele><time>2026-04-24T10:50:45.999Z</time></trkpt><trkpt lat="44.881879672932996" lon="10.13773746297395"><ele>49.0</ele><time>2026-04-24T10:50:46.999Z</time></trkpt><trkpt lat="44.881820345951645" lon="10.138131067887604"><ele>48.5</ele><time>2026-04-24T10:50:47.999Z</time></trkpt><trkpt lat="44.88175742250944" lon="10.13852529947231"><ele>48.0</ele><time>2026-04-24T10:50:48.999Z</time></trkpt><trkpt lat="44.88169919697373" lon="10.138921790500417"><ele>48.5</ele><time>2026-04-24T10:50:49.999Z</time></trkpt><trkpt lat="44.881645874661274" lon="10.139324128559371"><ele>49.0</ele><time>2026-04-24T10:50:50.999Z</time></trkpt><trkpt lat="44.88159302898048" lon="10.139727137882812"><ele>50.0</ele><time>2026-04-24T10:50:51.999Z</time></trkpt><trkpt lat="44.88153848046984" lon="10.140127334397398"><ele>51.0</ele><time>2026-04-24T10:50:52.999Z</time></trkpt><trkpt lat="44.88147958033648" lon="10.14052174230638"><ele>50.5</ele><time>2026-04-24T10:50:53.999Z</time></trkpt><trkpt lat="44.881417587331796" lon="10.140919823453379"><ele>50.0</ele><time>2026-04-24T10:50:54.999Z</time></trkpt><trkpt lat="44.881356076614246" lon="10.141317266374529"><ele>50.0</ele><time>2026-04-24T10:50:55.999Z</time></trkpt><trkpt lat="44.88129455286472" lon="10.141715395906338"><ele>50.0</ele><time>2026-04-24T10:50:56.999Z</time></trkpt><trkpt lat="44.88123499344347" lon="10.142114046472743"><ele>49.5</ele><time>2026-04-24T10:50:57.999Z</time></trkpt><trkpt lat="44.88117450940719" lon="10.14251246247763"><ele>49.0</ele><time>2026-04-24T10:50:58.999Z</time></trkpt><trkpt lat="44.88111263901527" lon="10.142912416624975"><ele>48.0</ele><time>2026-04-24T10:50:59.999Z</time></trkpt><trkpt lat="44.881050708868045" lon="10.143313739824528"><ele>47.0</ele><time>2026-04-24T10:51:00.999Z</time></trkpt><trkpt lat="44.88099038421104" lon="10.143714348949095"><ele>47.0</ele><time>2026-04-24T10:51:01.999Z</time></trkpt><trkpt lat="44.88093138524897" lon="10.144110394446242"><ele>47.0</ele><time>2026-04-24T10:51:02.999Z</time></trkpt><trkpt lat="44.88086996591131" lon="10.144507539644103"><ele>47.5</ele><time>2026-04-24T10:51:03.999Z</time></trkpt><trkpt lat="44.88080562276211" lon="10.144909797630907"><ele>48.0</ele><time>2026-04-24T10:51:04.999Z</time></trkpt><trkpt lat="44.88074036854674" lon="10.145307614481668"><ele>48.0</ele><time>2026-04-24T10:51:06Z</time></trkpt><trkpt lat="44.880669366288494" lon="10.145701967620642"><ele>48.0</ele><time>2026-04-24T10:51:07Z</time></trkpt><trkpt lat="44.880603578832584" lon="10.146100357884935"><ele>48.0</ele><time>2026-04-24T10:51:08Z</time></trkpt><trkpt lat="44.880537922672325" lon="10.146498448626241"><ele>48.0</ele><time>2026-04-24T10:51:09Z</time></trkpt><trkpt lat="44.880475315074726" lon="10.14689865366096"><ele>48.0</ele><time>2026-04-24T10:51:10Z</time></trkpt><trkpt lat="44.88040488425322" lon="10.147298221662163"><ele>48.0</ele><time>2026-04-24T10:51:11Z</time></trkpt><trkpt lat="44.88033633014211" lon="10.147686842858135"><ele>48.0</ele><time>2026-04-24T10:51:12Z</time></trkpt><trkpt lat="44.88027214205661" lon="10.148060554723674"><ele>48.0</ele><time>2026-04-24T10:51:13Z</time></trkpt><trkpt lat="44.88020895537296" lon="10.148433813296919"><ele>48.0</ele><time>2026-04-24T10:51:14Z</time></trkpt><trkpt lat="44.88014673779916" lon="10.148806830654683"><ele>48.0</ele><time>2026-04-24T10:51:15Z</time></trkpt><trkpt lat="44.88008514636109" lon="10.149186551891253"><ele>47.0</ele><time>2026-04-24T10:51:16Z</time></trkpt><trkpt lat="44.88002229929509" lon="10.149567248472106"><ele>46.0</ele><time>2026-04-24T10:51:17Z</time></trkpt><trkpt lat="44.87996304255576" lon="10.149938533709236"><ele>46.0</ele><time>2026-04-24T10:51:18Z</time></trkpt><trkpt lat="44.87990269217484" lon="10.15031078226293"><ele>46.0</ele><time>2026-04-24T10:51:19Z</time></trkpt><trkpt lat="44.87983961194873" lon="10.15066972502533"><ele>46.5</ele><time>2026-04-24T10:51:20Z</time></trkpt><trkpt lat="44.87977565685012" lon="10.151046456836282"><ele>47.0</ele><time>2026-04-24T10:51:21Z</time></trkpt><trkpt lat="44.8797103040256" lon="10.151424554219712"><ele>47.0</ele><time>2026-04-24T10:51:22Z</time></trkpt><trkpt lat="44.879643506490424" lon="10.151810176467777"><ele>47.0</ele><time>2026-04-24T10:51:23Z</time></trkpt><trkpt lat="44.879579026485736" lon="10.15219732997816"><ele>46.5</ele><time>2026-04-24T10:51:24Z</time></trkpt><trkpt lat="44.87950816503282" lon="10.152589855118185"><ele>46.0</ele><time>2026-04-24T10:51:25Z</time></trkpt><trkpt lat="44.87943557197772" lon="10.152990343544651"><ele>46.0</ele><time>2026-04-24T10:51:26Z</time></trkpt><trkpt lat="44.87935902652276" lon="10.153395645932125"><ele>46.0</ele><time>2026-04-24T10:51:27Z</time></trkpt><trkpt lat="44.87928839031641" lon="10.1538092261387"><ele>46.0</ele><time>2026-04-24T10:51:28Z</time></trkpt><trkpt lat="44.87922478571505" lon="10.154233710737373"><ele>46.0</ele><time>2026-04-24T10:51:29Z</time></trkpt><trkpt lat="44.87915877318944" lon="10.15466584638593"><ele>46.0</ele><time>2026-04-24T10:51:30Z</time></trkpt><trkpt lat="44.87908946676231" lon="10.155086400001286"><ele>46.0</ele><time>2026-04-24T10:51:31Z</time></trkpt><trkpt lat="44.879018098390354" lon="10.155503272366895"><ele>46.5</ele><time>2026-04-24T10:51:32Z</time></trkpt><trkpt lat="44.87894465583746" lon="10.155921939603957"><ele>47.0</ele><time>2026-04-24T10:51:33Z</time></trkpt><trkpt lat="44.87887306307254" lon="10.156339767593245"><ele>46.5</ele><time>2026-04-24T10:51:34Z</time></trkpt><trkpt lat="44.878802740055534" lon="10.156761302055472"><ele>46.0</ele><time>2026-04-24T10:51:35Z</time></trkpt><trkpt lat="44.878730412003286" lon="10.157185010636681"><ele>46.0</ele><time>2026-04-24T10:51:36Z</time></trkpt><trkpt lat="44.87865651556787" lon="10.157607411412418"><ele>46.0</ele><time>2026-04-24T10:51:37Z</time></trkpt><trkpt lat="44.878581807632244" lon="10.158029648435388"><ele>46.5</ele><time>2026-04-24T10:51:38Z</time></trkpt><trkpt lat="44.878505940669214" lon="10.15844922119951"><ele>47.0</ele><time>2026-04-24T10:51:39Z</time></trkpt><trkpt lat="44.878428386761605" lon="10.158869167233698"><ele>47.0</ele><time>2026-04-24T10:51:40Z</time></trkpt><trkpt lat="44.878353382311055" lon="10.159286545711439"><ele>47.0</ele><time>2026-04-24T10:51:41Z</time></trkpt><trkpt lat="44.87828377167009" lon="10.159702918740372"><ele>46.5</ele><time>2026-04-24T10:51:42Z</time></trkpt><trkpt lat="44.87821581318949" lon="10.160117639630894"><ele>46.0</ele><time>2026-04-24T10:51:43Z</time></trkpt><trkpt lat="44.87814497341656" lon="10.160534243557143"><ele>46.5</ele><time>2026-04-24T10:51:44Z</time></trkpt><trkpt lat="44.87807254364777" lon="10.160949902610836"><ele>47.0</ele><time>2026-04-24T10:51:45Z</time></trkpt><trkpt lat="44.87800019513649" lon="10.161367009307371"><ele>46.5</ele><time>2026-04-24T10:51:46Z</time></trkpt><trkpt lat="44.87792822757005" lon="10.161785945506027"><ele>46.0</ele><time>2026-04-24T10:51:47Z</time></trkpt><trkpt lat="44.87785618816337" lon="10.162205823802822"><ele>47.0</ele><time>2026-04-24T10:51:48Z</time></trkpt><trkpt lat="44.877781322705715" lon="10.162631073113538"><ele>48.0</ele><time>2026-04-24T10:51:49Z</time></trkpt><trkpt lat="44.87771053789288" lon="10.163053794207192"><ele>48.0</ele><time>2026-04-24T10:51:50Z</time></trkpt><trkpt lat="44.8776427746471" lon="10.163480898427379"><ele>48.0</ele><time>2026-04-24T10:51:51Z</time></trkpt><trkpt lat="44.87757315501295" lon="10.163912293765575"><ele>47.0</ele><time>2026-04-24T10:51:52Z</time></trkpt><trkpt lat="44.87750167506257" lon="10.164340429633102"><ele>46.0</ele><time>2026-04-24T10:51:53Z</time></trkpt><trkpt lat="44.87742733369998" lon="10.164764127258493"><ele>46.0</ele><time>2026-04-24T10:51:54Z</time></trkpt><trkpt lat="44.877351760740744" lon="10.165191836047544"><ele>46.0</ele><time>2026-04-24T10:51:55Z</time></trkpt><trkpt lat="44.87727698166517" lon="10.165620525455843"><ele>46.0</ele><time>2026-04-24T10:51:56Z</time></trkpt><trkpt lat="44.87720579689136" lon="10.166046115854428"><ele>46.0</ele><time>2026-04-24T10:51:57Z</time></trkpt><trkpt lat="44.87713776393513" lon="10.166459331154064"><ele>46.0</ele><time>2026-04-24T10:51:58Z</time></trkpt><trkpt lat="44.87707023749722" lon="10.16686552992368"><ele>46.0</ele><time>2026-04-24T10:51:59Z</time></trkpt><trkpt lat="44.87700438031588" lon="10.167265041173746"><ele>46.5</ele><time>2026-04-24T10:52:00Z</time></trkpt><trkpt lat="44.876939115751384" lon="10.167659815269273"><ele>47.0</ele><time>2026-04-24T10:52:01Z</time></trkpt><trkpt lat="44.876872516765104" lon="10.1680516990544"><ele>47.5</ele><time>2026-04-24T10:52:02Z</time></trkpt><trkpt lat="44.87680563264142" lon="10.168439345740769"><ele>48.0</ele><time>2026-04-24T10:52:03Z</time></trkpt><trkpt lat="44.87673758344769" lon="10.168826418876998"><ele>49.0</ele><time>2026-04-24T10:52:04Z</time></trkpt><trkpt lat="44.87666965078873" lon="10.169215630124246"><ele>50.0</ele><time>2026-04-24T10:52:05Z</time></trkpt><trkpt lat="44.87660710096069" lon="10.169613396953396"><ele>49.5</ele><time>2026-04-24T10:52:06Z</time></trkpt><trkpt lat="44.87653727615953" lon="10.170015141221933"><ele>49.0</ele><time>2026-04-24T10:52:07Z</time></trkpt><trkpt lat="44.876469825033425" lon="10.170418955731597"><ele>47.5</ele><time>2026-04-24T10:52:08Z</time></trkpt><trkpt lat="44.876402414142774" lon="10.17082571545497"><ele>46.0</ele><time>2026-04-24T10:52:09Z</time></trkpt><trkpt lat="44.87633345830683" lon="10.171231150515569"><ele>46.5</ele><time>2026-04-24T10:52:10Z</time></trkpt><trkpt lat="44.87626417104004" lon="10.171642584698128"><ele>47.0</ele><time>2026-04-24T10:52:11Z</time></trkpt><trkpt lat="44.876191781429846" lon="10.172050461571997"><ele>47.5</ele><time>2026-04-24T10:52:12Z</time></trkpt><trkpt lat="44.87612196394112" lon="10.172454731651104"><ele>48.0</ele><time>2026-04-24T10:52:13Z</time></trkpt><trkpt lat="44.87605132344806" lon="10.172862552754847"><ele>48.0</ele><time>2026-04-24T10:52:14Z</time></trkpt><trkpt lat="44.875983110206874" lon="10.173269340674171"><ele>48.0</ele><time>2026-04-24T10:52:15Z</time></trkpt><trkpt lat="44.87591589925962" lon="10.173666538690892"><ele>46.5</ele><time>2026-04-24T10:52:16Z</time></trkpt><trkpt lat="44.875849949707906" lon="10.174067995265801"><ele>45.0</ele><time>2026-04-24T10:52:17Z</time></trkpt><trkpt lat="44.87578415058299" lon="10.174472818085384"><ele>45.0</ele><time>2026-04-24T10:52:18Z</time></trkpt><trkpt lat="44.87571636219013" lon="10.174881832307042"><ele>45.0</ele><time>2026-04-24T10:52:19Z</time></trkpt><trkpt lat="44.87564770873571" lon="10.175290950328389"><ele>45.5</ele><time>2026-04-24T10:52:20Z</time></trkpt><trkpt lat="44.875579447277694" lon="10.175697468854077"><ele>46.0</ele><time>2026-04-24T10:52:21Z</time></trkpt><trkpt lat="44.87551005936169" lon="10.17610439991484"><ele>46.0</ele><time>2026-04-24T10:52:22Z</time></trkpt><trkpt lat="44.87543953967861" lon="10.176512036588027"><ele>46.0</ele><time>2026-04-24T10:52:23Z</time></trkpt><trkpt lat="44.875369656034046" lon="10.176919920937285"><ele>45.0</ele><time>2026-04-24T10:52:24Z</time></trkpt><trkpt lat="44.87530021832703" lon="10.177326727669083"><ele>44.0</ele><time>2026-04-24T10:52:25Z</time></trkpt><trkpt lat="44.87523192415957" lon="10.177731495377461"><ele>44.0</ele><time>2026-04-24T10:52:26Z</time></trkpt><trkpt lat="44.875163620852376" lon="10.178139800203315"><ele>44.0</ele><time>2026-04-24T10:52:27Z</time></trkpt><trkpt lat="44.87509573911956" lon="10.178545972037416"><ele>43.5</ele><time>2026-04-24T10:52:28Z</time></trkpt><trkpt lat="44.87502492470684" lon="10.178951632303642"><ele>43.0</ele><time>2026-04-24T10:52:29Z</time></trkpt><trkpt lat="44.87495491995258" lon="10.179355435965277"><ele>43.0</ele><time>2026-04-24T10:52:30Z</time></trkpt><trkpt lat="44.87488786790286" lon="10.179762877671967"><ele>43.0</ele><time>2026-04-24T10:52:31Z</time></trkpt><trkpt lat="44.87481808243686" lon="10.180172579493656"><ele>43.0</ele><time>2026-04-24T10:52:32Z</time></trkpt><trkpt lat="44.87474851228738" lon="10.180582781751458"><ele>43.0</ele><time>2026-04-24T10:52:33Z</time></trkpt><trkpt lat="44.8746784101778" lon="10.180986324835562"><ele>43.0</ele><time>2026-04-24T10:52:34Z</time></trkpt><trkpt lat="44.87460819589513" lon="10.181393006903333"><ele>43.0</ele><time>2026-04-24T10:52:35Z</time></trkpt><trkpt lat="44.874537576077934" lon="10.181792783203056"><ele>43.0</ele><time>2026-04-24T10:52:36Z</time></trkpt><trkpt lat="44.874467594520574" lon="10.182202423664746"><ele>43.0</ele><time>2026-04-24T10:52:37Z</time></trkpt><trkpt lat="44.87439987975279" lon="10.182608092025172"><ele>43.0</ele><time>2026-04-24T10:52:38Z</time></trkpt><trkpt lat="44.874332120867514" lon="10.183013355917609"><ele>43.0</ele><time>2026-04-24T10:52:39Z</time></trkpt><trkpt lat="44.874265328180606" lon="10.183418658527293"><ele>43.5</ele><time>2026-04-24T10:52:40Z</time></trkpt><trkpt lat="44.87419442455126" lon="10.183824703084046"><ele>44.0</ele><time>2026-04-24T10:52:41Z</time></trkpt><trkpt lat="44.874122332766106" lon="10.184229554212891"><ele>44.0</ele><time>2026-04-24T10:52:42Z</time></trkpt><trkpt lat="44.87405233478047" lon="10.18463466229277"><ele>44.0</ele><time>2026-04-24T10:52:43Z</time></trkpt><trkpt lat="44.87398316426128" lon="10.185039040175454"><ele>43.5</ele><time>2026-04-24T10:52:44Z</time></trkpt><trkpt lat="44.873914728127765" lon="10.185447553014226"><ele>43.0</ele><time>2026-04-24T10:52:45Z</time></trkpt><trkpt lat="44.87384898160518" lon="10.18585378951159"><ele>43.0</ele><time>2026-04-24T10:52:46Z</time></trkpt><trkpt lat="44.873782980778046" lon="10.186265291775657"><ele>43.0</ele><time>2026-04-24T10:52:47Z</time></trkpt><trkpt lat="44.8737177160605" lon="10.186666275018837"><ele>43.5</ele><time>2026-04-24T10:52:48Z</time></trkpt><trkpt lat="44.87365691067842" lon="10.187076506090023"><ele>44.0</ele><time>2026-04-24T10:52:49Z</time></trkpt><trkpt lat="44.87360042967717" lon="10.187487102914085"><ele>44.0</ele><time>2026-04-24T10:52:50Z</time></trkpt><trkpt lat="44.87353899012401" lon="10.187891300010575"><ele>44.0</ele><time>2026-04-24T10:52:51Z</time></trkpt><trkpt lat="44.87346852564973" lon="10.18829208812285"><ele>42.0</ele><time>2026-04-24T10:52:52Z</time></trkpt><trkpt lat="44.8732657624511" lon="10.189506364510532"><ele>43.5</ele><time>2026-04-24T10:52:55Z</time></trkpt><trkpt lat="44.87319640760542" lon="10.18991530628296"><ele>45.0</ele><time>2026-04-24T10:52:56Z</time></trkpt><trkpt lat="44.87312701184939" lon="10.190324523874207"><ele>44.5</ele><time>2026-04-24T10:52:57Z</time></trkpt><trkpt lat="44.873057602894505" lon="10.190730093547812"><ele>44.0</ele><time>2026-04-24T10:52:58Z</time></trkpt><trkpt lat="44.8729885795207" lon="10.191139318469842"><ele>43.5</ele><time>2026-04-24T10:52:59Z</time></trkpt><trkpt lat="44.87291838815926" lon="10.191545879675626"><ele>43.0</ele><time>2026-04-24T10:53:00Z</time></trkpt><trkpt lat="44.872849919617266" lon="10.191951254645998"><ele>42.5</ele><time>2026-04-24T10:53:01Z</time></trkpt><trkpt lat="44.872779498031356" lon="10.19235923578401"><ele>42.0</ele><time>2026-04-24T10:53:02Z</time></trkpt><trkpt lat="44.872709671308435" lon="10.192767336864444"><ele>42.0</ele><time>2026-04-24T10:53:03Z</time></trkpt><trkpt lat="44.87263905525397" lon="10.1931757625215"><ele>42.0</ele><time>2026-04-24T10:53:04Z</time></trkpt><trkpt lat="44.872565842223196" lon="10.19357620325735"><ele>43.5</ele><time>2026-04-24T10:53:05Z</time></trkpt><trkpt lat="44.872494974962045" lon="10.193981860760967"><ele>45.0</ele><time>2026-04-24T10:53:06Z</time></trkpt><trkpt lat="44.87242056984139" lon="10.194388878032202"><ele>45.0</ele><time>2026-04-24T10:53:07Z</time></trkpt><trkpt lat="44.872348043928284" lon="10.194795778582689"><ele>45.0</ele><time>2026-04-24T10:53:08Z</time></trkpt><trkpt lat="44.872277229306434" lon="10.195202704666832"><ele>44.5</ele><time>2026-04-24T10:53:09Z</time></trkpt><trkpt lat="44.87220847084601" lon="10.195610217073"><ele>44.0</ele><time>2026-04-24T10:53:10Z</time></trkpt><trkpt lat="44.87213790632373" lon="10.196014396575007"><ele>44.0</ele><time>2026-04-24T10:53:11Z</time></trkpt><trkpt lat="44.87206854010345" lon="10.196423706765843"><ele>44.0</ele><time>2026-04-24T10:53:12Z</time></trkpt><trkpt lat="44.87199745052924" lon="10.196833066038918"><ele>44.0</ele><time>2026-04-24T10:53:13Z</time></trkpt><trkpt lat="44.87192223770424" lon="10.19722760854119"><ele>44.0</ele><time>2026-04-24T10:53:14Z</time></trkpt><trkpt lat="44.87185094652401" lon="10.19764456431744"><ele>44.0</ele><time>2026-04-24T10:53:15Z</time></trkpt><trkpt lat="44.87178036610196" lon="10.198048259689978"><ele>44.0</ele><time>2026-04-24T10:53:16Z</time></trkpt><trkpt lat="44.87171034793738" lon="10.198457431498197"><ele>44.0</ele><time>2026-04-24T10:53:17Z</time></trkpt><trkpt lat="44.87164144414304" lon="10.198862386458785"><ele>44.0</ele><time>2026-04-24T10:53:18Z</time></trkpt><trkpt lat="44.87157232088042" lon="10.199273356738574"><ele>44.5</ele><time>2026-04-24T10:53:19Z</time></trkpt><trkpt lat="44.8715049081327" lon="10.199679696870598"><ele>45.0</ele><time>2026-04-24T10:53:20Z</time></trkpt><trkpt lat="44.87143471261426" lon="10.20008783837206"><ele>45.0</ele><time>2026-04-24T10:53:21Z</time></trkpt><trkpt lat="44.8713654380349" lon="10.200493008078428"><ele>45.0</ele><time>2026-04-24T10:53:22Z</time></trkpt><trkpt lat="44.87129827863781" lon="10.20090278924507"><ele>45.0</ele><time>2026-04-24T10:53:23Z</time></trkpt><trkpt lat="44.87123026875534" lon="10.201307685417508"><ele>45.0</ele><time>2026-04-24T10:53:24Z</time></trkpt><trkpt lat="44.87116010358425" lon="10.20171541656593"><ele>45.0</ele><time>2026-04-24T10:53:25Z</time></trkpt><trkpt lat="44.87109013023368" lon="10.20212313768551"><ele>45.0</ele><time>2026-04-24T10:53:26Z</time></trkpt><trkpt lat="44.871021241087256" lon="10.202530053811277"><ele>45.0</ele><time>2026-04-24T10:53:27Z</time></trkpt><trkpt lat="44.87095008598613" lon="10.202937241629707"><ele>45.0</ele><time>2026-04-24T10:53:28Z</time></trkpt><trkpt lat="44.870879949408334" lon="10.203343226438054"><ele>44.5</ele><time>2026-04-24T10:53:29Z</time></trkpt><trkpt lat="44.870809309655094" lon="10.203750557019372"><ele>44.0</ele><time>2026-04-24T10:53:30Z</time></trkpt><trkpt lat="44.870741125566276" lon="10.204159558203768"><ele>44.0</ele><time>2026-04-24T10:53:31Z</time></trkpt><trkpt lat="44.87067226788405" lon="10.204564863100837"><ele>44.0</ele><time>2026-04-24T10:53:32Z</time></trkpt><trkpt lat="44.87060509439656" lon="10.204969131427797"><ele>43.5</ele><time>2026-04-24T10:53:33Z</time></trkpt><trkpt lat="44.87053802716912" lon="10.205377292262881"><ele>43.0</ele><time>2026-04-24T10:53:34Z</time></trkpt><trkpt lat="44.87047050593781" lon="10.205786940785037"><ele>43.0</ele><time>2026-04-24T10:53:35Z</time></trkpt><trkpt lat="44.87040083616148" lon="10.206198098166569"><ele>43.0</ele><time>2026-04-24T10:53:36Z</time></trkpt><trkpt lat="44.87033201413211" lon="10.206606714807009"><ele>44.0</ele><time>2026-04-24T10:53:37Z</time></trkpt><trkpt lat="44.87026404053768" lon="10.20701458600908"><ele>45.0</ele><time>2026-04-24T10:53:38Z</time></trkpt><trkpt lat="44.870193584838276" lon="10.207422782893687"><ele>45.0</ele><time>2026-04-24T10:53:39Z</time></trkpt><trkpt lat="44.87012394772367" lon="10.207826542468993"><ele>45.0</ele><time>2026-04-24T10:53:40Z</time></trkpt><trkpt lat="44.87005253602416" lon="10.20823659943156"><ele>45.0</ele><time>2026-04-24T10:53:41Z</time></trkpt><trkpt lat="44.869983005550054" lon="10.208639210943108"><ele>45.0</ele><time>2026-04-24T10:53:42Z</time></trkpt><trkpt lat="44.86991223108319" lon="10.209047160121157"><ele>45.0</ele><time>2026-04-24T10:53:43Z</time></trkpt><trkpt lat="44.86984380594365" lon="10.209453099606325"><ele>45.0</ele><time>2026-04-24T10:53:44Z</time></trkpt><trkpt lat="44.869775079083624" lon="10.209865404326193"><ele>45.0</ele><time>2026-04-24T10:53:45Z</time></trkpt><trkpt lat="44.86970538727348" lon="10.210270120711836"><ele>45.0</ele><time>2026-04-24T10:53:46Z</time></trkpt><trkpt lat="44.869634609098576" lon="10.21068066155827"><ele>45.0</ele><time>2026-04-24T10:53:47Z</time></trkpt><trkpt lat="44.86956555139211" lon="10.211086905545207"><ele>45.0</ele><time>2026-04-24T10:53:48Z</time></trkpt><trkpt lat="44.86949461919881" lon="10.211497460623631"><ele>45.0</ele><time>2026-04-24T10:53:49Z</time></trkpt><trkpt lat="44.86942504901283" lon="10.211904189087154"><ele>45.0</ele><time>2026-04-24T10:53:50Z</time></trkpt><trkpt lat="44.869357219059054" lon="10.212313181389918"><ele>45.0</ele><time>2026-04-24T10:53:51Z</time></trkpt><trkpt lat="44.869292070167894" lon="10.212719237732633"><ele>45.0</ele><time>2026-04-24T10:53:52Z</time></trkpt><trkpt lat="44.86922635572193" lon="10.21312874302849"><ele>46.5</ele><time>2026-04-24T10:53:53Z</time></trkpt><trkpt lat="44.86915920363616" lon="10.213536686341335"><ele>48.0</ele><time>2026-04-24T10:53:54Z</time></trkpt><trkpt lat="44.8690849940692" lon="10.213939909621823"><ele>47.0</ele><time>2026-04-24T10:53:55Z</time></trkpt><trkpt lat="44.86901891016795" lon="10.214345981857726"><ele>46.0</ele><time>2026-04-24T10:53:56Z</time></trkpt><trkpt lat="44.8689485886939" lon="10.214761528885548"><ele>45.0</ele><time>2026-04-24T10:53:57Z</time></trkpt><trkpt lat="44.86888179868865" lon="10.21516792982607"><ele>44.0</ele><time>2026-04-24T10:53:58Z</time></trkpt><trkpt lat="44.868813257274624" lon="10.215569904770348"><ele>43.5</ele><time>2026-04-24T10:53:59Z</time></trkpt><trkpt lat="44.86874619971577" lon="10.215978731441128"><ele>43.0</ele><time>2026-04-24T10:54:00Z</time></trkpt><trkpt lat="44.868678384743625" lon="10.216390339699405"><ele>43.0</ele><time>2026-04-24T10:54:01Z</time></trkpt><trkpt lat="44.86860957057542" lon="10.216797116481578"><ele>43.0</ele><time>2026-04-24T10:54:02Z</time></trkpt><trkpt lat="44.86853842577369" lon="10.217202390255256"><ele>43.5</ele><time>2026-04-24T10:54:03Z</time></trkpt><trkpt lat="44.86846811080772" lon="10.217610944703742"><ele>44.0</ele><time>2026-04-24T10:54:04Z</time></trkpt><trkpt lat="44.86839805519811" lon="10.218020552588364"><ele>43.5</ele><time>2026-04-24T10:54:05Z</time></trkpt><trkpt lat="44.8683280156117" lon="10.21842358136555"><ele>43.0</ele><time>2026-04-24T10:54:06.001Z</time></trkpt><trkpt lat="44.86825899331716" lon="10.218831112407784"><ele>43.0</ele><time>2026-04-24T10:54:07.001Z</time></trkpt><trkpt lat="44.86819056431053" lon="10.219237499279302"><ele>43.0</ele><time>2026-04-24T10:54:08.001Z</time></trkpt><trkpt lat="44.86812244473252" lon="10.219647374126788"><ele>43.5</ele><time>2026-04-24T10:54:09.001Z</time></trkpt><trkpt lat="44.86805098590996" lon="10.220051126346476"><ele>44.0</ele><time>2026-04-24T10:54:10.001Z</time></trkpt><trkpt lat="44.86798120478363" lon="10.220457489575406"><ele>44.0</ele><time>2026-04-24T10:54:11.001Z</time></trkpt><trkpt lat="44.86791138392173" lon="10.22086029744269"><ele>44.0</ele><time>2026-04-24T10:54:12.001Z</time></trkpt><trkpt lat="44.86784432201103" lon="10.221270045125998"><ele>43.5</ele><time>2026-04-24T10:54:13.001Z</time></trkpt><trkpt lat="44.86777556185122" lon="10.221679738995391"><ele>43.0</ele><time>2026-04-24T10:54:14.001Z</time></trkpt><trkpt lat="44.867702521522766" lon="10.222086311990562"><ele>43.0</ele><time>2026-04-24T10:54:15.001Z</time></trkpt><trkpt lat="44.86762702632645" lon="10.222486473287377"><ele>43.0</ele><time>2026-04-24T10:54:16.001Z</time></trkpt><trkpt lat="44.867547709859245" lon="10.22288884045595"><ele>43.0</ele><time>2026-04-24T10:54:17.001Z</time></trkpt><trkpt lat="44.867465380136295" lon="10.223296472827041"><ele>43.0</ele><time>2026-04-24T10:54:18.001Z</time></trkpt><trkpt lat="44.867380287063135" lon="10.223694560031115"><ele>43.0</ele><time>2026-04-24T10:54:19.001Z</time></trkpt><trkpt lat="44.867294473349055" lon="10.224094632096069"><ele>43.0</ele><time>2026-04-24T10:54:20.001Z</time></trkpt><trkpt lat="44.8672086236487" lon="10.224492264223299"><ele>43.0</ele><time>2026-04-24T10:54:21.001Z</time></trkpt><trkpt lat="44.86712135503916" lon="10.224895639194946"><ele>43.0</ele><time>2026-04-24T10:54:22.001Z</time></trkpt><trkpt lat="44.86703109692734" lon="10.225298593270777"><ele>44.0</ele><time>2026-04-24T10:54:23.001Z</time></trkpt><trkpt lat="44.86693526862729" lon="10.225689686532583"><ele>45.0</ele><time>2026-04-24T10:54:24.001Z</time></trkpt><trkpt lat="44.86684017554268" lon="10.226086178520859"><ele>45.0</ele><time>2026-04-24T10:54:25.001Z</time></trkpt><trkpt lat="44.86674413730237" lon="10.22648224602315"><ele>45.0</ele><time>2026-04-24T10:54:26.001Z</time></trkpt><trkpt lat="44.86665103698854" lon="10.22687745242687"><ele>45.0</ele><time>2026-04-24T10:54:27.001Z</time></trkpt><trkpt lat="44.866557111684614" lon="10.22727419603698"><ele>45.0</ele><time>2026-04-24T10:54:28.001Z</time></trkpt><trkpt lat="44.86646188377496" lon="10.227674288974848"><ele>45.0</ele><time>2026-04-24T10:54:29.001Z</time></trkpt><trkpt lat="44.86636885394395" lon="10.228063174704424"><ele>45.0</ele><time>2026-04-24T10:54:30.001Z</time></trkpt><trkpt lat="44.8662781973878" lon="10.228458226933862"><ele>45.0</ele><time>2026-04-24T10:54:31.001Z</time></trkpt><trkpt lat="44.866181441055716" lon="10.22885904099701"><ele>45.0</ele><time>2026-04-24T10:54:32.001Z</time></trkpt><trkpt lat="44.86608571689327" lon="10.229259271655943"><ele>44.5</ele><time>2026-04-24T10:54:33.001Z</time></trkpt><trkpt lat="44.865991393673646" lon="10.229654670515501"><ele>44.0</ele><time>2026-04-24T10:54:34.001Z</time></trkpt><trkpt lat="44.86589617149597" lon="10.230053361088931"><ele>44.0</ele><time>2026-04-24T10:54:35.001Z</time></trkpt><trkpt lat="44.86580188553357" lon="10.230448460562302"><ele>44.0</ele><time>2026-04-24T10:54:36.001Z</time></trkpt><trkpt lat="44.86570670331445" lon="10.230841236938872"><ele>43.5</ele><time>2026-04-24T10:54:37.001Z</time></trkpt><trkpt lat="44.865612970396" lon="10.231240381923074"><ele>43.0</ele><time>2026-04-24T10:54:38.001Z</time></trkpt><trkpt lat="44.8655190819531" lon="10.231637902976004"><ele>42.5</ele><time>2026-04-24T10:54:39.001Z</time></trkpt><trkpt lat="44.86542685256697" lon="10.232032294605279"><ele>42.0</ele><time>2026-04-24T10:54:40.001Z</time></trkpt><trkpt lat="44.86533061962101" lon="10.232428354934374"><ele>43.0</ele><time>2026-04-24T10:54:41.001Z</time></trkpt><trkpt lat="44.865234113677715" lon="10.232823175963624"><ele>44.0</ele><time>2026-04-24T10:54:42.001Z</time></trkpt><trkpt lat="44.86514058393538" lon="10.23321481225764"><ele>44.0</ele><time>2026-04-24T10:54:43.001Z</time></trkpt><trkpt lat="44.86504803148417" lon="10.233613959238442"><ele>44.0</ele><time>2026-04-24T10:54:44.001Z</time></trkpt><trkpt lat="44.86495639592587" lon="10.234006383238194"><ele>44.0</ele><time>2026-04-24T10:54:45.001Z</time></trkpt><trkpt lat="44.864861719137046" lon="10.234402924297358"><ele>44.0</ele><time>2026-04-24T10:54:46.001Z</time></trkpt><trkpt lat="44.86476562025864" lon="10.234797922450149"><ele>44.5</ele><time>2026-04-24T10:54:47.001Z</time></trkpt><trkpt lat="44.86466730951839" lon="10.235192785125276"><ele>45.0</ele><time>2026-04-24T10:54:48.001Z</time></trkpt><trkpt lat="44.86457022561783" lon="10.235588808061035"><ele>46.0</ele><time>2026-04-24T10:54:49.001Z</time></trkpt><trkpt lat="44.86447571676784" lon="10.235983942682253"><ele>47.0</ele><time>2026-04-24T10:54:50.001Z</time></trkpt><trkpt lat="44.864378411323855" lon="10.236380000021942"><ele>46.0</ele><time>2026-04-24T10:54:51.001Z</time></trkpt><trkpt lat="44.864286824807266" lon="10.23678272123395"><ele>45.0</ele><time>2026-04-24T10:54:52.001Z</time></trkpt><trkpt lat="44.864193633750936" lon="10.237177564154006"><ele>45.5</ele><time>2026-04-24T10:54:53.001Z</time></trkpt><trkpt lat="44.86409842292976" lon="10.237574577678794"><ele>46.0</ele><time>2026-04-24T10:54:54.001Z</time></trkpt><trkpt lat="44.864003265040886" lon="10.237973983657966"><ele>45.5</ele><time>2026-04-24T10:54:55.001Z</time></trkpt><trkpt lat="44.86390899244645" lon="10.238371936756828"><ele>45.0</ele><time>2026-04-24T10:54:56.001Z</time></trkpt><trkpt lat="44.86381505497202" lon="10.238771830607389"><ele>45.0</ele><time>2026-04-24T10:54:57.001Z</time></trkpt><trkpt lat="44.863721733073845" lon="10.239169013317872"><ele>45.0</ele><time>2026-04-24T10:54:58.001Z</time></trkpt><trkpt lat="44.863631531991814" lon="10.239560589594529"><ele>45.0</ele><time>2026-04-24T10:54:59.001Z</time></trkpt><trkpt lat="44.86354092828811" lon="10.23996122890627"><ele>45.0</ele><time>2026-04-24T10:55:00Z</time></trkpt><trkpt lat="44.86345270087296" lon="10.240359815673482"><ele>43.5</ele><time>2026-04-24T10:55:01Z</time></trkpt><trkpt lat="44.86336713570045" lon="10.240760280964729"><ele>42.0</ele><time>2026-04-24T10:55:02Z</time></trkpt><trkpt lat="44.86327503038098" lon="10.24116038560655"><ele>41.5</ele><time>2026-04-24T10:55:03Z</time></trkpt><trkpt lat="44.86318269184611" lon="10.241558633165102"><ele>41.0</ele><time>2026-04-24T10:55:04Z</time></trkpt><trkpt lat="44.86308806733678" lon="10.241961064183542"><ele>41.0</ele><time>2026-04-24T10:55:05Z</time></trkpt><trkpt lat="44.86299432694279" lon="10.242358348496976"><ele>41.0</ele><time>2026-04-24T10:55:06Z</time></trkpt><trkpt lat="44.86290287767801" lon="10.242750353231523"><ele>40.5</ele><time>2026-04-24T10:55:07Z</time></trkpt><trkpt lat="44.86280757269729" lon="10.24314650650694"><ele>40.0</ele><time>2026-04-24T10:55:08Z</time></trkpt><trkpt lat="44.86270893587923" lon="10.243540595993222"><ele>39.5</ele><time>2026-04-24T10:55:09Z</time></trkpt><trkpt lat="44.862608092046024" lon="10.243938812002002"><ele>39.0</ele><time>2026-04-24T10:55:10Z</time></trkpt><trkpt lat="44.86251013706382" lon="10.244332083412862"><ele>40.5</ele><time>2026-04-24T10:55:11Z</time></trkpt><trkpt lat="44.86241166974458" lon="10.244725681833167"><ele>42.0</ele><time>2026-04-24T10:55:12Z</time></trkpt><trkpt lat="44.86231442365494" lon="10.245119111843364"><ele>43.0</ele><time>2026-04-24T10:55:13Z</time></trkpt><trkpt lat="44.86221761378348" lon="10.245516747583592"><ele>44.0</ele><time>2026-04-24T10:55:14Z</time></trkpt><trkpt lat="44.862120994617854" lon="10.245912342442477"><ele>44.0</ele><time>2026-04-24T10:55:15Z</time></trkpt><trkpt lat="44.86202752690003" lon="10.246305083957541"><ele>44.0</ele><time>2026-04-24T10:55:16Z</time></trkpt><trkpt lat="44.86193356195265" lon="10.246700163692829"><ele>44.0</ele><time>2026-04-24T10:55:17Z</time></trkpt><trkpt lat="44.86183691476504" lon="10.247098066698403"><ele>44.0</ele><time>2026-04-24T10:55:18Z</time></trkpt><trkpt lat="44.86174075408444" lon="10.247496579024485"><ele>44.5</ele><time>2026-04-24T10:55:19Z</time></trkpt><trkpt lat="44.86164624035521" lon="10.247891785407115"><ele>45.0</ele><time>2026-04-24T10:55:20Z</time></trkpt><trkpt lat="44.86155026716094" lon="10.248284856352592"><ele>45.0</ele><time>2026-04-24T10:55:21Z</time></trkpt><trkpt lat="44.86145329288474" lon="10.248680122718621"><ele>45.0</ele><time>2026-04-24T10:55:22Z</time></trkpt><trkpt lat="44.861354544374784" lon="10.249079165676692"><ele>45.0</ele><time>2026-04-24T10:55:23Z</time></trkpt><trkpt lat="44.861262283555675" lon="10.249473173373417"><ele>45.0</ele><time>2026-04-24T10:55:24Z</time></trkpt><trkpt lat="44.86117114105381" lon="10.24987029640548"><ele>43.5</ele><time>2026-04-24T10:55:25Z</time></trkpt><trkpt lat="44.86107801071375" lon="10.25026860240341"><ele>42.0</ele><time>2026-04-24T10:55:26Z</time></trkpt><trkpt lat="44.86098350837822" lon="10.250665776287507"><ele>42.0</ele><time>2026-04-24T10:55:27Z</time></trkpt><trkpt lat="44.860888014831225" lon="10.251063901522075"><ele>42.0</ele><time>2026-04-24T10:55:28Z</time></trkpt><trkpt lat="44.86079343421675" lon="10.251458034476729"><ele>41.5</ele><time>2026-04-24T10:55:29Z</time></trkpt><trkpt lat="44.86069884811531" lon="10.251855879797779"><ele>41.0</ele><time>2026-04-24T10:55:30Z</time></trkpt><trkpt lat="44.860603389189116" lon="10.252255770419632"><ele>41.0</ele><time>2026-04-24T10:55:31Z</time></trkpt><trkpt lat="44.86051056511197" lon="10.252650415011859"><ele>41.0</ele><time>2026-04-24T10:55:32Z</time></trkpt><trkpt lat="44.860416042460535" lon="10.253046774135324"><ele>41.0</ele><time>2026-04-24T10:55:33Z</time></trkpt><trkpt lat="44.86032209090323" lon="10.25343685291841"><ele>41.0</ele><time>2026-04-24T10:55:34Z</time></trkpt><trkpt lat="44.86022644618348" lon="10.253830503641339"><ele>41.0</ele><time>2026-04-24T10:55:35Z</time></trkpt><trkpt lat="44.86013319103376" lon="10.254218223332764"><ele>41.0</ele><time>2026-04-24T10:55:36Z</time></trkpt><trkpt lat="44.86003898065375" lon="10.25460997095128"><ele>41.5</ele><time>2026-04-24T10:55:37Z</time></trkpt><trkpt lat="44.8599453194885" lon="10.255000701496595"><ele>42.0</ele><time>2026-04-24T10:55:38Z</time></trkpt><trkpt lat="44.8598530789665" lon="10.255390392444996"><ele>42.0</ele><time>2026-04-24T10:55:39Z</time></trkpt><trkpt lat="44.85975857785066" lon="10.255782516747384"><ele>42.0</ele><time>2026-04-24T10:55:40Z</time></trkpt><trkpt lat="44.8596644943422" lon="10.256175638839968"><ele>42.0</ele><time>2026-04-24T10:55:41Z</time></trkpt><trkpt lat="44.85957044309229" lon="10.2565704001594"><ele>42.0</ele><time>2026-04-24T10:55:42Z</time></trkpt><trkpt lat="44.859480010281246" lon="10.256964702192736"><ele>42.0</ele><time>2026-04-24T10:55:43Z</time></trkpt><trkpt lat="44.85938780290695" lon="10.257355869729384"><ele>42.0</ele><time>2026-04-24T10:55:44Z</time></trkpt><trkpt lat="44.8592946817867" lon="10.257745776554835"><ele>41.0</ele><time>2026-04-24T10:55:45Z</time></trkpt><trkpt lat="44.85920061230695" lon="10.2581413714717"><ele>40.0</ele><time>2026-04-24T10:55:46Z</time></trkpt><trkpt lat="44.859105339136484" lon="10.25853324857496"><ele>40.0</ele><time>2026-04-24T10:55:47Z</time></trkpt><trkpt lat="44.85901215045438" lon="10.258922795977671"><ele>40.0</ele><time>2026-04-24T10:55:48Z</time></trkpt><trkpt lat="44.85891254958117" lon="10.259315490079963"><ele>40.0</ele><time>2026-04-24T10:55:49Z</time></trkpt><trkpt lat="44.858813697895606" lon="10.259708049413055"><ele>40.0</ele><time>2026-04-24T10:55:50Z</time></trkpt><trkpt lat="44.85871559713687" lon="10.260099349028073"><ele>39.5</ele><time>2026-04-24T10:55:51Z</time></trkpt><trkpt lat="44.858621642315846" lon="10.260492936242066"><ele>39.0</ele><time>2026-04-24T10:55:52.001Z</time></trkpt><trkpt lat="44.85843811596482" lon="10.26128096101119"><ele>40.0</ele><time>2026-04-24T10:55:54.001Z</time></trkpt><trkpt lat="44.858346780166265" lon="10.261679405583692"><ele>41.0</ele><time>2026-04-24T10:55:55.001Z</time></trkpt><trkpt lat="44.858256265876285" lon="10.262073532407548"><ele>40.0</ele><time>2026-04-24T10:55:56.001Z</time></trkpt><trkpt lat="44.85816278105919" lon="10.26247116778042"><ele>39.0</ele><time>2026-04-24T10:55:57.001Z</time></trkpt><trkpt lat="44.858067587372965" lon="10.262865073317881"><ele>38.5</ele><time>2026-04-24T10:55:58.001Z</time></trkpt><trkpt lat="44.857971375713134" lon="10.263258650650982"><ele>38.0</ele><time>2026-04-24T10:55:59.001Z</time></trkpt><trkpt lat="44.857876585516934" lon="10.263651743698446"><ele>38.0</ele><time>2026-04-24T10:56:00.001Z</time></trkpt><trkpt lat="44.85778176566242" lon="10.264041182813354"><ele>38.0</ele><time>2026-04-24T10:56:01.001Z</time></trkpt><trkpt lat="44.85768709729459" lon="10.264436079691254"><ele>38.5</ele><time>2026-04-24T10:56:02.001Z</time></trkpt><trkpt lat="44.857593434602265" lon="10.2648306948261"><ele>39.0</ele><time>2026-04-24T10:56:03.001Z</time></trkpt><trkpt lat="44.85750193419344" lon="10.265222337719939"><ele>39.5</ele><time>2026-04-24T10:56:04.001Z</time></trkpt><trkpt lat="44.85740969509079" lon="10.265623343915772"><ele>40.0</ele><time>2026-04-24T10:56:05.001Z</time></trkpt><trkpt lat="44.857317501282395" lon="10.266016720977456"><ele>40.0</ele><time>2026-04-24T10:56:06.001Z</time></trkpt><trkpt lat="44.85722212274562" lon="10.26641302401662"><ele>40.0</ele><time>2026-04-24T10:56:07.001Z</time></trkpt><trkpt lat="44.857125421634294" lon="10.266805988213704"><ele>39.5</ele><time>2026-04-24T10:56:08.001Z</time></trkpt><trkpt lat="44.85703163292341" lon="10.267194160527096"><ele>39.0</ele><time>2026-04-24T10:56:09.001Z</time></trkpt><trkpt lat="44.85693558404511" lon="10.267594763569207"><ele>39.0</ele><time>2026-04-24T10:56:10.001Z</time></trkpt><trkpt lat="44.856841438141025" lon="10.267985136696314"><ele>39.0</ele><time>2026-04-24T10:56:11.001Z</time></trkpt><trkpt lat="44.856746883570814" lon="10.268379256794509"><ele>39.5</ele><time>2026-04-24T10:56:12.001Z</time></trkpt><trkpt lat="44.8566535098281" lon="10.26877548276684"><ele>40.0</ele><time>2026-04-24T10:56:13.001Z</time></trkpt><trkpt lat="44.85656108687513" lon="10.269169722500415"><ele>39.5</ele><time>2026-04-24T10:56:14.001Z</time></trkpt><trkpt lat="44.856469987031204" lon="10.269563025872419"><ele>39.0</ele><time>2026-04-24T10:56:15.001Z</time></trkpt><trkpt lat="44.85637595619199" lon="10.26995753392532"><ele>39.0</ele><time>2026-04-24T10:56:16.001Z</time></trkpt><trkpt lat="44.856283221387905" lon="10.27035231865233"><ele>39.0</ele><time>2026-04-24T10:56:17.001Z</time></trkpt><trkpt lat="44.85618840506153" lon="10.27074677985774"><ele>39.5</ele><time>2026-04-24T10:56:18.001Z</time></trkpt><trkpt lat="44.856092852670734" lon="10.271141240328483"><ele>40.0</ele><time>2026-04-24T10:56:19.001Z</time></trkpt><trkpt lat="44.85600031422268" lon="10.27153618948931"><ele>39.0</ele><time>2026-04-24T10:56:20.001Z</time></trkpt><trkpt lat="44.85590721337999" lon="10.271926569461364"><ele>38.0</ele><time>2026-04-24T10:56:21.001Z</time></trkpt><trkpt lat="44.85581064928137" lon="10.27232093935446"><ele>38.0</ele><time>2026-04-24T10:56:22.001Z</time></trkpt><trkpt lat="44.855715888724" lon="10.2727138893869"><ele>38.0</ele><time>2026-04-24T10:56:23.001Z</time></trkpt><trkpt lat="44.855620458531185" lon="10.27310996184062"><ele>39.0</ele><time>2026-04-24T10:56:24.001Z</time></trkpt><trkpt lat="44.85552709208698" lon="10.27349982517712"><ele>40.0</ele><time>2026-04-24T10:56:25.001Z</time></trkpt><trkpt lat="44.85543111196144" lon="10.273893244063707"><ele>39.5</ele><time>2026-04-24T10:56:26.001Z</time></trkpt><trkpt lat="44.85533567224458" lon="10.27428473905814"><ele>39.0</ele><time>2026-04-24T10:56:27.001Z</time></trkpt><trkpt lat="44.855241227472575" lon="10.274677343802649"><ele>40.0</ele><time>2026-04-24T10:56:28.001Z</time></trkpt><trkpt lat="44.855147112559195" lon="10.275073225012875"><ele>41.0</ele><time>2026-04-24T10:56:29.001Z</time></trkpt><trkpt lat="44.8550595103741" lon="10.275461301769543"><ele>41.5</ele><time>2026-04-24T10:56:30.001Z</time></trkpt><trkpt lat="44.85496882555387" lon="10.275861231053927"><ele>42.0</ele><time>2026-04-24T10:56:31.001Z</time></trkpt><trkpt lat="44.85487983327362" lon="10.276260724449738"><ele>41.0</ele><time>2026-04-24T10:56:32.001Z</time></trkpt><trkpt lat="44.8547861072725" lon="10.276654877670557"><ele>40.0</ele><time>2026-04-24T10:56:33.001Z</time></trkpt><trkpt lat="44.85468857284419" lon="10.277045676912005"><ele>39.0</ele><time>2026-04-24T10:56:34.001Z</time></trkpt><trkpt lat="44.85459198463909" lon="10.277437533438402"><ele>38.0</ele><time>2026-04-24T10:56:35.001Z</time></trkpt><trkpt lat="44.85449832219595" lon="10.277829276384637"><ele>38.0</ele><time>2026-04-24T10:56:36.001Z</time></trkpt><trkpt lat="44.85440330127805" lon="10.27822947655371"><ele>38.0</ele><time>2026-04-24T10:56:37.001Z</time></trkpt><trkpt lat="44.854310895368215" lon="10.27861828422245"><ele>37.5</ele><time>2026-04-24T10:56:38.001Z</time></trkpt><trkpt lat="44.854215556597275" lon="10.279008737583036"><ele>37.0</ele><time>2026-04-24T10:56:39.001Z</time></trkpt><trkpt lat="44.854120720912526" lon="10.279402451686927"><ele>36.5</ele><time>2026-04-24T10:56:40.001Z</time></trkpt><trkpt lat="44.85402390241599" lon="10.279797659135536"><ele>36.0</ele><time>2026-04-24T10:56:41.001Z</time></trkpt><trkpt lat="44.85392837200089" lon="10.280191607335402"><ele>36.0</ele><time>2026-04-24T10:56:42.001Z</time></trkpt><trkpt lat="44.853832280466804" lon="10.280584890866727"><ele>36.0</ele><time>2026-04-24T10:56:43.001Z</time></trkpt><trkpt lat="44.85373802991544" lon="10.280976163602785"><ele>36.0</ele><time>2026-04-24T10:56:44.001Z</time></trkpt><trkpt lat="44.853642810911325" lon="10.281368107158922"><ele>36.0</ele><time>2026-04-24T10:56:45.001Z</time></trkpt><trkpt lat="44.8535458744201" lon="10.281764339475611"><ele>37.0</ele><time>2026-04-24T10:56:46.001Z</time></trkpt><trkpt lat="44.8534526155722" lon="10.282154754989502"><ele>38.0</ele><time>2026-04-24T10:56:47.001Z</time></trkpt><trkpt lat="44.85335774895717" lon="10.282549372030992"><ele>38.0</ele><time>2026-04-24T10:56:48.001Z</time></trkpt><trkpt lat="44.853262018250604" lon="10.282945593073114"><ele>38.0</ele><time>2026-04-24T10:56:49.001Z</time></trkpt><trkpt lat="44.85316838253941" lon="10.28334006247682"><ele>37.5</ele><time>2026-04-24T10:56:50.001Z</time></trkpt><trkpt lat="44.85307339361036" lon="10.283737098960179"><ele>37.0</ele><time>2026-04-24T10:56:51.001Z</time></trkpt><trkpt lat="44.85298216400957" lon="10.284130480342595"><ele>37.0</ele><time>2026-04-24T10:56:52.001Z</time></trkpt><trkpt lat="44.852885249586166" lon="10.284522434111258"><ele>37.0</ele><time>2026-04-24T10:56:53.001Z</time></trkpt><trkpt lat="44.85278570706726" lon="10.28492187088497"><ele>37.0</ele><time>2026-04-24T10:56:54.001Z</time></trkpt><trkpt lat="44.85268964104816" lon="10.285311686167795"><ele>37.0</ele><time>2026-04-24T10:56:55.001Z</time></trkpt><trkpt lat="44.8525933822255" lon="10.285706705851757"><ele>35.0</ele><time>2026-04-24T10:56:56.001Z</time></trkpt><trkpt lat="44.85250094352656" lon="10.286099707687924"><ele>33.0</ele><time>2026-04-24T10:56:57.001Z</time></trkpt><trkpt lat="44.852409444867234" lon="10.28649338114221"><ele>33.0</ele><time>2026-04-24T10:56:58.001Z</time></trkpt><trkpt lat="44.85231699517329" lon="10.286888123680889"><ele>33.0</ele><time>2026-04-24T10:56:59.001Z</time></trkpt><trkpt lat="44.85222451017783" lon="10.287283894996797"><ele>33.5</ele><time>2026-04-24T10:57:00.001Z</time></trkpt><trkpt lat="44.852133354019706" lon="10.287677375534201"><ele>34.0</ele><time>2026-04-24T10:57:01.001Z</time></trkpt><trkpt lat="44.85204236411643" lon="10.288074729598595"><ele>34.5</ele><time>2026-04-24T10:57:02.001Z</time></trkpt><trkpt lat="44.85195751713008" lon="10.288466260784077"><ele>35.0</ele><time>2026-04-24T10:57:03.001Z</time></trkpt><trkpt lat="44.85186864044493" lon="10.28886553876226"><ele>36.5</ele><time>2026-04-24T10:57:04.001Z</time></trkpt><trkpt lat="44.851779388934446" lon="10.289262797193713"><ele>38.0</ele><time>2026-04-24T10:57:05.001Z</time></trkpt><trkpt lat="44.85169155588202" lon="10.289660938057034"><ele>37.5</ele><time>2026-04-24T10:57:06.001Z</time></trkpt><trkpt lat="44.85160144997989" lon="10.290054072222015"><ele>37.0</ele><time>2026-04-24T10:57:07.001Z</time></trkpt><trkpt lat="44.851507231163005" lon="10.290449264768691"><ele>36.0</ele><time>2026-04-24T10:57:08.001Z</time></trkpt><trkpt lat="44.85141244372232" lon="10.29084182380091"><ele>35.0</ele><time>2026-04-24T10:57:09Z</time></trkpt><trkpt lat="44.85131775475276" lon="10.291238551158305"><ele>35.5</ele><time>2026-04-24T10:57:10Z</time></trkpt><trkpt lat="44.851222900157246" lon="10.291634178588613"><ele>36.0</ele><time>2026-04-24T10:57:11Z</time></trkpt><trkpt lat="44.8511271297948" lon="10.292028011613226"><ele>36.5</ele><time>2026-04-24T10:57:12Z</time></trkpt><trkpt lat="44.85103057648569" lon="10.292417850799652"><ele>37.0</ele><time>2026-04-24T10:57:13Z</time></trkpt><trkpt lat="44.85093391185366" lon="10.29281244538086"><ele>37.0</ele><time>2026-04-24T10:57:14Z</time></trkpt><trkpt lat="44.85083774958854" lon="10.293206090559718"><ele>37.0</ele><time>2026-04-24T10:57:15Z</time></trkpt><trkpt lat="44.850744591046386" lon="10.293602315194295"><ele>37.5</ele><time>2026-04-24T10:57:16Z</time></trkpt><trkpt lat="44.85065243404734" lon="10.293998753903685"><ele>38.0</ele><time>2026-04-24T10:57:17Z</time></trkpt><trkpt lat="44.850561541470846" lon="10.294395703225547"><ele>38.0</ele><time>2026-04-24T10:57:18Z</time></trkpt><trkpt lat="44.850468237136305" lon="10.294789924596758"><ele>38.0</ele><time>2026-04-24T10:57:19Z</time></trkpt><trkpt lat="44.85037384696003" lon="10.295181125663039"><ele>38.0</ele><time>2026-04-24T10:57:20Z</time></trkpt><trkpt lat="44.85028132084395" lon="10.295573310498884"><ele>38.0</ele><time>2026-04-24T10:57:21Z</time></trkpt><trkpt lat="44.85018392510325" lon="10.295968695176597"><ele>37.5</ele><time>2026-04-24T10:57:22Z</time></trkpt><trkpt lat="44.85009230501704" lon="10.296357093878358"><ele>37.0</ele><time>2026-04-24T10:57:23Z</time></trkpt><trkpt lat="44.84999775820651" lon="10.29675161564569"><ele>37.0</ele><time>2026-04-24T10:57:24Z</time></trkpt><trkpt lat="44.849899607649405" lon="10.297145333047885"><ele>37.0</ele><time>2026-04-24T10:57:25Z</time></trkpt><trkpt lat="44.84979860256561" lon="10.297536625476702"><ele>37.5</ele><time>2026-04-24T10:57:26Z</time></trkpt><trkpt lat="44.84969772498348" lon="10.297929292542428"><ele>38.0</ele><time>2026-04-24T10:57:27Z</time></trkpt><trkpt lat="44.84959981483259" lon="10.298318568533166"><ele>38.0</ele><time>2026-04-24T10:57:28Z</time></trkpt><trkpt lat="44.8495001558396" lon="10.298710294411269"><ele>38.0</ele><time>2026-04-24T10:57:29Z</time></trkpt><trkpt lat="44.84940020774024" lon="10.29910530849013"><ele>38.0</ele><time>2026-04-24T10:57:30Z</time></trkpt><trkpt lat="44.84930655358017" lon="10.299496749106948"><ele>38.0</ele><time>2026-04-24T10:57:31Z</time></trkpt><trkpt lat="44.849212755801474" lon="10.29989168427543"><ele>38.0</ele><time>2026-04-24T10:57:32Z</time></trkpt><trkpt lat="44.8491148258772" lon="10.300286836809146"><ele>38.0</ele><time>2026-04-24T10:57:33Z</time></trkpt><trkpt lat="44.84901962140006" lon="10.300680243650568"><ele>38.5</ele><time>2026-04-24T10:57:34Z</time></trkpt><trkpt lat="44.848922373609795" lon="10.301076863142185"><ele>39.0</ele><time>2026-04-24T10:57:35Z</time></trkpt><trkpt lat="44.848828300291316" lon="10.301467595117987"><ele>38.5</ele><time>2026-04-24T10:57:36Z</time></trkpt><trkpt lat="44.84873056062107" lon="10.301867642288114"><ele>38.0</ele><time>2026-04-24T10:57:37Z</time></trkpt><trkpt lat="44.848634394869535" lon="10.302263691761443"><ele>38.0</ele><time>2026-04-24T10:57:38Z</time></trkpt><trkpt lat="44.848540514233505" lon="10.302654088439933"><ele>38.0</ele><time>2026-04-24T10:57:39Z</time></trkpt><trkpt lat="44.84844599379703" lon="10.303047129583057"><ele>38.5</ele><time>2026-04-24T10:57:40Z</time></trkpt><trkpt lat="44.84835269023287" lon="10.303440438955251"><ele>39.0</ele><time>2026-04-24T10:57:41Z</time></trkpt><trkpt lat="44.84826101756925" lon="10.303837609282505"><ele>39.0</ele><time>2026-04-24T10:57:42Z</time></trkpt><trkpt lat="44.84816561090291" lon="10.304232498844339"><ele>39.0</ele><time>2026-04-24T10:57:43Z</time></trkpt><trkpt lat="44.84807052926706" lon="10.304621023345275"><ele>39.5</ele><time>2026-04-24T10:57:44Z</time></trkpt><trkpt lat="44.84797439510673" lon="10.30501231551677"><ele>40.0</ele><time>2026-04-24T10:57:45Z</time></trkpt><trkpt lat="44.84787638497554" lon="10.305407548669123"><ele>40.5</ele><time>2026-04-24T10:57:46Z</time></trkpt><trkpt lat="44.84778132192501" lon="10.305801342758116"><ele>41.0</ele><time>2026-04-24T10:57:47Z</time></trkpt><trkpt lat="44.847688215343275" lon="10.306195774664824"><ele>42.0</ele><time>2026-04-24T10:57:48Z</time></trkpt><trkpt lat="44.84759531778718" lon="10.30659151084022"><ele>43.0</ele><time>2026-04-24T10:57:49Z</time></trkpt><trkpt lat="44.84750305731247" lon="10.30699154504007"><ele>42.0</ele><time>2026-04-24T10:57:50Z</time></trkpt><trkpt lat="44.847412510772145" lon="10.307388301980804"><ele>41.0</ele><time>2026-04-24T10:57:51Z</time></trkpt><trkpt lat="44.84731768953829" lon="10.307783962801636"><ele>41.0</ele><time>2026-04-24T10:57:52Z</time></trkpt><trkpt lat="44.84722094474206" lon="10.30817997594286"><ele>41.0</ele><time>2026-04-24T10:57:53Z</time></trkpt><trkpt lat="44.84712547145988" lon="10.308571433559873"><ele>41.5</ele><time>2026-04-24T10:57:54Z</time></trkpt><trkpt lat="44.8470309768767" lon="10.308965743401888"><ele>42.0</ele><time>2026-04-24T10:57:55Z</time></trkpt><trkpt lat="44.84693678025622" lon="10.309363332525262"><ele>41.5</ele><time>2026-04-24T10:57:56Z</time></trkpt><trkpt lat="44.84684584594594" lon="10.309760189183457"><ele>41.0</ele><time>2026-04-24T10:57:57Z</time></trkpt><trkpt lat="44.84675398016133" lon="10.310156528874307"><ele>41.0</ele><time>2026-04-24T10:57:58Z</time></trkpt><trkpt lat="44.846658402417006" lon="10.310553292032774"><ele>41.0</ele><time>2026-04-24T10:57:59Z</time></trkpt><trkpt lat="44.84656674339606" lon="10.310944007953903"><ele>41.0</ele><time>2026-04-24T10:58:00Z</time></trkpt><trkpt lat="44.84646972605774" lon="10.311336045165241"><ele>41.0</ele><time>2026-04-24T10:58:01Z</time></trkpt><trkpt lat="44.84637423302951" lon="10.31173358443489"><ele>41.0</ele><time>2026-04-24T10:58:02Z</time></trkpt><trkpt lat="44.846284926843076" lon="10.31213096663498"><ele>41.0</ele><time>2026-04-24T10:58:03Z</time></trkpt><trkpt lat="44.84619806801026" lon="10.312526540325822"><ele>41.0</ele><time>2026-04-24T10:58:04Z</time></trkpt><trkpt lat="44.8461093717731" lon="10.312927379816465"><ele>41.0</ele><time>2026-04-24T10:58:05Z</time></trkpt><trkpt lat="44.84601939316304" lon="10.313319271239784"><ele>41.5</ele><time>2026-04-24T10:58:06Z</time></trkpt><trkpt lat="44.84592499069701" lon="10.31371249955908"><ele>42.0</ele><time>2026-04-24T10:58:07Z</time></trkpt><trkpt lat="44.84583092378257" lon="10.31410587383934"><ele>42.5</ele><time>2026-04-24T10:58:08Z</time></trkpt><trkpt lat="44.84573398332868" lon="10.31449821210566"><ele>43.0</ele><time>2026-04-24T10:58:09Z</time></trkpt><trkpt lat="44.845637091464546" lon="10.314886814454418"><ele>43.0</ele><time>2026-04-24T10:58:10Z</time></trkpt><trkpt lat="44.845537406203256" lon="10.315282849412025"><ele>43.0</ele><time>2026-04-24T10:58:11Z</time></trkpt><trkpt lat="44.845440110572426" lon="10.315673320196508"><ele>42.0</ele><time>2026-04-24T10:58:12Z</time></trkpt><trkpt lat="44.84534447436412" lon="10.316068246930433"><ele>41.0</ele><time>2026-04-24T10:58:13Z</time></trkpt><trkpt lat="44.84525279665967" lon="10.316461583364509"><ele>40.5</ele><time>2026-04-24T10:58:14Z</time></trkpt><trkpt lat="44.84515886441261" lon="10.31685697027364"><ele>40.0</ele><time>2026-04-24T10:58:15Z</time></trkpt><trkpt lat="44.84506435782566" lon="10.31724824651967"><ele>41.0</ele><time>2026-04-24T10:58:16Z</time></trkpt><trkpt lat="44.84497043270897" lon="10.317646452746867"><ele>42.0</ele><time>2026-04-24T10:58:17Z</time></trkpt><trkpt lat="44.84487831041728" lon="10.318038420923777"><ele>40.5</ele><time>2026-04-24T10:58:18Z</time></trkpt><trkpt lat="44.844784857987854" lon="10.318431439670075"><ele>39.0</ele><time>2026-04-24T10:58:19Z</time></trkpt><trkpt lat="44.8446886673168" lon="10.318822893485532"><ele>39.5</ele><time>2026-04-24T10:58:20Z</time></trkpt><trkpt lat="44.844590439996715" lon="10.319213420344301"><ele>40.0</ele><time>2026-04-24T10:58:21Z</time></trkpt><trkpt lat="44.84448937244579" lon="10.31960375948402"><ele>40.0</ele><time>2026-04-24T10:58:22Z</time></trkpt><trkpt lat="44.84438685625203" lon="10.319991241473081"><ele>40.0</ele><time>2026-04-24T10:58:23Z</time></trkpt><trkpt lat="44.844283876682134" lon="10.320383700793618"><ele>40.5</ele><time>2026-04-24T10:58:24Z</time></trkpt><trkpt lat="44.84418686302837" lon="10.320778215625626"><ele>41.0</ele><time>2026-04-24T10:58:25Z</time></trkpt><trkpt lat="44.84409144669369" lon="10.32116825492963"><ele>41.0</ele><time>2026-04-24T10:58:26Z</time></trkpt><trkpt lat="44.843997112217735" lon="10.321569172794016"><ele>41.0</ele><time>2026-04-24T10:58:27Z</time></trkpt><trkpt lat="44.843902740441784" lon="10.321963604894684"><ele>42.0</ele><time>2026-04-24T10:58:28Z</time></trkpt><trkpt lat="44.84380656671239" lon="10.322357130663955"><ele>43.0</ele><time>2026-04-24T10:58:29Z</time></trkpt><trkpt lat="44.843710670254566" lon="10.322746253192241"><ele>42.0</ele><time>2026-04-24T10:58:30Z</time></trkpt><trkpt lat="44.8436148507624" lon="10.323139690609002"><ele>41.0</ele><time>2026-04-24T10:58:31Z</time></trkpt><trkpt lat="44.84351958669825" lon="10.32354176464929"><ele>40.0</ele><time>2026-04-24T10:58:32Z</time></trkpt><trkpt lat="44.84342256687417" lon="10.323931152134463"><ele>39.0</ele><time>2026-04-24T10:58:33Z</time></trkpt><trkpt lat="44.8433274668178" lon="10.324323337304"><ele>39.0</ele><time>2026-04-24T10:58:34Z</time></trkpt><trkpt lat="44.84323496958454" lon="10.324714425384316"><ele>39.0</ele><time>2026-04-24T10:58:35Z</time></trkpt><trkpt lat="44.84314165569159" lon="10.32511173363652"><ele>39.0</ele><time>2026-04-24T10:58:36Z</time></trkpt><trkpt lat="44.84304899664461" lon="10.325506801553257"><ele>39.0</ele><time>2026-04-24T10:58:37.001Z</time></trkpt><trkpt lat="44.842955086350884" lon="10.325901842703686"><ele>39.0</ele><time>2026-04-24T10:58:38.001Z</time></trkpt><trkpt lat="44.84285917589676" lon="10.326292474880935"><ele>39.0</ele><time>2026-04-24T10:58:39.001Z</time></trkpt><trkpt lat="44.84276242961779" lon="10.326687797918435"><ele>39.0</ele><time>2026-04-24T10:58:40.001Z</time></trkpt><trkpt lat="44.84266703870902" lon="10.327085276373985"><ele>39.0</ele><time>2026-04-24T10:58:41.001Z</time></trkpt><trkpt lat="44.842572194014586" lon="10.327472506253565"><ele>39.5</ele><time>2026-04-24T10:58:42.001Z</time></trkpt><trkpt lat="44.84247509705706" lon="10.327868931227027"><ele>40.0</ele><time>2026-04-24T10:58:43.001Z</time></trkpt><trkpt lat="44.84237885443337" lon="10.328263740214817"><ele>40.0</ele><time>2026-04-24T10:58:44.001Z</time></trkpt><trkpt lat="44.84228247060422" lon="10.328659711319066"><ele>40.0</ele><time>2026-04-24T10:58:45.001Z</time></trkpt><trkpt lat="44.84218908615015" lon="10.329053525938821"><ele>39.0</ele><time>2026-04-24T10:58:46.001Z</time></trkpt><trkpt lat="44.84209633593357" lon="10.329448051860561"><ele>38.0</ele><time>2026-04-24T10:58:47.001Z</time></trkpt><trkpt lat="44.842003513990214" lon="10.329839898120479"><ele>38.0</ele><time>2026-04-24T10:58:48.001Z</time></trkpt><trkpt lat="44.84191024294173" lon="10.330236148339536"><ele>38.0</ele><time>2026-04-24T10:58:49.001Z</time></trkpt><trkpt lat="44.84181697732408" lon="10.33062802978518"><ele>37.5</ele><time>2026-04-24T10:58:50.001Z</time></trkpt><trkpt lat="44.841722631096076" lon="10.33102081207002"><ele>37.0</ele><time>2026-04-24T10:58:51.001Z</time></trkpt><trkpt lat="44.841626380659335" lon="10.331415312250774"><ele>36.5</ele><time>2026-04-24T10:58:52.001Z</time></trkpt><trkpt lat="44.8415294081957" lon="10.331809671913316"><ele>36.0</ele><time>2026-04-24T10:58:53.001Z</time></trkpt><trkpt lat="44.84143368248023" lon="10.332201581084618"><ele>37.0</ele><time>2026-04-24T10:58:54.001Z</time></trkpt><trkpt lat="44.841338262755166" lon="10.332596648855562"><ele>38.0</ele><time>2026-04-24T10:58:55.001Z</time></trkpt><trkpt lat="44.84124403765968" lon="10.33299215006671"><ele>39.0</ele><time>2026-04-24T10:58:56.001Z</time></trkpt><trkpt lat="44.84114798089901" lon="10.333390444543733"><ele>40.0</ele><time>2026-04-24T10:58:57.001Z</time></trkpt><trkpt lat="44.84105347539094" lon="10.333780613546704"><ele>38.5</ele><time>2026-04-24T10:58:58.001Z</time></trkpt><trkpt lat="44.840957801499464" lon="10.334174868371676"><ele>37.0</ele><time>2026-04-24T10:58:59.001Z</time></trkpt><trkpt lat="44.840862165971785" lon="10.334567283199416"><ele>37.0</ele><time>2026-04-24T10:59:00.001Z</time></trkpt><trkpt lat="44.840769630405006" lon="10.334960438570143"><ele>37.0</ele><time>2026-04-24T10:59:01.001Z</time></trkpt><trkpt lat="44.84067704323745" lon="10.335356678850156"><ele>37.0</ele><time>2026-04-24T10:59:02.001Z</time></trkpt><trkpt lat="44.84058399349408" lon="10.335745386197903"><ele>37.0</ele><time>2026-04-24T10:59:03.001Z</time></trkpt><trkpt lat="44.84049075255999" lon="10.336137584682263"><ele>37.5</ele><time>2026-04-24T10:59:04.001Z</time></trkpt><trkpt lat="44.84039704521763" lon="10.336532409290577"><ele>38.0</ele><time>2026-04-24T10:59:05.001Z</time></trkpt><trkpt lat="44.84030000804679" lon="10.336932431779156"><ele>38.0</ele><time>2026-04-24T10:59:06.001Z</time></trkpt><trkpt lat="44.84020749051103" lon="10.337327357132375"><ele>38.0</ele><time>2026-04-24T10:59:07.001Z</time></trkpt><trkpt lat="44.84011212852164" lon="10.337721099573749"><ele>38.0</ele><time>2026-04-24T10:59:08.001Z</time></trkpt><trkpt lat="44.840016686210596" lon="10.338115727365114"><ele>38.0</ele><time>2026-04-24T10:59:09.001Z</time></trkpt><trkpt lat="44.83992197554029" lon="10.338507710502943"><ele>39.5</ele><time>2026-04-24T10:59:10.001Z</time></trkpt><trkpt lat="44.839827183562186" lon="10.338901339842803"><ele>41.0</ele><time>2026-04-24T10:59:11.001Z</time></trkpt><trkpt lat="44.839732853132766" lon="10.339295264021123"><ele>41.0</ele><time>2026-04-24T10:59:12.001Z</time></trkpt><trkpt lat="44.83964195415404" lon="10.339691679480717"><ele>41.0</ele><time>2026-04-24T10:59:13.001Z</time></trkpt><trkpt lat="44.839551160709405" lon="10.340085626311799"><ele>40.5</ele><time>2026-04-24T10:59:14.001Z</time></trkpt><trkpt lat="44.83945842487892" lon="10.34047802458025"><ele>40.0</ele><time>2026-04-24T10:59:15.001Z</time></trkpt><trkpt lat="44.83936419246324" lon="10.340876402569128"><ele>39.0</ele><time>2026-04-24T10:59:16Z</time></trkpt><trkpt lat="44.83926762899799" lon="10.341272311063012"><ele>38.0</ele><time>2026-04-24T10:59:17Z</time></trkpt><trkpt lat="44.83917173496369" lon="10.341660276975905"><ele>37.5</ele><time>2026-04-24T10:59:18Z</time></trkpt><trkpt lat="44.83907322580742" lon="10.34205234342304"><ele>37.0</ele><time>2026-04-24T10:59:19Z</time></trkpt><trkpt lat="44.83897477491954" lon="10.3424467881526"><ele>37.0</ele><time>2026-04-24T10:59:20Z</time></trkpt><trkpt lat="44.83887969879673" lon="10.342843223287005"><ele>37.0</ele><time>2026-04-24T10:59:21Z</time></trkpt><trkpt lat="44.838785778179094" lon="10.343241123716616"><ele>37.0</ele><time>2026-04-24T10:59:22Z</time></trkpt><trkpt lat="44.83869473669587" lon="10.343635086234519"><ele>37.0</ele><time>2026-04-24T10:59:23Z</time></trkpt><trkpt lat="44.838600751484094" lon="10.34403147712577"><ele>37.5</ele><time>2026-04-24T10:59:24Z</time></trkpt><trkpt lat="44.83850916350507" lon="10.344422422445279"><ele>38.0</ele><time>2026-04-24T10:59:25Z</time></trkpt><trkpt lat="44.83841914263297" lon="10.344814983383072"><ele>38.0</ele><time>2026-04-24T10:59:26Z</time></trkpt><trkpt lat="44.8383328734049" lon="10.34521269269446"><ele>38.0</ele><time>2026-04-24T10:59:27Z</time></trkpt><trkpt lat="44.83824426851277" lon="10.345611160174977"><ele>38.5</ele><time>2026-04-24T10:59:28Z</time></trkpt><trkpt lat="44.83815427034887" lon="10.346002829743714"><ele>39.0</ele><time>2026-04-24T10:59:29Z</time></trkpt><trkpt lat="44.838060086131634" lon="10.346389579051968"><ele>39.0</ele><time>2026-04-24T10:59:30Z</time></trkpt><trkpt lat="44.837960033584686" lon="10.346777628270326"><ele>39.0</ele><time>2026-04-24T10:59:31Z</time></trkpt><trkpt lat="44.837857582947485" lon="10.347162678893142"><ele>39.0</ele><time>2026-04-24T10:59:32Z</time></trkpt><trkpt lat="44.83775222396254" lon="10.347548439067404"><ele>39.0</ele><time>2026-04-24T10:59:33Z</time></trkpt><trkpt lat="44.83764664040241" lon="10.347943652359449"><ele>40.5</ele><time>2026-04-24T10:59:34Z</time></trkpt><trkpt lat="44.83754515894925" lon="10.348333330634818"><ele>42.0</ele><time>2026-04-24T10:59:35Z</time></trkpt><trkpt lat="44.8374443315558" lon="10.348728305399478"><ele>41.5</ele><time>2026-04-24T10:59:36Z</time></trkpt><trkpt lat="44.83734515976245" lon="10.349121748096305"><ele>41.0</ele><time>2026-04-24T10:59:37Z</time></trkpt><trkpt lat="44.83724330549805" lon="10.349515383093193"><ele>41.0</ele><time>2026-04-24T10:59:38Z</time></trkpt><trkpt lat="44.83713896504878" lon="10.349904500935533"><ele>41.0</ele><time>2026-04-24T10:59:39Z</time></trkpt><trkpt lat="44.837031403567636" lon="10.350289433786585"><ele>39.5</ele><time>2026-04-24T10:59:40Z</time></trkpt><trkpt lat="44.83691999082536" lon="10.35067576141519"><ele>38.0</ele><time>2026-04-24T10:59:41Z</time></trkpt><trkpt lat="44.83680522703627" lon="10.351061846755448"><ele>38.0</ele><time>2026-04-24T10:59:42Z</time></trkpt><trkpt lat="44.836691982193855" lon="10.351442746657256"><ele>38.0</ele><time>2026-04-24T10:59:43Z</time></trkpt><trkpt lat="44.83657713180236" lon="10.351827982430095"><ele>37.0</ele><time>2026-04-24T10:59:44Z</time></trkpt><trkpt lat="44.836458958477586" lon="10.352212513278833"><ele>36.0</ele><time>2026-04-24T10:59:45Z</time></trkpt><trkpt lat="44.836339136271306" lon="10.352595267785818"><ele>36.0</ele><time>2026-04-24T10:59:46Z</time></trkpt><trkpt lat="44.836214388760304" lon="10.352980093565769"><ele>36.0</ele><time>2026-04-24T10:59:47Z</time></trkpt><trkpt lat="44.836085713351" lon="10.353360539057345"><ele>36.0</ele><time>2026-04-24T10:59:48Z</time></trkpt><trkpt lat="44.83595649039955" lon="10.35373820399602"><ele>36.0</ele><time>2026-04-24T10:59:49Z</time></trkpt><trkpt lat="44.835829292487276" lon="10.354110285750082"><ele>36.0</ele><time>2026-04-24T10:59:50Z</time></trkpt><trkpt lat="44.83569877987096" lon="10.354483014042378"><ele>36.0</ele><time>2026-04-24T10:59:51Z</time></trkpt><trkpt lat="44.83556688580407" lon="10.3548489426555"><ele>36.0</ele><time>2026-04-24T10:59:52Z</time></trkpt><trkpt lat="44.83542767916578" lon="10.35521509863631"><ele>36.0</ele><time>2026-04-24T10:59:53Z</time></trkpt><trkpt lat="44.835284814979" lon="10.355582272942845"><ele>35.5</ele><time>2026-04-24T10:59:54Z</time></trkpt><trkpt lat="44.835144737926264" lon="10.355944620568193"><ele>35.0</ele><time>2026-04-24T10:59:55Z</time></trkpt><trkpt lat="44.835003849902364" lon="10.356311366321387"><ele>36.0</ele><time>2026-04-24T10:59:56Z</time></trkpt><trkpt lat="44.83486787025393" lon="10.356678561435096"><ele>37.0</ele><time>2026-04-24T10:59:57Z</time></trkpt><trkpt lat="44.83473365342251" lon="10.357049602859071"><ele>36.0</ele><time>2026-04-24T10:59:58Z</time></trkpt><trkpt lat="44.83460288341309" lon="10.357419201857136"><ele>35.0</ele><time>2026-04-24T10:59:59Z</time></trkpt><trkpt lat="44.83447113157993" lon="10.357790441192568"><ele>34.5</ele><time>2026-04-24T11:00:00Z</time></trkpt><trkpt lat="44.834337585531934" lon="10.358159828179218"><ele>34.0</ele><time>2026-04-24T11:00:01Z</time></trkpt><trkpt lat="44.83420135741024" lon="10.35853344258984"><ele>36.0</ele><time>2026-04-24T11:00:02Z</time></trkpt><trkpt lat="44.834066826628785" lon="10.358902545774448"><ele>38.0</ele><time>2026-04-24T11:00:03Z</time></trkpt><trkpt lat="44.83393042706562" lon="10.359272964821406"><ele>38.0</ele><time>2026-04-24T11:00:04Z</time></trkpt><trkpt lat="44.833794268199725" lon="10.359641939364268"><ele>38.0</ele><time>2026-04-24T11:00:05Z</time></trkpt><trkpt lat="44.83365608080131" lon="10.360007323451073"><ele>38.0</ele><time>2026-04-24T11:00:06Z</time></trkpt><trkpt lat="44.833518317807744" lon="10.360365282090585"><ele>38.0</ele><time>2026-04-24T11:00:07Z</time></trkpt><trkpt lat="44.83337932456155" lon="10.360730546813452"><ele>38.0</ele><time>2026-04-24T11:00:08Z</time></trkpt><trkpt lat="44.83324168649153" lon="10.361103744879987"><ele>38.0</ele><time>2026-04-24T11:00:09Z</time></trkpt><trkpt lat="44.83310940997277" lon="10.361471971176234"><ele>36.5</ele><time>2026-04-24T11:00:10Z</time></trkpt><trkpt lat="44.832973855052266" lon="10.36184450457357"><ele>35.0</ele><time>2026-04-24T11:00:11Z</time></trkpt><trkpt lat="44.832836291261025" lon="10.36221684062603"><ele>35.0</ele><time>2026-04-24T11:00:12Z</time></trkpt><trkpt lat="44.83270139750901" lon="10.36258589475107"><ele>35.0</ele><time>2026-04-24T11:00:13Z</time></trkpt><trkpt lat="44.832569025420874" lon="10.362954186527915"><ele>34.5</ele><time>2026-04-24T11:00:14Z</time></trkpt><trkpt lat="44.83243082979519" lon="10.363321309170448"><ele>34.0</ele><time>2026-04-24T11:00:15Z</time></trkpt><trkpt lat="44.832292719845704" lon="10.363688470434546"><ele>34.0</ele><time>2026-04-24T11:00:16Z</time></trkpt><trkpt lat="44.83215569605321" lon="10.364056950244269"><ele>34.0</ele><time>2026-04-24T11:00:17Z</time></trkpt><trkpt lat="44.83201783460738" lon="10.364427743036579"><ele>35.0</ele><time>2026-04-24T11:00:18Z</time></trkpt><trkpt lat="44.83187920031623" lon="10.364791923698817"><ele>36.0</ele><time>2026-04-24T11:00:19Z</time></trkpt><trkpt lat="44.831743313458404" lon="10.36515843987593"><ele>36.0</ele><time>2026-04-24T11:00:20Z</time></trkpt><trkpt lat="44.831607932254435" lon="10.365525632587035"><ele>36.0</ele><time>2026-04-24T11:00:21Z</time></trkpt><trkpt lat="44.83147064940591" lon="10.365891354983251"><ele>35.0</ele><time>2026-04-24T11:00:22Z</time></trkpt><trkpt lat="44.83133541905739" lon="10.3662585508442"><ele>34.0</ele><time>2026-04-24T11:00:23Z</time></trkpt><trkpt lat="44.83119812530761" lon="10.366624969500668"><ele>34.0</ele><time>2026-04-24T11:00:24Z</time></trkpt><trkpt lat="44.83106151576367" lon="10.366992635688247"><ele>34.0</ele><time>2026-04-24T11:00:25Z</time></trkpt><trkpt lat="44.830923212273" lon="10.367365435561513"><ele>35.0</ele><time>2026-04-24T11:00:26Z</time></trkpt><trkpt lat="44.83078353890837" lon="10.367734820423859"><ele>36.0</ele><time>2026-04-24T11:00:27Z</time></trkpt><trkpt lat="44.83064362091581" lon="10.368099992889976"><ele>37.0</ele><time>2026-04-24T11:00:28Z</time></trkpt><trkpt lat="44.83050285356786" lon="10.368467187853527"><ele>38.0</ele><time>2026-04-24T11:00:29Z</time></trkpt><trkpt lat="44.83036559179021" lon="10.36884019714885"><ele>38.0</ele><time>2026-04-24T11:00:30Z</time></trkpt><trkpt lat="44.83023237770285" lon="10.36920804362722"><ele>38.0</ele><time>2026-04-24T11:00:31Z</time></trkpt><trkpt lat="44.83009830844616" lon="10.369576421238705"><ele>37.0</ele><time>2026-04-24T11:00:32Z</time></trkpt><trkpt lat="44.829961989782234" lon="10.369944814651861"><ele>36.0</ele><time>2026-04-24T11:00:33Z</time></trkpt><trkpt lat="44.82982363818457" lon="10.370314355979493"><ele>37.0</ele><time>2026-04-24T11:00:34Z</time></trkpt><trkpt lat="44.82968644178934" lon="10.370684198905428"><ele>38.0</ele><time>2026-04-24T11:00:35Z</time></trkpt><trkpt lat="44.82955099326947" lon="10.371050514323949"><ele>37.5</ele><time>2026-04-24T11:00:36Z</time></trkpt><trkpt lat="44.82941642444689" lon="10.371420822597655"><ele>37.0</ele><time>2026-04-24T11:00:37Z</time></trkpt><trkpt lat="44.82928460773661" lon="10.371793072807877"><ele>37.0</ele><time>2026-04-24T11:00:38Z</time></trkpt><trkpt lat="44.82915252607619" lon="10.372157619749407"><ele>37.0</ele><time>2026-04-24T11:00:39Z</time></trkpt><trkpt lat="44.8290243074094" lon="10.372526220661872"><ele>36.5</ele><time>2026-04-24T11:00:40Z</time></trkpt><trkpt lat="44.82889758078358" lon="10.372902721709124"><ele>36.0</ele><time>2026-04-24T11:00:41Z</time></trkpt><trkpt lat="44.82876720527779" lon="10.373274232753323"><ele>36.0</ele><time>2026-04-24T11:00:42Z</time></trkpt><trkpt lat="44.828631584404604" lon="10.373644276011351"><ele>36.0</ele><time>2026-04-24T11:00:43Z</time></trkpt><trkpt lat="44.82849592460239" lon="10.374015209561627"><ele>36.5</ele><time>2026-04-24T11:00:44Z</time></trkpt><trkpt lat="44.82835743616242" lon="10.374386708025005"><ele>37.0</ele><time>2026-04-24T11:00:45Z</time></trkpt><trkpt lat="44.82822146424293" lon="10.374750113718175"><ele>37.0</ele><time>2026-04-24T11:00:46Z</time></trkpt><trkpt lat="44.82808567349027" lon="10.375121132360945"><ele>37.0</ele><time>2026-04-24T11:00:47Z</time></trkpt><trkpt lat="44.827949698935456" lon="10.375489773935087"><ele>37.0</ele><time>2026-04-24T11:00:48Z</time></trkpt><trkpt lat="44.827813697888544" lon="10.375855765356075"><ele>37.0</ele><time>2026-04-24T11:00:49Z</time></trkpt><trkpt lat="44.82768192815405" lon="10.376227982553216"><ele>38.0</ele><time>2026-04-24T11:00:50Z</time></trkpt><trkpt lat="44.82754341031098" lon="10.376597188468581"><ele>39.0</ele><time>2026-04-24T11:00:51Z</time></trkpt><trkpt lat="44.827407277078095" lon="10.376964400501851"><ele>38.5</ele><time>2026-04-24T11:00:52Z</time></trkpt><trkpt lat="44.82726806828537" lon="10.377333143859959"><ele>38.0</ele><time>2026-04-24T11:00:53Z</time></trkpt><trkpt lat="44.827132865093404" lon="10.377698787123188"><ele>38.0</ele><time>2026-04-24T11:00:54Z</time></trkpt><trkpt lat="44.82699292557065" lon="10.378072440528292"><ele>38.0</ele><time>2026-04-24T11:00:55Z</time></trkpt><trkpt lat="44.82685924384225" lon="10.378434486147874"><ele>38.5</ele><time>2026-04-24T11:00:56Z</time></trkpt><trkpt lat="44.82672464751297" lon="10.378804303904383"><ele>39.0</ele><time>2026-04-24T11:00:57Z</time></trkpt><trkpt lat="44.82658870828129" lon="10.379170651593574"><ele>39.0</ele><time>2026-04-24T11:00:58Z</time></trkpt><trkpt lat="44.82645081110834" lon="10.379535742768297"><ele>39.0</ele><time>2026-04-24T11:00:59Z</time></trkpt><trkpt lat="44.82631047275617" lon="10.379903163358442"><ele>39.5</ele><time>2026-04-24T11:01:00Z</time></trkpt><trkpt lat="44.82617061734053" lon="10.380267523199597"><ele>40.0</ele><time>2026-04-24T11:01:01Z</time></trkpt><trkpt lat="44.826034234528166" lon="10.380637651017437"><ele>39.5</ele><time>2026-04-24T11:01:02Z</time></trkpt><trkpt lat="44.825897857328805" lon="10.381005492410452"><ele>39.0</ele><time>2026-04-24T11:01:03Z</time></trkpt><trkpt lat="44.825766101886074" lon="10.38137330841214"><ele>38.5</ele><time>2026-04-24T11:01:04Z</time></trkpt><trkpt lat="44.82563379862939" lon="10.381740058329827"><ele>38.0</ele><time>2026-04-24T11:01:05Z</time></trkpt><trkpt lat="44.82549381764709" lon="10.382099945022784"><ele>38.5</ele><time>2026-04-24T11:01:06.001Z</time></trkpt><trkpt lat="44.825353189301026" lon="10.382465374953501"><ele>39.0</ele><time>2026-04-24T11:01:07.001Z</time></trkpt><trkpt lat="44.82522187407354" lon="10.38283031717052"><ele>40.0</ele><time>2026-04-24T11:01:08.001Z</time></trkpt><trkpt lat="44.82508608342938" lon="10.383201205718045"><ele>41.0</ele><time>2026-04-24T11:01:09.001Z</time></trkpt><trkpt lat="44.82494855412519" lon="10.383573431232268"><ele>41.0</ele><time>2026-04-24T11:01:10.001Z</time></trkpt><trkpt lat="44.82481284328128" lon="10.383944219995097"><ele>41.0</ele><time>2026-04-24T11:01:11.001Z</time></trkpt><trkpt lat="44.82467733846121" lon="10.384316704965249"><ele>42.0</ele><time>2026-04-24T11:01:12.001Z</time></trkpt><trkpt lat="44.824541275594484" lon="10.384682405185458"><ele>43.0</ele><time>2026-04-24T11:01:13.001Z</time></trkpt><trkpt lat="44.82440507025403" lon="10.385050147585465"><ele>41.5</ele><time>2026-04-24T11:01:14.001Z</time></trkpt><trkpt lat="44.824267963430366" lon="10.385422178412494"><ele>40.0</ele><time>2026-04-24T11:01:15.001Z</time></trkpt><trkpt lat="44.82413207513713" lon="10.38579514015097"><ele>40.0</ele><time>2026-04-24T11:01:16.001Z</time></trkpt><trkpt lat="44.82399504677678" lon="10.386165642651573"><ele>40.0</ele><time>2026-04-24T11:01:17Z</time></trkpt><trkpt lat="44.82385709684048" lon="10.38653413241068"><ele>40.0</ele><time>2026-04-24T11:01:18Z</time></trkpt><trkpt lat="44.823717859254515" lon="10.386906335163554"><ele>40.0</ele><time>2026-04-24T11:01:19Z</time></trkpt><trkpt lat="44.82358338979657" lon="10.387271879393207"><ele>39.0</ele><time>2026-04-24T11:01:20Z</time></trkpt><trkpt lat="44.82344427865638" lon="10.387645339766019"><ele>38.0</ele><time>2026-04-24T11:01:21Z</time></trkpt><trkpt lat="44.823305478545265" lon="10.388012186380527"><ele>37.0</ele><time>2026-04-24T11:01:22Z</time></trkpt><trkpt lat="44.823168136983284" lon="10.388381770602706"><ele>36.0</ele><time>2026-04-24T11:01:23Z</time></trkpt><trkpt lat="44.82302967217871" lon="10.388751648197761"><ele>36.0</ele><time>2026-04-24T11:01:24Z</time></trkpt><trkpt lat="44.82288981222223" lon="10.389120701794724"><ele>36.0</ele><time>2026-04-24T11:01:25Z</time></trkpt><trkpt lat="44.82275151255027" lon="10.389490936093953"><ele>37.5</ele><time>2026-04-24T11:01:26Z</time></trkpt><trkpt lat="44.8226178897961" lon="10.389856402771775"><ele>39.0</ele><time>2026-04-24T11:01:27Z</time></trkpt><trkpt lat="44.822481512853656" lon="10.390228883259"><ele>38.5</ele><time>2026-04-24T11:01:28Z</time></trkpt><trkpt lat="44.822347358645345" lon="10.390602854512293"><ele>38.0</ele><time>2026-04-24T11:01:29Z</time></trkpt><trkpt lat="44.82221419734715" lon="10.39096200223742"><ele>38.0</ele><time>2026-04-24T11:01:30Z</time></trkpt><trkpt lat="44.82207317205875" lon="10.391328095113892"><ele>38.0</ele><time>2026-04-24T11:01:31Z</time></trkpt><trkpt lat="44.82193700777368" lon="10.391703459003688"><ele>38.0</ele><time>2026-04-24T11:01:32Z</time></trkpt><trkpt lat="44.82180224265852" lon="10.392074930984865"><ele>38.0</ele><time>2026-04-24T11:01:33Z</time></trkpt><trkpt lat="44.82166911066325" lon="10.392444236299024"><ele>38.0</ele><time>2026-04-24T11:01:34Z</time></trkpt><trkpt lat="44.82153539034714" lon="10.392816478833076"><ele>38.0</ele><time>2026-04-24T11:01:35Z</time></trkpt><trkpt lat="44.821402109220514" lon="10.39318504606349"><ele>36.5</ele><time>2026-04-24T11:01:36Z</time></trkpt><trkpt lat="44.82126773774048" lon="10.393555630764833"><ele>35.0</ele><time>2026-04-24T11:01:37Z</time></trkpt><trkpt lat="44.82113284357375" lon="10.393923095156067"><ele>34.5</ele><time>2026-04-24T11:01:38Z</time></trkpt><trkpt lat="44.82099689315919" lon="10.394290924020797"><ele>34.0</ele><time>2026-04-24T11:01:39Z</time></trkpt><trkpt lat="44.820859580556466" lon="10.394656998828083"><ele>34.5</ele><time>2026-04-24T11:01:40Z</time></trkpt><trkpt lat="44.82072025215189" lon="10.39502497600294"><ele>35.0</ele><time>2026-04-24T11:01:41Z</time></trkpt><trkpt lat="44.820584804208806" lon="10.395393310549473"><ele>34.5</ele><time>2026-04-24T11:01:42Z</time></trkpt><trkpt lat="44.82044900765623" lon="10.395761802655395"><ele>34.0</ele><time>2026-04-24T11:01:43Z</time></trkpt><trkpt lat="44.82031315705532" lon="10.39613172725917"><ele>34.5</ele><time>2026-04-24T11:01:44Z</time></trkpt><trkpt lat="44.82017459330222" lon="10.39650724096105"><ele>35.0</ele><time>2026-04-24T11:01:45Z</time></trkpt><trkpt lat="44.82003595655325" lon="10.396874302754393"><ele>35.5</ele><time>2026-04-24T11:01:46Z</time></trkpt><trkpt lat="44.81990025914939" lon="10.397240343605269"><ele>36.0</ele><time>2026-04-24T11:01:47Z</time></trkpt><trkpt lat="44.819761202003" lon="10.397611675397116"><ele>36.0</ele><time>2026-04-24T11:01:48Z</time></trkpt><trkpt lat="44.81962171327138" lon="10.397979507477231"><ele>36.0</ele><time>2026-04-24T11:01:49Z</time></trkpt><trkpt lat="44.81948303164254" lon="10.398344662065345"><ele>36.0</ele><time>2026-04-24T11:01:50Z</time></trkpt><trkpt lat="44.81934136574047" lon="10.398710820839833"><ele>36.0</ele><time>2026-04-24T11:01:51Z</time></trkpt><trkpt lat="44.819199766080224" lon="10.399074707151057"><ele>36.0</ele><time>2026-04-24T11:01:52Z</time></trkpt><trkpt lat="44.81905755736975" lon="10.399439868942608"><ele>36.0</ele><time>2026-04-24T11:01:53Z</time></trkpt><trkpt lat="44.818917522762646" lon="10.399803567890602"><ele>35.5</ele><time>2026-04-24T11:01:54Z</time></trkpt><trkpt lat="44.81877813573381" lon="10.400169592457981"><ele>35.0</ele><time>2026-04-24T11:01:55Z</time></trkpt><trkpt lat="44.8186373686149" lon="10.40054084893709"><ele>35.0</ele><time>2026-04-24T11:01:56Z</time></trkpt><trkpt lat="44.81850142033481" lon="10.40090700062397"><ele>35.0</ele><time>2026-04-24T11:01:57Z</time></trkpt><trkpt lat="44.81836534016157" lon="10.4012755508294"><ele>34.0</ele><time>2026-04-24T11:01:58Z</time></trkpt><trkpt lat="44.81822866566144" lon="10.401644480464618"><ele>33.0</ele><time>2026-04-24T11:01:59Z</time></trkpt><trkpt lat="44.81809314645843" lon="10.402015283482562"><ele>34.5</ele><time>2026-04-24T11:02:00Z</time></trkpt><trkpt lat="44.8179593296595" lon="10.402383352366522"><ele>36.0</ele><time>2026-04-24T11:02:01Z</time></trkpt><trkpt lat="44.81782109837779" lon="10.402752387126164"><ele>35.5</ele><time>2026-04-24T11:02:02Z</time></trkpt><trkpt lat="44.81768356186414" lon="10.40311630248244"><ele>35.0</ele><time>2026-04-24T11:02:03Z</time></trkpt><trkpt lat="44.81754855992837" lon="10.403486085606303"><ele>34.5</ele><time>2026-04-24T11:02:04Z</time></trkpt><trkpt lat="44.81741633899314" lon="10.40385924931855"><ele>34.0</ele><time>2026-04-24T11:02:05Z</time></trkpt><trkpt lat="44.81728371254132" lon="10.40423563015266"><ele>34.0</ele><time>2026-04-24T11:02:06Z</time></trkpt><trkpt lat="44.81715630071898" lon="10.404609316150658"><ele>34.0</ele><time>2026-04-24T11:02:07Z</time></trkpt><trkpt lat="44.817025555981544" lon="10.404978260972552"><ele>33.5</ele><time>2026-04-24T11:02:08Z</time></trkpt><trkpt lat="44.81688994371181" lon="10.405347488179736"><ele>33.0</ele><time>2026-04-24T11:02:09Z</time></trkpt><trkpt lat="44.816752134973676" lon="10.405709040768842"><ele>34.0</ele><time>2026-04-24T11:02:10Z</time></trkpt><trkpt lat="44.81661437828259" lon="10.406076707056092"><ele>35.0</ele><time>2026-04-24T11:02:11Z</time></trkpt><trkpt lat="44.81647635713894" lon="10.406443331737377"><ele>35.0</ele><time>2026-04-24T11:02:12Z</time></trkpt><trkpt lat="44.8163305060824" lon="10.406805807810201"><ele>35.0</ele><time>2026-04-24T11:02:13Z</time></trkpt><trkpt lat="44.81618357309985" lon="10.407162808587541"><ele>35.0</ele><time>2026-04-24T11:02:14Z</time></trkpt><trkpt lat="44.81603351662724" lon="10.407522345632342"><ele>35.0</ele><time>2026-04-24T11:02:15Z</time></trkpt><trkpt lat="44.81589022359017" lon="10.407885339894374"><ele>36.0</ele><time>2026-04-24T11:02:16Z</time></trkpt><trkpt lat="44.81575212940327" lon="10.408256077390718"><ele>37.0</ele><time>2026-04-24T11:02:17Z</time></trkpt><trkpt lat="44.81561589203706" lon="10.408625209666862"><ele>36.0</ele><time>2026-04-24T11:02:18Z</time></trkpt><trkpt lat="44.81548393426378" lon="10.408998596925569"><ele>35.0</ele><time>2026-04-24T11:02:19Z</time></trkpt><trkpt lat="44.8153488926441" lon="10.40936436840554"><ele>34.5</ele><time>2026-04-24T11:02:20Z</time></trkpt><trkpt lat="44.815212203273155" lon="10.409734892975454"><ele>34.0</ele><time>2026-04-24T11:02:21Z</time></trkpt><trkpt lat="44.81507601503381" lon="10.410103664956976"><ele>35.5</ele><time>2026-04-24T11:02:22Z</time></trkpt><trkpt lat="44.8149421650562" lon="10.410472017717275"><ele>37.0</ele><time>2026-04-24T11:02:23Z</time></trkpt><trkpt lat="44.814806478579754" lon="10.41084227011993"><ele>37.0</ele><time>2026-04-24T11:02:24Z</time></trkpt><trkpt lat="44.814671749438155" lon="10.411213840069331"><ele>37.0</ele><time>2026-04-24T11:02:25Z</time></trkpt><trkpt lat="44.814537985261936" lon="10.411585024352004"><ele>36.5</ele><time>2026-04-24T11:02:26Z</time></trkpt><trkpt lat="44.81440378511202" lon="10.411955220844"><ele>36.0</ele><time>2026-04-24T11:02:27Z</time></trkpt><trkpt lat="44.81426755938011" lon="10.412324645021116"><ele>37.0</ele><time>2026-04-24T11:02:28Z</time></trkpt><trkpt lat="44.81413115690401" lon="10.41269009521326"><ele>38.0</ele><time>2026-04-24T11:02:29Z</time></trkpt><trkpt lat="44.81399281026294" lon="10.413056648272287"><ele>38.0</ele><time>2026-04-24T11:02:30Z</time></trkpt><trkpt lat="44.813852973695354" lon="10.413424555256213"><ele>38.0</ele><time>2026-04-24T11:02:31Z</time></trkpt><trkpt lat="44.813715932212354" lon="10.413789988804629"><ele>37.5</ele><time>2026-04-24T11:02:32Z</time></trkpt><trkpt lat="44.81357845847435" lon="10.41415953131959"><ele>37.0</ele><time>2026-04-24T11:02:33Z</time></trkpt><trkpt lat="44.813441420146134" lon="10.414528793990844"><ele>37.5</ele><time>2026-04-24T11:02:34Z</time></trkpt><trkpt lat="44.81330742754441" lon="10.41489552166082"><ele>38.0</ele><time>2026-04-24T11:02:35Z</time></trkpt><trkpt lat="44.81317004237813" lon="10.415266852489413"><ele>38.0</ele><time>2026-04-24T11:02:36Z</time></trkpt><trkpt lat="44.81303485206733" lon="10.415638766117013"><ele>38.0</ele><time>2026-04-24T11:02:37Z</time></trkpt><trkpt lat="44.81290014978403" lon="10.416010300182162"><ele>37.0</ele><time>2026-04-24T11:02:38Z</time></trkpt><trkpt lat="44.81276047019235" lon="10.416379518740392"><ele>36.0</ele><time>2026-04-24T11:02:39Z</time></trkpt><trkpt lat="44.81262434195389" lon="10.416747284624575"><ele>35.5</ele><time>2026-04-24T11:02:40Z</time></trkpt><trkpt lat="44.812488729119224" lon="10.417116248118953"><ele>35.0</ele><time>2026-04-24T11:02:41Z</time></trkpt><trkpt lat="44.81235295831972" lon="10.41748284740024"><ele>35.0</ele><time>2026-04-24T11:02:42Z</time></trkpt><trkpt lat="44.812216592577975" lon="10.417849914040673"><ele>35.0</ele><time>2026-04-24T11:02:43Z</time></trkpt><trkpt lat="44.81207716883969" lon="10.418217918946175"><ele>35.5</ele><time>2026-04-24T11:02:44Z</time></trkpt><trkpt lat="44.81193800376433" lon="10.418583786521046"><ele>36.0</ele><time>2026-04-24T11:02:45Z</time></trkpt><trkpt lat="44.811801258710744" lon="10.418951624245057"><ele>36.5</ele><time>2026-04-24T11:02:46Z</time></trkpt><trkpt lat="44.81166550884715" lon="10.419318983047773"><ele>37.0</ele><time>2026-04-24T11:02:47Z</time></trkpt><trkpt lat="44.81152776911617" lon="10.4196884354302"><ele>37.0</ele><time>2026-04-24T11:02:48Z</time></trkpt><trkpt lat="44.81139110549711" lon="10.420056950809578"><ele>37.0</ele><time>2026-04-24T11:02:49Z</time></trkpt><trkpt lat="44.8112549522651" lon="10.420426225004652"><ele>37.0</ele><time>2026-04-24T11:02:50Z</time></trkpt><trkpt lat="44.811119232774914" lon="10.420795083480387"><ele>37.0</ele><time>2026-04-24T11:02:51Z</time></trkpt><trkpt lat="44.810983571986434" lon="10.421164445839564"><ele>36.5</ele><time>2026-04-24T11:02:52Z</time></trkpt><trkpt lat="44.810849146390105" lon="10.421533845651163"><ele>36.0</ele><time>2026-04-24T11:02:53Z</time></trkpt><trkpt lat="44.81071587928114" lon="10.42190363115979"><ele>35.5</ele><time>2026-04-24T11:02:54Z</time></trkpt><trkpt lat="44.810579528127235" lon="10.422273189993222"><ele>35.0</ele><time>2026-04-24T11:02:55Z</time></trkpt><trkpt lat="44.81044170436733" lon="10.422639264576972"><ele>35.0</ele><time>2026-04-24T11:02:56Z</time></trkpt><trkpt lat="44.81029973461433" lon="10.423007307566053"><ele>35.0</ele><time>2026-04-24T11:02:57Z</time></trkpt><trkpt lat="44.81016136833622" lon="10.423372377927796"><ele>35.0</ele><time>2026-04-24T11:02:58Z</time></trkpt><trkpt lat="44.81002320709354" lon="10.42374037052718"><ele>35.0</ele><time>2026-04-24T11:02:59Z</time></trkpt><trkpt lat="44.80988547640479" lon="10.424109664689848"><ele>35.0</ele><time>2026-04-24T11:03:00Z</time></trkpt><trkpt lat="44.8097488913744" lon="10.42447920248937"><ele>35.0</ele><time>2026-04-24T11:03:01Z</time></trkpt><trkpt lat="44.8096125525508" lon="10.42484812009016"><ele>35.0</ele><time>2026-04-24T11:03:02Z</time></trkpt><trkpt lat="44.80947628491761" lon="10.42521641558541"><ele>35.0</ele><time>2026-04-24T11:03:03Z</time></trkpt><trkpt lat="44.80934209132402" lon="10.425585134337366"><ele>37.0</ele><time>2026-04-24T11:03:04Z</time></trkpt><trkpt lat="44.809205139672" lon="10.425955098453887"><ele>39.0</ele><time>2026-04-24T11:03:05Z</time></trkpt><trkpt lat="44.80906714822801" lon="10.426324492459186"><ele>39.0</ele><time>2026-04-24T11:03:06Z</time></trkpt><trkpt lat="44.808929200509965" lon="10.426694197953053"><ele>39.0</ele><time>2026-04-24T11:03:07Z</time></trkpt><trkpt lat="44.80879180907551" lon="10.427062517744947"><ele>38.0</ele><time>2026-04-24T11:03:08Z</time></trkpt><trkpt lat="44.80865710137269" lon="10.427429746966576"><ele>37.0</ele><time>2026-04-24T11:03:09Z</time></trkpt><trkpt lat="44.808522127572886" lon="10.427801357352715"><ele>37.5</ele><time>2026-04-24T11:03:10Z</time></trkpt><trkpt lat="44.80838685308277" lon="10.428172336079493"><ele>38.0</ele><time>2026-04-24T11:03:11Z</time></trkpt><trkpt lat="44.808251601310474" lon="10.42854022155858"><ele>37.0</ele><time>2026-04-24T11:03:12Z</time></trkpt><trkpt lat="44.80811157902078" lon="10.428907732894855"><ele>36.0</ele><time>2026-04-24T11:03:13Z</time></trkpt><trkpt lat="44.80797311823197" lon="10.42927019040368"><ele>36.0</ele><time>2026-04-24T11:03:14Z</time></trkpt><trkpt lat="44.80783913782692" lon="10.429630445650993"><ele>36.0</ele><time>2026-04-24T11:03:15Z</time></trkpt><trkpt lat="44.80770268342205" lon="10.430004743859504"><ele>36.5</ele><time>2026-04-24T11:03:16Z</time></trkpt><trkpt lat="44.80756860693032" lon="10.430378038759027"><ele>37.0</ele><time>2026-04-24T11:03:17Z</time></trkpt><trkpt lat="44.8074347599345" lon="10.43074580817931"><ele>37.5</ele><time>2026-04-24T11:03:18Z</time></trkpt><trkpt lat="44.80729829302247" lon="10.431114499536593"><ele>38.0</ele><time>2026-04-24T11:03:19Z</time></trkpt><trkpt lat="44.80716211504746" lon="10.43147959846033"><ele>38.5</ele><time>2026-04-24T11:03:20Z</time></trkpt><trkpt lat="44.8070203600752" lon="10.431846181587272"><ele>39.0</ele><time>2026-04-24T11:03:21Z</time></trkpt><trkpt lat="44.806883788987044" lon="10.432208507692648"><ele>39.0</ele><time>2026-04-24T11:03:22Z</time></trkpt><trkpt lat="44.80674369117032" lon="10.432575096856485"><ele>39.0</ele><time>2026-04-24T11:03:23Z</time></trkpt><trkpt lat="44.80660462694836" lon="10.43294242988794"><ele>38.0</ele><time>2026-04-24T11:03:24Z</time></trkpt><trkpt lat="44.806460450448604" lon="10.433306436723976"><ele>37.0</ele><time>2026-04-24T11:03:25Z</time></trkpt><trkpt lat="44.806315493896925" lon="10.43367034555557"><ele>37.0</ele><time>2026-04-24T11:03:26Z</time></trkpt><trkpt lat="44.806170122617665" lon="10.434033844126546"><ele>37.0</ele><time>2026-04-24T11:03:27Z</time></trkpt><trkpt lat="44.80603038369641" lon="10.434400263248342"><ele>38.0</ele><time>2026-04-24T11:03:28Z</time></trkpt><trkpt lat="44.805894772255385" lon="10.434767868067434"><ele>39.0</ele><time>2026-04-24T11:03:29Z</time></trkpt><trkpt lat="44.80575719090649" lon="10.435133985522892"><ele>39.0</ele><time>2026-04-24T11:03:30Z</time></trkpt><trkpt lat="44.805618558953775" lon="10.435500017516512"><ele>39.0</ele><time>2026-04-24T11:03:31Z</time></trkpt><trkpt lat="44.80547754041852" lon="10.435870382194334"><ele>39.0</ele><time>2026-04-24T11:03:32Z</time></trkpt><trkpt lat="44.80534132078611" lon="10.436237397186552"><ele>39.0</ele><time>2026-04-24T11:03:33Z</time></trkpt><trkpt lat="44.80520389563817" lon="10.43660596802083"><ele>38.5</ele><time>2026-04-24T11:03:34Z</time></trkpt><trkpt lat="44.80507160671425" lon="10.43697164386258"><ele>38.0</ele><time>2026-04-24T11:03:35Z</time></trkpt><trkpt lat="44.80493603823959" lon="10.437340525120423"><ele>38.0</ele><time>2026-04-24T11:03:36Z</time></trkpt><trkpt lat="44.80479908256754" lon="10.437711786023382"><ele>38.0</ele><time>2026-04-24T11:03:37Z</time></trkpt><trkpt lat="44.80466215691104" lon="10.438081451882116"><ele>38.0</ele><time>2026-04-24T11:03:38Z</time></trkpt><trkpt lat="44.804529157242996" lon="10.438450358192975"><ele>38.0</ele><time>2026-04-24T11:03:39Z</time></trkpt><trkpt lat="44.80439021266076" lon="10.438820070526308"><ele>38.0</ele><time>2026-04-24T11:03:40Z</time></trkpt><trkpt lat="44.80425228203996" lon="10.439187440637234"><ele>38.0</ele><time>2026-04-24T11:03:41Z</time></trkpt><trkpt lat="44.80411337712904" lon="10.43955644949162"><ele>39.0</ele><time>2026-04-24T11:03:42Z</time></trkpt><trkpt lat="44.803976238441024" lon="10.439927280088252"><ele>40.0</ele><time>2026-04-24T11:03:43Z</time></trkpt><trkpt lat="44.80384118576771" lon="10.440294635910503"><ele>39.5</ele><time>2026-04-24T11:03:44Z</time></trkpt><trkpt lat="44.803704212837964" lon="10.440661178444998"><ele>39.0</ele><time>2026-04-24T11:03:45Z</time></trkpt><trkpt lat="44.80356535436767" lon="10.44103038253373"><ele>37.5</ele><time>2026-04-24T11:03:46Z</time></trkpt><trkpt lat="44.80342864947903" lon="10.441399323313"><ele>36.0</ele><time>2026-04-24T11:03:47Z</time></trkpt><trkpt lat="44.80329087425263" lon="10.441770139711904"><ele>36.5</ele><time>2026-04-24T11:03:48Z</time></trkpt><trkpt lat="44.80315316322842" lon="10.442140294203732"><ele>37.0</ele><time>2026-04-24T11:03:49Z</time></trkpt><trkpt lat="44.803017601827875" lon="10.442506772545125"><ele>37.0</ele><time>2026-04-24T11:03:50Z</time></trkpt><trkpt lat="44.80288208520366" lon="10.442875537715565"><ele>37.0</ele><time>2026-04-24T11:03:51Z</time></trkpt><trkpt lat="44.80274282865919" lon="10.443245842623181"><ele>37.5</ele><time>2026-04-24T11:03:52Z</time></trkpt><trkpt lat="44.80260252168967" lon="10.443613707762047"><ele>38.0</ele><time>2026-04-24T11:03:53Z</time></trkpt><trkpt lat="44.80246258271995" lon="10.443982554296536"><ele>37.0</ele><time>2026-04-24T11:03:54Z</time></trkpt><trkpt lat="44.802325988741856" lon="10.444352934339237"><ele>36.0</ele><time>2026-04-24T11:03:55Z</time></trkpt><trkpt lat="44.802195745182004" lon="10.444723956948305"><ele>36.0</ele><time>2026-04-24T11:03:56Z</time></trkpt><trkpt lat="44.80206469882741" lon="10.445093041633648"><ele>36.0</ele><time>2026-04-24T11:03:57Z</time></trkpt><trkpt lat="44.80192911460912" lon="10.445460939906368"><ele>36.0</ele><time>2026-04-24T11:03:58Z</time></trkpt><trkpt lat="44.8017909391703" lon="10.445828954662964"><ele>36.0</ele><time>2026-04-24T11:03:59Z</time></trkpt><trkpt lat="44.801653585023836" lon="10.44619360006975"><ele>37.0</ele><time>2026-04-24T11:04:00Z</time></trkpt><trkpt lat="44.80151503988716" lon="10.446562104101675"><ele>38.0</ele><time>2026-04-24T11:04:01Z</time></trkpt><trkpt lat="44.80137731943123" lon="10.446929466495533"><ele>38.5</ele><time>2026-04-24T11:04:02Z</time></trkpt><trkpt lat="44.80124519864713" lon="10.447306062588599"><ele>39.0</ele><time>2026-04-24T11:04:03Z</time></trkpt><trkpt lat="44.801117013102335" lon="10.447679340972218"><ele>39.0</ele><time>2026-04-24T11:04:04Z</time></trkpt><trkpt lat="44.80098846294846" lon="10.448055005174494"><ele>39.0</ele><time>2026-04-24T11:04:05Z</time></trkpt><trkpt lat="44.80085864957232" lon="10.448424261262215"><ele>39.5</ele><time>2026-04-24T11:04:06Z</time></trkpt><trkpt lat="44.80072191793262" lon="10.448793603818178"><ele>40.0</ele><time>2026-04-24T11:04:07Z</time></trkpt><trkpt lat="44.80058481814369" lon="10.449163916857616"><ele>40.0</ele><time>2026-04-24T11:04:08Z</time></trkpt><trkpt lat="44.80044767674651" lon="10.449535762397323"><ele>40.0</ele><time>2026-04-24T11:04:09Z</time></trkpt><trkpt lat="44.80031373491567" lon="10.449906571693514"><ele>39.5</ele><time>2026-04-24T11:04:10Z</time></trkpt><trkpt lat="44.80018379785734" lon="10.450281731148742"><ele>39.0</ele><time>2026-04-24T11:04:11Z</time></trkpt><trkpt lat="44.800056274498644" lon="10.450656247933274"><ele>39.0</ele><time>2026-04-24T11:04:12Z</time></trkpt><trkpt lat="44.79992485039278" lon="10.451030991697387"><ele>39.0</ele><time>2026-04-24T11:04:13Z</time></trkpt><trkpt lat="44.79978894457548" lon="10.451394833923628"><ele>39.5</ele><time>2026-04-24T11:04:14Z</time></trkpt><trkpt lat="44.79964577379557" lon="10.451756468513882"><ele>40.0</ele><time>2026-04-24T11:04:15Z</time></trkpt><trkpt lat="44.79950070567997" lon="10.452118975428787"><ele>40.5</ele><time>2026-04-24T11:04:16Z</time></trkpt><trkpt lat="44.79935498511595" lon="10.452481297853069"><ele>41.0</ele><time>2026-04-24T11:04:17Z</time></trkpt><trkpt lat="44.799211227844495" lon="10.452842054898515"><ele>40.5</ele><time>2026-04-24T11:04:18Z</time></trkpt><trkpt lat="44.79906677464367" lon="10.453203115567966"><ele>40.0</ele><time>2026-04-24T11:04:19Z</time></trkpt><trkpt lat="44.79891983637666" lon="10.453561909850247"><ele>41.0</ele><time>2026-04-24T11:04:20Z</time></trkpt><trkpt lat="44.7987703620534" lon="10.453921252971034"><ele>42.0</ele><time>2026-04-24T11:04:21Z</time></trkpt><trkpt lat="44.798618249993744" lon="10.454277683631478"><ele>40.5</ele><time>2026-04-24T11:04:22Z</time></trkpt><trkpt lat="44.798465151011285" lon="10.454633057879818"><ele>39.0</ele><time>2026-04-24T11:04:23Z</time></trkpt><trkpt lat="44.79831203210753" lon="10.454984745889679"><ele>39.0</ele><time>2026-04-24T11:04:24Z</time></trkpt><trkpt lat="44.798155728777154" lon="10.455343387411046"><ele>39.0</ele><time>2026-04-24T11:04:25Z</time></trkpt><trkpt lat="44.79800146685678" lon="10.455701307980485"><ele>39.0</ele><time>2026-04-24T11:04:26Z</time></trkpt><trkpt lat="44.797852727151074" lon="10.4560591142129"><ele>39.0</ele><time>2026-04-24T11:04:27Z</time></trkpt><trkpt lat="44.797704377306665" lon="10.456422490916669"><ele>39.5</ele><time>2026-04-24T11:04:28Z</time></trkpt><trkpt lat="44.79755713984401" lon="10.456782198642225"><ele>40.0</ele><time>2026-04-24T11:04:29Z</time></trkpt><trkpt lat="44.797403488038896" lon="10.45714331681479"><ele>41.0</ele><time>2026-04-24T11:04:30Z</time></trkpt><trkpt lat="44.79724806357615" lon="10.45749682905655"><ele>42.0</ele><time>2026-04-24T11:04:31Z</time></trkpt><trkpt lat="44.7970892890953" lon="10.457849299608615"><ele>41.5</ele><time>2026-04-24T11:04:32Z</time></trkpt><trkpt lat="44.796929223639594" lon="10.458201097836524"><ele>41.0</ele><time>2026-04-24T11:04:33Z</time></trkpt><trkpt lat="44.79677021822481" lon="10.45854874678191"><ele>40.5</ele><time>2026-04-24T11:04:34Z</time></trkpt><trkpt lat="44.79661285665955" lon="10.458901607558953"><ele>40.0</ele><time>2026-04-24T11:04:35Z</time></trkpt><trkpt lat="44.79645903338946" lon="10.459255384538933"><ele>40.0</ele><time>2026-04-24T11:04:36Z</time></trkpt><trkpt lat="44.79630228637117" lon="10.459610216438818"><ele>40.0</ele><time>2026-04-24T11:04:37Z</time></trkpt><trkpt lat="44.79614363804485" lon="10.45996082475948"><ele>39.5</ele><time>2026-04-24T11:04:38Z</time></trkpt><trkpt lat="44.79598349683035" lon="10.460308034705625"><ele>39.0</ele><time>2026-04-24T11:04:39Z</time></trkpt><trkpt lat="44.79582034546295" lon="10.460662133862204"><ele>39.0</ele><time>2026-04-24T11:04:40Z</time></trkpt><trkpt lat="44.795658892254615" lon="10.461012796403228"><ele>39.0</ele><time>2026-04-24T11:04:41Z</time></trkpt><trkpt lat="44.7954990280692" lon="10.46135417395179"><ele>39.0</ele><time>2026-04-24T11:04:42Z</time></trkpt><trkpt lat="44.795335233874326" lon="10.461697384237661"><ele>39.0</ele><time>2026-04-24T11:04:43Z</time></trkpt><trkpt lat="44.79517144918594" lon="10.462043331002537"><ele>39.0</ele><time>2026-04-24T11:04:44Z</time></trkpt><trkpt lat="44.795009532264864" lon="10.462396430572186"><ele>39.0</ele><time>2026-04-24T11:04:45Z</time></trkpt><trkpt lat="44.79485258772594" lon="10.462737300137722"><ele>38.0</ele><time>2026-04-24T11:04:46Z</time></trkpt><trkpt lat="44.794689994300406" lon="10.463080471541376"><ele>37.0</ele><time>2026-04-24T11:04:47Z</time></trkpt><trkpt lat="44.79452726226245" lon="10.463431075924591"><ele>37.0</ele><time>2026-04-24T11:04:48Z</time></trkpt><trkpt lat="44.79436604476725" lon="10.46377770065191"><ele>37.0</ele><time>2026-04-24T11:04:49Z</time></trkpt><trkpt lat="44.79420184384506" lon="10.464126942027162"><ele>37.0</ele><time>2026-04-24T11:04:50Z</time></trkpt><trkpt lat="44.79403720851506" lon="10.46447290138195"><ele>37.0</ele><time>2026-04-24T11:04:51Z</time></trkpt><trkpt lat="44.7938702696238" lon="10.464819557817462"><ele>37.0</ele><time>2026-04-24T11:04:52Z</time></trkpt><trkpt lat="44.793706521173306" lon="10.465165315954017"><ele>37.0</ele><time>2026-04-24T11:04:53Z</time></trkpt><trkpt lat="44.79354385809023" lon="10.465510692281937"><ele>38.0</ele><time>2026-04-24T11:04:54Z</time></trkpt><trkpt lat="44.79338104667866" lon="10.465855805871808"><ele>39.0</ele><time>2026-04-24T11:04:55Z</time></trkpt><trkpt lat="44.793219119700765" lon="10.466202198333214"><ele>39.0</ele><time>2026-04-24T11:04:56Z</time></trkpt><trkpt lat="44.793056189157014" lon="10.466549760294932"><ele>39.0</ele><time>2026-04-24T11:04:57Z</time></trkpt><trkpt lat="44.792895048473554" lon="10.466893838486712"><ele>39.0</ele><time>2026-04-24T11:04:58Z</time></trkpt><trkpt lat="44.79273213685492" lon="10.467242544465742"><ele>39.0</ele><time>2026-04-24T11:04:59Z</time></trkpt><trkpt lat="44.79256842991235" lon="10.467586845483252"><ele>39.0</ele><time>2026-04-24T11:05:00Z</time></trkpt><trkpt lat="44.792403840030325" lon="10.46793433479788"><ele>39.0</ele><time>2026-04-24T11:05:01Z</time></trkpt><trkpt lat="44.792237427048086" lon="10.468280672015496"><ele>39.0</ele><time>2026-04-24T11:05:02Z</time></trkpt><trkpt lat="44.79207496551298" lon="10.46862425054447"><ele>39.0</ele><time>2026-04-24T11:05:03Z</time></trkpt><trkpt lat="44.79191254562593" lon="10.468972027495543"><ele>40.0</ele><time>2026-04-24T11:05:04Z</time></trkpt><trkpt lat="44.79175078963554" lon="10.469320444359095"><ele>41.0</ele><time>2026-04-24T11:05:05Z</time></trkpt><trkpt lat="44.79158957607961" lon="10.469669408563686"><ele>41.0</ele><time>2026-04-24T11:05:06Z</time></trkpt><trkpt lat="44.79143060582862" lon="10.470020897739708"><ele>41.0</ele><time>2026-04-24T11:05:07Z</time></trkpt><trkpt lat="44.79127445379334" lon="10.470372501445704"><ele>40.5</ele><time>2026-04-24T11:05:08Z</time></trkpt><trkpt lat="44.79111898291616" lon="10.47072426369909"><ele>40.0</ele><time>2026-04-24T11:05:09Z</time></trkpt><trkpt lat="44.79095857782621" lon="10.471076298972216"><ele>42.0</ele><time>2026-04-24T11:05:10Z</time></trkpt><trkpt lat="44.7907957518864" lon="10.471422675939603"><ele>44.0</ele><time>2026-04-24T11:05:11Z</time></trkpt><trkpt lat="44.790628409935806" lon="10.471777351272069"><ele>43.0</ele><time>2026-04-24T11:05:12Z</time></trkpt><trkpt lat="44.79046274576393" lon="10.47212176599153"><ele>42.0</ele><time>2026-04-24T11:05:13Z</time></trkpt><trkpt lat="44.790302849265444" lon="10.472467024000434"><ele>42.5</ele><time>2026-04-24T11:05:14Z</time></trkpt><trkpt lat="44.790141102795374" lon="10.47281306117185"><ele>43.0</ele><time>2026-04-24T11:05:15Z</time></trkpt><trkpt lat="44.789975670874945" lon="10.473163392816337"><ele>42.0</ele><time>2026-04-24T11:05:16Z</time></trkpt><trkpt lat="44.789812050840425" lon="10.473513231486733"><ele>41.0</ele><time>2026-04-24T11:05:17Z</time></trkpt><trkpt lat="44.789648986351956" lon="10.47385920412525"><ele>40.5</ele><time>2026-04-24T11:05:18Z</time></trkpt><trkpt lat="44.78948579656459" lon="10.474202138342408"><ele>40.0</ele><time>2026-04-24T11:05:19Z</time></trkpt><trkpt lat="44.789319802402126" lon="10.474544979315898"><ele>41.0</ele><time>2026-04-24T11:05:20Z</time></trkpt><trkpt lat="44.78915197385945" lon="10.474889462719295"><ele>42.0</ele><time>2026-04-24T11:05:21Z</time></trkpt><trkpt lat="44.788985829378355" lon="10.4752319364466"><ele>41.0</ele><time>2026-04-24T11:05:22Z</time></trkpt><trkpt lat="44.78881839173174" lon="10.475576025902722"><ele>40.0</ele><time>2026-04-24T11:05:23Z</time></trkpt><trkpt lat="44.788653303962114" lon="10.475919575884015"><ele>40.0</ele><time>2026-04-24T11:05:24Z</time></trkpt><trkpt lat="44.78849041062021" lon="10.476262700152258"><ele>40.0</ele><time>2026-04-24T11:05:25Z</time></trkpt><trkpt lat="44.78832731676641" lon="10.47661076075212"><ele>39.5</ele><time>2026-04-24T11:05:26Z</time></trkpt><trkpt lat="44.78816265870981" lon="10.476957065286609"><ele>39.0</ele><time>2026-04-24T11:05:27Z</time></trkpt><trkpt lat="44.7879998407068" lon="10.477303189261606"><ele>39.0</ele><time>2026-04-24T11:05:28Z</time></trkpt><trkpt lat="44.78783654067817" lon="10.477652078355648"><ele>39.0</ele><time>2026-04-24T11:05:29Z</time></trkpt><trkpt lat="44.78767383627187" lon="10.477996545114825"><ele>39.0</ele><time>2026-04-24T11:05:30Z</time></trkpt><trkpt lat="44.78750625878834" lon="10.478338336285228"><ele>39.0</ele><time>2026-04-24T11:05:31Z</time></trkpt><trkpt lat="44.78734201797271" lon="10.47868232749339"><ele>39.0</ele><time>2026-04-24T11:05:32Z</time></trkpt><trkpt lat="44.78717885515059" lon="10.479027669492137"><ele>39.0</ele><time>2026-04-24T11:05:33Z</time></trkpt><trkpt lat="44.78701658957344" lon="10.47937328647898"><ele>38.5</ele><time>2026-04-24T11:05:34Z</time></trkpt><trkpt lat="44.78685451626005" lon="10.479717795445708"><ele>38.0</ele><time>2026-04-24T11:05:35Z</time></trkpt><trkpt lat="44.78669137246148" lon="10.480063268261308"><ele>39.5</ele><time>2026-04-24T11:05:36Z</time></trkpt><trkpt lat="44.78653180866209" lon="10.480406907855443"><ele>41.0</ele><time>2026-04-24T11:05:37Z</time></trkpt><trkpt lat="44.7863736204108" lon="10.480752426869213"><ele>41.0</ele><time>2026-04-24T11:05:38Z</time></trkpt><trkpt lat="44.78621053420219" lon="10.481101886854018"><ele>41.0</ele><time>2026-04-24T11:05:39Z</time></trkpt><trkpt lat="44.786050213592084" lon="10.481448216909495"><ele>40.0</ele><time>2026-04-24T11:05:40Z</time></trkpt><trkpt lat="44.78588665992631" lon="10.481795501014602"><ele>39.0</ele><time>2026-04-24T11:05:41Z</time></trkpt><trkpt lat="44.78572187358895" lon="10.482139306925564"><ele>39.0</ele><time>2026-04-24T11:05:42Z</time></trkpt><trkpt lat="44.785555857610035" lon="10.482481362776607"><ele>39.0</ele><time>2026-04-24T11:05:43Z</time></trkpt><trkpt lat="44.78539836248495" lon="10.482809138311458"><ele>39.0</ele><time>2026-04-24T11:05:44Z</time></trkpt><trkpt lat="44.78525318404193" lon="10.483113066221179"><ele>39.0</ele><time>2026-04-24T11:05:45Z</time></trkpt><trkpt lat="44.785109069505026" lon="10.48341589891962"><ele>39.0</ele><time>2026-04-24T11:05:46Z</time></trkpt><trkpt lat="44.78497291773317" lon="10.483723655303857"><ele>39.0</ele><time>2026-04-24T11:05:47Z</time></trkpt><trkpt lat="44.78483430915351" lon="10.48405662893051"><ele>39.5</ele><time>2026-04-24T11:05:48Z</time></trkpt><trkpt lat="44.78468427451576" lon="10.484401297565539"><ele>40.0</ele><time>2026-04-24T11:05:49Z</time></trkpt><trkpt lat="44.78452990420854" lon="10.484736775211145"><ele>40.5</ele><time>2026-04-24T11:05:50Z</time></trkpt><trkpt lat="44.78437623849851" lon="10.485061491192685"><ele>41.0</ele><time>2026-04-24T11:05:51Z</time></trkpt><trkpt lat="44.78422432007902" lon="10.485383023454363"><ele>40.5</ele><time>2026-04-24T11:05:52Z</time></trkpt><trkpt lat="44.78407432036922" lon="10.48570662415449"><ele>40.0</ele><time>2026-04-24T11:05:53Z</time></trkpt><trkpt lat="44.783921493222735" lon="10.486031807811107"><ele>39.5</ele><time>2026-04-24T11:05:54Z</time></trkpt><trkpt lat="44.78376998511619" lon="10.48635906729816"><ele>39.0</ele><time>2026-04-24T11:05:55Z</time></trkpt><trkpt lat="44.783614810994855" lon="10.486689354563985"><ele>39.5</ele><time>2026-04-24T11:05:56Z</time></trkpt><trkpt lat="44.783454896205164" lon="10.487022801055879"><ele>40.0</ele><time>2026-04-24T11:05:57Z</time></trkpt><trkpt lat="44.783290460779874" lon="10.487365401650306"><ele>38.5</ele><time>2026-04-24T11:05:58Z</time></trkpt><trkpt lat="44.78312639820422" lon="10.487714732275158"><ele>37.0</ele><time>2026-04-24T11:05:59Z</time></trkpt><trkpt lat="44.78296247558016" lon="10.488065898053229"><ele>36.5</ele><time>2026-04-24T11:06:00Z</time></trkpt><trkpt lat="44.78279841403795" lon="10.488417506821817"><ele>36.0</ele><time>2026-04-24T11:06:01Z</time></trkpt><trkpt lat="44.78262699515669" lon="10.488778530528226"><ele>37.0</ele><time>2026-04-24T11:06:02Z</time></trkpt><trkpt lat="44.78245546937013" lon="10.489136683968912"><ele>38.0</ele><time>2026-04-24T11:06:03Z</time></trkpt><trkpt lat="44.78228468780335" lon="10.489484451636653"><ele>37.5</ele><time>2026-04-24T11:06:04Z</time></trkpt><trkpt lat="44.782109341305365" lon="10.489836735666332"><ele>37.0</ele><time>2026-04-24T11:06:05Z</time></trkpt><trkpt lat="44.781929900229215" lon="10.490206512168497"><ele>38.5</ele><time>2026-04-24T11:06:06Z</time></trkpt><trkpt lat="44.7817484528474" lon="10.490569865434248"><ele>40.0</ele><time>2026-04-24T11:06:07Z</time></trkpt><trkpt lat="44.78157091831331" lon="10.490936187163566"><ele>39.0</ele><time>2026-04-24T11:06:08Z</time></trkpt><trkpt lat="44.781402698332705" lon="10.49130085106388"><ele>38.0</ele><time>2026-04-24T11:06:09Z</time></trkpt><trkpt lat="44.781229378287065" lon="10.491664168422687"><ele>38.0</ele><time>2026-04-24T11:06:10Z</time></trkpt><trkpt lat="44.781055417879465" lon="10.492027508251521"><ele>38.0</ele><time>2026-04-24T11:06:11Z</time></trkpt><trkpt lat="44.78088586894912" lon="10.492385869690482"><ele>38.5</ele><time>2026-04-24T11:06:12Z</time></trkpt><trkpt lat="44.780721853992866" lon="10.492737337245906"><ele>39.0</ele><time>2026-04-24T11:06:13Z</time></trkpt><trkpt lat="44.7805625187265" lon="10.493088316298751"><ele>39.0</ele><time>2026-04-24T11:06:14Z</time></trkpt><trkpt lat="44.78040526568401" lon="10.493443059411375"><ele>39.0</ele><time>2026-04-24T11:06:15Z</time></trkpt><trkpt lat="44.78024587234463" lon="10.49379578331428"><ele>38.5</ele><time>2026-04-24T11:06:16Z</time></trkpt><trkpt lat="44.78008580551425" lon="10.494152412077538"><ele>38.0</ele><time>2026-04-24T11:06:17Z</time></trkpt><trkpt lat="44.779922187797894" lon="10.494502693487856"><ele>38.0</ele><time>2026-04-24T11:06:18Z</time></trkpt><trkpt lat="44.779757659999504" lon="10.494854830732566"><ele>38.0</ele><time>2026-04-24T11:06:19Z</time></trkpt><trkpt lat="44.77959290186535" lon="10.49520674579952"><ele>38.0</ele><time>2026-04-24T11:06:20Z</time></trkpt><trkpt lat="44.77942934885367" lon="10.495557463506866"><ele>38.0</ele><time>2026-04-24T11:06:21Z</time></trkpt><trkpt lat="44.779263807034845" lon="10.495894004587223"><ele>38.0</ele><time>2026-04-24T11:06:22Z</time></trkpt><trkpt lat="44.77910522132496" lon="10.496245101706439"><ele>38.0</ele><time>2026-04-24T11:06:23Z</time></trkpt><trkpt lat="44.778946142025006" lon="10.496585366541519"><ele>38.5</ele><time>2026-04-24T11:06:24Z</time></trkpt><trkpt lat="44.77878695791964" lon="10.496926307018853"><ele>39.0</ele><time>2026-04-24T11:06:25Z</time></trkpt><trkpt lat="44.77862250886002" lon="10.497272979120885"><ele>39.0</ele><time>2026-04-24T11:06:26Z</time></trkpt><trkpt lat="44.77845724644195" lon="10.497623410494526"><ele>39.0</ele><time>2026-04-24T11:06:27Z</time></trkpt><trkpt lat="44.77829150083843" lon="10.497962162344367"><ele>39.0</ele><time>2026-04-24T11:06:28Z</time></trkpt><trkpt lat="44.77812637504382" lon="10.498301713829457"><ele>39.0</ele><time>2026-04-24T11:06:29Z</time></trkpt><trkpt lat="44.77796248749104" lon="10.49864792362112"><ele>39.0</ele><time>2026-04-24T11:06:30Z</time></trkpt><trkpt lat="44.777800755555816" lon="10.49899263458477"><ele>39.0</ele><time>2026-04-24T11:06:31Z</time></trkpt><trkpt lat="44.77763822103192" lon="10.499341159308248"><ele>38.0</ele><time>2026-04-24T11:06:32Z</time></trkpt><trkpt lat="44.77747530339166" lon="10.49969219796715"><ele>37.0</ele><time>2026-04-24T11:06:33Z</time></trkpt><trkpt lat="44.77731234910315" lon="10.500038846772803"><ele>37.0</ele><time>2026-04-24T11:06:34Z</time></trkpt><trkpt lat="44.77715052325599" lon="10.500384319023695"><ele>37.0</ele><time>2026-04-24T11:06:35Z</time></trkpt><trkpt lat="44.77698682897154" lon="10.500728605342099"><ele>37.0</ele><time>2026-04-24T11:06:36Z</time></trkpt><trkpt lat="44.77682248238734" lon="10.501074679803024"><ele>37.0</ele><time>2026-04-24T11:06:37Z</time></trkpt><trkpt lat="44.776656654502325" lon="10.501421602719969"><ele>36.5</ele><time>2026-04-24T11:06:38Z</time></trkpt><trkpt lat="44.77648994194214" lon="10.501766687802126"><ele>36.0</ele><time>2026-04-24T11:06:39Z</time></trkpt><trkpt lat="44.77632671009247" lon="10.502113818402949"><ele>36.0</ele><time>2026-04-24T11:06:40Z</time></trkpt><trkpt lat="44.77616385057646" lon="10.502463081092454"><ele>36.0</ele><time>2026-04-24T11:06:41Z</time></trkpt><trkpt lat="44.77600190176144" lon="10.502815209865782"><ele>37.0</ele><time>2026-04-24T11:06:42Z</time></trkpt><trkpt lat="44.77583810411488" lon="10.503166326496986"><ele>38.0</ele><time>2026-04-24T11:06:43Z</time></trkpt><trkpt lat="44.77567470553196" lon="10.503509930934982"><ele>37.5</ele><time>2026-04-24T11:06:44Z</time></trkpt><trkpt lat="44.775514593338315" lon="10.503849106975395"><ele>37.0</ele><time>2026-04-24T11:06:45Z</time></trkpt><trkpt lat="44.77535099297547" lon="10.50419737576813"><ele>37.5</ele><time>2026-04-24T11:06:46Z</time></trkpt><trkpt lat="44.775185487808855" lon="10.504542958491323"><ele>38.0</ele><time>2026-04-24T11:06:47Z</time></trkpt><trkpt lat="44.77501887113196" lon="10.504886520415722"><ele>38.0</ele><time>2026-04-24T11:06:48Z</time></trkpt><trkpt lat="44.77485505103398" lon="10.50522912333901"><ele>38.0</ele><time>2026-04-24T11:06:49Z</time></trkpt><trkpt lat="44.774692759944365" lon="10.505574753955555"><ele>38.0</ele><time>2026-04-24T11:06:50Z</time></trkpt><trkpt lat="44.77452993665165" lon="10.505916797331095"><ele>38.0</ele><time>2026-04-24T11:06:51Z</time></trkpt><trkpt lat="44.774364652251165" lon="10.506263247777076"><ele>37.5</ele><time>2026-04-24T11:06:52Z</time></trkpt><trkpt lat="44.77420340326606" lon="10.506612377935474"><ele>37.0</ele><time>2026-04-24T11:06:53Z</time></trkpt><trkpt lat="44.77403988248636" lon="10.50695881759565"><ele>37.0</ele><time>2026-04-24T11:06:54Z</time></trkpt><trkpt lat="44.773873330461626" lon="10.507300667671032"><ele>37.0</ele><time>2026-04-24T11:06:55Z</time></trkpt><trkpt lat="44.77370311980548" lon="10.507641055611892"><ele>37.5</ele><time>2026-04-24T11:06:56Z</time></trkpt><trkpt lat="44.77352985523162" lon="10.507978050396636"><ele>38.0</ele><time>2026-04-24T11:06:57Z</time></trkpt><trkpt lat="44.77335871733462" lon="10.508315290675027"><ele>38.0</ele><time>2026-04-24T11:06:58Z</time></trkpt><trkpt lat="44.77319358985895" lon="10.508656185018468"><ele>38.0</ele><time>2026-04-24T11:06:59Z</time></trkpt><trkpt lat="44.773028953480434" lon="10.509003519358695"><ele>38.0</ele><time>2026-04-24T11:07:00Z</time></trkpt><trkpt lat="44.7728653292974" lon="10.509351956073518"><ele>38.0</ele><time>2026-04-24T11:07:01Z</time></trkpt><trkpt lat="44.77270405460569" lon="10.509695950366527"><ele>37.5</ele><time>2026-04-24T11:07:02Z</time></trkpt><trkpt lat="44.77254257372858" lon="10.510043437118666"><ele>37.0</ele><time>2026-04-24T11:07:03Z</time></trkpt><trkpt lat="44.77237956483923" lon="10.510391200792592"><ele>37.5</ele><time>2026-04-24T11:07:04Z</time></trkpt><trkpt lat="44.77221590565068" lon="10.510739642086534"><ele>38.0</ele><time>2026-04-24T11:07:05Z</time></trkpt><trkpt lat="44.77205396154124" lon="10.511085655697228"><ele>38.0</ele><time>2026-04-24T11:07:06Z</time></trkpt><trkpt lat="44.77188912011077" lon="10.511431463217617"><ele>38.0</ele><time>2026-04-24T11:07:07Z</time></trkpt><trkpt lat="44.771724925174226" lon="10.511774585579637"><ele>38.0</ele><time>2026-04-24T11:07:08Z</time></trkpt><trkpt lat="44.77155890828924" lon="10.512115337457761"><ele>38.0</ele><time>2026-04-24T11:07:09Z</time></trkpt><trkpt lat="44.77139266066398" lon="10.51246447497649"><ele>38.0</ele><time>2026-04-24T11:07:10Z</time></trkpt><trkpt lat="44.77123068807199" lon="10.512812137136518"><ele>38.0</ele><time>2026-04-24T11:07:11Z</time></trkpt><trkpt lat="44.771070108057025" lon="10.513158526147953"><ele>38.5</ele><time>2026-04-24T11:07:12Z</time></trkpt><trkpt lat="44.77090614705849" lon="10.513505661883263"><ele>39.0</ele><time>2026-04-24T11:07:13Z</time></trkpt><trkpt lat="44.77074105794976" lon="10.51384882882485"><ele>39.5</ele><time>2026-04-24T11:07:14Z</time></trkpt><trkpt lat="44.77057622954659" lon="10.514193207645869"><ele>40.0</ele><time>2026-04-24T11:07:15Z</time></trkpt><trkpt lat="44.77041143235588" lon="10.51453974884161"><ele>38.5</ele><time>2026-04-24T11:07:16Z</time></trkpt><trkpt lat="44.77024895901656" lon="10.514885168548032"><ele>37.0</ele><time>2026-04-24T11:07:17Z</time></trkpt><trkpt lat="44.770087488939055" lon="10.515230320026175"><ele>37.0</ele><time>2026-04-24T11:07:18Z</time></trkpt><trkpt lat="44.769925631158024" lon="10.515575582829024"><ele>37.0</ele><time>2026-04-24T11:07:19Z</time></trkpt><trkpt lat="44.76976486241474" lon="10.515918244052349"><ele>35.0</ele><time>2026-04-24T11:07:20Z</time></trkpt><trkpt lat="44.769601205398324" lon="10.51626435688847"><ele>33.0</ele><time>2026-04-24T11:07:21Z</time></trkpt><trkpt lat="44.769439650669646" lon="10.51660706898532"><ele>34.5</ele><time>2026-04-24T11:07:22Z</time></trkpt><trkpt lat="44.76927265561561" lon="10.516955706404646"><ele>36.0</ele><time>2026-04-24T11:07:23Z</time></trkpt><trkpt lat="44.76910950891343" lon="10.517299538583895"><ele>36.0</ele><time>2026-04-24T11:07:24Z</time></trkpt><trkpt lat="44.7689466416268" lon="10.517646702854494"><ele>36.0</ele><time>2026-04-24T11:07:25Z</time></trkpt><trkpt lat="44.768782622818755" lon="10.517993012156206"><ele>36.0</ele><time>2026-04-24T11:07:26Z</time></trkpt><trkpt lat="44.76862408694806" lon="10.518339951718968"><ele>36.0</ele><time>2026-04-24T11:07:27Z</time></trkpt><trkpt lat="44.76846114806327" lon="10.51869045285668"><ele>37.0</ele><time>2026-04-24T11:07:28Z</time></trkpt><trkpt lat="44.7682989484448" lon="10.519038504494707"><ele>38.0</ele><time>2026-04-24T11:07:29Z</time></trkpt><trkpt lat="44.76813039454132" lon="10.519384024106667"><ele>38.5</ele><time>2026-04-24T11:07:30Z</time></trkpt><trkpt lat="44.76796215366627" lon="10.519727455803348"><ele>39.0</ele><time>2026-04-24T11:07:31Z</time></trkpt><trkpt lat="44.76778324624664" lon="10.52011332349025"><ele>36.0</ele><time>2026-04-24T11:07:32Z</time></trkpt><trkpt lat="44.76762645799763" lon="10.520439597852047"><ele>33.0</ele><time>2026-04-24T11:07:33Z</time></trkpt><trkpt lat="44.7674680884822" lon="10.520778950459738"><ele>33.0</ele><time>2026-04-24T11:07:34Z</time></trkpt><trkpt lat="44.76730852215043" lon="10.521124763744425"><ele>33.0</ele><time>2026-04-24T11:07:35Z</time></trkpt><trkpt lat="44.76714547625772" lon="10.52147107912995"><ele>33.0</ele><time>2026-04-24T11:07:36Z</time></trkpt><trkpt lat="44.76698034937188" lon="10.52181481447062"><ele>33.0</ele><time>2026-04-24T11:07:37Z</time></trkpt><trkpt lat="44.766815320758106" lon="10.522157821469785"><ele>32.5</ele><time>2026-04-24T11:07:38Z</time></trkpt><trkpt lat="44.76665173427144" lon="10.522503018351117"><ele>32.0</ele><time>2026-04-24T11:07:39Z</time></trkpt><trkpt lat="44.766487505034334" lon="10.52284736484917"><ele>31.0</ele><time>2026-04-24T11:07:40Z</time></trkpt><trkpt lat="44.76632434918584" lon="10.523192614959697"><ele>30.0</ele><time>2026-04-24T11:07:41Z</time></trkpt><trkpt lat="44.766158888159936" lon="10.523539045133292"><ele>30.0</ele><time>2026-04-24T11:07:42Z</time></trkpt><trkpt lat="44.76599517951261" lon="10.523882705477764"><ele>30.0</ele><time>2026-04-24T11:07:43Z</time></trkpt><trkpt lat="44.7658309676232" lon="10.524226494897993"><ele>30.5</ele><time>2026-04-24T11:07:44Z</time></trkpt><trkpt lat="44.765667468473055" lon="10.524569999006099"><ele>31.0</ele><time>2026-04-24T11:07:45Z</time></trkpt><trkpt lat="44.765502214365426" lon="10.524912571120522"><ele>31.0</ele><time>2026-04-24T11:07:46Z</time></trkpt><trkpt lat="44.76533618747894" lon="10.525256884566012"><ele>31.0</ele><time>2026-04-24T11:07:47Z</time></trkpt><trkpt lat="44.76517087830847" lon="10.525601245635913"><ele>31.5</ele><time>2026-04-24T11:07:48Z</time></trkpt><trkpt lat="44.765009610221405" lon="10.525944762766434"><ele>32.0</ele><time>2026-04-24T11:07:49Z</time></trkpt><trkpt lat="44.764845959497436" lon="10.526290733668382"><ele>32.0</ele><time>2026-04-24T11:07:50Z</time></trkpt><trkpt lat="44.764680776668484" lon="10.52663620206322"><ele>32.0</ele><time>2026-04-24T11:07:51Z</time></trkpt><trkpt lat="44.76451836160061" lon="10.526979718484952"><ele>32.0</ele><time>2026-04-24T11:07:52Z</time></trkpt><trkpt lat="44.764355212696714" lon="10.527322834056662"><ele>32.0</ele><time>2026-04-24T11:07:53Z</time></trkpt><trkpt lat="44.76419214749368" lon="10.527667346252686"><ele>32.0</ele><time>2026-04-24T11:07:54Z</time></trkpt><trkpt lat="44.764030086700195" lon="10.528014454357267"><ele>32.0</ele><time>2026-04-24T11:07:55Z</time></trkpt><trkpt lat="44.76386624591915" lon="10.528361607806122"><ele>32.0</ele><time>2026-04-24T11:07:56Z</time></trkpt><trkpt lat="44.76370223926741" lon="10.528705905090112"><ele>32.0</ele><time>2026-04-24T11:07:57Z</time></trkpt><trkpt lat="44.76353736899587" lon="10.529048967082764"><ele>32.5</ele><time>2026-04-24T11:07:58Z</time></trkpt><trkpt lat="44.763373674849454" lon="10.529395720645976"><ele>33.0</ele><time>2026-04-24T11:07:59Z</time></trkpt><trkpt lat="44.76320974244651" lon="10.529740430105589"><ele>31.5</ele><time>2026-04-24T11:08:00Z</time></trkpt><trkpt lat="44.763047926282766" lon="10.530087257886107"><ele>30.0</ele><time>2026-04-24T11:08:01Z</time></trkpt><trkpt lat="44.76288798962565" lon="10.530433692836706"><ele>29.5</ele><time>2026-04-24T11:08:02Z</time></trkpt><trkpt lat="44.76272301241625" lon="10.530780554179596"><ele>29.0</ele><time>2026-04-24T11:08:03Z</time></trkpt><trkpt lat="44.76256065827531" lon="10.531124313547878"><ele>31.0</ele><time>2026-04-24T11:08:04Z</time></trkpt><trkpt lat="44.76239640893002" lon="10.531470015929346"><ele>33.0</ele><time>2026-04-24T11:08:05Z</time></trkpt><trkpt lat="44.76223499094672" lon="10.531811636130206"><ele>33.0</ele><time>2026-04-24T11:08:06Z</time></trkpt><trkpt lat="44.762069854930104" lon="10.53215596626947"><ele>33.0</ele><time>2026-04-24T11:08:07Z</time></trkpt><trkpt lat="44.761904358966824" lon="10.53250339359657"><ele>33.5</ele><time>2026-04-24T11:08:08Z</time></trkpt><trkpt lat="44.76174129531197" lon="10.532852077149887"><ele>34.0</ele><time>2026-04-24T11:08:09Z</time></trkpt><trkpt lat="44.7615767058906" lon="10.533199816911095"><ele>35.5</ele><time>2026-04-24T11:08:10Z</time></trkpt><trkpt lat="44.76141599269659" lon="10.533547650007927"><ele>37.0</ele><time>2026-04-24T11:08:11Z</time></trkpt><trkpt lat="44.76124817144533" lon="10.533894789011494"><ele>37.0</ele><time>2026-04-24T11:08:12Z</time></trkpt><trkpt lat="44.761081428229126" lon="10.534239520989278"><ele>37.0</ele><time>2026-04-24T11:08:13Z</time></trkpt><trkpt lat="44.76091783064331" lon="10.53458189587173"><ele>36.0</ele><time>2026-04-24T11:08:14Z</time></trkpt><trkpt lat="44.76075337696947" lon="10.534927663911521"><ele>35.0</ele><time>2026-04-24T11:08:15Z</time></trkpt><trkpt lat="44.76059299787418" lon="10.53527572651894"><ele>33.0</ele><time>2026-04-24T11:08:16Z</time></trkpt><trkpt lat="44.7604369101786" lon="10.535627169594587"><ele>31.0</ele><time>2026-04-24T11:08:17Z</time></trkpt><trkpt lat="44.760284028045184" lon="10.535981328033682"><ele>32.5</ele><time>2026-04-24T11:08:18Z</time></trkpt><trkpt lat="44.76012941537772" lon="10.536333724950897"><ele>34.0</ele><time>2026-04-24T11:08:19Z</time></trkpt><trkpt lat="44.759969331829424" lon="10.536682889530555"><ele>34.0</ele><time>2026-04-24T11:08:20Z</time></trkpt><trkpt lat="44.75980279422635" lon="10.537026038154373"><ele>34.0</ele><time>2026-04-24T11:08:21Z</time></trkpt><trkpt lat="44.75963474739516" lon="10.537365972563888"><ele>34.0</ele><time>2026-04-24T11:08:22Z</time></trkpt><trkpt lat="44.759469395912326" lon="10.537710237599143"><ele>34.0</ele><time>2026-04-24T11:08:23Z</time></trkpt><trkpt lat="44.75930810917557" lon="10.538055464057695"><ele>34.0</ele><time>2026-04-24T11:08:24Z</time></trkpt><trkpt lat="44.759145320118044" lon="10.538402526159054"><ele>34.0</ele><time>2026-04-24T11:08:25Z</time></trkpt><trkpt lat="44.75898041285853" lon="10.538749323388654"><ele>32.0</ele><time>2026-04-24T11:08:26Z</time></trkpt><trkpt lat="44.75881705792049" lon="10.53909579619828"><ele>30.0</ele><time>2026-04-24T11:08:27Z</time></trkpt><trkpt lat="44.758653169109934" lon="10.539438390750096"><ele>30.5</ele><time>2026-04-24T11:08:28Z</time></trkpt><trkpt lat="44.75848676856543" lon="10.539779183954543"><ele>31.0</ele><time>2026-04-24T11:08:29Z</time></trkpt><trkpt lat="44.75832339920704" lon="10.54012604095153"><ele>30.5</ele><time>2026-04-24T11:08:30Z</time></trkpt><trkpt lat="44.75816117413574" lon="10.540472627774797"><ele>30.0</ele><time>2026-04-24T11:08:31Z</time></trkpt><trkpt lat="44.75799646216627" lon="10.54081842392213"><ele>30.0</ele><time>2026-04-24T11:08:32Z</time></trkpt><trkpt lat="44.757834272039425" lon="10.541161078992811"><ele>30.0</ele><time>2026-04-24T11:08:33Z</time></trkpt><trkpt lat="44.75766852587579" lon="10.54150680596324"><ele>32.0</ele><time>2026-04-24T11:08:34Z</time></trkpt><trkpt lat="44.757501883233296" lon="10.541846170906684"><ele>34.0</ele><time>2026-04-24T11:08:35Z</time></trkpt><trkpt lat="44.757331004172855" lon="10.542188195747839"><ele>34.0</ele><time>2026-04-24T11:08:36Z</time></trkpt><trkpt lat="44.75715976581252" lon="10.542527425018077"><ele>34.0</ele><time>2026-04-24T11:08:37Z</time></trkpt><trkpt lat="44.75698842342249" lon="10.542866155837059"><ele>34.5</ele><time>2026-04-24T11:08:38Z</time></trkpt><trkpt lat="44.75681919146263" lon="10.543208647782528"><ele>35.0</ele><time>2026-04-24T11:08:39Z</time></trkpt><trkpt lat="44.75665169395646" lon="10.543554278164462"><ele>34.5</ele><time>2026-04-24T11:08:40Z</time></trkpt><trkpt lat="44.75648894367529" lon="10.543896924980405"><ele>34.0</ele><time>2026-04-24T11:08:41Z</time></trkpt><trkpt lat="44.75632562409739" lon="10.544243479046894"><ele>33.5</ele><time>2026-04-24T11:08:42Z</time></trkpt><trkpt lat="44.7561617741068" lon="10.54459103618947"><ele>33.0</ele><time>2026-04-24T11:08:43Z</time></trkpt><trkpt lat="44.75599580067201" lon="10.544936182782106"><ele>33.0</ele><time>2026-04-24T11:08:44Z</time></trkpt><trkpt lat="44.75583138132274" lon="10.545279297716231"><ele>33.0</ele><time>2026-04-24T11:08:45Z</time></trkpt><trkpt lat="44.75566486887464" lon="10.545625673968884"><ele>33.0</ele><time>2026-04-24T11:08:46Z</time></trkpt><trkpt lat="44.75550118481538" lon="10.545971517301407"><ele>33.0</ele><time>2026-04-24T11:08:47Z</time></trkpt><trkpt lat="44.75533859675121" lon="10.546316740916154"><ele>32.5</ele><time>2026-04-24T11:08:48Z</time></trkpt><trkpt lat="44.755178654368756" lon="10.546658894955508"><ele>32.0</ele><time>2026-04-24T11:08:49Z</time></trkpt><trkpt lat="44.755013261689726" lon="10.547008639869386"><ele>32.5</ele><time>2026-04-24T11:08:50Z</time></trkpt><trkpt lat="44.75484940549238" lon="10.54735475291656"><ele>33.0</ele><time>2026-04-24T11:08:51Z</time></trkpt><trkpt lat="44.75468325047778" lon="10.547696285175128"><ele>33.0</ele><time>2026-04-24T11:08:52Z</time></trkpt><trkpt lat="44.75451797762867" lon="10.548041140543488"><ele>33.0</ele><time>2026-04-24T11:08:53Z</time></trkpt><trkpt lat="44.75435320221599" lon="10.548388265599282"><ele>32.5</ele><time>2026-04-24T11:08:54Z</time></trkpt><trkpt lat="44.75419155203273" lon="10.548733310729766"><ele>32.0</ele><time>2026-04-24T11:08:55Z</time></trkpt><trkpt lat="44.75402714746315" lon="10.549079438328087"><ele>32.0</ele><time>2026-04-24T11:08:56Z</time></trkpt><trkpt lat="44.75386334787436" lon="10.549425789081305"><ele>32.0</ele><time>2026-04-24T11:08:57Z</time></trkpt><trkpt lat="44.75370108890844" lon="10.549774680698986"><ele>33.0</ele><time>2026-04-24T11:08:58Z</time></trkpt><trkpt lat="44.75353788840538" lon="10.550120795746201"><ele>34.0</ele><time>2026-04-24T11:08:59Z</time></trkpt><trkpt lat="44.7533738659537" lon="10.550465810640526"><ele>34.0</ele><time>2026-04-24T11:09:00Z</time></trkpt><trkpt lat="44.75320747394315" lon="10.55081053421713"><ele>34.0</ele><time>2026-04-24T11:09:01Z</time></trkpt><trkpt lat="44.75304225374093" lon="10.55115469006497"><ele>33.0</ele><time>2026-04-24T11:09:02Z</time></trkpt><trkpt lat="44.75288076580427" lon="10.55150121349364"><ele>32.0</ele><time>2026-04-24T11:09:03Z</time></trkpt><trkpt lat="44.75271877225865" lon="10.551846786465012"><ele>32.5</ele><time>2026-04-24T11:09:04Z</time></trkpt><trkpt lat="44.75255600401234" lon="10.552191749700532"><ele>33.0</ele><time>2026-04-24T11:09:05Z</time></trkpt><trkpt lat="44.75239167821008" lon="10.552539293070804"><ele>32.0</ele><time>2026-04-24T11:09:06Z</time></trkpt><trkpt lat="44.752225398345665" lon="10.552888826237556"><ele>31.0</ele><time>2026-04-24T11:09:07Z</time></trkpt><trkpt lat="44.75206425049363" lon="10.553229442379152"><ele>31.0</ele><time>2026-04-24T11:09:08Z</time></trkpt><trkpt lat="44.75189740675436" lon="10.553574930599032"><ele>31.0</ele><time>2026-04-24T11:09:09Z</time></trkpt><trkpt lat="44.75173022416915" lon="10.55391947259845"><ele>31.5</ele><time>2026-04-24T11:09:10Z</time></trkpt><trkpt lat="44.75156557972046" lon="10.554266692164964"><ele>32.0</ele><time>2026-04-24T11:09:11Z</time></trkpt><trkpt lat="44.751402925098716" lon="10.55461406519936"><ele>32.0</ele><time>2026-04-24T11:09:12Z</time></trkpt><trkpt lat="44.75124104397601" lon="10.554960475062964"><ele>32.0</ele><time>2026-04-24T11:09:13Z</time></trkpt><trkpt lat="44.75107731845316" lon="10.555308806743545"><ele>32.5</ele><time>2026-04-24T11:09:14Z</time></trkpt><trkpt lat="44.750915775311476" lon="10.555655842581032"><ele>33.0</ele><time>2026-04-24T11:09:15Z</time></trkpt><trkpt lat="44.75074981699863" lon="10.556001090276313"><ele>33.5</ele><time>2026-04-24T11:09:16Z</time></trkpt><trkpt lat="44.75058714764731" lon="10.556340897582114"><ele>34.0</ele><time>2026-04-24T11:09:17Z</time></trkpt><trkpt lat="44.75043053033031" lon="10.55666148527326"><ele>34.0</ele><time>2026-04-24T11:09:18Z</time></trkpt><trkpt lat="44.75028945562364" lon="10.55695827001666"><ele>34.0</ele><time>2026-04-24T11:09:19Z</time></trkpt><trkpt lat="44.750154163902685" lon="10.55725855614689"><ele>34.0</ele><time>2026-04-24T11:09:20Z</time></trkpt><trkpt lat="44.75002051374771" lon="10.557570688552653"><ele>34.0</ele><time>2026-04-24T11:09:21Z</time></trkpt><trkpt lat="44.74988207682957" lon="10.557896536182739"><ele>34.0</ele><time>2026-04-24T11:09:22Z</time></trkpt><trkpt lat="44.74974011606594" lon="10.558213842470014"><ele>34.0</ele><time>2026-04-24T11:09:23Z</time></trkpt><trkpt lat="44.74958984061797" lon="10.558534787084145"><ele>34.5</ele><time>2026-04-24T11:09:24Z</time></trkpt><trkpt lat="44.74943399948468" lon="10.558857659266083"><ele>35.0</ele><time>2026-04-24T11:09:25Z</time></trkpt><trkpt lat="44.749274770718735" lon="10.559183423161386"><ele>35.0</ele><time>2026-04-24T11:09:26Z</time></trkpt><trkpt lat="44.74911686522234" lon="10.559513274757283"><ele>35.0</ele><time>2026-04-24T11:09:27Z</time></trkpt><trkpt lat="44.7489609567435" lon="10.559844443676198"><ele>35.0</ele><time>2026-04-24T11:09:28Z</time></trkpt><trkpt lat="44.74880587148401" lon="10.560174392999915"><ele>35.0</ele><time>2026-04-24T11:09:29Z</time></trkpt><trkpt lat="44.74864742492103" lon="10.560504942495038"><ele>36.5</ele><time>2026-04-24T11:09:30Z</time></trkpt><trkpt lat="44.748488625644406" lon="10.560838448345201"><ele>38.0</ele><time>2026-04-24T11:09:31Z</time></trkpt><trkpt lat="44.7483329589828" lon="10.561170016197526"><ele>37.0</ele><time>2026-04-24T11:09:32Z</time></trkpt><trkpt lat="44.74817558977523" lon="10.561506579388436"><ele>36.0</ele><time>2026-04-24T11:09:33Z</time></trkpt><trkpt lat="44.74801709456368" lon="10.561846847432081"><ele>36.0</ele><time>2026-04-24T11:09:34Z</time></trkpt><trkpt lat="44.74785823960252" lon="10.562184462779923"><ele>36.0</ele><time>2026-04-24T11:09:35Z</time></trkpt><trkpt lat="44.74769791575755" lon="10.562521679844368"><ele>36.0</ele><time>2026-04-24T11:09:36Z</time></trkpt><trkpt lat="44.74753621926479" lon="10.562858867583326"><ele>36.0</ele><time>2026-04-24T11:09:37Z</time></trkpt><trkpt lat="44.7473791363324" lon="10.563189118239052"><ele>35.5</ele><time>2026-04-24T11:09:38Z</time></trkpt><trkpt lat="44.74722147051649" lon="10.563523166813797"><ele>35.0</ele><time>2026-04-24T11:09:39Z</time></trkpt><trkpt lat="44.74706648707947" lon="10.563852009985556"><ele>34.5</ele><time>2026-04-24T11:09:40Z</time></trkpt><trkpt lat="44.74690741141656" lon="10.564177654857017"><ele>34.0</ele><time>2026-04-24T11:09:41Z</time></trkpt><trkpt lat="44.746747771430314" lon="10.564502452438365"><ele>35.0</ele><time>2026-04-24T11:09:42Z</time></trkpt><trkpt lat="44.746585344379945" lon="10.56482236206766"><ele>36.0</ele><time>2026-04-24T11:09:43Z</time></trkpt><trkpt lat="44.74641893725045" lon="10.565143351279923"><ele>35.0</ele><time>2026-04-24T11:09:44Z</time></trkpt><trkpt lat="44.74625748360588" lon="10.565460812631878"><ele>34.0</ele><time>2026-04-24T11:09:45Z</time></trkpt><trkpt lat="44.74610249669068" lon="10.565776583478392"><ele>35.5</ele><time>2026-04-24T11:09:46Z</time></trkpt><trkpt lat="44.745954910684475" lon="10.56610052280596"><ele>37.0</ele><time>2026-04-24T11:09:47Z</time></trkpt><trkpt lat="44.74580637401528" lon="10.566425425671667"><ele>37.0</ele><time>2026-04-24T11:09:48Z</time></trkpt><trkpt lat="44.74564925809584" lon="10.566756338583351"><ele>37.0</ele><time>2026-04-24T11:09:49Z</time></trkpt><trkpt lat="44.74549080803273" lon="10.567082873432001"><ele>36.5</ele><time>2026-04-24T11:09:50Z</time></trkpt><trkpt lat="44.74533746667361" lon="10.567403386201358"><ele>36.0</ele><time>2026-04-24T11:09:51Z</time></trkpt><trkpt lat="44.745185072036605" lon="10.567725257626673"><ele>35.5</ele><time>2026-04-24T11:09:52Z</time></trkpt><trkpt lat="44.74502733319973" lon="10.56806556337566"><ele>35.0</ele><time>2026-04-24T11:09:53Z</time></trkpt><trkpt lat="44.74487118002565" lon="10.568408304965418"><ele>34.5</ele><time>2026-04-24T11:09:54Z</time></trkpt><trkpt lat="44.74471761417286" lon="10.568753950741797"><ele>34.0</ele><time>2026-04-24T11:09:55Z</time></trkpt><trkpt lat="44.74456540063192" lon="10.569099529165367"><ele>34.0</ele><time>2026-04-24T11:09:56Z</time></trkpt><trkpt lat="44.74440618406059" lon="10.569444886443144"><ele>34.0</ele><time>2026-04-24T11:09:57Z</time></trkpt><trkpt lat="44.744243754484934" lon="10.569791558489811"><ele>34.5</ele><time>2026-04-24T11:09:58Z</time></trkpt><trkpt lat="44.74407737877566" lon="10.570131845390902"><ele>35.0</ele><time>2026-04-24T11:09:59Z</time></trkpt><trkpt lat="44.74390935839631" lon="10.570472002657729"><ele>34.0</ele><time>2026-04-24T11:10:00Z</time></trkpt><trkpt lat="44.74374238568229" lon="10.570817953858366"><ele>33.0</ele><time>2026-04-24T11:10:01Z</time></trkpt><trkpt lat="44.74357931346961" lon="10.571166356702161"><ele>33.5</ele><time>2026-04-24T11:10:02Z</time></trkpt><trkpt lat="44.74341402176594" lon="10.571524880431351"><ele>34.0</ele><time>2026-04-24T11:10:03Z</time></trkpt><trkpt lat="44.7432494617764" lon="10.571882704827592"><ele>33.5</ele><time>2026-04-24T11:10:04Z</time></trkpt><trkpt lat="44.74308832976121" lon="10.572245647697006"><ele>33.0</ele><time>2026-04-24T11:10:05Z</time></trkpt><trkpt lat="44.74293200392109" lon="10.572614365260785"><ele>33.0</ele><time>2026-04-24T11:10:06Z</time></trkpt><trkpt lat="44.742781299305115" lon="10.572987447014249"><ele>33.0</ele><time>2026-04-24T11:10:07Z</time></trkpt><trkpt lat="44.742632620075426" lon="10.573358103476545"><ele>33.5</ele><time>2026-04-24T11:10:08Z</time></trkpt><trkpt lat="44.742487696820994" lon="10.573732539188619"><ele>34.0</ele><time>2026-04-24T11:10:09Z</time></trkpt><trkpt lat="44.74234902166384" lon="10.57410634895151"><ele>34.0</ele><time>2026-04-24T11:10:10Z</time></trkpt><trkpt lat="44.7422131597335" lon="10.574479930350224"><ele>34.0</ele><time>2026-04-24T11:10:11Z</time></trkpt><trkpt lat="44.742080263653975" lon="10.574850745979584"><ele>34.0</ele><time>2026-04-24T11:10:12Z</time></trkpt><trkpt lat="44.741951113249925" lon="10.575225705075887"><ele>34.0</ele><time>2026-04-24T11:10:13Z</time></trkpt><trkpt lat="44.741825303848344" lon="10.575603101385322"><ele>34.0</ele><time>2026-04-24T11:10:14Z</time></trkpt><trkpt lat="44.74170845364309" lon="10.575980992847086"><ele>34.0</ele><time>2026-04-24T11:10:15Z</time></trkpt><trkpt lat="44.741593046308516" lon="10.576359200349781"><ele>34.5</ele><time>2026-04-24T11:10:16Z</time></trkpt><trkpt lat="44.74147973254438" lon="10.576738551090582"><ele>35.0</ele><time>2026-04-24T11:10:17Z</time></trkpt><trkpt lat="44.74137063522483" lon="10.577114543430056"><ele>35.0</ele><time>2026-04-24T11:10:18Z</time></trkpt><trkpt lat="44.74126385961443" lon="10.577489888348904"><ele>35.0</ele><time>2026-04-24T11:10:19Z</time></trkpt><trkpt lat="44.74116285627099" lon="10.577864647101602"><ele>35.5</ele><time>2026-04-24T11:10:20Z</time></trkpt><trkpt lat="44.741068597390125" lon="10.57823590359132"><ele>36.0</ele><time>2026-04-24T11:10:21Z</time></trkpt><trkpt lat="44.740976375194194" lon="10.57860864623545"><ele>37.0</ele><time>2026-04-24T11:10:22Z</time></trkpt><trkpt lat="44.74089046720306" lon="10.578980140155563"><ele>38.0</ele><time>2026-04-24T11:10:23Z</time></trkpt><trkpt lat="44.74080386708762" lon="10.579350213595218"><ele>39.0</ele><time>2026-04-24T11:10:24Z</time></trkpt><trkpt lat="44.740713909949335" lon="10.579727764128892"><ele>40.0</ele><time>2026-04-24T11:10:25Z</time></trkpt><trkpt lat="44.74062512992146" lon="10.580108745783695"><ele>39.0</ele><time>2026-04-24T11:10:26Z</time></trkpt><trkpt lat="44.740538898273726" lon="10.58048617186058"><ele>38.0</ele><time>2026-04-24T11:10:27Z</time></trkpt><trkpt lat="44.74044965896678" lon="10.580865091066809"><ele>37.5</ele><time>2026-04-24T11:10:28Z</time></trkpt><trkpt lat="44.74035750063568" lon="10.581243673243408"><ele>37.0</ele><time>2026-04-24T11:10:29Z</time></trkpt><trkpt lat="44.74026616282568" lon="10.581624343484403"><ele>37.0</ele><time>2026-04-24T11:10:30Z</time></trkpt><trkpt lat="44.74017533877315" lon="10.582002766140905"><ele>37.0</ele><time>2026-04-24T11:10:31Z</time></trkpt><trkpt lat="44.74008551892708" lon="10.582385100242798"><ele>37.0</ele><time>2026-04-24T11:10:32Z</time></trkpt><trkpt lat="44.73999612133579" lon="10.582768874872404"><ele>37.0</ele><time>2026-04-24T11:10:33Z</time></trkpt><trkpt lat="44.73990471473833" lon="10.583154080209455"><ele>37.0</ele><time>2026-04-24T11:10:34Z</time></trkpt><trkpt lat="44.73981769256803" lon="10.583536749717219"><ele>37.0</ele><time>2026-04-24T11:10:35Z</time></trkpt><trkpt lat="44.739723239545114" lon="10.583935545166824"><ele>37.0</ele><time>2026-04-24T11:10:36Z</time></trkpt><trkpt lat="44.73963197062723" lon="10.584329389449191"><ele>37.0</ele><time>2026-04-24T11:10:37Z</time></trkpt><trkpt lat="44.739545252940374" lon="10.58471944103035"><ele>37.0</ele><time>2026-04-24T11:10:38Z</time></trkpt><trkpt lat="44.739455125466534" lon="10.585109240061943"><ele>37.0</ele><time>2026-04-24T11:10:39Z</time></trkpt><trkpt lat="44.73936174480071" lon="10.585497809793761"><ele>37.0</ele><time>2026-04-24T11:10:40Z</time></trkpt><trkpt lat="44.73926776078583" lon="10.585883907811343"><ele>37.0</ele><time>2026-04-24T11:10:41Z</time></trkpt><trkpt lat="44.73917712607309" lon="10.586265657100038"><ele>37.0</ele><time>2026-04-24T11:10:42Z</time></trkpt><trkpt lat="44.739086646740056" lon="10.586649580112999"><ele>37.0</ele><time>2026-04-24T11:10:43Z</time></trkpt><trkpt lat="44.73899460915611" lon="10.5870388092765"><ele>37.5</ele><time>2026-04-24T11:10:44Z</time></trkpt><trkpt lat="44.73890356021704" lon="10.587425053047893"><ele>38.0</ele><time>2026-04-24T11:10:45Z</time></trkpt><trkpt lat="44.73881201783591" lon="10.587812504208067"><ele>39.0</ele><time>2026-04-24T11:10:46Z</time></trkpt><trkpt lat="44.738721500793496" lon="10.588197469272824"><ele>40.0</ele><time>2026-04-24T11:10:47Z</time></trkpt><trkpt lat="44.73862902715829" lon="10.58858317470905"><ele>38.0</ele><time>2026-04-24T11:10:48Z</time></trkpt><trkpt lat="44.73853272022618" lon="10.588971793292602"><ele>36.0</ele><time>2026-04-24T11:10:49Z</time></trkpt><trkpt lat="44.73843388877239" lon="10.589354701835214"><ele>36.0</ele><time>2026-04-24T11:10:50Z</time></trkpt><trkpt lat="44.738331780869764" lon="10.589737968930107"><ele>36.0</ele><time>2026-04-24T11:10:51Z</time></trkpt><trkpt lat="44.73823380694899" lon="10.590124981215496"><ele>36.0</ele><time>2026-04-24T11:10:52Z</time></trkpt><trkpt lat="44.73814167080437" lon="10.590514963667516"><ele>36.0</ele><time>2026-04-24T11:10:53Z</time></trkpt><trkpt lat="44.738051836301565" lon="10.590901832210857"><ele>36.0</ele><time>2026-04-24T11:10:54Z</time></trkpt><trkpt lat="44.737958166508186" lon="10.591288726162249"><ele>36.0</ele><time>2026-04-24T11:10:55Z</time></trkpt><trkpt lat="44.737864922155765" lon="10.591680296675142"><ele>35.5</ele><time>2026-04-24T11:10:56Z</time></trkpt><trkpt lat="44.737774141093816" lon="10.592068762427447"><ele>35.0</ele><time>2026-04-24T11:10:57Z</time></trkpt><trkpt lat="44.73768149502465" lon="10.592457091606187"><ele>36.5</ele><time>2026-04-24T11:10:58Z</time></trkpt><trkpt lat="44.737589283761736" lon="10.59284206619309"><ele>38.0</ele><time>2026-04-24T11:10:59Z</time></trkpt><trkpt lat="44.737497218825844" lon="10.593228824668236"><ele>38.0</ele><time>2026-04-24T11:11:00Z</time></trkpt><trkpt lat="44.73740768090325" lon="10.593619437626677"><ele>38.0</ele><time>2026-04-24T11:11:01Z</time></trkpt><trkpt lat="44.73731733891112" lon="10.594009114392716"><ele>37.0</ele><time>2026-04-24T11:11:02Z</time></trkpt><trkpt lat="44.737225327752924" lon="10.594399469279118"><ele>36.0</ele><time>2026-04-24T11:11:03Z</time></trkpt><trkpt lat="44.7371309279569" lon="10.594788522348866"><ele>36.0</ele><time>2026-04-24T11:11:04Z</time></trkpt><trkpt lat="44.737036837150896" lon="10.595177075200116"><ele>36.0</ele><time>2026-04-24T11:11:05Z</time></trkpt><trkpt lat="44.73694564589303" lon="10.59556281504988"><ele>37.0</ele><time>2026-04-24T11:11:06Z</time></trkpt><trkpt lat="44.73685682610795" lon="10.595947005334098"><ele>38.0</ele><time>2026-04-24T11:11:07Z</time></trkpt><trkpt lat="44.736766771330466" lon="10.596338431955699"><ele>38.0</ele><time>2026-04-24T11:11:08Z</time></trkpt><trkpt lat="44.7366776184572" lon="10.596726247638168"><ele>38.0</ele><time>2026-04-24T11:11:09Z</time></trkpt><trkpt lat="44.73658615060628" lon="10.597110381670381"><ele>38.0</ele><time>2026-04-24T11:11:10Z</time></trkpt><trkpt lat="44.736492238961816" lon="10.597500990474808"><ele>38.0</ele><time>2026-04-24T11:11:11Z</time></trkpt><trkpt lat="44.73640014616419" lon="10.597887527260491"><ele>38.5</ele><time>2026-04-24T11:11:12Z</time></trkpt><trkpt lat="44.73630770882866" lon="10.59827379969017"><ele>39.0</ele><time>2026-04-24T11:11:13Z</time></trkpt><trkpt lat="44.736214947849135" lon="10.59866107890505"><ele>39.0</ele><time>2026-04-24T11:11:14Z</time></trkpt><trkpt lat="44.73612315104841" lon="10.599046663763593"><ele>39.0</ele><time>2026-04-24T11:11:15Z</time></trkpt><trkpt lat="44.73603182600963" lon="10.599436594679867"><ele>38.5</ele><time>2026-04-24T11:11:16Z</time></trkpt><trkpt lat="44.73593995376119" lon="10.599827216622717"><ele>38.0</ele><time>2026-04-24T11:11:17Z</time></trkpt><trkpt lat="44.735849606452916" lon="10.600215648507186"><ele>39.0</ele><time>2026-04-24T11:11:18Z</time></trkpt><trkpt lat="44.73575828818132" lon="10.600604006440308"><ele>40.0</ele><time>2026-04-24T11:11:19Z</time></trkpt><trkpt lat="44.73566595173367" lon="10.600993027807775"><ele>40.0</ele><time>2026-04-24T11:11:20Z</time></trkpt><trkpt lat="44.73557228432422" lon="10.601383900773788"><ele>40.0</ele><time>2026-04-24T11:11:21Z</time></trkpt><trkpt lat="44.73548087171604" lon="10.6017698099403"><ele>40.0</ele><time>2026-04-24T11:11:22Z</time></trkpt><trkpt lat="44.735387187891654" lon="10.60215951427725"><ele>40.0</ele><time>2026-04-24T11:11:23Z</time></trkpt><trkpt lat="44.735296983211136" lon="10.602546873670414"><ele>39.5</ele><time>2026-04-24T11:11:24Z</time></trkpt><trkpt lat="44.735204808316276" lon="10.60294178230883"><ele>39.0</ele><time>2026-04-24T11:11:25Z</time></trkpt><trkpt lat="44.73511884466463" lon="10.603327593718298"><ele>38.0</ele><time>2026-04-24T11:11:26Z</time></trkpt><trkpt lat="44.73502616887159" lon="10.603719737463802"><ele>37.0</ele><time>2026-04-24T11:11:27Z</time></trkpt><trkpt lat="44.7349338507616" lon="10.604107486022786"><ele>37.0</ele><time>2026-04-24T11:11:28Z</time></trkpt><trkpt lat="44.734842070864275" lon="10.604497775137729"><ele>37.0</ele><time>2026-04-24T11:11:29Z</time></trkpt><trkpt lat="44.73475096632282" lon="10.604886067203108"><ele>37.0</ele><time>2026-04-24T11:11:30Z</time></trkpt><trkpt lat="44.734659038495074" lon="10.605275188923601"><ele>37.0</ele><time>2026-04-24T11:11:31Z</time></trkpt><trkpt lat="44.73456850436326" lon="10.605661042389375"><ele>38.0</ele><time>2026-04-24T11:11:32Z</time></trkpt><trkpt lat="44.734475825529806" lon="10.606050849993352"><ele>39.0</ele><time>2026-04-24T11:11:33Z</time></trkpt><trkpt lat="44.73438330929183" lon="10.606438937265953"><ele>39.0</ele><time>2026-04-24T11:11:34Z</time></trkpt><trkpt lat="44.73429303466103" lon="10.606829378064853"><ele>39.0</ele><time>2026-04-24T11:11:35Z</time></trkpt><trkpt lat="44.73420193366529" lon="10.607217510341995"><ele>39.0</ele><time>2026-04-24T11:11:36Z</time></trkpt><trkpt lat="44.734111466809594" lon="10.607605642632784"><ele>39.0</ele><time>2026-04-24T11:11:37Z</time></trkpt><trkpt lat="44.734021483112954" lon="10.607989668784857"><ele>41.0</ele><time>2026-04-24T11:11:38Z</time></trkpt><trkpt lat="44.733928975309254" lon="10.60837683297864"><ele>43.0</ele><time>2026-04-24T11:11:39Z</time></trkpt><trkpt lat="44.733838039088475" lon="10.608766293202482"><ele>43.5</ele><time>2026-04-24T11:11:40Z</time></trkpt><trkpt lat="44.73374777614874" lon="10.609155792212919"><ele>44.0</ele><time>2026-04-24T11:11:41Z</time></trkpt><trkpt lat="44.73365429303536" lon="10.609545840688751"><ele>44.0</ele><time>2026-04-24T11:11:42Z</time></trkpt><trkpt lat="44.73356198628496" lon="10.609931456153147"><ele>44.0</ele><time>2026-04-24T11:11:43Z</time></trkpt><trkpt lat="44.73346889927905" lon="10.610319088009176"><ele>44.5</ele><time>2026-04-24T11:11:44Z</time></trkpt><trkpt lat="44.73337596746263" lon="10.610709022786372"><ele>45.0</ele><time>2026-04-24T11:11:45Z</time></trkpt><trkpt lat="44.73328636058386" lon="10.611094455435472"><ele>46.0</ele><time>2026-04-24T11:11:46Z</time></trkpt><trkpt lat="44.7331928634383" lon="10.611483841901437"><ele>47.0</ele><time>2026-04-24T11:11:47Z</time></trkpt><trkpt lat="44.733097903390366" lon="10.61187248200819"><ele>46.0</ele><time>2026-04-24T11:11:48Z</time></trkpt><trkpt lat="44.733005909134256" lon="10.612256824660378"><ele>45.0</ele><time>2026-04-24T11:11:49Z</time></trkpt><trkpt lat="44.73291077583802" lon="10.612644825161233"><ele>44.5</ele><time>2026-04-24T11:11:50Z</time></trkpt><trkpt lat="44.732821495711526" lon="10.613036973601284"><ele>44.0</ele><time>2026-04-24T11:11:51Z</time></trkpt><trkpt lat="44.732733858401104" lon="10.613426792935764"><ele>43.5</ele><time>2026-04-24T11:11:52Z</time></trkpt><trkpt lat="44.73264672209358" lon="10.613820357831969"><ele>43.0</ele><time>2026-04-24T11:11:53Z</time></trkpt><trkpt lat="44.7325597048987" lon="10.614210962778365"><ele>44.0</ele><time>2026-04-24T11:11:54Z</time></trkpt><trkpt lat="44.73246554875255" lon="10.614598439289106"><ele>45.0</ele><time>2026-04-24T11:11:55Z</time></trkpt><trkpt lat="44.73236988861881" lon="10.614985222029304"><ele>45.5</ele><time>2026-04-24T11:11:56Z</time></trkpt><trkpt lat="44.732279507415285" lon="10.615374605684853"><ele>46.0</ele><time>2026-04-24T11:11:57Z</time></trkpt><trkpt lat="44.73219066669243" lon="10.6157601925473"><ele>46.0</ele><time>2026-04-24T11:11:58Z</time></trkpt><trkpt lat="44.73209902341887" lon="10.616149607548289"><ele>46.0</ele><time>2026-04-24T11:11:59Z</time></trkpt><trkpt lat="44.73200586593251" lon="10.616539866905246"><ele>45.0</ele><time>2026-04-24T11:12:00Z</time></trkpt><trkpt lat="44.73191283583153" lon="10.616925920998208"><ele>44.0</ele><time>2026-04-24T11:12:01Z</time></trkpt><trkpt lat="44.73182077477514" lon="10.617311873936716"><ele>42.0</ele><time>2026-04-24T11:12:02Z</time></trkpt><trkpt lat="44.731726800292" lon="10.617705317170223"><ele>40.0</ele><time>2026-04-24T11:12:03Z</time></trkpt><trkpt lat="44.73163782078062" lon="10.618093743462103"><ele>40.0</ele><time>2026-04-24T11:12:04Z</time></trkpt><trkpt lat="44.73155243596791" lon="10.618482599255183"><ele>40.0</ele><time>2026-04-24T11:12:05Z</time></trkpt><trkpt lat="44.73146925204994" lon="10.618870534167685"><ele>39.5</ele><time>2026-04-24T11:12:06Z</time></trkpt><trkpt lat="44.73138438458595" lon="10.619256330113952"><ele>39.0</ele><time>2026-04-24T11:12:07Z</time></trkpt><trkpt lat="44.731296913754036" lon="10.619646978743344"><ele>40.0</ele><time>2026-04-24T11:12:08Z</time></trkpt><trkpt lat="44.73120731227855" lon="10.620035793842057"><ele>41.0</ele><time>2026-04-24T11:12:09Z</time></trkpt><trkpt lat="44.73111584621854" lon="10.62042489455698"><ele>41.5</ele><time>2026-04-24T11:12:10Z</time></trkpt><trkpt lat="44.731024312462466" lon="10.620814566443618"><ele>42.0</ele><time>2026-04-24T11:12:11Z</time></trkpt><trkpt lat="44.730935021561336" lon="10.62120153486793"><ele>43.0</ele><time>2026-04-24T11:12:12Z</time></trkpt><trkpt lat="44.73084308231232" lon="10.621592442880738"><ele>44.0</ele><time>2026-04-24T11:12:13Z</time></trkpt><trkpt lat="44.73074916163953" lon="10.62198760163088"><ele>44.0</ele><time>2026-04-24T11:12:14Z</time></trkpt><trkpt lat="44.730659200716815" lon="10.622369082564305"><ele>44.0</ele><time>2026-04-24T11:12:15Z</time></trkpt><trkpt lat="44.73056570603132" lon="10.622759833711386"><ele>45.0</ele><time>2026-04-24T11:12:16Z</time></trkpt><trkpt lat="44.73047519163196" lon="10.623146262955185"><ele>46.0</ele><time>2026-04-24T11:12:17Z</time></trkpt><trkpt lat="44.73038498690617" lon="10.62353410888868"><ele>44.0</ele><time>2026-04-24T11:12:18Z</time></trkpt><trkpt lat="44.73029153058028" lon="10.623925617102383"><ele>42.0</ele><time>2026-04-24T11:12:19Z</time></trkpt><trkpt lat="44.73019612537416" lon="10.624313722555225"><ele>42.0</ele><time>2026-04-24T11:12:20Z</time></trkpt><trkpt lat="44.730102396387494" lon="10.62469798833989"><ele>42.0</ele><time>2026-04-24T11:12:21Z</time></trkpt><trkpt lat="44.73001095652434" lon="10.6250838146426"><ele>42.0</ele><time>2026-04-24T11:12:22Z</time></trkpt><trkpt lat="44.729918883159414" lon="10.625473865154492"><ele>42.0</ele><time>2026-04-24T11:12:23Z</time></trkpt><trkpt lat="44.729826719842286" lon="10.625860710755134"><ele>41.0</ele><time>2026-04-24T11:12:24Z</time></trkpt><trkpt lat="44.72973153264208" lon="10.626249053518128"><ele>40.0</ele><time>2026-04-24T11:12:25Z</time></trkpt><trkpt lat="44.72963589083937" lon="10.626636093580256"><ele>39.5</ele><time>2026-04-24T11:12:26Z</time></trkpt><trkpt lat="44.729543103796814" lon="10.627025779574417"><ele>39.0</ele><time>2026-04-24T11:12:27Z</time></trkpt><trkpt lat="44.729452470306626" lon="10.627411484860046"><ele>39.0</ele><time>2026-04-24T11:12:28Z</time></trkpt><trkpt lat="44.7293614523635" lon="10.62780162851109"><ele>39.0</ele><time>2026-04-24T11:12:29Z</time></trkpt><trkpt lat="44.72926968771801" lon="10.628192132090645"><ele>39.0</ele><time>2026-04-24T11:12:30Z</time></trkpt><trkpt lat="44.72917520376557" lon="10.628576680405962"><ele>39.0</ele><time>2026-04-24T11:12:31Z</time></trkpt><trkpt lat="44.72907438735299" lon="10.628956589781486"><ele>39.0</ele><time>2026-04-24T11:12:32Z</time></trkpt><trkpt lat="44.72897080852573" lon="10.62933959400298"><ele>39.0</ele><time>2026-04-24T11:12:33Z</time></trkpt><trkpt lat="44.728876619160275" lon="10.629730000408465"><ele>38.0</ele><time>2026-04-24T11:12:34Z</time></trkpt><trkpt lat="44.72879179861022" lon="10.63012279880251"><ele>37.0</ele><time>2026-04-24T11:12:35Z</time></trkpt><trkpt lat="44.72870530749376" lon="10.630513644202225"><ele>36.5</ele><time>2026-04-24T11:12:36Z</time></trkpt><trkpt lat="44.72861114524658" lon="10.630908422729233"><ele>36.0</ele><time>2026-04-24T11:12:37Z</time></trkpt><trkpt lat="44.72851612361453" lon="10.631296641875153"><ele>36.5</ele><time>2026-04-24T11:12:38Z</time></trkpt><trkpt lat="44.72842199402907" lon="10.631685391319516"><ele>37.0</ele><time>2026-04-24T11:12:39Z</time></trkpt><trkpt lat="44.728327827164726" lon="10.632075662565827"><ele>37.0</ele><time>2026-04-24T11:12:40Z</time></trkpt><trkpt lat="44.728237217724676" lon="10.632463318723909"><ele>37.0</ele><time>2026-04-24T11:12:41Z</time></trkpt><trkpt lat="44.728144209280416" lon="10.632853338396297"><ele>36.5</ele><time>2026-04-24T11:12:42Z</time></trkpt><trkpt lat="44.72803584886476" lon="10.633249379583154"><ele>36.0</ele><time>2026-04-24T11:12:43Z</time></trkpt><trkpt lat="44.72795363372868" lon="10.633634146422756"><ele>35.5</ele><time>2026-04-24T11:12:44Z</time></trkpt><trkpt lat="44.72786811918985" lon="10.63401984588574"><ele>35.0</ele><time>2026-04-24T11:12:45Z</time></trkpt><trkpt lat="44.72778279367675" lon="10.634410779695735"><ele>35.0</ele><time>2026-04-24T11:12:46Z</time></trkpt><trkpt lat="44.72769987639085" lon="10.634801478733964"><ele>35.0</ele><time>2026-04-24T11:12:47Z</time></trkpt><trkpt lat="44.7276170326581" lon="10.63519790052976"><ele>35.5</ele><time>2026-04-24T11:12:48Z</time></trkpt><trkpt lat="44.72753495190804" lon="10.635588080260565"><ele>36.0</ele><time>2026-04-24T11:12:49Z</time></trkpt><trkpt lat="44.72745277211074" lon="10.63598256559479"><ele>37.0</ele><time>2026-04-24T11:12:50Z</time></trkpt><trkpt lat="44.72737286904791" lon="10.636373839928348"><ele>38.0</ele><time>2026-04-24T11:12:51Z</time></trkpt><trkpt lat="44.727290492113454" lon="10.636767627917347"><ele>37.5</ele><time>2026-04-24T11:12:52Z</time></trkpt><trkpt lat="44.72720844047397" lon="10.637158309835996"><ele>37.0</ele><time>2026-04-24T11:12:53Z</time></trkpt><trkpt lat="44.72712231207972" lon="10.637546856268578"><ele>36.5</ele><time>2026-04-24T11:12:54Z</time></trkpt><trkpt lat="44.72704021726585" lon="10.63793962256314"><ele>36.0</ele><time>2026-04-24T11:12:55Z</time></trkpt><trkpt lat="44.72695974745355" lon="10.638334018832605"><ele>37.0</ele><time>2026-04-24T11:12:56Z</time></trkpt><trkpt lat="44.72688078996779" lon="10.638730570655872"><ele>38.0</ele><time>2026-04-24T11:12:57Z</time></trkpt><trkpt lat="44.726801648191355" lon="10.639122849424702"><ele>37.5</ele><time>2026-04-24T11:12:58Z</time></trkpt><trkpt lat="44.726721000230306" lon="10.639518395261067"><ele>37.0</ele><time>2026-04-24T11:12:59Z</time></trkpt><trkpt lat="44.726641493006376" lon="10.639914616052048"><ele>36.5</ele><time>2026-04-24T11:13:00Z</time></trkpt><trkpt lat="44.726562754326935" lon="10.640309386997275"><ele>36.0</ele><time>2026-04-24T11:13:01Z</time></trkpt><trkpt lat="44.72648262531571" lon="10.640702647097715"><ele>36.0</ele><time>2026-04-24T11:13:02Z</time></trkpt><trkpt lat="44.726400465981435" lon="10.641096160177483"><ele>36.0</ele><time>2026-04-24T11:13:03Z</time></trkpt><trkpt lat="44.72631950939038" lon="10.641487036091158"><ele>36.0</ele><time>2026-04-24T11:13:04Z</time></trkpt><trkpt lat="44.72623813265281" lon="10.641879698968241"><ele>36.0</ele><time>2026-04-24T11:13:05Z</time></trkpt><trkpt lat="44.72615386188057" lon="10.642273008056346"><ele>36.0</ele><time>2026-04-24T11:13:06Z</time></trkpt><trkpt lat="44.72606887040009" lon="10.642662217232655"><ele>36.0</ele><time>2026-04-24T11:13:07Z</time></trkpt><trkpt lat="44.725987205597754" lon="10.643051877784675"><ele>36.0</ele><time>2026-04-24T11:13:08Z</time></trkpt><trkpt lat="44.725909873003765" lon="10.643448309653012"><ele>36.0</ele><time>2026-04-24T11:13:09Z</time></trkpt><trkpt lat="44.72583124749094" lon="10.643844030655403"><ele>36.0</ele><time>2026-04-24T11:13:10Z</time></trkpt><trkpt lat="44.72575228000286" lon="10.644238146657596"><ele>36.0</ele><time>2026-04-24T11:13:11Z</time></trkpt><trkpt lat="44.72566972574986" lon="10.644633332785297"><ele>36.5</ele><time>2026-04-24T11:13:12Z</time></trkpt><trkpt lat="44.725591008153025" lon="10.645029286269898"><ele>37.0</ele><time>2026-04-24T11:13:13Z</time></trkpt><trkpt lat="44.72551249464167" lon="10.645425462315714"><ele>38.0</ele><time>2026-04-24T11:13:14Z</time></trkpt><trkpt lat="44.725438924973986" lon="10.645816980268961"><ele>39.0</ele><time>2026-04-24T11:13:15Z</time></trkpt><trkpt lat="44.72536189025422" lon="10.646212846945447"><ele>39.5</ele><time>2026-04-24T11:13:16Z</time></trkpt><trkpt lat="44.725281518043026" lon="10.646609947670695"><ele>40.0</ele><time>2026-04-24T11:13:17Z</time></trkpt><trkpt lat="44.72520069857065" lon="10.647004110728577"><ele>40.0</ele><time>2026-04-24T11:13:18Z</time></trkpt><trkpt lat="44.7251196740584" lon="10.647396898171449"><ele>40.0</ele><time>2026-04-24T11:13:19Z</time></trkpt><trkpt lat="44.72503681031236" lon="10.647786733843132"><ele>39.5</ele><time>2026-04-24T11:13:20Z</time></trkpt><trkpt lat="44.72495506572583" lon="10.648182055610704"><ele>39.0</ele><time>2026-04-24T11:13:21Z</time></trkpt><trkpt lat="44.7248761011326" lon="10.64857393603647"><ele>37.5</ele><time>2026-04-24T11:13:22Z</time></trkpt><trkpt lat="44.724796840437264" lon="10.648969334588461"><ele>36.0</ele><time>2026-04-24T11:13:23Z</time></trkpt><trkpt lat="44.72471996888553" lon="10.64936587763755"><ele>36.5</ele><time>2026-04-24T11:13:24Z</time></trkpt><trkpt lat="44.72464161388659" lon="10.649758698242344"><ele>37.0</ele><time>2026-04-24T11:13:25Z</time></trkpt><trkpt lat="44.72456174950896" lon="10.650149989751169"><ele>36.0</ele><time>2026-04-24T11:13:26Z</time></trkpt><trkpt lat="44.724479009626194" lon="10.65054222373184"><ele>35.0</ele><time>2026-04-24T11:13:27Z</time></trkpt><trkpt lat="44.72439859475302" lon="10.6509330050766"><ele>35.5</ele><time>2026-04-24T11:13:28Z</time></trkpt><trkpt lat="44.72431995689508" lon="10.651323986888698"><ele>36.0</ele><time>2026-04-24T11:13:29Z</time></trkpt><trkpt lat="44.724239657894664" lon="10.6517219053024"><ele>35.5</ele><time>2026-04-24T11:13:30Z</time></trkpt><trkpt lat="44.72415938450397" lon="10.652110515062784"><ele>35.0</ele><time>2026-04-24T11:13:31Z</time></trkpt><trkpt lat="44.724076142390295" lon="10.65250236736155"><ele>35.0</ele><time>2026-04-24T11:13:32Z</time></trkpt><trkpt lat="44.723994097127914" lon="10.652890602807561"><ele>35.0</ele><time>2026-04-24T11:13:33Z</time></trkpt><trkpt lat="44.72391092619815" lon="10.653286357487628"><ele>34.5</ele><time>2026-04-24T11:13:34Z</time></trkpt><trkpt lat="44.72383059097998" lon="10.65367445436651"><ele>34.0</ele><time>2026-04-24T11:13:35Z</time></trkpt><trkpt lat="44.72374907036928" lon="10.654068714134574"><ele>34.0</ele><time>2026-04-24T11:13:36Z</time></trkpt><trkpt lat="44.72367127268661" lon="10.65446314861935"><ele>34.0</ele><time>2026-04-24T11:13:37Z</time></trkpt><trkpt lat="44.72359181020097" lon="10.654860561686167"><ele>34.0</ele><time>2026-04-24T11:13:38Z</time></trkpt><trkpt lat="44.72351337633153" lon="10.655253678910833"><ele>34.0</ele><time>2026-04-24T11:13:39Z</time></trkpt><trkpt lat="44.723435283604914" lon="10.65564768933361"><ele>35.0</ele><time>2026-04-24T11:13:40Z</time></trkpt><trkpt lat="44.723354888580346" lon="10.656042527211874"><ele>36.0</ele><time>2026-04-24T11:13:41Z</time></trkpt><trkpt lat="44.72327367631474" lon="10.656438869876414"><ele>36.5</ele><time>2026-04-24T11:13:42Z</time></trkpt><trkpt lat="44.72319447249174" lon="10.656834550391139"><ele>37.0</ele><time>2026-04-24T11:13:43Z</time></trkpt><trkpt lat="44.7231147910786" lon="10.657228742606264"><ele>37.0</ele><time>2026-04-24T11:13:44Z</time></trkpt><trkpt lat="44.723033489037974" lon="10.65762357967177"><ele>37.0</ele><time>2026-04-24T11:13:45Z</time></trkpt><trkpt lat="44.7229529705021" lon="10.658019444867044"><ele>37.0</ele><time>2026-04-24T11:13:46Z</time></trkpt><trkpt lat="44.72287292458319" lon="10.658413552827184"><ele>37.0</ele><time>2026-04-24T11:13:47Z</time></trkpt><trkpt lat="44.722790437825964" lon="10.658807771645833"><ele>37.0</ele><time>2026-04-24T11:13:48Z</time></trkpt><trkpt lat="44.72270665509726" lon="10.659203325805374"><ele>37.0</ele><time>2026-04-24T11:13:49Z</time></trkpt><trkpt lat="44.722625224614966" lon="10.659592831064765"><ele>37.5</ele><time>2026-04-24T11:13:50Z</time></trkpt><trkpt lat="44.722543015904876" lon="10.659986952965244"><ele>38.0</ele><time>2026-04-24T11:13:51Z</time></trkpt><trkpt lat="44.72246319890327" lon="10.66038074260883"><ele>38.5</ele><time>2026-04-24T11:13:52Z</time></trkpt><trkpt lat="44.722385240825076" lon="10.660771341327065"><ele>39.0</ele><time>2026-04-24T11:13:53Z</time></trkpt><trkpt lat="44.72230396978306" lon="10.661166047484693"><ele>38.0</ele><time>2026-04-24T11:13:54Z</time></trkpt><trkpt lat="44.72222676402705" lon="10.661557978416257"><ele>37.0</ele><time>2026-04-24T11:13:55Z</time></trkpt><trkpt lat="44.722146888795635" lon="10.66195149570803"><ele>36.0</ele><time>2026-04-24T11:13:56Z</time></trkpt><trkpt lat="44.72206770439379" lon="10.662341803740821"><ele>35.0</ele><time>2026-04-24T11:13:57Z</time></trkpt><trkpt lat="44.72198519465742" lon="10.662733447022681"><ele>35.0</ele><time>2026-04-24T11:13:58Z</time></trkpt><trkpt lat="44.721906789835266" lon="10.663125816156924"><ele>35.0</ele><time>2026-04-24T11:13:59Z</time></trkpt><trkpt lat="44.721824743531315" lon="10.663521179973317"><ele>35.0</ele><time>2026-04-24T11:14:00Z</time></trkpt><trkpt lat="44.72174554416173" lon="10.663914712839855"><ele>35.0</ele><time>2026-04-24T11:14:01Z</time></trkpt><trkpt lat="44.721665924641954" lon="10.664307615140988"><ele>35.0</ele><time>2026-04-24T11:14:02Z</time></trkpt><trkpt lat="44.72158474693684" lon="10.664703164288538"><ele>35.0</ele><time>2026-04-24T11:14:03Z</time></trkpt><trkpt lat="44.72150554892051" lon="10.665095297547229"><ele>35.0</ele><time>2026-04-24T11:14:04Z</time></trkpt><trkpt lat="44.7214242559876" lon="10.66548782640343"><ele>35.0</ele><time>2026-04-24T11:14:05Z</time></trkpt><trkpt lat="44.72134330901608" lon="10.665881562183282"><ele>35.0</ele><time>2026-04-24T11:14:06Z</time></trkpt><trkpt lat="44.72126142607323" lon="10.666276870205863"><ele>35.0</ele><time>2026-04-24T11:14:07Z</time></trkpt><trkpt lat="44.72117951651424" lon="10.666673663596118"><ele>34.5</ele><time>2026-04-24T11:14:08Z</time></trkpt><trkpt lat="44.72110305444017" lon="10.667065959982137"><ele>34.0</ele><time>2026-04-24T11:14:09Z</time></trkpt><trkpt lat="44.72102323347116" lon="10.667460709251689"><ele>35.0</ele><time>2026-04-24T11:14:10Z</time></trkpt><trkpt lat="44.72094219688883" lon="10.667851415050748"><ele>36.0</ele><time>2026-04-24T11:14:11Z</time></trkpt><trkpt lat="44.72086119634313" lon="10.668243496939384"><ele>36.0</ele><time>2026-04-24T11:14:12Z</time></trkpt><trkpt lat="44.72077989315863" lon="10.668636979512677"><ele>36.0</ele><time>2026-04-24T11:14:13Z</time></trkpt><trkpt lat="44.72070315988472" lon="10.669028444924137"><ele>36.0</ele><time>2026-04-24T11:14:14Z</time></trkpt><trkpt lat="44.72062209287098" lon="10.669422078502071"><ele>36.0</ele><time>2026-04-24T11:14:15Z</time></trkpt><trkpt lat="44.72053923672191" lon="10.6698188026722"><ele>36.0</ele><time>2026-04-24T11:14:16Z</time></trkpt><trkpt lat="44.72045759208132" lon="10.67021456674792"><ele>36.0</ele><time>2026-04-24T11:14:17Z</time></trkpt><trkpt lat="44.720380561352364" lon="10.670606061626055"><ele>36.0</ele><time>2026-04-24T11:14:18Z</time></trkpt><trkpt lat="44.72030135539207" lon="10.670997896242929"><ele>36.0</ele><time>2026-04-24T11:14:19Z</time></trkpt><trkpt lat="44.72022107270154" lon="10.671389526198695"><ele>36.0</ele><time>2026-04-24T11:14:20Z</time></trkpt><trkpt lat="44.72013931201865" lon="10.67178182063363"><ele>36.0</ele><time>2026-04-24T11:14:21Z</time></trkpt><trkpt lat="44.720059777825504" lon="10.672174623326597"><ele>36.0</ele><time>2026-04-24T11:14:22Z</time></trkpt><trkpt lat="44.71998089838102" lon="10.672564745037983"><ele>36.0</ele><time>2026-04-24T11:14:23Z</time></trkpt><trkpt lat="44.719899978399724" lon="10.672961418527327"><ele>37.0</ele><time>2026-04-24T11:14:24Z</time></trkpt><trkpt lat="44.719820129133836" lon="10.673354683848185"><ele>38.0</ele><time>2026-04-24T11:14:25Z</time></trkpt><trkpt lat="44.71973689488513" lon="10.673744906603702"><ele>38.5</ele><time>2026-04-24T11:14:26Z</time></trkpt><trkpt lat="44.719656176864476" lon="10.674138593460766"><ele>39.0</ele><time>2026-04-24T11:14:27Z</time></trkpt><trkpt lat="44.71957751601196" lon="10.674534553339969"><ele>38.0</ele><time>2026-04-24T11:14:28Z</time></trkpt><trkpt lat="44.71949622194113" lon="10.674928652358087"><ele>37.0</ele><time>2026-04-24T11:14:29Z</time></trkpt><trkpt lat="44.71941589979186" lon="10.675325260047556"><ele>37.5</ele><time>2026-04-24T11:14:30Z</time></trkpt><trkpt lat="44.71933755874224" lon="10.675719300404026"><ele>38.0</ele><time>2026-04-24T11:14:31Z</time></trkpt><trkpt lat="44.71925742869143" lon="10.676112667317408"><ele>39.0</ele><time>2026-04-24T11:14:32Z</time></trkpt><trkpt lat="44.719172626940015" lon="10.676506786957548"><ele>40.0</ele><time>2026-04-24T11:14:33Z</time></trkpt><trkpt lat="44.719091228661235" lon="10.67690005457064"><ele>39.5</ele><time>2026-04-24T11:14:34Z</time></trkpt><trkpt lat="44.71901143647486" lon="10.677295816920246"><ele>39.0</ele><time>2026-04-24T11:14:35Z</time></trkpt><trkpt lat="44.71893222843647" lon="10.677688488545584"><ele>38.5</ele><time>2026-04-24T11:14:36Z</time></trkpt><trkpt lat="44.718850238654895" lon="10.67808582897872"><ele>38.0</ele><time>2026-04-24T11:14:37Z</time></trkpt><trkpt lat="44.71876905921175" lon="10.678476477369124"><ele>38.5</ele><time>2026-04-24T11:14:38Z</time></trkpt><trkpt lat="44.718684600321716" lon="10.678868073765331"><ele>39.0</ele><time>2026-04-24T11:14:39Z</time></trkpt><trkpt lat="44.71860273154142" lon="10.679261493795407"><ele>38.5</ele><time>2026-04-24T11:14:40Z</time></trkpt><trkpt lat="44.71852317996213" lon="10.679654792725728"><ele>38.0</ele><time>2026-04-24T11:14:41Z</time></trkpt><trkpt lat="44.718446304760505" lon="10.680047242814393"><ele>39.5</ele><time>2026-04-24T11:14:42Z</time></trkpt><trkpt lat="44.71836664975139" lon="10.680443168278192"><ele>41.0</ele><time>2026-04-24T11:14:43Z</time></trkpt><trkpt lat="44.71828791400249" lon="10.680840140933762"><ele>39.5</ele><time>2026-04-24T11:14:44Z</time></trkpt><trkpt lat="44.718210509364575" lon="10.681231490017883"><ele>38.0</ele><time>2026-04-24T11:14:45Z</time></trkpt><trkpt lat="44.718130299395234" lon="10.681626342877534"><ele>37.5</ele><time>2026-04-24T11:14:46Z</time></trkpt><trkpt lat="44.71805302313112" lon="10.68202307278497"><ele>37.0</ele><time>2026-04-24T11:14:47Z</time></trkpt><trkpt lat="44.7179798589223" lon="10.682417684361546"><ele>37.5</ele><time>2026-04-24T11:14:48Z</time></trkpt><trkpt lat="44.71790529408424" lon="10.682816813522452"><ele>38.0</ele><time>2026-04-24T11:14:49Z</time></trkpt><trkpt lat="44.71783235450883" lon="10.683208473967584"><ele>37.5</ele><time>2026-04-24T11:14:50Z</time></trkpt><trkpt lat="44.717754458887704" lon="10.68360639204493"><ele>37.0</ele><time>2026-04-24T11:14:51Z</time></trkpt><trkpt lat="44.71767681733947" lon="10.683997760643408"><ele>38.0</ele><time>2026-04-24T11:14:52Z</time></trkpt><trkpt lat="44.717598097710784" lon="10.684385535216148"><ele>39.0</ele><time>2026-04-24T11:14:53Z</time></trkpt><trkpt lat="44.71751712541183" lon="10.684780720093812"><ele>39.0</ele><time>2026-04-24T11:14:54Z</time></trkpt><trkpt lat="44.71743423773623" lon="10.685172141078569"><ele>39.0</ele><time>2026-04-24T11:14:55Z</time></trkpt><trkpt lat="44.7173499945133" lon="10.685561540745692"><ele>38.0</ele><time>2026-04-24T11:14:56Z</time></trkpt><trkpt lat="44.71726272882663" lon="10.685948440303571"><ele>37.0</ele><time>2026-04-24T11:14:57Z</time></trkpt><trkpt lat="44.71717536126434" lon="10.686338167157576"><ele>37.0</ele><time>2026-04-24T11:14:58Z</time></trkpt><trkpt lat="44.717087642585746" lon="10.686730478223868"><ele>37.0</ele><time>2026-04-24T11:14:59Z</time></trkpt><trkpt lat="44.717002444760304" lon="10.687121458776408"><ele>37.0</ele><time>2026-04-24T11:15:00Z</time></trkpt><trkpt lat="44.71691858886402" lon="10.687515504001796"><ele>37.0</ele><time>2026-04-24T11:15:01Z</time></trkpt><trkpt lat="44.716837126873116" lon="10.687907902820507"><ele>38.0</ele><time>2026-04-24T11:15:02Z</time></trkpt><trkpt lat="44.7167551825481" lon="10.68830211968569"><ele>39.0</ele><time>2026-04-24T11:15:03Z</time></trkpt><trkpt lat="44.71667295525492" lon="10.68869671366995"><ele>39.0</ele><time>2026-04-24T11:15:04Z</time></trkpt><trkpt lat="44.71659036888616" lon="10.689089379212417"><ele>39.0</ele><time>2026-04-24T11:15:05Z</time></trkpt><trkpt lat="44.71650586169333" lon="10.6894807553426"><ele>38.5</ele><time>2026-04-24T11:15:06Z</time></trkpt><trkpt lat="44.71642201298638" lon="10.689872563716794"><ele>38.0</ele><time>2026-04-24T11:15:07Z</time></trkpt><trkpt lat="44.71633982622037" lon="10.69026560539729"><ele>37.5</ele><time>2026-04-24T11:15:08Z</time></trkpt><trkpt lat="44.716257688951664" lon="10.690658863084327"><ele>37.0</ele><time>2026-04-24T11:15:09Z</time></trkpt><trkpt lat="44.71617840023233" lon="10.6910510455379"><ele>37.0</ele><time>2026-04-24T11:15:10Z</time></trkpt><trkpt lat="44.71610138443641" lon="10.691442682344187"><ele>37.0</ele><time>2026-04-24T11:15:11Z</time></trkpt><trkpt lat="44.71602460779905" lon="10.691837699713723"><ele>37.5</ele><time>2026-04-24T11:15:12Z</time></trkpt><trkpt lat="44.71594596941547" lon="10.692229958558196"><ele>38.0</ele><time>2026-04-24T11:15:13Z</time></trkpt><trkpt lat="44.71586400578024" lon="10.692620664576836"><ele>39.0</ele><time>2026-04-24T11:15:14Z</time></trkpt><trkpt lat="44.715781206800315" lon="10.693009796900926"><ele>40.0</ele><time>2026-04-24T11:15:15Z</time></trkpt><trkpt lat="44.71569861761826" lon="10.693406633884239"><ele>40.5</ele><time>2026-04-24T11:15:16Z</time></trkpt><trkpt lat="44.7156158284232" lon="10.69379861620692"><ele>41.0</ele><time>2026-04-24T11:15:17Z</time></trkpt><trkpt lat="44.715535415350466" lon="10.69417664399953"><ele>40.5</ele><time>2026-04-24T11:15:18Z</time></trkpt><trkpt lat="44.71545633263682" lon="10.694585304618778"><ele>40.0</ele><time>2026-04-24T11:15:19Z</time></trkpt><trkpt lat="44.715378289793236" lon="10.694983161717388"><ele>40.0</ele><time>2026-04-24T11:15:20Z</time></trkpt><trkpt lat="44.715297958184664" lon="10.695379308835275"><ele>40.0</ele><time>2026-04-24T11:15:21Z</time></trkpt><trkpt lat="44.71521636303538" lon="10.695770378772387"><ele>39.0</ele><time>2026-04-24T11:15:22Z</time></trkpt><trkpt lat="44.715133619340016" lon="10.696160471035903"><ele>38.0</ele><time>2026-04-24T11:15:23Z</time></trkpt><trkpt lat="44.71505210377733" lon="10.69655815783522"><ele>37.5</ele><time>2026-04-24T11:15:24Z</time></trkpt><trkpt lat="44.71497307863225" lon="10.69695000231196"><ele>37.0</ele><time>2026-04-24T11:15:25Z</time></trkpt><trkpt lat="44.714892185466894" lon="10.697344167289145"><ele>37.0</ele><time>2026-04-24T11:15:26Z</time></trkpt><trkpt lat="44.714812754038455" lon="10.697738587022313"><ele>37.0</ele><time>2026-04-24T11:15:27Z</time></trkpt><trkpt lat="44.71473582925798" lon="10.698133746832331"><ele>37.0</ele><time>2026-04-24T11:15:28Z</time></trkpt><trkpt lat="44.71466346922534" lon="10.698529295744423"><ele>37.0</ele><time>2026-04-24T11:15:29Z</time></trkpt><trkpt lat="44.71459274551122" lon="10.698925048674239"><ele>37.5</ele><time>2026-04-24T11:15:30Z</time></trkpt><trkpt lat="44.7145201913992" lon="10.699324516748696"><ele>38.0</ele><time>2026-04-24T11:15:31Z</time></trkpt><trkpt lat="44.714442017638476" lon="10.699720660384235"><ele>39.0</ele><time>2026-04-24T11:15:32Z</time></trkpt><trkpt lat="44.71436069819967" lon="10.700116201501364"><ele>40.0</ele><time>2026-04-24T11:15:33Z</time></trkpt><trkpt lat="44.71427874548454" lon="10.70051226752956"><ele>40.5</ele><time>2026-04-24T11:15:34Z</time></trkpt><trkpt lat="44.71419848221179" lon="10.700908170979616"><ele>41.0</ele><time>2026-04-24T11:15:35Z</time></trkpt><trkpt lat="44.71411878100258" lon="10.701300068057163"><ele>41.0</ele><time>2026-04-24T11:15:36Z</time></trkpt><trkpt lat="44.71403726591574" lon="10.70168802087694"><ele>41.0</ele><time>2026-04-24T11:15:37Z</time></trkpt><trkpt lat="44.71395490292334" lon="10.702077305978591"><ele>40.5</ele><time>2026-04-24T11:15:38Z</time></trkpt><trkpt lat="44.71387289368697" lon="10.702466305133052"><ele>40.0</ele><time>2026-04-24T11:15:39Z</time></trkpt><trkpt lat="44.71378855522629" lon="10.702857843281262"><ele>39.0</ele><time>2026-04-24T11:15:40Z</time></trkpt><trkpt lat="44.71369929478949" lon="10.703250603111744"><ele>38.0</ele><time>2026-04-24T11:15:41Z</time></trkpt><trkpt lat="44.71361081577681" lon="10.70364000618784"><ele>38.0</ele><time>2026-04-24T11:15:42Z</time></trkpt><trkpt lat="44.71352328046083" lon="10.70403502861107"><ele>38.0</ele><time>2026-04-24T11:15:43Z</time></trkpt><trkpt lat="44.713443255532724" lon="10.70442146193773"><ele>38.0</ele><time>2026-04-24T11:15:44Z</time></trkpt><trkpt lat="44.71335918297347" lon="10.704826398715444"><ele>38.0</ele><time>2026-04-24T11:15:45Z</time></trkpt><trkpt lat="44.71328225178406" lon="10.705215285316585"><ele>38.0</ele><time>2026-04-24T11:15:46Z</time></trkpt><trkpt lat="44.71320420008426" lon="10.705610376582715"><ele>38.0</ele><time>2026-04-24T11:15:47Z</time></trkpt><trkpt lat="44.7131247067339" lon="10.706001636901203"><ele>38.0</ele><time>2026-04-24T11:15:48Z</time></trkpt><trkpt lat="44.713044643004274" lon="10.706394287210243"><ele>38.0</ele><time>2026-04-24T11:15:49Z</time></trkpt><trkpt lat="44.712969897738034" lon="10.706786796494093"><ele>37.5</ele><time>2026-04-24T11:15:50Z</time></trkpt><trkpt lat="44.71288849341348" lon="10.707185215247044"><ele>37.0</ele><time>2026-04-24T11:15:51Z</time></trkpt><trkpt lat="44.71280739761755" lon="10.707578505652307"><ele>37.5</ele><time>2026-04-24T11:15:52Z</time></trkpt><trkpt lat="44.712729171734054" lon="10.70797098839782"><ele>38.0</ele><time>2026-04-24T11:15:53Z</time></trkpt><trkpt lat="44.71264913486425" lon="10.708365618209225"><ele>38.5</ele><time>2026-04-24T11:15:54Z</time></trkpt><trkpt lat="44.71256813695507" lon="10.708759444376684"><ele>39.0</ele><time>2026-04-24T11:15:55Z</time></trkpt><trkpt lat="44.71248434948575" lon="10.709152357393641"><ele>39.0</ele><time>2026-04-24T11:15:56Z</time></trkpt><trkpt lat="44.712403010183536" lon="10.709544821516074"><ele>39.0</ele><time>2026-04-24T11:15:57Z</time></trkpt><trkpt lat="44.712323071926534" lon="10.709935507308222"><ele>40.0</ele><time>2026-04-24T11:15:58Z</time></trkpt><trkpt lat="44.71224252008892" lon="10.71033147331301"><ele>41.0</ele><time>2026-04-24T11:15:59Z</time></trkpt><trkpt lat="44.712162690731695" lon="10.710724092141168"><ele>41.0</ele><time>2026-04-24T11:16:00Z</time></trkpt><trkpt lat="44.71208090647554" lon="10.711118568341554"><ele>41.0</ele><time>2026-04-24T11:16:01Z</time></trkpt><trkpt lat="44.71199890756092" lon="10.711512508973922"><ele>41.0</ele><time>2026-04-24T11:16:02Z</time></trkpt><trkpt lat="44.71192068631894" lon="10.711902845202456"><ele>41.0</ele><time>2026-04-24T11:16:03Z</time></trkpt><trkpt lat="44.71184060093206" lon="10.712297048067056"><ele>40.5</ele><time>2026-04-24T11:16:04Z</time></trkpt><trkpt lat="44.711759230072936" lon="10.712693199878906"><ele>40.0</ele><time>2026-04-24T11:16:05Z</time></trkpt><trkpt lat="44.711678733122774" lon="10.713084737673961"><ele>40.0</ele><time>2026-04-24T11:16:06Z</time></trkpt><trkpt lat="44.71159734015028" lon="10.71348141286334"><ele>40.0</ele><time>2026-04-24T11:16:07Z</time></trkpt><trkpt lat="44.71151781818714" lon="10.713871840213228"><ele>40.0</ele><time>2026-04-24T11:16:08Z</time></trkpt><trkpt lat="44.71143769799695" lon="10.714264110595252"><ele>40.0</ele><time>2026-04-24T11:16:09Z</time></trkpt><trkpt lat="44.71135785486174" lon="10.714659425019414"><ele>39.5</ele><time>2026-04-24T11:16:10Z</time></trkpt><trkpt lat="44.71127859483096" lon="10.715054371360958"><ele>39.0</ele><time>2026-04-24T11:16:11Z</time></trkpt><trkpt lat="44.711197629425364" lon="10.715446905310747"><ele>39.0</ele><time>2026-04-24T11:16:12Z</time></trkpt><trkpt lat="44.711117280203084" lon="10.715843719024793"><ele>39.0</ele><time>2026-04-24T11:16:13Z</time></trkpt><trkpt lat="44.71103884972823" lon="10.71623073279328"><ele>38.5</ele><time>2026-04-24T11:16:14Z</time></trkpt><trkpt lat="44.710957225152924" lon="10.716627535639292"><ele>38.0</ele><time>2026-04-24T11:16:15Z</time></trkpt><trkpt lat="44.71087620025775" lon="10.717024503583096"><ele>38.0</ele><time>2026-04-24T11:16:16Z</time></trkpt><trkpt lat="44.71079578010799" lon="10.717416211638458"><ele>38.0</ele><time>2026-04-24T11:16:17Z</time></trkpt><trkpt lat="44.71071470496725" lon="10.7178090674924"><ele>38.0</ele><time>2026-04-24T11:16:18Z</time></trkpt><trkpt lat="44.71063587934274" lon="10.718201396240723"><ele>38.0</ele><time>2026-04-24T11:16:19Z</time></trkpt><trkpt lat="44.71055691073475" lon="10.71859747144646"><ele>38.0</ele><time>2026-04-24T11:16:20Z</time></trkpt><trkpt lat="44.710476792476946" lon="10.718987387221466"><ele>38.0</ele><time>2026-04-24T11:16:21Z</time></trkpt><trkpt lat="44.71039264360302" lon="10.719377222339233"><ele>38.0</ele><time>2026-04-24T11:16:22Z</time></trkpt><trkpt lat="44.71030759440217" lon="10.719767768390053"><ele>38.0</ele><time>2026-04-24T11:16:23Z</time></trkpt><trkpt lat="44.710219010184055" lon="10.72015894952109"><ele>37.5</ele><time>2026-04-24T11:16:24Z</time></trkpt><trkpt lat="44.71012869164313" lon="10.720550521295836"><ele>37.0</ele><time>2026-04-24T11:16:25Z</time></trkpt><trkpt lat="44.71003735260331" lon="10.720939400284276"><ele>38.0</ele><time>2026-04-24T11:16:26Z</time></trkpt><trkpt lat="44.709944356285106" lon="10.721330663254857"><ele>39.0</ele><time>2026-04-24T11:16:27Z</time></trkpt><trkpt lat="44.709849140639555" lon="10.721716045397503"><ele>40.0</ele><time>2026-04-24T11:16:28Z</time></trkpt><trkpt lat="44.709748040126534" lon="10.722107079805783"><ele>41.0</ele><time>2026-04-24T11:16:29Z</time></trkpt><trkpt lat="44.709648496975355" lon="10.722486053774826"><ele>41.0</ele><time>2026-04-24T11:16:30Z</time></trkpt><trkpt lat="44.70954487414295" lon="10.722871991211933"><ele>41.0</ele><time>2026-04-24T11:16:31Z</time></trkpt><trkpt lat="44.709440913917454" lon="10.723252686467637"><ele>40.0</ele><time>2026-04-24T11:16:32Z</time></trkpt><trkpt lat="44.709332823647664" lon="10.723629753826586"><ele>39.0</ele><time>2026-04-24T11:16:33Z</time></trkpt><trkpt lat="44.70922052380824" lon="10.724009401022983"><ele>39.0</ele><time>2026-04-24T11:16:34Z</time></trkpt><trkpt lat="44.70910629785203" lon="10.724388786836613"><ele>39.0</ele><time>2026-04-24T11:16:35Z</time></trkpt><trkpt lat="44.70899465754475" lon="10.724763702790842"><ele>39.5</ele><time>2026-04-24T11:16:36Z</time></trkpt><trkpt lat="44.70887893755315" lon="10.725140283064503"><ele>40.0</ele><time>2026-04-24T11:16:37Z</time></trkpt><trkpt lat="44.70876376054442" lon="10.725515379464447"><ele>40.0</ele><time>2026-04-24T11:16:38Z</time></trkpt><trkpt lat="44.70864704257551" lon="10.725884123084331"><ele>40.0</ele><time>2026-04-24T11:16:39Z</time></trkpt><trkpt lat="44.70852216572208" lon="10.72625769747472"><ele>40.0</ele><time>2026-04-24T11:16:40Z</time></trkpt><trkpt lat="44.70839435213296" lon="10.726625801709144"><ele>40.0</ele><time>2026-04-24T11:16:41Z</time></trkpt><trkpt lat="44.70826365597424" lon="10.726991669336947"><ele>40.0</ele><time>2026-04-24T11:16:42Z</time></trkpt><trkpt lat="44.70813311030325" lon="10.727360168212968"><ele>40.0</ele><time>2026-04-24T11:16:43Z</time></trkpt><trkpt lat="44.70800331530936" lon="10.72772909044203"><ele>39.5</ele><time>2026-04-24T11:16:44Z</time></trkpt><trkpt lat="44.70787548775734" lon="10.728098601760928"><ele>39.0</ele><time>2026-04-24T11:16:45Z</time></trkpt><trkpt lat="44.70775341005263" lon="10.72846440546913"><ele>39.5</ele><time>2026-04-24T11:16:46Z</time></trkpt><trkpt lat="44.70762923255378" lon="10.728834260807352"><ele>40.0</ele><time>2026-04-24T11:16:47Z</time></trkpt><trkpt lat="44.707502618846476" lon="10.729206882950244"><ele>39.5</ele><time>2026-04-24T11:16:48Z</time></trkpt><trkpt lat="44.707376822982724" lon="10.729575930583401"><ele>39.0</ele><time>2026-04-24T11:16:49Z</time></trkpt><trkpt lat="44.70724912792754" lon="10.729945161306942"><ele>39.5</ele><time>2026-04-24T11:16:50Z</time></trkpt><trkpt lat="44.70712298855562" lon="10.730312843964589"><ele>40.0</ele><time>2026-04-24T11:16:51Z</time></trkpt><trkpt lat="44.706997097519775" lon="10.730678606604915"><ele>40.0</ele><time>2026-04-24T11:16:52Z</time></trkpt><trkpt lat="44.70687236088677" lon="10.731043029778945"><ele>40.0</ele><time>2026-04-24T11:16:53Z</time></trkpt><trkpt lat="44.70674472251755" lon="10.731414751589448"><ele>40.0</ele><time>2026-04-24T11:16:54Z</time></trkpt><trkpt lat="44.70661827894953" lon="10.731783766656084"><ele>40.0</ele><time>2026-04-24T11:16:55Z</time></trkpt><trkpt lat="44.70648868873151" lon="10.732154248061788"><ele>40.0</ele><time>2026-04-24T11:16:56Z</time></trkpt><trkpt lat="44.706359833396704" lon="10.732521942814756"><ele>40.0</ele><time>2026-04-24T11:16:57Z</time></trkpt><trkpt lat="44.706231323961234" lon="10.732888597229836"><ele>40.0</ele><time>2026-04-24T11:16:58Z</time></trkpt><trkpt lat="44.70610270569169" lon="10.733258656445521"><ele>40.0</ele><time>2026-04-24T11:16:59Z</time></trkpt><trkpt lat="44.70597750196784" lon="10.733627093683001"><ele>40.0</ele><time>2026-04-24T11:17:00Z</time></trkpt><trkpt lat="44.705855308871485" lon="10.733995810422496"><ele>40.0</ele><time>2026-04-24T11:17:01Z</time></trkpt><trkpt lat="44.70572970833355" lon="10.734368628019126"><ele>40.0</ele><time>2026-04-24T11:17:02Z</time></trkpt><trkpt lat="44.70560117680314" lon="10.734737840101898"><ele>40.0</ele><time>2026-04-24T11:17:03Z</time></trkpt><trkpt lat="44.705470206928204" lon="10.735104506240106"><ele>39.5</ele><time>2026-04-24T11:17:04Z</time></trkpt><trkpt lat="44.705341344175224" lon="10.735471423550743"><ele>39.0</ele><time>2026-04-24T11:17:05Z</time></trkpt><trkpt lat="44.70521282845803" lon="10.735837494517504"><ele>39.5</ele><time>2026-04-24T11:17:06Z</time></trkpt><trkpt lat="44.70508501735919" lon="10.73620397582891"><ele>40.0</ele><time>2026-04-24T11:17:07Z</time></trkpt><trkpt lat="44.70495537231242" lon="10.736574966519488"><ele>40.0</ele><time>2026-04-24T11:17:08Z</time></trkpt><trkpt lat="44.7048292599448" lon="10.736941766218127"><ele>40.0</ele><time>2026-04-24T11:17:09Z</time></trkpt><trkpt lat="44.70470104772272" lon="10.737313116056013"><ele>40.0</ele><time>2026-04-24T11:17:10Z</time></trkpt><trkpt lat="44.70457287941777" lon="10.737682292751714"><ele>40.0</ele><time>2026-04-24T11:17:11Z</time></trkpt><trkpt lat="44.70444872874989" lon="10.738049019870076"><ele>39.5</ele><time>2026-04-24T11:17:12Z</time></trkpt><trkpt lat="44.70432453495232" lon="10.738415107440611"><ele>39.0</ele><time>2026-04-24T11:17:13Z</time></trkpt><trkpt lat="44.70419645733251" lon="10.738786547222785"><ele>39.0</ele><time>2026-04-24T11:17:14Z</time></trkpt><trkpt lat="44.704068436432195" lon="10.739154613176225"><ele>39.0</ele><time>2026-04-24T11:17:15Z</time></trkpt><trkpt lat="44.70394204501088" lon="10.73952138808296"><ele>39.0</ele><time>2026-04-24T11:17:16Z</time></trkpt><trkpt lat="44.70381505758403" lon="10.739887659205353"><ele>39.0</ele><time>2026-04-24T11:17:17Z</time></trkpt><trkpt lat="44.70368742030521" lon="10.740255238371937"><ele>39.5</ele><time>2026-04-24T11:17:18Z</time></trkpt><trkpt lat="44.70355931080615" lon="10.740622944944972"><ele>40.0</ele><time>2026-04-24T11:17:19Z</time></trkpt><trkpt lat="44.70343069274809" lon="10.740992322714288"><ele>40.5</ele><time>2026-04-24T11:17:20Z</time></trkpt><trkpt lat="44.70330354699911" lon="10.741359747867076"><ele>41.0</ele><time>2026-04-24T11:17:21Z</time></trkpt><trkpt lat="44.70317860622629" lon="10.741726283537213"><ele>40.0</ele><time>2026-04-24T11:17:22Z</time></trkpt><trkpt lat="44.70305372761955" lon="10.742098260428545"><ele>39.0</ele><time>2026-04-24T11:17:23Z</time></trkpt><trkpt lat="44.702928658557944" lon="10.742470305175177"><ele>38.5</ele><time>2026-04-24T11:17:24Z</time></trkpt><trkpt lat="44.70280044865105" lon="10.742836822290208"><ele>38.0</ele><time>2026-04-24T11:17:25Z</time></trkpt><trkpt lat="44.70266962942367" lon="10.743203805467344"><ele>39.5</ele><time>2026-04-24T11:17:26Z</time></trkpt><trkpt lat="44.702539220710584" lon="10.743569601904557"><ele>41.0</ele><time>2026-04-24T11:17:27Z</time></trkpt><trkpt lat="44.702411424453224" lon="10.74393725432041"><ele>41.0</ele><time>2026-04-24T11:17:28Z</time></trkpt><trkpt lat="44.70228550541312" lon="10.744307980521413"><ele>41.0</ele><time>2026-04-24T11:17:29Z</time></trkpt><trkpt lat="44.702158177592274" lon="10.744677171055434"><ele>41.5</ele><time>2026-04-24T11:17:30Z</time></trkpt><trkpt lat="44.70202080421231" lon="10.745063983978442"><ele>42.0</ele><time>2026-04-24T11:17:31Z</time></trkpt><trkpt lat="44.70189709519693" lon="10.745420101017821"><ele>40.5</ele><time>2026-04-24T11:17:32Z</time></trkpt><trkpt lat="44.70177093862848" lon="10.74578776125458"><ele>39.0</ele><time>2026-04-24T11:17:33Z</time></trkpt><trkpt lat="44.701643512027914" lon="10.746155500287168"><ele>39.0</ele><time>2026-04-24T11:17:34Z</time></trkpt><trkpt lat="44.70151560121322" lon="10.746524273774074"><ele>39.0</ele><time>2026-04-24T11:17:35Z</time></trkpt><trkpt lat="44.7013889730021" lon="10.746892235665689"><ele>39.0</ele><time>2026-04-24T11:17:36Z</time></trkpt><trkpt lat="44.701263990165316" lon="10.747261090639036"><ele>39.0</ele><time>2026-04-24T11:17:37Z</time></trkpt><trkpt lat="44.701139057131954" lon="10.74763069638075"><ele>38.5</ele><time>2026-04-24T11:17:38Z</time></trkpt><trkpt lat="44.70101188182029" lon="10.7480022568244"><ele>38.0</ele><time>2026-04-24T11:17:39Z</time></trkpt><trkpt lat="44.70088606320653" lon="10.748371234443757"><ele>37.5</ele><time>2026-04-24T11:17:40Z</time></trkpt><trkpt lat="44.70075934752849" lon="10.7487423533227"><ele>37.0</ele><time>2026-04-24T11:17:41Z</time></trkpt><trkpt lat="44.70063398718945" lon="10.749110689825102"><ele>37.5</ele><time>2026-04-24T11:17:42Z</time></trkpt><trkpt lat="44.70050857509419" lon="10.749473245303225"><ele>38.0</ele><time>2026-04-24T11:17:43Z</time></trkpt><trkpt lat="44.70038017794481" lon="10.749842089926346"><ele>38.0</ele><time>2026-04-24T11:17:44Z</time></trkpt><trkpt lat="44.70025152608425" lon="10.75020851288311"><ele>38.0</ele><time>2026-04-24T11:17:45Z</time></trkpt><trkpt lat="44.700122208962355" lon="10.750573804849314"><ele>38.5</ele><time>2026-04-24T11:17:46Z</time></trkpt><trkpt lat="44.699993203743496" lon="10.750945052146024"><ele>39.0</ele><time>2026-04-24T11:17:47Z</time></trkpt><trkpt lat="44.699866525196946" lon="10.751311414454657"><ele>39.0</ele><time>2026-04-24T11:17:48Z</time></trkpt><trkpt lat="44.69973892677549" lon="10.751683902230154"><ele>39.0</ele><time>2026-04-24T11:17:49Z</time></trkpt><trkpt lat="44.69961098491044" lon="10.752052032544194"><ele>39.0</ele><time>2026-04-24T11:17:50Z</time></trkpt><trkpt lat="44.6994837516583" lon="10.752417593205243"><ele>39.0</ele><time>2026-04-24T11:17:51Z</time></trkpt><trkpt lat="44.69935165552568" lon="10.752787200193865"><ele>38.0</ele><time>2026-04-24T11:17:52Z</time></trkpt><trkpt lat="44.69922269968363" lon="10.753151194452515"><ele>37.0</ele><time>2026-04-24T11:17:53Z</time></trkpt><trkpt lat="44.699092795653414" lon="10.75351790038709"><ele>38.0</ele><time>2026-04-24T11:17:54Z</time></trkpt><trkpt lat="44.69896370971719" lon="10.75388622226285"><ele>39.0</ele><time>2026-04-24T11:17:55Z</time></trkpt><trkpt lat="44.69883943527605" lon="10.754256018036365"><ele>39.0</ele><time>2026-04-24T11:17:56Z</time></trkpt><trkpt lat="44.69871758739246" lon="10.754628845467552"><ele>39.0</ele><time>2026-04-24T11:17:57Z</time></trkpt><trkpt lat="44.69859396349296" lon="10.754998956667075"><ele>38.5</ele><time>2026-04-24T11:17:58Z</time></trkpt><trkpt lat="44.69846728223318" lon="10.75536731879998"><ele>38.0</ele><time>2026-04-24T11:17:59Z</time></trkpt><trkpt lat="44.698339357729594" lon="10.755730325450733"><ele>38.0</ele><time>2026-04-24T11:18:00Z</time></trkpt><trkpt lat="44.69820994963023" lon="10.756095901256803"><ele>38.0</ele><time>2026-04-24T11:18:01Z</time></trkpt><trkpt lat="44.69808177078458" lon="10.756462656384901"><ele>38.0</ele><time>2026-04-24T11:18:02Z</time></trkpt><trkpt lat="44.69795456608424" lon="10.756837128798512"><ele>38.0</ele><time>2026-04-24T11:18:03Z</time></trkpt><trkpt lat="44.69783205188794" lon="10.757210695589247"><ele>38.0</ele><time>2026-04-24T11:18:04Z</time></trkpt><trkpt lat="44.69771189942847" lon="10.757580612120458"><ele>38.0</ele><time>2026-04-24T11:18:05Z</time></trkpt><trkpt lat="44.69758978646271" lon="10.757950926997598"><ele>38.0</ele><time>2026-04-24T11:18:06Z</time></trkpt><trkpt lat="44.69746320123014" lon="10.758322390701403"><ele>38.0</ele><time>2026-04-24T11:18:07Z</time></trkpt><trkpt lat="44.69733586440119" lon="10.758689510266152"><ele>38.5</ele><time>2026-04-24T11:18:08Z</time></trkpt><trkpt lat="44.69720778292402" lon="10.7590550487425"><ele>39.0</ele><time>2026-04-24T11:18:09Z</time></trkpt><trkpt lat="44.69708206140714" lon="10.759423658763502"><ele>38.5</ele><time>2026-04-24T11:18:10Z</time></trkpt><trkpt lat="44.696957183853954" lon="10.759793054890526"><ele>38.0</ele><time>2026-04-24T11:18:11Z</time></trkpt><trkpt lat="44.69683194878029" lon="10.760159852106082"><ele>39.0</ele><time>2026-04-24T11:18:12Z</time></trkpt><trkpt lat="44.6967041466796" lon="10.760529834535587"><ele>40.0</ele><time>2026-04-24T11:18:13Z</time></trkpt><trkpt lat="44.69657637390502" lon="10.760895300516095"><ele>39.5</ele><time>2026-04-24T11:18:14Z</time></trkpt><trkpt lat="44.69644900318874" lon="10.761260606107284"><ele>39.0</ele><time>2026-04-24T11:18:15Z</time></trkpt><trkpt lat="44.69631819856094" lon="10.76162913315973"><ele>40.0</ele><time>2026-04-24T11:18:16Z</time></trkpt><trkpt lat="44.69618897196271" lon="10.761990945006557"><ele>41.0</ele><time>2026-04-24T11:18:17Z</time></trkpt><trkpt lat="44.69605535092498" lon="10.762356100318218"><ele>41.5</ele><time>2026-04-24T11:18:18Z</time></trkpt><trkpt lat="44.69592125961584" lon="10.76271703696627"><ele>42.0</ele><time>2026-04-24T11:18:19Z</time></trkpt><trkpt lat="44.695782594276984" lon="10.763082964538466"><ele>42.0</ele><time>2026-04-24T11:18:20Z</time></trkpt><trkpt lat="44.695653324440045" lon="10.763444451407818"><ele>42.0</ele><time>2026-04-24T11:18:21Z</time></trkpt><trkpt lat="44.69552852935725" lon="10.763815806136254"><ele>41.0</ele><time>2026-04-24T11:18:22Z</time></trkpt><trkpt lat="44.6954011501529" lon="10.764189084569473"><ele>40.0</ele><time>2026-04-24T11:18:23Z</time></trkpt><trkpt lat="44.69527461818011" lon="10.764559099228102"><ele>40.0</ele><time>2026-04-24T11:18:24Z</time></trkpt><trkpt lat="44.69514935798098" lon="10.764926009838195"><ele>40.0</ele><time>2026-04-24T11:18:25Z</time></trkpt><trkpt lat="44.69502244612432" lon="10.765296000811116"><ele>40.0</ele><time>2026-04-24T11:18:26Z</time></trkpt><trkpt lat="44.69489645091783" lon="10.765662032190084"><ele>40.0</ele><time>2026-04-24T11:18:27Z</time></trkpt><trkpt lat="44.69476672234596" lon="10.766032831526338"><ele>40.5</ele><time>2026-04-24T11:18:28Z</time></trkpt><trkpt lat="44.69463544145611" lon="10.766403009582525"><ele>41.0</ele><time>2026-04-24T11:18:29Z</time></trkpt><trkpt lat="44.69450590153898" lon="10.766769277114117"><ele>41.0</ele><time>2026-04-24T11:18:30Z</time></trkpt><trkpt lat="44.69437778321111" lon="10.767136778849217"><ele>41.0</ele><time>2026-04-24T11:18:31Z</time></trkpt><trkpt lat="44.69425021579323" lon="10.767502307987522"><ele>41.0</ele><time>2026-04-24T11:18:32Z</time></trkpt><trkpt lat="44.694123131171565" lon="10.767868239629298"><ele>41.0</ele><time>2026-04-24T11:18:33Z</time></trkpt><trkpt lat="44.69399650523094" lon="10.768237107566364"><ele>40.5</ele><time>2026-04-24T11:18:34Z</time></trkpt><trkpt lat="44.6938724651579" lon="10.768604724379744"><ele>40.0</ele><time>2026-04-24T11:18:35Z</time></trkpt><trkpt lat="44.69374805827294" lon="10.768977494732441"><ele>40.0</ele><time>2026-04-24T11:18:36Z</time></trkpt><trkpt lat="44.69362246194443" lon="10.769347406291853"><ele>40.0</ele><time>2026-04-24T11:18:37Z</time></trkpt><trkpt lat="44.693498436360066" lon="10.769721595790088"><ele>38.5</ele><time>2026-04-24T11:18:38Z</time></trkpt><trkpt lat="44.693384832343924" lon="10.770093620891968"><ele>37.0</ele><time>2026-04-24T11:18:39Z</time></trkpt><trkpt lat="44.69326702918676" lon="10.770465531015883"><ele>37.0</ele><time>2026-04-24T11:18:40Z</time></trkpt><trkpt lat="44.693139010271615" lon="10.770831927891383"><ele>37.0</ele><time>2026-04-24T11:18:41Z</time></trkpt><trkpt lat="44.6930096280113" lon="10.771193607980177"><ele>37.5</ele><time>2026-04-24T11:18:42Z</time></trkpt><trkpt lat="44.69288103399371" lon="10.771561938345807"><ele>38.0</ele><time>2026-04-24T11:18:43Z</time></trkpt><trkpt lat="44.692752006199996" lon="10.771930680865216"><ele>38.5</ele><time>2026-04-24T11:18:44Z</time></trkpt><trkpt lat="44.692625120484344" lon="10.772299422253566"><ele>39.0</ele><time>2026-04-24T11:18:45Z</time></trkpt><trkpt lat="44.69249804125606" lon="10.772669508395493"><ele>39.0</ele><time>2026-04-24T11:18:46Z</time></trkpt><trkpt lat="44.69237045104452" lon="10.773034176406957"><ele>39.0</ele><time>2026-04-24T11:18:47Z</time></trkpt><trkpt lat="44.69223599685098" lon="10.773398451297997"><ele>39.5</ele><time>2026-04-24T11:18:48Z</time></trkpt><trkpt lat="44.69209426283619" lon="10.773755212515571"><ele>40.0</ele><time>2026-04-24T11:18:49Z</time></trkpt><trkpt lat="44.69195214017499" lon="10.774112984101796"><ele>41.0</ele><time>2026-04-24T11:18:50Z</time></trkpt><trkpt lat="44.69182270755185" lon="10.774476363453623"><ele>42.0</ele><time>2026-04-24T11:18:51Z</time></trkpt><trkpt lat="44.69170186775564" lon="10.774846025298862"><ele>41.5</ele><time>2026-04-24T11:18:52Z</time></trkpt><trkpt lat="44.69157624793625" lon="10.775217950282432"><ele>41.0</ele><time>2026-04-24T11:18:53Z</time></trkpt><trkpt lat="44.69144664399279" lon="10.775585164195746"><ele>41.0</ele><time>2026-04-24T11:18:54Z</time></trkpt><trkpt lat="44.6913170655747" lon="10.775950953759653"><ele>41.0</ele><time>2026-04-24T11:18:55Z</time></trkpt><trkpt lat="44.69118814215035" lon="10.776323847643138"><ele>41.0</ele><time>2026-04-24T11:18:56Z</time></trkpt><trkpt lat="44.69106092050813" lon="10.776692168879192"><ele>41.0</ele><time>2026-04-24T11:18:57Z</time></trkpt><trkpt lat="44.69093203916459" lon="10.777061419225122"><ele>41.5</ele><time>2026-04-24T11:18:58Z</time></trkpt><trkpt lat="44.6908051624383" lon="10.777424724670288"><ele>42.0</ele><time>2026-04-24T11:18:59Z</time></trkpt><trkpt lat="44.69067913537293" lon="10.777792927834158"><ele>42.0</ele><time>2026-04-24T11:19:00Z</time></trkpt><trkpt lat="44.69054973091733" lon="10.7781658206891"><ele>42.0</ele><time>2026-04-24T11:19:01Z</time></trkpt><trkpt lat="44.69042463354182" lon="10.778534708815794"><ele>41.5</ele><time>2026-04-24T11:19:02Z</time></trkpt><trkpt lat="44.690295883854866" lon="10.778905613678491"><ele>41.0</ele><time>2026-04-24T11:19:03Z</time></trkpt><trkpt lat="44.6901665690038" lon="10.779273533169626"><ele>41.5</ele><time>2026-04-24T11:19:04Z</time></trkpt><trkpt lat="44.69004285580485" lon="10.779646945430775"><ele>42.0</ele><time>2026-04-24T11:19:05Z</time></trkpt><trkpt lat="44.689910503617845" lon="10.78001411577675"><ele>41.5</ele><time>2026-04-24T11:19:06Z</time></trkpt><trkpt lat="44.689783093909114" lon="10.780380780743014"><ele>41.0</ele><time>2026-04-24T11:19:07Z</time></trkpt><trkpt lat="44.689658283089386" lon="10.78074693563905"><ele>42.0</ele><time>2026-04-24T11:19:08Z</time></trkpt><trkpt lat="44.689533574002446" lon="10.781121765321195"><ele>43.0</ele><time>2026-04-24T11:19:09Z</time></trkpt><trkpt lat="44.68940517696065" lon="10.781489548463467"><ele>42.0</ele><time>2026-04-24T11:19:10Z</time></trkpt><trkpt lat="44.68927884417395" lon="10.781853506706735"><ele>41.0</ele><time>2026-04-24T11:19:11Z</time></trkpt><trkpt lat="44.68915290606274" lon="10.782220346651233"><ele>41.0</ele><time>2026-04-24T11:19:12Z</time></trkpt><trkpt lat="44.689024268720374" lon="10.782592766137059"><ele>41.0</ele><time>2026-04-24T11:19:13Z</time></trkpt><trkpt lat="44.68889417601567" lon="10.782960443566568"><ele>42.0</ele><time>2026-04-24T11:19:14Z</time></trkpt><trkpt lat="44.688765207904986" lon="10.78332765339845"><ele>43.0</ele><time>2026-04-24T11:19:15Z</time></trkpt><trkpt lat="44.68863741027336" lon="10.783693045594934"><ele>43.0</ele><time>2026-04-24T11:19:16Z</time></trkpt><trkpt lat="44.68850730396338" lon="10.78406139289747"><ele>43.0</ele><time>2026-04-24T11:19:17Z</time></trkpt><trkpt lat="44.68837965635626" lon="10.784431179737032"><ele>42.5</ele><time>2026-04-24T11:19:18Z</time></trkpt><trkpt lat="44.688254612661304" lon="10.784798705770344"><ele>42.0</ele><time>2026-04-24T11:19:19Z</time></trkpt><trkpt lat="44.68812770592992" lon="10.785164762688794"><ele>41.5</ele><time>2026-04-24T11:19:20Z</time></trkpt><trkpt lat="44.687999409216644" lon="10.785532484175917"><ele>41.0</ele><time>2026-04-24T11:19:21Z</time></trkpt><trkpt lat="44.687872247699424" lon="10.785899298786125"><ele>41.0</ele><time>2026-04-24T11:19:22Z</time></trkpt><trkpt lat="44.687746139737115" lon="10.786266414716097"><ele>41.0</ele><time>2026-04-24T11:19:23Z</time></trkpt><trkpt lat="44.68761818752754" lon="10.786632349620987"><ele>40.5</ele><time>2026-04-24T11:19:24Z</time></trkpt><trkpt lat="44.68749329201968" lon="10.786999293354675"><ele>40.0</ele><time>2026-04-24T11:19:25Z</time></trkpt><trkpt lat="44.68736644764556" lon="10.787367836193992"><ele>40.5</ele><time>2026-04-24T11:19:26Z</time></trkpt><trkpt lat="44.68724125564722" lon="10.787735093632719"><ele>41.0</ele><time>2026-04-24T11:19:27Z</time></trkpt><trkpt lat="44.687113035387696" lon="10.788105578769102"><ele>41.0</ele><time>2026-04-24T11:19:28Z</time></trkpt><trkpt lat="44.68698136358463" lon="10.78847565538839"><ele>41.0</ele><time>2026-04-24T11:19:29Z</time></trkpt><trkpt lat="44.68684931402169" lon="10.788839585405176"><ele>41.5</ele><time>2026-04-24T11:19:30Z</time></trkpt><trkpt lat="44.686715883366574" lon="10.789208641858902"><ele>42.0</ele><time>2026-04-24T11:19:31Z</time></trkpt><trkpt lat="44.686588716053556" lon="10.78957378169972"><ele>42.0</ele><time>2026-04-24T11:19:32Z</time></trkpt><trkpt lat="44.686462941310175" lon="10.7899427214652"><ele>42.0</ele><time>2026-04-24T11:19:33Z</time></trkpt><trkpt lat="44.68633824202793" lon="10.79031057645818"><ele>42.0</ele><time>2026-04-24T11:19:34Z</time></trkpt><trkpt lat="44.68621403288343" lon="10.79068118677467"><ele>42.0</ele><time>2026-04-24T11:19:35Z</time></trkpt><trkpt lat="44.68608946890681" lon="10.791047320453197"><ele>41.0</ele><time>2026-04-24T11:19:36Z</time></trkpt><trkpt lat="44.68596222616369" lon="10.79141683265444"><ele>40.0</ele><time>2026-04-24T11:19:37Z</time></trkpt><trkpt lat="44.685832084802485" lon="10.791783066878931"><ele>40.0</ele><time>2026-04-24T11:19:38Z</time></trkpt><trkpt lat="44.685699746661115" lon="10.792146910276808"><ele>40.0</ele><time>2026-04-24T11:19:39Z</time></trkpt><trkpt lat="44.68557013179089" lon="10.792510256436506"><ele>39.5</ele><time>2026-04-24T11:19:40Z</time></trkpt><trkpt lat="44.685442808992576" lon="10.792878640081568"><ele>39.0</ele><time>2026-04-24T11:19:41Z</time></trkpt><trkpt lat="44.68531720395978" lon="10.793244400829714"><ele>40.0</ele><time>2026-04-24T11:19:42Z</time></trkpt><trkpt lat="44.685189030686075" lon="10.793612219657374"><ele>41.0</ele><time>2026-04-24T11:19:43Z</time></trkpt><trkpt lat="44.68506381361322" lon="10.793986114116956"><ele>41.0</ele><time>2026-04-24T11:19:44Z</time></trkpt><trkpt lat="44.68494137665355" lon="10.794358667371384"><ele>41.0</ele><time>2026-04-24T11:19:45Z</time></trkpt><trkpt lat="44.68481614799006" lon="10.794727960780975"><ele>41.0</ele><time>2026-04-24T11:19:46Z</time></trkpt><trkpt lat="44.684686845994435" lon="10.795089715980508"><ele>41.0</ele><time>2026-04-24T11:19:47Z</time></trkpt><trkpt lat="44.68455592652736" lon="10.795453408145164"><ele>41.0</ele><time>2026-04-24T11:19:48Z</time></trkpt><trkpt lat="44.6844259279082" lon="10.795818610678275"><ele>41.0</ele><time>2026-04-24T11:19:49Z</time></trkpt><trkpt lat="44.68429870716523" lon="10.796187658633913"><ele>41.0</ele><time>2026-04-24T11:19:50Z</time></trkpt><trkpt lat="44.684173186994606" lon="10.796555884530525"><ele>41.0</ele><time>2026-04-24T11:19:51Z</time></trkpt><trkpt lat="44.684047249204106" lon="10.79692632518955"><ele>41.0</ele><time>2026-04-24T11:19:52Z</time></trkpt><trkpt lat="44.68392092401576" lon="10.79730043240865"><ele>41.0</ele><time>2026-04-24T11:19:53Z</time></trkpt><trkpt lat="44.683803255046406" lon="10.7976727516983"><ele>41.0</ele><time>2026-04-24T11:19:54Z</time></trkpt><trkpt lat="44.68368314171216" lon="10.798047379144057"><ele>41.0</ele><time>2026-04-24T11:19:55Z</time></trkpt><trkpt lat="44.683561711910635" lon="10.798417507058554"><ele>42.0</ele><time>2026-04-24T11:19:56Z</time></trkpt><trkpt lat="44.683436438596" lon="10.798783102293276"><ele>43.0</ele><time>2026-04-24T11:19:57Z</time></trkpt><trkpt lat="44.68330551884135" lon="10.799153379683947"><ele>44.0</ele><time>2026-04-24T11:19:58Z</time></trkpt><trkpt lat="44.68317675989409" lon="10.799520951038067"><ele>45.0</ele><time>2026-04-24T11:19:59Z</time></trkpt><trkpt lat="44.683047940526905" lon="10.79988981855898"><ele>43.5</ele><time>2026-04-24T11:20:00Z</time></trkpt><trkpt lat="44.682922829075295" lon="10.800257033341405"><ele>42.0</ele><time>2026-04-24T11:20:01Z</time></trkpt><trkpt lat="44.68279628338289" lon="10.800630804107447"><ele>42.0</ele><time>2026-04-24T11:20:02Z</time></trkpt><trkpt lat="44.68267047832157" lon="10.800999020820527"><ele>42.0</ele><time>2026-04-24T11:20:03Z</time></trkpt><trkpt lat="44.68254320337799" lon="10.801366703561873"><ele>42.0</ele><time>2026-04-24T11:20:04Z</time></trkpt><trkpt lat="44.68241418352634" lon="10.801733920279576"><ele>42.0</ele><time>2026-04-24T11:20:05Z</time></trkpt><trkpt lat="44.68228656046611" lon="10.80210011577706"><ele>42.0</ele><time>2026-04-24T11:20:06Z</time></trkpt><trkpt lat="44.6821572058741" lon="10.802471613819877"><ele>42.0</ele><time>2026-04-24T11:20:07Z</time></trkpt><trkpt lat="44.68203045049497" lon="10.802840997640986"><ele>42.0</ele><time>2026-04-24T11:20:08Z</time></trkpt><trkpt lat="44.68190475529666" lon="10.803209167754098"><ele>42.0</ele><time>2026-04-24T11:20:09Z</time></trkpt><trkpt lat="44.681775207608254" lon="10.803578048116693"><ele>42.0</ele><time>2026-04-24T11:20:10Z</time></trkpt><trkpt lat="44.68164871437444" lon="10.803943101469665"><ele>42.0</ele><time>2026-04-24T11:20:11Z</time></trkpt><trkpt lat="44.68152160060307" lon="10.804310310596613"><ele>42.0</ele><time>2026-04-24T11:20:12Z</time></trkpt><trkpt lat="44.681394532123576" lon="10.804676345376723"><ele>42.0</ele><time>2026-04-24T11:20:13Z</time></trkpt><trkpt lat="44.68126689632482" lon="10.805047084229114"><ele>42.5</ele><time>2026-04-24T11:20:14Z</time></trkpt><trkpt lat="44.68113954978636" lon="10.805412160058841"><ele>43.0</ele><time>2026-04-24T11:20:15Z</time></trkpt><trkpt lat="44.68101313382656" lon="10.805781896561463"><ele>42.0</ele><time>2026-04-24T11:20:16Z</time></trkpt><trkpt lat="44.680884852450404" lon="10.806150709095629"><ele>41.0</ele><time>2026-04-24T11:20:17Z</time></trkpt><trkpt lat="44.68075613969475" lon="10.8065199797199"><ele>41.0</ele><time>2026-04-24T11:20:18Z</time></trkpt><trkpt lat="44.68062673688558" lon="10.806885885462679"><ele>41.0</ele><time>2026-04-24T11:20:19Z</time></trkpt><trkpt lat="44.6804972741869" lon="10.80725351505866"><ele>41.0</ele><time>2026-04-24T11:20:20Z</time></trkpt><trkpt lat="44.68037028569011" lon="10.807622261504758"><ele>41.0</ele><time>2026-04-24T11:20:21Z</time></trkpt><trkpt lat="44.680243252667644" lon="10.807992254882796"><ele>42.5</ele><time>2026-04-24T11:20:22Z</time></trkpt><trkpt lat="44.680115843524206" lon="10.808360184548995"><ele>44.0</ele><time>2026-04-24T11:20:23Z</time></trkpt><trkpt lat="44.679991150534725" lon="10.808729629351474"><ele>44.0</ele><time>2026-04-24T11:20:24Z</time></trkpt><trkpt lat="44.67986430293113" lon="10.809098618709587"><ele>44.0</ele><time>2026-04-24T11:20:25Z</time></trkpt><trkpt lat="44.67973697490363" lon="10.809466270429578"><ele>44.5</ele><time>2026-04-24T11:20:26Z</time></trkpt><trkpt lat="44.67960825363494" lon="10.809831350540952"><ele>45.0</ele><time>2026-04-24T11:20:27Z</time></trkpt><trkpt lat="44.67947682872957" lon="10.810195571449647"><ele>43.5</ele><time>2026-04-24T11:20:28Z</time></trkpt><trkpt lat="44.6793520746468" lon="10.81056038583054"><ele>42.0</ele><time>2026-04-24T11:20:29Z</time></trkpt><trkpt lat="44.679227501907555" lon="10.810929763759349"><ele>42.5</ele><time>2026-04-24T11:20:30Z</time></trkpt><trkpt lat="44.67910537866499" lon="10.81129246072076"><ele>43.0</ele><time>2026-04-24T11:20:31Z</time></trkpt><trkpt lat="44.67896902393894" lon="10.81166529860491"><ele>42.0</ele><time>2026-04-24T11:20:32Z</time></trkpt><trkpt lat="44.67883412146988" lon="10.812028779015087"><ele>41.0</ele><time>2026-04-24T11:20:33Z</time></trkpt><trkpt lat="44.67869799259747" lon="10.812391981305048"><ele>40.5</ele><time>2026-04-24T11:20:34Z</time></trkpt><trkpt lat="44.678565227146294" lon="10.81275742524148"><ele>40.0</ele><time>2026-04-24T11:20:35Z</time></trkpt><trkpt lat="44.67843067152423" lon="10.813122976695267"><ele>40.0</ele><time>2026-04-24T11:20:36Z</time></trkpt><trkpt lat="44.67830226260114" lon="10.81349404299581"><ele>40.0</ele><time>2026-04-24T11:20:37Z</time></trkpt><trkpt lat="44.678175963982206" lon="10.813860129351287"><ele>40.0</ele><time>2026-04-24T11:20:38Z</time></trkpt><trkpt lat="44.678046773396744" lon="10.814229427489453"><ele>40.0</ele><time>2026-04-24T11:20:39Z</time></trkpt><trkpt lat="44.6779174731643" lon="10.814593415388874"><ele>40.0</ele><time>2026-04-24T11:20:40Z</time></trkpt><trkpt lat="44.6777887401688" lon="10.814961854115612"><ele>40.0</ele><time>2026-04-24T11:20:41Z</time></trkpt><trkpt lat="44.67765936002688" lon="10.815324378444737"><ele>40.5</ele><time>2026-04-24T11:20:42Z</time></trkpt><trkpt lat="44.6775313129562" lon="10.815692564254991"><ele>41.0</ele><time>2026-04-24T11:20:43Z</time></trkpt><trkpt lat="44.677406252036086" lon="10.81606234078544"><ele>41.0</ele><time>2026-04-24T11:20:44Z</time></trkpt><trkpt lat="44.677280060717955" lon="10.816432835497913"><ele>41.0</ele><time>2026-04-24T11:20:45Z</time></trkpt><trkpt lat="44.67715363506415" lon="10.816799983054972"><ele>41.0</ele><time>2026-04-24T11:20:46Z</time></trkpt><trkpt lat="44.67702639527673" lon="10.817170645548932"><ele>41.0</ele><time>2026-04-24T11:20:47Z</time></trkpt><trkpt lat="44.676904981061455" lon="10.817541095751046"><ele>42.5</ele><time>2026-04-24T11:20:48Z</time></trkpt><trkpt lat="44.67678540621357" lon="10.817912321438314"><ele>44.0</ele><time>2026-04-24T11:20:49Z</time></trkpt><trkpt lat="44.67666244755019" lon="10.81828149701747"><ele>43.5</ele><time>2026-04-24T11:20:50Z</time></trkpt><trkpt lat="44.676538047241635" lon="10.818651954059048"><ele>43.0</ele><time>2026-04-24T11:20:51Z</time></trkpt><trkpt lat="44.676410208573934" lon="10.819022796430321"><ele>43.5</ele><time>2026-04-24T11:20:52Z</time></trkpt><trkpt lat="44.67628200819238" lon="10.819388734818443"><ele>44.0</ele><time>2026-04-24T11:20:53Z</time></trkpt><trkpt lat="44.67615250194293" lon="10.819756216700545"><ele>44.0</ele><time>2026-04-24T11:20:54Z</time></trkpt><trkpt lat="44.676026255177845" lon="10.820120250955231"><ele>44.0</ele><time>2026-04-24T11:20:55Z</time></trkpt><trkpt lat="44.67590005990491" lon="10.820488320492817"><ele>42.5</ele><time>2026-04-24T11:20:56Z</time></trkpt><trkpt lat="44.675773754890756" lon="10.820857858573916"><ele>41.0</ele><time>2026-04-24T11:20:57Z</time></trkpt><trkpt lat="44.67564669204302" lon="10.821225096705238"><ele>41.0</ele><time>2026-04-24T11:20:58Z</time></trkpt><trkpt lat="44.67551967164774" lon="10.821594747179569"><ele>41.0</ele><time>2026-04-24T11:20:59Z</time></trkpt><trkpt lat="44.67538980766948" lon="10.8219577114228"><ele>41.5</ele><time>2026-04-24T11:21:00Z</time></trkpt><trkpt lat="44.67525266074517" lon="10.822322033741644"><ele>42.0</ele><time>2026-04-24T11:21:01Z</time></trkpt><trkpt lat="44.67511662835911" lon="10.822683467453112"><ele>42.0</ele><time>2026-04-24T11:21:02Z</time></trkpt><trkpt lat="44.67498218418536" lon="10.823046337902511"><ele>42.0</ele><time>2026-04-24T11:21:03Z</time></trkpt><trkpt lat="44.67485490091486" lon="10.823416430780037"><ele>42.0</ele><time>2026-04-24T11:21:04Z</time></trkpt><trkpt lat="44.67472872767543" lon="10.82378132356203"><ele>42.0</ele><time>2026-04-24T11:21:05Z</time></trkpt><trkpt lat="44.67459847225698" lon="10.824151043777258"><ele>42.0</ele><time>2026-04-24T11:21:06Z</time></trkpt><trkpt lat="44.674468296992494" lon="10.824518818807485"><ele>42.0</ele><time>2026-04-24T11:21:07Z</time></trkpt><trkpt lat="44.67433915170135" lon="10.824884667714814"><ele>42.5</ele><time>2026-04-24T11:21:08Z</time></trkpt><trkpt lat="44.67421065979679" lon="10.825248140332166"><ele>43.0</ele><time>2026-04-24T11:21:09Z</time></trkpt><trkpt lat="44.67408191330066" lon="10.825622764476618"><ele>43.5</ele><time>2026-04-24T11:21:10Z</time></trkpt><trkpt lat="44.67395573825671" lon="10.825988917576503"><ele>44.0</ele><time>2026-04-24T11:21:11Z</time></trkpt><trkpt lat="44.67382715639747" lon="10.826357786298274"><ele>44.0</ele><time>2026-04-24T11:21:12Z</time></trkpt><trkpt lat="44.673697707589476" lon="10.82672329156129"><ele>44.0</ele><time>2026-04-24T11:21:13Z</time></trkpt><trkpt lat="44.673568334653545" lon="10.827092813560958"><ele>44.0</ele><time>2026-04-24T11:21:14Z</time></trkpt><trkpt lat="44.673441857357744" lon="10.827458691085257"><ele>44.0</ele><time>2026-04-24T11:21:15Z</time></trkpt><trkpt lat="44.67331420621484" lon="10.827826193543693"><ele>44.0</ele><time>2026-04-24T11:21:16Z</time></trkpt><trkpt lat="44.673184022164136" lon="10.828192490707355"><ele>44.0</ele><time>2026-04-24T11:21:17Z</time></trkpt><trkpt lat="44.67305451003377" lon="10.828558735125828"><ele>44.5</ele><time>2026-04-24T11:21:18Z</time></trkpt><trkpt lat="44.67292610370834" lon="10.828925725594592"><ele>45.0</ele><time>2026-04-24T11:21:19Z</time></trkpt><trkpt lat="44.672799253769725" lon="10.829297403066889"><ele>44.5</ele><time>2026-04-24T11:21:20Z</time></trkpt><trkpt lat="44.67267406503948" lon="10.829666046287008"><ele>44.0</ele><time>2026-04-24T11:21:21Z</time></trkpt><trkpt lat="44.67254902126751" lon="10.830036311768524"><ele>43.5</ele><time>2026-04-24T11:21:22Z</time></trkpt><trkpt lat="44.67242294021008" lon="10.8304044382037"><ele>43.0</ele><time>2026-04-24T11:21:23Z</time></trkpt><trkpt lat="44.67229505670623" lon="10.830772369919785"><ele>43.0</ele><time>2026-04-24T11:21:24Z</time></trkpt><trkpt lat="44.672168678769594" lon="10.831142282690712"><ele>43.0</ele><time>2026-04-24T11:21:25Z</time></trkpt><trkpt lat="44.672043702157744" lon="10.831513877200031"><ele>41.0</ele><time>2026-04-24T11:21:26Z</time></trkpt><trkpt lat="44.671924406610316" lon="10.831887133910044"><ele>39.0</ele><time>2026-04-24T11:21:27Z</time></trkpt><trkpt lat="44.67180404925247" lon="10.83225958919957"><ele>39.0</ele><time>2026-04-24T11:21:28Z</time></trkpt><trkpt lat="44.6716802804569" lon="10.832633991041718"><ele>39.0</ele><time>2026-04-24T11:21:29Z</time></trkpt><trkpt lat="44.6715531009519" lon="10.833002574262578"><ele>39.5</ele><time>2026-04-24T11:21:30Z</time></trkpt><trkpt lat="44.67142447572256" lon="10.833370672271343"><ele>40.0</ele><time>2026-04-24T11:21:31Z</time></trkpt><trkpt lat="44.6712958942936" lon="10.833738303891211"><ele>39.5</ele><time>2026-04-24T11:21:32Z</time></trkpt><trkpt lat="44.671167507629455" lon="10.834107126155791"><ele>39.0</ele><time>2026-04-24T11:21:33Z</time></trkpt><trkpt lat="44.671040344459804" lon="10.834469640350754"><ele>39.0</ele><time>2026-04-24T11:21:34Z</time></trkpt><trkpt lat="44.67091166155428" lon="10.834834318635352"><ele>39.0</ele><time>2026-04-24T11:21:35Z</time></trkpt><trkpt lat="44.6707837684533" lon="10.835199808966074"><ele>39.5</ele><time>2026-04-24T11:21:36Z</time></trkpt><trkpt lat="44.670654092637115" lon="10.835564998069144"><ele>40.0</ele><time>2026-04-24T11:21:37Z</time></trkpt><trkpt lat="44.67052243712061" lon="10.83593646076668"><ele>40.0</ele><time>2026-04-24T11:21:38Z</time></trkpt><trkpt lat="44.67039182291686" lon="10.836300050707308"><ele>40.0</ele><time>2026-04-24T11:21:39Z</time></trkpt><trkpt lat="44.67025881045483" lon="10.83666705870903"><ele>40.0</ele><time>2026-04-24T11:21:40Z</time></trkpt><trkpt lat="44.67012967168469" lon="10.837027546825668"><ele>40.0</ele><time>2026-04-24T11:21:41Z</time></trkpt><trkpt lat="44.66999771722033" lon="10.837394416867838"><ele>40.5</ele><time>2026-04-24T11:21:42Z</time></trkpt><trkpt lat="44.669870522443695" lon="10.837758009126604"><ele>41.0</ele><time>2026-04-24T11:21:43Z</time></trkpt><trkpt lat="44.66974042781676" lon="10.838125508448826"><ele>40.0</ele><time>2026-04-24T11:21:44Z</time></trkpt><trkpt lat="44.66961247323239" lon="10.838492186172932"><ele>39.0</ele><time>2026-04-24T11:21:45Z</time></trkpt><trkpt lat="44.669486986499734" lon="10.838858635954097"><ele>38.0</ele><time>2026-04-24T11:21:46Z</time></trkpt><trkpt lat="44.66935888662902" lon="10.839225399501574"><ele>37.0</ele><time>2026-04-24T11:21:47Z</time></trkpt><trkpt lat="44.66922929908704" lon="10.839594733883368"><ele>37.0</ele><time>2026-04-24T11:21:48Z</time></trkpt><trkpt lat="44.66910404239524" lon="10.839959136447224"><ele>37.0</ele><time>2026-04-24T11:21:49Z</time></trkpt><trkpt lat="44.66897558733103" lon="10.840326237032574"><ele>38.0</ele><time>2026-04-24T11:21:50Z</time></trkpt><trkpt lat="44.66884528191717" lon="10.840691152242918"><ele>39.0</ele><time>2026-04-24T11:21:51Z</time></trkpt><trkpt lat="44.668716395560054" lon="10.841052287556511"><ele>39.5</ele><time>2026-04-24T11:21:52Z</time></trkpt><trkpt lat="44.66858727302225" lon="10.841419447105357"><ele>40.0</ele><time>2026-04-24T11:21:53Z</time></trkpt><trkpt lat="44.66846150418772" lon="10.84178432943838"><ele>40.5</ele><time>2026-04-24T11:21:54Z</time></trkpt><trkpt lat="44.66833192977106" lon="10.842154916329541"><ele>41.0</ele><time>2026-04-24T11:21:55Z</time></trkpt><trkpt lat="44.66820042237744" lon="10.84252627764729"><ele>41.0</ele><time>2026-04-24T11:21:56Z</time></trkpt><trkpt lat="44.668073818812296" lon="10.842895316170647"><ele>41.0</ele><time>2026-04-24T11:21:57Z</time></trkpt><trkpt lat="44.66795506751748" lon="10.843256979041898"><ele>40.0</ele><time>2026-04-24T11:21:58Z</time></trkpt><trkpt lat="44.667825986708316" lon="10.843631497112838"><ele>39.0</ele><time>2026-04-24T11:21:59Z</time></trkpt><trkpt lat="44.66770357503098" lon="10.844000004323942"><ele>40.0</ele><time>2026-04-24T11:22:00Z</time></trkpt><trkpt lat="44.66757715863606" lon="10.844372436399984"><ele>41.0</ele><time>2026-04-24T11:22:01Z</time></trkpt><trkpt lat="44.667452800372494" lon="10.84473763025442"><ele>41.0</ele><time>2026-04-24T11:22:02Z</time></trkpt><trkpt lat="44.667318313813965" lon="10.84510605816915"><ele>41.0</ele><time>2026-04-24T11:22:03Z</time></trkpt><trkpt lat="44.66719093562789" lon="10.845472728260114"><ele>41.0</ele><time>2026-04-24T11:22:04Z</time></trkpt><trkpt lat="44.667063030057996" lon="10.845839985446757"><ele>41.0</ele><time>2026-04-24T11:22:05Z</time></trkpt><trkpt lat="44.666932085090245" lon="10.846208774720752"><ele>41.0</ele><time>2026-04-24T11:22:06Z</time></trkpt><trkpt lat="44.666803567871085" lon="10.846573598082289"><ele>41.0</ele><time>2026-04-24T11:22:07Z</time></trkpt><trkpt lat="44.666675065535806" lon="10.8469424266485"><ele>40.5</ele><time>2026-04-24T11:22:08Z</time></trkpt><trkpt lat="44.666551146427196" lon="10.847312046261434"><ele>40.0</ele><time>2026-04-24T11:22:09Z</time></trkpt><trkpt lat="44.6664259474792" lon="10.84768356113443"><ele>40.0</ele><time>2026-04-24T11:22:10Z</time></trkpt><trkpt lat="44.666300342195626" lon="10.84805429591672"><ele>40.0</ele><time>2026-04-24T11:22:11Z</time></trkpt><trkpt lat="44.66617078449512" lon="10.848422750117022"><ele>41.0</ele><time>2026-04-24T11:22:12Z</time></trkpt><trkpt lat="44.666043239325894" lon="10.848793565601312"><ele>42.0</ele><time>2026-04-24T11:22:13Z</time></trkpt><trkpt lat="44.66591693022296" lon="10.849162913049536"><ele>40.5</ele><time>2026-04-24T11:22:14Z</time></trkpt><trkpt lat="44.665789345773824" lon="10.849532068413373"><ele>39.0</ele><time>2026-04-24T11:22:15Z</time></trkpt><trkpt lat="44.66566037839578" lon="10.849898221909196"><ele>38.5</ele><time>2026-04-24T11:22:16Z</time></trkpt><trkpt lat="44.66553065719544" lon="10.850267999285894"><ele>38.0</ele><time>2026-04-24T11:22:17Z</time></trkpt><trkpt lat="44.66540281645176" lon="10.850632965131092"><ele>37.5</ele><time>2026-04-24T11:22:18Z</time></trkpt><trkpt lat="44.66526894627595" lon="10.851003473250074"><ele>37.0</ele><time>2026-04-24T11:22:19Z</time></trkpt><trkpt lat="44.66513471182952" lon="10.851362121931372"><ele>37.0</ele><time>2026-04-24T11:22:20Z</time></trkpt><trkpt lat="44.66499402334608" lon="10.851719622822548"><ele>37.0</ele><time>2026-04-24T11:22:21Z</time></trkpt><trkpt lat="44.664850268591344" lon="10.852067483720433"><ele>37.5</ele><time>2026-04-24T11:22:22Z</time></trkpt><trkpt lat="44.664698831468115" lon="10.852413578256812"><ele>38.0</ele><time>2026-04-24T11:22:23Z</time></trkpt><trkpt lat="44.6645377305354" lon="10.852761570447651"><ele>38.5</ele><time>2026-04-24T11:22:24Z</time></trkpt><trkpt lat="44.66437597546638" lon="10.853099246155312"><ele>39.0</ele><time>2026-04-24T11:22:25Z</time></trkpt><trkpt lat="44.66420948615837" lon="10.853438923120706"><ele>40.0</ele><time>2026-04-24T11:22:26Z</time></trkpt><trkpt lat="44.66403944231952" lon="10.853770400400757"><ele>41.0</ele><time>2026-04-24T11:22:27Z</time></trkpt><trkpt lat="44.66386162127161" lon="10.854096897439044"><ele>41.0</ele><time>2026-04-24T11:22:28Z</time></trkpt><trkpt lat="44.66368224861426" lon="10.85441999831736"><ele>41.0</ele><time>2026-04-24T11:22:29Z</time></trkpt><trkpt lat="44.663506427482076" lon="10.854741958390644"><ele>41.0</ele><time>2026-04-24T11:22:30Z</time></trkpt><trkpt lat="44.66332141818493" lon="10.855066094812042"><ele>41.0</ele><time>2026-04-24T11:22:31Z</time></trkpt><trkpt lat="44.663129068559655" lon="10.855378802014133"><ele>41.0</ele><time>2026-04-24T11:22:32Z</time></trkpt><trkpt lat="44.662928431770716" lon="10.855678097632632"><ele>41.0</ele><time>2026-04-24T11:22:33Z</time></trkpt><trkpt lat="44.6627216394251" lon="10.855967937404735"><ele>41.0</ele><time>2026-04-24T11:22:34Z</time></trkpt><trkpt lat="44.66251206350016" lon="10.856251047313684"><ele>41.0</ele><time>2026-04-24T11:22:35Z</time></trkpt><trkpt lat="44.662297742406295" lon="10.856528040692313"><ele>41.5</ele><time>2026-04-24T11:22:36Z</time></trkpt><trkpt lat="44.6620814470554" lon="10.856793420519736"><ele>42.0</ele><time>2026-04-24T11:22:37Z</time></trkpt><trkpt lat="44.66185760883942" lon="10.857052733351635"><ele>42.0</ele><time>2026-04-24T11:22:38Z</time></trkpt><trkpt lat="44.6616275746465" lon="10.857308404498314"><ele>42.0</ele><time>2026-04-24T11:22:39Z</time></trkpt><trkpt lat="44.66139895350209" lon="10.857567138714288"><ele>42.0</ele><time>2026-04-24T11:22:40Z</time></trkpt><trkpt lat="44.66117023894062" lon="10.857822591928405"><ele>42.0</ele><time>2026-04-24T11:22:41Z</time></trkpt><trkpt lat="44.66093623610138" lon="10.858069729812888"><ele>41.0</ele><time>2026-04-24T11:22:42Z</time></trkpt><trkpt lat="44.660699286517215" lon="10.858306582989739"><ele>40.0</ele><time>2026-04-24T11:22:43Z</time></trkpt><trkpt lat="44.66045623743635" lon="10.858535613555926"><ele>39.5</ele><time>2026-04-24T11:22:44Z</time></trkpt><trkpt lat="44.660210741272365" lon="10.858758897786814"><ele>39.0</ele><time>2026-04-24T11:22:45Z</time></trkpt><trkpt lat="44.659964176925016" lon="10.85897629674553"><ele>39.0</ele><time>2026-04-24T11:22:46Z</time></trkpt><trkpt lat="44.65971244756186" lon="10.859185206906405"><ele>39.0</ele><time>2026-04-24T11:22:47Z</time></trkpt><trkpt lat="44.65945769035411" lon="10.859383298387646"><ele>38.5</ele><time>2026-04-24T11:22:48Z</time></trkpt><trkpt lat="44.65920068937196" lon="10.859569647258693"><ele>38.0</ele><time>2026-04-24T11:22:49Z</time></trkpt><trkpt lat="44.658940075945495" lon="10.85975379411373"><ele>38.0</ele><time>2026-04-24T11:22:50Z</time></trkpt><trkpt lat="44.65867487382626" lon="10.859934869537978"><ele>38.0</ele><time>2026-04-24T11:22:51Z</time></trkpt><trkpt lat="44.65841087194252" lon="10.860105781486906"><ele>38.0</ele><time>2026-04-24T11:22:52Z</time></trkpt><trkpt lat="44.65814091535201" lon="10.860272506931306"><ele>38.0</ele><time>2026-04-24T11:22:53Z</time></trkpt><trkpt lat="44.65787286270729" lon="10.860432822002322"><ele>38.5</ele><time>2026-04-24T11:22:54Z</time></trkpt><trkpt lat="44.65760524663859" lon="10.860595458166737"><ele>39.0</ele><time>2026-04-24T11:22:55Z</time></trkpt><trkpt lat="44.657337832964465" lon="10.86075913725621"><ele>39.0</ele><time>2026-04-24T11:22:56Z</time></trkpt><trkpt lat="44.65706888800992" lon="10.860925596524813"><ele>39.0</ele><time>2026-04-24T11:22:57Z</time></trkpt><trkpt lat="44.656803178802775" lon="10.861089434212152"><ele>39.0</ele><time>2026-04-24T11:22:58Z</time></trkpt><trkpt lat="44.6565354051109" lon="10.861253066628255"><ele>39.0</ele><time>2026-04-24T11:22:59Z</time></trkpt><trkpt lat="44.65626671819972" lon="10.861415516063344"><ele>37.5</ele><time>2026-04-24T11:23:00Z</time></trkpt><trkpt lat="44.65600083083818" lon="10.861578294049018"><ele>36.0</ele><time>2026-04-24T11:23:01Z</time></trkpt><trkpt lat="44.655734293558254" lon="10.861742642748451"><ele>37.5</ele><time>2026-04-24T11:23:02Z</time></trkpt><trkpt lat="44.65546835480406" lon="10.86190465237162"><ele>39.0</ele><time>2026-04-24T11:23:03Z</time></trkpt><trkpt lat="44.65520405755664" lon="10.862066983128619"><ele>39.0</ele><time>2026-04-24T11:23:04Z</time></trkpt><trkpt lat="44.65493808194956" lon="10.862233921387828"><ele>39.0</ele><time>2026-04-24T11:23:05Z</time></trkpt><trkpt lat="44.65467227578526" lon="10.862400473685765"><ele>38.5</ele><time>2026-04-24T11:23:06Z</time></trkpt><trkpt lat="44.65440083184546" lon="10.86256675100468"><ele>38.0</ele><time>2026-04-24T11:23:07Z</time></trkpt><trkpt lat="44.65412988734231" lon="10.862728614487567"><ele>39.0</ele><time>2026-04-24T11:23:08Z</time></trkpt><trkpt lat="44.65386391699634" lon="10.862890271951018"><ele>40.0</ele><time>2026-04-24T11:23:09Z</time></trkpt><trkpt lat="44.653603610845366" lon="10.863048966043728"><ele>41.0</ele><time>2026-04-24T11:23:10Z</time></trkpt><trkpt lat="44.653349539137245" lon="10.863205700882"><ele>42.0</ele><time>2026-04-24T11:23:11Z</time></trkpt><trkpt lat="44.65310399488319" lon="10.863386198837453"><ele>40.5</ele><time>2026-04-24T11:23:12Z</time></trkpt><trkpt lat="44.652847966263074" lon="10.863562530275395"><ele>39.0</ele><time>2026-04-24T11:23:13Z</time></trkpt><trkpt lat="44.65258299704581" lon="10.863729187947339"><ele>37.5</ele><time>2026-04-24T11:23:14Z</time></trkpt><trkpt lat="44.65231206118402" lon="10.863892477647138"><ele>36.0</ele><time>2026-04-24T11:23:15Z</time></trkpt><trkpt lat="44.65203995515125" lon="10.864055137197118"><ele>35.0</ele><time>2026-04-24T11:23:16Z</time></trkpt><trkpt lat="44.65176760377856" lon="10.864219131505898"><ele>34.0</ele><time>2026-04-24T11:23:17Z</time></trkpt><trkpt lat="44.65149707025118" lon="10.86438825368484"><ele>34.0</ele><time>2026-04-24T11:23:18Z</time></trkpt><trkpt lat="44.651233869286365" lon="10.86455072276993"><ele>34.0</ele><time>2026-04-24T11:23:19Z</time></trkpt><trkpt lat="44.650971381519355" lon="10.86471241420169"><ele>33.0</ele><time>2026-04-24T11:23:20Z</time></trkpt><trkpt lat="44.650705153021846" lon="10.864876357400684"><ele>32.0</ele><time>2026-04-24T11:23:21Z</time></trkpt><trkpt lat="44.650437347779764" lon="10.865041267670286"><ele>35.5</ele><time>2026-04-24T11:23:22Z</time></trkpt><trkpt lat="44.650165259062355" lon="10.865205286842041"><ele>39.0</ele><time>2026-04-24T11:23:23Z</time></trkpt><trkpt lat="44.649892786155085" lon="10.865367955871886"><ele>39.0</ele><time>2026-04-24T11:23:24Z</time></trkpt><trkpt lat="44.64962205453723" lon="10.865527320085501"><ele>39.0</ele><time>2026-04-24T11:23:25Z</time></trkpt><trkpt lat="44.64934916550622" lon="10.865691040906503"><ele>40.5</ele><time>2026-04-24T11:23:26Z</time></trkpt><trkpt lat="44.649076998799075" lon="10.865860916523006"><ele>42.0</ele><time>2026-04-24T11:23:27Z</time></trkpt><trkpt lat="44.64880559627866" lon="10.866030250941428"><ele>41.0</ele><time>2026-04-24T11:23:28Z</time></trkpt><trkpt lat="44.648535473567435" lon="10.866195866361583"><ele>40.0</ele><time>2026-04-24T11:23:29Z</time></trkpt><trkpt lat="44.6482671665684" lon="10.866362212977297"><ele>40.0</ele><time>2026-04-24T11:23:30Z</time></trkpt><trkpt lat="44.64799585481563" lon="10.866529166136274"><ele>40.0</ele><time>2026-04-24T11:23:31Z</time></trkpt><trkpt lat="44.64772783485213" lon="10.866692049923033"><ele>39.5</ele><time>2026-04-24T11:23:32Z</time></trkpt><trkpt lat="44.64745626769389" lon="10.866859900957094"><ele>39.0</ele><time>2026-04-24T11:23:33Z</time></trkpt><trkpt lat="44.64718719537365" lon="10.867027365180011"><ele>40.5</ele><time>2026-04-24T11:23:34Z</time></trkpt><trkpt lat="44.64691605583203" lon="10.867193541538187"><ele>42.0</ele><time>2026-04-24T11:23:35Z</time></trkpt><trkpt lat="44.6466459618765" lon="10.86735446279013"><ele>42.0</ele><time>2026-04-24T11:23:36Z</time></trkpt><trkpt lat="44.64637436532962" lon="10.867514400589636"><ele>42.0</ele><time>2026-04-24T11:23:37Z</time></trkpt><trkpt lat="44.646103469587" lon="10.867678844557194"><ele>43.0</ele><time>2026-04-24T11:23:38Z</time></trkpt><trkpt lat="44.64583170382865" lon="10.867846599004189"><ele>44.0</ele><time>2026-04-24T11:23:39Z</time></trkpt><trkpt lat="44.645560488820685" lon="10.86801423924665"><ele>42.5</ele><time>2026-04-24T11:23:40Z</time></trkpt><trkpt lat="44.64528913499189" lon="10.868181731709493"><ele>41.0</ele><time>2026-04-24T11:23:41Z</time></trkpt><trkpt lat="44.645020792063974" lon="10.86834947968517"><ele>40.0</ele><time>2026-04-24T11:23:42Z</time></trkpt><trkpt lat="44.64475366208424" lon="10.868516311416862"><ele>39.0</ele><time>2026-04-24T11:23:43Z</time></trkpt><trkpt lat="44.644483813217796" lon="10.868684954196972"><ele>40.5</ele><time>2026-04-24T11:23:44Z</time></trkpt><trkpt lat="44.64421280712136" lon="10.86885439748524"><ele>42.0</ele><time>2026-04-24T11:23:45Z</time></trkpt><trkpt lat="44.64394434575575" lon="10.869020663918697"><ele>42.0</ele><time>2026-04-24T11:23:46Z</time></trkpt><trkpt lat="44.64367394450525" lon="10.869190571301406"><ele>42.0</ele><time>2026-04-24T11:23:47Z</time></trkpt><trkpt lat="44.64340342293542" lon="10.869354658629913"><ele>40.0</ele><time>2026-04-24T11:23:48Z</time></trkpt><trkpt lat="44.6431293411894" lon="10.869518352391186"><ele>38.0</ele><time>2026-04-24T11:23:49Z</time></trkpt><trkpt lat="44.6428573531242" lon="10.869678155182395"><ele>38.5</ele><time>2026-04-24T11:23:50Z</time></trkpt><trkpt lat="44.64258439128008" lon="10.869832966652016"><ele>39.0</ele><time>2026-04-24T11:23:51Z</time></trkpt><trkpt lat="44.64230708676255" lon="10.869984021697316"><ele>39.0</ele><time>2026-04-24T11:23:52Z</time></trkpt><trkpt lat="44.64203370097444" lon="10.870137851204358"><ele>39.0</ele><time>2026-04-24T11:23:53Z</time></trkpt><trkpt lat="44.64176143219562" lon="10.870299474368744"><ele>39.0</ele><time>2026-04-24T11:23:54Z</time></trkpt><trkpt lat="44.64149463509062" lon="10.870462729065556"><ele>39.0</ele><time>2026-04-24T11:23:55Z</time></trkpt><trkpt lat="44.641224053901084" lon="10.870629148325337"><ele>38.0</ele><time>2026-04-24T11:23:56Z</time></trkpt><trkpt lat="44.640954202415934" lon="10.87079435447627"><ele>37.0</ele><time>2026-04-24T11:23:57Z</time></trkpt><trkpt lat="44.64068371865796" lon="10.870962961865956"><ele>37.0</ele><time>2026-04-24T11:23:58Z</time></trkpt><trkpt lat="44.64041602938456" lon="10.871128436438322"><ele>37.0</ele><time>2026-04-24T11:23:59Z</time></trkpt><trkpt lat="44.64014546413956" lon="10.871294907517541"><ele>37.0</ele><time>2026-04-24T11:24:00Z</time></trkpt><trkpt lat="44.63987543160463" lon="10.871459064196353"><ele>37.0</ele><time>2026-04-24T11:24:01Z</time></trkpt><trkpt lat="44.63960640249605" lon="10.871622514357309"><ele>38.0</ele><time>2026-04-24T11:24:02Z</time></trkpt><trkpt lat="44.63933834197242" lon="10.871787839454393"><ele>39.0</ele><time>2026-04-24T11:24:03Z</time></trkpt><trkpt lat="44.63907081322684" lon="10.871951148926208"><ele>39.0</ele><time>2026-04-24T11:24:04Z</time></trkpt><trkpt lat="44.63880254929658" lon="10.872115203857694"><ele>39.0</ele><time>2026-04-24T11:24:05Z</time></trkpt><trkpt lat="44.63853449878486" lon="10.872279355242139"><ele>39.5</ele><time>2026-04-24T11:24:06Z</time></trkpt><trkpt lat="44.638264650615774" lon="10.872445796627003"><ele>40.0</ele><time>2026-04-24T11:24:07Z</time></trkpt><trkpt lat="44.63799525550176" lon="10.872613471582318"><ele>40.5</ele><time>2026-04-24T11:24:08Z</time></trkpt><trkpt lat="44.63772473134939" lon="10.872779373209811"><ele>41.0</ele><time>2026-04-24T11:24:09Z</time></trkpt><trkpt lat="44.637453141961004" lon="10.872944288207314"><ele>41.0</ele><time>2026-04-24T11:24:10Z</time></trkpt><trkpt lat="44.63718537127592" lon="10.873106404577985"><ele>41.0</ele><time>2026-04-24T11:24:11Z</time></trkpt><trkpt lat="44.63691646324011" lon="10.873268298670476"><ele>41.0</ele><time>2026-04-24T11:24:12Z</time></trkpt><trkpt lat="44.6366453912959" lon="10.873432213805776"><ele>41.0</ele><time>2026-04-24T11:24:13Z</time></trkpt><trkpt lat="44.636373594055364" lon="10.873595961421149"><ele>41.5</ele><time>2026-04-24T11:24:14Z</time></trkpt><trkpt lat="44.636105168418275" lon="10.873761562600789"><ele>42.0</ele><time>2026-04-24T11:24:15Z</time></trkpt><trkpt lat="44.63583220222163" lon="10.87392664913565"><ele>42.0</ele><time>2026-04-24T11:24:16Z</time></trkpt><trkpt lat="44.63556351795066" lon="10.874089522713044"><ele>42.0</ele><time>2026-04-24T11:24:17Z</time></trkpt><trkpt lat="44.6352906884958" lon="10.874251662861584"><ele>42.0</ele><time>2026-04-24T11:24:18Z</time></trkpt><trkpt lat="44.63502260405111" lon="10.874417565732934"><ele>42.0</ele><time>2026-04-24T11:24:19Z</time></trkpt><trkpt lat="44.63475338136411" lon="10.874588011087702"><ele>42.0</ele><time>2026-04-24T11:24:20Z</time></trkpt><trkpt lat="44.634485835057205" lon="10.874757730237167"><ele>42.0</ele><time>2026-04-24T11:24:21Z</time></trkpt><trkpt lat="44.63421603612309" lon="10.874926070360079"><ele>41.0</ele><time>2026-04-24T11:24:22Z</time></trkpt><trkpt lat="44.63394411571395" lon="10.875093043166773"><ele>40.0</ele><time>2026-04-24T11:24:23Z</time></trkpt><trkpt lat="44.63367604046226" lon="10.875254746558815"><ele>40.0</ele><time>2026-04-24T11:24:24Z</time></trkpt><trkpt lat="44.633406709521886" lon="10.875415718986572"><ele>40.0</ele><time>2026-04-24T11:24:25Z</time></trkpt><trkpt lat="44.633138326021495" lon="10.875579253730224"><ele>40.0</ele><time>2026-04-24T11:24:26Z</time></trkpt><trkpt lat="44.63286710565165" lon="10.875745610945302"><ele>40.0</ele><time>2026-04-24T11:24:27Z</time></trkpt><trkpt lat="44.632594021740324" lon="10.8759132630882"><ele>41.0</ele><time>2026-04-24T11:24:28Z</time></trkpt><trkpt lat="44.63232497061828" lon="10.876077964851243"><ele>42.0</ele><time>2026-04-24T11:24:29Z</time></trkpt><trkpt lat="44.63205360921505" lon="10.876240790842985"><ele>42.5</ele><time>2026-04-24T11:24:30Z</time></trkpt><trkpt lat="44.63178212728084" lon="10.876403855241646"><ele>43.0</ele><time>2026-04-24T11:24:31Z</time></trkpt><trkpt lat="44.63151218550733" lon="10.87656964762448"><ele>43.0</ele><time>2026-04-24T11:24:32Z</time></trkpt><trkpt lat="44.63124605487147" lon="10.876734291442627"><ele>43.0</ele><time>2026-04-24T11:24:33Z</time></trkpt><trkpt lat="44.63097662446008" lon="10.87690116973322"><ele>41.5</ele><time>2026-04-24T11:24:34Z</time></trkpt><trkpt lat="44.63070626547335" lon="10.877068094930545"><ele>40.0</ele><time>2026-04-24T11:24:35Z</time></trkpt><trkpt lat="44.63043611872845" lon="10.877233473115913"><ele>40.0</ele><time>2026-04-24T11:24:36Z</time></trkpt><trkpt lat="44.63016561401587" lon="10.877397448607065"><ele>40.0</ele><time>2026-04-24T11:24:37Z</time></trkpt><trkpt lat="44.629894915784114" lon="10.877563516220649"><ele>40.0</ele><time>2026-04-24T11:24:38Z</time></trkpt><trkpt lat="44.62962275444115" lon="10.87772852884113"><ele>40.0</ele><time>2026-04-24T11:24:39Z</time></trkpt><trkpt lat="44.62935266058285" lon="10.877891779051724"><ele>43.5</ele><time>2026-04-24T11:24:40Z</time></trkpt><trkpt lat="44.62907892617885" lon="10.878057988519757"><ele>47.0</ele><time>2026-04-24T11:24:41Z</time></trkpt><trkpt lat="44.62881061282951" lon="10.878222493914894"><ele>46.5</ele><time>2026-04-24T11:24:42Z</time></trkpt><trkpt lat="44.628541643040606" lon="10.878387752563334"><ele>46.0</ele><time>2026-04-24T11:24:43Z</time></trkpt><trkpt lat="44.628268713343815" lon="10.878548379949237"><ele>45.5</ele><time>2026-04-24T11:24:44Z</time></trkpt><trkpt lat="44.62799933752558" lon="10.878722271156873"><ele>45.0</ele><time>2026-04-24T11:24:45Z</time></trkpt><trkpt lat="44.62773577828629" lon="10.878883764593827"><ele>44.0</ele><time>2026-04-24T11:24:46Z</time></trkpt><trkpt lat="44.62746845946047" lon="10.879053005399962"><ele>43.0</ele><time>2026-04-24T11:24:47Z</time></trkpt><trkpt lat="44.627196438596215" lon="10.879219706406356"><ele>43.0</ele><time>2026-04-24T11:24:48Z</time></trkpt><trkpt lat="44.6269292742" lon="10.879385954373072"><ele>43.0</ele><time>2026-04-24T11:24:49Z</time></trkpt><trkpt lat="44.62665968842618" lon="10.879551189881148"><ele>43.0</ele><time>2026-04-24T11:24:50Z</time></trkpt><trkpt lat="44.62638873702511" lon="10.879714920787617"><ele>43.0</ele><time>2026-04-24T11:24:51Z</time></trkpt><trkpt lat="44.626115136322554" lon="10.879878409766588"><ele>43.5</ele><time>2026-04-24T11:24:52Z</time></trkpt><trkpt lat="44.62584432743409" lon="10.88004271753022"><ele>44.0</ele><time>2026-04-24T11:24:53Z</time></trkpt><trkpt lat="44.62557364672884" lon="10.880207740178799"><ele>43.5</ele><time>2026-04-24T11:24:54Z</time></trkpt><trkpt lat="44.62530648622822" lon="10.8803733953801"><ele>43.0</ele><time>2026-04-24T11:24:55Z</time></trkpt><trkpt lat="44.625034921847785" lon="10.880536740007498"><ele>43.0</ele><time>2026-04-24T11:24:56Z</time></trkpt><trkpt lat="44.62476154459018" lon="10.880697928515609"><ele>43.0</ele><time>2026-04-24T11:24:57Z</time></trkpt><trkpt lat="44.624492695627545" lon="10.880862694187424"><ele>43.0</ele><time>2026-04-24T11:24:58Z</time></trkpt><trkpt lat="44.62422361950167" lon="10.881026935643392"><ele>43.0</ele><time>2026-04-24T11:24:59Z</time></trkpt><trkpt lat="44.623957047369096" lon="10.881194784555904"><ele>43.0</ele><time>2026-04-24T11:25:00Z</time></trkpt><trkpt lat="44.623688360985874" lon="10.881365448273824"><ele>43.0</ele><time>2026-04-24T11:25:01Z</time></trkpt><trkpt lat="44.623419828580396" lon="10.881535465846667"><ele>43.0</ele><time>2026-04-24T11:25:02Z</time></trkpt><trkpt lat="44.6231493222941" lon="10.881702798902252"><ele>43.0</ele><time>2026-04-24T11:25:03Z</time></trkpt><trkpt lat="44.622882203479826" lon="10.881870348241858"><ele>44.0</ele><time>2026-04-24T11:25:04Z</time></trkpt><trkpt lat="44.62261335077091" lon="10.8820355753936"><ele>45.0</ele><time>2026-04-24T11:25:05Z</time></trkpt><trkpt lat="44.6223417057723" lon="10.882197791771755"><ele>45.0</ele><time>2026-04-24T11:25:06Z</time></trkpt><trkpt lat="44.622069859931834" lon="10.882358506911418"><ele>45.0</ele><time>2026-04-24T11:25:07Z</time></trkpt><trkpt lat="44.62179797721206" lon="10.88252066228994"><ele>45.5</ele><time>2026-04-24T11:25:08Z</time></trkpt><trkpt lat="44.62152794204619" lon="10.882688534482043"><ele>46.0</ele><time>2026-04-24T11:25:09Z</time></trkpt><trkpt lat="44.62126507585382" lon="10.882865793533282"><ele>46.5</ele><time>2026-04-24T11:25:10Z</time></trkpt><trkpt lat="44.621004338839406" lon="10.883055640941134"><ele>47.0</ele><time>2026-04-24T11:25:11Z</time></trkpt><trkpt lat="44.62073848231322" lon="10.883267276964308"><ele>45.5</ele><time>2026-04-24T11:25:12Z</time></trkpt><trkpt lat="44.62049772752847" lon="10.883476098653665"><ele>44.0</ele><time>2026-04-24T11:25:13Z</time></trkpt><trkpt lat="44.620250538685895" lon="10.883701079824464"><ele>43.5</ele><time>2026-04-24T11:25:14Z</time></trkpt><trkpt lat="44.62000495674398" lon="10.883935130927979"><ele>43.0</ele><time>2026-04-24T11:25:15Z</time></trkpt><trkpt lat="44.619765070523584" lon="10.884176058797907"><ele>42.5</ele><time>2026-04-24T11:25:16Z</time></trkpt><trkpt lat="44.61953241425178" lon="10.884418610105698"><ele>42.0</ele><time>2026-04-24T11:25:17Z</time></trkpt><trkpt lat="44.61930148690172" lon="10.884669071202254"><ele>43.0</ele><time>2026-04-24T11:25:18Z</time></trkpt><trkpt lat="44.61907544282657" lon="10.884925283292933"><ele>44.0</ele><time>2026-04-24T11:25:19Z</time></trkpt><trkpt lat="44.61885335125136" lon="10.885191208486024"><ele>46.5</ele><time>2026-04-24T11:25:20Z</time></trkpt><trkpt lat="44.61863585610784" lon="10.885465779684136"><ele>49.0</ele><time>2026-04-24T11:25:21Z</time></trkpt><trkpt lat="44.61842360719006" lon="10.885750669929823"><ele>47.5</ele><time>2026-04-24T11:25:22Z</time></trkpt><trkpt lat="44.618217488290234" lon="10.88604516849235"><ele>46.0</ele><time>2026-04-24T11:25:23Z</time></trkpt><trkpt lat="44.61801415194776" lon="10.886348937977973"><ele>46.0</ele><time>2026-04-24T11:25:24Z</time></trkpt><trkpt lat="44.61781645055875" lon="10.886654608977198"><ele>46.0</ele><time>2026-04-24T11:25:25Z</time></trkpt><trkpt lat="44.617619851086566" lon="10.886970096302939"><ele>45.5</ele><time>2026-04-24T11:25:26Z</time></trkpt><trkpt lat="44.617432481485714" lon="10.887288844686754"><ele>45.0</ele><time>2026-04-24T11:25:27Z</time></trkpt><trkpt lat="44.61725045933313" lon="10.887619382453842"><ele>45.0</ele><time>2026-04-24T11:25:28Z</time></trkpt><trkpt lat="44.61707950001348" lon="10.887950387427974"><ele>45.0</ele><time>2026-04-24T11:25:29Z</time></trkpt><trkpt lat="44.61691213282823" lon="10.888288579237193"><ele>46.0</ele><time>2026-04-24T11:25:30Z</time></trkpt><trkpt lat="44.61674954158906" lon="10.888633549912784"><ele>47.0</ele><time>2026-04-24T11:25:31Z</time></trkpt><trkpt lat="44.61659422696316" lon="10.888985067152047"><ele>45.5</ele><time>2026-04-24T11:25:32Z</time></trkpt><trkpt lat="44.61644339268958" lon="10.889345009915582"><ele>44.0</ele><time>2026-04-24T11:25:33Z</time></trkpt><trkpt lat="44.61630016195697" lon="10.88969721486793"><ele>45.5</ele><time>2026-04-24T11:25:34Z</time></trkpt><trkpt lat="44.61615076462952" lon="10.890057629250327"><ele>47.0</ele><time>2026-04-24T11:25:35Z</time></trkpt><trkpt lat="44.615999447963155" lon="10.890411768632282"><ele>47.0</ele><time>2026-04-24T11:25:36Z</time></trkpt><trkpt lat="44.61584723348456" lon="10.890765300416758"><ele>47.0</ele><time>2026-04-24T11:25:37Z</time></trkpt><trkpt lat="44.61569603932365" lon="10.89111502240106"><ele>46.5</ele><time>2026-04-24T11:25:38Z</time></trkpt><trkpt lat="44.615544658099786" lon="10.891467847889206"><ele>46.0</ele><time>2026-04-24T11:25:39Z</time></trkpt><trkpt lat="44.615392604624894" lon="10.89181919076738"><ele>46.5</ele><time>2026-04-24T11:25:40Z</time></trkpt><trkpt lat="44.61524081040034" lon="10.892171386315713"><ele>47.0</ele><time>2026-04-24T11:25:41Z</time></trkpt><trkpt lat="44.61508762783625" lon="10.892527527868918"><ele>46.0</ele><time>2026-04-24T11:25:42Z</time></trkpt><trkpt lat="44.61493657929297" lon="10.892882886979322"><ele>45.0</ele><time>2026-04-24T11:25:43Z</time></trkpt><trkpt lat="44.614787101625396" lon="10.893238707044281"><ele>45.0</ele><time>2026-04-24T11:25:44Z</time></trkpt><trkpt lat="44.61463693347321" lon="10.893596964347266"><ele>45.0</ele><time>2026-04-24T11:25:45Z</time></trkpt><trkpt lat="44.614487272587034" lon="10.89394915669373"><ele>44.5</ele><time>2026-04-24T11:25:46Z</time></trkpt><trkpt lat="44.61433575533378" lon="10.894303026398426"><ele>44.0</ele><time>2026-04-24T11:25:47Z</time></trkpt><trkpt lat="44.61418283041252" lon="10.894657795432131"><ele>44.0</ele><time>2026-04-24T11:25:48Z</time></trkpt><trkpt lat="44.61403072012236" lon="10.895011926135428"><ele>44.0</ele><time>2026-04-24T11:25:49Z</time></trkpt><trkpt lat="44.61387953446977" lon="10.89536713380137"><ele>43.5</ele><time>2026-04-24T11:25:50Z</time></trkpt><trkpt lat="44.613729183719514" lon="10.895719964321396"><ele>43.0</ele><time>2026-04-24T11:25:51Z</time></trkpt><trkpt lat="44.61357869547997" lon="10.896075229893329"><ele>43.5</ele><time>2026-04-24T11:25:52Z</time></trkpt><trkpt lat="44.61342844429443" lon="10.896430579592403"><ele>44.0</ele><time>2026-04-24T11:25:53Z</time></trkpt><trkpt lat="44.61327874309169" lon="10.896788784577243"><ele>44.0</ele><time>2026-04-24T11:25:54Z</time></trkpt><trkpt lat="44.613131174476244" lon="10.897143081432123"><ele>44.0</ele><time>2026-04-24T11:25:55Z</time></trkpt><trkpt lat="44.61298022607266" lon="10.897499837981842"><ele>44.0</ele><time>2026-04-24T11:25:56Z</time></trkpt><trkpt lat="44.6128285338264" lon="10.897852211420018"><ele>44.0</ele><time>2026-04-24T11:25:57Z</time></trkpt><trkpt lat="44.612676089764115" lon="10.898205023090194"><ele>44.0</ele><time>2026-04-24T11:25:58Z</time></trkpt><trkpt lat="44.61252210546539" lon="10.898558904955507"><ele>44.0</ele><time>2026-04-24T11:25:59Z</time></trkpt><trkpt lat="44.612370696447506" lon="10.898911216099297"><ele>43.5</ele><time>2026-04-24T11:26:00Z</time></trkpt><trkpt lat="44.61222034977106" lon="10.899263038633961"><ele>43.0</ele><time>2026-04-24T11:26:01Z</time></trkpt><trkpt lat="44.612070065958264" lon="10.899617235472455"><ele>43.0</ele><time>2026-04-24T11:26:02Z</time></trkpt><trkpt lat="44.611919202305074" lon="10.89997277540297"><ele>43.0</ele><time>2026-04-24T11:26:03Z</time></trkpt><trkpt lat="44.61176692559204" lon="10.900328291486293"><ele>43.0</ele><time>2026-04-24T11:26:04Z</time></trkpt><trkpt lat="44.611615530489" lon="10.900682921149436"><ele>43.0</ele><time>2026-04-24T11:26:05Z</time></trkpt><trkpt lat="44.61146597050541" lon="10.901038136847545"><ele>43.0</ele><time>2026-04-24T11:26:06Z</time></trkpt><trkpt lat="44.611318091694976" lon="10.901389813463819"><ele>43.0</ele><time>2026-04-24T11:26:07Z</time></trkpt><trkpt lat="44.61116582319317" lon="10.901745197397972"><ele>42.0</ele><time>2026-04-24T11:26:08Z</time></trkpt><trkpt lat="44.61101135657303" lon="10.9020981738807"><ele>41.0</ele><time>2026-04-24T11:26:09Z</time></trkpt><trkpt lat="44.61085929294568" lon="10.902451784140107"><ele>41.5</ele><time>2026-04-24T11:26:10Z</time></trkpt><trkpt lat="44.61070864606827" lon="10.902804851699265"><ele>42.0</ele><time>2026-04-24T11:26:11Z</time></trkpt><trkpt lat="44.61055925330242" lon="10.903156679798697"><ele>42.0</ele><time>2026-04-24T11:26:12Z</time></trkpt><trkpt lat="44.61040942376141" lon="10.90350891732014"><ele>42.0</ele><time>2026-04-24T11:26:13Z</time></trkpt><trkpt lat="44.610260067833934" lon="10.903854762837462"><ele>42.0</ele><time>2026-04-24T11:26:14Z</time></trkpt><trkpt lat="44.610108346619946" lon="10.904209010172496"><ele>42.0</ele><time>2026-04-24T11:26:15Z</time></trkpt><trkpt lat="44.60995861080293" lon="10.904557461576433"><ele>41.5</ele><time>2026-04-24T11:26:16Z</time></trkpt><trkpt lat="44.60980756650611" lon="10.904914765329844"><ele>41.0</ele><time>2026-04-24T11:26:17Z</time></trkpt><trkpt lat="44.609657064838174" lon="10.905271119158117"><ele>41.0</ele><time>2026-04-24T11:26:18Z</time></trkpt><trkpt lat="44.60950837091796" lon="10.905624573239384"><ele>41.0</ele><time>2026-04-24T11:26:19Z</time></trkpt><trkpt lat="44.60935933125469" lon="10.905977560720698"><ele>40.0</ele><time>2026-04-24T11:26:20Z</time></trkpt><trkpt lat="44.60920947278598" lon="10.906331652793593"><ele>39.0</ele><time>2026-04-24T11:26:21Z</time></trkpt><trkpt lat="44.60905946272072" lon="10.9066840613913"><ele>40.0</ele><time>2026-04-24T11:26:22Z</time></trkpt><trkpt lat="44.608907953819426" lon="10.907037914076298"><ele>41.0</ele><time>2026-04-24T11:26:23Z</time></trkpt><trkpt lat="44.60875826290359" lon="10.907389096372464"><ele>41.5</ele><time>2026-04-24T11:26:24Z</time></trkpt><trkpt lat="44.60860473326614" lon="10.907744419015884"><ele>42.0</ele><time>2026-04-24T11:26:25Z</time></trkpt><trkpt lat="44.60845238896489" lon="10.908102011721594"><ele>41.0</ele><time>2026-04-24T11:26:26Z</time></trkpt><trkpt lat="44.60830179944902" lon="10.90845502550534"><ele>40.0</ele><time>2026-04-24T11:26:27Z</time></trkpt><trkpt lat="44.60814884273855" lon="10.908807197280886"><ele>40.0</ele><time>2026-04-24T11:26:28Z</time></trkpt><trkpt lat="44.608001370180084" lon="10.909160679784764"><ele>40.0</ele><time>2026-04-24T11:26:29Z</time></trkpt><trkpt lat="44.60785303843944" lon="10.909515997847713"><ele>40.0</ele><time>2026-04-24T11:26:30Z</time></trkpt><trkpt lat="44.60770039083041" lon="10.909870509145028"><ele>40.0</ele><time>2026-04-24T11:26:31Z</time></trkpt><trkpt lat="44.607544250483286" lon="10.910220413776859"><ele>40.0</ele><time>2026-04-24T11:26:32Z</time></trkpt><trkpt lat="44.607388448792015" lon="10.910570681585725"><ele>40.0</ele><time>2026-04-24T11:26:33Z</time></trkpt><trkpt lat="44.607234453015394" lon="10.910924588218192"><ele>39.5</ele><time>2026-04-24T11:26:34Z</time></trkpt><trkpt lat="44.6070850703409" lon="10.911278717123736"><ele>39.0</ele><time>2026-04-24T11:26:35Z</time></trkpt><trkpt lat="44.60693386435682" lon="10.911636271862744"><ele>39.5</ele><time>2026-04-24T11:26:36Z</time></trkpt><trkpt lat="44.606786385556084" lon="10.911987433348576"><ele>40.0</ele><time>2026-04-24T11:26:37Z</time></trkpt><trkpt lat="44.60663442823719" lon="10.912344535076185"><ele>39.5</ele><time>2026-04-24T11:26:38Z</time></trkpt><trkpt lat="44.60648511713456" lon="10.912698883318134"><ele>39.0</ele><time>2026-04-24T11:26:39Z</time></trkpt><trkpt lat="44.60633522324027" lon="10.913050222452547"><ele>39.0</ele><time>2026-04-24T11:26:40Z</time></trkpt><trkpt lat="44.60618373116209" lon="10.913402357893487"><ele>39.0</ele><time>2026-04-24T11:26:41Z</time></trkpt><trkpt lat="44.60602993306931" lon="10.913755777803587"><ele>39.5</ele><time>2026-04-24T11:26:42Z</time></trkpt><trkpt lat="44.6058761956035" lon="10.914107156608445"><ele>40.0</ele><time>2026-04-24T11:26:43Z</time></trkpt><trkpt lat="44.60572421269502" lon="10.914458077546492"><ele>40.0</ele><time>2026-04-24T11:26:44Z</time></trkpt><trkpt lat="44.60557423824938" lon="10.91480865658796"><ele>40.0</ele><time>2026-04-24T11:26:45Z</time></trkpt><trkpt lat="44.60542517729469" lon="10.915164623482038"><ele>41.0</ele><time>2026-04-24T11:26:46Z</time></trkpt><trkpt lat="44.60527482088015" lon="10.915519196304082"><ele>42.0</ele><time>2026-04-24T11:26:47Z</time></trkpt><trkpt lat="44.60512226646357" lon="10.915877063158568"><ele>41.0</ele><time>2026-04-24T11:26:48Z</time></trkpt><trkpt lat="44.60497486112918" lon="10.916228167364327"><ele>40.0</ele><time>2026-04-24T11:26:49Z</time></trkpt><trkpt lat="44.60482305971085" lon="10.916582493160233"><ele>39.0</ele><time>2026-04-24T11:26:50Z</time></trkpt><trkpt lat="44.60467157375383" lon="10.91693642130324"><ele>38.0</ele><time>2026-04-24T11:26:51Z</time></trkpt><trkpt lat="44.604520998135136" lon="10.917288481827612"><ele>39.5</ele><time>2026-04-24T11:26:52Z</time></trkpt><trkpt lat="44.60436901736982" lon="10.917643726346784"><ele>41.0</ele><time>2026-04-24T11:26:53Z</time></trkpt><trkpt lat="44.60421801676657" lon="10.917998080351978"><ele>41.0</ele><time>2026-04-24T11:26:54Z</time></trkpt><trkpt lat="44.604067830293445" lon="10.918355256302773"><ele>41.0</ele><time>2026-04-24T11:26:55Z</time></trkpt><trkpt lat="44.60391868973769" lon="10.918711782527414"><ele>41.0</ele><time>2026-04-24T11:26:56Z</time></trkpt><trkpt lat="44.60376834784057" lon="10.919066331790253"><ele>41.0</ele><time>2026-04-24T11:26:57Z</time></trkpt><trkpt lat="44.603617038381145" lon="10.919418695518857"><ele>41.0</ele><time>2026-04-24T11:26:58Z</time></trkpt><trkpt lat="44.603465582932834" lon="10.919768774747448"><ele>41.0</ele><time>2026-04-24T11:26:59Z</time></trkpt><trkpt lat="44.60331255471481" lon="10.920122848392184"><ele>41.5</ele><time>2026-04-24T11:27:00Z</time></trkpt><trkpt lat="44.60316183264932" lon="10.920474879209047"><ele>42.0</ele><time>2026-04-24T11:27:01Z</time></trkpt><trkpt lat="44.603008502401146" lon="10.920829145455746"><ele>41.5</ele><time>2026-04-24T11:27:02Z</time></trkpt><trkpt lat="44.602855321638316" lon="10.921181635963276"><ele>41.0</ele><time>2026-04-24T11:27:03Z</time></trkpt><trkpt lat="44.60270280540377" lon="10.92153274897064"><ele>40.5</ele><time>2026-04-24T11:27:04Z</time></trkpt><trkpt lat="44.60255095224285" lon="10.921888532286005"><ele>40.0</ele><time>2026-04-24T11:27:05Z</time></trkpt><trkpt lat="44.60240176657626" lon="10.922242324733388"><ele>40.0</ele><time>2026-04-24T11:27:06Z</time></trkpt><trkpt lat="44.602250953003555" lon="10.922600511395707"><ele>40.0</ele><time>2026-04-24T11:27:07Z</time></trkpt><trkpt lat="44.60210302217182" lon="10.922954855067088"><ele>40.0</ele><time>2026-04-24T11:27:08Z</time></trkpt><trkpt lat="44.60195231378829" lon="10.923311490815689"><ele>40.0</ele><time>2026-04-24T11:27:09Z</time></trkpt><trkpt lat="44.60179945310996" lon="10.92366823937713"><ele>39.5</ele><time>2026-04-24T11:27:10Z</time></trkpt><trkpt lat="44.60164698538911" lon="10.924023723884664"><ele>39.0</ele><time>2026-04-24T11:27:11Z</time></trkpt><trkpt lat="44.60149622362718" lon="10.924378486427432"><ele>40.0</ele><time>2026-04-24T11:27:12Z</time></trkpt><trkpt lat="44.601344664363225" lon="10.92473586146696"><ele>41.0</ele><time>2026-04-24T11:27:13Z</time></trkpt><trkpt lat="44.60119567183788" lon="10.925090029069079"><ele>41.0</ele><time>2026-04-24T11:27:14Z</time></trkpt><trkpt lat="44.60104716246027" lon="10.925445057106506"><ele>41.0</ele><time>2026-04-24T11:27:15Z</time></trkpt><trkpt lat="44.600897264431545" lon="10.925800083004091"><ele>41.0</ele><time>2026-04-24T11:27:16Z</time></trkpt><trkpt lat="44.60074486252205" lon="10.926154356623403"><ele>41.0</ele><time>2026-04-24T11:27:17Z</time></trkpt><trkpt lat="44.60059123925614" lon="10.926506068729239"><ele>41.0</ele><time>2026-04-24T11:27:18Z</time></trkpt><trkpt lat="44.600437810006454" lon="10.92686012769909"><ele>41.0</ele><time>2026-04-24T11:27:19Z</time></trkpt><trkpt lat="44.60028851118151" lon="10.927213512016062"><ele>40.5</ele><time>2026-04-24T11:27:20Z</time></trkpt><trkpt lat="44.60013851572062" lon="10.92756973901173"><ele>40.0</ele><time>2026-04-24T11:27:21Z</time></trkpt><trkpt lat="44.5999909103866" lon="10.927923551269789"><ele>40.0</ele><time>2026-04-24T11:27:22Z</time></trkpt><trkpt lat="44.59983859102592" lon="10.928282062667693"><ele>40.0</ele><time>2026-04-24T11:27:23Z</time></trkpt><trkpt lat="44.59969003491529" lon="10.928634678721838"><ele>41.0</ele><time>2026-04-24T11:27:24Z</time></trkpt><trkpt lat="44.599536987745644" lon="10.9289889122049"><ele>42.0</ele><time>2026-04-24T11:27:25Z</time></trkpt><trkpt lat="44.59938416757783" lon="10.92934070104752"><ele>43.0</ele><time>2026-04-24T11:27:26Z</time></trkpt><trkpt lat="44.599233505044026" lon="10.929697320741827"><ele>44.0</ele><time>2026-04-24T11:27:27Z</time></trkpt><trkpt lat="44.59908349329671" lon="10.930049888663264"><ele>43.5</ele><time>2026-04-24T11:27:28Z</time></trkpt><trkpt lat="44.59893327258295" lon="10.930403677230942"><ele>43.0</ele><time>2026-04-24T11:27:29Z</time></trkpt><trkpt lat="44.59878207338571" lon="10.930759711682427"><ele>41.0</ele><time>2026-04-24T11:27:30Z</time></trkpt><trkpt lat="44.59863115054172" lon="10.931112864003131"><ele>39.0</ele><time>2026-04-24T11:27:31Z</time></trkpt><trkpt lat="44.59847806178435" lon="10.93146545976148"><ele>39.5</ele><time>2026-04-24T11:27:32Z</time></trkpt><trkpt lat="44.598321573497294" lon="10.931815867203404"><ele>40.0</ele><time>2026-04-24T11:27:33Z</time></trkpt><trkpt lat="44.59816789882266" lon="10.932164563370884"><ele>40.0</ele><time>2026-04-24T11:27:34Z</time></trkpt><trkpt lat="44.5980184593068" lon="10.93252002810827"><ele>40.0</ele><time>2026-04-24T11:27:35Z</time></trkpt><trkpt lat="44.59787375727013" lon="10.9328734264238"><ele>40.0</ele><time>2026-04-24T11:27:36Z</time></trkpt><trkpt lat="44.59772628742774" lon="10.933226856297724"><ele>40.0</ele><time>2026-04-24T11:27:37Z</time></trkpt><trkpt lat="44.59757336376702" lon="10.933579897585886"><ele>41.0</ele><time>2026-04-24T11:27:38Z</time></trkpt><trkpt lat="44.597420372902704" lon="10.933932983429095"><ele>42.0</ele><time>2026-04-24T11:27:39Z</time></trkpt><trkpt lat="44.59727036557679" lon="10.934285452310874"><ele>42.0</ele><time>2026-04-24T11:27:40Z</time></trkpt><trkpt lat="44.597120149511795" lon="10.934639555815243"><ele>42.0</ele><time>2026-04-24T11:27:41Z</time></trkpt><trkpt lat="44.59696807291289" lon="10.934997631636032"><ele>42.5</ele><time>2026-04-24T11:27:42Z</time></trkpt><trkpt lat="44.596817861278666" lon="10.935349830417342"><ele>43.0</ele><time>2026-04-24T11:27:43Z</time></trkpt><trkpt lat="44.59666476491876" lon="10.935702057899137"><ele>43.0</ele><time>2026-04-24T11:27:44Z</time></trkpt><trkpt lat="44.59651046384896" lon="10.936057555830661"><ele>43.0</ele><time>2026-04-24T11:27:45Z</time></trkpt><trkpt lat="44.596359949065075" lon="10.93640925768318"><ele>43.0</ele><time>2026-04-24T11:27:46Z</time></trkpt><trkpt lat="44.59620843069626" lon="10.936763273948793"><ele>43.0</ele><time>2026-04-24T11:27:47Z</time></trkpt><trkpt lat="44.59605820713955" lon="10.937115535447228"><ele>43.0</ele><time>2026-04-24T11:27:48Z</time></trkpt><trkpt lat="44.595905849481376" lon="10.937471320189998"><ele>43.0</ele><time>2026-04-24T11:27:49Z</time></trkpt><trkpt lat="44.59575357531614" lon="10.937826615908147"><ele>42.5</ele><time>2026-04-24T11:27:50Z</time></trkpt><trkpt lat="44.59560432861778" lon="10.938179522088777"><ele>42.0</ele><time>2026-04-24T11:27:51Z</time></trkpt><trkpt lat="44.59545331584911" lon="10.938531760459616"><ele>41.0</ele><time>2026-04-24T11:27:52Z</time></trkpt><trkpt lat="44.59530280084139" lon="10.93888552132668"><ele>40.0</ele><time>2026-04-24T11:27:53Z</time></trkpt><trkpt lat="44.595150992223964" lon="10.939239274122324"><ele>40.0</ele><time>2026-04-24T11:27:54Z</time></trkpt><trkpt lat="44.5950024817315" lon="10.939592627758701"><ele>40.0</ele><time>2026-04-24T11:27:55Z</time></trkpt><trkpt lat="44.594850441814174" lon="10.939948674361517"><ele>39.5</ele><time>2026-04-24T11:27:56Z</time></trkpt><trkpt lat="44.594696685083925" lon="10.940299970836909"><ele>39.0</ele><time>2026-04-24T11:27:57Z</time></trkpt><trkpt lat="44.594541976331655" lon="10.94065162724696"><ele>40.5</ele><time>2026-04-24T11:27:58Z</time></trkpt><trkpt lat="44.594391735162134" lon="10.941003290283707"><ele>42.0</ele><time>2026-04-24T11:27:59Z</time></trkpt><trkpt lat="44.594240285172084" lon="10.941358297411568"><ele>42.0</ele><time>2026-04-24T11:28:00Z</time></trkpt><trkpt lat="44.59409192202774" lon="10.941712995933479"><ele>42.0</ele><time>2026-04-24T11:28:01Z</time></trkpt><trkpt lat="44.593942212639845" lon="10.942069026690936"><ele>42.0</ele><time>2026-04-24T11:28:02Z</time></trkpt><trkpt lat="44.593790065755186" lon="10.942421266451467"><ele>42.0</ele><time>2026-04-24T11:28:03Z</time></trkpt><trkpt lat="44.59363777954522" lon="10.942772847204452"><ele>42.5</ele><time>2026-04-24T11:28:04Z</time></trkpt><trkpt lat="44.59348571785398" lon="10.94312672962563"><ele>43.0</ele><time>2026-04-24T11:28:05Z</time></trkpt><trkpt lat="44.593335527264244" lon="10.94348515516877"><ele>42.0</ele><time>2026-04-24T11:28:06Z</time></trkpt><trkpt lat="44.59318653074686" lon="10.943838892168648"><ele>41.0</ele><time>2026-04-24T11:28:07Z</time></trkpt><trkpt lat="44.59303350744268" lon="10.944193012400579"><ele>41.0</ele><time>2026-04-24T11:28:08Z</time></trkpt><trkpt lat="44.5928820718513" lon="10.944543738430248"><ele>41.0</ele><time>2026-04-24T11:28:09Z</time></trkpt><trkpt lat="44.59272881429863" lon="10.944896295426181"><ele>42.5</ele><time>2026-04-24T11:28:10Z</time></trkpt><trkpt lat="44.592578885396904" lon="10.94524980098832"><ele>44.0</ele><time>2026-04-24T11:28:11Z</time></trkpt><trkpt lat="44.592426018090165" lon="10.945603964063965"><ele>43.5</ele><time>2026-04-24T11:28:12Z</time></trkpt><trkpt lat="44.59227363508052" lon="10.945957548594784"><ele>43.0</ele><time>2026-04-24T11:28:13Z</time></trkpt><trkpt lat="44.59212214222134" lon="10.946311045315742"><ele>43.0</ele><time>2026-04-24T11:28:14Z</time></trkpt><trkpt lat="44.59197373167734" lon="10.946664387650662"><ele>43.0</ele><time>2026-04-24T11:28:15Z</time></trkpt><trkpt lat="44.59182475127745" lon="10.947019124863616"><ele>43.0</ele><time>2026-04-24T11:28:16Z</time></trkpt><trkpt lat="44.59167588130139" lon="10.947373193692005"><ele>43.0</ele><time>2026-04-24T11:28:17Z</time></trkpt><trkpt lat="44.591527447141345" lon="10.947728430331846"><ele>43.0</ele><time>2026-04-24T11:28:18Z</time></trkpt><trkpt lat="44.59137567125905" lon="10.948080432508705"><ele>43.0</ele><time>2026-04-24T11:28:19Z</time></trkpt><trkpt lat="44.59121689788165" lon="10.948433024014548"><ele>44.0</ele><time>2026-04-24T11:28:20Z</time></trkpt><trkpt lat="44.591064064820465" lon="10.948785028886839"><ele>45.0</ele><time>2026-04-24T11:28:21Z</time></trkpt><trkpt lat="44.59091485902377" lon="10.949136993096639"><ele>44.5</ele><time>2026-04-24T11:28:22Z</time></trkpt><trkpt lat="44.59076557103243" lon="10.949491443935177"><ele>44.0</ele><time>2026-04-24T11:28:23Z</time></trkpt><trkpt lat="44.59061545598397" lon="10.94984419873889"><ele>44.0</ele><time>2026-04-24T11:28:24Z</time></trkpt><trkpt lat="44.59046511606836" lon="10.950202486787548"><ele>44.0</ele><time>2026-04-24T11:28:25Z</time></trkpt><trkpt lat="44.59031426017729" lon="10.950553809877775"><ele>42.5</ele><time>2026-04-24T11:28:26Z</time></trkpt><trkpt lat="44.59016139207073" lon="10.950905427433241"><ele>41.0</ele><time>2026-04-24T11:28:27Z</time></trkpt><trkpt lat="44.590008251844814" lon="10.951259407205585"><ele>41.0</ele><time>2026-04-24T11:28:28Z</time></trkpt><trkpt lat="44.589857909196965" lon="10.951612499211294"><ele>41.0</ele><time>2026-04-24T11:28:29Z</time></trkpt><trkpt lat="44.58970800222096" lon="10.951969905065186"><ele>42.0</ele><time>2026-04-24T11:28:30Z</time></trkpt><trkpt lat="44.589558078181255" lon="10.952326482743754"><ele>43.0</ele><time>2026-04-24T11:28:31Z</time></trkpt><trkpt lat="44.589409392746504" lon="10.95268100056096"><ele>43.5</ele><time>2026-04-24T11:28:32Z</time></trkpt><trkpt lat="44.589259020760394" lon="10.953032113556581"><ele>44.0</ele><time>2026-04-24T11:28:33Z</time></trkpt><trkpt lat="44.589107176758" lon="10.953383071711741"><ele>44.0</ele><time>2026-04-24T11:28:34Z</time></trkpt><trkpt lat="44.5889551275574" lon="10.953738253801443"><ele>44.0</ele><time>2026-04-24T11:28:35Z</time></trkpt><trkpt lat="44.588803407483304" lon="10.954091840383992"><ele>44.5</ele><time>2026-04-24T11:28:36Z</time></trkpt><trkpt lat="44.58865346565142" lon="10.954442290647982"><ele>45.0</ele><time>2026-04-24T11:28:37Z</time></trkpt><trkpt lat="44.58850279690953" lon="10.954793260662797"><ele>45.0</ele><time>2026-04-24T11:28:38Z</time></trkpt><trkpt lat="44.588351232258034" lon="10.955145837807306"><ele>45.0</ele><time>2026-04-24T11:28:39Z</time></trkpt><trkpt lat="44.58819685086736" lon="10.95550121911314"><ele>45.0</ele><time>2026-04-24T11:28:40Z</time></trkpt><trkpt lat="44.58804587035141" lon="10.955847781987886"><ele>45.0</ele><time>2026-04-24T11:28:41Z</time></trkpt><trkpt lat="44.587892497900306" lon="10.956195929590757"><ele>44.0</ele><time>2026-04-24T11:28:42Z</time></trkpt><trkpt lat="44.58774027284937" lon="10.95654785676895"><ele>43.0</ele><time>2026-04-24T11:28:43Z</time></trkpt><trkpt lat="44.58758992213546" lon="10.956901719443692"><ele>43.0</ele><time>2026-04-24T11:28:44Z</time></trkpt><trkpt lat="44.587440689109506" lon="10.957255009034023"><ele>43.0</ele><time>2026-04-24T11:28:45Z</time></trkpt><trkpt lat="44.58728967165938" lon="10.957608931308158"><ele>42.5</ele><time>2026-04-24T11:28:46Z</time></trkpt><trkpt lat="44.587137424381304" lon="10.95796285446004"><ele>42.0</ele><time>2026-04-24T11:28:47Z</time></trkpt><trkpt lat="44.586987098366265" lon="10.958314031572824"><ele>42.5</ele><time>2026-04-24T11:28:48Z</time></trkpt><trkpt lat="44.58683345920013" lon="10.958665579831665"><ele>43.0</ele><time>2026-04-24T11:28:49Z</time></trkpt><trkpt lat="44.58668294648358" lon="10.959019281818493"><ele>44.0</ele><time>2026-04-24T11:28:50Z</time></trkpt><trkpt lat="44.58653214122748" lon="10.959374325062184"><ele>45.0</ele><time>2026-04-24T11:28:51Z</time></trkpt><trkpt lat="44.58638295313289" lon="10.959732717257431"><ele>45.0</ele><time>2026-04-24T11:28:52Z</time></trkpt><trkpt lat="44.58623130561107" lon="10.960087937805088"><ele>45.0</ele><time>2026-04-24T11:28:53Z</time></trkpt><trkpt lat="44.58608103395921" lon="10.960435466427125"><ele>44.5</ele><time>2026-04-24T11:28:54Z</time></trkpt><trkpt lat="44.585929600635986" lon="10.96078675146914"><ele>44.0</ele><time>2026-04-24T11:28:55Z</time></trkpt><trkpt lat="44.58577713469617" lon="10.961142702627932"><ele>45.0</ele><time>2026-04-24T11:28:56Z</time></trkpt><trkpt lat="44.585628390727436" lon="10.961496799348588"><ele>46.0</ele><time>2026-04-24T11:28:57Z</time></trkpt><trkpt lat="44.585477148221635" lon="10.961852598071879"><ele>47.0</ele><time>2026-04-24T11:28:58Z</time></trkpt><trkpt lat="44.5853280226083" lon="10.962209152438833"><ele>48.0</ele><time>2026-04-24T11:28:59Z</time></trkpt><trkpt lat="44.58517362480796" lon="10.96256779399302"><ele>45.5</ele><time>2026-04-24T11:29:00Z</time></trkpt><trkpt lat="44.5850202883474" lon="10.962921586861228"><ele>43.0</ele><time>2026-04-24T11:29:01Z</time></trkpt><trkpt lat="44.58487146047984" lon="10.96326862901684"><ele>43.0</ele><time>2026-04-24T11:29:02Z</time></trkpt><trkpt lat="44.584718512265795" lon="10.963623724133688"><ele>43.0</ele><time>2026-04-24T11:29:03Z</time></trkpt><trkpt lat="44.584563873506816" lon="10.96397887651412"><ele>42.5</ele><time>2026-04-24T11:29:04Z</time></trkpt><trkpt lat="44.584412382127674" lon="10.964331444957452"><ele>42.0</ele><time>2026-04-24T11:29:05Z</time></trkpt><trkpt lat="44.58426439913947" lon="10.964688014668194"><ele>42.5</ele><time>2026-04-24T11:29:06Z</time></trkpt><trkpt lat="44.5841155486146" lon="10.965043930118291"><ele>43.0</ele><time>2026-04-24T11:29:07Z</time></trkpt><trkpt lat="44.5839652001302" lon="10.965395683763134"><ele>43.0</ele><time>2026-04-24T11:29:08Z</time></trkpt><trkpt lat="44.583809142363435" lon="10.9657495297154"><ele>43.0</ele><time>2026-04-24T11:29:09Z</time></trkpt><trkpt lat="44.58365881057365" lon="10.966098561580067"><ele>43.0</ele><time>2026-04-24T11:29:10Z</time></trkpt><trkpt lat="44.583507505441226" lon="10.96645111148382"><ele>43.0</ele><time>2026-04-24T11:29:11Z</time></trkpt><trkpt lat="44.58336194832782" lon="10.966803729087738"><ele>43.0</ele><time>2026-04-24T11:29:12Z</time></trkpt><trkpt lat="44.583207190556706" lon="10.96715552582375"><ele>43.0</ele><time>2026-04-24T11:29:13Z</time></trkpt><trkpt lat="44.58305530364871" lon="10.96750707990475"><ele>43.5</ele><time>2026-04-24T11:29:14Z</time></trkpt><trkpt lat="44.58290311269695" lon="10.96786246792218"><ele>44.0</ele><time>2026-04-24T11:29:15Z</time></trkpt><trkpt lat="44.58275140318375" lon="10.968217602183401"><ele>45.5</ele><time>2026-04-24T11:29:16Z</time></trkpt><trkpt lat="44.58260095427321" lon="10.968572930032167"><ele>47.0</ele><time>2026-04-24T11:29:17Z</time></trkpt><trkpt lat="44.582453055542864" lon="10.968927290632822"><ele>48.0</ele><time>2026-04-24T11:29:18Z</time></trkpt><trkpt lat="44.582304576625845" lon="10.969284779643237"><ele>49.0</ele><time>2026-04-24T11:29:19Z</time></trkpt><trkpt lat="44.58215835666691" lon="10.969645781932533"><ele>49.0</ele><time>2026-04-24T11:29:20Z</time></trkpt><trkpt lat="44.582016767036805" lon="10.970007650566524"><ele>49.0</ele><time>2026-04-24T11:29:21Z</time></trkpt><trkpt lat="44.58187802668054" lon="10.97037550857221"><ele>48.5</ele><time>2026-04-24T11:29:22Z</time></trkpt><trkpt lat="44.5817434710465" lon="10.970741946231106"><ele>48.0</ele><time>2026-04-24T11:29:23Z</time></trkpt><trkpt lat="44.58160975223227" lon="10.971111230405294"><ele>48.0</ele><time>2026-04-24T11:29:24Z</time></trkpt><trkpt lat="44.581478573077696" lon="10.971479077759883"><ele>48.0</ele><time>2026-04-24T11:29:25Z</time></trkpt><trkpt lat="44.58134898245987" lon="10.971852558784969"><ele>47.0</ele><time>2026-04-24T11:29:26Z</time></trkpt><trkpt lat="44.581222271284574" lon="10.972226946827915"><ele>46.0</ele><time>2026-04-24T11:29:27Z</time></trkpt><trkpt lat="44.58109811665955" lon="10.972600594163604"><ele>46.0</ele><time>2026-04-24T11:29:28Z</time></trkpt><trkpt lat="44.58097650537" lon="10.972976609670448"><ele>46.0</ele><time>2026-04-24T11:29:29Z</time></trkpt><trkpt lat="44.58085608203315" lon="10.97335384190339"><ele>47.5</ele><time>2026-04-24T11:29:30Z</time></trkpt><trkpt lat="44.58074180257762" lon="10.973729740846482"><ele>49.0</ele><time>2026-04-24T11:29:31Z</time></trkpt><trkpt lat="44.580633260215954" lon="10.974109979859676"><ele>47.5</ele><time>2026-04-24T11:29:32Z</time></trkpt><trkpt lat="44.580529639101904" lon="10.974500164166296"><ele>46.0</ele><time>2026-04-24T11:29:33Z</time></trkpt><trkpt lat="44.580430148950335" lon="10.974896116004958"><ele>47.0</ele><time>2026-04-24T11:29:34Z</time></trkpt><trkpt lat="44.58033067235914" lon="10.975284372000587"><ele>48.0</ele><time>2026-04-24T11:29:35Z</time></trkpt><trkpt lat="44.580228554402254" lon="10.975671351068959"><ele>47.0</ele><time>2026-04-24T11:29:36Z</time></trkpt><trkpt lat="44.58012300644579" lon="10.976058986680341"><ele>46.0</ele><time>2026-04-24T11:29:37Z</time></trkpt><trkpt lat="44.58001890185558" lon="10.976440727769647"><ele>46.0</ele><time>2026-04-24T11:29:38Z</time></trkpt><trkpt lat="44.57991241582646" lon="10.976824901254108"><ele>46.0</ele><time>2026-04-24T11:29:39Z</time></trkpt><trkpt lat="44.5798107224539" lon="10.977203268207866"><ele>46.5</ele><time>2026-04-24T11:29:40Z</time></trkpt><trkpt lat="44.57970709754841" lon="10.977595174724225"><ele>47.0</ele><time>2026-04-24T11:29:41Z</time></trkpt><trkpt lat="44.57960401416106" lon="10.977980253066264"><ele>46.5</ele><time>2026-04-24T11:29:42Z</time></trkpt><trkpt lat="44.57950294927456" lon="10.97836772858116"><ele>46.0</ele><time>2026-04-24T11:29:43Z</time></trkpt><trkpt lat="44.579407822549435" lon="10.978775426548209"><ele>46.0</ele><time>2026-04-24T11:29:44Z</time></trkpt><trkpt lat="44.57930240427688" lon="10.979153476020686"><ele>46.0</ele><time>2026-04-24T11:29:45Z</time></trkpt><trkpt lat="44.57920077710596" lon="10.97953918959415"><ele>46.5</ele><time>2026-04-24T11:29:46Z</time></trkpt><trkpt lat="44.579095982537844" lon="10.979922652235174"><ele>47.0</ele><time>2026-04-24T11:29:47Z</time></trkpt><trkpt lat="44.57899327302619" lon="10.980309966180865"><ele>47.0</ele><time>2026-04-24T11:29:48Z</time></trkpt><trkpt lat="44.57889437465477" lon="10.980698430629909"><ele>47.0</ele><time>2026-04-24T11:29:49Z</time></trkpt><trkpt lat="44.578795991351946" lon="10.981084648309954"><ele>47.0</ele><time>2026-04-24T11:29:50Z</time></trkpt><trkpt lat="44.5786957812042" lon="10.981470928996973"><ele>47.0</ele><time>2026-04-24T11:29:51Z</time></trkpt><trkpt lat="44.57859365638428" lon="10.981860392591187"><ele>47.5</ele><time>2026-04-24T11:29:52Z</time></trkpt><trkpt lat="44.57849075474683" lon="10.982244153029566"><ele>48.0</ele><time>2026-04-24T11:29:53Z</time></trkpt><trkpt lat="44.5783868974119" lon="10.9826268601742"><ele>48.5</ele><time>2026-04-24T11:29:54Z</time></trkpt><trkpt lat="44.578283138833356" lon="10.98301628104343"><ele>49.0</ele><time>2026-04-24T11:29:55Z</time></trkpt><trkpt lat="44.5781817803954" lon="10.983403067741941"><ele>49.0</ele><time>2026-04-24T11:29:56Z</time></trkpt><trkpt lat="44.57808221565964" lon="10.983779021130681"><ele>49.0</ele><time>2026-04-24T11:29:57Z</time></trkpt><trkpt lat="44.57798033140264" lon="10.984174310871063"><ele>49.5</ele><time>2026-04-24T11:29:58Z</time></trkpt><trkpt lat="44.57788080445258" lon="10.984560325835727"><ele>50.0</ele><time>2026-04-24T11:29:59Z</time></trkpt><trkpt lat="44.577779475092804" lon="10.984951860302061"><ele>50.0</ele><time>2026-04-24T11:30:00Z</time></trkpt><trkpt lat="44.577677956896146" lon="10.985337227472707"><ele>50.0</ele><time>2026-04-24T11:30:01Z</time></trkpt><trkpt lat="44.577579418826005" lon="10.98571923780854"><ele>48.0</ele><time>2026-04-24T11:30:02Z</time></trkpt><trkpt lat="44.57747866389158" lon="10.98610428772883"><ele>46.0</ele><time>2026-04-24T11:30:03Z</time></trkpt><trkpt lat="44.57737729411435" lon="10.986490870926861"><ele>45.0</ele><time>2026-04-24T11:30:04Z</time></trkpt><trkpt lat="44.57727430505797" lon="10.98688200662296"><ele>44.0</ele><time>2026-04-24T11:30:05Z</time></trkpt><trkpt lat="44.57717300482511" lon="10.98726543725886"><ele>42.5</ele><time>2026-04-24T11:30:06Z</time></trkpt><trkpt lat="44.57707036297847" lon="10.98765306309884"><ele>41.0</ele><time>2026-04-24T11:30:07Z</time></trkpt><trkpt lat="44.57696866895262" lon="10.988035774015412"><ele>42.0</ele><time>2026-04-24T11:30:08Z</time></trkpt><trkpt lat="44.576868996128816" lon="10.98842419064227"><ele>43.0</ele><time>2026-04-24T11:30:09Z</time></trkpt><trkpt lat="44.576769448756885" lon="10.98881074748142"><ele>43.5</ele><time>2026-04-24T11:30:10Z</time></trkpt><trkpt lat="44.5766666366064" lon="10.989196475319073"><ele>44.0</ele><time>2026-04-24T11:30:11Z</time></trkpt><trkpt lat="44.57656137082004" lon="10.989580739099805"><ele>44.0</ele><time>2026-04-24T11:30:12Z</time></trkpt><trkpt lat="44.57645777194553" lon="10.989968297182672"><ele>44.0</ele><time>2026-04-24T11:30:13Z</time></trkpt><trkpt lat="44.57635515856751" lon="10.990354972487715"><ele>44.5</ele><time>2026-04-24T11:30:14Z</time></trkpt><trkpt lat="44.576251302252494" lon="10.990741593965907"><ele>45.0</ele><time>2026-04-24T11:30:15Z</time></trkpt><trkpt lat="44.57614869094546" lon="10.991128083641499"><ele>45.0</ele><time>2026-04-24T11:30:16Z</time></trkpt><trkpt lat="44.57604675886395" lon="10.991512018241755"><ele>45.0</ele><time>2026-04-24T11:30:17Z</time></trkpt><trkpt lat="44.575943665510096" lon="10.991893300906872"><ele>45.0</ele><time>2026-04-24T11:30:18Z</time></trkpt><trkpt lat="44.57583972811388" lon="10.992275330353381"><ele>45.0</ele><time>2026-04-24T11:30:19Z</time></trkpt><trkpt lat="44.57573949327175" lon="10.99265708113631"><ele>45.0</ele><time>2026-04-24T11:30:20Z</time></trkpt><trkpt lat="44.57563469723426" lon="10.99304240691069"><ele>45.0</ele><time>2026-04-24T11:30:21Z</time></trkpt><trkpt lat="44.575529779765425" lon="10.99343313605344"><ele>45.0</ele><time>2026-04-24T11:30:22Z</time></trkpt><trkpt lat="44.57542583063553" lon="10.993821053858289"><ele>45.0</ele><time>2026-04-24T11:30:23Z</time></trkpt><trkpt lat="44.57532180793812" lon="10.994205773659885"><ele>45.0</ele><time>2026-04-24T11:30:24Z</time></trkpt><trkpt lat="44.575218897376224" lon="10.994590881206754"><ele>45.0</ele><time>2026-04-24T11:30:25Z</time></trkpt><trkpt lat="44.57511603763126" lon="10.994976165980901"><ele>46.0</ele><time>2026-04-24T11:30:26Z</time></trkpt><trkpt lat="44.575012558338486" lon="10.995362772016126"><ele>47.0</ele><time>2026-04-24T11:30:27Z</time></trkpt><trkpt lat="44.57491231265313" lon="10.995751551754985"><ele>46.5</ele><time>2026-04-24T11:30:28Z</time></trkpt><trkpt lat="44.57481269459068" lon="10.996141804530417"><ele>46.0</ele><time>2026-04-24T11:30:29Z</time></trkpt><trkpt lat="44.57471390273241" lon="10.996522641447443"><ele>46.0</ele><time>2026-04-24T11:30:30Z</time></trkpt><trkpt lat="44.57461211780718" lon="10.996909496420953"><ele>46.0</ele><time>2026-04-24T11:30:31Z</time></trkpt><trkpt lat="44.57451018071055" lon="10.997295886149344"><ele>45.5</ele><time>2026-04-24T11:30:32Z</time></trkpt><trkpt lat="44.574409291800926" lon="10.997683937229894"><ele>45.0</ele><time>2026-04-24T11:30:33Z</time></trkpt><trkpt lat="44.574310573622796" lon="10.998072994912832"><ele>44.5</ele><time>2026-04-24T11:30:34Z</time></trkpt><trkpt lat="44.57421178120764" lon="10.998461371110327"><ele>44.0</ele><time>2026-04-24T11:30:35Z</time></trkpt><trkpt lat="44.57411493403714" lon="10.998854341652123"><ele>45.0</ele><time>2026-04-24T11:30:36Z</time></trkpt><trkpt lat="44.57402160876617" lon="10.999246563490319"><ele>46.0</ele><time>2026-04-24T11:30:37Z</time></trkpt><trkpt lat="44.573931269853084" lon="10.999641238160292"><ele>46.0</ele><time>2026-04-24T11:30:38Z</time></trkpt><trkpt lat="44.57384950471661" lon="11.000029782941267"><ele>46.0</ele><time>2026-04-24T11:30:39Z</time></trkpt><trkpt lat="44.57376699891867" lon="11.000425469749086"><ele>46.5</ele><time>2026-04-24T11:30:40Z</time></trkpt><trkpt lat="44.573685323457696" lon="11.000828819345603"><ele>47.0</ele><time>2026-04-24T11:30:41Z</time></trkpt><trkpt lat="44.573602920992144" lon="11.001224366439306"><ele>47.0</ele><time>2026-04-24T11:30:42Z</time></trkpt><trkpt lat="44.57351709790822" lon="11.00161829205516"><ele>47.0</ele><time>2026-04-24T11:30:43Z</time></trkpt><trkpt lat="44.57343254666618" lon="11.002015843686358"><ele>46.5</ele><time>2026-04-24T11:30:44Z</time></trkpt><trkpt lat="44.57335172667966" lon="11.002407900566583"><ele>46.0</ele><time>2026-04-24T11:30:45Z</time></trkpt><trkpt lat="44.57327169645809" lon="11.002804322827297"><ele>46.0</ele><time>2026-04-24T11:30:46Z</time></trkpt><trkpt lat="44.57319139060513" lon="11.003201503336356"><ele>46.0</ele><time>2026-04-24T11:30:47Z</time></trkpt><trkpt lat="44.57311186647429" lon="11.0035978748377"><ele>46.5</ele><time>2026-04-24T11:30:48Z</time></trkpt><trkpt lat="44.57303328201287" lon="11.00399225736666"><ele>47.0</ele><time>2026-04-24T11:30:49Z</time></trkpt><trkpt lat="44.57295418376967" lon="11.004389121806442"><ele>47.0</ele><time>2026-04-24T11:30:50Z</time></trkpt><trkpt lat="44.572872189814554" lon="11.004788149423437"><ele>47.0</ele><time>2026-04-24T11:30:51Z</time></trkpt><trkpt lat="44.57278607265038" lon="11.00517876864106"><ele>46.5</ele><time>2026-04-24T11:30:52Z</time></trkpt><trkpt lat="44.57270028741542" lon="11.005578923977852"><ele>46.0</ele><time>2026-04-24T11:30:53Z</time></trkpt><trkpt lat="44.57261961625199" lon="11.005971297257489"><ele>46.0</ele><time>2026-04-24T11:30:54Z</time></trkpt><trkpt lat="44.57253876969428" lon="11.006369464770382"><ele>46.0</ele><time>2026-04-24T11:30:55Z</time></trkpt><trkpt lat="44.57245921308873" lon="11.006767331869588"><ele>47.0</ele><time>2026-04-24T11:30:56Z</time></trkpt><trkpt lat="44.57237816351238" lon="11.007164879216203"><ele>48.0</ele><time>2026-04-24T11:30:57Z</time></trkpt><trkpt lat="44.57229723612804" lon="11.007558371497625"><ele>48.0</ele><time>2026-04-24T11:30:58Z</time></trkpt><trkpt lat="44.57221682013861" lon="11.007957564231175"><ele>48.0</ele><time>2026-04-24T11:30:59Z</time></trkpt><trkpt lat="44.57213613043922" lon="11.008352768329488"><ele>48.0</ele><time>2026-04-24T11:31:00Z</time></trkpt><trkpt lat="44.57205590192463" lon="11.008744673533172"><ele>48.0</ele><time>2026-04-24T11:31:01Z</time></trkpt><trkpt lat="44.57197195631001" lon="11.009145111671728"><ele>48.0</ele><time>2026-04-24T11:31:02Z</time></trkpt><trkpt lat="44.57188914694889" lon="11.009542096504134"><ele>48.0</ele><time>2026-04-24T11:31:03Z</time></trkpt><trkpt lat="44.57180812629075" lon="11.009937471301514"><ele>47.5</ele><time>2026-04-24T11:31:04Z</time></trkpt><trkpt lat="44.57172686767182" lon="11.010333694475568"><ele>47.0</ele><time>2026-04-24T11:31:05Z</time></trkpt><trkpt lat="44.57164394674907" lon="11.010728554438336"><ele>46.5</ele><time>2026-04-24T11:31:06Z</time></trkpt><trkpt lat="44.57156101552879" lon="11.011124312493017"><ele>46.0</ele><time>2026-04-24T11:31:07Z</time></trkpt><trkpt lat="44.571478564249325" lon="11.011519387028661"><ele>45.5</ele><time>2026-04-24T11:31:08Z</time></trkpt><trkpt lat="44.571396482296535" lon="11.011916191869837"><ele>45.0</ele><time>2026-04-24T11:31:09Z</time></trkpt><trkpt lat="44.571315098580655" lon="11.012313691273372"><ele>45.5</ele><time>2026-04-24T11:31:10Z</time></trkpt><trkpt lat="44.57123181442083" lon="11.0127107500765"><ele>46.0</ele><time>2026-04-24T11:31:11Z</time></trkpt><trkpt lat="44.57115198394525" lon="11.013107154074914"><ele>47.5</ele><time>2026-04-24T11:31:12Z</time></trkpt><trkpt lat="44.57107045161416" lon="11.013502834275794"><ele>49.0</ele><time>2026-04-24T11:31:13Z</time></trkpt><trkpt lat="44.5709902113294" lon="11.013893217540385"><ele>48.0</ele><time>2026-04-24T11:31:14Z</time></trkpt><trkpt lat="44.57090948207977" lon="11.01429502569962"><ele>47.0</ele><time>2026-04-24T11:31:15Z</time></trkpt><trkpt lat="44.57083049381384" lon="11.014690998329797"><ele>47.0</ele><time>2026-04-24T11:31:16Z</time></trkpt><trkpt lat="44.57075418325491" lon="11.015088393103966"><ele>47.0</ele><time>2026-04-24T11:31:17Z</time></trkpt><trkpt lat="44.57067874958772" lon="11.015489670516457"><ele>46.5</ele><time>2026-04-24T11:31:18Z</time></trkpt><trkpt lat="44.570606056791014" lon="11.015887726606868"><ele>46.0</ele><time>2026-04-24T11:31:19Z</time></trkpt><trkpt lat="44.57053148698088" lon="11.016287716112982"><ele>46.5</ele><time>2026-04-24T11:31:20Z</time></trkpt><trkpt lat="44.57045205252583" lon="11.016686017714033"><ele>47.0</ele><time>2026-04-24T11:31:21Z</time></trkpt><trkpt lat="44.570369794581865" lon="11.0170839882317"><ele>47.0</ele><time>2026-04-24T11:31:22Z</time></trkpt><trkpt lat="44.5702890180053" lon="11.017476715004843"><ele>47.0</ele><time>2026-04-24T11:31:23Z</time></trkpt><trkpt lat="44.57020670103151" lon="11.017873975393403"><ele>47.0</ele><time>2026-04-24T11:31:24Z</time></trkpt><trkpt lat="44.57012490690767" lon="11.018271768608397"><ele>47.0</ele><time>2026-04-24T11:31:25Z</time></trkpt><trkpt lat="44.57004271522158" lon="11.018667500188803"><ele>47.0</ele><time>2026-04-24T11:31:26Z</time></trkpt><trkpt lat="44.56996304152276" lon="11.01906228261272"><ele>47.0</ele><time>2026-04-24T11:31:27Z</time></trkpt><trkpt lat="44.56988352470032" lon="11.019457120165354"><ele>47.0</ele><time>2026-04-24T11:31:28Z</time></trkpt><trkpt lat="44.56980138385093" lon="11.019851960784223"><ele>47.0</ele><time>2026-04-24T11:31:29Z</time></trkpt><trkpt lat="44.569715626254585" lon="11.020243042522035"><ele>46.5</ele><time>2026-04-24T11:31:30Z</time></trkpt><trkpt lat="44.569622169913075" lon="11.020632877720278"><ele>46.0</ele><time>2026-04-24T11:31:31Z</time></trkpt><trkpt lat="44.56952640527215" lon="11.021022269546298"><ele>46.0</ele><time>2026-04-24T11:31:32Z</time></trkpt><trkpt lat="44.5694377147771" lon="11.021415501725079"><ele>46.0</ele><time>2026-04-24T11:31:33Z</time></trkpt><trkpt lat="44.56935854151492" lon="11.021815583904669"><ele>46.5</ele><time>2026-04-24T11:31:34Z</time></trkpt><trkpt lat="44.56928463163183" lon="11.022209650896619"><ele>47.0</ele><time>2026-04-24T11:31:35Z</time></trkpt><trkpt lat="44.56920327711822" lon="11.022606212811358"><ele>46.0</ele><time>2026-04-24T11:31:36Z</time></trkpt><trkpt lat="44.56911750260392" lon="11.023003923508096"><ele>45.0</ele><time>2026-04-24T11:31:37Z</time></trkpt><trkpt lat="44.569034792745036" lon="11.023398845262294"><ele>45.0</ele><time>2026-04-24T11:31:38Z</time></trkpt><trkpt lat="44.56895356946372" lon="11.023791138685173"><ele>45.0</ele><time>2026-04-24T11:31:39Z</time></trkpt><trkpt lat="44.56887116984894" lon="11.024185615575423"><ele>46.0</ele><time>2026-04-24T11:31:40Z</time></trkpt><trkpt lat="44.56878750844104" lon="11.024582932512322"><ele>47.0</ele><time>2026-04-24T11:31:41Z</time></trkpt><trkpt lat="44.56870686517919" lon="11.024974487723"><ele>47.5</ele><time>2026-04-24T11:31:42Z</time></trkpt><trkpt lat="44.568623634510814" lon="11.025369829295856"><ele>48.0</ele><time>2026-04-24T11:31:43Z</time></trkpt><trkpt lat="44.5685399988704" lon="11.025769977138978"><ele>47.5</ele><time>2026-04-24T11:31:44Z</time></trkpt><trkpt lat="44.56845963254397" lon="11.026166410060698"><ele>47.0</ele><time>2026-04-24T11:31:45Z</time></trkpt><trkpt lat="44.568379592680515" lon="11.026560495884796"><ele>47.5</ele><time>2026-04-24T11:31:46Z</time></trkpt><trkpt lat="44.568301588438736" lon="11.026954523131655"><ele>48.0</ele><time>2026-04-24T11:31:47Z</time></trkpt><trkpt lat="44.56822158342565" lon="11.027355015848666"><ele>48.0</ele><time>2026-04-24T11:31:48Z</time></trkpt><trkpt lat="44.56814124605325" lon="11.027746196243372"><ele>48.0</ele><time>2026-04-24T11:31:49Z</time></trkpt><trkpt lat="44.56806018179815" lon="11.028143093031467"><ele>48.0</ele><time>2026-04-24T11:31:50Z</time></trkpt><trkpt lat="44.56797533924319" lon="11.028538819549105"><ele>48.0</ele><time>2026-04-24T11:31:51Z</time></trkpt><trkpt lat="44.567892117180925" lon="11.02893623979389"><ele>48.0</ele><time>2026-04-24T11:31:52Z</time></trkpt><trkpt lat="44.56781070786449" lon="11.029332500607952"><ele>48.0</ele><time>2026-04-24T11:31:53Z</time></trkpt><trkpt lat="44.56772968455908" lon="11.029731225459345"><ele>47.0</ele><time>2026-04-24T11:31:54Z</time></trkpt><trkpt lat="44.56765453191421" lon="11.03012942362799"><ele>46.0</ele><time>2026-04-24T11:31:55Z</time></trkpt><trkpt lat="44.567582075147065" lon="11.030534199501489"><ele>46.5</ele><time>2026-04-24T11:31:56Z</time></trkpt><trkpt lat="44.56751065718167" lon="11.030929426006466"><ele>47.0</ele><time>2026-04-24T11:31:57Z</time></trkpt><trkpt lat="44.56743127161336" lon="11.031324762427245"><ele>47.5</ele><time>2026-04-24T11:31:58Z</time></trkpt><trkpt lat="44.56735053153624" lon="11.031720423175678"><ele>48.0</ele><time>2026-04-24T11:31:59Z</time></trkpt><trkpt lat="44.56727050897551" lon="11.032118454791762"><ele>48.5</ele><time>2026-04-24T11:32:00Z</time></trkpt><trkpt lat="44.567190781784625" lon="11.032510666559297"><ele>49.0</ele><time>2026-04-24T11:32:01Z</time></trkpt><trkpt lat="44.567108238154375" lon="11.03290572243643"><ele>49.0</ele><time>2026-04-24T11:32:02Z</time></trkpt><trkpt lat="44.567025621642905" lon="11.033301106970175"><ele>49.0</ele><time>2026-04-24T11:32:03Z</time></trkpt><trkpt lat="44.566940444914955" lon="11.033697530667192"><ele>49.0</ele><time>2026-04-24T11:32:04Z</time></trkpt><trkpt lat="44.566856915955064" lon="11.034094749482826"><ele>49.0</ele><time>2026-04-24T11:32:05Z</time></trkpt><trkpt lat="44.5667755695561" lon="11.03448814793854"><ele>49.5</ele><time>2026-04-24T11:32:06Z</time></trkpt><trkpt lat="44.56669415952295" lon="11.034883382389093"><ele>50.0</ele><time>2026-04-24T11:32:07Z</time></trkpt><trkpt lat="44.56661341209627" lon="11.035281453714113"><ele>50.5</ele><time>2026-04-24T11:32:08Z</time></trkpt><trkpt lat="44.56653136009321" lon="11.035677803861386"><ele>51.0</ele><time>2026-04-24T11:32:09Z</time></trkpt><trkpt lat="44.56644944807176" lon="11.036069989073097"><ele>51.5</ele><time>2026-04-24T11:32:10Z</time></trkpt><trkpt lat="44.56636658629363" lon="11.0364670189066"><ele>52.0</ele><time>2026-04-24T11:32:11Z</time></trkpt><trkpt lat="44.56628068204279" lon="11.036865192867541"><ele>52.0</ele><time>2026-04-24T11:32:12Z</time></trkpt><trkpt lat="44.566201527802086" lon="11.03725464532423"><ele>52.0</ele><time>2026-04-24T11:32:13Z</time></trkpt><trkpt lat="44.566103289328865" lon="11.037645276620186"><ele>50.0</ele><time>2026-04-24T11:32:14Z</time></trkpt><trkpt lat="44.56600998162198" lon="11.03803806750713"><ele>48.0</ele><time>2026-04-24T11:32:15Z</time></trkpt><trkpt lat="44.56591898658184" lon="11.038430492493625"><ele>48.0</ele><time>2026-04-24T11:32:16Z</time></trkpt><trkpt lat="44.565834967619324" lon="11.038823635575362"><ele>48.0</ele><time>2026-04-24T11:32:17Z</time></trkpt><trkpt lat="44.56575357411402" lon="11.039223438008506"><ele>48.0</ele><time>2026-04-24T11:32:18Z</time></trkpt><trkpt lat="44.56567645167941" lon="11.039614553444837"><ele>48.0</ele><time>2026-04-24T11:32:19Z</time></trkpt><trkpt lat="44.565597394342426" lon="11.040012308545991"><ele>48.0</ele><time>2026-04-24T11:32:20Z</time></trkpt><trkpt lat="44.56551455464738" lon="11.040407505586861"><ele>48.0</ele><time>2026-04-24T11:32:21Z</time></trkpt><trkpt lat="44.565430262033104" lon="11.040804062853905"><ele>47.5</ele><time>2026-04-24T11:32:22Z</time></trkpt><trkpt lat="44.56534442213521" lon="11.041198799946443"><ele>47.0</ele><time>2026-04-24T11:32:23Z</time></trkpt><trkpt lat="44.5652588912603" lon="11.041587264048493"><ele>47.5</ele><time>2026-04-24T11:32:24Z</time></trkpt><trkpt lat="44.565168807317626" lon="11.041982590517552"><ele>48.0</ele><time>2026-04-24T11:32:25Z</time></trkpt><trkpt lat="44.56507605500942" lon="11.042370951557324"><ele>48.5</ele><time>2026-04-24T11:32:26Z</time></trkpt><trkpt lat="44.56497822383818" lon="11.042762233718747"><ele>49.0</ele><time>2026-04-24T11:32:27Z</time></trkpt><trkpt lat="44.56487890430529" lon="11.04314683861624"><ele>49.0</ele><time>2026-04-24T11:32:28Z</time></trkpt><trkpt lat="44.56477317438929" lon="11.0435349957203"><ele>49.0</ele><time>2026-04-24T11:32:29Z</time></trkpt><trkpt lat="44.56466061347296" lon="11.043919470921498"><ele>49.0</ele><time>2026-04-24T11:32:30Z</time></trkpt><trkpt lat="44.56454296802104" lon="11.044295930918562"><ele>49.0</ele><time>2026-04-24T11:32:31Z</time></trkpt><trkpt lat="44.564416923365904" lon="11.044671773431027"><ele>47.0</ele><time>2026-04-24T11:32:32Z</time></trkpt><trkpt lat="44.564289489553154" lon="11.045043325219009"><ele>45.0</ele><time>2026-04-24T11:32:33Z</time></trkpt><trkpt lat="44.56415840719907" lon="11.045411350670973"><ele>45.0</ele><time>2026-04-24T11:32:34Z</time></trkpt><trkpt lat="44.56402399150933" lon="11.045776595120339"><ele>45.0</ele><time>2026-04-24T11:32:35Z</time></trkpt><trkpt lat="44.563886455893666" lon="11.046139949823413"><ele>45.0</ele><time>2026-04-24T11:32:36Z</time></trkpt><trkpt lat="44.56374074395462" lon="11.046503509992759"><ele>45.0</ele><time>2026-04-24T11:32:37Z</time></trkpt><trkpt lat="44.56359556177548" lon="11.046864283279099"><ele>45.0</ele><time>2026-04-24T11:32:38Z</time></trkpt><trkpt lat="44.56345208270789" lon="11.047230415746865"><ele>45.0</ele><time>2026-04-24T11:32:39Z</time></trkpt><trkpt lat="44.56331504194787" lon="11.047591981706464"><ele>46.0</ele><time>2026-04-24T11:32:40Z</time></trkpt><trkpt lat="44.56317683803261" lon="11.047955630723056"><ele>47.0</ele><time>2026-04-24T11:32:41Z</time></trkpt><trkpt lat="44.563042738888164" lon="11.04831711426521"><ele>47.0</ele><time>2026-04-24T11:32:42Z</time></trkpt><trkpt lat="44.56291078510687" lon="11.048680438626656"><ele>47.0</ele><time>2026-04-24T11:32:43Z</time></trkpt><trkpt lat="44.562767919363964" lon="11.049043270289891"><ele>45.0</ele><time>2026-04-24T11:32:44Z</time></trkpt><trkpt lat="44.56262937024815" lon="11.049401160765303"><ele>43.0</ele><time>2026-04-24T11:32:45Z</time></trkpt><trkpt lat="44.56248527666345" lon="11.049769034937498"><ele>45.5</ele><time>2026-04-24T11:32:46Z</time></trkpt><trkpt lat="44.56234833733911" lon="11.050127964513688"><ele>48.0</ele><time>2026-04-24T11:32:47Z</time></trkpt><trkpt lat="44.562208468318815" lon="11.050492340307892"><ele>48.0</ele><time>2026-04-24T11:32:48Z</time></trkpt><trkpt lat="44.56207065283408" lon="11.050859447559137"><ele>48.0</ele><time>2026-04-24T11:32:49Z</time></trkpt><trkpt lat="44.561933964037024" lon="11.051223470404757"><ele>48.0</ele><time>2026-04-24T11:32:50Z</time></trkpt><trkpt lat="44.561795412651115" lon="11.051588073840156"><ele>48.0</ele><time>2026-04-24T11:32:51Z</time></trkpt><trkpt lat="44.56165770312339" lon="11.051950386502257"><ele>48.5</ele><time>2026-04-24T11:32:52Z</time></trkpt><trkpt lat="44.561520489039715" lon="11.052312288287222"><ele>49.0</ele><time>2026-04-24T11:32:53Z</time></trkpt><trkpt lat="44.561382432310076" lon="11.052678025801828"><ele>49.5</ele><time>2026-04-24T11:32:54Z</time></trkpt><trkpt lat="44.561242036299795" lon="11.053045796033924"><ele>50.0</ele><time>2026-04-24T11:32:55Z</time></trkpt><trkpt lat="44.561105610306356" lon="11.053408904302009"><ele>50.0</ele><time>2026-04-24T11:32:56Z</time></trkpt><trkpt lat="44.56096815283513" lon="11.053773743840376"><ele>50.0</ele><time>2026-04-24T11:32:57Z</time></trkpt><trkpt lat="44.560829343957344" lon="11.054138945871633"><ele>49.5</ele><time>2026-04-24T11:32:58Z</time></trkpt><trkpt lat="44.56069209626345" lon="11.054499981296505"><ele>49.0</ele><time>2026-04-24T11:32:59Z</time></trkpt><trkpt lat="44.56055673254785" lon="11.054860965392855"><ele>48.5</ele><time>2026-04-24T11:33:00Z</time></trkpt><trkpt lat="44.56041638667742" lon="11.055223950048081"><ele>48.0</ele><time>2026-04-24T11:33:01Z</time></trkpt><trkpt lat="44.56027970331498" lon="11.05558570162762"><ele>48.0</ele><time>2026-04-24T11:33:02Z</time></trkpt><trkpt lat="44.56013982566492" lon="11.055953891230098"><ele>48.0</ele><time>2026-04-24T11:33:03Z</time></trkpt><trkpt lat="44.56000320400798" lon="11.056312956578102"><ele>48.0</ele><time>2026-04-24T11:33:04Z</time></trkpt><trkpt lat="44.55986287664839" lon="11.056677333397051"><ele>48.0</ele><time>2026-04-24T11:33:05Z</time></trkpt><trkpt lat="44.559724399459476" lon="11.057040812255817"><ele>48.0</ele><time>2026-04-24T11:33:06Z</time></trkpt><trkpt lat="44.55958551076589" lon="11.057404901115415"><ele>48.0</ele><time>2026-04-24T11:33:07Z</time></trkpt><trkpt lat="44.559447477266076" lon="11.057765631445283"><ele>48.5</ele><time>2026-04-24T11:33:08Z</time></trkpt><trkpt lat="44.55930960692938" lon="11.058128517602674"><ele>49.0</ele><time>2026-04-24T11:33:09Z</time></trkpt><trkpt lat="44.559170904909635" lon="11.05849347640942"><ele>50.0</ele><time>2026-04-24T11:33:10Z</time></trkpt><trkpt lat="44.55902881451213" lon="11.05885577534099"><ele>51.0</ele><time>2026-04-24T11:33:11Z</time></trkpt><trkpt lat="44.5588850420313" lon="11.059215072138992"><ele>51.5</ele><time>2026-04-24T11:33:12Z</time></trkpt><trkpt lat="44.55874405960801" lon="11.059575042367474"><ele>52.0</ele><time>2026-04-24T11:33:13Z</time></trkpt><trkpt lat="44.558606006620415" lon="11.059936439798607"><ele>53.0</ele><time>2026-04-24T11:33:14Z</time></trkpt><trkpt lat="44.558469332351436" lon="11.060301074243752"><ele>54.0</ele><time>2026-04-24T11:33:15Z</time></trkpt><trkpt lat="44.55833527282829" lon="11.060662953283252"><ele>53.5</ele><time>2026-04-24T11:33:16Z</time></trkpt><trkpt lat="44.55819924786851" lon="11.061031264646543"><ele>53.0</ele><time>2026-04-24T11:33:17Z</time></trkpt><trkpt lat="44.55805968234907" lon="11.06140045533764"><ele>52.5</ele><time>2026-04-24T11:33:18Z</time></trkpt><trkpt lat="44.557919924868685" lon="11.061759869272969"><ele>52.0</ele><time>2026-04-24T11:33:19Z</time></trkpt><trkpt lat="44.55777556743509" lon="11.062122089169895"><ele>51.5</ele><time>2026-04-24T11:33:20Z</time></trkpt><trkpt lat="44.55763503565742" lon="11.062484691181732"><ele>51.0</ele><time>2026-04-24T11:33:21Z</time></trkpt><trkpt lat="44.557492483390476" lon="11.062846724426862"><ele>51.0</ele><time>2026-04-24T11:33:22Z</time></trkpt><trkpt lat="44.55735541075877" lon="11.063211010410654"><ele>51.0</ele><time>2026-04-24T11:33:23Z</time></trkpt><trkpt lat="44.557214559133605" lon="11.06357523684126"><ele>51.0</ele><time>2026-04-24T11:33:24Z</time></trkpt><trkpt lat="44.557076782626126" lon="11.063939761450833"><ele>51.0</ele><time>2026-04-24T11:33:25Z</time></trkpt><trkpt lat="44.5569414257177" lon="11.064303148605113"><ele>50.5</ele><time>2026-04-24T11:33:26Z</time></trkpt><trkpt lat="44.55680273917968" lon="11.064670079301004"><ele>50.0</ele><time>2026-04-24T11:33:27Z</time></trkpt><trkpt lat="44.55666364627373" lon="11.065032481910876"><ele>50.0</ele><time>2026-04-24T11:33:28Z</time></trkpt><trkpt lat="44.556524439715616" lon="11.065392209441773"><ele>50.0</ele><time>2026-04-24T11:33:29Z</time></trkpt><trkpt lat="44.55638577129631" lon="11.065754804452308"><ele>50.5</ele><time>2026-04-24T11:33:30Z</time></trkpt><trkpt lat="44.55624718659739" lon="11.066118865638732"><ele>51.0</ele><time>2026-04-24T11:33:31Z</time></trkpt><trkpt lat="44.556109190285206" lon="11.066482368589794"><ele>50.0</ele><time>2026-04-24T11:33:32Z</time></trkpt><trkpt lat="44.5559690796583" lon="11.066846455528442"><ele>49.0</ele><time>2026-04-24T11:33:33Z</time></trkpt><trkpt lat="44.555828624531635" lon="11.067210935362128"><ele>49.0</ele><time>2026-04-24T11:33:34Z</time></trkpt><trkpt lat="44.55569067035317" lon="11.067577005206916"><ele>49.0</ele><time>2026-04-24T11:33:35Z</time></trkpt><trkpt lat="44.55555435836583" lon="11.067939504733964"><ele>49.5</ele><time>2026-04-24T11:33:36Z</time></trkpt><trkpt lat="44.55541560748556" lon="11.068302212977976"><ele>50.0</ele><time>2026-04-24T11:33:37Z</time></trkpt><trkpt lat="44.55527454473183" lon="11.068663603384225"><ele>50.5</ele><time>2026-04-24T11:33:38Z</time></trkpt><trkpt lat="44.55513296340078" lon="11.069024264546496"><ele>51.0</ele><time>2026-04-24T11:33:39Z</time></trkpt><trkpt lat="44.554993844486134" lon="11.069384887337401"><ele>51.0</ele><time>2026-04-24T11:33:40Z</time></trkpt><trkpt lat="44.55485341933472" lon="11.069748518983122"><ele>51.0</ele><time>2026-04-24T11:33:41Z</time></trkpt><trkpt lat="44.554716640055304" lon="11.070109741807656"><ele>51.0</ele><time>2026-04-24T11:33:42Z</time></trkpt><trkpt lat="44.554577615384765" lon="11.070473597745401"><ele>51.0</ele><time>2026-04-24T11:33:43Z</time></trkpt><trkpt lat="44.55444147823618" lon="11.070832740643432"><ele>51.5</ele><time>2026-04-24T11:33:44Z</time></trkpt><trkpt lat="44.55430185188198" lon="11.071198310591711"><ele>52.0</ele><time>2026-04-24T11:33:45Z</time></trkpt><trkpt lat="44.554166153320175" lon="11.071560245871947"><ele>51.5</ele><time>2026-04-24T11:33:46Z</time></trkpt><trkpt lat="44.554026090535395" lon="11.071925832128109"><ele>51.0</ele><time>2026-04-24T11:33:47Z</time></trkpt><trkpt lat="44.553885723167085" lon="11.072285720099682"><ele>51.0</ele><time>2026-04-24T11:33:48Z</time></trkpt><trkpt lat="44.55374257036494" lon="11.072647442714727"><ele>51.0</ele><time>2026-04-24T11:33:49Z</time></trkpt><trkpt lat="44.55360363789721" lon="11.073010925799135"><ele>51.0</ele><time>2026-04-24T11:33:50Z</time></trkpt><trkpt lat="44.55346540995583" lon="11.073375938334866"><ele>51.0</ele><time>2026-04-24T11:33:51Z</time></trkpt><trkpt lat="44.553328890975166" lon="11.073741986508798"><ele>50.5</ele><time>2026-04-24T11:33:52Z</time></trkpt><trkpt lat="44.55318951260854" lon="11.074105897679058"><ele>50.0</ele><time>2026-04-24T11:33:53Z</time></trkpt><trkpt lat="44.55305007844328" lon="11.074470531646073"><ele>50.0</ele><time>2026-04-24T11:33:54Z</time></trkpt><trkpt lat="44.55291089561542" lon="11.07483077283782"><ele>50.0</ele><time>2026-04-24T11:33:55Z</time></trkpt><trkpt lat="44.55277055672786" lon="11.075188748607893"><ele>51.5</ele><time>2026-04-24T11:33:56Z</time></trkpt><trkpt lat="44.55262885840609" lon="11.075548742227394"><ele>53.0</ele><time>2026-04-24T11:33:57Z</time></trkpt><trkpt lat="44.55248422683603" lon="11.075920897435205"><ele>53.0</ele><time>2026-04-24T11:33:58Z</time></trkpt><trkpt lat="44.552345388246415" lon="11.07628645467275"><ele>53.0</ele><time>2026-04-24T11:33:59Z</time></trkpt><trkpt lat="44.55220953452926" lon="11.076652463900924"><ele>53.0</ele><time>2026-04-24T11:34:00Z</time></trkpt><trkpt lat="44.552073511829775" lon="11.077015800069562"><ele>53.0</ele><time>2026-04-24T11:34:01Z</time></trkpt><trkpt lat="44.55193783596022" lon="11.077377261583822"><ele>52.5</ele><time>2026-04-24T11:34:02Z</time></trkpt><trkpt lat="44.55180062522475" lon="11.077745076305307"><ele>52.0</ele><time>2026-04-24T11:34:03Z</time></trkpt><trkpt lat="44.551663101488344" lon="11.078109768434214"><ele>53.5</ele><time>2026-04-24T11:34:04Z</time></trkpt><trkpt lat="44.55152517763657" lon="11.078468848771696"><ele>55.0</ele><time>2026-04-24T11:34:05Z</time></trkpt><trkpt lat="44.551386188776014" lon="11.078833601516092"><ele>54.5</ele><time>2026-04-24T11:34:06Z</time></trkpt><trkpt lat="44.55124492752165" lon="11.079196542041839"><ele>54.0</ele><time>2026-04-24T11:34:07Z</time></trkpt><trkpt lat="44.55110350568657" lon="11.0795562419605"><ele>54.0</ele><time>2026-04-24T11:34:08Z</time></trkpt><trkpt lat="44.550961999476485" lon="11.0799192851929"><ele>54.0</ele><time>2026-04-24T11:34:09Z</time></trkpt><trkpt lat="44.55082417603075" lon="11.0802792526392"><ele>53.5</ele><time>2026-04-24T11:34:10Z</time></trkpt><trkpt lat="44.55068258614472" lon="11.08064713489956"><ele>53.0</ele><time>2026-04-24T11:34:11Z</time></trkpt><trkpt lat="44.55053948873025" lon="11.08100967475207"><ele>53.0</ele><time>2026-04-24T11:34:12Z</time></trkpt><trkpt lat="44.55039977449944" lon="11.081370727375578"><ele>53.0</ele><time>2026-04-24T11:34:13Z</time></trkpt><trkpt lat="44.55025836420547" lon="11.081732676585759"><ele>53.5</ele><time>2026-04-24T11:34:14Z</time></trkpt><trkpt lat="44.55011716818125" lon="11.082098766974623"><ele>54.0</ele><time>2026-04-24T11:34:15Z</time></trkpt><trkpt lat="44.549973334383125" lon="11.082464006401153"><ele>54.0</ele><time>2026-04-24T11:34:16Z</time></trkpt><trkpt lat="44.549837396274256" lon="11.082828326524638"><ele>54.0</ele><time>2026-04-24T11:34:17Z</time></trkpt><trkpt lat="44.54970328732449" lon="11.083195454938695"><ele>54.0</ele><time>2026-04-24T11:34:18Z</time></trkpt><trkpt lat="44.54956773858091" lon="11.0835603171105"><ele>54.0</ele><time>2026-04-24T11:34:19Z</time></trkpt><trkpt lat="44.549433644381025" lon="11.083923713130552"><ele>53.5</ele><time>2026-04-24T11:34:20Z</time></trkpt><trkpt lat="44.54929643591777" lon="11.084290262752727"><ele>53.0</ele><time>2026-04-24T11:34:21Z</time></trkpt><trkpt lat="44.54915792142791" lon="11.084654803575964"><ele>52.5</ele><time>2026-04-24T11:34:22Z</time></trkpt><trkpt lat="44.549017218801126" lon="11.08501614021875"><ele>52.0</ele><time>2026-04-24T11:34:23Z</time></trkpt><trkpt lat="44.54887813213842" lon="11.08537447566646"><ele>52.0</ele><time>2026-04-24T11:34:24Z</time></trkpt><trkpt lat="44.54873681177617" lon="11.085738124923783"><ele>52.0</ele><time>2026-04-24T11:34:25Z</time></trkpt><trkpt lat="44.54860018956997" lon="11.086101481270306"><ele>52.5</ele><time>2026-04-24T11:34:26Z</time></trkpt><trkpt lat="44.548461947407546" lon="11.08646870929871"><ele>53.0</ele><time>2026-04-24T11:34:27Z</time></trkpt><trkpt lat="44.5483228085876" lon="11.086833469812726"><ele>53.5</ele><time>2026-04-24T11:34:28Z</time></trkpt><trkpt lat="44.54818231262912" lon="11.087194393292426"><ele>54.0</ele><time>2026-04-24T11:34:29Z</time></trkpt><trkpt lat="44.548040199262395" lon="11.087555761484458"><ele>53.5</ele><time>2026-04-24T11:34:30Z</time></trkpt><trkpt lat="44.54789974440326" lon="11.0879198174872"><ele>53.0</ele><time>2026-04-24T11:34:31Z</time></trkpt><trkpt lat="44.54776006493368" lon="11.088284114833801"><ele>53.0</ele><time>2026-04-24T11:34:32Z</time></trkpt><trkpt lat="44.54762218617122" lon="11.088646657523439"><ele>53.0</ele><time>2026-04-24T11:34:33Z</time></trkpt><trkpt lat="44.547485018587146" lon="11.089012279739318"><ele>53.5</ele><time>2026-04-24T11:34:34Z</time></trkpt><trkpt lat="44.54734745531601" lon="11.08937934785362"><ele>54.0</ele><time>2026-04-24T11:34:35Z</time></trkpt><trkpt lat="44.54721119272799" lon="11.089740394924451"><ele>54.0</ele><time>2026-04-24T11:34:36Z</time></trkpt><trkpt lat="44.547072168910795" lon="11.090102312689543"><ele>54.0</ele><time>2026-04-24T11:34:37Z</time></trkpt><trkpt lat="44.546930479579125" lon="11.09046538180084"><ele>54.5</ele><time>2026-04-24T11:34:38Z</time></trkpt><trkpt lat="44.54679059971654" lon="11.090827086827495"><ele>55.0</ele><time>2026-04-24T11:34:39Z</time></trkpt><trkpt lat="44.54664938254058" lon="11.091190592300942"><ele>55.0</ele><time>2026-04-24T11:34:40Z</time></trkpt><trkpt lat="44.546513683907996" lon="11.091549070236043"><ele>55.0</ele><time>2026-04-24T11:34:41Z</time></trkpt><trkpt lat="44.546373268964594" lon="11.091914272282613"><ele>55.0</ele><time>2026-04-24T11:34:42Z</time></trkpt><trkpt lat="44.54623584709593" lon="11.092273604576528"><ele>55.0</ele><time>2026-04-24T11:34:43Z</time></trkpt><trkpt lat="44.54609538558841" lon="11.092642293398852"><ele>54.5</ele><time>2026-04-24T11:34:44Z</time></trkpt><trkpt lat="44.54595911259219" lon="11.093003657053577"><ele>54.0</ele><time>2026-04-24T11:34:45Z</time></trkpt><trkpt lat="44.54582286754607" lon="11.093367972599033"><ele>54.0</ele><time>2026-04-24T11:34:46Z</time></trkpt><trkpt lat="44.545684128051974" lon="11.093731997064726"><ele>54.0</ele><time>2026-04-24T11:34:47Z</time></trkpt><trkpt lat="44.54554435823031" lon="11.094094443645867"><ele>54.0</ele><time>2026-04-24T11:34:48Z</time></trkpt><trkpt lat="44.545405986726045" lon="11.094455703295933"><ele>54.0</ele><time>2026-04-24T11:34:49Z</time></trkpt><trkpt lat="44.5452659500136" lon="11.094822820473256"><ele>55.0</ele><time>2026-04-24T11:34:50Z</time></trkpt><trkpt lat="44.545128334090144" lon="11.095183209354774"><ele>56.0</ele><time>2026-04-24T11:34:51Z</time></trkpt><trkpt lat="44.54498655704007" lon="11.095547464477916"><ele>56.5</ele><time>2026-04-24T11:34:52Z</time></trkpt><trkpt lat="44.54484766219811" lon="11.09590886964128"><ele>57.0</ele><time>2026-04-24T11:34:53Z</time></trkpt><trkpt lat="44.54470949443286" lon="11.096268102588105"><ele>56.0</ele><time>2026-04-24T11:34:54Z</time></trkpt><trkpt lat="44.54457218288714" lon="11.096635590647255"><ele>55.0</ele><time>2026-04-24T11:34:55Z</time></trkpt><trkpt lat="44.544439053657484" lon="11.096999254073918"><ele>54.5</ele><time>2026-04-24T11:34:56Z</time></trkpt><trkpt lat="44.54430439056388" lon="11.09737165724209"><ele>54.0</ele><time>2026-04-24T11:34:57Z</time></trkpt><trkpt lat="44.54417531765829" lon="11.097744223276079"><ele>53.5</ele><time>2026-04-24T11:34:58Z</time></trkpt><trkpt lat="44.5440439510843" lon="11.098115385182789"><ele>53.0</ele><time>2026-04-24T11:34:59Z</time></trkpt><trkpt lat="44.54390671760586" lon="11.098478821859194"><ele>53.0</ele><time>2026-04-24T11:35:00Z</time></trkpt><trkpt lat="44.54376539974827" lon="11.098840986211785"><ele>53.0</ele><time>2026-04-24T11:35:01Z</time></trkpt><trkpt lat="44.54362687335059" lon="11.09920461294595"><ele>53.0</ele><time>2026-04-24T11:35:02Z</time></trkpt><trkpt lat="44.543483306463" lon="11.0995697301967"><ele>53.0</ele><time>2026-04-24T11:35:03Z</time></trkpt><trkpt lat="44.54334323493168" lon="11.09992987944262"><ele>53.0</ele><time>2026-04-24T11:35:04Z</time></trkpt><trkpt lat="44.543200100521915" lon="11.100289786403255"><ele>53.0</ele><time>2026-04-24T11:35:05Z</time></trkpt><trkpt lat="44.54305738780178" lon="11.100646805977295"><ele>53.5</ele><time>2026-04-24T11:35:06Z</time></trkpt><trkpt lat="44.542912153086064" lon="11.101002744589072"><ele>54.0</ele><time>2026-04-24T11:35:07Z</time></trkpt><trkpt lat="44.54276461767573" lon="11.101359263875162"><ele>54.0</ele><time>2026-04-24T11:35:08Z</time></trkpt><trkpt lat="44.542617354334766" lon="11.10171938139825"><ele>54.0</ele><time>2026-04-24T11:35:09Z</time></trkpt><trkpt lat="44.542474410622916" lon="11.1020793957931"><ele>54.5</ele><time>2026-04-24T11:35:10Z</time></trkpt><trkpt lat="44.54233492745824" lon="11.102442864380428"><ele>55.0</ele><time>2026-04-24T11:35:11Z</time></trkpt><trkpt lat="44.54220154184415" lon="11.102807091094558"><ele>55.0</ele><time>2026-04-24T11:35:12Z</time></trkpt><trkpt lat="44.54206821493103" lon="11.103173527288533"><ele>55.0</ele><time>2026-04-24T11:35:13Z</time></trkpt><trkpt lat="44.54192935992681" lon="11.103537541736047"><ele>55.5</ele><time>2026-04-24T11:35:14Z</time></trkpt><trkpt lat="44.54178808003374" lon="11.103899947979354"><ele>56.0</ele><time>2026-04-24T11:35:15Z</time></trkpt><trkpt lat="44.54164332255927" lon="11.104267836928576"><ele>56.0</ele><time>2026-04-24T11:35:16Z</time></trkpt><trkpt lat="44.541506874005854" lon="11.104626587675307"><ele>56.0</ele><time>2026-04-24T11:35:17Z</time></trkpt><trkpt lat="44.54136541381061" lon="11.10499106713455"><ele>55.5</ele><time>2026-04-24T11:35:18Z</time></trkpt><trkpt lat="44.54122345180293" lon="11.105356515375124"><ele>55.0</ele><time>2026-04-24T11:35:19Z</time></trkpt><trkpt lat="44.54108340237958" lon="11.105719536824822"><ele>57.0</ele><time>2026-04-24T11:35:20Z</time></trkpt><trkpt lat="44.54094327150811" lon="11.106087528947569"><ele>59.0</ele><time>2026-04-24T11:35:21Z</time></trkpt><trkpt lat="44.54080729729885" lon="11.106450711763054"><ele>59.0</ele><time>2026-04-24T11:35:22Z</time></trkpt><trkpt lat="44.54066883372607" lon="11.106815309567233"><ele>59.0</ele><time>2026-04-24T11:35:23Z</time></trkpt><trkpt lat="44.54053402464864" lon="11.107177841938258"><ele>58.5</ele><time>2026-04-24T11:35:24Z</time></trkpt><trkpt lat="44.540399353523036" lon="11.107543368290914"><ele>58.0</ele><time>2026-04-24T11:35:25Z</time></trkpt><trkpt lat="44.54026911139804" lon="11.107912721456277"><ele>57.0</ele><time>2026-04-24T11:35:26Z</time></trkpt><trkpt lat="44.54013993365849" lon="11.108280995080673"><ele>56.0</ele><time>2026-04-24T11:35:27Z</time></trkpt><trkpt lat="44.54000723264564" lon="11.108645728215754"><ele>56.0</ele><time>2026-04-24T11:35:28Z</time></trkpt><trkpt lat="44.53986953666382" lon="11.109004997374878"><ele>56.0</ele><time>2026-04-24T11:35:29Z</time></trkpt><trkpt lat="44.53973027516185" lon="11.109367050647874"><ele>56.0</ele><time>2026-04-24T11:35:30Z</time></trkpt><trkpt lat="44.53959209034249" lon="11.109726213291495"><ele>56.0</ele><time>2026-04-24T11:35:31Z</time></trkpt><trkpt lat="44.53945186088407" lon="11.110087042271038"><ele>56.0</ele><time>2026-04-24T11:35:32Z</time></trkpt><trkpt lat="44.539313041320646" lon="11.110451002849947"><ele>56.0</ele><time>2026-04-24T11:35:33Z</time></trkpt><trkpt lat="44.53917717490861" lon="11.110813423932498"><ele>55.5</ele><time>2026-04-24T11:35:34Z</time></trkpt><trkpt lat="44.53903813010961" lon="11.111175783487631"><ele>55.0</ele><time>2026-04-24T11:35:35Z</time></trkpt><trkpt lat="44.538898385353214" lon="11.111537432631659"><ele>55.0</ele><time>2026-04-24T11:35:36Z</time></trkpt><trkpt lat="44.538758370391335" lon="11.111902231206244"><ele>55.0</ele><time>2026-04-24T11:35:37Z</time></trkpt><trkpt lat="44.538619651071784" lon="11.112260949588803"><ele>54.5</ele><time>2026-04-24T11:35:38Z</time></trkpt><trkpt lat="44.5384778177703" lon="11.112624401306014"><ele>54.0</ele><time>2026-04-24T11:35:39Z</time></trkpt><trkpt lat="44.53833911371926" lon="11.112985969490923"><ele>55.0</ele><time>2026-04-24T11:35:40Z</time></trkpt><trkpt lat="44.53820075980098" lon="11.113350317777789"><ele>56.0</ele><time>2026-04-24T11:35:41Z</time></trkpt><trkpt lat="44.538061748238064" lon="11.113713363447262"><ele>55.5</ele><time>2026-04-24T11:35:42Z</time></trkpt><trkpt lat="44.537921574864114" lon="11.114075659168165"><ele>55.0</ele><time>2026-04-24T11:35:43Z</time></trkpt><trkpt lat="44.5377814089803" lon="11.1144377358717"><ele>55.0</ele><time>2026-04-24T11:35:44Z</time></trkpt><trkpt lat="44.53763659375562" lon="11.114799769772178"><ele>55.0</ele><time>2026-04-24T11:35:45Z</time></trkpt><trkpt lat="44.53749041571874" lon="11.115156760565755"><ele>55.0</ele><time>2026-04-24T11:35:46Z</time></trkpt><trkpt lat="44.53734523130318" lon="11.115512211446399"><ele>55.0</ele><time>2026-04-24T11:35:47Z</time></trkpt><trkpt lat="44.537201673017954" lon="11.115870727391766"><ele>54.5</ele><time>2026-04-24T11:35:48Z</time></trkpt><trkpt lat="44.537061830541425" lon="11.116232175550135"><ele>54.0</ele><time>2026-04-24T11:35:49Z</time></trkpt><trkpt lat="44.536923177164766" lon="11.116596389750878"><ele>54.0</ele><time>2026-04-24T11:35:50Z</time></trkpt><trkpt lat="44.536786929951376" lon="11.116962174811981"><ele>54.0</ele><time>2026-04-24T11:35:51Z</time></trkpt><trkpt lat="44.536649537564344" lon="11.117328251868479"><ele>53.5</ele><time>2026-04-24T11:35:52Z</time></trkpt><trkpt lat="44.53651137045191" lon="11.117692537161172"><ele>53.0</ele><time>2026-04-24T11:35:53Z</time></trkpt><trkpt lat="44.536373350715884" lon="11.118055860449175"><ele>53.5</ele><time>2026-04-24T11:35:54Z</time></trkpt><trkpt lat="44.53623287849723" lon="11.11841925507321"><ele>54.0</ele><time>2026-04-24T11:35:55Z</time></trkpt><trkpt lat="44.53609381540771" lon="11.11878097057919"><ele>54.0</ele><time>2026-04-24T11:35:56Z</time></trkpt><trkpt lat="44.53595382674214" lon="11.119144575723556"><ele>54.0</ele><time>2026-04-24T11:35:57Z</time></trkpt><trkpt lat="44.53581477596516" lon="11.1195069562087"><ele>54.0</ele><time>2026-04-24T11:35:58Z</time></trkpt><trkpt lat="44.53567208291449" lon="11.119873245597265"><ele>54.0</ele><time>2026-04-24T11:35:59Z</time></trkpt><trkpt lat="44.53553107345668" lon="11.120235323927256"><ele>53.5</ele><time>2026-04-24T11:36:00Z</time></trkpt><trkpt lat="44.53539011872201" lon="11.120597580554243"><ele>53.0</ele><time>2026-04-24T11:36:01Z</time></trkpt><trkpt lat="44.53525078237641" lon="11.1209621161122"><ele>54.0</ele><time>2026-04-24T11:36:02Z</time></trkpt><trkpt lat="44.53511181156665" lon="11.121325863916422"><ele>55.0</ele><time>2026-04-24T11:36:03Z</time></trkpt><trkpt lat="44.53497257446433" lon="11.12169312050595"><ele>55.0</ele><time>2026-04-24T11:36:04Z</time></trkpt><trkpt lat="44.534835643495086" lon="11.122058286679138"><ele>55.0</ele><time>2026-04-24T11:36:05Z</time></trkpt><trkpt lat="44.53469945978201" lon="11.122421348239504"><ele>55.0</ele><time>2026-04-24T11:36:06Z</time></trkpt><trkpt lat="44.53456190786078" lon="11.122786228079903"><ele>55.0</ele><time>2026-04-24T11:36:07Z</time></trkpt><trkpt lat="44.534422474867206" lon="11.12315233083822"><ele>55.5</ele><time>2026-04-24T11:36:08Z</time></trkpt><trkpt lat="44.53428311539068" lon="11.123513353221304"><ele>56.0</ele><time>2026-04-24T11:36:09Z</time></trkpt><trkpt lat="44.534142430433484" lon="11.123874993009967"><ele>55.0</ele><time>2026-04-24T11:36:10Z</time></trkpt><trkpt lat="44.53400189281063" lon="11.124238335496853"><ele>54.0</ele><time>2026-04-24T11:36:11Z</time></trkpt><trkpt lat="44.533862953620066" lon="11.124602134083815"><ele>54.0</ele><time>2026-04-24T11:36:12Z</time></trkpt><trkpt lat="44.53372758870583" lon="11.124965916398935"><ele>54.0</ele><time>2026-04-24T11:36:13Z</time></trkpt><trkpt lat="44.53359618656269" lon="11.125335663788537"><ele>54.0</ele><time>2026-04-24T11:36:14Z</time></trkpt><trkpt lat="44.53346356113311" lon="11.125708505805909"><ele>54.0</ele><time>2026-04-24T11:36:15Z</time></trkpt><trkpt lat="44.53333489974096" lon="11.126077494180093"><ele>54.0</ele><time>2026-04-24T11:36:16Z</time></trkpt><trkpt lat="44.53320949499401" lon="11.126446908107773"><ele>54.0</ele><time>2026-04-24T11:36:17Z</time></trkpt><trkpt lat="44.53308372826459" lon="11.126822846511008"><ele>54.0</ele><time>2026-04-24T11:36:18Z</time></trkpt><trkpt lat="44.53295930489555" lon="11.12719898652402"><ele>54.0</ele><time>2026-04-24T11:36:19Z</time></trkpt><trkpt lat="44.53283394390433" lon="11.127572156681834"><ele>55.0</ele><time>2026-04-24T11:36:20Z</time></trkpt><trkpt lat="44.532706934716714" lon="11.127945210466851"><ele>56.0</ele><time>2026-04-24T11:36:21Z</time></trkpt><trkpt lat="44.53258207713302" lon="11.128312442658157"><ele>56.0</ele><time>2026-04-24T11:36:22Z</time></trkpt><trkpt lat="44.53245374967708" lon="11.128685955347374"><ele>56.0</ele><time>2026-04-24T11:36:23Z</time></trkpt><trkpt lat="44.532327211101304" lon="11.129058337822478"><ele>55.0</ele><time>2026-04-24T11:36:24Z</time></trkpt><trkpt lat="44.53220099531004" lon="11.129428421103317"><ele>54.0</ele><time>2026-04-24T11:36:25Z</time></trkpt><trkpt lat="44.53207205792225" lon="11.129799862723658"><ele>55.0</ele><time>2026-04-24T11:36:26Z</time></trkpt><trkpt lat="44.531942679656694" lon="11.130173029513362"><ele>56.0</ele><time>2026-04-24T11:36:27Z</time></trkpt><trkpt lat="44.53181811487689" lon="11.130545818897009"><ele>56.0</ele><time>2026-04-24T11:36:28Z</time></trkpt><trkpt lat="44.5316935348811" lon="11.130921168316288"><ele>56.0</ele><time>2026-04-24T11:36:29Z</time></trkpt><trkpt lat="44.531566720703765" lon="11.131293781602485"><ele>54.5</ele><time>2026-04-24T11:36:30Z</time></trkpt><trkpt lat="44.53143677577821" lon="11.131667745982234"><ele>53.0</ele><time>2026-04-24T11:36:31Z</time></trkpt><trkpt lat="44.531308412468235" lon="11.132039928390085"><ele>54.0</ele><time>2026-04-24T11:36:32Z</time></trkpt><trkpt lat="44.53118040528044" lon="11.13241054344987"><ele>55.0</ele><time>2026-04-24T11:36:33Z</time></trkpt><trkpt lat="44.53105444829063" lon="11.132781811661603"><ele>55.0</ele><time>2026-04-24T11:36:34Z</time></trkpt><trkpt lat="44.53092855700446" lon="11.13315654020075"><ele>55.0</ele><time>2026-04-24T11:36:35Z</time></trkpt><trkpt lat="44.530804218729756" lon="11.133530280538027"><ele>55.5</ele><time>2026-04-24T11:36:36Z</time></trkpt><trkpt lat="44.530679871342805" lon="11.133902224432697"><ele>56.0</ele><time>2026-04-24T11:36:37Z</time></trkpt><trkpt lat="44.53055262837393" lon="11.13427701260843"><ele>55.0</ele><time>2026-04-24T11:36:38Z</time></trkpt><trkpt lat="44.53042591559929" lon="11.134648943965685"><ele>54.0</ele><time>2026-04-24T11:36:39Z</time></trkpt><trkpt lat="44.53029984312706" lon="11.135018445828088"><ele>54.0</ele><time>2026-04-24T11:36:40Z</time></trkpt><trkpt lat="44.5301735164998" lon="11.135388688423241"><ele>54.0</ele><time>2026-04-24T11:36:41Z</time></trkpt><trkpt lat="44.530044396994676" lon="11.13575979277333"><ele>54.5</ele><time>2026-04-24T11:36:42Z</time></trkpt><trkpt lat="44.529917937542905" lon="11.13612932251643"><ele>55.0</ele><time>2026-04-24T11:36:43Z</time></trkpt><trkpt lat="44.529791825274856" lon="11.136502706180835"><ele>55.5</ele><time>2026-04-24T11:36:44Z</time></trkpt><trkpt lat="44.52966442202142" lon="11.136875550887282"><ele>56.0</ele><time>2026-04-24T11:36:45Z</time></trkpt><trkpt lat="44.52953452936657" lon="11.137244232486939"><ele>56.0</ele><time>2026-04-24T11:36:46Z</time></trkpt><trkpt lat="44.529407237283245" lon="11.13761251168967"><ele>56.0</ele><time>2026-04-24T11:36:47Z</time></trkpt><trkpt lat="44.52928256027439" lon="11.137983512876657"><ele>54.5</ele><time>2026-04-24T11:36:48Z</time></trkpt><trkpt lat="44.52915607713643" lon="11.138354207740273"><ele>53.0</ele><time>2026-04-24T11:36:49Z</time></trkpt><trkpt lat="44.52903076581272" lon="11.138724401096466"><ele>52.5</ele><time>2026-04-24T11:36:50Z</time></trkpt><trkpt lat="44.52890297852228" lon="11.139103638861648"><ele>52.0</ele><time>2026-04-24T11:36:51Z</time></trkpt><trkpt lat="44.52877980659178" lon="11.139470306670052"><ele>53.0</ele><time>2026-04-24T11:36:52Z</time></trkpt><trkpt lat="44.528658295811184" lon="11.139843310996028"><ele>54.0</ele><time>2026-04-24T11:36:53Z</time></trkpt><trkpt lat="44.52853707775396" lon="11.140222427322009"><ele>54.0</ele><time>2026-04-24T11:36:54Z</time></trkpt><trkpt lat="44.528411787598934" lon="11.140595574592691"><ele>54.0</ele><time>2026-04-24T11:36:55Z</time></trkpt><trkpt lat="44.52828491920468" lon="11.140964406203857"><ele>54.5</ele><time>2026-04-24T11:36:56Z</time></trkpt><trkpt lat="44.52815576920544" lon="11.1413376978845"><ele>55.0</ele><time>2026-04-24T11:36:57Z</time></trkpt><trkpt lat="44.528028866145966" lon="11.14170745806536"><ele>55.5</ele><time>2026-04-24T11:36:58Z</time></trkpt><trkpt lat="44.527904447530254" lon="11.142078394184152"><ele>56.0</ele><time>2026-04-24T11:36:59Z</time></trkpt><trkpt lat="44.52777919723392" lon="11.142449830582205"><ele>54.5</ele><time>2026-04-24T11:37:00Z</time></trkpt><trkpt lat="44.52764899366667" lon="11.142821822139085"><ele>53.0</ele><time>2026-04-24T11:37:01Z</time></trkpt><trkpt lat="44.52752195911292" lon="11.143188993575501"><ele>52.0</ele><time>2026-04-24T11:37:02Z</time></trkpt><trkpt lat="44.52739679323305" lon="11.143574592753588"><ele>51.0</ele><time>2026-04-24T11:37:03Z</time></trkpt><trkpt lat="44.527266452387806" lon="11.143944485933643"><ele>50.5</ele><time>2026-04-24T11:37:04Z</time></trkpt><trkpt lat="44.52714042967254" lon="11.1443125907164"><ele>50.0</ele><time>2026-04-24T11:37:05Z</time></trkpt><trkpt lat="44.52700907749013" lon="11.144692958473328"><ele>51.5</ele><time>2026-04-24T11:37:06Z</time></trkpt><trkpt lat="44.52688864373601" lon="11.145055445644076"><ele>53.0</ele><time>2026-04-24T11:37:07Z</time></trkpt><trkpt lat="44.52676091617828" lon="11.145427199168848"><ele>52.5</ele><time>2026-04-24T11:37:08Z</time></trkpt><trkpt lat="44.52663575947814" lon="11.145795091939988"><ele>52.0</ele><time>2026-04-24T11:37:09Z</time></trkpt><trkpt lat="44.52650771534443" lon="11.146168259293969"><ele>52.0</ele><time>2026-04-24T11:37:10Z</time></trkpt><trkpt lat="44.526380055674515" lon="11.146541180350347"><ele>52.0</ele><time>2026-04-24T11:37:11Z</time></trkpt><trkpt lat="44.52625357741858" lon="11.146912684713678"><ele>52.0</ele><time>2026-04-24T11:37:12Z</time></trkpt><trkpt lat="44.526126283390724" lon="11.147288043477158"><ele>52.0</ele><time>2026-04-24T11:37:13Z</time></trkpt><trkpt lat="44.52599981671518" lon="11.147657812299821"><ele>52.0</ele><time>2026-04-24T11:37:14Z</time></trkpt><trkpt lat="44.52587378538774" lon="11.14802673095501"><ele>52.0</ele><time>2026-04-24T11:37:15Z</time></trkpt><trkpt lat="44.52574998318319" lon="11.148395799662497"><ele>52.0</ele><time>2026-04-24T11:37:16Z</time></trkpt><trkpt lat="44.5256243697135" lon="11.148771856629494"><ele>52.0</ele><time>2026-04-24T11:37:17Z</time></trkpt><trkpt lat="44.52549949132896" lon="11.1491383368316"><ele>52.5</ele><time>2026-04-24T11:37:18Z</time></trkpt><trkpt lat="44.52537182868982" lon="11.149511493509104"><ele>53.0</ele><time>2026-04-24T11:37:19Z</time></trkpt><trkpt lat="44.52524603717476" lon="11.149883218407071"><ele>53.0</ele><time>2026-04-24T11:37:20Z</time></trkpt><trkpt lat="44.525118735860524" lon="11.150253716717744"><ele>53.0</ele><time>2026-04-24T11:37:21Z</time></trkpt><trkpt lat="44.524990739159215" lon="11.150622995066453"><ele>53.0</ele><time>2026-04-24T11:37:22Z</time></trkpt><trkpt lat="44.52486572914017" lon="11.150992500028192"><ele>53.0</ele><time>2026-04-24T11:37:23Z</time></trkpt><trkpt lat="44.52473651982941" lon="11.151369371249606"><ele>53.0</ele><time>2026-04-24T11:37:24Z</time></trkpt><trkpt lat="44.524611715119924" lon="11.151742560517333"><ele>53.0</ele><time>2026-04-24T11:37:25Z</time></trkpt><trkpt lat="44.524486694177476" lon="11.15211473201153"><ele>53.0</ele><time>2026-04-24T11:37:26Z</time></trkpt><trkpt lat="44.52436255343828" lon="11.152485492473957"><ele>53.0</ele><time>2026-04-24T11:37:27Z</time></trkpt><trkpt lat="44.52423515026881" lon="11.152855366429694"><ele>51.5</ele><time>2026-04-24T11:37:28Z</time></trkpt><trkpt lat="44.524109713577026" lon="11.153225204259805"><ele>50.0</ele><time>2026-04-24T11:37:29Z</time></trkpt><trkpt lat="44.52397920006521" lon="11.153599760932991"><ele>50.0</ele><time>2026-04-24T11:37:30Z</time></trkpt><trkpt lat="44.52385416162034" lon="11.153970726756503"><ele>50.0</ele><time>2026-04-24T11:37:31Z</time></trkpt><trkpt lat="44.523731371812154" lon="11.154341400632513"><ele>51.5</ele><time>2026-04-24T11:37:32Z</time></trkpt><trkpt lat="44.5236043550918" lon="11.154714478181965"><ele>53.0</ele><time>2026-04-24T11:37:33Z</time></trkpt><trkpt lat="44.523476818589124" lon="11.155084453044317"><ele>53.0</ele><time>2026-04-24T11:37:34Z</time></trkpt><trkpt lat="44.523349151833976" lon="11.155455220392213"><ele>53.0</ele><time>2026-04-24T11:37:35Z</time></trkpt><trkpt lat="44.52322212830138" lon="11.155825167477847"><ele>51.5</ele><time>2026-04-24T11:37:36Z</time></trkpt><trkpt lat="44.523096905891855" lon="11.156195291363575"><ele>50.0</ele><time>2026-04-24T11:37:37Z</time></trkpt><trkpt lat="44.52297005761326" lon="11.156567848623009"><ele>50.0</ele><time>2026-04-24T11:37:38Z</time></trkpt><trkpt lat="44.52284603004558" lon="11.15694210390855"><ele>50.0</ele><time>2026-04-24T11:37:39Z</time></trkpt><trkpt lat="44.522720924085945" lon="11.157316919334406"><ele>50.0</ele><time>2026-04-24T11:37:40Z</time></trkpt><trkpt lat="44.52259745411256" lon="11.157688532872536"><ele>50.0</ele><time>2026-04-24T11:37:41Z</time></trkpt><trkpt lat="44.52246952491082" lon="11.158061644071946"><ele>50.0</ele><time>2026-04-24T11:37:42Z</time></trkpt><trkpt lat="44.52233998935865" lon="11.158433532052598"><ele>50.0</ele><time>2026-04-24T11:37:43Z</time></trkpt><trkpt lat="44.52221544033939" lon="11.158801523965153"><ele>51.0</ele><time>2026-04-24T11:37:44Z</time></trkpt><trkpt lat="44.52208841881275" lon="11.159174186648091"><ele>52.0</ele><time>2026-04-24T11:37:45Z</time></trkpt><trkpt lat="44.521964021105525" lon="11.159547610391861"><ele>52.5</ele><time>2026-04-24T11:37:46Z</time></trkpt><trkpt lat="44.52183905380883" lon="11.159922586290095"><ele>53.0</ele><time>2026-04-24T11:37:47Z</time></trkpt><trkpt lat="44.521714347173955" lon="11.160294123950909"><ele>53.0</ele><time>2026-04-24T11:37:48Z</time></trkpt><trkpt lat="44.521587866551506" lon="11.160664533666303"><ele>53.0</ele><time>2026-04-24T11:37:49Z</time></trkpt><trkpt lat="44.521459972334156" lon="11.161033462762068"><ele>53.0</ele><time>2026-04-24T11:37:50Z</time></trkpt><trkpt lat="44.521332642875194" lon="11.161408737772955"><ele>53.0</ele><time>2026-04-24T11:37:51Z</time></trkpt><trkpt lat="44.52120751545139" lon="11.161778073818015"><ele>52.0</ele><time>2026-04-24T11:37:52Z</time></trkpt><trkpt lat="44.52108020923107" lon="11.162151732704714"><ele>51.0</ele><time>2026-04-24T11:37:53Z</time></trkpt><trkpt lat="44.520952179142995" lon="11.162522723507815"><ele>51.0</ele><time>2026-04-24T11:37:54Z</time></trkpt><trkpt lat="44.52082424605267" lon="11.162891250340989"><ele>51.0</ele><time>2026-04-24T11:37:55Z</time></trkpt><trkpt lat="44.52069829192161" lon="11.163260284187464"><ele>50.0</ele><time>2026-04-24T11:37:56Z</time></trkpt><trkpt lat="44.520574215952365" lon="11.163630658176368"><ele>49.0</ele><time>2026-04-24T11:37:57Z</time></trkpt><trkpt lat="44.520448108926004" lon="11.16400439162472"><ele>49.5</ele><time>2026-04-24T11:37:58Z</time></trkpt><trkpt lat="44.52032484113058" lon="11.164374839108781"><ele>50.0</ele><time>2026-04-24T11:37:59Z</time></trkpt><trkpt lat="44.52019478003385" lon="11.164749325939528"><ele>50.5</ele><time>2026-04-24T11:38:00Z</time></trkpt><trkpt lat="44.52007091407074" lon="11.165122701291736"><ele>51.0</ele><time>2026-04-24T11:38:01Z</time></trkpt><trkpt lat="44.51994365126884" lon="11.165495109796481"><ele>51.0</ele><time>2026-04-24T11:38:02Z</time></trkpt><trkpt lat="44.51981402006386" lon="11.165868296704947"><ele>51.0</ele><time>2026-04-24T11:38:03Z</time></trkpt><trkpt lat="44.51969076808436" lon="11.166237834422926"><ele>51.5</ele><time>2026-04-24T11:38:04Z</time></trkpt><trkpt lat="44.51956351398638" lon="11.166610987948326"><ele>52.0</ele><time>2026-04-24T11:38:05Z</time></trkpt><trkpt lat="44.519438710403165" lon="11.166984950129871"><ele>52.0</ele><time>2026-04-24T11:38:06Z</time></trkpt><trkpt lat="44.5193142723971" lon="11.167356468290167"><ele>52.0</ele><time>2026-04-24T11:38:07Z</time></trkpt><trkpt lat="44.5191916520217" lon="11.167725803722487"><ele>52.5</ele><time>2026-04-24T11:38:08Z</time></trkpt><trkpt lat="44.519063810231145" lon="11.168103046957372"><ele>53.0</ele><time>2026-04-24T11:38:09Z</time></trkpt><trkpt lat="44.5189375418181" lon="11.168475542857156"><ele>53.0</ele><time>2026-04-24T11:38:10Z</time></trkpt><trkpt lat="44.518807861721925" lon="11.16885109570808"><ele>53.0</ele><time>2026-04-24T11:38:11Z</time></trkpt><trkpt lat="44.51868084932192" lon="11.169223209229841"><ele>52.0</ele><time>2026-04-24T11:38:12Z</time></trkpt><trkpt lat="44.518551533511804" lon="11.169595527750184"><ele>51.0</ele><time>2026-04-24T11:38:13Z</time></trkpt><trkpt lat="44.518420776363456" lon="11.169968268148635"><ele>51.0</ele><time>2026-04-24T11:38:14Z</time></trkpt><trkpt lat="44.51829470244427" lon="11.170334064261631"><ele>51.0</ele><time>2026-04-24T11:38:15Z</time></trkpt><trkpt lat="44.51816347604116" lon="11.170706643335087"><ele>51.0</ele><time>2026-04-24T11:38:16Z</time></trkpt><trkpt lat="44.51803615475938" lon="11.171079800399955"><ele>51.0</ele><time>2026-04-24T11:38:17Z</time></trkpt><trkpt lat="44.51790976680455" lon="11.171446524519183"><ele>51.5</ele><time>2026-04-24T11:38:18Z</time></trkpt><trkpt lat="44.517775225728066" lon="11.171811308041383"><ele>52.0</ele><time>2026-04-24T11:38:19Z</time></trkpt><trkpt lat="44.51763968844346" lon="11.17217582573432"><ele>51.0</ele><time>2026-04-24T11:38:20Z</time></trkpt><trkpt lat="44.517505370558744" lon="11.172542663329441"><ele>50.0</ele><time>2026-04-24T11:38:21Z</time></trkpt><trkpt lat="44.51737516737241" lon="11.172912221406625"><ele>51.0</ele><time>2026-04-24T11:38:22Z</time></trkpt><trkpt lat="44.51725146031423" lon="11.173270765324515"><ele>52.0</ele><time>2026-04-24T11:38:23Z</time></trkpt><trkpt lat="44.5171169355807" lon="11.173646902828816"><ele>52.0</ele><time>2026-04-24T11:38:24Z</time></trkpt><trkpt lat="44.516983283572394" lon="11.17401144254275"><ele>52.0</ele><time>2026-04-24T11:38:25Z</time></trkpt><trkpt lat="44.51685211025013" lon="11.174378581458667"><ele>52.0</ele><time>2026-04-24T11:38:26Z</time></trkpt><trkpt lat="44.51672185879847" lon="11.174747207362103"><ele>52.0</ele><time>2026-04-24T11:38:27Z</time></trkpt><trkpt lat="44.51658951429819" lon="11.175114609122508"><ele>53.0</ele><time>2026-04-24T11:38:28Z</time></trkpt><trkpt lat="44.51645807941789" lon="11.1754784791401"><ele>54.0</ele><time>2026-04-24T11:38:29Z</time></trkpt><trkpt lat="44.51632372718956" lon="11.175845646283317"><ele>51.5</ele><time>2026-04-24T11:38:30Z</time></trkpt><trkpt lat="44.516191012299274" lon="11.176214894382491"><ele>49.0</ele><time>2026-04-24T11:38:31Z</time></trkpt><trkpt lat="44.516059594177065" lon="11.176585585547562"><ele>49.0</ele><time>2026-04-24T11:38:32Z</time></trkpt><trkpt lat="44.515928769852515" lon="11.17695301397983"><ele>49.0</ele><time>2026-04-24T11:38:33Z</time></trkpt><trkpt lat="44.515797469500306" lon="11.177317484922908"><ele>48.5</ele><time>2026-04-24T11:38:34Z</time></trkpt><trkpt lat="44.51566441274288" lon="11.177680569604462"><ele>48.0</ele><time>2026-04-24T11:38:35Z</time></trkpt><trkpt lat="44.51553052351055" lon="11.178050642138487"><ele>47.0</ele><time>2026-04-24T11:38:36Z</time></trkpt><trkpt lat="44.515400433595104" lon="11.178415300498218"><ele>46.0</ele><time>2026-04-24T11:38:37Z</time></trkpt><trkpt lat="44.515269095387765" lon="11.178783700385349"><ele>47.5</ele><time>2026-04-24T11:38:38Z</time></trkpt><trkpt lat="44.51513497702686" lon="11.179152553302746"><ele>49.0</ele><time>2026-04-24T11:38:39Z</time></trkpt><trkpt lat="44.5150017249292" lon="11.179519385810549"><ele>48.0</ele><time>2026-04-24T11:38:40Z</time></trkpt><trkpt lat="44.51487129565979" lon="11.179883369038464"><ele>47.0</ele><time>2026-04-24T11:38:41Z</time></trkpt><trkpt lat="44.51473850382373" lon="11.180254796387583"><ele>47.0</ele><time>2026-04-24T11:38:42Z</time></trkpt><trkpt lat="44.51460574318795" lon="11.18062269424273"><ele>47.0</ele><time>2026-04-24T11:38:43Z</time></trkpt><trkpt lat="44.51447410016955" lon="11.18099447462527"><ele>48.5</ele><time>2026-04-24T11:38:44Z</time></trkpt><trkpt lat="44.51434447501046" lon="11.181363160645498"><ele>50.0</ele><time>2026-04-24T11:38:45Z</time></trkpt><trkpt lat="44.51421112568558" lon="11.18173379354965"><ele>50.0</ele><time>2026-04-24T11:38:46Z</time></trkpt><trkpt lat="44.51408196459321" lon="11.182100642135824"><ele>50.0</ele><time>2026-04-24T11:38:47Z</time></trkpt><trkpt lat="44.513951205947045" lon="11.182473331908964"><ele>49.5</ele><time>2026-04-24T11:38:48Z</time></trkpt><trkpt lat="44.51382592274925" lon="11.182844741239139"><ele>49.0</ele><time>2026-04-24T11:38:49Z</time></trkpt><trkpt lat="44.51369442854483" lon="11.183218810787375"><ele>50.0</ele><time>2026-04-24T11:38:50Z</time></trkpt><trkpt lat="44.51356333469724" lon="11.183586444813287"><ele>51.0</ele><time>2026-04-24T11:38:51Z</time></trkpt><trkpt lat="44.51343040049347" lon="11.183953289928601"><ele>49.5</ele><time>2026-04-24T11:38:52Z</time></trkpt><trkpt lat="44.51329926687203" lon="11.18432019491047"><ele>48.0</ele><time>2026-04-24T11:38:53Z</time></trkpt><trkpt lat="44.51316725631727" lon="11.184688603682387"><ele>49.0</ele><time>2026-04-24T11:38:54Z</time></trkpt><trkpt lat="44.513037070555555" lon="11.18505869527494"><ele>50.0</ele><time>2026-04-24T11:38:55Z</time></trkpt><trkpt lat="44.51290705219947" lon="11.185425845299227"><ele>49.5</ele><time>2026-04-24T11:38:56Z</time></trkpt><trkpt lat="44.5127773884261" lon="11.185796632227113"><ele>49.0</ele><time>2026-04-24T11:38:57Z</time></trkpt><trkpt lat="44.51264790171919" lon="11.186161006588001"><ele>50.5</ele><time>2026-04-24T11:38:58Z</time></trkpt><trkpt lat="44.51251470147306" lon="11.186529374411734"><ele>52.0</ele><time>2026-04-24T11:38:59Z</time></trkpt><trkpt lat="44.51238146763722" lon="11.186898049601059"><ele>52.0</ele><time>2026-04-24T11:39:00Z</time></trkpt><trkpt lat="44.51224946260667" lon="11.18726353228993"><ele>52.0</ele><time>2026-04-24T11:39:01Z</time></trkpt><trkpt lat="44.51211562842445" lon="11.187631607032372"><ele>52.5</ele><time>2026-04-24T11:39:02Z</time></trkpt><trkpt lat="44.511983282621976" lon="11.187999944264286"><ele>53.0</ele><time>2026-04-24T11:39:03Z</time></trkpt><trkpt lat="44.511859371590624" lon="11.188359870405941"><ele>53.0</ele><time>2026-04-24T11:39:04Z</time></trkpt><trkpt lat="44.51172266742973" lon="11.188736239468925"><ele>53.0</ele><time>2026-04-24T11:39:05Z</time></trkpt><trkpt lat="44.511593575875324" lon="11.189103047758858"><ele>53.0</ele><time>2026-04-24T11:39:06Z</time></trkpt><trkpt lat="44.51146113654343" lon="11.189473473837865"><ele>53.0</ele><time>2026-04-24T11:39:07Z</time></trkpt><trkpt lat="44.51132022778497" lon="11.1898588785717"><ele>53.0</ele><time>2026-04-24T11:39:08Z</time></trkpt><trkpt lat="44.51118542909265" lon="11.190217067698143"><ele>53.0</ele><time>2026-04-24T11:39:09Z</time></trkpt><trkpt lat="44.51105035360696" lon="11.190575645372544"><ele>53.0</ele><time>2026-04-24T11:39:10Z</time></trkpt><trkpt lat="44.51091839006645" lon="11.190940065778241"><ele>53.0</ele><time>2026-04-24T11:39:11Z</time></trkpt><trkpt lat="44.51078571016508" lon="11.191307519071232"><ele>52.5</ele><time>2026-04-24T11:39:12Z</time></trkpt><trkpt lat="44.51065606351783" lon="11.191673154715263"><ele>52.0</ele><time>2026-04-24T11:39:13Z</time></trkpt><trkpt lat="44.510524879026065" lon="11.192039978073545"><ele>54.5</ele><time>2026-04-24T11:39:14Z</time></trkpt><trkpt lat="44.51038929200593" lon="11.192400301793693"><ele>57.0</ele><time>2026-04-24T11:39:15Z</time></trkpt><trkpt lat="44.51024574256589" lon="11.192760243598864"><ele>57.0</ele><time>2026-04-24T11:39:16Z</time></trkpt><trkpt lat="44.51010504193324" lon="11.193119651434017"><ele>57.0</ele><time>2026-04-24T11:39:17Z</time></trkpt><trkpt lat="44.50997107305985" lon="11.193482869208855"><ele>57.0</ele><time>2026-04-24T11:39:18Z</time></trkpt><trkpt lat="44.509838100678756" lon="11.19385361150405"><ele>57.0</ele><time>2026-04-24T11:39:19Z</time></trkpt><trkpt lat="44.50970760795988" lon="11.194221812521345"><ele>56.0</ele><time>2026-04-24T11:39:20Z</time></trkpt><trkpt lat="44.50957604473907" lon="11.194587835264603"><ele>55.0</ele><time>2026-04-24T11:39:21Z</time></trkpt><trkpt lat="44.509443083839116" lon="11.194956518608597"><ele>54.5</ele><time>2026-04-24T11:39:22Z</time></trkpt><trkpt lat="44.50930866265517" lon="11.195326163782084"><ele>54.0</ele><time>2026-04-24T11:39:23Z</time></trkpt><trkpt lat="44.50917440274698" lon="11.195698393629671"><ele>53.5</ele><time>2026-04-24T11:39:24Z</time></trkpt><trkpt lat="44.50904196882374" lon="11.196066080152159"><ele>53.0</ele><time>2026-04-24T11:39:25Z</time></trkpt><trkpt lat="44.50891104826878" lon="11.19643532392106"><ele>54.5</ele><time>2026-04-24T11:39:26Z</time></trkpt><trkpt lat="44.50878032084323" lon="11.196804680249594"><ele>56.0</ele><time>2026-04-24T11:39:27Z</time></trkpt><trkpt lat="44.50864882590601" lon="11.197171664895276"><ele>56.5</ele><time>2026-04-24T11:39:28Z</time></trkpt><trkpt lat="44.50851673774156" lon="11.197540463354606"><ele>57.0</ele><time>2026-04-24T11:39:29Z</time></trkpt><trkpt lat="44.50838054127038" lon="11.197910835911197"><ele>57.0</ele><time>2026-04-24T11:39:30Z</time></trkpt><trkpt lat="44.50824572197753" lon="11.198281907948202"><ele>57.0</ele><time>2026-04-24T11:39:31Z</time></trkpt><trkpt lat="44.508110265664556" lon="11.198644558036406"><ele>57.0</ele><time>2026-04-24T11:39:32Z</time></trkpt><trkpt lat="44.50797561666617" lon="11.199012728716115"><ele>57.0</ele><time>2026-04-24T11:39:33Z</time></trkpt><trkpt lat="44.507845248520155" lon="11.19938541602374"><ele>57.0</ele><time>2026-04-24T11:39:34Z</time></trkpt><trkpt lat="44.50771308733811" lon="11.199758865320458"><ele>57.0</ele><time>2026-04-24T11:39:35Z</time></trkpt><trkpt lat="44.507580050601874" lon="11.200125328424349"><ele>57.0</ele><time>2026-04-24T11:39:36Z</time></trkpt><trkpt lat="44.507446109648924" lon="11.20049436587605"><ele>57.0</ele><time>2026-04-24T11:39:37Z</time></trkpt><trkpt lat="44.50731501117839" lon="11.200860429651664"><ele>57.0</ele><time>2026-04-24T11:39:38Z</time></trkpt><trkpt lat="44.507184266056214" lon="11.201231257108208"><ele>57.0</ele><time>2026-04-24T11:39:39Z</time></trkpt><trkpt lat="44.50706104898028" lon="11.201607003348695"><ele>57.0</ele><time>2026-04-24T11:39:40Z</time></trkpt><trkpt lat="44.50693968691481" lon="11.201985996780197"><ele>57.0</ele><time>2026-04-24T11:39:41Z</time></trkpt><trkpt lat="44.50681565157371" lon="11.202353537394002"><ele>57.0</ele><time>2026-04-24T11:39:42Z</time></trkpt><trkpt lat="44.50667994672564" lon="11.202721202735681"><ele>57.0</ele><time>2026-04-24T11:39:43Z</time></trkpt><trkpt lat="44.506543722822805" lon="11.20308590839877"><ele>56.0</ele><time>2026-04-24T11:39:44Z</time></trkpt><trkpt lat="44.506407330237344" lon="11.203452396721827"><ele>55.0</ele><time>2026-04-24T11:39:45Z</time></trkpt><trkpt lat="44.50627199020736" lon="11.203812138411342"><ele>55.5</ele><time>2026-04-24T11:39:46Z</time></trkpt><trkpt lat="44.50614684309583" lon="11.204178470042466"><ele>56.0</ele><time>2026-04-24T11:39:47Z</time></trkpt><trkpt lat="44.50601546469943" lon="11.204549395730158"><ele>55.5</ele><time>2026-04-24T11:39:48Z</time></trkpt><trkpt lat="44.50588372813411" lon="11.204917284886477"><ele>55.0</ele><time>2026-04-24T11:39:49Z</time></trkpt><trkpt lat="44.505751447925036" lon="11.205285759269998"><ele>55.0</ele><time>2026-04-24T11:39:50Z</time></trkpt><trkpt lat="44.505616915030664" lon="11.20565716957853"><ele>55.0</ele><time>2026-04-24T11:39:51Z</time></trkpt><trkpt lat="44.505485440185225" lon="11.206022522741046"><ele>55.5</ele><time>2026-04-24T11:39:52Z</time></trkpt><trkpt lat="44.50535307796973" lon="11.20638974184194"><ele>56.0</ele><time>2026-04-24T11:39:53Z</time></trkpt><trkpt lat="44.50521944229725" lon="11.206756106975673"><ele>56.0</ele><time>2026-04-24T11:39:54Z</time></trkpt><trkpt lat="44.50508674553418" lon="11.207123954551436"><ele>56.0</ele><time>2026-04-24T11:39:55Z</time></trkpt><trkpt lat="44.5049528171882" lon="11.20749126182086"><ele>57.0</ele><time>2026-04-24T11:39:56Z</time></trkpt><trkpt lat="44.50481946113452" lon="11.207860620243835"><ele>58.0</ele><time>2026-04-24T11:39:57Z</time></trkpt><trkpt lat="44.50468844225833" lon="11.20822665718017"><ele>58.0</ele><time>2026-04-24T11:39:58Z</time></trkpt><trkpt lat="44.50455646749225" lon="11.208596012951134"><ele>58.0</ele><time>2026-04-24T11:39:59Z</time></trkpt><trkpt lat="44.50442528048098" lon="11.208964963768544"><ele>58.0</ele><time>2026-04-24T11:40:00Z</time></trkpt><trkpt lat="44.504292447315784" lon="11.209335810621221"><ele>58.0</ele><time>2026-04-24T11:40:01Z</time></trkpt><trkpt lat="44.50416054476214" lon="11.209700873933517"><ele>58.0</ele><time>2026-04-24T11:40:02Z</time></trkpt><trkpt lat="44.50402965081759" lon="11.210066155001146"><ele>58.0</ele><time>2026-04-24T11:40:03Z</time></trkpt><trkpt lat="44.50389519050285" lon="11.210433817957513"><ele>58.0</ele><time>2026-04-24T11:40:04Z</time></trkpt><trkpt lat="44.50375891310608" lon="11.2107981667466"><ele>58.0</ele><time>2026-04-24T11:40:05Z</time></trkpt><trkpt lat="44.503617832863526" lon="11.211159856879146"><ele>58.5</ele><time>2026-04-24T11:40:06Z</time></trkpt><trkpt lat="44.50347340898418" lon="11.211521617072961"><ele>59.0</ele><time>2026-04-24T11:40:07Z</time></trkpt><trkpt lat="44.50333377542581" lon="11.211882594077313"><ele>59.0</ele><time>2026-04-24T11:40:08Z</time></trkpt><trkpt lat="44.50319811519425" lon="11.212249809279953"><ele>59.0</ele><time>2026-04-24T11:40:09Z</time></trkpt><trkpt lat="44.50306501923098" lon="11.21262021773732"><ele>59.5</ele><time>2026-04-24T11:40:10Z</time></trkpt><trkpt lat="44.50293390702396" lon="11.212986671503451"><ele>60.0</ele><time>2026-04-24T11:40:11Z</time></trkpt><trkpt lat="44.50280097997731" lon="11.213356025481097"><ele>60.0</ele><time>2026-04-24T11:40:12Z</time></trkpt><trkpt lat="44.5026681496689" lon="11.213727157819287"><ele>60.0</ele><time>2026-04-24T11:40:13Z</time></trkpt><trkpt lat="44.50253666041992" lon="11.214091133473563"><ele>60.0</ele><time>2026-04-24T11:40:14Z</time></trkpt><trkpt lat="44.502403462032355" lon="11.21445922570761"><ele>60.0</ele><time>2026-04-24T11:40:15Z</time></trkpt><trkpt lat="44.50226953438188" lon="11.214827119500928"><ele>59.5</ele><time>2026-04-24T11:40:16Z</time></trkpt><trkpt lat="44.502135667027794" lon="11.215193774277614"><ele>59.0</ele><time>2026-04-24T11:40:17Z</time></trkpt><trkpt lat="44.50200079672533" lon="11.215564384968399"><ele>60.5</ele><time>2026-04-24T11:40:18Z</time></trkpt><trkpt lat="44.50186865365176" lon="11.21593633887991"><ele>62.0</ele><time>2026-04-24T11:40:19Z</time></trkpt><trkpt lat="44.50173496501756" lon="11.216297265657035"><ele>61.5</ele><time>2026-04-24T11:40:20Z</time></trkpt><trkpt lat="44.501600775894715" lon="11.216664011083015"><ele>61.0</ele><time>2026-04-24T11:40:21Z</time></trkpt><trkpt lat="44.50146606828001" lon="11.217030899773448"><ele>61.5</ele><time>2026-04-24T11:40:22Z</time></trkpt><trkpt lat="44.501333859922575" lon="11.217401833601928"><ele>62.0</ele><time>2026-04-24T11:40:23Z</time></trkpt><trkpt lat="44.50120280093757" lon="11.217770194435404"><ele>62.5</ele><time>2026-04-24T11:40:24Z</time></trkpt><trkpt lat="44.50107233089821" lon="11.218139951509963"><ele>63.0</ele><time>2026-04-24T11:40:25Z</time></trkpt><trkpt lat="44.50093980335872" lon="11.21851390152739"><ele>63.0</ele><time>2026-04-24T11:40:26Z</time></trkpt><trkpt lat="44.50080637191127" lon="11.21888039595289"><ele>63.0</ele><time>2026-04-24T11:40:27Z</time></trkpt><trkpt lat="44.50067104129404" lon="11.219247241376195"><ele>63.0</ele><time>2026-04-24T11:40:28Z</time></trkpt><trkpt lat="44.500535099996895" lon="11.219610346632814"><ele>63.0</ele><time>2026-04-24T11:40:29Z</time></trkpt><trkpt lat="44.50040058149542" lon="11.21997571421648"><ele>63.0</ele><time>2026-04-24T11:40:30Z</time></trkpt><trkpt lat="44.50026805016127" lon="11.22034323837195"><ele>63.0</ele><time>2026-04-24T11:40:31Z</time></trkpt><trkpt lat="44.50013353417795" lon="11.220714006602956"><ele>63.0</ele><time>2026-04-24T11:40:32Z</time></trkpt><trkpt lat="44.5000039779031" lon="11.221081963717786"><ele>63.0</ele><time>2026-04-24T11:40:33Z</time></trkpt><trkpt lat="44.4998725126793" lon="11.221447462882313"><ele>62.0</ele><time>2026-04-24T11:40:34Z</time></trkpt><trkpt lat="44.499738754114354" lon="11.221819477083105"><ele>61.0</ele><time>2026-04-24T11:40:35Z</time></trkpt><trkpt lat="44.49960650959644" lon="11.222185518064713"><ele>63.0</ele><time>2026-04-24T11:40:36Z</time></trkpt><trkpt lat="44.49947485262152" lon="11.22255485021255"><ele>65.0</ele><time>2026-04-24T11:40:37Z</time></trkpt><trkpt lat="44.49934471450872" lon="11.222919921502692"><ele>65.5</ele><time>2026-04-24T11:40:38Z</time></trkpt><trkpt lat="44.499213284806046" lon="11.22329101578431"><ele>66.0</ele><time>2026-04-24T11:40:39Z</time></trkpt><trkpt lat="44.49908334431989" lon="11.22365565203261"><ele>65.5</ele><time>2026-04-24T11:40:40Z</time></trkpt><trkpt lat="44.49895040655147" lon="11.224029233088592"><ele>65.0</ele><time>2026-04-24T11:40:41Z</time></trkpt><trkpt lat="44.49881526781962" lon="11.224390920073095"><ele>65.5</ele><time>2026-04-24T11:40:42Z</time></trkpt><trkpt lat="44.49867804538688" lon="11.22475688681545"><ele>66.0</ele><time>2026-04-24T11:40:43Z</time></trkpt><trkpt lat="44.49854276317581" lon="11.22512209270976"><ele>65.0</ele><time>2026-04-24T11:40:44Z</time></trkpt><trkpt lat="44.49841341104021" lon="11.225489992192202"><ele>64.0</ele><time>2026-04-24T11:40:45Z</time></trkpt><trkpt lat="44.49828385244181" lon="11.225863837124878"><ele>64.0</ele><time>2026-04-24T11:40:46Z</time></trkpt><trkpt lat="44.49815173984641" lon="11.22623063178188"><ele>64.0</ele><time>2026-04-24T11:40:47Z</time></trkpt><trkpt lat="44.49801879640505" lon="11.226601646318132"><ele>65.0</ele><time>2026-04-24T11:40:48Z</time></trkpt><trkpt lat="44.497888854722035" lon="11.226974879211925"><ele>66.0</ele><time>2026-04-24T11:40:49Z</time></trkpt><trkpt lat="44.497762994630286" lon="11.227350195059584"><ele>66.0</ele><time>2026-04-24T11:40:50Z</time></trkpt><trkpt lat="44.497637171276324" lon="11.227728210158562"><ele>66.0</ele><time>2026-04-24T11:40:51Z</time></trkpt><trkpt lat="44.49751137653678" lon="11.228100004994289"><ele>65.0</ele><time>2026-04-24T11:40:52Z</time></trkpt><trkpt lat="44.49737821220525" lon="11.228463666302947"><ele>64.0</ele><time>2026-04-24T11:40:53Z</time></trkpt><trkpt lat="44.49724311894731" lon="11.22882570396125"><ele>64.5</ele><time>2026-04-24T11:40:54Z</time></trkpt><trkpt lat="44.49710826197086" lon="11.229188386689328"><ele>65.0</ele><time>2026-04-24T11:40:55Z</time></trkpt><trkpt lat="44.49697086671406" lon="11.229548175161582"><ele>67.0</ele><time>2026-04-24T11:40:56Z</time></trkpt><trkpt lat="44.49682879584082" lon="11.229908020238799"><ele>69.0</ele><time>2026-04-24T11:40:57Z</time></trkpt><trkpt lat="44.496686776831815" lon="11.230273343914494"><ele>69.0</ele><time>2026-04-24T11:40:58Z</time></trkpt><trkpt lat="44.49654967263659" lon="11.230637690283514"><ele>69.0</ele><time>2026-04-24T11:40:59Z</time></trkpt><trkpt lat="44.49641892970875" lon="11.231007294910558"><ele>69.5</ele><time>2026-04-24T11:41:00Z</time></trkpt><trkpt lat="44.496287548153475" lon="11.231376876090529"><ele>70.0</ele><time>2026-04-24T11:41:01Z</time></trkpt><trkpt lat="44.496154298978375" lon="11.231743262503592"><ele>68.5</ele><time>2026-04-24T11:41:02Z</time></trkpt><trkpt lat="44.496019625972345" lon="11.232111853857743"><ele>67.0</ele><time>2026-04-24T11:41:03Z</time></trkpt><trkpt lat="44.49588528578518" lon="11.23248092701963"><ele>67.0</ele><time>2026-04-24T11:41:04Z</time></trkpt><trkpt lat="44.495752089816484" lon="11.23284847012091"><ele>67.0</ele><time>2026-04-24T11:41:05Z</time></trkpt><trkpt lat="44.495619599337275" lon="11.233214909895844"><ele>67.0</ele><time>2026-04-24T11:41:06Z</time></trkpt><trkpt lat="44.49548940060685" lon="11.233587852069405"><ele>67.0</ele><time>2026-04-24T11:41:07Z</time></trkpt><trkpt lat="44.495363964344065" lon="11.233959389487385"><ele>68.0</ele><time>2026-04-24T11:41:08Z</time></trkpt><trkpt lat="44.49524061328467" lon="11.234331738449182"><ele>69.0</ele><time>2026-04-24T11:41:09Z</time></trkpt><trkpt lat="44.495117151958766" lon="11.234703773855177"><ele>69.0</ele><time>2026-04-24T11:41:10Z</time></trkpt><trkpt lat="44.49498921225205" lon="11.23507369530378"><ele>69.0</ele><time>2026-04-24T11:41:11Z</time></trkpt><trkpt lat="44.494856982384434" lon="11.235438391204685"><ele>68.5</ele><time>2026-04-24T11:41:12Z</time></trkpt><trkpt lat="44.494725496136795" lon="11.235808994026002"><ele>68.0</ele><time>2026-04-24T11:41:13Z</time></trkpt><trkpt lat="44.49459388244577" lon="11.236172545713272"><ele>67.5</ele><time>2026-04-24T11:41:14Z</time></trkpt><trkpt lat="44.49446255013069" lon="11.236541666818626"><ele>67.0</ele><time>2026-04-24T11:41:15Z</time></trkpt><trkpt lat="44.49433146378872" lon="11.236906272310996"><ele>67.0</ele><time>2026-04-24T11:41:16Z</time></trkpt><trkpt lat="44.49419978290912" lon="11.23727257737662"><ele>67.0</ele><time>2026-04-24T11:41:17Z</time></trkpt><trkpt lat="44.49406619825717" lon="11.237639144616228"><ele>68.5</ele><time>2026-04-24T11:41:18Z</time></trkpt><trkpt lat="44.49392923207687" lon="11.238000088252717"><ele>70.0</ele><time>2026-04-24T11:41:19Z</time></trkpt><trkpt lat="44.49378844199102" lon="11.23836124389601"><ele>70.5</ele><time>2026-04-24T11:41:20Z</time></trkpt><trkpt lat="44.493646562918975" lon="11.238718770231502"><ele>71.0</ele><time>2026-04-24T11:41:21Z</time></trkpt><trkpt lat="44.49351116386492" lon="11.23908823255826"><ele>70.0</ele><time>2026-04-24T11:41:22Z</time></trkpt><trkpt lat="44.49337702545152" lon="11.23945105973781"><ele>69.0</ele><time>2026-04-24T11:41:23Z</time></trkpt><trkpt lat="44.49324144279606" lon="11.23981796088751"><ele>68.5</ele><time>2026-04-24T11:41:24Z</time></trkpt><trkpt lat="44.49310811262014" lon="11.240182517421138"><ele>68.0</ele><time>2026-04-24T11:41:25Z</time></trkpt><trkpt lat="44.492974973689755" lon="11.240553351542209"><ele>67.5</ele><time>2026-04-24T11:41:26Z</time></trkpt><trkpt lat="44.492845760768276" lon="11.24091538185999"><ele>67.0</ele><time>2026-04-24T11:41:27Z</time></trkpt><trkpt lat="44.49271010650312" lon="11.241285579285664"><ele>67.0</ele><time>2026-04-24T11:41:28Z</time></trkpt><trkpt lat="44.492574034190774" lon="11.241654308668188"><ele>67.0</ele><time>2026-04-24T11:41:29Z</time></trkpt><trkpt lat="44.49243964266029" lon="11.242020818852925"><ele>67.0</ele><time>2026-04-24T11:41:30Z</time></trkpt><trkpt lat="44.492305848835976" lon="11.242390631190846"><ele>67.0</ele><time>2026-04-24T11:41:31Z</time></trkpt><trkpt lat="44.49217387864354" lon="11.24275836083799"><ele>66.5</ele><time>2026-04-24T11:41:32Z</time></trkpt><trkpt lat="44.49204369225979" lon="11.243122778567907"><ele>66.0</ele><time>2026-04-24T11:41:33Z</time></trkpt><trkpt lat="44.49191136603538" lon="11.24348670666487"><ele>65.5</ele><time>2026-04-24T11:41:34Z</time></trkpt><trkpt lat="44.491777746042125" lon="11.24385556343271"><ele>65.0</ele><time>2026-04-24T11:41:35Z</time></trkpt><trkpt lat="44.49164482332884" lon="11.244221724647444"><ele>65.0</ele><time>2026-04-24T11:41:36Z</time></trkpt><trkpt lat="44.49151473994579" lon="11.244594697153355"><ele>65.0</ele><time>2026-04-24T11:41:37Z</time></trkpt><trkpt lat="44.491379504756" lon="11.24495847299363"><ele>66.0</ele><time>2026-04-24T11:41:38Z</time></trkpt><trkpt lat="44.49124923086738" lon="11.2453308802155"><ele>67.0</ele><time>2026-04-24T11:41:39Z</time></trkpt><trkpt lat="44.49111134303131" lon="11.24570079080341"><ele>67.0</ele><time>2026-04-24T11:41:40Z</time></trkpt><trkpt lat="44.490977044468835" lon="11.246066622830183"><ele>67.0</ele><time>2026-04-24T11:41:41Z</time></trkpt><trkpt lat="44.49084594588984" lon="11.246431482438064"><ele>66.0</ele><time>2026-04-24T11:41:42Z</time></trkpt><trkpt lat="44.49071748927626" lon="11.246800516764319"><ele>65.0</ele><time>2026-04-24T11:41:43Z</time></trkpt><trkpt lat="44.490582188053395" lon="11.2471682443259"><ele>64.5</ele><time>2026-04-24T11:41:44Z</time></trkpt><trkpt lat="44.49045035082581" lon="11.247532413312673"><ele>64.0</ele><time>2026-04-24T11:41:45Z</time></trkpt><trkpt lat="44.490320879380754" lon="11.24790182810517"><ele>65.5</ele><time>2026-04-24T11:41:46Z</time></trkpt><trkpt lat="44.49019077891949" lon="11.248268229410016"><ele>67.0</ele><time>2026-04-24T11:41:47Z</time></trkpt><trkpt lat="44.490058814605185" lon="11.248638338385167"><ele>66.5</ele><time>2026-04-24T11:41:48Z</time></trkpt><trkpt lat="44.4899236600938" lon="11.249006769346282"><ele>66.0</ele><time>2026-04-24T11:41:49Z</time></trkpt><trkpt lat="44.48979619042546" lon="11.249373062840867"><ele>66.0</ele><time>2026-04-24T11:41:50Z</time></trkpt><trkpt lat="44.48965978809503" lon="11.249740606795052"><ele>66.0</ele><time>2026-04-24T11:41:51Z</time></trkpt><trkpt lat="44.48952859501318" lon="11.250105124488018"><ele>66.5</ele><time>2026-04-24T11:41:52Z</time></trkpt><trkpt lat="44.48939065489376" lon="11.250467344960475"><ele>67.0</ele><time>2026-04-24T11:41:53Z</time></trkpt><trkpt lat="44.48925191907252" lon="11.250830182581389"><ele>67.0</ele><time>2026-04-24T11:41:54Z</time></trkpt><trkpt lat="44.4891098502867" lon="11.25119437483114"><ele>67.0</ele><time>2026-04-24T11:41:55Z</time></trkpt><trkpt lat="44.48896476182193" lon="11.251553085503376"><ele>67.5</ele><time>2026-04-24T11:41:56Z</time></trkpt><trkpt lat="44.48881277651437" lon="11.25191046991151"><ele>68.0</ele><time>2026-04-24T11:41:57Z</time></trkpt><trkpt lat="44.48866007563764" lon="11.252260079726073"><ele>68.0</ele><time>2026-04-24T11:41:58Z</time></trkpt><trkpt lat="44.48850262266677" lon="11.252609047162078"><ele>68.0</ele><time>2026-04-24T11:41:59Z</time></trkpt><trkpt lat="44.48834372476444" lon="11.252954782968114"><ele>66.5</ele><time>2026-04-24T11:42:00Z</time></trkpt><trkpt lat="44.488180861019046" lon="11.253303945467197"><ele>65.0</ele><time>2026-04-24T11:42:01Z</time></trkpt><trkpt lat="44.488015301478335" lon="11.253642691366556"><ele>65.5</ele><time>2026-04-24T11:42:02Z</time></trkpt><trkpt lat="44.487844450880935" lon="11.253980328847705"><ele>66.0</ele><time>2026-04-24T11:42:03Z</time></trkpt><trkpt lat="44.48766842027443" lon="11.254302179021101"><ele>66.0</ele><time>2026-04-24T11:42:04Z</time></trkpt><trkpt lat="44.48748587265166" lon="11.25462557266657"><ele>66.0</ele><time>2026-04-24T11:42:05Z</time></trkpt><trkpt lat="44.48729537663919" lon="11.25495444851696"><ele>65.5</ele><time>2026-04-24T11:42:06Z</time></trkpt><trkpt lat="44.48711935842844" lon="11.255274278027949"><ele>65.0</ele><time>2026-04-24T11:42:07Z</time></trkpt><trkpt lat="44.486932400236846" lon="11.255592825105607"><ele>65.5</ele><time>2026-04-24T11:42:08Z</time></trkpt><trkpt lat="44.486740264209125" lon="11.255908363380144"><ele>66.0</ele><time>2026-04-24T11:42:09Z</time></trkpt><trkpt lat="44.486545697407905" lon="11.256213070335694"><ele>66.5</ele><time>2026-04-24T11:42:10Z</time></trkpt><trkpt lat="44.48634994297878" lon="11.25652316897017"><ele>67.0</ele><time>2026-04-24T11:42:11Z</time></trkpt><trkpt lat="44.48614819687108" lon="11.25682414525784"><ele>67.0</ele><time>2026-04-24T11:42:12Z</time></trkpt><trkpt lat="44.48594700208707" lon="11.257124917668976"><ele>67.0</ele><time>2026-04-24T11:42:13Z</time></trkpt><trkpt lat="44.48574580869961" lon="11.257425622838504"><ele>66.5</ele><time>2026-04-24T11:42:14Z</time></trkpt><trkpt lat="44.48553980623728" lon="11.25772018829892"><ele>66.0</ele><time>2026-04-24T11:42:15Z</time></trkpt><trkpt lat="44.485327615379994" lon="11.258007566130038"><ele>65.5</ele><time>2026-04-24T11:42:16Z</time></trkpt><trkpt lat="44.485113108243645" lon="11.258294447651888"><ele>65.0</ele><time>2026-04-24T11:42:17Z</time></trkpt><trkpt lat="44.484894315612394" lon="11.258565957303514"><ele>65.0</ele><time>2026-04-24T11:42:18Z</time></trkpt><trkpt lat="44.4846688939576" lon="11.258828532488291"><ele>65.0</ele><time>2026-04-24T11:42:19Z</time></trkpt><trkpt lat="44.4844429084428" lon="11.259089710211066"><ele>67.5</ele><time>2026-04-24T11:42:20Z</time></trkpt><trkpt lat="44.48421269399102" lon="11.259344544391453"><ele>70.0</ele><time>2026-04-24T11:42:21Z</time></trkpt><trkpt lat="44.483974636553086" lon="11.259598451591899"><ele>69.5</ele><time>2026-04-24T11:42:22Z</time></trkpt><trkpt lat="44.48372859040437" lon="11.259843695597523"><ele>69.0</ele><time>2026-04-24T11:42:23Z</time></trkpt><trkpt lat="44.48349173359231" lon="11.26007494393054"><ele>69.0</ele><time>2026-04-24T11:42:24Z</time></trkpt><trkpt lat="44.48324363058509" lon="11.260294661796276"><ele>69.0</ele><time>2026-04-24T11:42:25Z</time></trkpt><trkpt lat="44.482994900024146" lon="11.260516281633224"><ele>72.0</ele><time>2026-04-24T11:42:26Z</time></trkpt><trkpt lat="44.48274898548007" lon="11.260742086303027"><ele>75.0</ele><time>2026-04-24T11:42:27Z</time></trkpt><trkpt lat="44.482502197408714" lon="11.260965613709677"><ele>75.0</ele><time>2026-04-24T11:42:28Z</time></trkpt><trkpt lat="44.482253829378536" lon="11.261191570142348"><ele>75.0</ele><time>2026-04-24T11:42:29Z</time></trkpt><trkpt lat="44.482007394097295" lon="11.261414319457579"><ele>77.0</ele><time>2026-04-24T11:42:30Z</time></trkpt><trkpt lat="44.481758095006384" lon="11.26163853707146"><ele>79.0</ele><time>2026-04-24T11:42:31Z</time></trkpt><trkpt lat="44.48151098020018" lon="11.261856043636898"><ele>79.0</ele><time>2026-04-24T11:42:32Z</time></trkpt><trkpt lat="44.48125614858787" lon="11.262086336097404"><ele>79.0</ele><time>2026-04-24T11:42:33Z</time></trkpt><trkpt lat="44.48100371756432" lon="11.262312378696864"><ele>79.0</ele><time>2026-04-24T11:42:34Z</time></trkpt><trkpt lat="44.48075564558215" lon="11.262533370845645"><ele>79.0</ele><time>2026-04-24T11:42:35Z</time></trkpt><trkpt lat="44.48050329869149" lon="11.262760153943162"><ele>79.5</ele><time>2026-04-24T11:42:36Z</time></trkpt><trkpt lat="44.480251397684086" lon="11.262985694477681"><ele>80.0</ele><time>2026-04-24T11:42:37Z</time></trkpt><trkpt lat="44.479995689175674" lon="11.26320832669929"><ele>80.0</ele><time>2026-04-24T11:42:38Z</time></trkpt><trkpt lat="44.47980592557021" lon="11.263449824543713"><ele>80.0</ele><time>2026-04-24T11:42:39Z</time></trkpt><trkpt lat="44.47956272788638" lon="11.26369495323996"><ele>80.0</ele><time>2026-04-24T11:42:40Z</time></trkpt><trkpt lat="44.4793101452704" lon="11.263934546797115"><ele>80.0</ele><time>2026-04-24T11:42:41Z</time></trkpt><trkpt lat="44.47906726831595" lon="11.264163544691817"><ele>80.0</ele><time>2026-04-24T11:42:42Z</time></trkpt><trkpt lat="44.478821757166564" lon="11.264398373554474"><ele>80.0</ele><time>2026-04-24T11:42:43Z</time></trkpt><trkpt lat="44.47858020291482" lon="11.26462408918977"><ele>81.0</ele><time>2026-04-24T11:42:44Z</time></trkpt><trkpt lat="44.478335577889936" lon="11.264850427300795"><ele>82.0</ele><time>2026-04-24T11:42:45Z</time></trkpt><trkpt lat="44.478092094972986" lon="11.265084673021184"><ele>82.5</ele><time>2026-04-24T11:42:46Z</time></trkpt><trkpt lat="44.47784785592346" lon="11.265318506402808"><ele>83.0</ele><time>2026-04-24T11:42:47Z</time></trkpt><trkpt lat="44.477603696627085" lon="11.265553649959054"><ele>82.5</ele><time>2026-04-24T11:42:48Z</time></trkpt><trkpt lat="44.47735973620451" lon="11.265783461949582"><ele>82.0</ele><time>2026-04-24T11:42:49Z</time></trkpt><trkpt lat="44.47711004698308" lon="11.266014985586121"><ele>83.0</ele><time>2026-04-24T11:42:50Z</time></trkpt><trkpt lat="44.47686408035609" lon="11.266242388606349"><ele>84.0</ele><time>2026-04-24T11:42:51Z</time></trkpt><trkpt lat="44.47661753296824" lon="11.266471816733683"><ele>84.0</ele><time>2026-04-24T11:42:52Z</time></trkpt><trkpt lat="44.47637254531112" lon="11.266696470056166"><ele>84.0</ele><time>2026-04-24T11:42:53Z</time></trkpt><trkpt lat="44.476125442808986" lon="11.2669245226517"><ele>86.5</ele><time>2026-04-24T11:42:54Z</time></trkpt><trkpt lat="44.475877004514395" lon="11.267150491406545"><ele>89.0</ele><time>2026-04-24T11:42:55Z</time></trkpt><trkpt lat="44.47562328491225" lon="11.267381410909135"><ele>100.5</ele><time>2026-04-24T11:42:56.02Z</time></trkpt><trkpt lat="44.47537773920391" lon="11.267612757756568"><ele>112.0</ele><time>2026-04-24T11:42:57.019Z</time></trkpt><trkpt lat="44.474380363544746" lon="11.268516948915446"><ele>113.0</ele><time>2026-04-24T11:43:01.015Z</time></trkpt><trkpt lat="44.47412715220901" lon="11.268761166585026"><ele>114.0</ele><time>2026-04-24T11:43:02.024Z</time></trkpt><trkpt lat="44.47387745012412" lon="11.268994677938455"><ele>108.5</ele><time>2026-04-24T11:43:03.019Z</time></trkpt><trkpt lat="44.4736287266621" lon="11.269223164342693"><ele>103.0</ele><time>2026-04-24T11:43:04.013Z</time></trkpt><trkpt lat="44.473248054314844" lon="11.269685821618204"><ele>97.5</ele><time>2026-04-24T11:43:06Z</time></trkpt><trkpt lat="44.47301018884899" lon="11.269919783546197"><ele>92.0</ele><time>2026-04-24T11:43:07Z</time></trkpt><trkpt lat="44.47276809890328" lon="11.270272385342238"><ele>92.0</ele><time>2026-04-24T11:43:08Z</time></trkpt><trkpt lat="44.47254261131209" lon="11.270474430805413"><ele>92.0</ele><time>2026-04-24T11:43:09Z</time></trkpt><trkpt lat="44.47230956870085" lon="11.270710845881645"><ele>88.5</ele><time>2026-04-24T11:43:10Z</time></trkpt><trkpt lat="44.47206973492129" lon="11.270981390518969"><ele>85.0</ele><time>2026-04-24T11:43:11Z</time></trkpt><trkpt lat="44.471848222859535" lon="11.271249667506652"><ele>84.0</ele><time>2026-04-24T11:43:12Z</time></trkpt><trkpt lat="44.47162866770237" lon="11.271515681395902"><ele>83.0</ele><time>2026-04-24T11:43:13Z</time></trkpt><trkpt lat="44.47140498700947" lon="11.27177328088824"><ele>81.5</ele><time>2026-04-24T11:43:14Z</time></trkpt><trkpt lat="44.471175542589954" lon="11.272025065969071"><ele>80.0</ele><time>2026-04-24T11:43:15Z</time></trkpt><trkpt lat="44.47094697682924" lon="11.272282502454642"><ele>78.5</ele><time>2026-04-24T11:43:16Z</time></trkpt><trkpt lat="44.47071553979496" lon="11.27253184713161"><ele>77.0</ele><time>2026-04-24T11:43:17Z</time></trkpt><trkpt lat="44.47047713959334" lon="11.27277288996686"><ele>78.5</ele><time>2026-04-24T11:43:18Z</time></trkpt><trkpt lat="44.47022952031381" lon="11.273005677015997"><ele>80.0</ele><time>2026-04-24T11:43:19Z</time></trkpt><trkpt lat="44.469977097305275" lon="11.273228447212063"><ele>80.0</ele><time>2026-04-24T11:43:20Z</time></trkpt><trkpt lat="44.46972257104289" lon="11.273452451034073"><ele>80.0</ele><time>2026-04-24T11:43:21Z</time></trkpt><trkpt lat="44.469467725580955" lon="11.273653083665055"><ele>79.5</ele><time>2026-04-24T11:43:22Z</time></trkpt><trkpt lat="44.46920121253588" lon="11.273824780367454"><ele>79.0</ele><time>2026-04-24T11:43:23Z</time></trkpt><trkpt lat="44.46893187825055" lon="11.273970155924564"><ele>77.5</ele><time>2026-04-24T11:43:24Z</time></trkpt><trkpt lat="44.4686537186435" lon="11.274094676165575"><ele>76.0</ele><time>2026-04-24T11:43:25Z</time></trkpt><trkpt lat="44.468366299731116" lon="11.274198521912892"><ele>76.0</ele><time>2026-04-24T11:43:26Z</time></trkpt><trkpt lat="44.46807649351618" lon="11.274281366353375"><ele>76.0</ele><time>2026-04-24T11:43:27Z</time></trkpt><trkpt lat="44.46778483885132" lon="11.274351089884474"><ele>77.0</ele><time>2026-04-24T11:43:28Z</time></trkpt><trkpt lat="44.46749518001898" lon="11.274405079025405"><ele>78.0</ele><time>2026-04-24T11:43:29Z</time></trkpt><trkpt lat="44.467200848577065" lon="11.274440316075589"><ele>78.0</ele><time>2026-04-24T11:43:30Z</time></trkpt><trkpt lat="44.46690359170462" lon="11.274461039496186"><ele>78.0</ele><time>2026-04-24T11:43:31Z</time></trkpt><trkpt lat="44.466603570825164" lon="11.274487480677417"><ele>78.0</ele><time>2026-04-24T11:43:32Z</time></trkpt><trkpt lat="44.46631195537143" lon="11.274518572889606"><ele>78.0</ele><time>2026-04-24T11:43:33Z</time></trkpt><trkpt lat="44.46601950984391" lon="11.274542671122644"><ele>78.0</ele><time>2026-04-24T11:43:34Z</time></trkpt><trkpt lat="44.46572516284304" lon="11.274564388124348"><ele>78.0</ele><time>2026-04-24T11:43:35Z</time></trkpt><trkpt lat="44.465430402890874" lon="11.274590166802279"><ele>78.0</ele><time>2026-04-24T11:43:36Z</time></trkpt><trkpt lat="44.465132641223484" lon="11.274613750359263"><ele>78.0</ele><time>2026-04-24T11:43:37Z</time></trkpt><trkpt lat="44.464838576098565" lon="11.274639189761384"><ele>77.0</ele><time>2026-04-24T11:43:38Z</time></trkpt><trkpt lat="44.46454394898022" lon="11.274664901723883"><ele>76.0</ele><time>2026-04-24T11:43:39Z</time></trkpt><trkpt lat="44.4642493215199" lon="11.274693414616022"><ele>76.0</ele><time>2026-04-24T11:43:40Z</time></trkpt><trkpt lat="44.46395709990773" lon="11.27471857058931"><ele>76.0</ele><time>2026-04-24T11:43:41Z</time></trkpt><trkpt lat="44.463660002336375" lon="11.274746979152123"><ele>74.5</ele><time>2026-04-24T11:43:42Z</time></trkpt><trkpt lat="44.46336815660463" lon="11.274766352901906"><ele>73.0</ele><time>2026-04-24T11:43:43Z</time></trkpt><trkpt lat="44.463068588005115" lon="11.274787544992604"><ele>73.0</ele><time>2026-04-24T11:43:44Z</time></trkpt><trkpt lat="44.46277355918571" lon="11.274806986207693"><ele>73.0</ele><time>2026-04-24T11:43:45Z</time></trkpt><trkpt lat="44.46248273031868" lon="11.274832247751416"><ele>73.0</ele><time>2026-04-24T11:43:46Z</time></trkpt><trkpt lat="44.462188826076215" lon="11.274871487997267"><ele>73.0</ele><time>2026-04-24T11:43:47Z</time></trkpt><trkpt lat="44.46189720859416" lon="11.274918217669844"><ele>75.0</ele><time>2026-04-24T11:43:48Z</time></trkpt><trkpt lat="44.461605340068445" lon="11.274979366540077"><ele>77.0</ele><time>2026-04-24T11:43:49Z</time></trkpt><trkpt lat="44.46131595725948" lon="11.275062589704625"><ele>78.0</ele><time>2026-04-24T11:43:50Z</time></trkpt><trkpt lat="44.46103310675748" lon="11.275172350252033"><ele>79.0</ele><time>2026-04-24T11:43:51Z</time></trkpt><trkpt lat="44.46075248759624" lon="11.275301401235266"><ele>79.0</ele><time>2026-04-24T11:43:52Z</time></trkpt><trkpt lat="44.46047839744762" lon="11.275450575710996"><ele>79.0</ele><time>2026-04-24T11:43:53Z</time></trkpt><trkpt lat="44.46021184054428" lon="11.275615693217164"><ele>77.0</ele><time>2026-04-24T11:43:54Z</time></trkpt><trkpt lat="44.459950394597556" lon="11.275803694403146"><ele>75.0</ele><time>2026-04-24T11:43:55Z</time></trkpt><trkpt lat="44.459698095880185" lon="11.276012288661688"><ele>75.5</ele><time>2026-04-24T11:43:56Z</time></trkpt><trkpt lat="44.4594520931301" lon="11.276248161553537"><ele>76.0</ele><time>2026-04-24T11:43:57Z</time></trkpt><trkpt lat="44.45922042793784" lon="11.276494915327907"><ele>76.0</ele><time>2026-04-24T11:43:58Z</time></trkpt><trkpt lat="44.458993205212195" lon="11.276758837210103"><ele>76.0</ele><time>2026-04-24T11:43:59Z</time></trkpt><trkpt lat="44.45877539586402" lon="11.2770394087184"><ele>76.5</ele><time>2026-04-24T11:44:00Z</time></trkpt><trkpt lat="44.458572400931935" lon="11.277332513701596"><ele>77.0</ele><time>2026-04-24T11:44:01Z</time></trkpt><trkpt lat="44.45837715559281" lon="11.277626943840337"><ele>77.0</ele><time>2026-04-24T11:44:02Z</time></trkpt><trkpt lat="44.45819724046973" lon="11.27790484765882"><ele>77.0</ele><time>2026-04-24T11:44:03Z</time></trkpt><trkpt lat="44.458024105369674" lon="11.278174685679861"><ele>77.5</ele><time>2026-04-24T11:44:04Z</time></trkpt><trkpt lat="44.45784513586642" lon="11.278447544892407"><ele>78.0</ele><time>2026-04-24T11:44:05Z</time></trkpt><trkpt lat="44.45766163818719" lon="11.278711916866929"><ele>77.0</ele><time>2026-04-24T11:44:06Z</time></trkpt><trkpt lat="44.45747412692831" lon="11.27897874524477"><ele>76.0</ele><time>2026-04-24T11:44:07Z</time></trkpt><trkpt lat="44.45726783441755" lon="11.279245002973509"><ele>76.0</ele><time>2026-04-24T11:44:08Z</time></trkpt><trkpt lat="44.45705654058404" lon="11.279496645839957"><ele>76.0</ele><time>2026-04-24T11:44:09Z</time></trkpt><trkpt lat="44.456842583550646" lon="11.27971720727485"><ele>76.0</ele><time>2026-04-24T11:44:10Z</time></trkpt><trkpt lat="44.456628222981195" lon="11.279917489534887"><ele>76.0</ele><time>2026-04-24T11:44:11Z</time></trkpt><trkpt lat="44.456406404451606" lon="11.280109145562706"><ele>75.5</ele><time>2026-04-24T11:44:12Z</time></trkpt><trkpt lat="44.45617411627318" lon="11.2802914900907"><ele>75.0</ele><time>2026-04-24T11:44:13Z</time></trkpt><trkpt lat="44.45594151384258" lon="11.280451665827878"><ele>75.0</ele><time>2026-04-24T11:44:14Z</time></trkpt><trkpt lat="44.45571299402498" lon="11.280582953113406"><ele>75.0</ele><time>2026-04-24T11:44:15Z</time></trkpt><trkpt lat="44.455465101095626" lon="11.280707614096276"><ele>74.0</ele><time>2026-04-24T11:44:16Z</time></trkpt><trkpt lat="44.45521621356006" lon="11.280811892450481"><ele>73.0</ele><time>2026-04-24T11:44:17Z</time></trkpt><trkpt lat="44.45496658633388" lon="11.280899851567423"><ele>73.0</ele><time>2026-04-24T11:44:18Z</time></trkpt><trkpt lat="44.45472155294288" lon="11.280976533931224"><ele>73.0</ele><time>2026-04-24T11:44:19Z</time></trkpt><trkpt lat="44.4544875795546" lon="11.281038521621428"><ele>71.0</ele><time>2026-04-24T11:44:20Z</time></trkpt><trkpt lat="44.45425941639051" lon="11.281074555135461"><ele>69.0</ele><time>2026-04-24T11:44:21Z</time></trkpt><trkpt lat="44.45402538207335" lon="11.28109913333616"><ele>68.5</ele><time>2026-04-24T11:44:22Z</time></trkpt><trkpt lat="44.453777214520784" lon="11.281109942177192"><ele>68.0</ele><time>2026-04-24T11:44:23Z</time></trkpt><trkpt lat="44.45350576826814" lon="11.281106201898444"><ele>68.0</ele><time>2026-04-24T11:44:24Z</time></trkpt><trkpt lat="44.45322859988622" lon="11.281082219988345"><ele>68.0</ele><time>2026-04-24T11:44:25Z</time></trkpt><trkpt lat="44.45294293129633" lon="11.28104152972392"><ele>67.5</ele><time>2026-04-24T11:44:26Z</time></trkpt><trkpt lat="44.452649863109535" lon="11.280975753400845"><ele>67.0</ele><time>2026-04-24T11:44:27Z</time></trkpt><trkpt lat="44.45235178767922" lon="11.280895019650911"><ele>67.5</ele><time>2026-04-24T11:44:28Z</time></trkpt><trkpt lat="44.45204669174193" lon="11.280814760441572"><ele>68.0</ele><time>2026-04-24T11:44:29Z</time></trkpt><trkpt lat="44.45174313387919" lon="11.280746662646923"><ele>68.0</ele><time>2026-04-24T11:44:30Z</time></trkpt><trkpt lat="44.451436611203704" lon="11.280679258955981"><ele>68.0</ele><time>2026-04-24T11:44:31Z</time></trkpt><trkpt lat="44.45113648751501" lon="11.280609823774453"><ele>67.5</ele><time>2026-04-24T11:44:32Z</time></trkpt><trkpt lat="44.450844003916174" lon="11.280544807659602"><ele>67.0</ele><time>2026-04-24T11:44:33Z</time></trkpt><trkpt lat="44.45055305164896" lon="11.280481265950042"><ele>67.0</ele><time>2026-04-24T11:44:34Z</time></trkpt><trkpt lat="44.45027021626563" lon="11.280414982365107"><ele>67.0</ele><time>2026-04-24T11:44:35Z</time></trkpt><trkpt lat="44.44999019182237" lon="11.280349773133794"><ele>67.0</ele><time>2026-04-24T11:44:36Z</time></trkpt><trkpt lat="44.44970633008175" lon="11.280287492224648"><ele>67.0</ele><time>2026-04-24T11:44:37Z</time></trkpt><trkpt lat="44.44941850631086" lon="11.280225551249151"><ele>67.0</ele><time>2026-04-24T11:44:38Z</time></trkpt><trkpt lat="44.44912935455233" lon="11.280161139418222"><ele>67.0</ele><time>2026-04-24T11:44:39Z</time></trkpt><trkpt lat="44.44884210915994" lon="11.280092105226265"><ele>67.5</ele><time>2026-04-24T11:44:40Z</time></trkpt><trkpt lat="44.448551538770666" lon="11.280021435946756"><ele>68.0</ele><time>2026-04-24T11:44:41Z</time></trkpt><trkpt lat="44.44826309362266" lon="11.279952495674374"><ele>68.0</ele><time>2026-04-24T11:44:42Z</time></trkpt><trkpt lat="44.447974424891115" lon="11.279884740310102"><ele>68.0</ele><time>2026-04-24T11:44:43Z</time></trkpt><trkpt lat="44.4476888917484" lon="11.279819844603866"><ele>68.0</ele><time>2026-04-24T11:44:44Z</time></trkpt><trkpt lat="44.44739978642182" lon="11.279755358326605"><ele>68.0</ele><time>2026-04-24T11:44:45Z</time></trkpt><trkpt lat="44.44711040070074" lon="11.279690999659035"><ele>68.0</ele><time>2026-04-24T11:44:46Z</time></trkpt><trkpt lat="44.44680168648193" lon="11.279610750514202"><ele>68.0</ele><time>2026-04-24T11:44:47Z</time></trkpt><trkpt lat="44.44652732277774" lon="11.279555445014891"><ele>69.0</ele><time>2026-04-24T11:44:48Z</time></trkpt><trkpt lat="44.446240983033924" lon="11.279488333851965"><ele>70.0</ele><time>2026-04-24T11:44:49Z</time></trkpt><trkpt lat="44.44595314983255" lon="11.279420082944627"><ele>70.0</ele><time>2026-04-24T11:44:50Z</time></trkpt><trkpt lat="44.445665343997106" lon="11.279355588999385"><ele>70.0</ele><time>2026-04-24T11:44:51Z</time></trkpt><trkpt lat="44.44537932362899" lon="11.279292758052117"><ele>72.0</ele><time>2026-04-24T11:44:52Z</time></trkpt><trkpt lat="44.44509153573945" lon="11.279230127680071"><ele>74.0</ele><time>2026-04-24T11:44:53Z</time></trkpt><trkpt lat="44.444803107782995" lon="11.279165854976881"><ele>73.5</ele><time>2026-04-24T11:44:54Z</time></trkpt><trkpt lat="44.444514781268786" lon="11.279097465239948"><ele>73.0</ele><time>2026-04-24T11:44:55Z</time></trkpt><trkpt lat="44.44422596502158" lon="11.279031739006923"><ele>73.0</ele><time>2026-04-24T11:44:56Z</time></trkpt><trkpt lat="44.44393928460951" lon="11.278967003027459"><ele>73.0</ele><time>2026-04-24T11:44:57Z</time></trkpt><trkpt lat="44.443652985928715" lon="11.27890160164113"><ele>73.0</ele><time>2026-04-24T11:44:58Z</time></trkpt><trkpt lat="44.44336838655777" lon="11.278837798144107"><ele>73.0</ele><time>2026-04-24T11:44:59Z</time></trkpt><trkpt lat="44.44307930909713" lon="11.278772275916056"><ele>72.0</ele><time>2026-04-24T11:45:00Z</time></trkpt><trkpt lat="44.442794327397365" lon="11.27870405145611"><ele>71.0</ele><time>2026-04-24T11:45:01Z</time></trkpt><trkpt lat="44.44250730618345" lon="11.278639422878463"><ele>71.0</ele><time>2026-04-24T11:45:02Z</time></trkpt><trkpt lat="44.44221917692673" lon="11.278575995620013"><ele>71.0</ele><time>2026-04-24T11:45:03Z</time></trkpt><trkpt lat="44.44193147589659" lon="11.278516466271814"><ele>71.0</ele><time>2026-04-24T11:45:04Z</time></trkpt><trkpt lat="44.44164567563416" lon="11.278452946089617"><ele>71.0</ele><time>2026-04-24T11:45:05Z</time></trkpt><trkpt lat="44.441356695419124" lon="11.278387759543216"><ele>71.0</ele><time>2026-04-24T11:45:06Z</time></trkpt><trkpt lat="44.441072089569424" lon="11.278318784739668"><ele>71.0</ele><time>2026-04-24T11:45:07Z</time></trkpt><trkpt lat="44.44078906341856" lon="11.278250102068641"><ele>71.0</ele><time>2026-04-24T11:45:08Z</time></trkpt><trkpt lat="44.4404990247296" lon="11.278181663079494"><ele>71.0</ele><time>2026-04-24T11:45:09Z</time></trkpt><trkpt lat="44.440212407556665" lon="11.278117155201631"><ele>71.5</ele><time>2026-04-24T11:45:10Z</time></trkpt><trkpt lat="44.4399236671396" lon="11.278048538303912"><ele>72.0</ele><time>2026-04-24T11:45:11Z</time></trkpt><trkpt lat="44.43963500426113" lon="11.27798350491921"><ele>71.5</ele><time>2026-04-24T11:45:12Z</time></trkpt><trkpt lat="44.43934841240908" lon="11.277917813811332"><ele>71.0</ele><time>2026-04-24T11:45:13Z</time></trkpt><trkpt lat="44.4390605067897" lon="11.27785191070977"><ele>72.0</ele><time>2026-04-24T11:45:14Z</time></trkpt><trkpt lat="44.43877316659152" lon="11.277788103887545"><ele>73.0</ele><time>2026-04-24T11:45:15Z</time></trkpt><trkpt lat="44.438483533601925" lon="11.27772421432755"><ele>73.0</ele><time>2026-04-24T11:45:16Z</time></trkpt><trkpt lat="44.43819658773425" lon="11.277661527390453"><ele>73.0</ele><time>2026-04-24T11:45:17Z</time></trkpt><trkpt lat="44.43790921734993" lon="11.27760305022993"><ele>73.5</ele><time>2026-04-24T11:45:18Z</time></trkpt><trkpt lat="44.43762153672663" lon="11.277542687449564"><ele>74.0</ele><time>2026-04-24T11:45:19Z</time></trkpt><trkpt lat="44.43733239469228" lon="11.277481075926929"><ele>73.0</ele><time>2026-04-24T11:45:20Z</time></trkpt><trkpt lat="44.437043229901526" lon="11.277417664922186"><ele>72.0</ele><time>2026-04-24T11:45:21Z</time></trkpt><trkpt lat="44.43675457144638" lon="11.277349450304419"><ele>72.0</ele><time>2026-04-24T11:45:22Z</time></trkpt><trkpt lat="44.4364702932542" lon="11.27727886794302"><ele>72.0</ele><time>2026-04-24T11:45:23Z</time></trkpt><trkpt lat="44.4361811886509" lon="11.277212573093255"><ele>72.0</ele><time>2026-04-24T11:45:24Z</time></trkpt><trkpt lat="44.435893188648066" lon="11.277148943009667"><ele>72.0</ele><time>2026-04-24T11:45:25Z</time></trkpt><trkpt lat="44.43560728767117" lon="11.277083963509856"><ele>72.0</ele><time>2026-04-24T11:45:26Z</time></trkpt><trkpt lat="44.43531963530438" lon="11.27701795421828"><ele>72.0</ele><time>2026-04-24T11:45:27Z</time></trkpt><trkpt lat="44.435030619147916" lon="11.276951460390668"><ele>72.0</ele><time>2026-04-24T11:45:28Z</time></trkpt><trkpt lat="44.434743722938904" lon="11.276887868469991"><ele>72.0</ele><time>2026-04-24T11:45:29Z</time></trkpt><trkpt lat="44.434455868211465" lon="11.2768263600738"><ele>72.0</ele><time>2026-04-24T11:45:30Z</time></trkpt><trkpt lat="44.43416753856297" lon="11.276761817389312"><ele>72.0</ele><time>2026-04-24T11:45:31Z</time></trkpt><trkpt lat="44.43388178434805" lon="11.27670035908419"><ele>71.5</ele><time>2026-04-24T11:45:32Z</time></trkpt><trkpt lat="44.43359482622654" lon="11.276636305087388"><ele>71.0</ele><time>2026-04-24T11:45:33Z</time></trkpt><trkpt lat="44.43330680950337" lon="11.276573286136578"><ele>71.0</ele><time>2026-04-24T11:45:34Z</time></trkpt><trkpt lat="44.43302078676606" lon="11.27651144733903"><ele>71.0</ele><time>2026-04-24T11:45:35Z</time></trkpt><trkpt lat="44.43273105034584" lon="11.276448735157144"><ele>72.5</ele><time>2026-04-24T11:45:36Z</time></trkpt><trkpt lat="44.43244197347745" lon="11.276378982158574"><ele>74.0</ele><time>2026-04-24T11:45:37Z</time></trkpt><trkpt lat="44.4321537645054" lon="11.276304162959711"><ele>75.0</ele><time>2026-04-24T11:45:38Z</time></trkpt><trkpt lat="44.43186655707965" lon="11.276230267207726"><ele>76.0</ele><time>2026-04-24T11:45:39Z</time></trkpt><trkpt lat="44.431579668743325" lon="11.276164061941012"><ele>76.0</ele><time>2026-04-24T11:45:40Z</time></trkpt><trkpt lat="44.431292334557135" lon="11.27609961701835"><ele>76.0</ele><time>2026-04-24T11:45:41Z</time></trkpt><trkpt lat="44.4309987114014" lon="11.276033009530174"><ele>76.0</ele><time>2026-04-24T11:45:42Z</time></trkpt><trkpt lat="44.43070896344124" lon="11.275946634001809"><ele>76.0</ele><time>2026-04-24T11:45:43Z</time></trkpt><trkpt lat="44.430429004902564" lon="11.27585798438697"><ele>75.5</ele><time>2026-04-24T11:45:44Z</time></trkpt><trkpt lat="44.430146904272554" lon="11.275764059463649"><ele>75.0</ele><time>2026-04-24T11:45:45Z</time></trkpt><trkpt lat="44.429864395279346" lon="11.275668013072691"><ele>76.0</ele><time>2026-04-24T11:45:46Z</time></trkpt><trkpt lat="44.42958389673692" lon="11.275562597088145"><ele>77.0</ele><time>2026-04-24T11:45:47Z</time></trkpt><trkpt lat="44.429305720399974" lon="11.275448284056328"><ele>77.0</ele><time>2026-04-24T11:45:48Z</time></trkpt><trkpt lat="44.42902904090757" lon="11.275325813464862"><ele>77.0</ele><time>2026-04-24T11:45:49Z</time></trkpt><trkpt lat="44.428751604541176" lon="11.275192544074827"><ele>75.5</ele><time>2026-04-24T11:45:50Z</time></trkpt><trkpt lat="44.42847788545282" lon="11.275051348094015"><ele>74.0</ele><time>2026-04-24T11:45:51Z</time></trkpt><trkpt lat="44.42820795949684" lon="11.27490407394986"><ele>76.5</ele><time>2026-04-24T11:45:52Z</time></trkpt><trkpt lat="44.427939729179556" lon="11.274750904327263"><ele>79.0</ele><time>2026-04-24T11:45:53Z</time></trkpt><trkpt lat="44.42767009405132" lon="11.274597590593876"><ele>79.0</ele><time>2026-04-24T11:45:54Z</time></trkpt><trkpt lat="44.427404565442245" lon="11.274440144172926"><ele>79.0</ele><time>2026-04-24T11:45:55Z</time></trkpt><trkpt lat="44.42713792109569" lon="11.27427829229521"><ele>78.0</ele><time>2026-04-24T11:45:56Z</time></trkpt><trkpt lat="44.42687010289295" lon="11.274117774019189"><ele>77.0</ele><time>2026-04-24T11:45:57Z</time></trkpt><trkpt lat="44.4266005672495" lon="11.273958573432884"><ele>78.0</ele><time>2026-04-24T11:45:58Z</time></trkpt><trkpt lat="44.42633408591967" lon="11.273800006796423"><ele>79.0</ele><time>2026-04-24T11:45:59Z</time></trkpt><trkpt lat="44.42606519604136" lon="11.273637640116954"><ele>82.0</ele><time>2026-04-24T11:46:00Z</time></trkpt><trkpt lat="44.42579828245398" lon="11.273479751223864"><ele>85.0</ele><time>2026-04-24T11:46:01Z</time></trkpt><trkpt lat="44.425528212658556" lon="11.273315487057767"><ele>85.0</ele><time>2026-04-24T11:46:02Z</time></trkpt><trkpt lat="44.425260190383305" lon="11.27315542015547"><ele>85.0</ele><time>2026-04-24T11:46:03Z</time></trkpt><trkpt lat="44.42499114328394" lon="11.272997248013263"><ele>84.5</ele><time>2026-04-24T11:46:04Z</time></trkpt><trkpt lat="44.42471971113733" lon="11.2728399008116"><ele>84.0</ele><time>2026-04-24T11:46:05Z</time></trkpt><trkpt lat="44.424452856059006" lon="11.272683917106354"><ele>84.0</ele><time>2026-04-24T11:46:06Z</time></trkpt><trkpt lat="44.4241844611509" lon="11.272528077832089"><ele>84.0</ele><time>2026-04-24T11:46:07Z</time></trkpt><trkpt lat="44.42391303140663" lon="11.272367807055721"><ele>86.0</ele><time>2026-04-24T11:46:08Z</time></trkpt><trkpt lat="44.42364519301031" lon="11.272212726982348"><ele>88.0</ele><time>2026-04-24T11:46:09Z</time></trkpt><trkpt lat="44.423373272406536" lon="11.272065866831461"><ele>88.0</ele><time>2026-04-24T11:46:10Z</time></trkpt><trkpt lat="44.423098620925586" lon="11.271918384860765"><ele>88.0</ele><time>2026-04-24T11:46:11Z</time></trkpt><trkpt lat="44.42282845407472" lon="11.27177219639318"><ele>89.0</ele><time>2026-04-24T11:46:12Z</time></trkpt><trkpt lat="44.422557215179296" lon="11.271616354446712"><ele>90.0</ele><time>2026-04-24T11:46:13Z</time></trkpt><trkpt lat="44.42228677743503" lon="11.27146058102882"><ele>90.0</ele><time>2026-04-24T11:46:14Z</time></trkpt><trkpt lat="44.42201369119935" lon="11.271305611509032"><ele>90.0</ele><time>2026-04-24T11:46:15Z</time></trkpt><trkpt lat="44.42174574025032" lon="11.27115535770716"><ele>90.0</ele><time>2026-04-24T11:46:16Z</time></trkpt><trkpt lat="44.42147443507559" lon="11.270998874024468"><ele>90.0</ele><time>2026-04-24T11:46:17Z</time></trkpt><trkpt lat="44.42120306237782" lon="11.270850040599305"><ele>89.5</ele><time>2026-04-24T11:46:18Z</time></trkpt><trkpt lat="44.420933358910915" lon="11.270698499456529"><ele>89.0</ele><time>2026-04-24T11:46:19Z</time></trkpt><trkpt lat="44.4206646991744" lon="11.270545757654125"><ele>89.0</ele><time>2026-04-24T11:46:20Z</time></trkpt><trkpt lat="44.420392256233335" lon="11.2703896624422"><ele>89.0</ele><time>2026-04-24T11:46:21Z</time></trkpt><trkpt lat="44.420122322549986" lon="11.270234706921196"><ele>89.0</ele><time>2026-04-24T11:46:22Z</time></trkpt><trkpt lat="44.419853917908405" lon="11.270079918362674"><ele>89.0</ele><time>2026-04-24T11:46:23Z</time></trkpt><trkpt lat="44.419585218124574" lon="11.269927761080979"><ele>89.5</ele><time>2026-04-24T11:46:24Z</time></trkpt><trkpt lat="44.419310305152635" lon="11.26977780852412"><ele>90.0</ele><time>2026-04-24T11:46:25Z</time></trkpt><trkpt lat="44.41904236450462" lon="11.269627455654842"><ele>91.0</ele><time>2026-04-24T11:46:26Z</time></trkpt><trkpt lat="44.4187739268553" lon="11.269476583340532"><ele>92.0</ele><time>2026-04-24T11:46:27Z</time></trkpt><trkpt lat="44.41850478871411" lon="11.269322457104657"><ele>92.0</ele><time>2026-04-24T11:46:28Z</time></trkpt><trkpt lat="44.41823557692664" lon="11.2691705450874"><ele>92.0</ele><time>2026-04-24T11:46:29Z</time></trkpt><trkpt lat="44.41796644907733" lon="11.269020685851068"><ele>93.0</ele><time>2026-04-24T11:46:30Z</time></trkpt><trkpt lat="44.41769764826115" lon="11.26886695577025"><ele>94.0</ele><time>2026-04-24T11:46:31Z</time></trkpt><trkpt lat="44.41742954453879" lon="11.268710969526353"><ele>94.0</ele><time>2026-04-24T11:46:32Z</time></trkpt><trkpt lat="44.41715656499608" lon="11.268562611658005"><ele>94.0</ele><time>2026-04-24T11:46:33Z</time></trkpt><trkpt lat="44.41687922596276" lon="11.268436660297482"><ele>94.5</ele><time>2026-04-24T11:46:34Z</time></trkpt><trkpt lat="44.416592226418835" lon="11.268331543790804"><ele>95.0</ele><time>2026-04-24T11:46:35Z</time></trkpt><trkpt lat="44.41630871872673" lon="11.268237751275644"><ele>94.5</ele><time>2026-04-24T11:46:36Z</time></trkpt><trkpt lat="44.416023753430686" lon="11.268144412598952"><ele>94.0</ele><time>2026-04-24T11:46:37Z</time></trkpt><trkpt lat="44.41574088677956" lon="11.268049476409466"><ele>94.5</ele><time>2026-04-24T11:46:38Z</time></trkpt><trkpt lat="44.41545680337605" lon="11.267953972523996"><ele>95.0</ele><time>2026-04-24T11:46:39Z</time></trkpt><trkpt lat="44.41517205620179" lon="11.267857830091165"><ele>95.0</ele><time>2026-04-24T11:46:40Z</time></trkpt><trkpt lat="44.414890481993865" lon="11.267757382863307"><ele>95.0</ele><time>2026-04-24T11:46:41Z</time></trkpt><trkpt lat="44.41461003308408" lon="11.267656736096914"><ele>93.5</ele><time>2026-04-24T11:46:42Z</time></trkpt><trkpt lat="44.41432973758099" lon="11.26755776644112"><ele>92.0</ele><time>2026-04-24T11:46:43Z</time></trkpt><trkpt lat="44.4140517342775" lon="11.267458480921146"><ele>93.5</ele><time>2026-04-24T11:46:44Z</time></trkpt><trkpt lat="44.413767501959384" lon="11.267354909208635"><ele>95.0</ele><time>2026-04-24T11:46:45Z</time></trkpt><trkpt lat="44.41348546901591" lon="11.267254157970388"><ele>96.5</ele><time>2026-04-24T11:46:46Z</time></trkpt><trkpt lat="44.41320121056902" lon="11.26715394149155"><ele>98.0</ele><time>2026-04-24T11:46:47Z</time></trkpt><trkpt lat="44.41292118903654" lon="11.267048606535017"><ele>98.5</ele><time>2026-04-24T11:46:48Z</time></trkpt><trkpt lat="44.41264029576016" lon="11.266952614328531"><ele>99.0</ele><time>2026-04-24T11:46:49Z</time></trkpt><trkpt lat="44.41235230201881" lon="11.266855100036745"><ele>99.0</ele><time>2026-04-24T11:46:50Z</time></trkpt><trkpt lat="44.41206678599295" lon="11.26675765394684"><ele>99.0</ele><time>2026-04-24T11:46:51Z</time></trkpt><trkpt lat="44.411783897340115" lon="11.266659109792514"><ele>99.0</ele><time>2026-04-24T11:46:52Z</time></trkpt><trkpt lat="44.41150079710041" lon="11.266565856304942"><ele>99.0</ele><time>2026-04-24T11:46:53Z</time></trkpt><trkpt lat="44.411219613050605" lon="11.266467085873153"><ele>100.0</ele><time>2026-04-24T11:46:54Z</time></trkpt><trkpt lat="44.41093422416842" lon="11.2663616328147"><ele>101.0</ele><time>2026-04-24T11:46:55Z</time></trkpt><trkpt lat="44.4106503519833" lon="11.266264764358613"><ele>101.5</ele><time>2026-04-24T11:46:56Z</time></trkpt><trkpt lat="44.41036637843138" lon="11.26616561846"><ele>102.0</ele><time>2026-04-24T11:46:57Z</time></trkpt><trkpt lat="44.4100834059174" lon="11.266066316395053"><ele>102.0</ele><time>2026-04-24T11:46:58Z</time></trkpt><trkpt lat="44.40979979394502" lon="11.265967085400936"><ele>102.0</ele><time>2026-04-24T11:46:59Z</time></trkpt><trkpt lat="44.4095162088829" lon="11.265872794673749"><ele>101.5</ele><time>2026-04-24T11:47:00Z</time></trkpt><trkpt lat="44.40923005477643" lon="11.265778557566358"><ele>101.0</ele><time>2026-04-24T11:47:01Z</time></trkpt><trkpt lat="44.408947339751464" lon="11.265679192412884"><ele>100.5</ele><time>2026-04-24T11:47:02Z</time></trkpt><trkpt lat="44.40866582666977" lon="11.26557620631349"><ele>100.0</ele><time>2026-04-24T11:47:03Z</time></trkpt><trkpt lat="44.40838208799306" lon="11.265478286382278"><ele>100.0</ele><time>2026-04-24T11:47:04Z</time></trkpt><trkpt lat="44.40810036938544" lon="11.265383219697593"><ele>100.0</ele><time>2026-04-24T11:47:05Z</time></trkpt><trkpt lat="44.407818589416564" lon="11.265284154038486"><ele>99.0</ele><time>2026-04-24T11:47:06Z</time></trkpt><trkpt lat="44.40752831775549" lon="11.265183225891102"><ele>98.0</ele><time>2026-04-24T11:47:07Z</time></trkpt><trkpt lat="44.4072550812173" lon="11.265083353925752"><ele>98.0</ele><time>2026-04-24T11:47:08Z</time></trkpt><trkpt lat="44.40699708782706" lon="11.264994367428985"><ele>98.0</ele><time>2026-04-24T11:47:09Z</time></trkpt><trkpt lat="44.40675193463707" lon="11.264907816400914"><ele>98.0</ele><time>2026-04-24T11:47:10Z</time></trkpt><trkpt lat="44.406522145922914" lon="11.264831272429799"><ele>98.0</ele><time>2026-04-24T11:47:11Z</time></trkpt><trkpt lat="44.40629158569387" lon="11.264752232864092"><ele>98.5</ele><time>2026-04-24T11:47:12Z</time></trkpt><trkpt lat="44.40605698881705" lon="11.264671969890964"><ele>99.0</ele><time>2026-04-24T11:47:13Z</time></trkpt><trkpt lat="44.40582723812796" lon="11.264592490761567"><ele>99.0</ele><time>2026-04-24T11:47:14Z</time></trkpt><trkpt lat="44.40561092781242" lon="11.264521362212571"><ele>99.0</ele><time>2026-04-24T11:47:15Z</time></trkpt><trkpt lat="44.405398361749725" lon="11.26444640252253"><ele>99.0</ele><time>2026-04-24T11:47:16Z</time></trkpt><trkpt lat="44.40518314151931" lon="11.264375134380956"><ele>99.33333333333334</ele><time>2026-04-24T11:47:17Z</time></trkpt><trkpt lat="44.404970668241404" lon="11.264304711284026"><ele>99.66666666666667</ele><time>2026-04-24T11:47:18Z</time></trkpt><trkpt lat="44.40477034264195" lon="11.264231847735028"><ele>100.0</ele><time>2026-04-24T11:47:19Z</time></trkpt><trkpt lat="44.404576215776586" lon="11.264164653570925"><ele>100.33333333333334</ele><time>2026-04-24T11:47:20Z</time></trkpt><trkpt lat="44.40438780223967" lon="11.264094114083463"><ele>100.66666666666666</ele><time>2026-04-24T11:47:21Z</time></trkpt><trkpt lat="44.40420117703487" lon="11.264021772701783"><ele>101.0</ele><time>2026-04-24T11:47:22Z</time></trkpt><trkpt lat="44.4040118177387" lon="11.263945131792537"><ele>100.0</ele><time>2026-04-24T11:47:23Z</time></trkpt><trkpt lat="44.40382205955177" lon="11.263864416124427"><ele>99.0</ele><time>2026-04-24T11:47:24Z</time></trkpt><trkpt lat="44.40363306193471" lon="11.26377918490921"><ele>98.0</ele><time>2026-04-24T11:47:25Z</time></trkpt><trkpt lat="44.40344037883519" lon="11.263685059941078"><ele>98.0</ele><time>2026-04-24T11:47:26Z</time></trkpt><trkpt lat="44.40324311771088" lon="11.263581400330365"><ele>98.0</ele><time>2026-04-24T11:47:27Z</time></trkpt><trkpt lat="44.403045862529275" lon="11.263469872207342"><ele>98.0</ele><time>2026-04-24T11:47:28Z</time></trkpt><trkpt lat="44.40284403237495" lon="11.263343727520908"><ele>98.0</ele><time>2026-04-24T11:47:29Z</time></trkpt><trkpt lat="44.40264508797795" lon="11.26321327016876"><ele>98.0</ele><time>2026-04-24T11:47:30Z</time></trkpt><trkpt lat="44.40244708528139" lon="11.263079861377285"><ele>98.0</ele><time>2026-04-24T11:47:31Z</time></trkpt><trkpt lat="44.402249098400304" lon="11.262940116212503"><ele>98.33333333333333</ele><time>2026-04-24T11:47:32Z</time></trkpt><trkpt lat="44.40205985843762" lon="11.262795230657147"><ele>98.66666666666666</ele><time>2026-04-24T11:47:33Z</time></trkpt><trkpt lat="44.40186560169786" lon="11.26264183472114"><ele>99.0</ele><time>2026-04-24T11:47:34Z</time></trkpt><trkpt lat="44.401671590347796" lon="11.26248487670738"><ele>99.0</ele><time>2026-04-24T11:47:35Z</time></trkpt><trkpt lat="44.401475782442056" lon="11.262325888902534"><ele>99.0</ele><time>2026-04-24T11:47:36Z</time></trkpt><trkpt lat="44.40127872253996" lon="11.262159118602616"><ele>99.66666666666666</ele><time>2026-04-24T11:47:37Z</time></trkpt><trkpt lat="44.401093842655094" lon="11.262003624279943"><ele>100.33333333333333</ele><time>2026-04-24T11:47:38Z</time></trkpt><trkpt lat="44.40092266780091" lon="11.26184858886577"><ele>101.0</ele><time>2026-04-24T11:47:39Z</time></trkpt><trkpt lat="44.40074163668381" lon="11.261694250131587"><ele>101.0</ele><time>2026-04-24T11:47:40Z</time></trkpt><trkpt lat="44.40055020433168" lon="11.261531483354611"><ele>101.0</ele><time>2026-04-24T11:47:41Z</time></trkpt><trkpt lat="44.40035101100163" lon="11.261364810340982"><ele>100.5</ele><time>2026-04-24T11:47:42Z</time></trkpt><trkpt lat="44.40015447777447" lon="11.261200925523402"><ele>100.0</ele><time>2026-04-24T11:47:43Z</time></trkpt><trkpt lat="44.399954530015656" lon="11.261041465935323"><ele>100.0</ele><time>2026-04-24T11:47:44Z</time></trkpt><trkpt lat="44.399763853815706" lon="11.260894963802016"><ele>100.0</ele><time>2026-04-24T11:47:45Z</time></trkpt><trkpt lat="44.39958376633297" lon="11.26077106362766"><ele>100.0</ele><time>2026-04-24T11:47:46Z</time></trkpt><trkpt lat="44.39940501763452" lon="11.260638586620757"><ele>100.33333333333334</ele><time>2026-04-24T11:47:47Z</time></trkpt><trkpt lat="44.39921692266388" lon="11.260506645600152"><ele>100.66666666666666</ele><time>2026-04-24T11:47:48Z</time></trkpt><trkpt lat="44.39902286581716" lon="11.260382245760075"><ele>101.0</ele><time>2026-04-24T11:47:49Z</time></trkpt><trkpt lat="44.39883535798975" lon="11.260264628396552"><ele>99.66666666666666</ele><time>2026-04-24T11:47:50Z</time></trkpt><trkpt lat="44.39864828256595" lon="11.260146911254658"><ele>98.33333333333334</ele><time>2026-04-24T11:47:51Z</time></trkpt><trkpt lat="44.39845780035887" lon="11.260034857148876"><ele>97.0</ele><time>2026-04-24T11:47:52Z</time></trkpt><trkpt lat="44.398273842030676" lon="11.259935158160637"><ele>97.0</ele><time>2026-04-24T11:47:53Z</time></trkpt><trkpt lat="44.39809297208062" lon="11.259846929696227"><ele>97.0</ele><time>2026-04-24T11:47:54Z</time></trkpt><trkpt lat="44.39792023491221" lon="11.25976480033887"><ele>97.0</ele><time>2026-04-24T11:47:55Z</time></trkpt><trkpt lat="44.397748399204545" lon="11.259681921194119"><ele>97.0</ele><time>2026-04-24T11:47:56Z</time></trkpt><trkpt lat="44.39757166089539" lon="11.25959858463257"><ele>97.0</ele><time>2026-04-24T11:47:57Z</time></trkpt><trkpt lat="44.39739980205308" lon="11.259521394403366"><ele>97.0</ele><time>2026-04-24T11:47:58Z</time></trkpt><trkpt lat="44.39724317935769" lon="11.259458063585358"><ele>95.0</ele><time>2026-04-24T11:47:59Z</time></trkpt><trkpt lat="44.397093910582534" lon="11.259403477754846"><ele>93.0</ele><time>2026-04-24T11:48:00Z</time></trkpt><trkpt lat="44.396946234437934" lon="11.259355949770304"><ele>91.0</ele><time>2026-04-24T11:48:01Z</time></trkpt><trkpt lat="44.39679061869404" lon="11.259312689237303"><ele>91.0</ele><time>2026-04-24T11:48:02Z</time></trkpt><trkpt lat="44.39662070956026" lon="11.25926887239162"><ele>91.0</ele><time>2026-04-24T11:48:03Z</time></trkpt><trkpt lat="44.39644726839473" lon="11.259223609352476"><ele>91.0</ele><time>2026-04-24T11:48:04Z</time></trkpt><trkpt lat="44.39629114351906" lon="11.259180499334905"><ele>91.75</ele><time>2026-04-24T11:48:05Z</time></trkpt><trkpt lat="44.39614658740796" lon="11.25914105577604"><ele>92.5</ele><time>2026-04-24T11:48:06Z</time></trkpt><trkpt lat="44.39600057948717" lon="11.25910819634354"><ele>93.25</ele><time>2026-04-24T11:48:07Z</time></trkpt><trkpt lat="44.39584954565653" lon="11.259086986507189"><ele>94.0</ele><time>2026-04-24T11:48:08Z</time></trkpt><trkpt lat="44.39569017607386" lon="11.259068536722364"><ele>94.0</ele><time>2026-04-24T11:48:09Z</time></trkpt><trkpt lat="44.395515482597766" lon="11.259039431047457"><ele>94.0</ele><time>2026-04-24T11:48:10Z</time></trkpt><trkpt lat="44.3953331465598" lon="11.259002704997608"><ele>94.0</ele><time>2026-04-24T11:48:11Z</time></trkpt><trkpt lat="44.395142993564484" lon="11.258961850001684"><ele>94.33333333333333</ele><time>2026-04-24T11:48:12Z</time></trkpt><trkpt lat="44.394947471337446" lon="11.258926430084495"><ele>94.66666666666667</ele><time>2026-04-24T11:48:13Z</time></trkpt><trkpt lat="44.394750791028805" lon="11.258901791752063"><ele>95.0</ele><time>2026-04-24T11:48:14Z</time></trkpt><trkpt lat="44.39455264065211" lon="11.258891162026424"><ele>93.0</ele><time>2026-04-24T11:48:15Z</time></trkpt><trkpt lat="44.394361066953465" lon="11.258878194935338"><ele>91.0</ele><time>2026-04-24T11:48:16Z</time></trkpt><trkpt lat="44.394160988714596" lon="11.258866760963185"><ele>89.0</ele><time>2026-04-24T11:48:17Z</time></trkpt><trkpt lat="44.39398166043532" lon="11.258859191980536"><ele>88.33333333333334</ele><time>2026-04-24T11:48:18Z</time></trkpt><trkpt lat="44.39380625659989" lon="11.258855098396026"><ele>87.66666666666667</ele><time>2026-04-24T11:48:19Z</time></trkpt><trkpt lat="44.393629749735645" lon="11.258856250610531"><ele>87.0</ele><time>2026-04-24T11:48:20Z</time></trkpt><trkpt lat="44.39343492865194" lon="11.258861494082733"><ele>87.0</ele><time>2026-04-24T11:48:21Z</time></trkpt><trkpt lat="44.393245128888445" lon="11.258873930583102"><ele>87.0</ele><time>2026-04-24T11:48:22Z</time></trkpt><trkpt lat="44.39306517953002" lon="11.258885035340947"><ele>87.0</ele><time>2026-04-24T11:48:23Z</time></trkpt><trkpt lat="44.39290207309258" lon="11.258897776344405"><ele>89.0</ele><time>2026-04-24T11:48:24Z</time></trkpt><trkpt lat="44.39276077167956" lon="11.258912566689379"><ele>91.0</ele><time>2026-04-24T11:48:25Z</time></trkpt><trkpt lat="44.39263130453929" lon="11.258925603769335"><ele>93.0</ele><time>2026-04-24T11:48:26Z</time></trkpt><trkpt lat="44.39250555144042" lon="11.258937929586024"><ele>95.0</ele><time>2026-04-24T11:48:27Z</time></trkpt><trkpt lat="44.39238612267149" lon="11.258947455406428"><ele>95.8</ele><time>2026-04-24T11:48:28Z</time></trkpt><trkpt lat="44.3922762912747" lon="11.258951176692163"><ele>96.6</ele><time>2026-04-24T11:48:29Z</time></trkpt><trkpt lat="44.392165829990454" lon="11.258945136111356"><ele>97.4</ele><time>2026-04-24T11:48:30Z</time></trkpt><trkpt lat="44.39205419879928" lon="11.258926216510472"><ele>98.2</ele><time>2026-04-24T11:48:31Z</time></trkpt><trkpt lat="44.39193999629622" lon="11.258896779598661"><ele>99.0</ele><time>2026-04-24T11:48:32Z</time></trkpt><trkpt lat="44.39182562791418" lon="11.258859890462437"><ele>100.5</ele><time>2026-04-24T11:48:33Z</time></trkpt><trkpt lat="44.3917210455103" lon="11.258820337069103"><ele>102.0</ele><time>2026-04-24T11:48:34Z</time></trkpt><trkpt lat="44.391596949009916" lon="11.258770767762726"><ele>103.5</ele><time>2026-04-24T11:48:35Z</time></trkpt><trkpt lat="44.39146152259852" lon="11.258701829747169"><ele>105.0</ele><time>2026-04-24T11:48:36Z</time></trkpt><trkpt lat="44.39132588144386" lon="11.258613988349811"><ele>106.5</ele><time>2026-04-24T11:48:37Z</time></trkpt><trkpt lat="44.39120173221228" lon="11.258522047260195"><ele>108.0</ele><time>2026-04-24T11:48:38Z</time></trkpt><trkpt lat="44.3910804469578" lon="11.25842382669544"><ele>109.5</ele><time>2026-04-24T11:48:39Z</time></trkpt><trkpt lat="44.39096004748026" lon="11.258322473164162"><ele>111.0</ele><time>2026-04-24T11:48:40Z</time></trkpt><trkpt lat="44.39083989665897" lon="11.258223622282724"><ele>111.0</ele><time>2026-04-24T11:48:41Z</time></trkpt><trkpt lat="44.390725915455334" lon="11.25813152305208"><ele>111.0</ele><time>2026-04-24T11:48:42Z</time></trkpt><trkpt lat="44.39061795221004" lon="11.258041771856615"><ele>111.0</ele><time>2026-04-24T11:48:43Z</time></trkpt><trkpt lat="44.39050597413393" lon="11.257941863838225"><ele>111.0</ele><time>2026-04-24T11:48:44Z</time></trkpt><trkpt lat="44.39040246199368" lon="11.257835141380845"><ele>110.75</ele><time>2026-04-24T11:48:45Z</time></trkpt><trkpt lat="44.39030830794232" lon="11.25771681405919"><ele>110.5</ele><time>2026-04-24T11:48:46Z</time></trkpt><trkpt lat="44.39021682055698" lon="11.257575923043152"><ele>110.25</ele><time>2026-04-24T11:48:47Z</time></trkpt><trkpt lat="44.390115907622786" lon="11.257424644533685"><ele>110.0</ele><time>2026-04-24T11:48:48Z</time></trkpt><trkpt lat="44.39001192268161" lon="11.257251280736051"><ele>110.0</ele><time>2026-04-24T11:48:49Z</time></trkpt><trkpt lat="44.38991157543558" lon="11.257053630289972"><ele>110.0</ele><time>2026-04-24T11:48:50Z</time></trkpt><trkpt lat="44.38982111551075" lon="11.256827230783761"><ele>110.0</ele><time>2026-04-24T11:48:51Z</time></trkpt><trkpt lat="44.38973836504382" lon="11.256579647447115"><ele>114.66666666666666</ele><time>2026-04-24T11:48:52Z</time></trkpt><trkpt lat="44.38966450196717" lon="11.256316886100839"><ele>119.33333333333334</ele><time>2026-04-24T11:48:53Z</time></trkpt><trkpt lat="44.389605312432884" lon="11.256060136423692"><ele>124.0</ele><time>2026-04-24T11:48:54Z</time></trkpt><trkpt lat="44.389554957200424" lon="11.255814132575104"><ele>123.33333333333334</ele><time>2026-04-24T11:48:55Z</time></trkpt><trkpt lat="44.38952395499425" lon="11.255550864994733"><ele>122.66666666666666</ele><time>2026-04-24T11:48:56Z</time></trkpt><trkpt lat="44.38950581724447" lon="11.255295060383624"><ele>122.0</ele><time>2026-04-24T11:48:57Z</time></trkpt><trkpt lat="44.389487631170056" lon="11.255015318602705"><ele>121.5</ele><time>2026-04-24T11:48:58Z</time></trkpt><trkpt lat="44.38946165881954" lon="11.254711947710392"><ele>121.0</ele><time>2026-04-24T11:48:59Z</time></trkpt><trkpt lat="44.38943285275475" lon="11.254386580951637"><ele>121.0</ele><time>2026-04-24T11:49:00Z</time></trkpt><trkpt lat="44.389401400001454" lon="11.25404026906909"><ele>121.0</ele><time>2026-04-24T11:49:01Z</time></trkpt><trkpt lat="44.38937407732461" lon="11.253689662229787"><ele>121.5</ele><time>2026-04-24T11:49:02Z</time></trkpt><trkpt lat="44.38935225750525" lon="11.253342032292595"><ele>122.0</ele><time>2026-04-24T11:49:03Z</time></trkpt><trkpt lat="44.38933394861007" lon="11.252985271929132"><ele>122.0</ele><time>2026-04-24T11:49:04Z</time></trkpt><trkpt lat="44.389308654108945" lon="11.252618180850623"><ele>122.0</ele><time>2026-04-24T11:49:05Z</time></trkpt><trkpt lat="44.38927797886112" lon="11.252251597418974"><ele>122.0</ele><time>2026-04-24T11:49:06Z</time></trkpt><trkpt lat="44.389239034625085" lon="11.25188230001095"><ele>122.0</ele><time>2026-04-24T11:49:07Z</time></trkpt><trkpt lat="44.389184652907524" lon="11.251514658240449"><ele>122.5</ele><time>2026-04-24T11:49:08Z</time></trkpt><trkpt lat="44.38909553931483" lon="11.2511512553727"><ele>123.0</ele><time>2026-04-24T11:49:09Z</time></trkpt><trkpt lat="44.38898733950081" lon="11.25080160253326"><ele>123.0</ele><time>2026-04-24T11:49:10Z</time></trkpt><trkpt lat="44.388861635803714" lon="11.25048576392903"><ele>123.0</ele><time>2026-04-24T11:49:11Z</time></trkpt><trkpt lat="44.38871306177522" lon="11.250182494894892"><ele>123.0</ele><time>2026-04-24T11:49:12Z</time></trkpt><trkpt lat="44.38854067815935" lon="11.249893898533083"><ele>123.0</ele><time>2026-04-24T11:49:13Z</time></trkpt><trkpt lat="44.388357570767866" lon="11.24962876804333"><ele>122.5</ele><time>2026-04-24T11:49:14Z</time></trkpt><trkpt lat="44.38816124423069" lon="11.249395900461735"><ele>122.0</ele><time>2026-04-24T11:49:15Z</time></trkpt><trkpt lat="44.387961119466624" lon="11.2491899694486"><ele>122.0</ele><time>2026-04-24T11:49:16Z</time></trkpt><trkpt lat="44.387749053072646" lon="11.249006522995272"><ele>122.0</ele><time>2026-04-24T11:49:17Z</time></trkpt><trkpt lat="44.38752216826562" lon="11.248885100969988"><ele>122.0</ele><time>2026-04-24T11:49:18Z</time></trkpt><trkpt lat="44.38731534829051" lon="11.248766914154677"><ele>122.0</ele><time>2026-04-24T11:49:19Z</time></trkpt><trkpt lat="44.38710360265125" lon="11.248667809046955"><ele>122.0</ele><time>2026-04-24T11:49:20Z</time></trkpt><trkpt lat="44.386896589363836" lon="11.24859225010949"><ele>122.0</ele><time>2026-04-24T11:49:21Z</time></trkpt><trkpt lat="44.38668531824702" lon="11.248532446261686"><ele>122.0</ele><time>2026-04-24T11:49:22Z</time></trkpt><trkpt lat="44.386474758044" lon="11.248500158752796"><ele>122.0</ele><time>2026-04-24T11:49:23Z</time></trkpt><trkpt lat="44.38627282223749" lon="11.248485701334578"><ele>122.0</ele><time>2026-04-24T11:49:24Z</time></trkpt><trkpt lat="44.38607592458211" lon="11.248485319525406"><ele>122.0</ele><time>2026-04-24T11:49:25Z</time></trkpt><trkpt lat="44.385871584084214" lon="11.2485034360794"><ele>122.0</ele><time>2026-04-24T11:49:26Z</time></trkpt><trkpt lat="44.38565920041223" lon="11.248559012920106"><ele>117.0</ele><time>2026-04-24T11:49:27Z</time></trkpt><trkpt lat="44.385434650191726" lon="11.248656541055839"><ele>112.0</ele><time>2026-04-24T11:49:28Z</time></trkpt><trkpt lat="44.38518582511514" lon="11.248763521870707"><ele>112.0</ele><time>2026-04-24T11:49:29Z</time></trkpt><trkpt lat="44.38493564953042" lon="11.248883353713646"><ele>112.0</ele><time>2026-04-24T11:49:30Z</time></trkpt><trkpt lat="44.384684608209575" lon="11.249063294304213"><ele>116.0</ele><time>2026-04-24T11:49:31Z</time></trkpt><trkpt lat="44.38443856468093" lon="11.249277777180906"><ele>120.0</ele><time>2026-04-24T11:49:32Z</time></trkpt><trkpt lat="44.38420465577143" lon="11.249481316685655"><ele>120.0</ele><time>2026-04-24T11:49:33Z</time></trkpt><trkpt lat="44.383952881960106" lon="11.249684189554628"><ele>120.0</ele><time>2026-04-24T11:49:34Z</time></trkpt><trkpt lat="44.383688518689276" lon="11.249879646248555"><ele>122.5</ele><time>2026-04-24T11:49:35Z</time></trkpt><trkpt lat="44.383422727859696" lon="11.250076339344421"><ele>125.0</ele><time>2026-04-24T11:49:36Z</time></trkpt><trkpt lat="44.38315136955091" lon="11.250274203072719"><ele>126.5</ele><time>2026-04-24T11:49:37Z</time></trkpt><trkpt lat="44.38288089419743" lon="11.25047644807155"><ele>128.0</ele><time>2026-04-24T11:49:38Z</time></trkpt><trkpt lat="44.3826191265394" lon="11.250685638681425"><ele>128.0</ele><time>2026-04-24T11:49:39Z</time></trkpt><trkpt lat="44.38236298432702" lon="11.250893300197808"><ele>128.0</ele><time>2026-04-24T11:49:40Z</time></trkpt><trkpt lat="44.38210848294584" lon="11.251077631535928"><ele>120.5</ele><time>2026-04-24T11:49:41Z</time></trkpt><trkpt lat="44.38184839368895" lon="11.25123282005394"><ele>113.0</ele><time>2026-04-24T11:49:42Z</time></trkpt><trkpt lat="44.381577242225" lon="11.251356394012458"><ele>122.5</ele><time>2026-04-24T11:49:43Z</time></trkpt><trkpt lat="44.38130135560999" lon="11.251458153750665"><ele>132.0</ele><time>2026-04-24T11:49:44Z</time></trkpt><trkpt lat="44.38102172220063" lon="11.251533844731602"><ele>132.0</ele><time>2026-04-24T11:49:45Z</time></trkpt><trkpt lat="44.3807373628085" lon="11.251587477602625"><ele>132.0</ele><time>2026-04-24T11:49:46Z</time></trkpt><trkpt lat="44.3804607048706" lon="11.251628534722519"><ele>131.0</ele><time>2026-04-24T11:49:47Z</time></trkpt><trkpt lat="44.38019550402141" lon="11.251671114392249"><ele>130.0</ele><time>2026-04-24T11:49:48Z</time></trkpt><trkpt lat="44.37993511651337" lon="11.251727877655991"><ele>127.5</ele><time>2026-04-24T11:49:49Z</time></trkpt><trkpt lat="44.37967602831512" lon="11.251796040083912"><ele>125.0</ele><time>2026-04-24T11:49:50Z</time></trkpt><trkpt lat="44.37941379015564" lon="11.25186956474888"><ele>125.0</ele><time>2026-04-24T11:49:51Z</time></trkpt><trkpt lat="44.3791510358023" lon="11.25195656632383"><ele>125.0</ele><time>2026-04-24T11:49:52Z</time></trkpt><trkpt lat="44.37888966012788" lon="11.252066549938146"><ele>120.5</ele><time>2026-04-24T11:49:53Z</time></trkpt><trkpt lat="44.37862784477249" lon="11.252177902836205"><ele>116.0</ele><time>2026-04-24T11:49:54Z</time></trkpt><trkpt lat="44.378359962966" lon="11.252286003519831"><ele>118.5</ele><time>2026-04-24T11:49:55.024Z</time></trkpt><trkpt lat="44.3780948784707" lon="11.252392512987996"><ele>121.0</ele><time>2026-04-24T11:49:56.02Z</time></trkpt><trkpt lat="44.377782524396494" lon="11.252591002012991"><ele>121.0</ele><time>2026-04-24T11:49:57Z</time></trkpt><trkpt lat="44.377496976050885" lon="11.25269359692885"><ele>121.0</ele><time>2026-04-24T11:49:58Z</time></trkpt><trkpt lat="44.37721499806128" lon="11.252776930495468"><ele>120.5</ele><time>2026-04-24T11:49:59Z</time></trkpt><trkpt lat="44.376927793588735" lon="11.252817788817568"><ele>120.0</ele><time>2026-04-24T11:50:00Z</time></trkpt><trkpt lat="44.37663445737209" lon="11.252838203084949"><ele>121.5</ele><time>2026-04-24T11:50:01Z</time></trkpt><trkpt lat="44.37633813892046" lon="11.252839675751838"><ele>123.0</ele><time>2026-04-24T11:50:02Z</time></trkpt><trkpt lat="44.376044869021975" lon="11.252837761150673"><ele>123.0</ele><time>2026-04-24T11:50:03Z</time></trkpt><trkpt lat="44.3757518919525" lon="11.252829653686787"><ele>123.0</ele><time>2026-04-24T11:50:04Z</time></trkpt><trkpt lat="44.37546381941162" lon="11.252825321575244"><ele>123.5</ele><time>2026-04-24T11:50:05Z</time></trkpt><trkpt lat="44.37517928761567" lon="11.252827067183704"><ele>124.0</ele><time>2026-04-24T11:50:06Z</time></trkpt><trkpt lat="44.37489746023699" lon="11.252839284619709"><ele>121.0</ele><time>2026-04-24T11:50:07Z</time></trkpt><trkpt lat="44.37461479848783" lon="11.252876495029376"><ele>118.0</ele><time>2026-04-24T11:50:08Z</time></trkpt><trkpt lat="44.374330441223215" lon="11.252943140056496"><ele>118.0</ele><time>2026-04-24T11:50:09Z</time></trkpt><trkpt lat="44.374049306422584" lon="11.253029321256959"><ele>118.0</ele><time>2026-04-24T11:50:10Z</time></trkpt><trkpt lat="44.3737684769441" lon="11.253146743047214"><ele>122.0</ele><time>2026-04-24T11:50:11Z</time></trkpt><trkpt lat="44.37348847813826" lon="11.253297224012393"><ele>126.0</ele><time>2026-04-24T11:50:12Z</time></trkpt><trkpt lat="44.37321253782447" lon="11.253480502856341"><ele>123.5</ele><time>2026-04-24T11:50:13Z</time></trkpt><trkpt lat="44.37294857964799" lon="11.25369290079375"><ele>121.0</ele><time>2026-04-24T11:50:14Z</time></trkpt><trkpt lat="44.37268600193816" lon="11.253915547777193"><ele>122.0</ele><time>2026-04-24T11:50:15Z</time></trkpt><trkpt lat="44.37241152272783" lon="11.25412396862034"><ele>123.0</ele><time>2026-04-24T11:50:16Z</time></trkpt><trkpt lat="44.37213864906281" lon="11.254328960487634"><ele>123.0</ele><time>2026-04-24T11:50:17Z</time></trkpt><trkpt lat="44.371868230050836" lon="11.254533742699353"><ele>123.0</ele><time>2026-04-24T11:50:18Z</time></trkpt><trkpt lat="44.371606130810285" lon="11.254739974239547"><ele>120.0</ele><time>2026-04-24T11:50:19Z</time></trkpt><trkpt lat="44.371353018992245" lon="11.254930029719986"><ele>117.0</ele><time>2026-04-24T11:50:20Z</time></trkpt><trkpt lat="44.37109823098444" lon="11.255115189485274"><ele>117.0</ele><time>2026-04-24T11:50:21Z</time></trkpt><trkpt lat="44.37084210597391" lon="11.25530128802842"><ele>117.0</ele><time>2026-04-24T11:50:22Z</time></trkpt><trkpt lat="44.37059935705093" lon="11.255495668629406"><ele>115.0</ele><time>2026-04-24T11:50:23Z</time></trkpt><trkpt lat="44.37036350254352" lon="11.255671497480717"><ele>113.0</ele><time>2026-04-24T11:50:24Z</time></trkpt><trkpt lat="44.3701525189027" lon="11.255851446367926"><ele>113.0</ele><time>2026-04-24T11:50:25Z</time></trkpt><trkpt lat="44.369964035606" lon="11.256052808282677"><ele>113.0</ele><time>2026-04-24T11:50:26Z</time></trkpt><trkpt lat="44.36980126455523" lon="11.256262054829953"><ele>113.33333333333333</ele><time>2026-04-24T11:50:27Z</time></trkpt><trkpt lat="44.369653682872524" lon="11.256468069051165"><ele>113.66666666666666</ele><time>2026-04-24T11:50:28Z</time></trkpt><trkpt lat="44.369527155878004" lon="11.25666045166988"><ele>114.0</ele><time>2026-04-24T11:50:29Z</time></trkpt><trkpt lat="44.36941854765021" lon="11.25684423579416"><ele>114.0</ele><time>2026-04-24T11:50:30Z</time></trkpt><trkpt lat="44.369315185557554" lon="11.257019460483322"><ele>114.0</ele><time>2026-04-24T11:50:31Z</time></trkpt><trkpt lat="44.36920223693227" lon="11.257173440521887"><ele>114.0</ele><time>2026-04-24T11:50:32Z</time></trkpt><trkpt lat="44.36906309076112" lon="11.257308942457481"><ele>114.0</ele><time>2026-04-24T11:50:33Z</time></trkpt><trkpt lat="44.36889930158452" lon="11.257429249607132"><ele>114.0</ele><time>2026-04-24T11:50:34Z</time></trkpt><trkpt lat="44.36870704977155" lon="11.257522417199207"><ele>114.0</ele><time>2026-04-24T11:50:35Z</time></trkpt><trkpt lat="44.36849761322018" lon="11.257593863764688"><ele>112.0</ele><time>2026-04-24T11:50:36Z</time></trkpt><trkpt lat="44.36827361025879" lon="11.257655721100102"><ele>110.0</ele><time>2026-04-24T11:50:37Z</time></trkpt><trkpt lat="44.368037745813865" lon="11.2577202230053"><ele>110.0</ele><time>2026-04-24T11:50:38Z</time></trkpt><trkpt lat="44.36779671174968" lon="11.257790899200915"><ele>110.0</ele><time>2026-04-24T11:50:39Z</time></trkpt><trkpt lat="44.3675600361268" lon="11.257870144371305"><ele>110.0</ele><time>2026-04-24T11:50:40Z</time></trkpt><trkpt lat="44.36732997754419" lon="11.257944488760758"><ele>110.0</ele><time>2026-04-24T11:50:41Z</time></trkpt><trkpt lat="44.367088297856895" lon="11.258019942755501"><ele>110.5</ele><time>2026-04-24T11:50:42Z</time></trkpt><trkpt lat="44.36683659100879" lon="11.258110303557544"><ele>111.0</ele><time>2026-04-24T11:50:43Z</time></trkpt><trkpt lat="44.36658026915573" lon="11.258213758714504"><ele>110.5</ele><time>2026-04-24T11:50:44Z</time></trkpt><trkpt lat="44.36632278847134" lon="11.258322587401455"><ele>110.0</ele><time>2026-04-24T11:50:45Z</time></trkpt><trkpt lat="44.36607508669138" lon="11.258430652260337"><ele>110.0</ele><time>2026-04-24T11:50:46Z</time></trkpt><trkpt lat="44.36582198025331" lon="11.258541028871855"><ele>110.0</ele><time>2026-04-24T11:50:47Z</time></trkpt><trkpt lat="44.36556420613934" lon="11.258653875950493"><ele>110.5</ele><time>2026-04-24T11:50:48Z</time></trkpt><trkpt lat="44.36530207397089" lon="11.258768550748028"><ele>111.0</ele><time>2026-04-24T11:50:49Z</time></trkpt><trkpt lat="44.36503313281138" lon="11.258887572594254"><ele>111.0</ele><time>2026-04-24T11:50:50Z</time></trkpt><trkpt lat="44.364760336313644" lon="11.259007570286121"><ele>111.0</ele><time>2026-04-24T11:50:51Z</time></trkpt><trkpt lat="44.36448564948994" lon="11.259128937224002"><ele>111.5</ele><time>2026-04-24T11:50:52Z</time></trkpt><trkpt lat="44.364211480371814" lon="11.259249060484096"><ele>112.0</ele><time>2026-04-24T11:50:53Z</time></trkpt><trkpt lat="44.3639349887592" lon="11.25936950688414"><ele>112.5</ele><time>2026-04-24T11:50:54Z</time></trkpt><trkpt lat="44.36365688315115" lon="11.259492515261822"><ele>113.0</ele><time>2026-04-24T11:50:55Z</time></trkpt><trkpt lat="44.36337764364331" lon="11.259618893157237"><ele>113.0</ele><time>2026-04-24T11:50:56Z</time></trkpt><trkpt lat="44.36309262253011" lon="11.25974854723011"><ele>113.0</ele><time>2026-04-24T11:50:57Z</time></trkpt><trkpt lat="44.362807140171896" lon="11.259876878485438"><ele>111.5</ele><time>2026-04-24T11:50:58Z</time></trkpt><trkpt lat="44.36252621772292" lon="11.260001606689569"><ele>110.0</ele><time>2026-04-24T11:50:59Z</time></trkpt><trkpt lat="44.36224745990588" lon="11.260125517806399"><ele>111.5</ele><time>2026-04-24T11:51:00Z</time></trkpt><trkpt lat="44.36198083438009" lon="11.260248556883743"><ele>113.0</ele><time>2026-04-24T11:51:01Z</time></trkpt><trkpt lat="44.36171680818856" lon="11.260372045344864"><ele>113.0</ele><time>2026-04-24T11:51:02Z</time></trkpt><trkpt lat="44.36145497666661" lon="11.26049037839154"><ele>113.0</ele><time>2026-04-24T11:51:03Z</time></trkpt><trkpt lat="44.361186880960204" lon="11.26060910295948"><ele>114.0</ele><time>2026-04-24T11:51:04Z</time></trkpt><trkpt lat="44.360912133211826" lon="11.260733343338112"><ele>115.0</ele><time>2026-04-24T11:51:05Z</time></trkpt><trkpt lat="44.360632907768604" lon="11.260858060734114"><ele>116.5</ele><time>2026-04-24T11:51:06Z</time></trkpt><trkpt lat="44.36034740774874" lon="11.260985387318396"><ele>118.0</ele><time>2026-04-24T11:51:07Z</time></trkpt><trkpt lat="44.36006601833647" lon="11.261107331486409"><ele>118.0</ele><time>2026-04-24T11:51:08Z</time></trkpt><trkpt lat="44.35978801028457" lon="11.261229178967152"><ele>118.0</ele><time>2026-04-24T11:51:09Z</time></trkpt><trkpt lat="44.359511977599915" lon="11.26135138518309"><ele>117.0</ele><time>2026-04-24T11:51:10Z</time></trkpt><trkpt lat="44.35923182747712" lon="11.261479612937354"><ele>116.0</ele><time>2026-04-24T11:51:11Z</time></trkpt><trkpt lat="44.358949810868374" lon="11.261608110322625"><ele>116.5</ele><time>2026-04-24T11:51:12Z</time></trkpt><trkpt lat="44.35866174296348" lon="11.261737385643373"><ele>117.0</ele><time>2026-04-24T11:51:13Z</time></trkpt><trkpt lat="44.358378039037916" lon="11.261863581346406"><ele>117.0</ele><time>2026-04-24T11:51:14Z</time></trkpt><trkpt lat="44.3580934604858" lon="11.26199055813715"><ele>117.0</ele><time>2026-04-24T11:51:15Z</time></trkpt><trkpt lat="44.357810464530154" lon="11.262120257432235"><ele>117.0</ele><time>2026-04-24T11:51:16Z</time></trkpt><trkpt lat="44.35753076960565" lon="11.262252635397045"><ele>117.0</ele><time>2026-04-24T11:51:17Z</time></trkpt><trkpt lat="44.3572500288324" lon="11.262388189941246"><ele>117.5</ele><time>2026-04-24T11:51:18Z</time></trkpt><trkpt lat="44.35696875760796" lon="11.262523544120238"><ele>118.0</ele><time>2026-04-24T11:51:19Z</time></trkpt><trkpt lat="44.356687785599995" lon="11.262654874091327"><ele>118.0</ele><time>2026-04-24T11:51:20Z</time></trkpt><trkpt lat="44.356404732238445" lon="11.262782650913636"><ele>118.0</ele><time>2026-04-24T11:51:21Z</time></trkpt><trkpt lat="44.35612294363673" lon="11.262909805358714"><ele>118.5</ele><time>2026-04-24T11:51:22Z</time></trkpt><trkpt lat="44.35583888206446" lon="11.263036930503299"><ele>119.0</ele><time>2026-04-24T11:51:23Z</time></trkpt><trkpt lat="44.35555642401702" lon="11.26315888928934"><ele>118.0</ele><time>2026-04-24T11:51:24Z</time></trkpt><trkpt lat="44.35527490975549" lon="11.26327710888584"><ele>117.0</ele><time>2026-04-24T11:51:25Z</time></trkpt><trkpt lat="44.35498932606657" lon="11.26339526974059"><ele>118.5</ele><time>2026-04-24T11:51:26Z</time></trkpt><trkpt lat="44.35470442002753" lon="11.263511355336934"><ele>120.0</ele><time>2026-04-24T11:51:27Z</time></trkpt><trkpt lat="44.354417240510635" lon="11.263629709652657"><ele>120.0</ele><time>2026-04-24T11:51:28Z</time></trkpt><trkpt lat="44.354131981874446" lon="11.263755213445943"><ele>120.0</ele><time>2026-04-24T11:51:29Z</time></trkpt><trkpt lat="44.353852474142506" lon="11.263880272356612"><ele>120.5</ele><time>2026-04-24T11:51:30Z</time></trkpt><trkpt lat="44.35357063804772" lon="11.264002084581882"><ele>121.0</ele><time>2026-04-24T11:51:31Z</time></trkpt><trkpt lat="44.35328728677931" lon="11.264123286940197"><ele>121.5</ele><time>2026-04-24T11:51:32Z</time></trkpt><trkpt lat="44.3530027512083" lon="11.264247782357891"><ele>122.0</ele><time>2026-04-24T11:51:33Z</time></trkpt><trkpt lat="44.35272199291153" lon="11.264375805404079"><ele>122.0</ele><time>2026-04-24T11:51:34Z</time></trkpt><trkpt lat="44.35244020472796" lon="11.264505834474589"><ele>122.0</ele><time>2026-04-24T11:51:35Z</time></trkpt><trkpt lat="44.35215606941656" lon="11.264633215619586"><ele>123.0</ele><time>2026-04-24T11:51:36Z</time></trkpt><trkpt lat="44.35187255422235" lon="11.264761024665917"><ele>124.0</ele><time>2026-04-24T11:51:37Z</time></trkpt><trkpt lat="44.35159054910113" lon="11.264889473525864"><ele>123.5</ele><time>2026-04-24T11:51:38Z</time></trkpt><trkpt lat="44.35130796196386" lon="11.265019360953906"><ele>123.0</ele><time>2026-04-24T11:51:39Z</time></trkpt><trkpt lat="44.351024776424154" lon="11.265146132898419"><ele>123.0</ele><time>2026-04-24T11:51:40Z</time></trkpt><trkpt lat="44.35074390369298" lon="11.265269052584534"><ele>123.0</ele><time>2026-04-24T11:51:41Z</time></trkpt><trkpt lat="44.3504619192062" lon="11.265398280707307"><ele>123.0</ele><time>2026-04-24T11:51:42Z</time></trkpt><trkpt lat="44.35018022191234" lon="11.26552642917094"><ele>123.0</ele><time>2026-04-24T11:51:43Z</time></trkpt><trkpt lat="44.34990100376923" lon="11.265651829989418"><ele>125.5</ele><time>2026-04-24T11:51:44Z</time></trkpt><trkpt lat="44.34962266903076" lon="11.26577634325254"><ele>128.0</ele><time>2026-04-24T11:51:45Z</time></trkpt><trkpt lat="44.3493430641818" lon="11.265902435356303"><ele>128.0</ele><time>2026-04-24T11:51:46Z</time></trkpt><trkpt lat="44.34906205621592" lon="11.266030106602217"><ele>128.0</ele><time>2026-04-24T11:51:47Z</time></trkpt><trkpt lat="44.34877954009862" lon="11.266156292281142"><ele>126.5</ele><time>2026-04-24T11:51:48Z</time></trkpt><trkpt lat="44.34849654348829" lon="11.26628096843094"><ele>125.0</ele><time>2026-04-24T11:51:49Z</time></trkpt><trkpt lat="44.34821290122599" lon="11.26640525242931"><ele>125.0</ele><time>2026-04-24T11:51:50Z</time></trkpt><trkpt lat="44.34792718328303" lon="11.266530904008372"><ele>125.0</ele><time>2026-04-24T11:51:51Z</time></trkpt><trkpt lat="44.34764229187714" lon="11.266655215293452"><ele>125.0</ele><time>2026-04-24T11:51:52Z</time></trkpt><trkpt lat="44.34735826643735" lon="11.266782775304407"><ele>125.0</ele><time>2026-04-24T11:51:53Z</time></trkpt><trkpt lat="44.347077048529684" lon="11.266910676133197"><ele>125.5</ele><time>2026-04-24T11:51:54Z</time></trkpt><trkpt lat="44.34679532849888" lon="11.267041304464925"><ele>126.0</ele><time>2026-04-24T11:51:55Z</time></trkpt><trkpt lat="44.346513414526065" lon="11.267169110413247"><ele>127.5</ele><time>2026-04-24T11:51:56Z</time></trkpt><trkpt lat="44.34623040769511" lon="11.267294860164393"><ele>129.0</ele><time>2026-04-24T11:51:57Z</time></trkpt><trkpt lat="44.34594575267298" lon="11.267422271517296"><ele>129.0</ele><time>2026-04-24T11:51:58Z</time></trkpt><trkpt lat="44.345661586027155" lon="11.267546501624308"><ele>129.0</ele><time>2026-04-24T11:51:59Z</time></trkpt><trkpt lat="44.34537883460072" lon="11.26766129498414"><ele>128.0</ele><time>2026-04-24T11:52:00Z</time></trkpt><trkpt lat="44.34509038734888" lon="11.267772224170413"><ele>127.0</ele><time>2026-04-24T11:52:01Z</time></trkpt><trkpt lat="44.3448031123321" lon="11.267873287210225"><ele>127.0</ele><time>2026-04-24T11:52:02Z</time></trkpt><trkpt lat="44.344511203138794" lon="11.267966825851893"><ele>127.0</ele><time>2026-04-24T11:52:03Z</time></trkpt><trkpt lat="44.34422110511803" lon="11.268048724987201"><ele>128.5</ele><time>2026-04-24T11:52:04Z</time></trkpt><trkpt lat="44.343928913926035" lon="11.268120299211317"><ele>130.0</ele><time>2026-04-24T11:52:05Z</time></trkpt><trkpt lat="44.34363407245732" lon="11.268175024536323"><ele>130.0</ele><time>2026-04-24T11:52:06Z</time></trkpt><trkpt lat="44.343336512955524" lon="11.268209874964063"><ele>130.0</ele><time>2026-04-24T11:52:07Z</time></trkpt><trkpt lat="44.34303940583542" lon="11.268233528516605"><ele>130.5</ele><time>2026-04-24T11:52:08Z</time></trkpt><trkpt lat="44.34274322411303" lon="11.268247053593624"><ele>131.0</ele><time>2026-04-24T11:52:09Z</time></trkpt><trkpt lat="44.34244822338178" lon="11.26824214982676"><ele>131.0</ele><time>2026-04-24T11:52:10Z</time></trkpt><trkpt lat="44.342151873699216" lon="11.268205743372954"><ele>131.0</ele><time>2026-04-24T11:52:11Z</time></trkpt><trkpt lat="44.341857123440434" lon="11.268154615752913"><ele>130.5</ele><time>2026-04-24T11:52:12Z</time></trkpt><trkpt lat="44.34156327251367" lon="11.268093447215227"><ele>130.0</ele><time>2026-04-24T11:52:13Z</time></trkpt><trkpt lat="44.34127482635857" lon="11.268011685630709"><ele>129.5</ele><time>2026-04-24T11:52:14Z</time></trkpt><trkpt lat="44.34098644470138" lon="11.267908068943758"><ele>129.0</ele><time>2026-04-24T11:52:15Z</time></trkpt><trkpt lat="44.340704498319255" lon="11.267787233946231"><ele>132.0</ele><time>2026-04-24T11:52:16Z</time></trkpt><trkpt lat="44.340426023210185" lon="11.267649638273232"><ele>135.0</ele><time>2026-04-24T11:52:17Z</time></trkpt><trkpt lat="44.34015202882134" lon="11.267496087786512"><ele>135.0</ele><time>2026-04-24T11:52:18Z</time></trkpt><trkpt lat="44.3398769828472" lon="11.267332504382507"><ele>135.0</ele><time>2026-04-24T11:52:19Z</time></trkpt><trkpt lat="44.3396082454542" lon="11.267150608385291"><ele>136.0</ele><time>2026-04-24T11:52:20Z</time></trkpt><trkpt lat="44.3393516951671" lon="11.266948013091419"><ele>137.0</ele><time>2026-04-24T11:52:21Z</time></trkpt><trkpt lat="44.33910383964068" lon="11.266724382032965"><ele>135.5</ele><time>2026-04-24T11:52:22Z</time></trkpt><trkpt lat="44.33885974889829" lon="11.266485178228951"><ele>134.0</ele><time>2026-04-24T11:52:23Z</time></trkpt><trkpt lat="44.33861997454367" lon="11.266242229276306"><ele>132.5</ele><time>2026-04-24T11:52:24Z</time></trkpt><trkpt lat="44.33838289879886" lon="11.265993769444313"><ele>131.0</ele><time>2026-04-24T11:52:25Z</time></trkpt><trkpt lat="44.338147125108776" lon="11.265739689521629"><ele>149.5</ele><time>2026-04-24T11:52:26Z</time></trkpt><trkpt lat="44.337916084945746" lon="11.265477548186006"><ele>168.0</ele><time>2026-04-24T11:52:27Z</time></trkpt><trkpt lat="44.33769231722276" lon="11.265210696144031"><ele>168.0</ele><time>2026-04-24T11:52:28Z</time></trkpt><trkpt lat="44.33747142941042" lon="11.26493489172148"><ele>168.0</ele><time>2026-04-24T11:52:29Z</time></trkpt><trkpt lat="44.337256189712235" lon="11.264668138786584"><ele>190.5</ele><time>2026-04-24T11:52:30Z</time></trkpt><trkpt lat="44.337040092640855" lon="11.264407107261107"><ele>213.0</ele><time>2026-04-24T11:52:31Z</time></trkpt><trkpt lat="44.336822733723785" lon="11.264151322836351"><ele>217.5</ele><time>2026-04-24T11:52:32.018Z</time></trkpt><trkpt lat="44.33660613033569" lon="11.263890785792158"><ele>222.0</ele><time>2026-04-24T11:52:33.019Z</time></trkpt><trkpt lat="44.33639066340256" lon="11.263634624594625"><ele>226.5</ele><time>2026-04-24T11:52:34.022Z</time></trkpt><trkpt lat="44.33617704600294" lon="11.263383475300055"><ele>231.0</ele><time>2026-04-24T11:52:35.016Z</time></trkpt><trkpt lat="44.33596311712454" lon="11.2631289246728"><ele>267.0</ele><time>2026-04-24T11:52:36.022Z</time></trkpt><trkpt lat="44.333938242370486" lon="11.260730663464155"><ele>172.0</ele><time>2026-04-24T11:52:46.341Z</time></trkpt><trkpt lat="44.32323746852979" lon="11.254307040955176"><ele>175.5</ele><time>2026-04-24T11:53:24Z</time></trkpt><trkpt lat="44.32296589255255" lon="11.25413935104027"><ele>179.0</ele><time>2026-04-24T11:53:25Z</time></trkpt><trkpt lat="44.32234333902727" lon="11.25401931296099"><ele>193.0</ele><time>2026-04-24T11:53:26Z</time></trkpt><trkpt lat="44.32214240132308" lon="11.253846193477857"><ele>207.0</ele><time>2026-04-24T11:53:27Z</time></trkpt><trkpt lat="44.32191672921923" lon="11.253671638569639"><ele>207.0</ele><time>2026-04-24T11:53:28Z</time></trkpt><trkpt lat="44.32171890228193" lon="11.253473532398516"><ele>207.0</ele><time>2026-04-24T11:53:29Z</time></trkpt><trkpt lat="44.32143520223482" lon="11.253289283185415"><ele>235.5</ele><time>2026-04-24T11:53:30Z</time></trkpt><trkpt lat="44.32114771296997" lon="11.253105863826542"><ele>264.0</ele><time>2026-04-24T11:53:31.019Z</time></trkpt><trkpt lat="44.32086151063743" lon="11.252923753319852"><ele>264.0</ele><time>2026-04-24T11:53:32.019Z</time></trkpt><trkpt lat="44.32058842907013" lon="11.252748567830958"><ele>264.0</ele><time>2026-04-24T11:53:33.015Z</time></trkpt><trkpt lat="44.32030171447122" lon="11.252566526098793"><ele>267.0</ele><time>2026-04-24T11:53:34.02Z</time></trkpt><trkpt lat="44.32001849041167" lon="11.252386196903261"><ele>270.0</ele><time>2026-04-24T11:53:35.016Z</time></trkpt><trkpt lat="44.311829321127675" lon="11.250493861745344"><ele>230.5</ele><time>2026-04-24T11:54:06Z</time></trkpt><trkpt lat="44.31155030039285" lon="11.250481935999725"><ele>191.0</ele><time>2026-04-24T11:54:07Z</time></trkpt><trkpt lat="44.31126372337916" lon="11.250443391559408"><ele>191.0</ele><time>2026-04-24T11:54:08Z</time></trkpt><trkpt lat="44.31099147688458" lon="11.250388069608729"><ele>191.0</ele><time>2026-04-24T11:54:09Z</time></trkpt><trkpt lat="44.3107197500705" lon="11.250317421348475"><ele>195.0</ele><time>2026-04-24T11:54:10Z</time></trkpt><trkpt lat="44.31044946234434" lon="11.250225503999301"><ele>199.0</ele><time>2026-04-24T11:54:11Z</time></trkpt><trkpt lat="44.31017652814065" lon="11.250121226538209"><ele>199.0</ele><time>2026-04-24T11:54:12Z</time></trkpt><trkpt lat="44.30990337772072" lon="11.250014048617876"><ele>199.0</ele><time>2026-04-24T11:54:13Z</time></trkpt><trkpt lat="44.30963737719875" lon="11.249883683231348"><ele>207.5</ele><time>2026-04-24T11:54:14Z</time></trkpt><trkpt lat="44.30937046971551" lon="11.249738717083035"><ele>216.0</ele><time>2026-04-24T11:54:15Z</time></trkpt><trkpt lat="44.309111963927144" lon="11.249584367704227"><ele>210.0</ele><time>2026-04-24T11:54:16Z</time></trkpt><trkpt lat="44.30886126784728" lon="11.24941836812962"><ele>204.0</ele><time>2026-04-24T11:54:17Z</time></trkpt><trkpt lat="44.30861556349537" lon="11.249249901689398"><ele>204.0</ele><time>2026-04-24T11:54:18Z</time></trkpt><trkpt lat="44.3083680562923" lon="11.249082735637737"><ele>204.0</ele><time>2026-04-24T11:54:19Z</time></trkpt><trkpt lat="44.308123963190894" lon="11.2489200990107"><ele>197.5</ele><time>2026-04-24T11:54:20Z</time></trkpt><trkpt lat="44.307878170981404" lon="11.248750731193383"><ele>191.0</ele><time>2026-04-24T11:54:21Z</time></trkpt><trkpt lat="44.307635933954565" lon="11.24857276174768"><ele>191.0</ele><time>2026-04-24T11:54:22Z</time></trkpt><trkpt lat="44.30739370911277" lon="11.248398799477066"><ele>191.0</ele><time>2026-04-24T11:54:23Z</time></trkpt><trkpt lat="44.30715558606558" lon="11.248225108142247"><ele>173.0</ele><time>2026-04-24T11:54:24Z</time></trkpt><trkpt lat="44.30698493583594" lon="11.247638337127734"><ele>173.0</ele><time>2026-04-24T11:54:25Z</time></trkpt><trkpt lat="44.306777858193655" lon="11.247408353612792"><ele>173.0</ele><time>2026-04-24T11:54:26Z</time></trkpt><trkpt lat="44.306559534478964" lon="11.247160535729451"><ele>173.0</ele><time>2026-04-24T11:54:27Z</time></trkpt><trkpt lat="44.3063354424471" lon="11.246925743159398"><ele>173.0</ele><time>2026-04-24T11:54:28Z</time></trkpt><trkpt lat="44.3061097147171" lon="11.246687274509737"><ele>177.0</ele><time>2026-04-24T11:54:29Z</time></trkpt><trkpt lat="44.30588652442788" lon="11.24645267488459"><ele>181.0</ele><time>2026-04-24T11:54:30Z</time></trkpt><trkpt lat="44.305661890135745" lon="11.246219567150806"><ele>176.5</ele><time>2026-04-24T11:54:31Z</time></trkpt><trkpt lat="44.30543894154977" lon="11.245986911033967"><ele>172.0</ele><time>2026-04-24T11:54:32Z</time></trkpt><trkpt lat="44.30521523686956" lon="11.245756262392037"><ele>177.0</ele><time>2026-04-24T11:54:33Z</time></trkpt><trkpt lat="44.30498981913324" lon="11.245524292248335"><ele>182.0</ele><time>2026-04-24T11:54:34Z</time></trkpt><trkpt lat="44.304767206183286" lon="11.245291298178985"><ele>178.5</ele><time>2026-04-24T11:54:35Z</time></trkpt><trkpt lat="44.304544105949" lon="11.245059515413214"><ele>175.0</ele><time>2026-04-24T11:54:36Z</time></trkpt><trkpt lat="44.30431764917547" lon="11.244826760616007"><ele>178.0</ele><time>2026-04-24T11:54:37Z</time></trkpt><trkpt lat="44.30409185788604" lon="11.244598926431756"><ele>181.0</ele><time>2026-04-24T11:54:38Z</time></trkpt><trkpt lat="44.30386665933533" lon="11.244365257418265"><ele>181.0</ele><time>2026-04-24T11:54:39Z</time></trkpt><trkpt lat="44.30364283330382" lon="11.244134990529744"><ele>181.0</ele><time>2026-04-24T11:54:40Z</time></trkpt><trkpt lat="44.30341959192265" lon="11.243904244981573"><ele>181.5</ele><time>2026-04-24T11:54:41Z</time></trkpt><trkpt lat="44.303194761102574" lon="11.243671967811423"><ele>182.0</ele><time>2026-04-24T11:54:42Z</time></trkpt><trkpt lat="44.302967905825234" lon="11.243439612943755"><ele>182.0</ele><time>2026-04-24T11:54:43Z</time></trkpt><trkpt lat="44.30274147934174" lon="11.243203897104792"><ele>182.0</ele><time>2026-04-24T11:54:44Z</time></trkpt><trkpt lat="44.302510634812464" lon="11.242966865052221"><ele>183.5</ele><time>2026-04-24T11:54:45Z</time></trkpt><trkpt lat="44.302277939664094" lon="11.242732246916997"><ele>185.0</ele><time>2026-04-24T11:54:46Z</time></trkpt><trkpt lat="44.30204899977319" lon="11.242496995898078"><ele>190.5</ele><time>2026-04-24T11:54:47Z</time></trkpt><trkpt lat="44.301803270810254" lon="11.242248385335479"><ele>196.0</ele><time>2026-04-24T11:54:48Z</time></trkpt><trkpt lat="44.30155058108649" lon="11.24200013236497"><ele>193.0</ele><time>2026-04-24T11:54:49Z</time></trkpt><trkpt lat="44.30129364934301" lon="11.241754011360502"><ele>190.0</ele><time>2026-04-24T11:54:50.015Z</time></trkpt><trkpt lat="44.30103930852569" lon="11.24150931136481"><ele>192.5</ele><time>2026-04-24T11:54:51.015Z</time></trkpt><trkpt lat="44.30078392720204" lon="11.241263816056453"><ele>195.0</ele><time>2026-04-24T11:54:52.022Z</time></trkpt><trkpt lat="44.300532460290654" lon="11.241024657983028"><ele>195.0</ele><time>2026-04-24T11:54:53.015Z</time></trkpt><trkpt lat="44.300278247138216" lon="11.240785669802332"><ele>195.0</ele><time>2026-04-24T11:54:54.016Z</time></trkpt><trkpt lat="44.30002215799194" lon="11.240546900774076"><ele>196.0</ele><time>2026-04-24T11:54:55.014Z</time></trkpt><trkpt lat="44.298029188107975" lon="11.233913786719771"><ele>196.0</ele><time>2026-04-24T11:55:14Z</time></trkpt><trkpt lat="44.2979685081569" lon="11.23352643561581"><ele>196.0</ele><time>2026-04-24T11:55:15Z</time></trkpt><trkpt lat="44.297846582134035" lon="11.23314261557779"><ele>196.5</ele><time>2026-04-24T11:55:16Z</time></trkpt><trkpt lat="44.29778204691242" lon="11.23275324685098"><ele>197.0</ele><time>2026-04-24T11:55:17Z</time></trkpt><trkpt lat="44.297714656373856" lon="11.232360438781074"><ele>199.5</ele><time>2026-04-24T11:55:18Z</time></trkpt><trkpt lat="44.29764819366439" lon="11.231971975602455"><ele>202.0</ele><time>2026-04-24T11:55:19Z</time></trkpt><trkpt lat="44.29758037215356" lon="11.231584033416263"><ele>203.5</ele><time>2026-04-24T11:55:20Z</time></trkpt><trkpt lat="44.29750670575254" lon="11.231201575694678"><ele>205.0</ele><time>2026-04-24T11:55:21Z</time></trkpt><trkpt lat="44.29742410106477" lon="11.230819149576032"><ele>209.5</ele><time>2026-04-24T11:55:22Z</time></trkpt><trkpt lat="44.2973404723625" lon="11.230440702917187"><ele>214.0</ele><time>2026-04-24T11:55:23Z</time></trkpt><trkpt lat="44.297253764533146" lon="11.230054741276874"><ele>203.5</ele><time>2026-04-24T11:55:24Z</time></trkpt><trkpt lat="44.297171091432595" lon="11.22967770286521"><ele>193.0</ele><time>2026-04-24T11:55:25Z</time></trkpt><trkpt lat="44.29708675515322" lon="11.229297481848311"><ele>195.0</ele><time>2026-04-24T11:55:26Z</time></trkpt><trkpt lat="44.29700022010509" lon="11.228916318405386"><ele>197.0</ele><time>2026-04-24T11:55:27Z</time></trkpt><trkpt lat="44.29691114914223" lon="11.22853603687364"><ele>197.0</ele><time>2026-04-24T11:55:28Z</time></trkpt><trkpt lat="44.296823859180186" lon="11.228158733968758"><ele>197.0</ele><time>2026-04-24T11:55:29Z</time></trkpt><trkpt lat="44.296737682828834" lon="11.227779598388665"><ele>201.0</ele><time>2026-04-24T11:55:30Z</time></trkpt><trkpt lat="44.296651570483064" lon="11.227402594704959"><ele>205.0</ele><time>2026-04-24T11:55:31Z</time></trkpt><trkpt lat="44.29656311548458" lon="11.227020103368556"><ele>201.5</ele><time>2026-04-24T11:55:32Z</time></trkpt><trkpt lat="44.29647290503793" lon="11.22664391233184"><ele>198.0</ele><time>2026-04-24T11:55:33Z</time></trkpt><trkpt lat="44.29638018707606" lon="11.22626485449021"><ele>198.0</ele><time>2026-04-24T11:55:34Z</time></trkpt><trkpt lat="44.29628989902557" lon="11.225885488824323"><ele>198.0</ele><time>2026-04-24T11:55:35Z</time></trkpt><trkpt lat="44.29620183806469" lon="11.22550832523918"><ele>200.0</ele><time>2026-04-24T11:55:36Z</time></trkpt><trkpt lat="44.296113861750925" lon="11.225130251103735"><ele>202.0</ele><time>2026-04-24T11:55:37Z</time></trkpt><trkpt lat="44.29603010615107" lon="11.224755527855196"><ele>204.5</ele><time>2026-04-24T11:55:38Z</time></trkpt><trkpt lat="44.29594190107946" lon="11.224379873450069"><ele>207.0</ele><time>2026-04-24T11:55:39Z</time></trkpt><trkpt lat="44.29585189202212" lon="11.224004098846123"><ele>209.0</ele><time>2026-04-24T11:55:40Z</time></trkpt><trkpt lat="44.2957582769756" lon="11.22362512408984"><ele>211.0</ele><time>2026-04-24T11:55:41Z</time></trkpt><trkpt lat="44.29566894262629" lon="11.22325007675676"><ele>206.0</ele><time>2026-04-24T11:55:42Z</time></trkpt><trkpt lat="44.295583754770306" lon="11.222878128839456"><ele>201.0</ele><time>2026-04-24T11:55:43Z</time></trkpt><trkpt lat="44.29550747041704" lon="11.222537676433296"><ele>202.5</ele><time>2026-04-24T11:55:44Z</time></trkpt><trkpt lat="44.29543283401205" lon="11.222210170054991"><ele>204.0</ele><time>2026-04-24T11:55:45Z</time></trkpt><trkpt lat="44.295357886379925" lon="11.221891313396414"><ele>204.0</ele><time>2026-04-24T11:55:46Z</time></trkpt><trkpt lat="44.295279139131644" lon="11.221572859852175"><ele>204.0</ele><time>2026-04-24T11:55:47Z</time></trkpt><trkpt lat="44.295202460354794" lon="11.221244598805324"><ele>204.0</ele><time>2026-04-24T11:55:48Z</time></trkpt><trkpt lat="44.295127519900255" lon="11.220920212590409"><ele>204.0</ele><time>2026-04-24T11:55:49Z</time></trkpt><trkpt lat="44.29505333998528" lon="11.220596424789688"><ele>203.0</ele><time>2026-04-24T11:55:50Z</time></trkpt><trkpt lat="44.29498123193617" lon="11.220270127252286"><ele>202.0</ele><time>2026-04-24T11:55:51Z</time></trkpt><trkpt lat="44.2949077329204" lon="11.219940289405372"><ele>198.5</ele><time>2026-04-24T11:55:52Z</time></trkpt><trkpt lat="44.29483028742606" lon="11.219600583664198"><ele>195.0</ele><time>2026-04-24T11:55:53Z</time></trkpt><trkpt lat="44.29474854879193" lon="11.219255561282438"><ele>198.5</ele><time>2026-04-24T11:55:54Z</time></trkpt><trkpt lat="44.29466439284245" lon="11.218910532273805"><ele>202.0</ele><time>2026-04-24T11:55:55Z</time></trkpt><trkpt lat="44.294578183611456" lon="11.218562854940506"><ele>202.0</ele><time>2026-04-24T11:55:56Z</time></trkpt><trkpt lat="44.294490240212575" lon="11.218210207842876"><ele>202.0</ele><time>2026-04-24T11:55:57Z</time></trkpt><trkpt lat="44.29440171752457" lon="11.217854997168123"><ele>203.0</ele><time>2026-04-24T11:55:58Z</time></trkpt><trkpt lat="44.294315778876474" lon="11.217502099054375"><ele>204.0</ele><time>2026-04-24T11:55:59Z</time></trkpt><trkpt lat="44.29422529895167" lon="11.217145222231078"><ele>208.5</ele><time>2026-04-24T11:56:00Z</time></trkpt><trkpt lat="44.29413711494686" lon="11.216788101907284"><ele>213.0</ele><time>2026-04-24T11:56:01Z</time></trkpt><trkpt lat="44.294044191950555" lon="11.216432807064255"><ele>207.5</ele><time>2026-04-24T11:56:02Z</time></trkpt><trkpt lat="44.29394985422271" lon="11.216065068048065"><ele>202.0</ele><time>2026-04-24T11:56:03Z</time></trkpt><trkpt lat="44.29385538845067" lon="11.215695791786874"><ele>203.5</ele><time>2026-04-24T11:56:04Z</time></trkpt><trkpt lat="44.29376610710654" lon="11.21532869618956"><ele>205.0</ele><time>2026-04-24T11:56:05Z</time></trkpt><trkpt lat="44.29367264766259" lon="11.214955589566216"><ele>207.0</ele><time>2026-04-24T11:56:06Z</time></trkpt><trkpt lat="44.2935799098264" lon="11.214589153416476"><ele>209.0</ele><time>2026-04-24T11:56:07Z</time></trkpt><trkpt lat="44.29348761031692" lon="11.214227722609149"><ele>215.0</ele><time>2026-04-24T11:56:08Z</time></trkpt><trkpt lat="44.293394540333885" lon="11.213877304947328"><ele>221.0</ele><time>2026-04-24T11:56:09Z</time></trkpt><trkpt lat="44.29329800692362" lon="11.2135225509818"><ele>221.0</ele><time>2026-04-24T11:56:10Z</time></trkpt><trkpt lat="44.29320051562172" lon="11.213174456010577"><ele>221.0</ele><time>2026-04-24T11:56:11Z</time></trkpt><trkpt lat="44.293095974452" lon="11.21282985014668"><ele>217.0</ele><time>2026-04-24T11:56:12Z</time></trkpt><trkpt lat="44.29298220334717" lon="11.21248304083914"><ele>213.0</ele><time>2026-04-24T11:56:13Z</time></trkpt><trkpt lat="44.29286042380476" lon="11.212138694436758"><ele>213.0</ele><time>2026-04-24T11:56:14Z</time></trkpt><trkpt lat="44.292729576551025" lon="11.21180840671554"><ele>213.0</ele><time>2026-04-24T11:56:15Z</time></trkpt><trkpt lat="44.29258695594466" lon="11.211478045906446"><ele>212.5</ele><time>2026-04-24T11:56:16Z</time></trkpt><trkpt lat="44.29243312182992" lon="11.211146305993596"><ele>212.0</ele><time>2026-04-24T11:56:17Z</time></trkpt><trkpt lat="44.292276694801544" lon="11.210830470604579"><ele>213.5</ele><time>2026-04-24T11:56:18Z</time></trkpt><trkpt lat="44.292107003726834" lon="11.210516952334608"><ele>215.0</ele><time>2026-04-24T11:56:19Z</time></trkpt><trkpt lat="44.29192850197803" lon="11.210207801602877"><ele>215.0</ele><time>2026-04-24T11:56:20Z</time></trkpt><trkpt lat="44.291738932316335" lon="11.209900214956106"><ele>215.0</ele><time>2026-04-24T11:56:21Z</time></trkpt><trkpt lat="44.29154129214783" lon="11.209596671523007"><ele>212.5</ele><time>2026-04-24T11:56:22Z</time></trkpt><trkpt lat="44.29133655524746" lon="11.209297856872729"><ele>210.0</ele><time>2026-04-24T11:56:23Z</time></trkpt><trkpt lat="44.29112405233821" lon="11.209005082798063"><ele>217.0</ele><time>2026-04-24T11:56:24Z</time></trkpt><trkpt lat="44.29091358159499" lon="11.208726532259893"><ele>224.0</ele><time>2026-04-24T11:56:25Z</time></trkpt><trkpt lat="44.29071120748507" lon="11.208461626304896"><ele>221.5</ele><time>2026-04-24T11:56:26Z</time></trkpt><trkpt lat="44.29052765727409" lon="11.208205124447357"><ele>219.0</ele><time>2026-04-24T11:56:27Z</time></trkpt><trkpt lat="44.29035218705245" lon="11.20796036135286"><ele>227.5</ele><time>2026-04-24T11:56:28Z</time></trkpt><trkpt lat="44.290167703543545" lon="11.207724241176727"><ele>236.0</ele><time>2026-04-24T11:56:29Z</time></trkpt><trkpt lat="44.28997964776822" lon="11.207489013594012"><ele>235.0</ele><time>2026-04-24T11:56:30Z</time></trkpt><trkpt lat="44.28979414401603" lon="11.207254025715313"><ele>234.0</ele><time>2026-04-24T11:56:31Z</time></trkpt><trkpt lat="44.28960599607223" lon="11.20701414900627"><ele>234.0</ele><time>2026-04-24T11:56:32.02Z</time></trkpt><trkpt lat="44.289423615100446" lon="11.206783233698129"><ele>234.0</ele><time>2026-04-24T11:56:33.015Z</time></trkpt><trkpt lat="44.28924183869501" lon="11.206551226668811"><ele>232.5</ele><time>2026-04-24T11:56:34.022Z</time></trkpt><trkpt lat="44.28906347251628" lon="11.206323576192531"><ele>231.0</ele><time>2026-04-24T11:56:35.018Z</time></trkpt><trkpt lat="44.28888283114615" lon="11.206092597370354"><ele>231.0</ele><time>2026-04-24T11:56:36.019Z</time></trkpt><trkpt lat="44.288700730528156" lon="11.205856699535747"><ele>231.0</ele><time>2026-04-24T11:56:37.015Z</time></trkpt><trkpt lat="44.2878542947707" lon="11.205121017423462"><ele>232.5</ele><time>2026-04-24T11:56:41Z</time></trkpt><trkpt lat="44.28762891214826" lon="11.204701792659437"><ele>234.0</ele><time>2026-04-24T11:56:42Z</time></trkpt><trkpt lat="44.28744538976135" lon="11.204480688082903"><ele>234.0</ele><time>2026-04-24T11:56:43Z</time></trkpt><trkpt lat="44.287263624022565" lon="11.204274636193174"><ele>234.0</ele><time>2026-04-24T11:56:44Z</time></trkpt><trkpt lat="44.28707370196025" lon="11.204071104336597"><ele>234.0</ele><time>2026-04-24T11:56:45Z</time></trkpt><trkpt lat="44.286892647139226" lon="11.2038701737168"><ele>234.0</ele><time>2026-04-24T11:56:46Z</time></trkpt><trkpt lat="44.286713985825656" lon="11.20367872154612"><ele>234.0</ele><time>2026-04-24T11:56:47Z</time></trkpt><trkpt lat="44.28653707607565" lon="11.203480511834536"><ele>234.0</ele><time>2026-04-24T11:56:48Z</time></trkpt><trkpt lat="44.28636060674222" lon="11.203279921085215"><ele>233.5</ele><time>2026-04-24T11:56:49Z</time></trkpt><trkpt lat="44.28617925728373" lon="11.20307268376116"><ele>233.0</ele><time>2026-04-24T11:56:50Z</time></trkpt><trkpt lat="44.286001415056575" lon="11.202874373931063"><ele>233.0</ele><time>2026-04-24T11:56:51Z</time></trkpt><trkpt lat="44.2858308404926" lon="11.202686133806512"><ele>233.0</ele><time>2026-04-24T11:56:52Z</time></trkpt><trkpt lat="44.28566019011461" lon="11.202499216644794"><ele>233.0</ele><time>2026-04-24T11:56:53Z</time></trkpt><trkpt lat="44.28548171646633" lon="11.20230803981491"><ele>234.33333333333334</ele><time>2026-04-24T11:56:54Z</time></trkpt><trkpt lat="44.28530990001529" lon="11.202117644145721"><ele>235.66666666666669</ele><time>2026-04-24T11:56:55Z</time></trkpt><trkpt lat="44.28514591689568" lon="11.20193430690445"><ele>237.0</ele><time>2026-04-24T11:56:56Z</time></trkpt><trkpt lat="44.28498306208597" lon="11.201753452005754"><ele>237.0</ele><time>2026-04-24T11:56:57Z</time></trkpt><trkpt lat="44.28481734219056" lon="11.201572956723393"><ele>237.0</ele><time>2026-04-24T11:56:58Z</time></trkpt><trkpt lat="44.28464788980405" lon="11.201388994012788"><ele>237.0</ele><time>2026-04-24T11:56:59.017Z</time></trkpt><trkpt lat="44.284482289065224" lon="11.201207673273988"><ele>239.66666666666669</ele><time>2026-04-24T11:57:00.015Z</time></trkpt><trkpt lat="44.28431494083068" lon="11.201023249043379"><ele>242.33333333333334</ele><time>2026-04-24T11:57:01.016Z</time></trkpt><trkpt lat="44.28414507778253" lon="11.200838165938418"><ele>245.0</ele><time>2026-04-24T11:57:02.019Z</time></trkpt><trkpt lat="44.28397687494027" lon="11.200655654677032"><ele>245.66666666666669</ele><time>2026-04-24T11:57:03.011Z</time></trkpt><trkpt lat="44.28380443535373" lon="11.200472364699099"><ele>246.33333333333331</ele><time>2026-04-24T11:57:04.019Z</time></trkpt><trkpt lat="44.28363508385126" lon="11.20029205984294"><ele>247.0</ele><time>2026-04-24T11:57:05.016Z</time></trkpt><trkpt lat="44.282714487094694" lon="11.199196279059349"><ele>243.0</ele><time>2026-04-24T11:57:10Z</time></trkpt><trkpt lat="44.282536782365334" lon="11.199005660987428"><ele>239.0</ele><time>2026-04-24T11:57:11Z</time></trkpt><trkpt lat="44.28231605429724" lon="11.19880375603706"><ele>238.33333333333334</ele><time>2026-04-24T11:57:12Z</time></trkpt><trkpt lat="44.28213450106651" lon="11.198624849350876"><ele>237.66666666666669</ele><time>2026-04-24T11:57:13Z</time></trkpt><trkpt lat="44.2819576717943" lon="11.198439922349499"><ele>237.0</ele><time>2026-04-24T11:57:14Z</time></trkpt><trkpt lat="44.281777012828925" lon="11.198257462524003"><ele>235.0</ele><time>2026-04-24T11:57:15Z</time></trkpt><trkpt lat="44.28158930251358" lon="11.198066937423384"><ele>233.0</ele><time>2026-04-24T11:57:16Z</time></trkpt><trkpt lat="44.281361092206666" lon="11.197909550779022"><ele>233.0</ele><time>2026-04-24T11:57:17Z</time></trkpt><trkpt lat="44.28116468740071" lon="11.197767143538755"><ele>233.0</ele><time>2026-04-24T11:57:18Z</time></trkpt><trkpt lat="44.28096477057135" lon="11.197624158433252"><ele>233.0</ele><time>2026-04-24T11:57:19Z</time></trkpt><trkpt lat="44.28076787975779" lon="11.197489465136362"><ele>236.0</ele><time>2026-04-24T11:57:20Z</time></trkpt><trkpt lat="44.28056252292932" lon="11.197357627995494"><ele>239.0</ele><time>2026-04-24T11:57:21Z</time></trkpt><trkpt lat="44.28035136716911" lon="11.19722572191973"><ele>239.0</ele><time>2026-04-24T11:57:22Z</time></trkpt><trkpt lat="44.2801357486314" lon="11.197101530622005"><ele>239.0</ele><time>2026-04-24T11:57:23Z</time></trkpt><trkpt lat="44.27992013013592" lon="11.196985203621123"><ele>237.33333333333334</ele><time>2026-04-24T11:57:24Z</time></trkpt><trkpt lat="44.27971448422809" lon="11.196881937666642"><ele>235.66666666666669</ele><time>2026-04-24T11:57:25Z</time></trkpt><trkpt lat="44.27951706354962" lon="11.196797671636673"><ele>234.0</ele><time>2026-04-24T11:57:26Z</time></trkpt><trkpt lat="44.27932153140625" lon="11.19671313200445"><ele>234.0</ele><time>2026-04-24T11:57:27Z</time></trkpt><trkpt lat="44.27911216543446" lon="11.19662382877181"><ele>234.0</ele><time>2026-04-24T11:57:28Z</time></trkpt><trkpt lat="44.27891034955908" lon="11.196538815214637"><ele>234.0</ele><time>2026-04-24T11:57:29Z</time></trkpt><trkpt lat="44.2787142551619" lon="11.196459930005041"><ele>236.0</ele><time>2026-04-24T11:57:30Z</time></trkpt><trkpt lat="44.278512149586746" lon="11.196379282800153"><ele>238.0</ele><time>2026-04-24T11:57:31Z</time></trkpt><trkpt lat="44.27830495759342" lon="11.196296130697775"><ele>240.0</ele><time>2026-04-24T11:57:32Z</time></trkpt><trkpt lat="44.278087779987956" lon="11.196213209227468"><ele>240.0</ele><time>2026-04-24T11:57:33Z</time></trkpt><trkpt lat="44.27786269772235" lon="11.19612431477797"><ele>240.0</ele><time>2026-04-24T11:57:34Z</time></trkpt><trkpt lat="44.27764878322311" lon="11.196032091120884"><ele>240.0</ele><time>2026-04-24T11:57:35Z</time></trkpt><trkpt lat="44.27743953104644" lon="11.19594553174879"><ele>240.0</ele><time>2026-04-24T11:57:36Z</time></trkpt><trkpt lat="44.27723102746406" lon="11.195857982535546"><ele>240.0</ele><time>2026-04-24T11:57:37Z</time></trkpt><trkpt lat="44.27701896676629" lon="11.195772616494045"><ele>239.33333333333331</ele><time>2026-04-24T11:57:38Z</time></trkpt><trkpt lat="44.27680925066507" lon="11.195683369519163"><ele>238.66666666666666</ele><time>2026-04-24T11:57:39Z</time></trkpt><trkpt lat="44.276591849486046" lon="11.195585204933929"><ele>238.0</ele><time>2026-04-24T11:57:40Z</time></trkpt><trkpt lat="44.276374639292044" lon="11.195474332370509"><ele>244.0</ele><time>2026-04-24T11:57:41Z</time></trkpt><trkpt lat="44.27615680693833" lon="11.195333829929611"><ele>250.0</ele><time>2026-04-24T11:57:42Z</time></trkpt><trkpt lat="44.27592954049687" lon="11.195201289109423"><ele>250.0</ele><time>2026-04-24T11:57:43Z</time></trkpt><trkpt lat="44.27570227737379" lon="11.195082532287017"><ele>250.0</ele><time>2026-04-24T11:57:44Z</time></trkpt><trkpt lat="44.275469302153596" lon="11.194939241876403"><ele>254.5</ele><time>2026-04-24T11:57:45.017Z</time></trkpt><trkpt lat="44.27524144836119" lon="11.1948065800459"><ele>259.0</ele><time>2026-04-24T11:57:46.022Z</time></trkpt><trkpt lat="44.275016892506635" lon="11.194673360531915"><ele>259.0</ele><time>2026-04-24T11:57:47.012Z</time></trkpt><trkpt lat="44.274786091010014" lon="11.194535617703343"><ele>259.0</ele><time>2026-04-24T11:57:48.018Z</time></trkpt><trkpt lat="44.27383530586015" lon="11.193384239133868"><ele>248.0</ele><time>2026-04-24T11:57:52Z</time></trkpt><trkpt lat="44.273594950617024" lon="11.193153808358208"><ele>237.0</ele><time>2026-04-24T11:57:53Z</time></trkpt><trkpt lat="44.27335308934425" lon="11.192891279160412"><ele>237.0</ele><time>2026-04-24T11:57:54Z</time></trkpt><trkpt lat="44.27312291282046" lon="11.192633293207926"><ele>237.0</ele><time>2026-04-24T11:57:55Z</time></trkpt><trkpt lat="44.27290263596766" lon="11.192371636364705"><ele>237.0</ele><time>2026-04-24T11:57:56Z</time></trkpt><trkpt lat="44.2726818779213" lon="11.192105448055214"><ele>237.0</ele><time>2026-04-24T11:57:57Z</time></trkpt><trkpt lat="44.272469956844624" lon="11.191853460088407"><ele>235.0</ele><time>2026-04-24T11:57:58Z</time></trkpt><trkpt lat="44.272249857633476" lon="11.19160582287984"><ele>233.0</ele><time>2026-04-24T11:57:59Z</time></trkpt><trkpt lat="44.27202229890266" lon="11.191347944571401"><ele>233.0</ele><time>2026-04-24T11:58:00Z</time></trkpt><trkpt lat="44.27179544929783" lon="11.191089735410767"><ele>233.0</ele><time>2026-04-24T11:58:01Z</time></trkpt><trkpt lat="44.271569468748616" lon="11.190831155749684"><ele>232.0</ele><time>2026-04-24T11:58:02Z</time></trkpt><trkpt lat="44.271343450515786" lon="11.19057638250479"><ele>231.0</ele><time>2026-04-24T11:58:03Z</time></trkpt><trkpt lat="44.271113673681775" lon="11.190329468557064"><ele>231.0</ele><time>2026-04-24T11:58:04Z</time></trkpt><trkpt lat="44.27088337043283" lon="11.190084574684436"><ele>231.0</ele><time>2026-04-24T11:58:05Z</time></trkpt><trkpt lat="44.270646067564314" lon="11.189846637575643"><ele>233.0</ele><time>2026-04-24T11:58:06Z</time></trkpt><trkpt lat="44.27040500279803" lon="11.189612357086101"><ele>235.0</ele><time>2026-04-24T11:58:07Z</time></trkpt><trkpt lat="44.27016585652618" lon="11.189385198830532"><ele>235.0</ele><time>2026-04-24T11:58:08Z</time></trkpt><trkpt lat="44.269921880120066" lon="11.189159367351559"><ele>235.0</ele><time>2026-04-24T11:58:09Z</time></trkpt><trkpt lat="44.26967709356686" lon="11.188944400587038"><ele>236.5</ele><time>2026-04-24T11:58:10Z</time></trkpt><trkpt lat="44.269427412206454" lon="11.188732546690407"><ele>238.0</ele><time>2026-04-24T11:58:11Z</time></trkpt><trkpt lat="44.26917649761848" lon="11.188530451388013"><ele>239.5</ele><time>2026-04-24T11:58:12Z</time></trkpt><trkpt lat="44.26892381727474" lon="11.188329536016692"><ele>241.0</ele><time>2026-04-24T11:58:13Z</time></trkpt><trkpt lat="44.26866518068128" lon="11.188147498063564"><ele>241.0</ele><time>2026-04-24T11:58:14Z</time></trkpt><trkpt lat="44.26839726647258" lon="11.187982514592724"><ele>241.0</ele><time>2026-04-24T11:58:15Z</time></trkpt><trkpt lat="44.26812649624079" lon="11.187834604238093"><ele>236.5</ele><time>2026-04-24T11:58:16Z</time></trkpt><trkpt lat="44.267852638126456" lon="11.187700034477345"><ele>232.0</ele><time>2026-04-24T11:58:17Z</time></trkpt><trkpt lat="44.26757753793447" lon="11.187576305486962"><ele>232.0</ele><time>2026-04-24T11:58:18Z</time></trkpt><trkpt lat="44.267297200567576" lon="11.1874605420297"><ele>232.0</ele><time>2026-04-24T11:58:19Z</time></trkpt><trkpt lat="44.26701580274673" lon="11.18735806373219"><ele>236.0</ele><time>2026-04-24T11:58:20Z</time></trkpt><trkpt lat="44.266730973080286" lon="11.18727129921264"><ele>240.0</ele><time>2026-04-24T11:58:21Z</time></trkpt><trkpt lat="44.26644788180528" lon="11.187195905626407"><ele>239.5</ele><time>2026-04-24T11:58:22Z</time></trkpt><trkpt lat="44.26616066445282" lon="11.187134767117568"><ele>239.0</ele><time>2026-04-24T11:58:23Z</time></trkpt><trkpt lat="44.26586794451141" lon="11.187082578543716"><ele>237.5</ele><time>2026-04-24T11:58:24Z</time></trkpt><trkpt lat="44.26557576204228" lon="11.187042754310522"><ele>236.0</ele><time>2026-04-24T11:58:25Z</time></trkpt><trkpt lat="44.26528787449617" lon="11.187018011410617"><ele>236.0</ele><time>2026-04-24T11:58:26Z</time></trkpt><trkpt lat="44.26499495671447" lon="11.187006112149216"><ele>236.0</ele><time>2026-04-24T11:58:27Z</time></trkpt><trkpt lat="44.26469901691924" lon="11.187013822261049"><ele>235.0</ele><time>2026-04-24T11:58:28Z</time></trkpt><trkpt lat="44.264409453137056" lon="11.187032116261761"><ele>234.0</ele><time>2026-04-24T11:58:29Z</time></trkpt><trkpt lat="44.264118968722855" lon="11.187065246665144"><ele>234.0</ele><time>2026-04-24T11:58:30Z</time></trkpt><trkpt lat="44.26382827130461" lon="11.187110114541186"><ele>234.0</ele><time>2026-04-24T11:58:31Z</time></trkpt><trkpt lat="44.26353967431899" lon="11.187162133251007"><ele>234.0</ele><time>2026-04-24T11:58:32Z</time></trkpt><trkpt lat="44.26325083932781" lon="11.187220328760905"><ele>234.0</ele><time>2026-04-24T11:58:33Z</time></trkpt><trkpt lat="44.26296448695202" lon="11.187295716292693"><ele>234.0</ele><time>2026-04-24T11:58:34Z</time></trkpt><trkpt lat="44.262682236056335" lon="11.187392531880342"><ele>234.0</ele><time>2026-04-24T11:58:35Z</time></trkpt><trkpt lat="44.26239924680872" lon="11.187499452840804"><ele>235.5</ele><time>2026-04-24T11:58:36Z</time></trkpt><trkpt lat="44.262120668352686" lon="11.187609579479256"><ele>237.0</ele><time>2026-04-24T11:58:37Z</time></trkpt><trkpt lat="44.26184173336577" lon="11.18772978301688"><ele>237.0</ele><time>2026-04-24T11:58:38Z</time></trkpt><trkpt lat="44.261568797249744" lon="11.187865201840413"><ele>237.0</ele><time>2026-04-24T11:58:39Z</time></trkpt><trkpt lat="44.261298127213216" lon="11.188014896484699"><ele>237.0</ele><time>2026-04-24T11:58:40Z</time></trkpt><trkpt lat="44.26103123957953" lon="11.188168662843553"><ele>237.0</ele><time>2026-04-24T11:58:41Z</time></trkpt><trkpt lat="44.26076038076506" lon="11.188322201788404"><ele>237.5</ele><time>2026-04-24T11:58:42Z</time></trkpt><trkpt lat="44.26049172515368" lon="11.188478183542088"><ele>238.0</ele><time>2026-04-24T11:58:43Z</time></trkpt><trkpt lat="44.26022711911476" lon="11.188639959448048"><ele>238.0</ele><time>2026-04-24T11:58:44Z</time></trkpt><trkpt lat="44.25996886386192" lon="11.188806944023456"><ele>238.0</ele><time>2026-04-24T11:58:45Z</time></trkpt><trkpt lat="44.2597016523273" lon="11.188979039515555"><ele>240.5</ele><time>2026-04-24T11:58:46Z</time></trkpt><trkpt lat="44.25943477609092" lon="11.189151081616764"><ele>243.0</ele><time>2026-04-24T11:58:47Z</time></trkpt><trkpt lat="44.25917199967933" lon="11.189322434796397"><ele>249.5</ele><time>2026-04-24T11:58:48Z</time></trkpt><trkpt lat="44.25891069486826" lon="11.189492436947774"><ele>256.0</ele><time>2026-04-24T11:58:49Z</time></trkpt><trkpt lat="44.258644309108256" lon="11.189666811090248"><ele>256.0</ele><time>2026-04-24T11:58:50Z</time></trkpt><trkpt lat="44.258376114943204" lon="11.189825740241027"><ele>256.0</ele><time>2026-04-24T11:58:51Z</time></trkpt><trkpt lat="44.25810578478659" lon="11.189979250623997"><ele>266.0</ele><time>2026-04-24T11:58:52Z</time></trkpt><trkpt lat="44.25783423216857" lon="11.190134723056842"><ele>276.0</ele><time>2026-04-24T11:58:53.019Z</time></trkpt><trkpt lat="44.257564328699125" lon="11.190283994345876"><ele>276.0</ele><time>2026-04-24T11:58:54.015Z</time></trkpt><trkpt lat="44.257292138770225" lon="11.19043886572689"><ele>276.0</ele><time>2026-04-24T11:58:55.018Z</time></trkpt><trkpt lat="44.257021490577365" lon="11.190590205070102"><ele>284.5</ele><time>2026-04-24T11:58:56.019Z</time></trkpt><trkpt lat="44.256753272546845" lon="11.190745074176375"><ele>293.0</ele><time>2026-04-24T11:58:57.019Z</time></trkpt><trkpt lat="44.25648547568751" lon="11.190900358984686"><ele>267.0</ele><time>2026-04-24T11:58:58.017Z</time></trkpt><trkpt lat="44.23920138743169" lon="11.186805563057947"><ele>269.5</ele><time>2026-04-24T12:00:03Z</time></trkpt><trkpt lat="44.23895402495202" lon="11.186602190208962"><ele>272.0</ele><time>2026-04-24T12:00:04Z</time></trkpt><trkpt lat="44.23866303516146" lon="11.186422179076217"><ele>272.0</ele><time>2026-04-24T12:00:05Z</time></trkpt><trkpt lat="44.23839830645488" lon="11.186264603458747"><ele>272.0</ele><time>2026-04-24T12:00:06Z</time></trkpt><trkpt lat="44.238132600135735" lon="11.186111973716113"><ele>275.5</ele><time>2026-04-24T12:00:07Z</time></trkpt><trkpt lat="44.23786376538926" lon="11.185962086538723"><ele>279.0</ele><time>2026-04-24T12:00:08Z</time></trkpt><trkpt lat="44.237596622200115" lon="11.185822653799974"><ele>279.0</ele><time>2026-04-24T12:00:09Z</time></trkpt><trkpt lat="44.23732113622658" lon="11.18570050001016"><ele>279.0</ele><time>2026-04-24T12:00:10Z</time></trkpt><trkpt lat="44.23704008346723" lon="11.185582733390977"><ele>275.0</ele><time>2026-04-24T12:00:11Z</time></trkpt><trkpt lat="44.236758781951906" lon="11.185468427822734"><ele>271.0</ele><time>2026-04-24T12:00:12Z</time></trkpt><trkpt lat="44.23648007763488" lon="11.185355959041035"><ele>273.0</ele><time>2026-04-24T12:00:13Z</time></trkpt><trkpt lat="44.23620048664913" lon="11.185244279168836"><ele>275.0</ele><time>2026-04-24T12:00:14Z</time></trkpt><trkpt lat="44.2359207898871" lon="11.185136881844503"><ele>275.0</ele><time>2026-04-24T12:00:15Z</time></trkpt><trkpt lat="44.23564008739103" lon="11.185027906166495"><ele>275.0</ele><time>2026-04-24T12:00:16Z</time></trkpt><trkpt lat="44.23536338201056" lon="11.184919326969673"><ele>274.0</ele><time>2026-04-24T12:00:17Z</time></trkpt><trkpt lat="44.23508402834594" lon="11.184810588195614"><ele>273.0</ele><time>2026-04-24T12:00:18Z</time></trkpt><trkpt lat="44.234803578578465" lon="11.18470504032756"><ele>273.0</ele><time>2026-04-24T12:00:19Z</time></trkpt><trkpt lat="44.234524017886" lon="11.184595393146017"><ele>273.0</ele><time>2026-04-24T12:00:20Z</time></trkpt><trkpt lat="44.23424498378646" lon="11.184487418848466"><ele>274.5</ele><time>2026-04-24T12:00:21Z</time></trkpt><trkpt lat="44.233963555158056" lon="11.184381044086173"><ele>276.0</ele><time>2026-04-24T12:00:22Z</time></trkpt><trkpt lat="44.23368257335791" lon="11.184281614775962"><ele>276.0</ele><time>2026-04-24T12:00:23Z</time></trkpt><trkpt lat="44.2334029310801" lon="11.184188333263595"><ele>276.0</ele><time>2026-04-24T12:00:24Z</time></trkpt><trkpt lat="44.23312057091986" lon="11.184099746661554"><ele>275.0</ele><time>2026-04-24T12:00:25Z</time></trkpt><trkpt lat="44.232832874210594" lon="11.184012494151094"><ele>274.0</ele><time>2026-04-24T12:00:26Z</time></trkpt><trkpt lat="44.23254752647315" lon="11.183932786326936"><ele>275.5</ele><time>2026-04-24T12:00:27Z</time></trkpt><trkpt lat="44.2322598762749" lon="11.183859995309074"><ele>277.0</ele><time>2026-04-24T12:00:28Z</time></trkpt><trkpt lat="44.23197212483731" lon="11.1837945894126"><ele>277.0</ele><time>2026-04-24T12:00:29Z</time></trkpt><trkpt lat="44.23168270504503" lon="11.183736599849638"><ele>277.0</ele><time>2026-04-24T12:00:30Z</time></trkpt><trkpt lat="44.23139197818844" lon="11.183691213451755"><ele>278.5</ele><time>2026-04-24T12:00:31Z</time></trkpt><trkpt lat="44.23110579119097" lon="11.18365541142172"><ele>280.0</ele><time>2026-04-24T12:00:32Z</time></trkpt><trkpt lat="44.23081299354186" lon="11.183622997598865"><ele>280.0</ele><time>2026-04-24T12:00:33Z</time></trkpt><trkpt lat="44.23052307175408" lon="11.183604483867045"><ele>280.0</ele><time>2026-04-24T12:00:34Z</time></trkpt><trkpt lat="44.23023252671122" lon="11.183605937867158"><ele>280.0</ele><time>2026-04-24T12:00:35Z</time></trkpt><trkpt lat="44.22993970693916" lon="11.18362895562374"><ele>280.0</ele><time>2026-04-24T12:00:36Z</time></trkpt><trkpt lat="44.22965218455853" lon="11.183668533678832"><ele>279.0</ele><time>2026-04-24T12:00:37Z</time></trkpt><trkpt lat="44.229363311616105" lon="11.183715760001782"><ele>278.0</ele><time>2026-04-24T12:00:38Z</time></trkpt><trkpt lat="44.22908637623044" lon="11.183756267469231"><ele>282.5</ele><time>2026-04-24T12:00:39Z</time></trkpt><trkpt lat="44.2288184240282" lon="11.18380373490914"><ele>287.0</ele><time>2026-04-24T12:00:40Z</time></trkpt><trkpt lat="44.2285585699152" lon="11.183856979529336"><ele>287.0</ele><time>2026-04-24T12:00:41Z</time></trkpt><trkpt lat="44.22829959465975" lon="11.18391908765082"><ele>287.0</ele><time>2026-04-24T12:00:42Z</time></trkpt><trkpt lat="44.228040556419515" lon="11.183993454675472"><ele>286.0</ele><time>2026-04-24T12:00:43Z</time></trkpt><trkpt lat="44.22777627046439" lon="11.184081959437153"><ele>285.0</ele><time>2026-04-24T12:00:44Z</time></trkpt><trkpt lat="44.22750770085541" lon="11.18417141737213"><ele>288.0</ele><time>2026-04-24T12:00:45Z</time></trkpt><trkpt lat="44.22724074083029" lon="11.18427471337416"><ele>291.0</ele><time>2026-04-24T12:00:46Z</time></trkpt><trkpt lat="44.226977016565655" lon="11.184391516775046"><ele>291.0</ele><time>2026-04-24T12:00:47Z</time></trkpt><trkpt lat="44.22671053243967" lon="11.184523886351688"><ele>291.0</ele><time>2026-04-24T12:00:48Z</time></trkpt><trkpt lat="44.22644440311735" lon="11.184669141227296"><ele>304.5</ele><time>2026-04-24T12:00:49Z</time></trkpt><trkpt lat="44.22618088736472" lon="11.184819346784634"><ele>318.0</ele><time>2026-04-24T12:00:50Z</time></trkpt><trkpt lat="44.22591055500621" lon="11.18497560275402"><ele>327.0</ele><time>2026-04-24T12:00:51Z</time></trkpt><trkpt lat="44.22563556969058" lon="11.185136797404557"><ele>336.0</ele><time>2026-04-24T12:00:52.021Z</time></trkpt><trkpt lat="44.2253672951491" lon="11.185295189583266"><ele>336.0</ele><time>2026-04-24T12:00:53.022Z</time></trkpt><trkpt lat="44.225096165292356" lon="11.185449855260662"><ele>336.0</ele><time>2026-04-24T12:00:54.022Z</time></trkpt><trkpt lat="44.2248237935017" lon="11.185594381094617"><ele>336.5</ele><time>2026-04-24T12:00:55.019Z</time></trkpt><trkpt lat="44.224553257555954" lon="11.185750556155499"><ele>337.0</ele><time>2026-04-24T12:00:56.019Z</time></trkpt><trkpt lat="44.194021462504" lon="11.20019649156481"><ele>348.5</ele><time>2026-04-24T12:03:05Z</time></trkpt><trkpt lat="44.193759726300996" lon="11.20017861970399"><ele>360.0</ele><time>2026-04-24T12:03:06Z</time></trkpt><trkpt lat="44.19347773541791" lon="11.200117881890671"><ele>360.0</ele><time>2026-04-24T12:03:07Z</time></trkpt><trkpt lat="44.19321379950283" lon="11.200118785990462"><ele>360.0</ele><time>2026-04-24T12:03:08Z</time></trkpt><trkpt lat="44.1929539386179" lon="11.200109146918887"><ele>361.0</ele><time>2026-04-24T12:03:09Z</time></trkpt><trkpt lat="44.19269653982126" lon="11.200091844143953"><ele>362.0</ele><time>2026-04-24T12:03:10Z</time></trkpt><trkpt lat="44.19243166581198" lon="11.200066103283229"><ele>362.5</ele><time>2026-04-24T12:03:11Z</time></trkpt><trkpt lat="44.19217362942936" lon="11.200039464192104"><ele>363.0</ele><time>2026-04-24T12:03:12.001Z</time></trkpt><trkpt lat="44.19191046772662" lon="11.200012163592948"><ele>363.0</ele><time>2026-04-24T12:03:13.001Z</time></trkpt><trkpt lat="44.19164479967592" lon="11.199980224534619"><ele>363.0</ele><time>2026-04-24T12:03:14.001Z</time></trkpt><trkpt lat="44.19137316752583" lon="11.199942251545489"><ele>363.5</ele><time>2026-04-24T12:03:15.001Z</time></trkpt><trkpt lat="44.19109552481133" lon="11.199899295222014"><ele>364.0</ele><time>2026-04-24T12:03:16Z</time></trkpt><trkpt lat="44.19081583756837" lon="11.199851720151244"><ele>375.0</ele><time>2026-04-24T12:03:17Z</time></trkpt><trkpt lat="44.19053840670662" lon="11.199796758744128"><ele>386.0</ele><time>2026-04-24T12:03:18Z</time></trkpt><trkpt lat="44.190259348636275" lon="11.199730907772098"><ele>386.0</ele><time>2026-04-24T12:03:19Z</time></trkpt><trkpt lat="44.189977264362156" lon="11.199660829097029"><ele>386.0</ele><time>2026-04-24T12:03:20Z</time></trkpt><trkpt lat="44.18969509463979" lon="11.199586844072117"><ele>387.5</ele><time>2026-04-24T12:03:21Z</time></trkpt><trkpt lat="44.18941032623709" lon="11.199502747868621"><ele>389.0</ele><time>2026-04-24T12:03:22Z</time></trkpt><trkpt lat="44.189132914159366" lon="11.199402535310664"><ele>392.5</ele><time>2026-04-24T12:03:23Z</time></trkpt><trkpt lat="44.18886502054308" lon="11.199287712352131"><ele>396.0</ele><time>2026-04-24T12:03:24Z</time></trkpt><trkpt lat="44.18859582450554" lon="11.199174087949457"><ele>396.0</ele><time>2026-04-24T12:03:25Z</time></trkpt><trkpt lat="44.18832104681152" lon="11.199066733032387"><ele>396.0</ele><time>2026-04-24T12:03:26Z</time></trkpt><trkpt lat="44.18804463332674" lon="11.198955904972353"><ele>413.0</ele><time>2026-04-24T12:03:27Z</time></trkpt><trkpt lat="44.18776359838747" lon="11.198839898015963"><ele>430.0</ele><time>2026-04-24T12:03:28.017Z</time></trkpt><trkpt lat="44.187487812861704" lon="11.198723692631468"><ele>439.0</ele><time>2026-04-24T12:03:29.018Z</time></trkpt><trkpt lat="44.18721354577288" lon="11.19860926342575"><ele>448.0</ele><time>2026-04-24T12:03:30.015Z</time></trkpt><trkpt lat="44.18693079442106" lon="11.198493673115888"><ele>448.0</ele><time>2026-04-24T12:03:31.019Z</time></trkpt><trkpt lat="44.186651317421884" lon="11.198372081302722"><ele>448.0</ele><time>2026-04-24T12:03:32.024Z</time></trkpt><trkpt lat="44.16588735305161" lon="11.196377193565663"><ele>449.0</ele><time>2026-04-24T12:04:50Z</time></trkpt><trkpt lat="44.165603260736425" lon="11.19649164667542"><ele>450.0</ele><time>2026-04-24T12:04:51Z</time></trkpt><trkpt lat="44.16527994419463" lon="11.196662059659946"><ele>450.0</ele><time>2026-04-24T12:04:52Z</time></trkpt><trkpt lat="44.16498599133469" lon="11.19672763414443"><ele>450.0</ele><time>2026-04-24T12:04:53Z</time></trkpt><trkpt lat="44.164687797192045" lon="11.196791395350035"><ele>440.5</ele><time>2026-04-24T12:04:54Z</time></trkpt><trkpt lat="44.164392643183895" lon="11.196855759763919"><ele>431.0</ele><time>2026-04-24T12:04:55Z</time></trkpt><trkpt lat="44.164093373394095" lon="11.19691512404432"><ele>427.5</ele><time>2026-04-24T12:04:56Z</time></trkpt><trkpt lat="44.16380040250886" lon="11.196964975089081"><ele>424.0</ele><time>2026-04-24T12:04:57Z</time></trkpt><trkpt lat="44.16350939199451" lon="11.19700779441145"><ele>424.0</ele><time>2026-04-24T12:04:58Z</time></trkpt><trkpt lat="44.16321501411397" lon="11.197041639866676"><ele>424.0</ele><time>2026-04-24T12:04:59Z</time></trkpt><trkpt lat="44.162922262643285" lon="11.197065247504163"><ele>424.0</ele><time>2026-04-24T12:05:00Z</time></trkpt><trkpt lat="44.16262830795766" lon="11.197076354750973"><ele>424.0</ele><time>2026-04-24T12:05:01Z</time></trkpt><trkpt lat="44.1623328987445" lon="11.197073461127097"><ele>425.5</ele><time>2026-04-24T12:05:02Z</time></trkpt><trkpt lat="44.16203619207426" lon="11.197063803249122"><ele>427.0</ele><time>2026-04-24T12:05:03Z</time></trkpt><trkpt lat="44.16174271999592" lon="11.19704731268685"><ele>428.5</ele><time>2026-04-24T12:05:04Z</time></trkpt><trkpt lat="44.161448646360654" lon="11.197022429940196"><ele>430.0</ele><time>2026-04-24T12:05:05Z</time></trkpt><trkpt lat="44.16115945778912" lon="11.196990317625602"><ele>430.0</ele><time>2026-04-24T12:05:06Z</time></trkpt><trkpt lat="44.16087338338819" lon="11.196948432006737"><ele>430.0</ele><time>2026-04-24T12:05:07Z</time></trkpt><trkpt lat="44.16058958189741" lon="11.196891672816873"><ele>432.5</ele><time>2026-04-24T12:05:08Z</time></trkpt><trkpt lat="44.16031023849853" lon="11.19682548175461"><ele>435.0</ele><time>2026-04-24T12:05:09Z</time></trkpt><trkpt lat="44.160032344638225" lon="11.19675592827159"><ele>436.0</ele><time>2026-04-24T12:05:10Z</time></trkpt><trkpt lat="44.15975764965457" lon="11.196683123460932"><ele>437.0</ele><time>2026-04-24T12:05:11Z</time></trkpt><trkpt lat="44.159486936353694" lon="11.19660932425759"><ele>437.0</ele><time>2026-04-24T12:05:12Z</time></trkpt><trkpt lat="44.15921373611373" lon="11.196530212452005"><ele>437.0</ele><time>2026-04-24T12:05:13Z</time></trkpt><trkpt lat="44.15894023711758" lon="11.196449269340214"><ele>444.5</ele><time>2026-04-24T12:05:14Z</time></trkpt><trkpt lat="44.158664796137465" lon="11.196364420743212"><ele>452.0</ele><time>2026-04-24T12:05:15Z</time></trkpt><trkpt lat="44.15838852837551" lon="11.196278846985633"><ele>449.0</ele><time>2026-04-24T12:05:16Z</time></trkpt><trkpt lat="44.15811417061912" lon="11.196190811297884"><ele>446.0</ele><time>2026-04-24T12:05:17.001Z</time></trkpt><trkpt lat="44.157834672797705" lon="11.196104655232352"><ele>446.0</ele><time>2026-04-24T12:05:18.001Z</time></trkpt><trkpt lat="44.15755635693346" lon="11.196020358819005"><ele>446.0</ele><time>2026-04-24T12:05:19.001Z</time></trkpt><trkpt lat="44.157280381453106" lon="11.195935575420405"><ele>445.5</ele><time>2026-04-24T12:05:20.001Z</time></trkpt><trkpt lat="44.15700269121793" lon="11.195849362049206"><ele>445.0</ele><time>2026-04-24T12:05:21.001Z</time></trkpt><trkpt lat="44.15672885304094" lon="11.195764697060195"><ele>450.0</ele><time>2026-04-24T12:05:22.001Z</time></trkpt><trkpt lat="44.15645002948125" lon="11.195666845398343"><ele>455.0</ele><time>2026-04-24T12:05:23.001Z</time></trkpt><trkpt lat="44.15617388530813" lon="11.195583127264163"><ele>455.0</ele><time>2026-04-24T12:05:24Z</time></trkpt><trkpt lat="44.155898750634464" lon="11.19549635430768"><ele>455.0</ele><time>2026-04-24T12:05:25Z</time></trkpt><trkpt lat="44.15562312318851" lon="11.195407635243356"><ele>450.0</ele><time>2026-04-24T12:05:26Z</time></trkpt><trkpt lat="44.15534232003552" lon="11.195321662925299"><ele>445.0</ele><time>2026-04-24T12:05:27Z</time></trkpt><trkpt lat="44.15506749585918" lon="11.195233058369698"><ele>443.0</ele><time>2026-04-24T12:05:28Z</time></trkpt><trkpt lat="44.15479148665538" lon="11.195149358820684"><ele>441.0</ele><time>2026-04-24T12:05:29Z</time></trkpt><trkpt lat="44.15451930589714" lon="11.195070576799676"><ele>441.0</ele><time>2026-04-24T12:05:30Z</time></trkpt><trkpt lat="44.15425092079314" lon="11.194990809576538"><ele>441.0</ele><time>2026-04-24T12:05:31Z</time></trkpt><trkpt lat="44.1539847774676" lon="11.194905319168427"><ele>442.0</ele><time>2026-04-24T12:05:32Z</time></trkpt><trkpt lat="44.15373066998695" lon="11.194820301820645"><ele>443.0</ele><time>2026-04-24T12:05:33Z</time></trkpt><trkpt lat="44.15349750210609" lon="11.194743909820977"><ele>443.0</ele><time>2026-04-24T12:05:34Z</time></trkpt><trkpt lat="44.1532774168442" lon="11.194678997064011"><ele>443.0</ele><time>2026-04-24T12:05:35Z</time></trkpt><trkpt lat="44.153074134805195" lon="11.19462410514632"><ele>443.0</ele><time>2026-04-24T12:05:36Z</time></trkpt><trkpt lat="44.152880296564014" lon="11.194573709738041"><ele>443.3333333333333</ele><time>2026-04-24T12:05:37Z</time></trkpt><trkpt lat="44.15270316458242" lon="11.194529129554427"><ele>443.66666666666663</ele><time>2026-04-24T12:05:38Z</time></trkpt><trkpt lat="44.152534783942386" lon="11.19448551880492"><ele>444.0</ele><time>2026-04-24T12:05:39Z</time></trkpt><trkpt lat="44.152372267578784" lon="11.194439917643956"><ele>445.0</ele><time>2026-04-24T12:05:40Z</time></trkpt><trkpt lat="44.15220414935473" lon="11.194392697274015"><ele>446.0</ele><time>2026-04-24T12:05:41Z</time></trkpt><trkpt lat="44.152046959449365" lon="11.19434262130841"><ele>447.0</ele><time>2026-04-24T12:05:42Z</time></trkpt><trkpt lat="44.15189993085622" lon="11.194292937256447"><ele>447.0</ele><time>2026-04-24T12:05:43Z</time></trkpt><trkpt lat="44.151765891175096" lon="11.194246567027118"><ele>447.0</ele><time>2026-04-24T12:05:44Z</time></trkpt><trkpt lat="44.151646405314764" lon="11.194182969139831"><ele>447.0</ele><time>2026-04-24T12:05:45Z</time></trkpt><trkpt lat="44.15153882935543" lon="11.194099498228235"><ele>447.0</ele><time>2026-04-24T12:05:46Z</time></trkpt><trkpt lat="44.151444079967455" lon="11.194018277253134"><ele>447.8</ele><time>2026-04-24T12:05:47Z</time></trkpt><trkpt lat="44.15134242552534" lon="11.193966833541895"><ele>448.6</ele><time>2026-04-24T12:05:48Z</time></trkpt><trkpt lat="44.15125991672554" lon="11.193947482337832"><ele>449.40000000000003</ele><time>2026-04-24T12:05:49Z</time></trkpt><trkpt lat="44.151163674684156" lon="11.193887434587591"><ele>450.20000000000005</ele><time>2026-04-24T12:05:51Z</time></trkpt><trkpt lat="44.151117297265195" lon="11.193792146023815"><ele>451.0</ele><time>2026-04-24T12:05:53Z</time></trkpt><trkpt lat="44.15104946066027" lon="11.19372972108955"><ele>451.00000000000006</ele><time>2026-04-24T12:05:56Z</time></trkpt><trkpt lat="44.15098531090512" lon="11.19370422437232"><ele>451.0</ele><time>2026-04-24T12:06:00Z</time></trkpt><trkpt lat="44.15092318216448" lon="11.193686112041833"><ele>451.0</ele><time>2026-04-24T12:06:03Z</time></trkpt><trkpt lat="44.15084326320858" lon="11.193648043815879"><ele>451.0</ele><time>2026-04-24T12:06:06Z</time></trkpt><trkpt lat="44.15075721116416" lon="11.193646735588159"><ele>451.00000000000006</ele><time>2026-04-24T12:06:09Z</time></trkpt><trkpt lat="44.15066115086476" lon="11.193709981150967"><ele>451.0</ele><time>2026-04-24T12:06:11Z</time></trkpt><trkpt lat="44.15057042343232" lon="11.193693153189331"><ele>451.0</ele><time>2026-04-24T12:06:13Z</time></trkpt><trkpt lat="44.150496095756644" lon="11.193653600455677"><ele>451.0</ele><time>2026-04-24T12:06:15.001Z</time></trkpt><trkpt lat="44.150451679312816" lon="11.193590310544728"><ele>451.0</ele><time>2026-04-24T12:06:19Z</time></trkpt></trkseg><trkseg><trkpt lat="44.15044573872157" lon="11.193645666107823"><ele>451.0</ele><time>2026-04-24T12:26:24.999Z</time></trkpt><trkpt lat="44.15044573872157" lon="11.193645666107823"><ele>451.0</ele><time>2026-04-24T12:26:24.999Z</time></trkpt><trkpt lat="44.15044573872157" lon="11.193645666107823"><ele>451.0</ele><time>2026-04-24T12:26:24.999Z</time></trkpt><trkpt lat="44.15044573872157" lon="11.193645666107823"><ele>451.0</ele><time>2026-04-24T12:26:24.999Z</time></trkpt><trkpt lat="44.15044573872157" lon="11.193645666107823"><ele>451.0</ele><time>2026-04-24T12:26:24.999Z</time></trkpt></trkseg><trkseg><trkpt lat="44.15038867983522" lon="11.193591344917985"><ele>451.0</ele><time>2026-04-24T12:36:30.002Z</time></trkpt><trkpt lat="44.15024616939557" lon="11.193591894122738"><ele>451.0</ele><time>2026-04-24T12:36:32.002Z</time></trkpt><trkpt lat="44.150145357607705" lon="11.193573963879325"><ele>451.0</ele><time>2026-04-24T12:36:33.002Z</time></trkpt><trkpt lat="44.150008554738754" lon="11.1935460796634"><ele>451.0</ele><time>2026-04-24T12:36:35.002Z</time></trkpt><trkpt lat="44.149918503616234" lon="11.193536141004843"><ele>452.00000000000006</ele><time>2026-04-24T12:36:36.003Z</time></trkpt><trkpt lat="44.14984488043629" lon="11.193547716919776"><ele>453.0</ele><time>2026-04-24T12:36:37.003Z</time></trkpt><trkpt lat="44.14977868399729" lon="11.193576223805529"><ele>454.0</ele><time>2026-04-24T12:36:38.003Z</time></trkpt><trkpt lat="44.149707236603234" lon="11.193598651807369"><ele>455.0</ele><time>2026-04-24T12:36:39.003Z</time></trkpt><trkpt lat="44.149627534015636" lon="11.193598804007353"><ele>456.00000000000006</ele><time>2026-04-24T12:36:40.003Z</time></trkpt><trkpt lat="44.14952386057556" lon="11.19355940303544"><ele>457.0</ele><time>2026-04-24T12:36:41.003Z</time></trkpt><trkpt lat="44.149415135790115" lon="11.193509157382161"><ele>457.0</ele><time>2026-04-24T12:36:42.003Z</time></trkpt><trkpt lat="44.14934217894892" lon="11.193478926954688"><ele>457.00000000000006</ele><time>2026-04-24T12:36:43.003Z</time></trkpt><trkpt lat="44.14921470163339" lon="11.193430246928553"><ele>457.00000000000006</ele><time>2026-04-24T12:36:45.003Z</time></trkpt><trkpt lat="44.14913044814348" lon="11.193428340939327"><ele>457.0</ele><time>2026-04-24T12:36:46.003Z</time></trkpt><trkpt lat="44.14903761446211" lon="11.193449565342565"><ele>457.0</ele><time>2026-04-24T12:36:47.003Z</time></trkpt><trkpt lat="44.148962228286855" lon="11.193475084341"><ele>457.00000000000006</ele><time>2026-04-24T12:36:48.003Z</time></trkpt><trkpt lat="44.14889010257746" lon="11.193481961407143"><ele>457.0</ele><time>2026-04-24T12:36:49.003Z</time></trkpt><trkpt lat="44.1488051199047" lon="11.193476401890964"><ele>457.0</ele><time>2026-04-24T12:36:50.003Z</time></trkpt><trkpt lat="44.14870301472981" lon="11.193461135877387"><ele>457.0</ele><time>2026-04-24T12:36:51.003Z</time></trkpt><trkpt lat="44.14861260776541" lon="11.19344834421273"><ele>457.00000000000006</ele><time>2026-04-24T12:36:52.003Z</time></trkpt><trkpt lat="44.14852839676419" lon="11.193436942921771"><ele>457.0</ele><time>2026-04-24T12:36:53.003Z</time></trkpt><trkpt lat="44.14842620715343" lon="11.1934384470955"><ele>457.0</ele><time>2026-04-24T12:36:54.003Z</time></trkpt><trkpt lat="44.14828897030163" lon="11.193447350663572"><ele>457.0</ele><time>2026-04-24T12:36:55.003Z</time></trkpt><trkpt lat="44.14813411360327" lon="11.193423418745796"><ele>457.0</ele><time>2026-04-24T12:36:56.003Z</time></trkpt><trkpt lat="44.147982214073494" lon="11.193382530297237"><ele>457.0</ele><time>2026-04-24T12:36:57.003Z</time></trkpt><trkpt lat="44.14782935321373" lon="11.193331398235468"><ele>457.33333333333337</ele><time>2026-04-24T12:36:58.003Z</time></trkpt><trkpt lat="44.14766437540905" lon="11.193294017077315"><ele>457.66666666666663</ele><time>2026-04-24T12:36:59.003Z</time></trkpt><trkpt lat="44.1474832362723" lon="11.193258151856545"><ele>458.0</ele><time>2026-04-24T12:37:00.003Z</time></trkpt><trkpt lat="44.147287639001966" lon="11.193206923280933"><ele>466.0</ele><time>2026-04-24T12:37:01.001Z</time></trkpt><trkpt lat="44.14708228365668" lon="11.193140371649841"><ele>474.0</ele><time>2026-04-24T12:37:02.001Z</time></trkpt><trkpt lat="44.14688333314797" lon="11.193071399385406"><ele>482.0</ele><time>2026-04-24T12:37:03.001Z</time></trkpt><trkpt lat="44.14667524619353" lon="11.19300608782728"><ele>489.0</ele><time>2026-04-24T12:37:04.001Z</time></trkpt><trkpt lat="44.14646147592119" lon="11.192951798678003"><ele>496.0</ele><time>2026-04-24T12:37:05.001Z</time></trkpt><trkpt lat="44.1462445495019" lon="11.192906409416882"><ele>503.0</ele><time>2026-04-24T12:37:06.001Z</time></trkpt><trkpt lat="44.1460282537937" lon="11.192866692101603"><ele>503.0</ele><time>2026-04-24T12:37:07.001Z</time></trkpt><trkpt lat="44.14580697221563" lon="11.192829522838487"><ele>503.0</ele><time>2026-04-24T12:37:08.001Z</time></trkpt><trkpt lat="44.145591363130826" lon="11.192773888425618"><ele>503.0</ele><time>2026-04-24T12:37:09.001Z</time></trkpt><trkpt lat="44.1453748403961" lon="11.192711344502506"><ele>517.6666666666666</ele><time>2026-04-24T12:37:10.001Z</time></trkpt><trkpt lat="44.145154768848876" lon="11.192651527751917"><ele>532.3333333333334</ele><time>2026-04-24T12:37:11.021Z</time></trkpt><trkpt lat="44.144939353880325" lon="11.192593014517447"><ele>547.0</ele><time>2026-04-24T12:37:12.014Z</time></trkpt><trkpt lat="44.14473029502757" lon="11.192534883581663"><ele>551.3333333333334</ele><time>2026-04-24T12:37:13.017Z</time></trkpt><trkpt lat="44.1445162130604" lon="11.192473266908145"><ele>555.6666666666666</ele><time>2026-04-24T12:37:14.015Z</time></trkpt><trkpt lat="44.1443100642292" lon="11.192420556079522"><ele>560.0</ele><time>2026-04-24T12:37:15.013Z</time></trkpt><trkpt lat="44.14277396168946" lon="11.192099321644001"><ele>548.5</ele><time>2026-04-24T12:37:21.001Z</time></trkpt><trkpt lat="44.14255109186178" lon="11.192047572722478"><ele>537.0</ele><time>2026-04-24T12:37:22.001Z</time></trkpt><trkpt lat="44.14230797589667" lon="11.191989707058683"><ele>537.0</ele><time>2026-04-24T12:37:23.001Z</time></trkpt><trkpt lat="44.142086439195154" lon="11.191941739852908"><ele>537.0</ele><time>2026-04-24T12:37:24.001Z</time></trkpt><trkpt lat="44.14187131979154" lon="11.191894875340052"><ele>537.0</ele><time>2026-04-24T12:37:25.001Z</time></trkpt><trkpt lat="44.14164386108199" lon="11.191847456281732"><ele>548.3333333333334</ele><time>2026-04-24T12:37:26.022Z</time></trkpt><trkpt lat="44.14142662901192" lon="11.191802595636842"><ele>559.6666666666667</ele><time>2026-04-24T12:37:27.019Z</time></trkpt><trkpt lat="44.14120912710928" lon="11.191758819394856"><ele>571.0</ele><time>2026-04-24T12:37:28.015Z</time></trkpt><trkpt lat="44.14098970515506" lon="11.191716276541689"><ele>571.0</ele><time>2026-04-24T12:37:29.018Z</time></trkpt><trkpt lat="44.14076857699101" lon="11.191673552162896"><ele>571.0</ele><time>2026-04-24T12:37:30.024Z</time></trkpt><trkpt lat="44.07288808379701" lon="11.238570101569628"><ele>526.0</ele><time>2026-04-24T12:42:18.005Z</time></trkpt><trkpt lat="44.072644270751134" lon="11.23872499907522"><ele>481.0</ele><time>2026-04-24T12:42:19.005Z</time></trkpt><trkpt lat="44.07235394106789" lon="11.23885825116618"><ele>480.0</ele><time>2026-04-24T12:42:20.005Z</time></trkpt><trkpt lat="44.072109956200805" lon="11.239015258413993"><ele>479.0</ele><time>2026-04-24T12:42:21.005Z</time></trkpt><trkpt lat="44.071855639735375" lon="11.239176974029292"><ele>474.5</ele><time>2026-04-24T12:42:22.005Z</time></trkpt><trkpt lat="44.0715964750877" lon="11.239343877921863"><ele>470.0</ele><time>2026-04-24T12:42:23.006Z</time></trkpt><trkpt lat="44.07133839329148" lon="11.23950617002659"><ele>470.0</ele><time>2026-04-24T12:42:23.999Z</time></trkpt><trkpt lat="44.07107996097131" lon="11.239669337850152"><ele>470.0</ele><time>2026-04-24T12:42:24.999Z</time></trkpt><trkpt lat="44.07081645971222" lon="11.239830876047886"><ele>467.0</ele><time>2026-04-24T12:42:25.999Z</time></trkpt><trkpt lat="44.070557875748186" lon="11.239994690631303"><ele>464.0</ele><time>2026-04-24T12:42:26.999Z</time></trkpt><trkpt lat="44.07029114185" lon="11.240158834652426"><ele>464.0</ele><time>2026-04-24T12:42:27.999Z</time></trkpt><trkpt lat="44.07002704380371" lon="11.240323364621672"><ele>464.0</ele><time>2026-04-24T12:42:28.999Z</time></trkpt><trkpt lat="44.06976304297016" lon="11.240490272943482"><ele>460.0</ele><time>2026-04-24T12:42:29.999Z</time></trkpt><trkpt lat="44.06949837111408" lon="11.240656117058704"><ele>456.0</ele><time>2026-04-24T12:42:30.999Z</time></trkpt><trkpt lat="44.069233066025966" lon="11.24082165998469"><ele>457.5</ele><time>2026-04-24T12:42:31.999Z</time></trkpt><trkpt lat="44.06896729460339" lon="11.240988240287603"><ele>459.0</ele><time>2026-04-24T12:42:32.999Z</time></trkpt><trkpt lat="44.068704934162106" lon="11.241154898160763"><ele>459.0</ele><time>2026-04-24T12:42:33.999Z</time></trkpt><trkpt lat="44.068439399468076" lon="11.241320690754089"><ele>459.0</ele><time>2026-04-24T12:42:34.999Z</time></trkpt><trkpt lat="44.068177433668886" lon="11.241488271872742"><ele>453.5</ele><time>2026-04-24T12:42:35.999Z</time></trkpt><trkpt lat="44.06791541085767" lon="11.241655934780919"><ele>448.0</ele><time>2026-04-24T12:42:36.999Z</time></trkpt><trkpt lat="44.067650008596495" lon="11.241821649847855"><ele>449.0</ele><time>2026-04-24T12:42:37.999Z</time></trkpt><trkpt lat="44.06738463953239" lon="11.24198515077004"><ele>450.0</ele><time>2026-04-24T12:42:39Z</time></trkpt><trkpt lat="44.067120244805615" lon="11.242147477024883"><ele>446.5</ele><time>2026-04-24T12:42:40Z</time></trkpt><trkpt lat="44.06685639299336" lon="11.242310023240803"><ele>443.0</ele><time>2026-04-24T12:42:41Z</time></trkpt><trkpt lat="44.06659208340434" lon="11.242475864182051"><ele>453.0</ele><time>2026-04-24T12:42:42Z</time></trkpt><trkpt lat="44.06632539820078" lon="11.242643709993459"><ele>463.0</ele><time>2026-04-24T12:42:43Z</time></trkpt><trkpt lat="44.066061234881175" lon="11.242814997951355"><ele>463.0</ele><time>2026-04-24T12:42:44Z</time></trkpt><trkpt lat="44.0657965765625" lon="11.24298522401985"><ele>463.0</ele><time>2026-04-24T12:42:45Z</time></trkpt><trkpt lat="44.06553099055047" lon="11.243152149016318"><ele>463.5</ele><time>2026-04-24T12:42:46Z</time></trkpt><trkpt lat="44.065266105824136" lon="11.243314858935902"><ele>464.0</ele><time>2026-04-24T12:42:47Z</time></trkpt><trkpt lat="44.06500037783235" lon="11.243476913010738"><ele>470.5</ele><time>2026-04-24T12:42:48Z</time></trkpt><trkpt lat="44.06473462186714" lon="11.24363907823871"><ele>477.0</ele><time>2026-04-24T12:42:49Z</time></trkpt><trkpt lat="44.06446821280708" lon="11.243795161951187"><ele>477.0</ele><time>2026-04-24T12:42:50Z</time></trkpt><trkpt lat="44.064198444560205" lon="11.243944913348622"><ele>477.0</ele><time>2026-04-24T12:42:51Z</time></trkpt><trkpt lat="44.063927943957616" lon="11.24408921112394"><ele>478.5</ele><time>2026-04-24T12:42:52Z</time></trkpt><trkpt lat="44.06365645383612" lon="11.244216728839826"><ele>480.0</ele><time>2026-04-24T12:42:53Z</time></trkpt><trkpt lat="44.063366265667575" lon="11.244329793758716"><ele>482.0</ele><time>2026-04-24T12:42:54Z</time></trkpt><trkpt lat="44.06310315812366" lon="11.244438953667684"><ele>484.0</ele><time>2026-04-24T12:42:55Z</time></trkpt><trkpt lat="44.06283955908032" lon="11.24451172885137"><ele>484.0</ele><time>2026-04-24T12:42:56Z</time></trkpt><trkpt lat="44.062579505192836" lon="11.24459690764813"><ele>484.0</ele><time>2026-04-24T12:42:57Z</time></trkpt><trkpt lat="44.0623304999984" lon="11.244661947034489"><ele>488.0</ele><time>2026-04-24T12:42:58Z</time></trkpt><trkpt lat="44.06208735396218" lon="11.244719225946808"><ele>492.0</ele><time>2026-04-24T12:42:59Z</time></trkpt><trkpt lat="44.061830689856734" lon="11.244773882815492"><ele>483.5</ele><time>2026-04-24T12:43:00Z</time></trkpt><trkpt lat="44.06157549272521" lon="11.244825625742738"><ele>475.0</ele><time>2026-04-24T12:43:01Z</time></trkpt><trkpt lat="44.06131556548226" lon="11.244883555026627"><ele>475.0</ele><time>2026-04-24T12:43:02.017Z</time></trkpt><trkpt lat="44.06105896605863" lon="11.244939676981618"><ele>475.0</ele><time>2026-04-24T12:43:03.026Z</time></trkpt><trkpt lat="44.06080700006943" lon="11.244994913549814"><ele>471.5</ele><time>2026-04-24T12:43:04.019Z</time></trkpt><trkpt lat="44.0605496625108" lon="11.245050363939065"><ele>468.0</ele><time>2026-04-24T12:43:05.025Z</time></trkpt><trkpt lat="44.06028773796086" lon="11.245062505580389"><ele>468.0</ele><time>2026-04-24T12:43:06.021Z</time></trkpt><trkpt lat="44.06002679803677" lon="11.245107628543487"><ele>468.0</ele><time>2026-04-24T12:43:07Z</time></trkpt><trkpt lat="44.05983970361532" lon="11.244817584043629"><ele>465.0</ele><time>2026-04-24T12:43:08Z</time></trkpt><trkpt lat="44.05958802244666" lon="11.24483418388994"><ele>462.0</ele><time>2026-04-24T12:43:09.001Z</time></trkpt><trkpt lat="44.059348265558235" lon="11.244820943806133"><ele>458.5</ele><time>2026-04-24T12:43:10.001Z</time></trkpt><trkpt lat="44.05910899968771" lon="11.244797829471405"><ele>455.0</ele><time>2026-04-24T12:43:11.001Z</time></trkpt><trkpt lat="44.058883755974044" lon="11.24475769592523"><ele>461.0</ele><time>2026-04-24T12:43:12.001Z</time></trkpt><trkpt lat="44.05865778903416" lon="11.24471565814025"><ele>467.0</ele><time>2026-04-24T12:43:13.001Z</time></trkpt><trkpt lat="44.058440374095994" lon="11.244666052053201"><ele>473.0</ele><time>2026-04-24T12:43:14.001Z</time></trkpt><trkpt lat="44.05823201674776" lon="11.244606760919813"><ele>473.0</ele><time>2026-04-24T12:43:15.001Z</time></trkpt><trkpt lat="44.05802498912369" lon="11.24454019760034"><ele>473.0</ele><time>2026-04-24T12:43:16.001Z</time></trkpt><trkpt lat="44.05780382836076" lon="11.244468222245896"><ele>473.0</ele><time>2026-04-24T12:43:17.001Z</time></trkpt><trkpt lat="44.05758178574206" lon="11.244388950866405"><ele>469.66666666666663</ele><time>2026-04-24T12:43:18.001Z</time></trkpt><trkpt lat="44.057370905881356" lon="11.244309270335949"><ele>466.33333333333337</ele><time>2026-04-24T12:43:19.001Z</time></trkpt><trkpt lat="44.05716436004796" lon="11.244229049188815"><ele>463.0</ele><time>2026-04-24T12:43:20.001Z</time></trkpt><trkpt lat="44.05696091980945" lon="11.244145643087792"><ele>463.0</ele><time>2026-04-24T12:43:21.001Z</time></trkpt><trkpt lat="44.056754907872225" lon="11.244064326673174"><ele>463.0</ele><time>2026-04-24T12:43:22.001Z</time></trkpt><trkpt lat="44.056533609246536" lon="11.24398433772687"><ele>463.0</ele><time>2026-04-24T12:43:23.001Z</time></trkpt><trkpt lat="44.056262014531654" lon="11.243813552497867"><ele>452.5</ele><time>2026-04-24T12:43:24.001Z</time></trkpt><trkpt lat="44.056030369009626" lon="11.243712826459594"><ele>442.0</ele><time>2026-04-24T12:43:25.001Z</time></trkpt><trkpt lat="44.055812189852126" lon="11.243621278693716"><ele>436.0</ele><time>2026-04-24T12:43:26.001Z</time></trkpt><trkpt lat="44.055604241300344" lon="11.243531282024165"><ele>430.0</ele><time>2026-04-24T12:43:27.001Z</time></trkpt><trkpt lat="44.05539158710982" lon="11.243438910267127"><ele>424.0</ele><time>2026-04-24T12:43:28.001Z</time></trkpt><trkpt lat="44.05517104720284" lon="11.243343302240921"><ele>423.5</ele><time>2026-04-24T12:43:29.001Z</time></trkpt><trkpt lat="44.054942984566274" lon="11.24325173225708"><ele>423.0</ele><time>2026-04-24T12:43:30.001Z</time></trkpt><trkpt lat="44.0547052753904" lon="11.243159135135656"><ele>430.0</ele><time>2026-04-24T12:43:31.001Z</time></trkpt><trkpt lat="44.054460982045704" lon="11.243058506557356"><ele>437.0</ele><time>2026-04-24T12:43:32.001Z</time></trkpt><trkpt lat="44.05421668591564" lon="11.242948709292993"><ele>433.5</ele><time>2026-04-24T12:43:33.001Z</time></trkpt><trkpt lat="44.053970194115756" lon="11.242838264594909"><ele>430.0</ele><time>2026-04-24T12:43:34.001Z</time></trkpt><trkpt lat="44.05371719971622" lon="11.242726949507883"><ele>430.0</ele><time>2026-04-24T12:43:35.001Z</time></trkpt><trkpt lat="44.0534621803856" lon="11.242616620832322"><ele>430.0</ele><time>2026-04-24T12:43:36.001Z</time></trkpt><trkpt lat="44.05320388694649" lon="11.242498889731944"><ele>432.0</ele><time>2026-04-24T12:43:37.001Z</time></trkpt><trkpt lat="44.052939897166894" lon="11.242379283638007"><ele>434.0</ele><time>2026-04-24T12:43:38.001Z</time></trkpt><trkpt lat="44.05267661435453" lon="11.242258647331552"><ele>434.5</ele><time>2026-04-24T12:43:39.001Z</time></trkpt><trkpt lat="44.05241104366935" lon="11.242134487959227"><ele>435.0</ele><time>2026-04-24T12:43:40.001Z</time></trkpt><trkpt lat="44.052142988751974" lon="11.242008490741139"><ele>435.0</ele><time>2026-04-24T12:43:41.001Z</time></trkpt><trkpt lat="44.051886715045924" lon="11.241885754900965"><ele>435.0</ele><time>2026-04-24T12:43:42.001Z</time></trkpt><trkpt lat="44.05164799420944" lon="11.241770539054304"><ele>432.5</ele><time>2026-04-24T12:43:43.001Z</time></trkpt><trkpt lat="44.0514188173392" lon="11.241657012563996"><ele>430.0</ele><time>2026-04-24T12:43:44.001Z</time></trkpt><trkpt lat="44.05118850105541" lon="11.241537703932428"><ele>433.5</ele><time>2026-04-24T12:43:45.001Z</time></trkpt><trkpt lat="44.050954038748735" lon="11.241414808050319"><ele>437.0</ele><time>2026-04-24T12:43:46.001Z</time></trkpt><trkpt lat="44.050729842055254" lon="11.24129567836645"><ele>437.0</ele><time>2026-04-24T12:43:47.001Z</time></trkpt><trkpt lat="44.050511322647026" lon="11.241176541956728"><ele>437.0</ele><time>2026-04-24T12:43:48.001Z</time></trkpt><trkpt lat="44.05029647760828" lon="11.241059319549144"><ele>437.0</ele><time>2026-04-24T12:43:49.001Z</time></trkpt><trkpt lat="44.05007548409441" lon="11.240938602707867"><ele>437.0</ele><time>2026-04-24T12:43:50.001Z</time></trkpt><trkpt lat="44.04985582087963" lon="11.240817701255358"><ele>438.5</ele><time>2026-04-24T12:43:51.001Z</time></trkpt><trkpt lat="44.04963673807002" lon="11.240692303937218"><ele>440.0</ele><time>2026-04-24T12:43:52.001Z</time></trkpt><trkpt lat="44.04941566191235" lon="11.240563114287392"><ele>445.5</ele><time>2026-04-24T12:43:53.001Z</time></trkpt><trkpt lat="44.0491812447509" lon="11.240426836124923"><ele>451.0</ele><time>2026-04-24T12:43:54.001Z</time></trkpt><trkpt lat="44.04893958205196" lon="11.2402850581013"><ele>463.5</ele><time>2026-04-24T12:43:55.001Z</time></trkpt><trkpt lat="44.04869572024409" lon="11.240141619919118"><ele>476.0</ele><time>2026-04-24T12:43:56.019Z</time></trkpt><trkpt lat="44.04845581230853" lon="11.240000836108468"><ele>476.0</ele><time>2026-04-24T12:43:57.015Z</time></trkpt><trkpt lat="44.04820537447511" lon="11.239853191957108"><ele>476.0</ele><time>2026-04-24T12:43:58.016Z</time></trkpt><trkpt lat="44.04795471522862" lon="11.239701694576981"><ele>470.5</ele><time>2026-04-24T12:43:59.019Z</time></trkpt><trkpt lat="44.047707242212034" lon="11.23955492336463"><ele>465.0</ele><time>2026-04-24T12:44:00.018Z</time></trkpt><trkpt lat="44.047469584558876" lon="11.239413061131367"><ele>461.0</ele><time>2026-04-24T12:44:01.023Z</time></trkpt><trkpt lat="44.047233286866565" lon="11.239271246967183"><ele>457.0</ele><time>2026-04-24T12:44:02.02Z</time></trkpt><trkpt lat="44.04543259590635" lon="11.237983317355432"><ele>448.0</ele><time>2026-04-24T12:44:05.471Z</time></trkpt><trkpt lat="44.04641870707145" lon="11.239131872581257"><ele>465.0</ele><time>2026-04-24T12:44:07.469Z</time></trkpt><trkpt lat="44.04748441336749" lon="11.23979985823799"><ele>476.0</ele><time>2026-04-24T12:44:08.469Z</time></trkpt><trkpt lat="44.04856479758318" lon="11.240429701889207"><ele>420.0</ele><time>2026-04-24T12:44:09.471Z</time></trkpt><trkpt lat="44.045072360936594" lon="11.23765789904747"><ele>408.5</ele><time>2026-04-24T12:44:14.002Z</time></trkpt><trkpt lat="44.04488015693281" lon="11.23748454169864"><ele>397.0</ele><time>2026-04-24T12:44:15.002Z</time></trkpt><trkpt lat="44.044670861636675" lon="11.237320558675725"><ele>392.5</ele><time>2026-04-24T12:44:16.002Z</time></trkpt><trkpt lat="44.04448562124179" lon="11.237134288489239"><ele>388.0</ele><time>2026-04-24T12:44:17.002Z</time></trkpt><trkpt lat="44.04429908271831" lon="11.23693892879034"><ele>387.0</ele><time>2026-04-24T12:44:18.002Z</time></trkpt><trkpt lat="44.04411321810013" lon="11.236733934583414"><ele>386.0</ele><time>2026-04-24T12:44:19.002Z</time></trkpt><trkpt lat="44.043940525390504" lon="11.236529995929944"><ele>398.0</ele><time>2026-04-24T12:44:20.002Z</time></trkpt><trkpt lat="44.04377255637377" lon="11.236322688160131"><ele>410.0</ele><time>2026-04-24T12:44:21.002Z</time></trkpt><trkpt lat="44.04360524275641" lon="11.23610848994658"><ele>410.0</ele><time>2026-04-24T12:44:22.002Z</time></trkpt><trkpt lat="44.04344226464903" lon="11.23588975890222"><ele>410.0</ele><time>2026-04-24T12:44:23.002Z</time></trkpt><trkpt lat="44.04328207550438" lon="11.235666674423678"><ele>423.5</ele><time>2026-04-24T12:44:24.002Z</time></trkpt><trkpt lat="44.04312863039728" lon="11.23544093627246"><ele>437.0</ele><time>2026-04-24T12:44:25.002Z</time></trkpt><trkpt lat="44.042976151908185" lon="11.235205097285014"><ele>437.0</ele><time>2026-04-24T12:44:26.002Z</time></trkpt><trkpt lat="44.04283042466044" lon="11.234970803425913"><ele>437.0</ele><time>2026-04-24T12:44:27.002Z</time></trkpt><trkpt lat="44.04268650126764" lon="11.234728234698803"><ele>437.0</ele><time>2026-04-24T12:44:28.002Z</time></trkpt><trkpt lat="44.0425434172576" lon="11.234479403054046"><ele>440.5</ele><time>2026-04-24T12:44:29.002Z</time></trkpt><trkpt lat="44.04240064989116" lon="11.234213722923263"><ele>444.0</ele><time>2026-04-24T12:44:30.001Z</time></trkpt><trkpt lat="44.04225576750603" lon="11.233935292537495"><ele>449.0</ele><time>2026-04-24T12:44:31.001Z</time></trkpt><trkpt lat="44.04210765405349" lon="11.233640133716303"><ele>454.0</ele><time>2026-04-24T12:44:32.016Z</time></trkpt><trkpt lat="44.04196319739078" lon="11.233356016038817"><ele>459.0</ele><time>2026-04-24T12:44:33.012Z</time></trkpt><trkpt lat="44.0418178727404" lon="11.233059455385767"><ele>464.0</ele><time>2026-04-24T12:44:34.014Z</time></trkpt><trkpt lat="44.04167418719833" lon="11.232768414041214"><ele>468.5</ele><time>2026-04-24T12:44:35.016Z</time></trkpt><trkpt lat="44.04152885459851" lon="11.23246818490303"><ele>473.0</ele><time>2026-04-24T12:44:36.019Z</time></trkpt><trkpt lat="44.04138401467178" lon="11.232173904623167"><ele>500.0</ele><time>2026-04-24T12:44:37.013Z</time></trkpt><trkpt lat="44.04021898217931" lon="11.229880163518391"><ele>405.0</ele><time>2026-04-24T12:44:40.47Z</time></trkpt><trkpt lat="44.03905578893054" lon="11.227559717382515"><ele>399.0</ele><time>2026-04-24T12:44:52Z</time></trkpt><trkpt lat="44.03889716219922" lon="11.22726322262656"><ele>393.0</ele><time>2026-04-24T12:44:53Z</time></trkpt><trkpt lat="44.03870299083741" lon="11.227006178377913"><ele>393.0</ele><time>2026-04-24T12:44:54Z</time></trkpt><trkpt lat="44.03852360616566" lon="11.226726345347393"><ele>393.0</ele><time>2026-04-24T12:44:55Z</time></trkpt><trkpt lat="44.038348286522904" lon="11.22644904991638"><ele>399.0</ele><time>2026-04-24T12:44:56.001Z</time></trkpt><trkpt lat="44.03816310635058" lon="11.22618791222514"><ele>405.0</ele><time>2026-04-24T12:44:57.001Z</time></trkpt><trkpt lat="44.03797745040117" lon="11.225930660087998"><ele>405.0</ele><time>2026-04-24T12:44:58.001Z</time></trkpt><trkpt lat="44.037784440306304" lon="11.225688511648798"><ele>405.0</ele><time>2026-04-24T12:44:59.001Z</time></trkpt><trkpt lat="44.03758789468172" lon="11.225455157368522"><ele>413.0</ele><time>2026-04-24T12:45:00.001Z</time></trkpt><trkpt lat="44.03739164202022" lon="11.225232254748319"><ele>421.0</ele><time>2026-04-24T12:45:01.001Z</time></trkpt><trkpt lat="44.03718798119976" lon="11.225010599989673"><ele>427.0</ele><time>2026-04-24T12:45:02.001Z</time></trkpt><trkpt lat="44.03697798933533" lon="11.224791095588236"><ele>433.0</ele><time>2026-04-24T12:45:03.001Z</time></trkpt><trkpt lat="44.03676374675766" lon="11.224582609527076"><ele>431.0</ele><time>2026-04-24T12:45:04.001Z</time></trkpt><trkpt lat="44.036545308993325" lon="11.224389074925652"><ele>429.0</ele><time>2026-04-24T12:45:05.001Z</time></trkpt><trkpt lat="44.03632212188078" lon="11.224206025588279"><ele>429.0</ele><time>2026-04-24T12:45:06.001Z</time></trkpt><trkpt lat="44.03609896255267" lon="11.22402825997545"><ele>429.0</ele><time>2026-04-24T12:45:07.001Z</time></trkpt><trkpt lat="44.03587343039637" lon="11.223845503834907"><ele>428.5</ele><time>2026-04-24T12:45:08.015Z</time></trkpt><trkpt lat="44.03564929270923" lon="11.223659728546208"><ele>428.0</ele><time>2026-04-24T12:45:09.019Z</time></trkpt><trkpt lat="44.03542926693421" lon="11.223476950132957"><ele>428.0</ele><time>2026-04-24T12:45:10.011Z</time></trkpt><trkpt lat="44.035207323555724" lon="11.22329446139534"><ele>428.0</ele><time>2026-04-24T12:45:11.013Z</time></trkpt><trkpt lat="44.034571303095696" lon="11.223084200184068"><ele>416.5</ele><time>2026-04-24T12:45:13.001Z</time></trkpt><trkpt lat="44.03430485576841" lon="11.222944329934737"><ele>405.0</ele><time>2026-04-24T12:45:14.001Z</time></trkpt><trkpt lat="44.03404399986757" lon="11.222822423029836"><ele>403.0</ele><time>2026-04-24T12:45:15.001Z</time></trkpt><trkpt lat="44.03378085015132" lon="11.222675824218348"><ele>401.0</ele><time>2026-04-24T12:45:16.001Z</time></trkpt><trkpt lat="44.033503832558814" lon="11.222530504164567"><ele>392.5</ele><time>2026-04-24T12:45:17.001Z</time></trkpt><trkpt lat="44.03322717741308" lon="11.222386615016783"><ele>384.0</ele><time>2026-04-24T12:45:18.001Z</time></trkpt><trkpt lat="44.03295711262185" lon="11.22224563212491"><ele>370.5</ele><time>2026-04-24T12:45:19.001Z</time></trkpt><trkpt lat="44.03268916077711" lon="11.222113025125372"><ele>357.0</ele><time>2026-04-24T12:45:20.001Z</time></trkpt><trkpt lat="44.032396872259746" lon="11.22196986135107"><ele>352.5</ele><time>2026-04-24T12:45:21.001Z</time></trkpt><trkpt lat="44.03212611822206" lon="11.22183279134797"><ele>348.0</ele><time>2026-04-24T12:45:22.001Z</time></trkpt><trkpt lat="44.031853340064465" lon="11.221693333803993"><ele>348.0</ele><time>2026-04-24T12:45:23.001Z</time></trkpt><trkpt lat="44.031580067879595" lon="11.221554269467957"><ele>348.0</ele><time>2026-04-24T12:45:24.001Z</time></trkpt><trkpt lat="44.03130837630367" lon="11.221414345623556"><ele>349.0</ele><time>2026-04-24T12:45:25.001Z</time></trkpt><trkpt lat="44.031035258018775" lon="11.221273206893986"><ele>350.0</ele><time>2026-04-24T12:45:26.001Z</time></trkpt><trkpt lat="44.03076522444572" lon="11.221134940917786"><ele>350.0</ele><time>2026-04-24T12:45:27.001Z</time></trkpt><trkpt lat="44.03049366275937" lon="11.220997986781843"><ele>350.0</ele><time>2026-04-24T12:45:28.001Z</time></trkpt><trkpt lat="44.03022134545497" lon="11.22085441695386"><ele>359.0</ele><time>2026-04-24T12:45:29.001Z</time></trkpt><trkpt lat="44.02995287639967" lon="11.220712652892832"><ele>368.0</ele><time>2026-04-24T12:45:30.001Z</time></trkpt><trkpt lat="44.02968120638525" lon="11.220575938008919"><ele>378.5</ele><time>2026-04-24T12:45:31.001Z</time></trkpt><trkpt lat="44.029401069724244" lon="11.220445068036497"><ele>389.0</ele><time>2026-04-24T12:45:32.001Z</time></trkpt><trkpt lat="44.02912230280167" lon="11.22033474531475"><ele>407.0</ele><time>2026-04-24T12:45:33.001Z</time></trkpt><trkpt lat="44.02883845489602" lon="11.22023983605752"><ele>425.0</ele><time>2026-04-24T12:45:34.001Z</time></trkpt><trkpt lat="44.02855244740956" lon="11.220165720315032"><ele>431.0</ele><time>2026-04-24T12:45:35.001Z</time></trkpt><trkpt lat="44.02826588760547" lon="11.220116945084108"><ele>437.0</ele><time>2026-04-24T12:45:36.001Z</time></trkpt><trkpt lat="44.027974074321826" lon="11.2200760751293"><ele>437.0</ele><time>2026-04-24T12:45:37.001Z</time></trkpt><trkpt lat="44.0276750853506" lon="11.22002072283541"><ele>437.0</ele><time>2026-04-24T12:45:38.001Z</time></trkpt><trkpt lat="44.027371275194334" lon="11.219964560254194"><ele>433.0</ele><time>2026-04-24T12:45:39.001Z</time></trkpt><trkpt lat="44.02706401604526" lon="11.21991272387198"><ele>429.0</ele><time>2026-04-24T12:45:40.029Z</time></trkpt><trkpt lat="44.02676797219072" lon="11.219861768154875"><ele>431.5</ele><time>2026-04-24T12:45:41.024Z</time></trkpt><trkpt lat="44.02647213550675" lon="11.21983905091889"><ele>434.0</ele><time>2026-04-24T12:45:42.019Z</time></trkpt><trkpt lat="44.02617892212201" lon="11.219860894771385"><ele>434.0</ele><time>2026-04-24T12:45:43.014Z</time></trkpt><trkpt lat="44.025885832936304" lon="11.219893699220576"><ele>434.0</ele><time>2026-04-24T12:45:44.021Z</time></trkpt><trkpt lat="44.0248603" lon="11.2201568"><ele>376.0</ele><time>2026-04-24T12:45:47.472Z</time></trkpt><trkpt lat="44.01624640919642" lon="11.22106147931071"><ele>376.0</ele><time>2026-04-24T12:46:19.002Z</time></trkpt><trkpt lat="44.01601038829985" lon="11.221027239559783"><ele>376.0</ele><time>2026-04-24T12:46:20.002Z</time></trkpt><trkpt lat="44.015776614010434" lon="11.220939798252147"><ele>372.0</ele><time>2026-04-24T12:46:21.002Z</time></trkpt><trkpt lat="44.01555110856167" lon="11.220911432512276"><ele>368.0</ele><time>2026-04-24T12:46:22.002Z</time></trkpt><trkpt lat="44.015324437627136" lon="11.22086888280185"><ele>368.0</ele><time>2026-04-24T12:46:23.002Z</time></trkpt><trkpt lat="44.01509634395902" lon="11.220810543881726"><ele>368.0</ele><time>2026-04-24T12:46:24.002Z</time></trkpt><trkpt lat="44.01486035326832" lon="11.220751593731123"><ele>369.0</ele><time>2026-04-24T12:46:25.002Z</time></trkpt><trkpt lat="44.01462641435183" lon="11.220682478885323"><ele>370.0</ele><time>2026-04-24T12:46:26.002Z</time></trkpt><trkpt lat="44.01439010008005" lon="11.220613489661806"><ele>370.0</ele><time>2026-04-24T12:46:27.002Z</time></trkpt><trkpt lat="44.014155089752606" lon="11.220535250020347"><ele>370.0</ele><time>2026-04-24T12:46:28.002Z</time></trkpt><trkpt lat="44.013923976597276" lon="11.220458421965134"><ele>364.0</ele><time>2026-04-24T12:46:29.002Z</time></trkpt><trkpt lat="44.013700789175786" lon="11.220378705071465"><ele>358.0</ele><time>2026-04-24T12:46:30.002Z</time></trkpt><trkpt lat="44.01345672164748" lon="11.220292884789043"><ele>353.0</ele><time>2026-04-24T12:46:31.002Z</time></trkpt><trkpt lat="44.01322713485701" lon="11.220209886456415"><ele>348.0</ele><time>2026-04-24T12:46:32.002Z</time></trkpt><trkpt lat="44.01299497678161" lon="11.22012630845938"><ele>348.0</ele><time>2026-04-24T12:46:33.002Z</time></trkpt><trkpt lat="44.012746790293264" lon="11.220040053365572"><ele>348.0</ele><time>2026-04-24T12:46:34.002Z</time></trkpt><trkpt lat="44.01248651252" lon="11.219940282448215"><ele>345.5</ele><time>2026-04-24T12:46:35.002Z</time></trkpt><trkpt lat="44.012228807800646" lon="11.219821957533496"><ele>343.0</ele><time>2026-04-24T12:46:36.001Z</time></trkpt><trkpt lat="44.01197163809827" lon="11.219691423058125"><ele>333.5</ele><time>2026-04-24T12:46:37.001Z</time></trkpt><trkpt lat="44.01171417236114" lon="11.219560534793006"><ele>324.0</ele><time>2026-04-24T12:46:38.001Z</time></trkpt><trkpt lat="44.011450980700054" lon="11.219424075649048"><ele>318.5</ele><time>2026-04-24T12:46:39.001Z</time></trkpt><trkpt lat="44.01118728989018" lon="11.219274443721739"><ele>313.0</ele><time>2026-04-24T12:46:40.001Z</time></trkpt><trkpt lat="44.0109246210448" lon="11.219117468360142"><ele>326.5</ele><time>2026-04-24T12:46:41.001Z</time></trkpt><trkpt lat="44.0106628481772" lon="11.218959742560038"><ele>340.0</ele><time>2026-04-24T12:46:42.001Z</time></trkpt><trkpt lat="44.01040578236787" lon="11.218793811054821"><ele>340.0</ele><time>2026-04-24T12:46:43.001Z</time></trkpt><trkpt lat="44.01015409973217" lon="11.218624387250246"><ele>340.0</ele><time>2026-04-24T12:46:44.001Z</time></trkpt><trkpt lat="44.0099011104887" lon="11.218450778994558"><ele>349.0</ele><time>2026-04-24T12:46:45.001Z</time></trkpt><trkpt lat="44.0096485069566" lon="11.218281601620758"><ele>358.0</ele><time>2026-04-24T12:46:46.001Z</time></trkpt><trkpt lat="44.009395467506884" lon="11.218109688497462"><ele>363.5</ele><time>2026-04-24T12:46:47.001Z</time></trkpt><trkpt lat="44.00913100794203" lon="11.217928567312333"><ele>369.0</ele><time>2026-04-24T12:46:48.001Z</time></trkpt><trkpt lat="44.00886904213185" lon="11.217744037702234"><ele>369.0</ele><time>2026-04-24T12:46:49Z</time></trkpt><trkpt lat="44.00860589010956" lon="11.217555682758794"><ele>369.0</ele><time>2026-04-24T12:46:50.016Z</time></trkpt><trkpt lat="44.00833792455546" lon="11.217366344500837"><ele>367.0</ele><time>2026-04-24T12:46:51.021Z</time></trkpt><trkpt lat="44.00807940558647" lon="11.217175105443676"><ele>365.0</ele><time>2026-04-24T12:46:52.022Z</time></trkpt><trkpt lat="44.0078184586" lon="11.216985218607753"><ele>365.0</ele><time>2026-04-24T12:46:53.015Z</time></trkpt><trkpt lat="44.007554883480736" lon="11.21679648917531"><ele>365.0</ele><time>2026-04-24T12:46:54.022Z</time></trkpt><trkpt lat="43.989635836374006" lon="11.210990538831066"><ele>333.5</ele><time>2026-04-24T12:47:57.001Z</time></trkpt><trkpt lat="43.989363775473976" lon="11.210944061672357"><ele>302.0</ele><time>2026-04-24T12:47:58.001Z</time></trkpt><trkpt lat="43.98916362680079" lon="11.210939498649992"><ele>291.0</ele><time>2026-04-24T12:47:59.001Z</time></trkpt><trkpt lat="43.98887377322196" lon="11.210932657381298"><ele>280.0</ele><time>2026-04-24T12:48:00.001Z</time></trkpt><trkpt lat="43.988584550295265" lon="11.21093669799625"><ele>279.0</ele><time>2026-04-24T12:48:01.001Z</time></trkpt><trkpt lat="43.988286440467824" lon="11.210937062288833"><ele>278.0</ele><time>2026-04-24T12:48:02.002Z</time></trkpt><trkpt lat="43.98799971768104" lon="11.210945584511322"><ele>278.0</ele><time>2026-04-24T12:48:03.002Z</time></trkpt><trkpt lat="43.98770871147135" lon="11.210950547861215"><ele>278.0</ele><time>2026-04-24T12:48:04.002Z</time></trkpt><trkpt lat="43.98741974538064" lon="11.21095230803632"><ele>278.0</ele><time>2026-04-24T12:48:05.002Z</time></trkpt><trkpt lat="43.987123862360626" lon="11.210958118122166"><ele>278.0</ele><time>2026-04-24T12:48:06.002Z</time></trkpt><trkpt lat="43.98683238139052" lon="11.210962895777325"><ele>278.5</ele><time>2026-04-24T12:48:07.002Z</time></trkpt><trkpt lat="43.986543562511585" lon="11.210966593911648"><ele>279.0</ele><time>2026-04-24T12:48:08.002Z</time></trkpt><trkpt lat="43.98625298329792" lon="11.210972435211307"><ele>279.0</ele><time>2026-04-24T12:48:09.002Z</time></trkpt><trkpt lat="43.98596006119806" lon="11.21097691278103"><ele>279.0</ele><time>2026-04-24T12:48:10.002Z</time></trkpt><trkpt lat="43.98564714778307" lon="11.21098538408221"><ele>281.0</ele><time>2026-04-24T12:48:11.002Z</time></trkpt><trkpt lat="43.98535645896734" lon="11.210999132019815"><ele>283.0</ele><time>2026-04-24T12:48:12.002Z</time></trkpt><trkpt lat="43.98506609623334" lon="11.21101512731428"><ele>284.5</ele><time>2026-04-24T12:48:13.002Z</time></trkpt><trkpt lat="43.984775602669764" lon="11.21102814096469"><ele>286.0</ele><time>2026-04-24T12:48:14.002Z</time></trkpt><trkpt lat="43.98448409299912" lon="11.21103833735789"><ele>286.0</ele><time>2026-04-24T12:48:15.002Z</time></trkpt><trkpt lat="43.98419079104374" lon="11.211051107508334"><ele>286.0</ele><time>2026-04-24T12:48:16.002Z</time></trkpt><trkpt lat="43.983898953235965" lon="11.211058476471628"><ele>288.0</ele><time>2026-04-24T12:48:17.002Z</time></trkpt><trkpt lat="43.983606060562416" lon="11.21106010868226"><ele>290.0</ele><time>2026-04-24T12:48:18.002Z</time></trkpt><trkpt lat="43.983307946253895" lon="11.211068130427616"><ele>291.5</ele><time>2026-04-24T12:48:19.002Z</time></trkpt><trkpt lat="43.98301825127543" lon="11.21107229168993"><ele>293.0</ele><time>2026-04-24T12:48:20.002Z</time></trkpt><trkpt lat="43.98272761451153" lon="11.21107925488367"><ele>293.0</ele><time>2026-04-24T12:48:21.002Z</time></trkpt><trkpt lat="43.982434432131576" lon="11.211089000832832"><ele>293.0</ele><time>2026-04-24T12:48:22.002Z</time></trkpt><trkpt lat="43.98214403691639" lon="11.211091843363443"><ele>293.0</ele><time>2026-04-24T12:48:23.002Z</time></trkpt><trkpt lat="43.98185194339158" lon="11.211094702839688"><ele>293.0</ele><time>2026-04-24T12:48:24.002Z</time></trkpt><trkpt lat="43.981561366948625" lon="11.211096744880043"><ele>289.5</ele><time>2026-04-24T12:48:25.002Z</time></trkpt><trkpt lat="43.98126999579363" lon="11.211100849788403"><ele>286.0</ele><time>2026-04-24T12:48:26.002Z</time></trkpt><trkpt lat="43.98097790906003" lon="11.211107449973754"><ele>293.5</ele><time>2026-04-24T12:48:27.002Z</time></trkpt><trkpt lat="43.98068786277347" lon="11.211114803826268"><ele>301.0</ele><time>2026-04-24T12:48:28.002Z</time></trkpt><trkpt lat="43.98039569606363" lon="11.211121003853705"><ele>301.0</ele><time>2026-04-24T12:48:29.002Z</time></trkpt><trkpt lat="43.98010434998915" lon="11.211126621535346"><ele>301.0</ele><time>2026-04-24T12:48:30.002Z</time></trkpt><trkpt lat="43.97981364098124" lon="11.211129202357576"><ele>307.0</ele><time>2026-04-24T12:48:31.002Z</time></trkpt><trkpt lat="43.97952132619015" lon="11.211134883178747"><ele>313.0</ele><time>2026-04-24T12:48:32.002Z</time></trkpt><trkpt lat="43.97922964946076" lon="11.211133927599032"><ele>313.5</ele><time>2026-04-24T12:48:33.002Z</time></trkpt><trkpt lat="43.97893803212881" lon="11.211137639859517"><ele>314.0</ele><time>2026-04-24T12:48:34.002Z</time></trkpt><trkpt lat="43.97864467168476" lon="11.211138503542609"><ele>315.5</ele><time>2026-04-24T12:48:35.002Z</time></trkpt><trkpt lat="43.97835092420208" lon="11.211138066812302"><ele>317.0</ele><time>2026-04-24T12:48:36.002Z</time></trkpt><trkpt lat="43.97806095714117" lon="11.21113262965066"><ele>317.0</ele><time>2026-04-24T12:48:37.002Z</time></trkpt><trkpt lat="43.97776728156994" lon="11.211134701459242"><ele>317.0</ele><time>2026-04-24T12:48:38.002Z</time></trkpt><trkpt lat="43.97747348391705" lon="11.211139085126076"><ele>319.0</ele><time>2026-04-24T12:48:39.002Z</time></trkpt><trkpt lat="43.977179382895144" lon="11.211142772916514"><ele>321.0</ele><time>2026-04-24T12:48:40.002Z</time></trkpt><trkpt lat="43.976886034229" lon="11.211145503509792"><ele>315.5</ele><time>2026-04-24T12:48:41.002Z</time></trkpt><trkpt lat="43.97659311333345" lon="11.211150262907108"><ele>310.0</ele><time>2026-04-24T12:48:42.001Z</time></trkpt><trkpt lat="43.976299074385345" lon="11.211157187103531"><ele>310.0</ele><time>2026-04-24T12:48:43.001Z</time></trkpt><trkpt lat="43.97600694668917" lon="11.2111661377166"><ele>310.0</ele><time>2026-04-24T12:48:44.001Z</time></trkpt><trkpt lat="43.9757137391302" lon="11.211174256185114"><ele>300.0</ele><time>2026-04-24T12:48:45.001Z</time></trkpt><trkpt lat="43.97541899220574" lon="11.211178482289899"><ele>290.0</ele><time>2026-04-24T12:48:46.001Z</time></trkpt><trkpt lat="43.97512450272797" lon="11.211182109176596"><ele>297.5</ele><time>2026-04-24T12:48:47.001Z</time></trkpt><trkpt lat="43.97483013825793" lon="11.211189059692954"><ele>305.0</ele><time>2026-04-24T12:48:48.001Z</time></trkpt><trkpt lat="43.97453704885371" lon="11.211195175379526"><ele>305.0</ele><time>2026-04-24T12:48:49.001Z</time></trkpt><trkpt lat="43.974245137447376" lon="11.211200133575515"><ele>305.0</ele><time>2026-04-24T12:48:50.001Z</time></trkpt><trkpt lat="43.97395342133205" lon="11.211209221969593"><ele>319.5</ele><time>2026-04-24T12:48:51.001Z</time></trkpt><trkpt lat="43.97366228718493" lon="11.21122862501376"><ele>334.0</ele><time>2026-04-24T12:48:52.001Z</time></trkpt><trkpt lat="43.9733735384523" lon="11.211247838208326"><ele>333.0</ele><time>2026-04-24T12:48:53.001Z</time></trkpt><trkpt lat="43.97308165468037" lon="11.211254378130235"><ele>332.0</ele><time>2026-04-24T12:48:54.001Z</time></trkpt><trkpt lat="43.97278870078285" lon="11.21125899846165"><ele>330.5</ele><time>2026-04-24T12:48:55.001Z</time></trkpt><trkpt lat="43.972498309982115" lon="11.211267560001687"><ele>329.0</ele><time>2026-04-24T12:48:56.001Z</time></trkpt><trkpt lat="43.972206577242744" lon="11.21127113582184"><ele>329.0</ele><time>2026-04-24T12:48:57.001Z</time></trkpt><trkpt lat="43.97191258874174" lon="11.211274153186855"><ele>329.0</ele><time>2026-04-24T12:48:58.001Z</time></trkpt><trkpt lat="43.971619074720174" lon="11.211277136500948"><ele>329.0</ele><time>2026-04-24T12:48:59.001Z</time></trkpt><trkpt lat="43.971329096162954" lon="11.211283995813716"><ele>329.0</ele><time>2026-04-24T12:49:00.001Z</time></trkpt><trkpt lat="43.97103678837624" lon="11.211290457429282"><ele>329.0</ele><time>2026-04-24T12:49:01.001Z</time></trkpt><trkpt lat="43.97074277203306" lon="11.211301586127915"><ele>329.0</ele><time>2026-04-24T12:49:02.001Z</time></trkpt><trkpt lat="43.97044945812357" lon="11.21131235351317"><ele>329.0</ele><time>2026-04-24T12:49:03.001Z</time></trkpt><trkpt lat="43.970154927378566" lon="11.21131883089659"><ele>329.0</ele><time>2026-04-24T12:49:04.001Z</time></trkpt><trkpt lat="43.96985740636076" lon="11.211323441451823"><ele>328.0</ele><time>2026-04-24T12:49:05.001Z</time></trkpt><trkpt lat="43.96956311178809" lon="11.211326085164478"><ele>327.0</ele><time>2026-04-24T12:49:06.001Z</time></trkpt><trkpt lat="43.96927122115083" lon="11.211330298836394"><ele>329.0</ele><time>2026-04-24T12:49:07.001Z</time></trkpt><trkpt lat="43.9689761012621" lon="11.211333202851666"><ele>331.0</ele><time>2026-04-24T12:49:08.001Z</time></trkpt><trkpt lat="43.968682108434415" lon="11.211339997669448"><ele>331.0</ele><time>2026-04-24T12:49:09.001Z</time></trkpt><trkpt lat="43.96838774077494" lon="11.211347399021646"><ele>331.0</ele><time>2026-04-24T12:49:10.001Z</time></trkpt><trkpt lat="43.96809381780561" lon="11.21135809500047"><ele>333.5</ele><time>2026-04-24T12:49:11.001Z</time></trkpt><trkpt lat="43.9678002357929" lon="11.21136650524763"><ele>336.0</ele><time>2026-04-24T12:49:12.001Z</time></trkpt><trkpt lat="43.96750643925967" lon="11.211368935655535"><ele>337.5</ele><time>2026-04-24T12:49:13.001Z</time></trkpt><trkpt lat="43.96721087076197" lon="11.211362051855845"><ele>339.0</ele><time>2026-04-24T12:49:14.001Z</time></trkpt><trkpt lat="43.96691827793012" lon="11.211343598933345"><ele>337.0</ele><time>2026-04-24T12:49:15.001Z</time></trkpt><trkpt lat="43.966624465086234" lon="11.21131569169684"><ele>335.0</ele><time>2026-04-24T12:49:16.001Z</time></trkpt><trkpt lat="43.96632981102964" lon="11.211276246727675"><ele>335.0</ele><time>2026-04-24T12:49:17.001Z</time></trkpt><trkpt lat="43.966036758677745" lon="11.211227047742476"><ele>335.0</ele><time>2026-04-24T12:49:18.001Z</time></trkpt><trkpt lat="43.96574462622027" lon="11.211175317339835"><ele>335.0</ele><time>2026-04-24T12:49:19.001Z</time></trkpt><trkpt lat="43.96545435457519" lon="11.211119683173107"><ele>335.0</ele><time>2026-04-24T12:49:20.001Z</time></trkpt><trkpt lat="43.96516317606931" lon="11.211058946938765"><ele>341.0</ele><time>2026-04-24T12:49:21.001Z</time></trkpt><trkpt lat="43.964873024188336" lon="11.210989617446257"><ele>347.0</ele><time>2026-04-24T12:49:22.001Z</time></trkpt><trkpt lat="43.964587076782514" lon="11.210912228479389"><ele>347.0</ele><time>2026-04-24T12:49:23.001Z</time></trkpt><trkpt lat="43.96429944159155" lon="11.210822466411791"><ele>347.0</ele><time>2026-04-24T12:49:24.001Z</time></trkpt><trkpt lat="43.96401323921975" lon="11.21072492774825"><ele>351.0</ele><time>2026-04-24T12:49:25.001Z</time></trkpt><trkpt lat="43.963732493543574" lon="11.210615068550165"><ele>355.0</ele><time>2026-04-24T12:49:26.001Z</time></trkpt><trkpt lat="43.963453274379944" lon="11.210496116460092"><ele>351.0</ele><time>2026-04-24T12:49:27.001Z</time></trkpt><trkpt lat="43.96317017563975" lon="11.210368697214731"><ele>347.0</ele><time>2026-04-24T12:49:28.001Z</time></trkpt><trkpt lat="43.96289044665001" lon="11.210241666383514"><ele>347.0</ele><time>2026-04-24T12:49:29.001Z</time></trkpt><trkpt lat="43.96261849429338" lon="11.210103239334737"><ele>347.0</ele><time>2026-04-24T12:49:30.001Z</time></trkpt><trkpt lat="43.96234864773499" lon="11.209950558954485"><ele>347.0</ele><time>2026-04-24T12:49:31.001Z</time></trkpt><trkpt lat="43.96207440869221" lon="11.209805622559672"><ele>347.0</ele><time>2026-04-24T12:49:32.001Z</time></trkpt><trkpt lat="43.96180157283726" lon="11.209654087423864"><ele>349.0</ele><time>2026-04-24T12:49:33.001Z</time></trkpt><trkpt lat="43.96152959758573" lon="11.209503365303245"><ele>351.0</ele><time>2026-04-24T12:49:34.001Z</time></trkpt><trkpt lat="43.961258956469145" lon="11.209359277431737"><ele>351.0</ele><time>2026-04-24T12:49:35.001Z</time></trkpt><trkpt lat="43.96098764041844" lon="11.20921097351709"><ele>351.0</ele><time>2026-04-24T12:49:36.001Z</time></trkpt><trkpt lat="43.96071929527791" lon="11.209062657544298"><ele>360.0</ele><time>2026-04-24T12:49:37.001Z</time></trkpt><trkpt lat="43.96044691263754" lon="11.208914429117325"><ele>369.0</ele><time>2026-04-24T12:49:38.019Z</time></trkpt><trkpt lat="43.96017524733443" lon="11.208767172808832"><ele>365.0</ele><time>2026-04-24T12:49:39.026Z</time></trkpt><trkpt lat="43.95990535973929" lon="11.208618290525274"><ele>361.0</ele><time>2026-04-24T12:49:40.028Z</time></trkpt><trkpt lat="43.95964187740078" lon="11.20847857924449"><ele>361.0</ele><time>2026-04-24T12:49:41.018Z</time></trkpt><trkpt lat="43.959364704276645" lon="11.208328790288771"><ele>361.0</ele><time>2026-04-24T12:49:42.001Z</time></trkpt><trkpt lat="43.95903061564431" lon="11.208378498814962"><ele>354.5</ele><time>2026-04-24T12:49:43.001Z</time></trkpt><trkpt lat="43.958735181622124" lon="11.208324760837938"><ele>348.0</ele><time>2026-04-24T12:49:44.001Z</time></trkpt><trkpt lat="43.95844482553649" lon="11.208270044554878"><ele>347.0</ele><time>2026-04-24T12:49:45.001Z</time></trkpt><trkpt lat="43.95815565549124" lon="11.208219285371694"><ele>346.0</ele><time>2026-04-24T12:49:46.001Z</time></trkpt><trkpt lat="43.957864381793335" lon="11.208182653392585"><ele>346.0</ele><time>2026-04-24T12:49:47.001Z</time></trkpt><trkpt lat="43.95757049300973" lon="11.208161047309934"><ele>346.0</ele><time>2026-04-24T12:49:48.001Z</time></trkpt><trkpt lat="43.9572792396867" lon="11.208149907107982"><ele>352.5</ele><time>2026-04-24T12:49:49.001Z</time></trkpt><trkpt lat="43.95698568620151" lon="11.20814647880484"><ele>359.0</ele><time>2026-04-24T12:49:50.001Z</time></trkpt><trkpt lat="43.95669370925864" lon="11.20815721311562"><ele>360.5</ele><time>2026-04-24T12:49:51.001Z</time></trkpt><trkpt lat="43.95640025896062" lon="11.20817846434339"><ele>362.0</ele><time>2026-04-24T12:49:52.001Z</time></trkpt><trkpt lat="43.95611077239508" lon="11.208215813067458"><ele>358.0</ele><time>2026-04-24T12:49:53.001Z</time></trkpt><trkpt lat="43.95582106776858" lon="11.208269701816322"><ele>354.0</ele><time>2026-04-24T12:49:54.001Z</time></trkpt><trkpt lat="43.95553511596775" lon="11.20834650737433"><ele>354.0</ele><time>2026-04-24T12:49:55.001Z</time></trkpt><trkpt lat="43.955247953135846" lon="11.208439476970424"><ele>354.0</ele><time>2026-04-24T12:49:56.001Z</time></trkpt><trkpt lat="43.95496132098847" lon="11.208543819703078"><ele>351.0</ele><time>2026-04-24T12:49:57.001Z</time></trkpt><trkpt lat="43.95468038162228" lon="11.208658289905593"><ele>348.0</ele><time>2026-04-24T12:49:58.001Z</time></trkpt><trkpt lat="43.95440259358646" lon="11.208780719295778"><ele>347.5</ele><time>2026-04-24T12:49:59.001Z</time></trkpt><trkpt lat="43.95412642767358" lon="11.20891739183377"><ele>347.0</ele><time>2026-04-24T12:50:00.001Z</time></trkpt><trkpt lat="43.95385318408113" lon="11.209063031058696"><ele>347.0</ele><time>2026-04-24T12:50:01.001Z</time></trkpt><trkpt lat="43.95358263327573" lon="11.209219530893812"><ele>347.0</ele><time>2026-04-24T12:50:02.001Z</time></trkpt><trkpt lat="43.95331049235304" lon="11.209379319612058"><ele>356.0</ele><time>2026-04-24T12:50:03.001Z</time></trkpt><trkpt lat="43.95303545852346" lon="11.209540738669558"><ele>365.0</ele><time>2026-04-24T12:50:04.001Z</time></trkpt><trkpt lat="43.95276015168168" lon="11.209707447575468"><ele>388.0</ele><time>2026-04-24T12:50:05.001Z</time></trkpt><trkpt lat="43.95248239679436" lon="11.209876217775165"><ele>411.0</ele><time>2026-04-24T12:50:06.012Z</time></trkpt><trkpt lat="43.95220847097981" lon="11.210044695236629"><ele>411.0</ele><time>2026-04-24T12:50:07.012Z</time></trkpt><trkpt lat="43.95193423719529" lon="11.210214100599519"><ele>411.0</ele><time>2026-04-24T12:50:08.012Z</time></trkpt><trkpt lat="43.9516602036836" lon="11.21038432869709"><ele>163.0</ele><time>2026-04-24T12:50:09.012Z</time></trkpt><trkpt lat="43.89454213906442" lon="11.189291719357659"><ele>163.0</ele><time>2026-04-24T12:54:09.005Z</time></trkpt><trkpt lat="43.89434321269482" lon="11.189009797596954"><ele>163.0</ele><time>2026-04-24T12:54:10.005Z</time></trkpt><trkpt lat="43.894044415606004" lon="11.18887734489936"><ele>162.5</ele><time>2026-04-24T12:54:11.005Z</time></trkpt><trkpt lat="43.89383615914707" lon="11.18856740303758"><ele>162.0</ele><time>2026-04-24T12:54:12.005Z</time></trkpt><trkpt lat="43.89361942703271" lon="11.188263573658222"><ele>159.0</ele><time>2026-04-24T12:54:13.005Z</time></trkpt><trkpt lat="43.89339460226815" lon="11.18796114831082"><ele>156.0</ele><time>2026-04-24T12:54:14.005Z</time></trkpt><trkpt lat="43.893168453197724" lon="11.187659796734431"><ele>156.0</ele><time>2026-04-24T12:54:15.005Z</time></trkpt><trkpt lat="43.89293098873139" lon="11.18736682298821"><ele>156.0</ele><time>2026-04-24T12:54:16.005Z</time></trkpt><trkpt lat="43.89268358591317" lon="11.187085586222736"><ele>157.0</ele><time>2026-04-24T12:54:17.005Z</time></trkpt><trkpt lat="43.8924392460216" lon="11.186803804343805"><ele>158.0</ele><time>2026-04-24T12:54:18.003Z</time></trkpt><trkpt lat="43.89219349815659" lon="11.186539216849344"><ele>154.0</ele><time>2026-04-24T12:54:19.003Z</time></trkpt><trkpt lat="43.891947204993265" lon="11.186286901873665"><ele>150.0</ele><time>2026-04-24T12:54:20.003Z</time></trkpt><trkpt lat="43.891695002474115" lon="11.186052370245779"><ele>150.0</ele><time>2026-04-24T12:54:21.003Z</time></trkpt><trkpt lat="43.8914394610869" lon="11.18583523713081"><ele>150.0</ele><time>2026-04-24T12:54:22.003Z</time></trkpt><trkpt lat="43.89117679434001" lon="11.185631116412813"><ele>146.5</ele><time>2026-04-24T12:54:23.002Z</time></trkpt><trkpt lat="43.89090919066665" lon="11.185443564651736"><ele>143.0</ele><time>2026-04-24T12:54:24.002Z</time></trkpt><trkpt lat="43.89063369860807" lon="11.185276744397818"><ele>143.0</ele><time>2026-04-24T12:54:25.002Z</time></trkpt><trkpt lat="43.89035161501629" lon="11.185133915902945"><ele>143.0</ele><time>2026-04-24T12:54:26.002Z</time></trkpt><trkpt lat="43.890065265051774" lon="11.185015539040371"><ele>140.5</ele><time>2026-04-24T12:54:27.002Z</time></trkpt><trkpt lat="43.889776077523784" lon="11.184918312517553"><ele>138.0</ele><time>2026-04-24T12:54:28.002Z</time></trkpt><trkpt lat="43.88948999791656" lon="11.184837998198606"><ele>135.5</ele><time>2026-04-24T12:54:29.002Z</time></trkpt><trkpt lat="43.88920089370831" lon="11.184770715383188"><ele>133.0</ele><time>2026-04-24T12:54:30.002Z</time></trkpt><trkpt lat="43.888912235694114" lon="11.184724517809759"><ele>133.0</ele><time>2026-04-24T12:54:31.002Z</time></trkpt><trkpt lat="43.888619751236206" lon="11.184691526960949"><ele>133.0</ele><time>2026-04-24T12:54:32.001Z</time></trkpt><trkpt lat="43.8883234072916" lon="11.184685222362324"><ele>132.5</ele><time>2026-04-24T12:54:33.001Z</time></trkpt><trkpt lat="43.888027182176366" lon="11.18470101407772"><ele>132.0</ele><time>2026-04-24T12:54:34.001Z</time></trkpt><trkpt lat="43.887733789005914" lon="11.184733872470844"><ele>129.5</ele><time>2026-04-24T12:54:35.001Z</time></trkpt><trkpt lat="43.887442599364874" lon="11.184780628173943"><ele>127.0</ele><time>2026-04-24T12:54:36.001Z</time></trkpt><trkpt lat="43.8871508651195" lon="11.18484185758037"><ele>128.0</ele><time>2026-04-24T12:54:37.001Z</time></trkpt><trkpt lat="43.88686038939232" lon="11.184917170878132"><ele>129.0</ele><time>2026-04-24T12:54:38.001Z</time></trkpt><trkpt lat="43.88657232502704" lon="11.184996926158618"><ele>121.5</ele><time>2026-04-24T12:54:39.001Z</time></trkpt><trkpt lat="43.88628322682097" lon="11.185077614296896"><ele>114.0</ele><time>2026-04-24T12:54:40.001Z</time></trkpt><trkpt lat="43.88599381045246" lon="11.185149021571148"><ele>106.5</ele><time>2026-04-24T12:54:41.001Z</time></trkpt><trkpt lat="43.88570255845577" lon="11.185209126499066"><ele>99.0</ele><time>2026-04-24T12:54:42.001Z</time></trkpt><trkpt lat="43.885414632793925" lon="11.185252462724886"><ele>99.0</ele><time>2026-04-24T12:54:43.001Z</time></trkpt><trkpt lat="43.885122686096594" lon="11.185270399804873"><ele>99.0</ele><time>2026-04-24T12:54:44.001Z</time></trkpt><trkpt lat="43.884830237410085" lon="11.18527924033785"><ele>98.0</ele><time>2026-04-24T12:54:45.001Z</time></trkpt><trkpt lat="43.88453595899854" lon="11.185275564970464"><ele>97.0</ele><time>2026-04-24T12:54:46.001Z</time></trkpt><trkpt lat="43.88424186853048" lon="11.18526092218503"><ele>99.5</ele><time>2026-04-24T12:54:47.001Z</time></trkpt><trkpt lat="43.883946921208924" lon="11.185227101616226"><ele>102.0</ele><time>2026-04-24T12:54:48.001Z</time></trkpt><trkpt lat="43.8836529181633" lon="11.185178975457323"><ele>105.5</ele><time>2026-04-24T12:54:49.001Z</time></trkpt><trkpt lat="43.88336047563544" lon="11.185116534341617"><ele>109.0</ele><time>2026-04-24T12:54:50.001Z</time></trkpt><trkpt lat="43.883073540247445" lon="11.185040390344746"><ele>109.0</ele><time>2026-04-24T12:54:51.001Z</time></trkpt><trkpt lat="43.88278694089045" lon="11.184949967645071"><ele>109.0</ele><time>2026-04-24T12:54:52.001Z</time></trkpt><trkpt lat="43.8825026485605" lon="11.184843587296996"><ele>112.5</ele><time>2026-04-24T12:54:53.001Z</time></trkpt><trkpt lat="43.88222316018385" lon="11.184716852237749"><ele>116.0</ele><time>2026-04-24T12:54:54.001Z</time></trkpt><trkpt lat="43.881948193842895" lon="11.184574265266498"><ele>122.5</ele><time>2026-04-24T12:54:55.001Z</time></trkpt><trkpt lat="43.881672264036084" lon="11.184415230034265"><ele>129.0</ele><time>2026-04-24T12:54:56.001Z</time></trkpt><trkpt lat="43.88140058899378" lon="11.184249394142455"><ele>129.0</ele><time>2026-04-24T12:54:57.001Z</time></trkpt><trkpt lat="43.88113827614132" lon="11.184078364205783"><ele>129.0</ele><time>2026-04-24T12:54:58.001Z</time></trkpt><trkpt lat="43.88087322703277" lon="11.183904397677937"><ele>134.5</ele><time>2026-04-24T12:54:59.016Z</time></trkpt><trkpt lat="43.88061033430594" lon="11.18373531745909"><ele>140.0</ele><time>2026-04-24T12:55:00.015Z</time></trkpt><trkpt lat="43.88034790686364" lon="11.183562341542103"><ele>150.5</ele><time>2026-04-24T12:55:01.015Z</time></trkpt><trkpt lat="43.880087500148846" lon="11.183390282230969"><ele>161.0</ele><time>2026-04-24T12:55:02.016Z</time></trkpt><trkpt lat="43.87982880603877" lon="11.183215289271836"><ele>154.5</ele><time>2026-04-24T12:55:03.016Z</time></trkpt><trkpt lat="43.87957129090834" lon="11.183040738924712"><ele>148.0</ele><time>2026-04-24T12:55:04.015Z</time></trkpt><trkpt lat="43.86669448115291" lon="11.174895800660527"><ele>119.5</ele><time>2026-04-24T12:56:05.001Z</time></trkpt><trkpt lat="43.866449757545844" lon="11.175016831210753"><ele>91.0</ele><time>2026-04-24T12:56:06.001Z</time></trkpt><trkpt lat="43.86614262612399" lon="11.175202826741492"><ele>87.5</ele><time>2026-04-24T12:56:07.001Z</time></trkpt><trkpt lat="43.8659076194955" lon="11.175297885250588"><ele>84.0</ele><time>2026-04-24T12:56:08.001Z</time></trkpt><trkpt lat="43.86567400980688" lon="11.175410359925744"><ele>84.0</ele><time>2026-04-24T12:56:09.001Z</time></trkpt><trkpt lat="43.86544096404364" lon="11.175529746894187"><ele>84.0</ele><time>2026-04-24T12:56:10.001Z</time></trkpt><trkpt lat="43.86519594456006" lon="11.175645644944309"><ele>84.5</ele><time>2026-04-24T12:56:11.001Z</time></trkpt><trkpt lat="43.8649368264" lon="11.175763489216452"><ele>85.0</ele><time>2026-04-24T12:56:12.001Z</time></trkpt><trkpt lat="43.864663921332465" lon="11.17587725162789"><ele>85.0</ele><time>2026-04-24T12:56:13.001Z</time></trkpt><trkpt lat="43.864382499349574" lon="11.175988346529145"><ele>85.0</ele><time>2026-04-24T12:56:14.001Z</time></trkpt><trkpt lat="43.86409366919465" lon="11.176097862924424"><ele>83.5</ele><time>2026-04-24T12:56:15.001Z</time></trkpt><trkpt lat="43.86380555290017" lon="11.17621450183799"><ele>82.0</ele><time>2026-04-24T12:56:16.001Z</time></trkpt><trkpt lat="43.86352201038529" lon="11.176336832991161"><ele>80.5</ele><time>2026-04-24T12:56:17.001Z</time></trkpt><trkpt lat="43.86324550158836" lon="11.176458540914567"><ele>79.0</ele><time>2026-04-24T12:56:18.001Z</time></trkpt><trkpt lat="43.862980183598545" lon="11.176565280115788"><ele>79.0</ele><time>2026-04-24T12:56:19.001Z</time></trkpt><trkpt lat="43.86271728574131" lon="11.176664293326569"><ele>79.0</ele><time>2026-04-24T12:56:20.001Z</time></trkpt><trkpt lat="43.86244786152145" lon="11.176757512283535"><ele>78.5</ele><time>2026-04-24T12:56:21.001Z</time></trkpt><trkpt lat="43.862166754198796" lon="11.176852291869912"><ele>78.0</ele><time>2026-04-24T12:56:22.001Z</time></trkpt><trkpt lat="43.861877329272765" lon="11.176954585601617"><ele>78.5</ele><time>2026-04-24T12:56:23.001Z</time></trkpt><trkpt lat="43.86158488570833" lon="11.177056635929501"><ele>79.0</ele><time>2026-04-24T12:56:23.998Z</time></trkpt><trkpt lat="43.86129669502877" lon="11.177152098927149"><ele>79.0</ele><time>2026-04-24T12:56:24.998Z</time></trkpt><trkpt lat="43.86100500087991" lon="11.177236662278215"><ele>79.0</ele><time>2026-04-24T12:56:25.998Z</time></trkpt><trkpt lat="43.86071852768737" lon="11.177313380092261"><ele>79.5</ele><time>2026-04-24T12:56:26.998Z</time></trkpt><trkpt lat="43.860433651938564" lon="11.17737676983936"><ele>80.0</ele><time>2026-04-24T12:56:27.998Z</time></trkpt><trkpt lat="43.86014458910516" lon="11.177428925139692"><ele>79.0</ele><time>2026-04-24T12:56:28.998Z</time></trkpt><trkpt lat="43.85986170064066" lon="11.177464819866026"><ele>78.0</ele><time>2026-04-24T12:56:29.998Z</time></trkpt><trkpt lat="43.85957450875826" lon="11.177486344133905"><ele>78.0</ele><time>2026-04-24T12:56:30.998Z</time></trkpt><trkpt lat="43.85928598417907" lon="11.177493849358989"><ele>78.0</ele><time>2026-04-24T12:56:31.998Z</time></trkpt><trkpt lat="43.858993903371044" lon="11.177487020803682"><ele>77.5</ele><time>2026-04-24T12:56:32.998Z</time></trkpt><trkpt lat="43.85870271757893" lon="11.17746308949538"><ele>77.0</ele><time>2026-04-24T12:56:33.998Z</time></trkpt><trkpt lat="43.858414758551184" lon="11.177423175890684"><ele>77.0</ele><time>2026-04-24T12:56:34.998Z</time></trkpt><trkpt lat="43.85812694547304" lon="11.177369063381999"><ele>77.0</ele><time>2026-04-24T12:56:35.998Z</time></trkpt><trkpt lat="43.857840557724465" lon="11.17731108798437"><ele>75.5</ele><time>2026-04-24T12:56:36.998Z</time></trkpt><trkpt lat="43.85755031153472" lon="11.177221207362704"><ele>74.0</ele><time>2026-04-24T12:56:37.998Z</time></trkpt><trkpt lat="43.85727730686311" lon="11.177126211845895"><ele>74.0</ele><time>2026-04-24T12:56:38.998Z</time></trkpt><trkpt lat="43.85699519233608" lon="11.177019032774409"><ele>74.0</ele><time>2026-04-24T12:56:39.998Z</time></trkpt><trkpt lat="43.85672304945138" lon="11.176896244115719"><ele>73.0</ele><time>2026-04-24T12:56:40.999Z</time></trkpt><trkpt lat="43.856448868821516" lon="11.17675695715813"><ele>72.0</ele><time>2026-04-24T12:56:41.999Z</time></trkpt><trkpt lat="43.85618135894638" lon="11.17660626565996"><ele>71.0</ele><time>2026-04-24T12:56:42.999Z</time></trkpt><trkpt lat="43.855918576969394" lon="11.176443631302817"><ele>70.0</ele><time>2026-04-24T12:56:43.999Z</time></trkpt><trkpt lat="43.855660074046384" lon="11.176267813106296"><ele>70.0</ele><time>2026-04-24T12:56:44.999Z</time></trkpt><trkpt lat="43.85540226611726" lon="11.176082282617758"><ele>70.0</ele><time>2026-04-24T12:56:45.999Z</time></trkpt><trkpt lat="43.855146280507" lon="11.175884430028734"><ele>67.5</ele><time>2026-04-24T12:56:46.999Z</time></trkpt><trkpt lat="43.854896853395196" lon="11.175679767059057"><ele>65.0</ele><time>2026-04-24T12:56:47.999Z</time></trkpt><trkpt lat="43.854647319041874" lon="11.175467655553883"><ele>65.0</ele><time>2026-04-24T12:56:48.999Z</time></trkpt><trkpt lat="43.85440157664883" lon="11.17525973380709"><ele>65.0</ele><time>2026-04-24T12:56:49.999Z</time></trkpt><trkpt lat="43.85415490145284" lon="11.1750492410478"><ele>64.5</ele><time>2026-04-24T12:56:50.999Z</time></trkpt><trkpt lat="43.853909031871744" lon="11.174841215814627"><ele>64.0</ele><time>2026-04-24T12:56:51.999Z</time></trkpt><trkpt lat="43.853677700280166" lon="11.174639189450989"><ele>64.0</ele><time>2026-04-24T12:56:52.999Z</time></trkpt><trkpt lat="43.853455877319824" lon="11.174447021275846"><ele>64.0</ele><time>2026-04-24T12:56:53.999Z</time></trkpt><trkpt lat="43.85323688538662" lon="11.174267915063844"><ele>63.5</ele><time>2026-04-24T12:56:54.999Z</time></trkpt><trkpt lat="43.85301891095215" lon="11.17408434097919"><ele>63.0</ele><time>2026-04-24T12:56:55.999Z</time></trkpt><trkpt lat="43.85280520840135" lon="11.173907093323917"><ele>63.5</ele><time>2026-04-24T12:56:56.999Z</time></trkpt><trkpt lat="43.8525853218381" lon="11.173719052779003"><ele>64.0</ele><time>2026-04-24T12:56:57.999Z</time></trkpt><trkpt lat="43.8523535710724" lon="11.173548392974007"><ele>64.0</ele><time>2026-04-24T12:56:58.999Z</time></trkpt><trkpt lat="43.852103535701424" lon="11.173360366475723"><ele>64.0</ele><time>2026-04-24T12:56:59.999Z</time></trkpt><trkpt lat="43.851853293655296" lon="11.173154736402754"><ele>62.0</ele><time>2026-04-24T12:57:00.999Z</time></trkpt><trkpt lat="43.85160516838745" lon="11.172938402892795"><ele>60.0</ele><time>2026-04-24T12:57:01.999Z</time></trkpt><trkpt lat="43.85135603289159" lon="11.17272617116065"><ele>60.0</ele><time>2026-04-24T12:57:02.999Z</time></trkpt><trkpt lat="43.85110543679855" lon="11.172514279243366"><ele>60.0</ele><time>2026-04-24T12:57:03.999Z</time></trkpt><trkpt lat="43.85085877759551" lon="11.172302085299847"><ele>59.0</ele><time>2026-04-24T12:57:04.999Z</time></trkpt><trkpt lat="43.85061290591349" lon="11.172093384971795"><ele>58.0</ele><time>2026-04-24T12:57:05.999Z</time></trkpt><trkpt lat="43.85036977489287" lon="11.171881699406253"><ele>57.5</ele><time>2026-04-24T12:57:06.999Z</time></trkpt><trkpt lat="43.85012158266189" lon="11.171670335105803"><ele>57.0</ele><time>2026-04-24T12:57:07.999Z</time></trkpt><trkpt lat="43.84987312525942" lon="11.171458712010155"><ele>57.0</ele><time>2026-04-24T12:57:09Z</time></trkpt><trkpt lat="43.84962344812164" lon="11.171247502609281"><ele>57.0</ele><time>2026-04-24T12:57:10Z</time></trkpt><trkpt lat="43.84937574976962" lon="11.171036568980476"><ele>57.0</ele><time>2026-04-24T12:57:11Z</time></trkpt><trkpt lat="43.8491261230244" lon="11.17083674255024"><ele>57.0</ele><time>2026-04-24T12:57:12Z</time></trkpt><trkpt lat="43.848869978656296" lon="11.170635438429628"><ele>57.5</ele><time>2026-04-24T12:57:13Z</time></trkpt><trkpt lat="43.84861976558464" lon="11.170429809933328"><ele>58.0</ele><time>2026-04-24T12:57:14Z</time></trkpt><trkpt lat="43.848371067825255" lon="11.170218878713959"><ele>58.0</ele><time>2026-04-24T12:57:15Z</time></trkpt><trkpt lat="43.848123111972576" lon="11.170006775515308"><ele>58.0</ele><time>2026-04-24T12:57:16Z</time></trkpt><trkpt lat="43.84787530060879" lon="11.169795456365295"><ele>56.0</ele><time>2026-04-24T12:57:17Z</time></trkpt><trkpt lat="43.847623996054935" lon="11.169587532640865"><ele>54.0</ele><time>2026-04-24T12:57:18Z</time></trkpt><trkpt lat="43.84737239274894" lon="11.169372107233174"><ele>54.0</ele><time>2026-04-24T12:57:19Z</time></trkpt><trkpt lat="43.847122061616076" lon="11.169157302329031"><ele>54.0</ele><time>2026-04-24T12:57:20Z</time></trkpt><trkpt lat="43.84687148334585" lon="11.168941186934157"><ele>53.0</ele><time>2026-04-24T12:57:21Z</time></trkpt><trkpt lat="43.8466238190088" lon="11.168730214912575"><ele>52.0</ele><time>2026-04-24T12:57:22Z</time></trkpt><trkpt lat="43.84637345091706" lon="11.168518708415261"><ele>52.0</ele><time>2026-04-24T12:57:23Z</time></trkpt><trkpt lat="43.84612144168019" lon="11.168310625982429"><ele>52.0</ele><time>2026-04-24T12:57:24Z</time></trkpt><trkpt lat="43.8458691341883" lon="11.16809971081502"><ele>51.5</ele><time>2026-04-24T12:57:25Z</time></trkpt><trkpt lat="43.845617307003984" lon="11.16788855334586"><ele>51.0</ele><time>2026-04-24T12:57:26Z</time></trkpt><trkpt lat="43.84536840933934" lon="11.167675662791407"><ele>51.0</ele><time>2026-04-24T12:57:27Z</time></trkpt><trkpt lat="43.84512077099714" lon="11.167462886871292"><ele>51.0</ele><time>2026-04-24T12:57:28Z</time></trkpt><trkpt lat="43.84487173646269" lon="11.167249463931887"><ele>50.5</ele><time>2026-04-24T12:57:29Z</time></trkpt><trkpt lat="43.844623390394595" lon="11.167041263578986"><ele>50.0</ele><time>2026-04-24T12:57:30Z</time></trkpt><trkpt lat="43.844375012338254" lon="11.166832666679136"><ele>49.5</ele><time>2026-04-24T12:57:31Z</time></trkpt><trkpt lat="43.8441263469569" lon="11.166620879411582"><ele>49.0</ele><time>2026-04-24T12:57:32Z</time></trkpt><trkpt lat="43.84387792640008" lon="11.166408001540047"><ele>48.5</ele><time>2026-04-24T12:57:33Z</time></trkpt><trkpt lat="43.84362840942143" lon="11.166191381151561"><ele>48.0</ele><time>2026-04-24T12:57:34Z</time></trkpt><trkpt lat="43.843385000567814" lon="11.165973490404813"><ele>48.0</ele><time>2026-04-24T12:57:35Z</time></trkpt><trkpt lat="43.84314093035836" lon="11.165750659367525"><ele>48.0</ele><time>2026-04-24T12:57:36Z</time></trkpt><trkpt lat="43.842897096727306" lon="11.165530942735158"><ele>47.0</ele><time>2026-04-24T12:57:37Z</time></trkpt><trkpt lat="43.842649085124265" lon="11.165311928719635"><ele>46.0</ele><time>2026-04-24T12:57:38Z</time></trkpt><trkpt lat="43.84240389898608" lon="11.165100208081805"><ele>45.5</ele><time>2026-04-24T12:57:39Z</time></trkpt><trkpt lat="43.84215937150576" lon="11.164890997841763"><ele>45.0</ele><time>2026-04-24T12:57:40Z</time></trkpt><trkpt lat="43.84191183225345" lon="11.164679236147785"><ele>45.0</ele><time>2026-04-24T12:57:41Z</time></trkpt><trkpt lat="43.84166133164467" lon="11.164466654751248"><ele>45.0</ele><time>2026-04-24T12:57:42Z</time></trkpt><trkpt lat="43.84141191775415" lon="11.164256219818135"><ele>45.0</ele><time>2026-04-24T12:57:43Z</time></trkpt><trkpt lat="43.841161543490145" lon="11.164043610197385"><ele>45.0</ele><time>2026-04-24T12:57:44Z</time></trkpt><trkpt lat="43.840915458803885" lon="11.163831080663753"><ele>43.0</ele><time>2026-04-24T12:57:45Z</time></trkpt><trkpt lat="43.840666550780846" lon="11.163618027014836"><ele>41.0</ele><time>2026-04-24T12:57:46Z</time></trkpt><trkpt lat="43.84041860855334" lon="11.163408451180993"><ele>41.0</ele><time>2026-04-24T12:57:47Z</time></trkpt><trkpt lat="43.84017213499586" lon="11.163192184980508"><ele>41.0</ele><time>2026-04-24T12:57:48Z</time></trkpt><trkpt lat="43.83992202784282" lon="11.162985597126868"><ele>41.0</ele><time>2026-04-24T12:57:49Z</time></trkpt><trkpt lat="43.83967234073109" lon="11.162769737939906"><ele>41.0</ele><time>2026-04-24T12:57:50Z</time></trkpt><trkpt lat="43.83942230967657" lon="11.162560274028323"><ele>41.5</ele><time>2026-04-24T12:57:51Z</time></trkpt><trkpt lat="43.83917473380342" lon="11.162349820499932"><ele>42.0</ele><time>2026-04-24T12:57:52Z</time></trkpt><trkpt lat="43.83892386112378" lon="11.162136025951849"><ele>42.0</ele><time>2026-04-24T12:57:53Z</time></trkpt><trkpt lat="43.83867812029088" lon="11.161923202798752"><ele>42.0</ele><time>2026-04-24T12:57:54Z</time></trkpt><trkpt lat="43.8384298674284" lon="11.161709244183548"><ele>43.0</ele><time>2026-04-24T12:57:55Z</time></trkpt><trkpt lat="43.83817999413573" lon="11.161494739294863"><ele>44.0</ele><time>2026-04-24T12:57:56Z</time></trkpt><trkpt lat="43.83792965203315" lon="11.161277975131068"><ele>44.0</ele><time>2026-04-24T12:57:57Z</time></trkpt><trkpt lat="43.83768174905328" lon="11.1610620399873"><ele>44.0</ele><time>2026-04-24T12:57:58Z</time></trkpt><trkpt lat="43.837438424814984" lon="11.160848675693193"><ele>42.5</ele><time>2026-04-24T12:57:59Z</time></trkpt><trkpt lat="43.837186941546506" lon="11.160630197240565"><ele>41.0</ele><time>2026-04-24T12:58:00Z</time></trkpt><trkpt lat="43.83693827748418" lon="11.16041647977556"><ele>41.0</ele><time>2026-04-24T12:58:01Z</time></trkpt><trkpt lat="43.83669797225281" lon="11.160215942535999"><ele>41.0</ele><time>2026-04-24T12:58:02Z</time></trkpt><trkpt lat="43.8364580042524" lon="11.160010237207121"><ele>40.5</ele><time>2026-04-24T12:58:03Z</time></trkpt><trkpt lat="43.83622653906299" lon="11.159817866491805"><ele>40.0</ele><time>2026-04-24T12:58:04Z</time></trkpt><trkpt lat="43.83598761669841" lon="11.159617665941244"><ele>38.5</ele><time>2026-04-24T12:58:05Z</time></trkpt><trkpt lat="43.83575042042453" lon="11.15941528121344"><ele>37.0</ele><time>2026-04-24T12:58:06Z</time></trkpt><trkpt lat="43.835509393005196" lon="11.15921474979987"><ele>37.0</ele><time>2026-04-24T12:58:07Z</time></trkpt><trkpt lat="43.835266820181126" lon="11.159014576332712"><ele>37.0</ele><time>2026-04-24T12:58:08Z</time></trkpt><trkpt lat="43.83502295272408" lon="11.1588094939779"><ele>37.0</ele><time>2026-04-24T12:58:09Z</time></trkpt><trkpt lat="43.83477997458408" lon="11.158598513461527"><ele>37.0</ele><time>2026-04-24T12:58:10Z</time></trkpt><trkpt lat="43.83453927551033" lon="11.158388781833839"><ele>38.0</ele><time>2026-04-24T12:58:11Z</time></trkpt><trkpt lat="43.834299061976616" lon="11.15817960626885"><ele>39.0</ele><time>2026-04-24T12:58:12Z</time></trkpt><trkpt lat="43.8340584243767" lon="11.15797359228291"><ele>39.0</ele><time>2026-04-24T12:58:13Z</time></trkpt><trkpt lat="43.83381840349987" lon="11.157766398210265"><ele>39.0</ele><time>2026-04-24T12:58:14Z</time></trkpt><trkpt lat="43.83357486407288" lon="11.15756094717132"><ele>38.0</ele><time>2026-04-24T12:58:15Z</time></trkpt><trkpt lat="43.83332649837797" lon="11.157353812497924"><ele>37.0</ele><time>2026-04-24T12:58:16Z</time></trkpt><trkpt lat="43.83307766401844" lon="11.157145120963719"><ele>37.0</ele><time>2026-04-24T12:58:17Z</time></trkpt><trkpt lat="43.832830185670815" lon="11.156934865615717"><ele>37.0</ele><time>2026-04-24T12:58:18.001Z</time></trkpt><trkpt lat="43.832578859891996" lon="11.156719476485994"><ele>38.5</ele><time>2026-04-24T12:58:19.001Z</time></trkpt><trkpt lat="43.83232863587072" lon="11.156503357592007"><ele>40.0</ele><time>2026-04-24T12:58:20.001Z</time></trkpt><trkpt lat="43.83207868095834" lon="11.156287484837021"><ele>40.0</ele><time>2026-04-24T12:58:21.001Z</time></trkpt><trkpt lat="43.831840709310185" lon="11.156084330010886"><ele>40.0</ele><time>2026-04-24T12:58:22.001Z</time></trkpt><trkpt lat="43.83160820855943" lon="11.155885985560161"><ele>38.5</ele><time>2026-04-24T12:58:23.001Z</time></trkpt><trkpt lat="43.83138056571243" lon="11.155692118871768"><ele>37.0</ele><time>2026-04-24T12:58:24.001Z</time></trkpt><trkpt lat="43.83116129153735" lon="11.155504265064298"><ele>38.0</ele><time>2026-04-24T12:58:25.001Z</time></trkpt><trkpt lat="43.83094213331263" lon="11.155316706652426"><ele>39.0</ele><time>2026-04-24T12:58:26.001Z</time></trkpt><trkpt lat="43.83072939891403" lon="11.155131037928344"><ele>39.0</ele><time>2026-04-24T12:58:27.001Z</time></trkpt><trkpt lat="43.8305306362284" lon="11.154959360357472"><ele>39.0</ele><time>2026-04-24T12:58:28.001Z</time></trkpt><trkpt lat="43.83033153118086" lon="11.15478739274638"><ele>39.0</ele><time>2026-04-24T12:58:29.001Z</time></trkpt><trkpt lat="43.830125904032094" lon="11.154613746731227"><ele>39.0</ele><time>2026-04-24T12:58:29.998Z</time></trkpt><trkpt lat="43.829913300278854" lon="11.154432492551113"><ele>39.0</ele><time>2026-04-24T12:58:30.998Z</time></trkpt><trkpt lat="43.82970316204707" lon="11.154255030430825"><ele>39.0</ele><time>2026-04-24T12:58:31.998Z</time></trkpt><trkpt lat="43.82949570903458" lon="11.15407768587501"><ele>39.5</ele><time>2026-04-24T12:58:32.998Z</time></trkpt><trkpt lat="43.8292878698968" lon="11.153901507904838"><ele>40.0</ele><time>2026-04-24T12:58:33.998Z</time></trkpt><trkpt lat="43.82907744955247" lon="11.153723980235325"><ele>40.0</ele><time>2026-04-24T12:58:34.998Z</time></trkpt><trkpt lat="43.828862745008045" lon="11.153546707373375"><ele>40.0</ele><time>2026-04-24T12:58:35.998Z</time></trkpt><trkpt lat="43.828650077375634" lon="11.153373300057893"><ele>39.0</ele><time>2026-04-24T12:58:36.998Z</time></trkpt><trkpt lat="43.828428315523006" lon="11.153197230386874"><ele>38.0</ele><time>2026-04-24T12:58:37.998Z</time></trkpt><trkpt lat="43.82819835174279" lon="11.153024666840759"><ele>38.0</ele><time>2026-04-24T12:58:38.998Z</time></trkpt><trkpt lat="43.82795638338959" lon="11.152851102757596"><ele>38.0</ele><time>2026-04-24T12:58:39.998Z</time></trkpt><trkpt lat="43.82771798671315" lon="11.152683212008203"><ele>38.0</ele><time>2026-04-24T12:58:40.998Z</time></trkpt><trkpt lat="43.82747326997038" lon="11.15253015535281"><ele>38.0</ele><time>2026-04-24T12:58:41.998Z</time></trkpt><trkpt lat="43.827227553597325" lon="11.152382675196069"><ele>37.5</ele><time>2026-04-24T12:58:42.998Z</time></trkpt><trkpt lat="43.826980068509116" lon="11.152246101942664"><ele>37.0</ele><time>2026-04-24T12:58:43.998Z</time></trkpt><trkpt lat="43.82671949845646" lon="11.15211917333472"><ele>37.0</ele><time>2026-04-24T12:58:44.998Z</time></trkpt><trkpt lat="43.82646416057028" lon="11.152005152328119"><ele>37.0</ele><time>2026-04-24T12:58:45.998Z</time></trkpt><trkpt lat="43.82622245721019" lon="11.151908970695251"><ele>37.0</ele><time>2026-04-24T12:58:46.999Z</time></trkpt><trkpt lat="43.825989486918736" lon="11.151827389626385"><ele>37.0</ele><time>2026-04-24T12:58:47.999Z</time></trkpt><trkpt lat="43.8257623305814" lon="11.151756734280076"><ele>37.5</ele><time>2026-04-24T12:58:48.999Z</time></trkpt><trkpt lat="43.82553668960483" lon="11.151697945884846"><ele>38.0</ele><time>2026-04-24T12:58:49.999Z</time></trkpt><trkpt lat="43.82530352017843" lon="11.15164833193587"><ele>37.0</ele><time>2026-04-24T12:58:50.999Z</time></trkpt><trkpt lat="43.82506616902913" lon="11.151599721128072"><ele>36.0</ele><time>2026-04-24T12:58:51.999Z</time></trkpt><trkpt lat="43.82481963993167" lon="11.151560283636579"><ele>36.0</ele><time>2026-04-24T12:58:52.999Z</time></trkpt><trkpt lat="43.824566155693134" lon="11.15152599923207"><ele>36.0</ele><time>2026-04-24T12:58:53.999Z</time></trkpt><trkpt lat="43.824304009004116" lon="11.151500634519957"><ele>36.0</ele><time>2026-04-24T12:58:54.999Z</time></trkpt><trkpt lat="43.82403679329807" lon="11.151492614815297"><ele>36.0</ele><time>2026-04-24T12:58:55.999Z</time></trkpt><trkpt lat="43.82376023571231" lon="11.151491324487946"><ele>36.0</ele><time>2026-04-24T12:58:56.999Z</time></trkpt><trkpt lat="43.823485822494725" lon="11.151494960267312"><ele>36.0</ele><time>2026-04-24T12:58:57.999Z</time></trkpt><trkpt lat="43.823211360067134" lon="11.151493822956583"><ele>36.0</ele><time>2026-04-24T12:58:58.999Z</time></trkpt><trkpt lat="43.82293582745874" lon="11.151492172476237"><ele>36.0</ele><time>2026-04-24T12:58:59.999Z</time></trkpt><trkpt lat="43.822663081260146" lon="11.151491690072586"><ele>35.5</ele><time>2026-04-24T12:59:00.999Z</time></trkpt><trkpt lat="43.8223907240612" lon="11.151487782657322"><ele>35.0</ele><time>2026-04-24T12:59:01.999Z</time></trkpt><trkpt lat="43.8221200651692" lon="11.151483069173876"><ele>35.0</ele><time>2026-04-24T12:59:02.999Z</time></trkpt><trkpt lat="43.8218397840495" lon="11.151475820825333"><ele>35.0</ele><time>2026-04-24T12:59:03.999Z</time></trkpt><trkpt lat="43.82156001548508" lon="11.15147304074206"><ele>35.0</ele><time>2026-04-24T12:59:04.999Z</time></trkpt><trkpt lat="43.82127978659635" lon="11.151468865612593"><ele>35.0</ele><time>2026-04-24T12:59:05.999Z</time></trkpt><trkpt lat="43.821007169557355" lon="11.151469974347235"><ele>35.5</ele><time>2026-04-24T12:59:06.999Z</time></trkpt><trkpt lat="43.82073250128217" lon="11.151468589759723"><ele>36.0</ele><time>2026-04-24T12:59:08Z</time></trkpt><trkpt lat="43.82045267047486" lon="11.151465438599592"><ele>36.0</ele><time>2026-04-24T12:59:09Z</time></trkpt><trkpt lat="43.82017061683225" lon="11.15145920864436"><ele>36.0</ele><time>2026-04-24T12:59:10Z</time></trkpt><trkpt lat="43.81987696434513" lon="11.151448415508298"><ele>36.0</ele><time>2026-04-24T12:59:11Z</time></trkpt><trkpt lat="43.81957492868008" lon="11.151426877477368"><ele>36.0</ele><time>2026-04-24T12:59:12Z</time></trkpt><trkpt lat="43.819267559979785" lon="11.151404908347859"><ele>36.5</ele><time>2026-04-24T12:59:13Z</time></trkpt><trkpt lat="43.81894803037909" lon="11.151390748941568"><ele>37.0</ele><time>2026-04-24T12:59:14Z</time></trkpt><trkpt lat="43.81862765780014" lon="11.151384914424643"><ele>35.5</ele><time>2026-04-24T12:59:15Z</time></trkpt><trkpt lat="43.81830506582108" lon="11.151378701433398"><ele>34.0</ele><time>2026-04-24T12:59:16Z</time></trkpt><trkpt lat="43.81798066075292" lon="11.151378118317552"><ele>34.0</ele><time>2026-04-24T12:59:17Z</time></trkpt><trkpt lat="43.81766481882617" lon="11.151375632429177"><ele>34.0</ele><time>2026-04-24T12:59:18Z</time></trkpt><trkpt lat="43.81735625647824" lon="11.151383263743142"><ele>34.5</ele><time>2026-04-24T12:59:19Z</time></trkpt><trkpt lat="43.81704299082366" lon="11.151398376417973"><ele>35.0</ele><time>2026-04-24T12:59:20Z</time></trkpt><trkpt lat="43.816729853877135" lon="11.151408436710625"><ele>36.0</ele><time>2026-04-24T12:59:21Z</time></trkpt><trkpt lat="43.81642097532018" lon="11.1514050824531"><ele>37.0</ele><time>2026-04-24T12:59:22Z</time></trkpt><trkpt lat="43.816112843354055" lon="11.151393858737835"><ele>35.5</ele><time>2026-04-24T12:59:23Z</time></trkpt><trkpt lat="43.81580091661634" lon="11.151378775584744"><ele>34.0</ele><time>2026-04-24T12:59:24Z</time></trkpt><trkpt lat="43.815489850724646" lon="11.151356800934844"><ele>34.0</ele><time>2026-04-24T12:59:25Z</time></trkpt><trkpt lat="43.81517779199474" lon="11.151336118338852"><ele>34.0</ele><time>2026-04-24T12:59:26Z</time></trkpt><trkpt lat="43.81486985292328" lon="11.151323277610802"><ele>34.0</ele><time>2026-04-24T12:59:27Z</time></trkpt><trkpt lat="43.8145672118282" lon="11.151322441309494"><ele>34.0</ele><time>2026-04-24T12:59:28Z</time></trkpt><trkpt lat="43.81426423747401" lon="11.151327085284711"><ele>34.0</ele><time>2026-04-24T12:59:29Z</time></trkpt><trkpt lat="43.81396242147432" lon="11.151333571959253"><ele>34.0</ele><time>2026-04-24T12:59:30Z</time></trkpt><trkpt lat="43.813662356542416" lon="11.151350112981637"><ele>34.0</ele><time>2026-04-24T12:59:31Z</time></trkpt><trkpt lat="43.813362144834755" lon="11.151380649841306"><ele>34.0</ele><time>2026-04-24T12:59:32Z</time></trkpt><trkpt lat="43.81306287761331" lon="11.151420701721948"><ele>34.0</ele><time>2026-04-24T12:59:33Z</time></trkpt><trkpt lat="43.812758112342" lon="11.151461832969508"><ele>34.0</ele><time>2026-04-24T12:59:34Z</time></trkpt><trkpt lat="43.81245474817267" lon="11.151520798687208"><ele>34.5</ele><time>2026-04-24T12:59:35Z</time></trkpt><trkpt lat="43.81215505166277" lon="11.151586319494877"><ele>35.0</ele><time>2026-04-24T12:59:36Z</time></trkpt><trkpt lat="43.811854877220064" lon="11.15166119316841"><ele>34.5</ele><time>2026-04-24T12:59:37Z</time></trkpt><trkpt lat="43.8115497844489" lon="11.15174307371248"><ele>34.0</ele><time>2026-04-24T12:59:38Z</time></trkpt><trkpt lat="43.811244602420004" lon="11.15183561417243"><ele>34.0</ele><time>2026-04-24T12:59:39Z</time></trkpt><trkpt lat="43.81093763267781" lon="11.151927697898188"><ele>34.0</ele><time>2026-04-24T12:59:40Z</time></trkpt><trkpt lat="43.810629422592804" lon="11.152011594616297"><ele>34.0</ele><time>2026-04-24T12:59:41Z</time></trkpt><trkpt lat="43.81032294077274" lon="11.152089328471384"><ele>34.0</ele><time>2026-04-24T12:59:42Z</time></trkpt><trkpt lat="43.810019625130096" lon="11.152168229225"><ele>36.0</ele><time>2026-04-24T12:59:43Z</time></trkpt><trkpt lat="43.80971808322547" lon="11.152252309180986"><ele>38.0</ele><time>2026-04-24T12:59:44Z</time></trkpt><trkpt lat="43.8094202382718" lon="11.15233975961779"><ele>37.0</ele><time>2026-04-24T12:59:45Z</time></trkpt><trkpt lat="43.80912296806444" lon="11.152429867411715"><ele>36.0</ele><time>2026-04-24T12:59:46Z</time></trkpt><trkpt lat="43.80882805999158" lon="11.152526385898415"><ele>36.0</ele><time>2026-04-24T12:59:47Z</time></trkpt><trkpt lat="43.808530632757524" lon="11.15262440045391"><ele>36.0</ele><time>2026-04-24T12:59:48Z</time></trkpt><trkpt lat="43.80823287852968" lon="11.15272077866186"><ele>35.0</ele><time>2026-04-24T12:59:49Z</time></trkpt><trkpt lat="43.80793334004174" lon="11.152808644390639"><ele>34.0</ele><time>2026-04-24T12:59:50Z</time></trkpt><trkpt lat="43.807633046417706" lon="11.152886727829996"><ele>34.0</ele><time>2026-04-24T12:59:51Z</time></trkpt><trkpt lat="43.80735207215549" lon="11.15294994788124"><ele>34.0</ele><time>2026-04-24T12:59:52.001Z</time></trkpt><trkpt lat="43.80704102684501" lon="11.153048431216785"><ele>33.5</ele><time>2026-04-24T12:59:53.001Z</time></trkpt><trkpt lat="43.806745263525464" lon="11.153128479886316"><ele>33.0</ele><time>2026-04-24T12:59:54.001Z</time></trkpt><trkpt lat="43.806448259756024" lon="11.15320676387479"><ele>33.0</ele><time>2026-04-24T12:59:55.001Z</time></trkpt><trkpt lat="43.80614976002486" lon="11.153286940442044"><ele>33.0</ele><time>2026-04-24T12:59:56.001Z</time></trkpt><trkpt lat="43.80585077744451" lon="11.153364017272434"><ele>33.5</ele><time>2026-04-24T12:59:57.001Z</time></trkpt><trkpt lat="43.80554177828284" lon="11.1534376222454"><ele>34.0</ele><time>2026-04-24T12:59:58.001Z</time></trkpt><trkpt lat="43.80523340325469" lon="11.153510790549639"><ele>35.5</ele><time>2026-04-24T12:59:59.001Z</time></trkpt><trkpt lat="43.80493037687713" lon="11.153593388273585"><ele>37.0</ele><time>2026-04-24T13:00:00.001Z</time></trkpt><trkpt lat="43.80462867338089" lon="11.153681565868741"><ele>37.0</ele><time>2026-04-24T13:00:01.001Z</time></trkpt><trkpt lat="43.80433381228996" lon="11.153766507484619"><ele>37.0</ele><time>2026-04-24T13:00:02.001Z</time></trkpt><trkpt lat="43.804038830503075" lon="11.153849497895564"><ele>36.0</ele><time>2026-04-24T13:00:03.001Z</time></trkpt><trkpt lat="43.80375756969557" lon="11.153928587510755"><ele>35.0</ele><time>2026-04-24T13:00:04.001Z</time></trkpt><trkpt lat="43.803483246950485" lon="11.154007303901082"><ele>34.5</ele><time>2026-04-24T13:00:05.001Z</time></trkpt><trkpt lat="43.80320659049091" lon="11.154085921062103"><ele>34.0</ele><time>2026-04-24T13:00:06.001Z</time></trkpt><trkpt lat="43.80293048771678" lon="11.154159908543642"><ele>35.0</ele><time>2026-04-24T13:00:07.001Z</time></trkpt><trkpt lat="43.80265656201095" lon="11.15423170983402"><ele>36.0</ele><time>2026-04-24T13:00:08.001Z</time></trkpt><trkpt lat="43.80238390212696" lon="11.154312261867604"><ele>36.0</ele><time>2026-04-24T13:00:09.001Z</time></trkpt><trkpt lat="43.80211266439248" lon="11.154402198282872"><ele>36.0</ele><time>2026-04-24T13:00:10.001Z</time></trkpt><trkpt lat="43.80182552345642" lon="11.15451324832598"><ele>36.5</ele><time>2026-04-24T13:00:11.001Z</time></trkpt><trkpt lat="43.80152181842064" lon="11.154594577798408"><ele>37.0</ele><time>2026-04-24T13:00:12.001Z</time></trkpt><trkpt lat="43.801211882384266" lon="11.154683644894686"><ele>35.5</ele><time>2026-04-24T13:00:13.001Z</time></trkpt><trkpt lat="43.80089948870833" lon="11.154765706363227"><ele>34.0</ele><time>2026-04-24T13:00:14.001Z</time></trkpt><trkpt lat="43.800594911957056" lon="11.154842273899856"><ele>34.5</ele><time>2026-04-24T13:00:15.001Z</time></trkpt><trkpt lat="43.80029098350417" lon="11.154904933990121"><ele>35.0</ele><time>2026-04-24T13:00:16.001Z</time></trkpt><trkpt lat="43.79998421102162" lon="11.154976083905876"><ele>35.5</ele><time>2026-04-24T13:00:17.001Z</time></trkpt><trkpt lat="43.79967892313129" lon="11.155061205269062"><ele>36.0</ele><time>2026-04-24T13:00:18.001Z</time></trkpt><trkpt lat="43.799378041016546" lon="11.155150332332436"><ele>35.5</ele><time>2026-04-24T13:00:19.001Z</time></trkpt><trkpt lat="43.79907786107732" lon="11.15523329347795"><ele>35.0</ele><time>2026-04-24T13:00:20.001Z</time></trkpt><trkpt lat="43.79877548321398" lon="11.155317946899785"><ele>35.5</ele><time>2026-04-24T13:00:21.001Z</time></trkpt><trkpt lat="43.798476453860374" lon="11.155404642967662"><ele>36.0</ele><time>2026-04-24T13:00:22.001Z</time></trkpt><trkpt lat="43.79817408805604" lon="11.155488690122203"><ele>36.0</ele><time>2026-04-24T13:00:23.001Z</time></trkpt><trkpt lat="43.79787441568172" lon="11.155569970648822"><ele>36.0</ele><time>2026-04-24T13:00:24.001Z</time></trkpt><trkpt lat="43.79757253563048" lon="11.155651888763757"><ele>36.0</ele><time>2026-04-24T13:00:25.001Z</time></trkpt><trkpt lat="43.79727041940269" lon="11.155736573188362"><ele>36.0</ele><time>2026-04-24T13:00:26.001Z</time></trkpt><trkpt lat="43.79696865248493" lon="11.15582173993392"><ele>35.5</ele><time>2026-04-24T13:00:27.001Z</time></trkpt><trkpt lat="43.79666927992549" lon="11.155902547458211"><ele>35.0</ele><time>2026-04-24T13:00:28.001Z</time></trkpt><trkpt lat="43.796364052377655" lon="11.155984621153625"><ele>35.0</ele><time>2026-04-24T13:00:29.001Z</time></trkpt><trkpt lat="43.796064024092374" lon="11.156065187156553"><ele>35.0</ele><time>2026-04-24T13:00:30.001Z</time></trkpt><trkpt lat="43.79576255958708" lon="11.156149646741472"><ele>35.0</ele><time>2026-04-24T13:00:31.001Z</time></trkpt><trkpt lat="43.79546258620919" lon="11.156235535510833"><ele>35.0</ele><time>2026-04-24T13:00:32.001Z</time></trkpt><trkpt lat="43.79516287443019" lon="11.156319250513526"><ele>35.0</ele><time>2026-04-24T13:00:33.001Z</time></trkpt><trkpt lat="43.79486680677141" lon="11.156400515630935"><ele>35.0</ele><time>2026-04-24T13:00:34.001Z</time></trkpt><trkpt lat="43.79457027871704" lon="11.156483685292677"><ele>35.5</ele><time>2026-04-24T13:00:35.001Z</time></trkpt><trkpt lat="43.79427823898124" lon="11.15656374342261"><ele>36.0</ele><time>2026-04-24T13:00:35.999Z</time></trkpt><trkpt lat="43.7939876670537" lon="11.156643059541544"><ele>36.0</ele><time>2026-04-24T13:00:36.999Z</time></trkpt><trkpt lat="43.793698213823355" lon="11.156723159740444"><ele>36.0</ele><time>2026-04-24T13:00:37.999Z</time></trkpt><trkpt lat="43.79340790311079" lon="11.156805934648503"><ele>37.5</ele><time>2026-04-24T13:00:38.999Z</time></trkpt><trkpt lat="43.79311945466099" lon="11.156889269117839"><ele>39.0</ele><time>2026-04-24T13:00:39.999Z</time></trkpt><trkpt lat="43.79283577131283" lon="11.1569711734754"><ele>37.5</ele><time>2026-04-24T13:00:40.999Z</time></trkpt><trkpt lat="43.792552606553436" lon="11.157051891316492"><ele>36.0</ele><time>2026-04-24T13:00:41.999Z</time></trkpt><trkpt lat="43.792274368273574" lon="11.15713219225661"><ele>36.0</ele><time>2026-04-24T13:00:42.999Z</time></trkpt><trkpt lat="43.79199752586564" lon="11.157208269860885"><ele>36.0</ele><time>2026-04-24T13:00:43.999Z</time></trkpt><trkpt lat="43.79172268842059" lon="11.157285987616861"><ele>36.0</ele><time>2026-04-24T13:00:44.999Z</time></trkpt><trkpt lat="43.79144239364063" lon="11.157361524470414"><ele>36.0</ele><time>2026-04-24T13:00:45.999Z</time></trkpt><trkpt lat="43.791163635603546" lon="11.15744064919734"><ele>36.5</ele><time>2026-04-24T13:00:46.999Z</time></trkpt><trkpt lat="43.79088003343109" lon="11.157520601891154"><ele>37.0</ele><time>2026-04-24T13:00:47.999Z</time></trkpt><trkpt lat="43.790593658168156" lon="11.157600044546687"><ele>37.0</ele><time>2026-04-24T13:00:48.999Z</time></trkpt><trkpt lat="43.79030689101863" lon="11.157678526697776"><ele>37.0</ele><time>2026-04-24T13:00:49.999Z</time></trkpt><trkpt lat="43.79002123105274" lon="11.157756676158153"><ele>37.0</ele><time>2026-04-24T13:00:50.999Z</time></trkpt><trkpt lat="43.789737340252024" lon="11.157837170278599"><ele>37.0</ele><time>2026-04-24T13:00:51.999Z</time></trkpt><trkpt lat="43.78945527138972" lon="11.157916973761813"><ele>36.5</ele><time>2026-04-24T13:00:52.999Z</time></trkpt><trkpt lat="43.78917436060769" lon="11.157994940050228"><ele>36.0</ele><time>2026-04-24T13:00:53.999Z</time></trkpt><trkpt lat="43.788898227544934" lon="11.158071482731351"><ele>36.0</ele><time>2026-04-24T13:00:54.999Z</time></trkpt><trkpt lat="43.788617089275085" lon="11.158151706187683"><ele>36.0</ele><time>2026-04-24T13:00:56Z</time></trkpt><trkpt lat="43.78833302392885" lon="11.158234245014059"><ele>37.5</ele><time>2026-04-24T13:00:57Z</time></trkpt><trkpt lat="43.78804848817071" lon="11.158316638937425"><ele>39.0</ele><time>2026-04-24T13:00:58Z</time></trkpt><trkpt lat="43.78776351252883" lon="11.158399925944506"><ele>38.5</ele><time>2026-04-24T13:00:59Z</time></trkpt><trkpt lat="43.7874742388805" lon="11.15848060494918"><ele>38.0</ele><time>2026-04-24T13:01:00Z</time></trkpt><trkpt lat="43.787190575492694" lon="11.158562811796033"><ele>38.0</ele><time>2026-04-24T13:01:01Z</time></trkpt><trkpt lat="43.7869076152761" lon="11.15864526258082"><ele>38.0</ele><time>2026-04-24T13:01:02Z</time></trkpt><trkpt lat="43.78662248481675" lon="11.158721341874035"><ele>37.0</ele><time>2026-04-24T13:01:03Z</time></trkpt><trkpt lat="43.786335893443656" lon="11.158794242332707"><ele>36.0</ele><time>2026-04-24T13:01:04Z</time></trkpt><trkpt lat="43.78604795364238" lon="11.15886908481189"><ele>36.5</ele><time>2026-04-24T13:01:05Z</time></trkpt><trkpt lat="43.785764955319834" lon="11.158949387775799"><ele>37.0</ele><time>2026-04-24T13:01:06Z</time></trkpt><trkpt lat="43.785478864353514" lon="11.159030755788626"><ele>37.5</ele><time>2026-04-24T13:01:07Z</time></trkpt><trkpt lat="43.78518912128637" lon="11.159112951189167"><ele>38.0</ele><time>2026-04-24T13:01:08Z</time></trkpt><trkpt lat="43.78490015632531" lon="11.159192826814783"><ele>38.0</ele><time>2026-04-24T13:01:09Z</time></trkpt><trkpt lat="43.78460887651527" lon="11.159270994282519"><ele>38.0</ele><time>2026-04-24T13:01:10Z</time></trkpt><trkpt lat="43.78432463737349" lon="11.159349783760247"><ele>37.5</ele><time>2026-04-24T13:01:11Z</time></trkpt><trkpt lat="43.784039943273825" lon="11.159430451519334"><ele>37.0</ele><time>2026-04-24T13:01:12Z</time></trkpt><trkpt lat="43.783755993522725" lon="11.159513741125707"><ele>37.0</ele><time>2026-04-24T13:01:13Z</time></trkpt><trkpt lat="43.783474105419565" lon="11.15959838833596"><ele>37.0</ele><time>2026-04-24T13:01:14Z</time></trkpt><trkpt lat="43.78318825022504" lon="11.159678901602565"><ele>37.0</ele><time>2026-04-24T13:01:15Z</time></trkpt><trkpt lat="43.78290340587522" lon="11.159759022490352"><ele>37.0</ele><time>2026-04-24T13:01:16Z</time></trkpt><trkpt lat="43.78261704962649" lon="11.159836815005821"><ele>36.0</ele><time>2026-04-24T13:01:17Z</time></trkpt><trkpt lat="43.7823310221939" lon="11.159913695078467"><ele>35.0</ele><time>2026-04-24T13:01:18Z</time></trkpt><trkpt lat="43.78204140268557" lon="11.159989688843549"><ele>34.5</ele><time>2026-04-24T13:01:19Z</time></trkpt><trkpt lat="43.781755011671514" lon="11.160069962573816"><ele>34.0</ele><time>2026-04-24T13:01:20Z</time></trkpt><trkpt lat="43.78147750918757" lon="11.160150646463643"><ele>34.0</ele><time>2026-04-24T13:01:21Z</time></trkpt><trkpt lat="43.781214978881316" lon="11.16022284840365"><ele>34.0</ele><time>2026-04-24T13:01:22Z</time></trkpt><trkpt lat="43.7809489373268" lon="11.160300769833254"><ele>35.0</ele><time>2026-04-24T13:01:23Z</time></trkpt><trkpt lat="43.780677966316425" lon="11.160383953734861"><ele>36.0</ele><time>2026-04-24T13:01:24Z</time></trkpt><trkpt lat="43.780398982939786" lon="11.160466373162956"><ele>35.0</ele><time>2026-04-24T13:01:25Z</time></trkpt><trkpt lat="43.780116119665294" lon="11.160545278956862"><ele>34.0</ele><time>2026-04-24T13:01:26Z</time></trkpt><trkpt lat="43.779829781648495" lon="11.160623827581391"><ele>35.0</ele><time>2026-04-24T13:01:27Z</time></trkpt><trkpt lat="43.779543301346585" lon="11.16070385110033"><ele>36.0</ele><time>2026-04-24T13:01:28Z</time></trkpt><trkpt lat="43.77926138761054" lon="11.16078148957571"><ele>36.5</ele><time>2026-04-24T13:01:29Z</time></trkpt><trkpt lat="43.77898985968974" lon="11.16085506437807"><ele>37.0</ele><time>2026-04-24T13:01:30Z</time></trkpt><trkpt lat="43.77872234397771" lon="11.160926909706095"><ele>36.0</ele><time>2026-04-24T13:01:31Z</time></trkpt><trkpt lat="43.77845205886245" lon="11.161001177018179"><ele>35.0</ele><time>2026-04-24T13:01:32.001Z</time></trkpt><trkpt lat="43.77818494598834" lon="11.161076347795797"><ele>35.0</ele><time>2026-04-24T13:01:33.001Z</time></trkpt><trkpt lat="43.77791432534724" lon="11.161154279978161"><ele>35.0</ele><time>2026-04-24T13:01:34.001Z</time></trkpt><trkpt lat="43.77763849308615" lon="11.161242754338524"><ele>34.5</ele><time>2026-04-24T13:01:35.001Z</time></trkpt><trkpt lat="43.77736635389375" lon="11.161313800045992"><ele>34.0</ele><time>2026-04-24T13:01:36.001Z</time></trkpt><trkpt lat="43.777092496838975" lon="11.161387353140475"><ele>35.0</ele><time>2026-04-24T13:01:37.001Z</time></trkpt><trkpt lat="43.77682145334209" lon="11.161461433761428"><ele>36.0</ele><time>2026-04-24T13:01:38.001Z</time></trkpt><trkpt lat="43.77654890357782" lon="11.161530188792423"><ele>36.5</ele><time>2026-04-24T13:01:39.001Z</time></trkpt><trkpt lat="43.77628300306788" lon="11.161599743369784"><ele>37.0</ele><time>2026-04-24T13:01:40.001Z</time></trkpt><trkpt lat="43.77602599765332" lon="11.161670760276293"><ele>35.5</ele><time>2026-04-24T13:01:41.001Z</time></trkpt><trkpt lat="43.775764792447404" lon="11.161744585748863"><ele>34.0</ele><time>2026-04-24T13:01:42.001Z</time></trkpt><trkpt lat="43.77550102657673" lon="11.161819424907483"><ele>34.0</ele><time>2026-04-24T13:01:43.001Z</time></trkpt><trkpt lat="43.77523513160934" lon="11.161896680927464"><ele>34.0</ele><time>2026-04-24T13:01:44.001Z</time></trkpt><trkpt lat="43.77496824953972" lon="11.161974710547353"><ele>34.5</ele><time>2026-04-24T13:01:45.001Z</time></trkpt><trkpt lat="43.77470098076917" lon="11.162053889841063"><ele>35.0</ele><time>2026-04-24T13:01:46.001Z</time></trkpt><trkpt lat="43.77443121292113" lon="11.162129325572034"><ele>34.5</ele><time>2026-04-24T13:01:47.001Z</time></trkpt><trkpt lat="43.774157078672616" lon="11.162213432004116"><ele>34.0</ele><time>2026-04-24T13:01:48.001Z</time></trkpt><trkpt lat="43.773872698342466" lon="11.162312506183472"><ele>33.5</ele><time>2026-04-24T13:01:49.001Z</time></trkpt><trkpt lat="43.77358709800977" lon="11.162417742118333"><ele>33.0</ele><time>2026-04-24T13:01:50.001Z</time></trkpt><trkpt lat="43.77329351842968" lon="11.16251513438915"><ele>34.0</ele><time>2026-04-24T13:01:51.001Z</time></trkpt><trkpt lat="43.77300219131286" lon="11.162613345804582"><ele>35.0</ele><time>2026-04-24T13:01:52.001Z</time></trkpt><trkpt lat="43.77270941996825" lon="11.162717001071119"><ele>35.0</ele><time>2026-04-24T13:01:53.001Z</time></trkpt><trkpt lat="43.77241660730723" lon="11.162831105198473"><ele>35.0</ele><time>2026-04-24T13:01:54.001Z</time></trkpt><trkpt lat="43.772122037164465" lon="11.162953963613514"><ele>35.5</ele><time>2026-04-24T13:01:55.001Z</time></trkpt><trkpt lat="43.77182749125951" lon="11.163089077776204"><ele>36.0</ele><time>2026-04-24T13:01:56.001Z</time></trkpt><trkpt lat="43.77153511697138" lon="11.163235134429534"><ele>36.0</ele><time>2026-04-24T13:01:57.001Z</time></trkpt><trkpt lat="43.7712468758922" lon="11.163391473864143"><ele>36.0</ele><time>2026-04-24T13:01:58.001Z</time></trkpt><trkpt lat="43.77096126524097" lon="11.16355003941912"><ele>36.0</ele><time>2026-04-24T13:01:59.001Z</time></trkpt><trkpt lat="43.770681848853556" lon="11.16371560394628"><ele>36.0</ele><time>2026-04-24T13:02:00.001Z</time></trkpt><trkpt lat="43.77040514548904" lon="11.163892356581249"><ele>36.5</ele><time>2026-04-24T13:02:01.001Z</time></trkpt><trkpt lat="43.77013065974413" lon="11.164075463395394"><ele>37.0</ele><time>2026-04-24T13:02:02.001Z</time></trkpt><trkpt lat="43.769856156600994" lon="11.16425914483621"><ele>37.0</ele><time>2026-04-24T13:02:03.001Z</time></trkpt><trkpt lat="43.769586057690965" lon="11.164448257870218"><ele>37.0</ele><time>2026-04-24T13:02:04.001Z</time></trkpt><trkpt lat="43.76931302471248" lon="11.164635702254955"><ele>38.5</ele><time>2026-04-24T13:02:05.001Z</time></trkpt><trkpt lat="43.76903846124396" lon="11.164824546864299"><ele>40.0</ele><time>2026-04-24T13:02:06.001Z</time></trkpt><trkpt lat="43.76876697727185" lon="11.165010480177038"><ele>39.0</ele><time>2026-04-24T13:02:07.001Z</time></trkpt><trkpt lat="43.768494805516156" lon="11.165201838211319"><ele>38.0</ele><time>2026-04-24T13:02:08.001Z</time></trkpt><trkpt lat="43.76822646750643" lon="11.165398384240708"><ele>38.0</ele><time>2026-04-24T13:02:09.001Z</time></trkpt><trkpt lat="43.767954693877584" lon="11.165595656736606"><ele>38.0</ele><time>2026-04-24T13:02:10.001Z</time></trkpt><trkpt lat="43.76768769019919" lon="11.165788851058636"><ele>37.5</ele><time>2026-04-24T13:02:11.001Z</time></trkpt><trkpt lat="43.767419924382" lon="11.165984717165509"><ele>37.0</ele><time>2026-04-24T13:02:12.001Z</time></trkpt><trkpt lat="43.76715030899523" lon="11.16618562824961"><ele>37.0</ele><time>2026-04-24T13:02:13.001Z</time></trkpt><trkpt lat="43.76688335500264" lon="11.166384834825637"><ele>37.0</ele><time>2026-04-24T13:02:14.001Z</time></trkpt><trkpt lat="43.766607669067895" lon="11.166585934775233"><ele>37.0</ele><time>2026-04-24T13:02:15.001Z</time></trkpt><trkpt lat="43.76633741059611" lon="11.166778689128849"><ele>37.0</ele><time>2026-04-24T13:02:16.001Z</time></trkpt><trkpt lat="43.76607094603266" lon="11.166978274364334"><ele>37.5</ele><time>2026-04-24T13:02:17.002Z</time></trkpt><trkpt lat="43.76581112980218" lon="11.167179144196258"><ele>38.0</ele><time>2026-04-24T13:02:18.002Z</time></trkpt><trkpt lat="43.76555746858359" lon="11.167377265628444"><ele>38.0</ele><time>2026-04-24T13:02:19.002Z</time></trkpt><trkpt lat="43.7652964370008" lon="11.16757921480382"><ele>38.0</ele><time>2026-04-24T13:02:20.02Z</time></trkpt><trkpt lat="43.765030303309864" lon="11.167777644527742"><ele>37.5</ele><time>2026-04-24T13:02:21.014Z</time></trkpt><trkpt lat="43.76476308257594" lon="11.167977423548484"><ele>37.0</ele><time>2026-04-24T13:02:22.018Z</time></trkpt><trkpt lat="43.76450937456541" lon="11.168175977934638"><ele>38.0</ele><time>2026-04-24T13:02:23.008Z</time></trkpt><trkpt lat="43.76425426608117" lon="11.168379305298322"><ele>39.0</ele><time>2026-04-24T13:02:24.013Z</time></trkpt><trkpt lat="43.76398482667979" lon="11.16854872172666"><ele>42.0</ele><time>2026-04-24T13:02:25.023Z</time></trkpt><trkpt lat="43.76249501951389" lon="11.169118070985348"><ele>42.0</ele><time>2026-04-24T13:02:30.002Z</time></trkpt><trkpt lat="43.76221852822316" lon="11.169246701840862"><ele>42.0</ele><time>2026-04-24T13:02:31.002Z</time></trkpt><trkpt lat="43.76192614649504" lon="11.169376384464833"><ele>41.0</ele><time>2026-04-24T13:02:32.002Z</time></trkpt><trkpt lat="43.76164183860196" lon="11.169479934393891"><ele>40.0</ele><time>2026-04-24T13:02:33.002Z</time></trkpt><trkpt lat="43.76135133047392" lon="11.169559277536557"><ele>40.0</ele><time>2026-04-24T13:02:34.002Z</time></trkpt><trkpt lat="43.761056848347714" lon="11.169627708096536"><ele>40.0</ele><time>2026-04-24T13:02:35.002Z</time></trkpt><trkpt lat="43.76074391678126" lon="11.169711812751668"><ele>40.0</ele><time>2026-04-24T13:02:36.002Z</time></trkpt><trkpt lat="43.76045292210952" lon="11.169769235377506"><ele>40.0</ele><time>2026-04-24T13:02:37.002Z</time></trkpt><trkpt lat="43.76015669984807" lon="11.169812184947725"><ele>40.0</ele><time>2026-04-24T13:02:38.002Z</time></trkpt><trkpt lat="43.759856253078496" lon="11.169874529989555"><ele>40.0</ele><time>2026-04-24T13:02:39.002Z</time></trkpt><trkpt lat="43.75956053105236" lon="11.169932940857985"><ele>41.0</ele><time>2026-04-24T13:02:40.002Z</time></trkpt><trkpt lat="43.75926504955127" lon="11.169988597456507"><ele>42.0</ele><time>2026-04-24T13:02:41.002Z</time></trkpt><trkpt lat="43.758963274153324" lon="11.170043154347708"><ele>42.0</ele><time>2026-04-24T13:02:42Z</time></trkpt><trkpt lat="43.75866699317237" lon="11.170099697036072"><ele>42.0</ele><time>2026-04-24T13:02:43Z</time></trkpt><trkpt lat="43.75837027571756" lon="11.170157658275595"><ele>41.5</ele><time>2026-04-24T13:02:44Z</time></trkpt><trkpt lat="43.75807163055469" lon="11.170209898523835"><ele>41.0</ele><time>2026-04-24T13:02:45Z</time></trkpt><trkpt lat="43.75777190394466" lon="11.170264906151994"><ele>41.0</ele><time>2026-04-24T13:02:46Z</time></trkpt><trkpt lat="43.7574726004404" lon="11.170319663199477"><ele>41.0</ele><time>2026-04-24T13:02:47Z</time></trkpt><trkpt lat="43.757177324203944" lon="11.170372165917323"><ele>41.0</ele><time>2026-04-24T13:02:48Z</time></trkpt><trkpt lat="43.75687942947536" lon="11.170425238933772"><ele>41.0</ele><time>2026-04-24T13:02:49Z</time></trkpt><trkpt lat="43.75658036776141" lon="11.170481882120807"><ele>42.0</ele><time>2026-04-24T13:02:50Z</time></trkpt><trkpt lat="43.75628366456556" lon="11.170539497948873"><ele>43.0</ele><time>2026-04-24T13:02:51Z</time></trkpt><trkpt lat="43.75598646359322" lon="11.17059841722563"><ele>43.5</ele><time>2026-04-24T13:02:52Z</time></trkpt><trkpt lat="43.755676102661916" lon="11.170650489173347"><ele>44.0</ele><time>2026-04-24T13:02:53Z</time></trkpt><trkpt lat="43.755386080646225" lon="11.170705000761025"><ele>43.5</ele><time>2026-04-24T13:02:54Z</time></trkpt><trkpt lat="43.7550892056846" lon="11.170754467953932"><ele>43.0</ele><time>2026-04-24T13:02:55Z</time></trkpt><trkpt lat="43.75479310596719" lon="11.170804396610885"><ele>43.0</ele><time>2026-04-24T13:02:56Z</time></trkpt><trkpt lat="43.7544962579421" lon="11.170857443818125"><ele>43.0</ele><time>2026-04-24T13:02:57Z</time></trkpt><trkpt lat="43.754200559784145" lon="11.17091079145492"><ele>43.5</ele><time>2026-04-24T13:02:58Z</time></trkpt><trkpt lat="43.75390212378388" lon="11.170959637530869"><ele>44.0</ele><time>2026-04-24T13:02:59Z</time></trkpt><trkpt lat="43.75361162417459" lon="11.171006546404929"><ele>45.0</ele><time>2026-04-24T13:03:00Z</time></trkpt><trkpt lat="43.75334279205738" lon="11.171049591684323"><ele>46.0</ele><time>2026-04-24T13:03:01Z</time></trkpt><trkpt lat="43.75307658283956" lon="11.17109427628498"><ele>46.0</ele><time>2026-04-24T13:03:02Z</time></trkpt><trkpt lat="43.75280585227523" lon="11.171142356976656"><ele>46.0</ele><time>2026-04-24T13:03:03Z</time></trkpt><trkpt lat="43.75253644516657" lon="11.171189190923858"><ele>45.5</ele><time>2026-04-24T13:03:04Z</time></trkpt><trkpt lat="43.75226688919209" lon="11.17123632600396"><ele>45.0</ele><time>2026-04-24T13:03:05Z</time></trkpt><trkpt lat="43.75199863533203" lon="11.171286374372436"><ele>45.0</ele><time>2026-04-24T13:03:06Z</time></trkpt><trkpt lat="43.75173217615029" lon="11.171334460724939"><ele>45.0</ele><time>2026-04-24T13:03:07Z</time></trkpt><trkpt lat="43.751466718118664" lon="11.171383932206096"><ele>45.0</ele><time>2026-04-24T13:03:08Z</time></trkpt><trkpt lat="43.75120680392547" lon="11.17143242323779"><ele>45.0</ele><time>2026-04-24T13:03:09Z</time></trkpt><trkpt lat="43.7509516778239" lon="11.171481651790325"><ele>46.0</ele><time>2026-04-24T13:03:10Z</time></trkpt><trkpt lat="43.75070068352755" lon="11.171530187256852"><ele>47.0</ele><time>2026-04-24T13:03:11Z</time></trkpt><trkpt lat="43.75045753465309" lon="11.171573394333778"><ele>47.0</ele><time>2026-04-24T13:03:12.001Z</time></trkpt><trkpt lat="43.75022851092434" lon="11.171616043493977"><ele>47.0</ele><time>2026-04-24T13:03:13.001Z</time></trkpt><trkpt lat="43.75001101644742" lon="11.171658189013248"><ele>47.0</ele><time>2026-04-24T13:03:14.001Z</time></trkpt><trkpt lat="43.74979684277267" lon="11.171696934797874"><ele>47.0</ele><time>2026-04-24T13:03:15.001Z</time></trkpt><trkpt lat="43.74958533315871" lon="11.171734597085848"><ele>47.0</ele><time>2026-04-24T13:03:16.001Z</time></trkpt><trkpt lat="43.74938179826752" lon="11.171772883644303"><ele>47.666666666666664</ele><time>2026-04-24T13:03:17.001Z</time></trkpt><trkpt lat="43.74917856645727" lon="11.171816731179574"><ele>48.33333333333333</ele><time>2026-04-24T13:03:18.001Z</time></trkpt><trkpt lat="43.74896922899548" lon="11.171859282516342"><ele>49.0</ele><time>2026-04-24T13:03:19.001Z</time></trkpt><trkpt lat="43.74874343613521" lon="11.171908033795042"><ele>49.0</ele><time>2026-04-24T13:03:20.001Z</time></trkpt><trkpt lat="43.74850303663214" lon="11.171965070074243"><ele>49.0</ele><time>2026-04-24T13:03:21.001Z</time></trkpt><trkpt lat="43.74825719778866" lon="11.172026673708487"><ele>49.0</ele><time>2026-04-24T13:03:22.001Z</time></trkpt><trkpt lat="43.74800373726194" lon="11.172096873556061"><ele>49.0</ele><time>2026-04-24T13:03:23.001Z</time></trkpt><trkpt lat="43.74774688158679" lon="11.172186900654248"><ele>49.0</ele><time>2026-04-24T13:03:24.001Z</time></trkpt><trkpt lat="43.74750385183462" lon="11.172295571066536"><ele>49.0</ele><time>2026-04-24T13:03:25.001Z</time></trkpt><trkpt lat="43.74726909456306" lon="11.172428947721254"><ele>49.0</ele><time>2026-04-24T13:03:26.001Z</time></trkpt><trkpt lat="43.74703885771109" lon="11.172579383656567"><ele>49.0</ele><time>2026-04-24T13:03:27.001Z</time></trkpt><trkpt lat="43.74680484197304" lon="11.172756388304556"><ele>50.5</ele><time>2026-04-24T13:03:28.001Z</time></trkpt><trkpt lat="43.74658619388071" lon="11.172951301493166"><ele>52.0</ele><time>2026-04-24T13:03:29.001Z</time></trkpt><trkpt lat="43.746354988987314" lon="11.173163107005076"><ele>52.0</ele><time>2026-04-24T13:03:30.001Z</time></trkpt><trkpt lat="43.74613552459609" lon="11.173401670530207"><ele>52.0</ele><time>2026-04-24T13:03:31.001Z</time></trkpt><trkpt lat="43.745925041535834" lon="11.173653579874147"><ele>53.0</ele><time>2026-04-24T13:03:32.001Z</time></trkpt><trkpt lat="43.745730310087005" lon="11.173933480553323"><ele>54.0</ele><time>2026-04-24T13:03:33.001Z</time></trkpt><trkpt lat="43.74555470849767" lon="11.174239653059821"><ele>54.0</ele><time>2026-04-24T13:03:34.001Z</time></trkpt><trkpt lat="43.74540000483918" lon="11.174571217172382"><ele>54.0</ele><time>2026-04-24T13:03:35.001Z</time></trkpt><trkpt lat="43.745251608559556" lon="11.174924202071544"><ele>53.5</ele><time>2026-04-24T13:03:36.001Z</time></trkpt><trkpt lat="43.74509994755894" lon="11.175272368416055"><ele>53.0</ele><time>2026-04-24T13:03:37.001Z</time></trkpt><trkpt lat="43.7449667347192" lon="11.175630103132114"><ele>53.5</ele><time>2026-04-24T13:03:38.001Z</time></trkpt><trkpt lat="43.7448467973375" lon="11.176018509738462"><ele>54.0</ele><time>2026-04-24T13:03:39.001Z</time></trkpt><trkpt lat="43.74473800394172" lon="11.176403851096772"><ele>56.5</ele><time>2026-04-24T13:03:40.001Z</time></trkpt><trkpt lat="43.74463375390128" lon="11.176769076820367"><ele>59.0</ele><time>2026-04-24T13:03:41.001Z</time></trkpt><trkpt lat="43.744526690976635" lon="11.177137401227188"><ele>58.5</ele><time>2026-04-24T13:03:42.001Z</time></trkpt><trkpt lat="43.74441973983032" lon="11.177512617747697"><ele>58.0</ele><time>2026-04-24T13:03:43.001Z</time></trkpt><trkpt lat="43.74430372167313" lon="11.17787446918315"><ele>59.5</ele><time>2026-04-24T13:03:44.001Z</time></trkpt><trkpt lat="43.744165694868215" lon="11.178262437890197"><ele>61.0</ele><time>2026-04-24T13:03:45.001Z</time></trkpt><trkpt lat="43.74402420762366" lon="11.178613739841552"><ele>61.0</ele><time>2026-04-24T13:03:46.001Z</time></trkpt><trkpt lat="43.74388163352424" lon="11.178962627329588"><ele>61.0</ele><time>2026-04-24T13:03:47.001Z</time></trkpt><trkpt lat="43.74372303697488" lon="11.17928915692092"><ele>61.0</ele><time>2026-04-24T13:03:48.001Z</time></trkpt><trkpt lat="43.74354326543541" lon="11.17959121756977"><ele>61.0</ele><time>2026-04-24T13:03:49.001Z</time></trkpt><trkpt lat="43.743342295519184" lon="11.179867658231286"><ele>59.5</ele><time>2026-04-24T13:03:50.001Z</time></trkpt><trkpt lat="43.743130099011346" lon="11.18011700840563"><ele>58.0</ele><time>2026-04-24T13:03:51.001Z</time></trkpt><trkpt lat="43.7429143816281" lon="11.180342462431268"><ele>57.5</ele><time>2026-04-24T13:03:52.001Z</time></trkpt><trkpt lat="43.74270428815943" lon="11.180548502251977"><ele>57.0</ele><time>2026-04-24T13:03:53.001Z</time></trkpt><trkpt lat="43.74250045375581" lon="11.180751267294509"><ele>57.0</ele><time>2026-04-24T13:03:54.001Z</time></trkpt><trkpt lat="43.74229966957139" lon="11.180948158591402"><ele>57.0</ele><time>2026-04-24T13:03:55.001Z</time></trkpt><trkpt lat="43.742094529525836" lon="11.181144422872755"><ele>57.0</ele><time>2026-04-24T13:03:56.001Z</time></trkpt><trkpt lat="43.74188236393194" lon="11.181354612395944"><ele>57.0</ele><time>2026-04-24T13:03:57.001Z</time></trkpt><trkpt lat="43.741658718510735" lon="11.181576251843824"><ele>58.0</ele><time>2026-04-24T13:03:58.001Z</time></trkpt><trkpt lat="43.74142646482506" lon="11.18179663204355"><ele>59.0</ele><time>2026-04-24T13:03:59.002Z</time></trkpt><trkpt lat="43.74119256968665" lon="11.182010872617758"><ele>61.0</ele><time>2026-04-24T13:04:00.002Z</time></trkpt><trkpt lat="43.74095884412833" lon="11.182223885736416"><ele>63.0</ele><time>2026-04-24T13:04:01.002Z</time></trkpt><trkpt lat="43.74072613271789" lon="11.18243890612277"><ele>63.0</ele><time>2026-04-24T13:04:02.002Z</time></trkpt><trkpt lat="43.7404885939772" lon="11.182662524841124"><ele>63.0</ele><time>2026-04-24T13:04:03.002Z</time></trkpt><trkpt lat="43.74025705897998" lon="11.182883912089002"><ele>63.0</ele><time>2026-04-24T13:04:04.002Z</time></trkpt><trkpt lat="43.740022230676715" lon="11.18311126623695"><ele>63.0</ele><time>2026-04-24T13:04:05.002Z</time></trkpt><trkpt lat="43.73979112110026" lon="11.183336105735702"><ele>63.0</ele><time>2026-04-24T13:04:06.002Z</time></trkpt><trkpt lat="43.73955571120438" lon="11.183557992055304"><ele>63.0</ele><time>2026-04-24T13:04:07.002Z</time></trkpt><trkpt lat="43.73931660505487" lon="11.183780998482975"><ele>64.0</ele><time>2026-04-24T13:04:08.002Z</time></trkpt><trkpt lat="43.739075934340484" lon="11.18400844014829"><ele>65.0</ele><time>2026-04-24T13:04:09.002Z</time></trkpt><trkpt lat="43.738835177132906" lon="11.184237404066835"><ele>65.0</ele><time>2026-04-24T13:04:10.002Z</time></trkpt><trkpt lat="43.73858655468076" lon="11.184470381268811"><ele>65.0</ele><time>2026-04-24T13:04:11.002Z</time></trkpt><trkpt lat="43.73833944359865" lon="11.184699545942857"><ele>66.0</ele><time>2026-04-24T13:04:12.002Z</time></trkpt><trkpt lat="43.738085747732754" lon="11.1849294383006"><ele>67.0</ele><time>2026-04-24T13:04:13.002Z</time></trkpt><trkpt lat="43.737845526192075" lon="11.185149062873474"><ele>72.5</ele><time>2026-04-24T13:04:14.002Z</time></trkpt><trkpt lat="43.73760065992596" lon="11.18535943678653"><ele>78.0</ele><time>2026-04-24T13:04:15.002Z</time></trkpt><trkpt lat="43.73734631659585" lon="11.185555693806286"><ele>76.5</ele><time>2026-04-24T13:04:16.002Z</time></trkpt><trkpt lat="43.73708854687631" lon="11.18573615552733"><ele>75.0</ele><time>2026-04-24T13:04:17.002Z</time></trkpt><trkpt lat="43.73683377811645" lon="11.185903914690465"><ele>80.5</ele><time>2026-04-24T13:04:18.002Z</time></trkpt><trkpt lat="43.736580358997394" lon="11.18607361621232"><ele>86.0</ele><time>2026-04-24T13:04:19.002Z</time></trkpt><trkpt lat="43.73631980597591" lon="11.18624555328194"><ele>83.5</ele><time>2026-04-24T13:04:20.002Z</time></trkpt><trkpt lat="43.73604920414476" lon="11.186403392472734"><ele>81.0</ele><time>2026-04-24T13:04:21.002Z</time></trkpt><trkpt lat="43.735770875830106" lon="11.186550806704503"><ele>81.0</ele><time>2026-04-24T13:04:22.002Z</time></trkpt><trkpt lat="43.73549268788675" lon="11.186695435854698"><ele>81.0</ele><time>2026-04-24T13:04:23.002Z</time></trkpt><trkpt lat="43.73521041402046" lon="11.186841385567561"><ele>83.5</ele><time>2026-04-24T13:04:24.002Z</time></trkpt><trkpt lat="43.73492935422836" lon="11.186990417371057"><ele>86.0</ele><time>2026-04-24T13:04:25.002Z</time></trkpt><trkpt lat="43.73464755060335" lon="11.187138195051473"><ele>81.5</ele><time>2026-04-24T13:04:26.002Z</time></trkpt><trkpt lat="43.73436007493233" lon="11.187269251210944"><ele>77.0</ele><time>2026-04-24T13:04:27.002Z</time></trkpt><trkpt lat="43.73407275101478" lon="11.187387813654974"><ele>77.0</ele><time>2026-04-24T13:04:28.002Z</time></trkpt><trkpt lat="43.733791143743076" lon="11.187523538056707"><ele>77.0</ele><time>2026-04-24T13:04:29.002Z</time></trkpt><trkpt lat="43.73351156655971" lon="11.18767937398007"><ele>74.5</ele><time>2026-04-24T13:04:30.002Z</time></trkpt><trkpt lat="43.733234817471136" lon="11.187838156989875"><ele>72.0</ele><time>2026-04-24T13:04:31.002Z</time></trkpt><trkpt lat="43.73296139550534" lon="11.188005231795675"><ele>76.5</ele><time>2026-04-24T13:04:32.002Z</time></trkpt><trkpt lat="43.73269561598119" lon="11.188196321366355"><ele>81.0</ele><time>2026-04-24T13:04:33.002Z</time></trkpt><trkpt lat="43.73243805559869" lon="11.18840940086361"><ele>81.0</ele><time>2026-04-24T13:04:34.002Z</time></trkpt><trkpt lat="43.73218483402128" lon="11.188635547681454"><ele>81.0</ele><time>2026-04-24T13:04:35.002Z</time></trkpt><trkpt lat="43.73194112869064" lon="11.188879113215354"><ele>83.5</ele><time>2026-04-24T13:04:36.002Z</time></trkpt><trkpt lat="43.73171182711746" lon="11.189135951342662"><ele>86.0</ele><time>2026-04-24T13:04:37.002Z</time></trkpt><trkpt lat="43.73149347657555" lon="11.189414260890048"><ele>86.0</ele><time>2026-04-24T13:04:38.002Z</time></trkpt><trkpt lat="43.73128845408704" lon="11.189707204562337"><ele>86.0</ele><time>2026-04-24T13:04:39.002Z</time></trkpt><trkpt lat="43.731095641451624" lon="11.190018451590657"><ele>85.0</ele><time>2026-04-24T13:04:40.002Z</time></trkpt><trkpt lat="43.730913266890745" lon="11.190344778583366"><ele>84.0</ele><time>2026-04-24T13:04:41.002Z</time></trkpt><trkpt lat="43.73073730022692" lon="11.190680875409907"><ele>84.0</ele><time>2026-04-24T13:04:42.002Z</time></trkpt><trkpt lat="43.73056994606416" lon="11.191028527349216"><ele>84.0</ele><time>2026-04-24T13:04:43.002Z</time></trkpt><trkpt lat="43.730402399240035" lon="11.191379028357748"><ele>85.0</ele><time>2026-04-24T13:04:44.002Z</time></trkpt><trkpt lat="43.73023236497591" lon="11.191737496050141"><ele>86.0</ele><time>2026-04-24T13:04:45.002Z</time></trkpt><trkpt lat="43.73007125748689" lon="11.192101350568517"><ele>89.5</ele><time>2026-04-24T13:04:46.003Z</time></trkpt><trkpt lat="43.729915353888984" lon="11.192474937515048"><ele>93.0</ele><time>2026-04-24T13:04:47.003Z</time></trkpt><trkpt lat="43.72974749915058" lon="11.192846234496304"><ele>93.5</ele><time>2026-04-24T13:04:48.001Z</time></trkpt><trkpt lat="43.72956831206705" lon="11.193207609561053"><ele>94.0</ele><time>2026-04-24T13:04:49.001Z</time></trkpt><trkpt lat="43.72938841042959" lon="11.193558912650715"><ele>103.5</ele><time>2026-04-24T13:04:50.001Z</time></trkpt><trkpt lat="43.72921329092042" lon="11.193913305804584"><ele>113.0</ele><time>2026-04-24T13:04:51.001Z</time></trkpt><trkpt lat="43.729037351846124" lon="11.19427753611808"><ele>116.0</ele><time>2026-04-24T13:04:52.019Z</time></trkpt><trkpt lat="43.72886184987443" lon="11.194633608845649"><ele>119.0</ele><time>2026-04-24T13:04:53.014Z</time></trkpt><trkpt lat="43.72851323989096" lon="11.195352561386091"><ele>119.0</ele><time>2026-04-24T13:04:55.02Z</time></trkpt><trkpt lat="43.728338138785666" lon="11.195710208812624"><ele>119.0</ele><time>2026-04-24T13:04:56.021Z</time></trkpt><trkpt lat="43.72700340118606" lon="11.206601271416252"><ele>119.0</ele><time>2026-04-24T13:05:25.001Z</time></trkpt><trkpt lat="43.72700525483982" lon="11.207018018484561"><ele>119.0</ele><time>2026-04-24T13:05:26.001Z</time></trkpt><trkpt lat="43.727050096637065" lon="11.207420918491316"><ele>117.0</ele><time>2026-04-24T13:05:27.001Z</time></trkpt><trkpt lat="43.72703655630306" lon="11.20782641048869"><ele>115.0</ele><time>2026-04-24T13:05:28.001Z</time></trkpt><trkpt lat="43.72701877643008" lon="11.20822941001038"><ele>114.0</ele><time>2026-04-24T13:05:29.001Z</time></trkpt><trkpt lat="43.72701128410963" lon="11.208630816170196"><ele>113.0</ele><time>2026-04-24T13:05:30.001Z</time></trkpt><trkpt lat="43.726998220567" lon="11.209034003931256"><ele>113.0</ele><time>2026-04-24T13:05:31.001Z</time></trkpt><trkpt lat="43.7269738045529" lon="11.209416517377518"><ele>113.0</ele><time>2026-04-24T13:05:32.001Z</time></trkpt><trkpt lat="43.726901354813734" lon="11.20984138823084"><ele>110.5</ele><time>2026-04-24T13:05:33.001Z</time></trkpt><trkpt lat="43.726870289540344" lon="11.210247324957242"><ele>108.0</ele><time>2026-04-24T13:05:34.001Z</time></trkpt><trkpt lat="43.72684491857151" lon="11.210660450402557"><ele>108.0</ele><time>2026-04-24T13:05:35.001Z</time></trkpt><trkpt lat="43.726816357093675" lon="11.211065728729645"><ele>108.0</ele><time>2026-04-24T13:05:36.001Z</time></trkpt><trkpt lat="43.72678829751347" lon="11.211469938637599"><ele>103.5</ele><time>2026-04-24T13:05:37.001Z</time></trkpt><trkpt lat="43.726761394249266" lon="11.211869651694936"><ele>99.0</ele><time>2026-04-24T13:05:38.001Z</time></trkpt><trkpt lat="43.72673177512235" lon="11.21226706039411"><ele>99.0</ele><time>2026-04-24T13:05:39.001Z</time></trkpt><trkpt lat="43.72670773752127" lon="11.21265784849172"><ele>99.0</ele><time>2026-04-24T13:05:40.001Z</time></trkpt><trkpt lat="43.72668145799989" lon="11.213061300326569"><ele>97.5</ele><time>2026-04-24T13:05:41.001Z</time></trkpt><trkpt lat="43.726653333267265" lon="11.213464272982492"><ele>96.0</ele><time>2026-04-24T13:05:42.001Z</time></trkpt><trkpt lat="43.72661926111944" lon="11.21388026597638"><ele>95.5</ele><time>2026-04-24T13:05:43.001Z</time></trkpt><trkpt lat="43.72657949118245" lon="11.214291594117872"><ele>95.0</ele><time>2026-04-24T13:05:44.001Z</time></trkpt><trkpt lat="43.72653074495821" lon="11.214704512147343"><ele>94.5</ele><time>2026-04-24T13:05:45.001Z</time></trkpt><trkpt lat="43.72647083989734" lon="11.215112751480582"><ele>94.0</ele><time>2026-04-24T13:05:46.001Z</time></trkpt><trkpt lat="43.72639668674477" lon="11.215507824110809"><ele>91.5</ele><time>2026-04-24T13:05:47.001Z</time></trkpt><trkpt lat="43.726308495838445" lon="11.215891251388669"><ele>89.0</ele><time>2026-04-24T13:05:48.001Z</time></trkpt><trkpt lat="43.726204942772284" lon="11.216263997236796"><ele>86.0</ele><time>2026-04-24T13:05:49.001Z</time></trkpt><trkpt lat="43.72609193594024" lon="11.216634067513082"><ele>83.0</ele><time>2026-04-24T13:05:50.001Z</time></trkpt><trkpt lat="43.72596707564233" lon="11.216981298108381"><ele>88.0</ele><time>2026-04-24T13:05:51.001Z</time></trkpt><trkpt lat="43.725838839583204" lon="11.217321645622905"><ele>93.0</ele><time>2026-04-24T13:05:52.001Z</time></trkpt><trkpt lat="43.725704090175476" lon="11.217630470082835"><ele>93.0</ele><time>2026-04-24T13:05:53.001Z</time></trkpt><trkpt lat="43.725567266306314" lon="11.21791269067921"><ele>93.0</ele><time>2026-04-24T13:05:54.001Z</time></trkpt><trkpt lat="43.72541695986398" lon="11.218193927715593"><ele>94.0</ele><time>2026-04-24T13:05:55.001Z</time></trkpt><trkpt lat="43.725262646621886" lon="11.21850241206015"><ele>95.0</ele><time>2026-04-24T13:05:56.001Z</time></trkpt><trkpt lat="43.72510205352401" lon="11.218779933542109"><ele>90.0</ele><time>2026-04-24T13:05:57.001Z</time></trkpt><trkpt lat="43.72494765124161" lon="11.219054693737695"><ele>85.0</ele><time>2026-04-24T13:05:58.001Z</time></trkpt><trkpt lat="43.72479312233875" lon="11.219314470341883"><ele>85.0</ele><time>2026-04-24T13:05:59.001Z</time></trkpt><trkpt lat="43.72463541359861" lon="11.219564766594175"><ele>85.0</ele><time>2026-04-24T13:06:00.001Z</time></trkpt><trkpt lat="43.72448173019801" lon="11.2198158259681"><ele>82.33333333333333</ele><time>2026-04-24T13:06:01.001Z</time></trkpt><trkpt lat="43.72434588991379" lon="11.220061263823105"><ele>79.66666666666667</ele><time>2026-04-24T13:06:02.001Z</time></trkpt><trkpt lat="43.724217846952804" lon="11.220292569750939"><ele>77.0</ele><time>2026-04-24T13:06:03.001Z</time></trkpt><trkpt lat="43.724108577864236" lon="11.220491294115119"><ele>78.33333333333334</ele><time>2026-04-24T13:06:04.001Z</time></trkpt><trkpt lat="43.724009519145945" lon="11.2206780506859"><ele>79.66666666666667</ele><time>2026-04-24T13:06:05.001Z</time></trkpt><trkpt lat="43.72392059322468" lon="11.220849161147452"><ele>81.0</ele><time>2026-04-24T13:06:06.001Z</time></trkpt><trkpt lat="43.72383141506362" lon="11.221020335682244"><ele>81.0</ele><time>2026-04-24T13:06:07.001Z</time></trkpt><trkpt lat="43.72374557436989" lon="11.221177738942773"><ele>81.0</ele><time>2026-04-24T13:06:08.001Z</time></trkpt><trkpt lat="43.72365169786587" lon="11.221317825103036"><ele>81.0</ele><time>2026-04-24T13:06:09.002Z</time></trkpt><trkpt lat="43.72354487260761" lon="11.221433666174955"><ele>81.0</ele><time>2026-04-24T13:06:10.002Z</time></trkpt><trkpt lat="43.72340928657654" lon="11.221530314586687"><ele>79.0</ele><time>2026-04-24T13:06:11.002Z</time></trkpt><trkpt lat="43.72324897523995" lon="11.221571437665155"><ele>77.0</ele><time>2026-04-24T13:06:12.002Z</time></trkpt><trkpt lat="43.72308660572029" lon="11.221603310838285"><ele>75.0</ele><time>2026-04-24T13:06:13.002Z</time></trkpt><trkpt lat="43.722907934831944" lon="11.221644581530283"><ele>75.0</ele><time>2026-04-24T13:06:14.002Z</time></trkpt><trkpt lat="43.72273785056447" lon="11.221687516904195"><ele>75.0</ele><time>2026-04-24T13:06:15.002Z</time></trkpt><trkpt lat="43.72258352386334" lon="11.22176096596851"><ele>75.0</ele><time>2026-04-24T13:06:16.002Z</time></trkpt><trkpt lat="43.72244619605139" lon="11.221842788502206"><ele>73.25</ele><time>2026-04-24T13:06:17.002Z</time></trkpt><trkpt lat="43.722312793021004" lon="11.22191142023806"><ele>71.5</ele><time>2026-04-24T13:06:18.002Z</time></trkpt><trkpt lat="43.72218377896019" lon="11.22197177102438"><ele>69.75</ele><time>2026-04-24T13:06:19.002Z</time></trkpt><trkpt lat="43.72206516270836" lon="11.222031183912572"><ele>68.0</ele><time>2026-04-24T13:06:20.002Z</time></trkpt><trkpt lat="43.72195831396525" lon="11.22207984253161"><ele>67.6</ele><time>2026-04-24T13:06:21.002Z</time></trkpt><trkpt lat="43.72185834522323" lon="11.222124994568702"><ele>67.19999999999999</ele><time>2026-04-24T13:06:22.002Z</time></trkpt><trkpt lat="43.72176477142702" lon="11.222159621315663"><ele>66.8</ele><time>2026-04-24T13:06:23.002Z</time></trkpt><trkpt lat="43.72167570751034" lon="11.222180452104798"><ele>66.39999999999999</ele><time>2026-04-24T13:06:24.002Z</time></trkpt><trkpt lat="43.72159545325114" lon="11.222197604766787"><ele>66.0</ele><time>2026-04-24T13:06:25.002Z</time></trkpt><trkpt lat="43.7215366465431" lon="11.222383654882872"><ele>66.0</ele><time>2026-04-24T13:06:27.002Z</time></trkpt><trkpt lat="43.721454332196345" lon="11.222432740820476"><ele>66.0</ele><time>2026-04-24T13:06:45.002Z</time></trkpt><trkpt lat="43.72139408177145" lon="11.222467108393413"><ele>66.0</ele><time>2026-04-24T13:07:23.001Z</time></trkpt><trkpt lat="43.72134050135238" lon="11.222317000298222"><ele>66.0</ele><time>2026-04-24T13:07:48.001Z</time></trkpt><trkpt lat="43.72124136390173" lon="11.222268750204952"><ele>66.0</ele><time>2026-04-24T13:08:40.002Z</time></trkpt><trkpt lat="43.72116009504528" lon="11.222280060795637"><ele>66.0</ele><time>2026-04-24T13:08:48.002Z</time></trkpt><trkpt lat="43.72108875883386" lon="11.22233912828248"><ele>66.0</ele><time>2026-04-24T13:08:49.002Z</time></trkpt><trkpt lat="43.721000474280885" lon="11.22240625593177"><ele>66.0</ele><time>2026-04-24T13:08:50.002Z</time></trkpt><trkpt lat="43.720981573752375" lon="11.222707824020159"><ele>66.0</ele><time>2026-04-24T13:08:51.002Z</time></trkpt><trkpt lat="43.72086759610397" lon="11.222775825381389"><ele>66.0</ele><time>2026-04-24T13:08:52.002Z</time></trkpt><trkpt lat="43.72076481142382" lon="11.222833457261679"><ele>66.0</ele><time>2026-04-24T13:08:53.002Z</time></trkpt><trkpt lat="43.72061847823216" lon="11.22266839334847"><ele>66.0</ele><time>2026-04-24T13:08:54.002Z</time></trkpt><trkpt lat="43.72052912442189" lon="11.222709159309838"><ele>66.0</ele><time>2026-04-24T13:08:55.002Z</time></trkpt><trkpt lat="43.72043831268372" lon="11.222742480460756"><ele>66.0</ele><time>2026-04-24T13:08:56.002Z</time></trkpt><trkpt lat="43.72036347377508" lon="11.222758827132116"><ele>66.0</ele><time>2026-04-24T13:08:57.002Z</time></trkpt><trkpt lat="43.72029858887629" lon="11.222756700033235"><ele>66.0</ele><time>2026-04-24T13:08:58.002Z</time></trkpt><trkpt lat="43.72023796050439" lon="11.22273253458628"><ele>66.0</ele><time>2026-04-24T13:08:59.002Z</time></trkpt><trkpt lat="43.72017127192221" lon="11.222706866011563"><ele>66.0</ele><time>2026-04-24T13:09:00.001Z</time></trkpt><trkpt lat="43.72006030038676" lon="11.222643893388108"><ele>66.0</ele><time>2026-04-24T13:09:02.001Z</time></trkpt><trkpt lat="43.71997196397985" lon="11.222537840554285"><ele>65.71428571428571</ele><time>2026-04-24T13:09:04.001Z</time></trkpt><trkpt lat="43.7199370848301" lon="11.222446757449815"><ele>65.42857142857143</ele><time>2026-04-24T13:09:05.001Z</time></trkpt><trkpt lat="43.7199191296439" lon="11.222351686717952"><ele>65.14285714285714</ele><time>2026-04-24T13:09:06.001Z</time></trkpt><trkpt lat="43.7199154428543" lon="11.222257649147032"><ele>64.85714285714286</ele><time>2026-04-24T13:09:07.001Z</time></trkpt><trkpt lat="43.71991757242635" lon="11.22215978512087"><ele>64.57142857142857</ele><time>2026-04-24T13:09:08.001Z</time></trkpt><trkpt lat="43.719914970708615" lon="11.222066593478246"><ele>64.28571428571428</ele><time>2026-04-24T13:09:09.001Z</time></trkpt><trkpt lat="43.71991460580365" lon="11.221965089048794"><ele>64.0</ele><time>2026-04-24T13:09:10.001Z</time></trkpt><trkpt lat="43.71991049997479" lon="11.221852323862453"><ele>64.0</ele><time>2026-04-24T13:09:11.001Z</time></trkpt><trkpt lat="43.71990779398876" lon="11.221726211171111"><ele>64.0</ele><time>2026-04-24T13:09:12.001Z</time></trkpt><trkpt lat="43.71990577034713" lon="11.221586357864512"><ele>64.0</ele><time>2026-04-24T13:09:13.001Z</time></trkpt><trkpt lat="43.71990368981794" lon="11.221434402902126"><ele>64.0</ele><time>2026-04-24T13:09:14.001Z</time></trkpt><trkpt lat="43.71989783977081" lon="11.221284298174085"><ele>64.0</ele><time>2026-04-24T13:09:15.001Z</time></trkpt><trkpt lat="43.71987879904705" lon="11.22114717401684"><ele>64.4</ele><time>2026-04-24T13:09:16.001Z</time></trkpt><trkpt lat="43.71984982198094" lon="11.221009700970516"><ele>64.80000000000001</ele><time>2026-04-24T13:09:17.001Z</time></trkpt><trkpt lat="43.719802994408674" lon="11.22087501084067"><ele>65.19999999999999</ele><time>2026-04-24T13:09:18.001Z</time></trkpt><trkpt lat="43.71974019924361" lon="11.22074546681798"><ele>65.6</ele><time>2026-04-24T13:09:19.001Z</time></trkpt><trkpt lat="43.719659148762204" lon="11.220635186326161"><ele>66.0</ele><time>2026-04-24T13:09:20.001Z</time></trkpt><trkpt lat="43.7195716951765" lon="11.220543509240473"><ele>68.0</ele><time>2026-04-24T13:09:21.001Z</time></trkpt><trkpt lat="43.71946546217823" lon="11.22048078515796"><ele>70.0</ele><time>2026-04-24T13:09:22.001Z</time></trkpt><trkpt lat="43.719349023860296" lon="11.220424731962419"><ele>72.0</ele><time>2026-04-24T13:09:23.001Z</time></trkpt><trkpt lat="43.7192331451635" lon="11.220387607521257"><ele>74.0</ele><time>2026-04-24T13:09:24.001Z</time></trkpt><trkpt lat="43.719118297270285" lon="11.22037819009491"><ele>75.25</ele><time>2026-04-24T13:09:25.001Z</time></trkpt><trkpt lat="43.718998236085724" lon="11.220382555677352"><ele>76.5</ele><time>2026-04-24T13:09:26.001Z</time></trkpt><trkpt lat="43.71887475807222" lon="11.220383896037813"><ele>77.75</ele><time>2026-04-24T13:09:27.001Z</time></trkpt><trkpt lat="43.71873822895459" lon="11.220387918502848"><ele>79.0</ele><time>2026-04-24T13:09:28.001Z</time></trkpt><trkpt lat="43.718584305485514" lon="11.22039567346894"><ele>80.33333333333333</ele><time>2026-04-24T13:09:29.001Z</time></trkpt><trkpt lat="43.71841999277883" lon="11.220400290755405"><ele>81.66666666666667</ele><time>2026-04-24T13:09:30.001Z</time></trkpt><trkpt lat="43.71826174975638" lon="11.220398338982294"><ele>83.0</ele><time>2026-04-24T13:09:31.001Z</time></trkpt><trkpt lat="43.718128126747835" lon="11.22039321771645"><ele>83.0</ele><time>2026-04-24T13:09:32.001Z</time></trkpt><trkpt lat="43.71802114983917" lon="11.220381645882009"><ele>83.0</ele><time>2026-04-24T13:09:33.001Z</time></trkpt><trkpt lat="43.71786056940919" lon="11.220387113529677"><ele>83.0</ele><time>2026-04-24T13:09:34.001Z</time></trkpt><trkpt lat="43.71770933078834" lon="11.220384877381118"><ele>83.0</ele><time>2026-04-24T13:09:35.001Z</time></trkpt><trkpt lat="43.717550382723836" lon="11.220381082594118"><ele>83.66666666666667</ele><time>2026-04-24T13:09:36.001Z</time></trkpt><trkpt lat="43.71740068726018" lon="11.220374036447799"><ele>84.33333333333333</ele><time>2026-04-24T13:09:37.001Z</time></trkpt><trkpt lat="43.71724730777802" lon="11.22035564521649"><ele>85.0</ele><time>2026-04-24T13:09:38.001Z</time></trkpt><trkpt lat="43.717083286108036" lon="11.220328396055555"><ele>85.0</ele><time>2026-04-24T13:09:39.001Z</time></trkpt><trkpt lat="43.71690764269859" lon="11.220287766951223"><ele>85.0</ele><time>2026-04-24T13:09:40.001Z</time></trkpt><trkpt lat="43.71672229081591" lon="11.220232346854061"><ele>85.0</ele><time>2026-04-24T13:09:41.001Z</time></trkpt><trkpt lat="43.716542754008465" lon="11.220164024489067"><ele>83.66666666666666</ele><time>2026-04-24T13:09:42.001Z</time></trkpt><trkpt lat="43.71635604084396" lon="11.220076190122699"><ele>82.33333333333333</ele><time>2026-04-24T13:09:43.001Z</time></trkpt><trkpt lat="43.716156877435395" lon="11.219956645398137"><ele>81.0</ele><time>2026-04-24T13:09:44.001Z</time></trkpt><trkpt lat="43.71595489967367" lon="11.219821096484473"><ele>82.66666666666667</ele><time>2026-04-24T13:09:45.001Z</time></trkpt><trkpt lat="43.7157665346414" lon="11.219681686888123"><ele>84.33333333333334</ele><time>2026-04-24T13:09:46.001Z</time></trkpt><trkpt lat="43.715583643231376" lon="11.219520206184407"><ele>86.0</ele><time>2026-04-24T13:09:47.001Z</time></trkpt><trkpt lat="43.715401493985645" lon="11.219346601116925"><ele>85.0</ele><time>2026-04-24T13:09:48.001Z</time></trkpt><trkpt lat="43.71522945904118" lon="11.219165532031145"><ele>84.0</ele><time>2026-04-24T13:09:49.001Z</time></trkpt><trkpt lat="43.71506507956415" lon="11.218970283559653"><ele>83.0</ele><time>2026-04-24T13:09:50.001Z</time></trkpt><trkpt lat="43.71490836937377" lon="11.218757884678585"><ele>83.0</ele><time>2026-04-24T13:09:51.001Z</time></trkpt><trkpt lat="43.714764748912344" lon="11.21853685556301"><ele>83.0</ele><time>2026-04-24T13:09:52.001Z</time></trkpt><trkpt lat="43.71463387303698" lon="11.218321949649882"><ele>83.0</ele><time>2026-04-24T13:09:53.001Z</time></trkpt><trkpt lat="43.714509897057965" lon="11.218092504327858"><ele>79.33333333333334</ele><time>2026-04-24T13:09:54.001Z</time></trkpt><trkpt lat="43.71440193620281" lon="11.217872286007323"><ele>75.66666666666667</ele><time>2026-04-24T13:09:55.001Z</time></trkpt><trkpt lat="43.71431199600785" lon="11.2176544979176"><ele>72.0</ele><time>2026-04-24T13:09:56.001Z</time></trkpt><trkpt lat="43.71423473725834" lon="11.217443909580583"><ele>73.0</ele><time>2026-04-24T13:09:57.001Z</time></trkpt><trkpt lat="43.714153834189545" lon="11.217243366144503"><ele>74.0</ele><time>2026-04-24T13:09:58.001Z</time></trkpt><trkpt lat="43.71407252528146" lon="11.21705729574697"><ele>75.0</ele><time>2026-04-24T13:09:59.001Z</time></trkpt><trkpt lat="43.71399017441502" lon="11.216874760679417"><ele>75.0</ele><time>2026-04-24T13:10:00.001Z</time></trkpt><trkpt lat="43.71390576480256" lon="11.216690449365931"><ele>75.0</ele><time>2026-04-24T13:10:01.001Z</time></trkpt><trkpt lat="43.71381317507814" lon="11.216512812793624"><ele>75.0</ele><time>2026-04-24T13:10:02.001Z</time></trkpt><trkpt lat="43.71371082373412" lon="11.216327903878318"><ele>76.66666666666667</ele><time>2026-04-24T13:10:03.001Z</time></trkpt><trkpt lat="43.71359657054555" lon="11.216153048955535"><ele>78.33333333333334</ele><time>2026-04-24T13:10:04.001Z</time></trkpt><trkpt lat="43.71347672700229" lon="11.21599062467816"><ele>80.0</ele><time>2026-04-24T13:10:05.001Z</time></trkpt><trkpt lat="43.71336213366413" lon="11.215828026665815"><ele>80.33333333333334</ele><time>2026-04-24T13:10:06.001Z</time></trkpt><trkpt lat="43.71324521322988" lon="11.215677411338696"><ele>80.66666666666667</ele><time>2026-04-24T13:10:07.001Z</time></trkpt><trkpt lat="43.7131254571033" lon="11.215538040538284"><ele>81.0</ele><time>2026-04-24T13:10:08.001Z</time></trkpt><trkpt lat="43.71301066546584" lon="11.215411851792785"><ele>81.0</ele><time>2026-04-24T13:10:09.001Z</time></trkpt><trkpt lat="43.71290095513783" lon="11.215302503118663"><ele>81.0</ele><time>2026-04-24T13:10:10.001Z</time></trkpt><trkpt lat="43.71279470817611" lon="11.215202701756908"><ele>81.0</ele><time>2026-04-24T13:10:11.001Z</time></trkpt><trkpt lat="43.71268523216463" lon="11.215100829074174"><ele>81.0</ele><time>2026-04-24T13:10:12.001Z</time></trkpt><trkpt lat="43.71256437915359" lon="11.215002984831838"><ele>80.5</ele><time>2026-04-24T13:10:13.001Z</time></trkpt><trkpt lat="43.71243939154541" lon="11.214913728226682"><ele>80.0</ele><time>2026-04-24T13:10:14.001Z</time></trkpt><trkpt lat="43.71230664180672" lon="11.21482795535686"><ele>79.5</ele><time>2026-04-24T13:10:15.001Z</time></trkpt><trkpt lat="43.71217596256765" lon="11.214744773473683"><ele>79.0</ele><time>2026-04-24T13:10:16.001Z</time></trkpt><trkpt lat="43.71204073185898" lon="11.214655761852217"><ele>79.0</ele><time>2026-04-24T13:10:17.001Z</time></trkpt><trkpt lat="43.71190707507841" lon="11.214569692298623"><ele>79.0</ele><time>2026-04-24T13:10:18.001Z</time></trkpt><trkpt lat="43.711781379521334" lon="11.21449258588387"><ele>79.0</ele><time>2026-04-24T13:10:19.002Z</time></trkpt><trkpt lat="43.711669145690806" lon="11.21441867214935"><ele>79.0</ele><time>2026-04-24T13:10:20.002Z</time></trkpt><trkpt lat="43.7115663194492" lon="11.214354544076691"><ele>78.2</ele><time>2026-04-24T13:10:21.002Z</time></trkpt><trkpt lat="43.7114691091188" lon="11.214286994970802"><ele>77.4</ele><time>2026-04-24T13:10:22.002Z</time></trkpt><trkpt lat="43.711371766407176" lon="11.214223884916366"><ele>76.6</ele><time>2026-04-24T13:10:23.002Z</time></trkpt><trkpt lat="43.711275434369334" lon="11.214160624368862"><ele>75.8</ele><time>2026-04-24T13:10:24.002Z</time></trkpt><trkpt lat="43.711183478270584" lon="11.21410321076352"><ele>75.0</ele><time>2026-04-24T13:10:25.002Z</time></trkpt><trkpt lat="43.7110870678348" lon="11.214042577876892"><ele>74.4</ele><time>2026-04-24T13:10:26.002Z</time></trkpt><trkpt lat="43.71098992253347" lon="11.213982902637904"><ele>73.8</ele><time>2026-04-24T13:10:27.002Z</time></trkpt><trkpt lat="43.71090528423089" lon="11.213929055916577"><ele>73.2</ele><time>2026-04-24T13:10:28.002Z</time></trkpt><trkpt lat="43.710826731958825" lon="11.21388246715657"><ele>72.6</ele><time>2026-04-24T13:10:29.002Z</time></trkpt><trkpt lat="43.710757784498306" lon="11.213839258483558"><ele>72.0</ele><time>2026-04-24T13:10:30.002Z</time></trkpt><trkpt lat="43.710663614709375" lon="11.213773348725427"><ele>72.0</ele><time>2026-04-24T13:10:32.002Z</time></trkpt><trkpt lat="43.71056620121636" lon="11.213711375071904"><ele>72.0</ele><time>2026-04-24T13:10:34.002Z</time></trkpt><trkpt lat="43.710469155530866" lon="11.213646708996635"><ele>72.0</ele><time>2026-04-24T13:10:36.002Z</time></trkpt><trkpt lat="43.71036692401748" lon="11.21358813791619"><ele>72.0</ele><time>2026-04-24T13:10:38.002Z</time></trkpt><trkpt lat="43.710271430310904" lon="11.213522422826353"><ele>72.0</ele><time>2026-04-24T13:10:40.002Z</time></trkpt><trkpt lat="43.710177144021415" lon="11.213460991482481"><ele>72.25</ele><time>2026-04-24T13:10:42.002Z</time></trkpt><trkpt lat="43.71005169362679" lon="11.213390941218305"><ele>72.5</ele><time>2026-04-24T13:10:44.002Z</time></trkpt><trkpt lat="43.70996494920053" lon="11.213343146719808"><ele>72.75</ele><time>2026-04-24T13:10:45.002Z</time></trkpt><trkpt lat="43.70986276196645" lon="11.213295922339844"><ele>73.0</ele><time>2026-04-24T13:10:46.002Z</time></trkpt><trkpt lat="43.70975033257087" lon="11.213238405318897"><ele>73.0</ele><time>2026-04-24T13:10:47.002Z</time></trkpt><trkpt lat="43.70962438275432" lon="11.213182997928985"><ele>73.0</ele><time>2026-04-24T13:10:48.002Z</time></trkpt><trkpt lat="43.70950580944598" lon="11.213139017625842"><ele>73.0</ele><time>2026-04-24T13:10:49.002Z</time></trkpt><trkpt lat="43.70938305796821" lon="11.213095638438901"><ele>73.0</ele><time>2026-04-24T13:10:50.002Z</time></trkpt><trkpt lat="43.70925226050309" lon="11.213055476768966"><ele>73.25</ele><time>2026-04-24T13:10:51.002Z</time></trkpt><trkpt lat="43.709113706539156" lon="11.213016735851749"><ele>73.5</ele><time>2026-04-24T13:10:52.002Z</time></trkpt><trkpt lat="43.708975331351745" lon="11.212980342829901"><ele>73.75</ele><time>2026-04-24T13:10:53.002Z</time></trkpt><trkpt lat="43.70883299769279" lon="11.212948341902033"><ele>74.0</ele><time>2026-04-24T13:10:54.002Z</time></trkpt><trkpt lat="43.708697222563" lon="11.212926307880858"><ele>74.25</ele><time>2026-04-24T13:10:55.002Z</time></trkpt><trkpt lat="43.70856762443462" lon="11.212913931461712"><ele>74.5</ele><time>2026-04-24T13:10:56.002Z</time></trkpt><trkpt lat="43.70842997279407" lon="11.212903905043916"><ele>74.75</ele><time>2026-04-24T13:10:57.002Z</time></trkpt><trkpt lat="43.708283213064426" lon="11.212897186266755"><ele>75.0</ele><time>2026-04-24T13:10:58.002Z</time></trkpt><trkpt lat="43.708140527254386" lon="11.212890329129596"><ele>75.0</ele><time>2026-04-24T13:10:59.002Z</time></trkpt><trkpt lat="43.70800817445327" lon="11.212888040444764"><ele>75.0</ele><time>2026-04-24T13:11:00.002Z</time></trkpt><trkpt lat="43.707879822590264" lon="11.21289449862296"><ele>75.0</ele><time>2026-04-24T13:11:01.002Z</time></trkpt><trkpt lat="43.70774498029167" lon="11.21291073157341"><ele>75.0</ele><time>2026-04-24T13:11:02.002Z</time></trkpt><trkpt lat="43.707599449633804" lon="11.212931456111566"><ele>76.66666666666667</ele><time>2026-04-24T13:11:03.002Z</time></trkpt><trkpt lat="43.70744689361786" lon="11.21296202994602"><ele>78.33333333333334</ele><time>2026-04-24T13:11:04.002Z</time></trkpt><trkpt lat="43.70728678440937" lon="11.212994294135976"><ele>80.0</ele><time>2026-04-24T13:11:05.002Z</time></trkpt><trkpt lat="43.707138932647574" lon="11.213021869944814"><ele>80.0</ele><time>2026-04-24T13:11:06.001Z</time></trkpt><trkpt lat="43.70698650680637" lon="11.213049114598862"><ele>80.0</ele><time>2026-04-24T13:11:07.001Z</time></trkpt><trkpt lat="43.70681970788834" lon="11.213084125934191"><ele>80.0</ele><time>2026-04-24T13:11:08.001Z</time></trkpt><trkpt lat="43.70662936722031" lon="11.213111478957071"><ele>88.33333333333334</ele><time>2026-04-24T13:11:09.001Z</time></trkpt><trkpt lat="43.70642697778692" lon="11.213132415198958"><ele>96.66666666666667</ele><time>2026-04-24T13:11:10.001Z</time></trkpt><trkpt lat="43.70622531152246" lon="11.213151563015716"><ele>105.0</ele><time>2026-04-24T13:11:11.001Z</time></trkpt><trkpt lat="43.70602070598661" lon="11.213170220073328"><ele>115.0</ele><time>2026-04-24T13:11:12.001Z</time></trkpt><trkpt lat="43.705820506682315" lon="11.213193427372493"><ele>125.0</ele><time>2026-04-24T13:11:13.001Z</time></trkpt><trkpt lat="43.70561213473533" lon="11.213218881085556"><ele>135.0</ele><time>2026-04-24T13:11:14.001Z</time></trkpt><trkpt lat="43.70540994645268" lon="11.21324339007395"><ele>144.33333333333334</ele><time>2026-04-24T13:11:15.001Z</time></trkpt><trkpt lat="43.70520431754966" lon="11.213265955955318"><ele>153.66666666666669</ele><time>2026-04-24T13:11:16.001Z</time></trkpt><trkpt lat="43.70500408160499" lon="11.21331118218671"><ele>163.0</ele><time>2026-04-24T13:11:17.001Z</time></trkpt><trkpt lat="43.70480010588632" lon="11.21334694949498"><ele>97.0</ele><time>2026-04-24T13:11:18.014Z</time></trkpt><trkpt lat="43.70324016087102" lon="11.21367082000823"><ele>97.0</ele><time>2026-04-24T13:11:27.001Z</time></trkpt><trkpt lat="43.703050111667864" lon="11.213706399065092"><ele>97.0</ele><time>2026-04-24T13:11:28.001Z</time></trkpt><trkpt lat="43.70288996962349" lon="11.213765337917412"><ele>97.0</ele><time>2026-04-24T13:11:29.001Z</time></trkpt><trkpt lat="43.70274993666587" lon="11.213792401655978"><ele>96.0</ele><time>2026-04-24T13:11:30.001Z</time></trkpt><trkpt lat="43.70259027257392" lon="11.213817433072366"><ele>95.0</ele><time>2026-04-24T13:11:31.001Z</time></trkpt><trkpt lat="43.70242682539966" lon="11.213843165447663"><ele>94.0</ele><time>2026-04-24T13:11:32.001Z</time></trkpt><trkpt lat="43.702264926282716" lon="11.213859392643755"><ele>94.0</ele><time>2026-04-24T13:11:33.001Z</time></trkpt><trkpt lat="43.70209788499287" lon="11.213884075872496"><ele>94.0</ele><time>2026-04-24T13:11:34.001Z</time></trkpt><trkpt lat="43.70191209183478" lon="11.213903404628324"><ele>94.0</ele><time>2026-04-24T13:11:35.001Z</time></trkpt><trkpt lat="43.70170835155213" lon="11.213905189026056"><ele>94.33333333333333</ele><time>2026-04-24T13:11:36.001Z</time></trkpt><trkpt lat="43.70149554900721" lon="11.21388110287048"><ele>94.66666666666667</ele><time>2026-04-24T13:11:37.001Z</time></trkpt><trkpt lat="43.70127118807707" lon="11.213838277052822"><ele>95.0</ele><time>2026-04-24T13:11:38.001Z</time></trkpt><trkpt lat="43.70103779828874" lon="11.213764920970975"><ele>90.5</ele><time>2026-04-24T13:11:39.001Z</time></trkpt><trkpt lat="43.7008051915189" lon="11.21367346494187"><ele>86.0</ele><time>2026-04-24T13:11:40.001Z</time></trkpt><trkpt lat="43.700558231463134" lon="11.213577879864747"><ele>86.0</ele><time>2026-04-24T13:11:41.001Z</time></trkpt><trkpt lat="43.700315812948496" lon="11.213472699820208"><ele>86.0</ele><time>2026-04-24T13:11:42.001Z</time></trkpt><trkpt lat="43.70008867653123" lon="11.213353148272466"><ele>86.0</ele><time>2026-04-24T13:11:43.001Z</time></trkpt><trkpt lat="43.699864117345925" lon="11.213204545866747"><ele>86.0</ele><time>2026-04-24T13:11:44.001Z</time></trkpt><trkpt lat="43.699644062809185" lon="11.213033082586332"><ele>85.0</ele><time>2026-04-24T13:11:45.001Z</time></trkpt><trkpt lat="43.6994249940873" lon="11.212846280148483"><ele>84.0</ele><time>2026-04-24T13:11:46.001Z</time></trkpt><trkpt lat="43.69921385650684" lon="11.212661098127226"><ele>85.5</ele><time>2026-04-24T13:11:47.001Z</time></trkpt><trkpt lat="43.69900677798336" lon="11.212480351446224"><ele>87.0</ele><time>2026-04-24T13:11:48.001Z</time></trkpt><trkpt lat="43.69880407561026" lon="11.21231207123895"><ele>87.0</ele><time>2026-04-24T13:11:49.001Z</time></trkpt><trkpt lat="43.69860070425895" lon="11.21214467112087"><ele>87.0</ele><time>2026-04-24T13:11:50.001Z</time></trkpt><trkpt lat="43.69839735491477" lon="11.21199699785181"><ele>88.0</ele><time>2026-04-24T13:11:51.001Z</time></trkpt><trkpt lat="43.698190314297804" lon="11.211856279193908"><ele>89.0</ele><time>2026-04-24T13:11:52.001Z</time></trkpt><trkpt lat="43.69797213301339" lon="11.21174205928123"><ele>91.0</ele><time>2026-04-24T13:11:53.001Z</time></trkpt><trkpt lat="43.69774698835937" lon="11.211644903193418"><ele>93.0</ele><time>2026-04-24T13:11:54.001Z</time></trkpt><trkpt lat="43.69751809852469" lon="11.211564296134652"><ele>93.0</ele><time>2026-04-24T13:11:55.001Z</time></trkpt><trkpt lat="43.69729014443895" lon="11.211495635673847"><ele>93.0</ele><time>2026-04-24T13:11:56.001Z</time></trkpt><trkpt lat="43.697061717496446" lon="11.21145715483064"><ele>91.5</ele><time>2026-04-24T13:11:57.001Z</time></trkpt><trkpt lat="43.6968243201618" lon="11.211436213589861"><ele>90.0</ele><time>2026-04-24T13:11:58.001Z</time></trkpt><trkpt lat="43.69659082482892" lon="11.211428711988454"><ele>90.0</ele><time>2026-04-24T13:11:59.001Z</time></trkpt><trkpt lat="43.69635925002229" lon="11.211438698931047"><ele>90.0</ele><time>2026-04-24T13:12:00.001Z</time></trkpt><trkpt lat="43.69612992702397" lon="11.211469009557273"><ele>94.5</ele><time>2026-04-24T13:12:01.001Z</time></trkpt><trkpt lat="43.69590425643558" lon="11.211516276347556"><ele>99.0</ele><time>2026-04-24T13:12:02.001Z</time></trkpt><trkpt lat="43.695677542662786" lon="11.21157694312525"><ele>99.0</ele><time>2026-04-24T13:12:03.001Z</time></trkpt><trkpt lat="43.69545745520466" lon="11.211652987896997"><ele>99.0</ele><time>2026-04-24T13:12:04.001Z</time></trkpt><trkpt lat="43.69523821459358" lon="11.211750614845679"><ele>95.5</ele><time>2026-04-24T13:12:05.001Z</time></trkpt><trkpt lat="43.695018565290724" lon="11.211862631910765"><ele>92.0</ele><time>2026-04-24T13:12:06.001Z</time></trkpt><trkpt lat="43.69479885188297" lon="11.211974854697832"><ele>92.0</ele><time>2026-04-24T13:12:07.001Z</time></trkpt><trkpt lat="43.69457700918593" lon="11.212083045530854"><ele>92.0</ele><time>2026-04-24T13:12:08.001Z</time></trkpt><trkpt lat="43.69434513593289" lon="11.212189942253884"><ele>90.0</ele><time>2026-04-24T13:12:09.001Z</time></trkpt><trkpt lat="43.6941133445225" lon="11.21229283583866"><ele>88.0</ele><time>2026-04-24T13:12:10.001Z</time></trkpt><trkpt lat="43.69389009738237" lon="11.212393955600119"><ele>92.5</ele><time>2026-04-24T13:12:11.001Z</time></trkpt><trkpt lat="43.69366834324025" lon="11.212498394905401"><ele>97.0</ele><time>2026-04-24T13:12:12.001Z</time></trkpt><trkpt lat="43.693446524060796" lon="11.212605325361334"><ele>97.0</ele><time>2026-04-24T13:12:13.001Z</time></trkpt><trkpt lat="43.693223281120765" lon="11.2127152300607"><ele>97.0</ele><time>2026-04-24T13:12:14.001Z</time></trkpt><trkpt lat="43.692991460928944" lon="11.212815631932234"><ele>97.0</ele><time>2026-04-24T13:12:15.001Z</time></trkpt><trkpt lat="43.692760481936276" lon="11.212900804628463"><ele>97.0</ele><time>2026-04-24T13:12:16.001Z</time></trkpt><trkpt lat="43.692522541788165" lon="11.2129551833409"><ele>94.0</ele><time>2026-04-24T13:12:17.001Z</time></trkpt><trkpt lat="43.692285472388086" lon="11.21298249813142"><ele>91.0</ele><time>2026-04-24T13:12:18.001Z</time></trkpt><trkpt lat="43.69204069898962" lon="11.212994363935183"><ele>91.5</ele><time>2026-04-24T13:12:19.001Z</time></trkpt><trkpt lat="43.69180066722598" lon="11.21298983919727"><ele>92.0</ele><time>2026-04-24T13:12:20.001Z</time></trkpt><trkpt lat="43.69156117358668" lon="11.212962771162896"><ele>92.0</ele><time>2026-04-24T13:12:21.001Z</time></trkpt><trkpt lat="43.69132777539422" lon="11.212914666232528"><ele>92.0</ele><time>2026-04-24T13:12:22.001Z</time></trkpt><trkpt lat="43.69108685905445" lon="11.212847765173633"><ele>93.0</ele><time>2026-04-24T13:12:23.001Z</time></trkpt><trkpt lat="43.69085266464249" lon="11.212763152335505"><ele>94.0</ele><time>2026-04-24T13:12:24.001Z</time></trkpt><trkpt lat="43.69061947115371" lon="11.212659929037075"><ele>94.0</ele><time>2026-04-24T13:12:25.001Z</time></trkpt><trkpt lat="43.69039601942497" lon="11.212532979957112"><ele>94.0</ele><time>2026-04-24T13:12:26.001Z</time></trkpt><trkpt lat="43.69017885278339" lon="11.212392013471193"><ele>93.0</ele><time>2026-04-24T13:12:27.001Z</time></trkpt><trkpt lat="43.6899706567858" lon="11.212234386125193"><ele>92.0</ele><time>2026-04-24T13:12:28.001Z</time></trkpt><trkpt lat="43.68976200363974" lon="11.212066452022121"><ele>92.0</ele><time>2026-04-24T13:12:29.001Z</time></trkpt><trkpt lat="43.6895548596543" lon="11.211905397728287"><ele>92.0</ele><time>2026-04-24T13:12:30.001Z</time></trkpt><trkpt lat="43.689350646296155" lon="11.211754775963355"><ele>92.5</ele><time>2026-04-24T13:12:31.001Z</time></trkpt><trkpt lat="43.6891400187166" lon="11.211601375413236"><ele>93.0</ele><time>2026-04-24T13:12:32.001Z</time></trkpt><trkpt lat="43.68892974356239" lon="11.21145271329706"><ele>92.0</ele><time>2026-04-24T13:12:33.001Z</time></trkpt><trkpt lat="43.688710643328776" lon="11.211324637317704"><ele>91.0</ele><time>2026-04-24T13:12:34.001Z</time></trkpt><trkpt lat="43.688482733730034" lon="11.211216888897455"><ele>93.0</ele><time>2026-04-24T13:12:35.001Z</time></trkpt><trkpt lat="43.688250205528014" lon="11.211129508073576"><ele>95.0</ele><time>2026-04-24T13:12:36.001Z</time></trkpt><trkpt lat="43.688014530384066" lon="11.211066167775156"><ele>95.0</ele><time>2026-04-24T13:12:37.001Z</time></trkpt><trkpt lat="43.68777380224104" lon="11.211023455436807"><ele>95.0</ele><time>2026-04-24T13:12:38.001Z</time></trkpt><trkpt lat="43.68753269163144" lon="11.211003763985236"><ele>101.5</ele><time>2026-04-24T13:12:39.001Z</time></trkpt><trkpt lat="43.68729251333443" lon="11.211000842831968"><ele>108.0</ele><time>2026-04-24T13:12:40.001Z</time></trkpt><trkpt lat="43.687050426418146" lon="11.211015362058232"><ele>112.5</ele><time>2026-04-24T13:12:41.001Z</time></trkpt><trkpt lat="43.68681074941097" lon="11.211048932627813"><ele>117.0</ele><time>2026-04-24T13:12:42.001Z</time></trkpt><trkpt lat="43.68656730129345" lon="11.211097976715198"><ele>117.0</ele><time>2026-04-24T13:12:43.001Z</time></trkpt><trkpt lat="43.68632018850384" lon="11.211144510560576"><ele>117.0</ele><time>2026-04-24T13:12:44.001Z</time></trkpt><trkpt lat="43.68607088466558" lon="11.211198600980488"><ele>123.5</ele><time>2026-04-24T13:12:45.001Z</time></trkpt><trkpt lat="43.68582145686569" lon="11.211250078989329"><ele>130.0</ele><time>2026-04-24T13:12:46.001Z</time></trkpt><trkpt lat="43.68557151811316" lon="11.211290154836295"><ele>130.0</ele><time>2026-04-24T13:12:47.001Z</time></trkpt><trkpt lat="43.68531968025464" lon="11.211343327070185"><ele>130.0</ele><time>2026-04-24T13:12:48.001Z</time></trkpt><trkpt lat="43.68507459868703" lon="11.211383600146178"><ele>135.5</ele><time>2026-04-24T13:12:49.002Z</time></trkpt><trkpt lat="43.6848286353165" lon="11.211428554688524"><ele>141.0</ele><time>2026-04-24T13:12:50.002Z</time></trkpt><trkpt lat="43.68459311995542" lon="11.211473966880602"><ele>126.5</ele><time>2026-04-24T13:12:51.002Z</time></trkpt><trkpt lat="43.68436842434727" lon="11.211526659295739"><ele>112.0</ele><time>2026-04-24T13:12:52.002Z</time></trkpt><trkpt lat="43.68414393697823" lon="11.21156905678919"><ele>112.0</ele><time>2026-04-24T13:12:53.002Z</time></trkpt><trkpt lat="43.68392010248426" lon="11.211617343611223"><ele>112.0</ele><time>2026-04-24T13:12:54.002Z</time></trkpt><trkpt lat="43.68368984820962" lon="11.211658258125976"><ele>106.0</ele><time>2026-04-24T13:12:55.002Z</time></trkpt><trkpt lat="43.68346084710993" lon="11.21169849754222"><ele>100.0</ele><time>2026-04-24T13:12:56.002Z</time></trkpt><trkpt lat="43.68323898989042" lon="11.211740693255562"><ele>100.0</ele><time>2026-04-24T13:12:57.002Z</time></trkpt><trkpt lat="43.6830054685534" lon="11.211784689838106"><ele>100.0</ele><time>2026-04-24T13:12:58.002Z</time></trkpt><trkpt lat="43.68276455435635" lon="11.211830515002314"><ele>98.0</ele><time>2026-04-24T13:12:59.002Z</time></trkpt><trkpt lat="43.68251544197316" lon="11.211876507727311"><ele>96.0</ele><time>2026-04-24T13:13:00.002Z</time></trkpt><trkpt lat="43.6822722240161" lon="11.211921499748351"><ele>96.0</ele><time>2026-04-24T13:13:01.002Z</time></trkpt><trkpt lat="43.682049437579586" lon="11.211966756896285"><ele>96.0</ele><time>2026-04-24T13:13:02.002Z</time></trkpt><trkpt lat="43.681833599062614" lon="11.212006057519652"><ele>96.0</ele><time>2026-04-24T13:13:03.002Z</time></trkpt><trkpt lat="43.68163150781839" lon="11.212043161147335"><ele>96.0</ele><time>2026-04-24T13:13:04.002Z</time></trkpt><trkpt lat="43.681435654491466" lon="11.212079900809792"><ele>96.0</ele><time>2026-04-24T13:13:05.002Z</time></trkpt><trkpt lat="43.68123417764716" lon="11.212105765145512"><ele>96.0</ele><time>2026-04-24T13:13:06.002Z</time></trkpt><trkpt lat="43.681029388768636" lon="11.21211445888321"><ele>96.0</ele><time>2026-04-24T13:13:07.002Z</time></trkpt><trkpt lat="43.680828231301184" lon="11.21210509595228"><ele>96.0</ele><time>2026-04-24T13:13:08.002Z</time></trkpt><trkpt lat="43.68061770403573" lon="11.212086370924483"><ele>96.0</ele><time>2026-04-24T13:13:09.002Z</time></trkpt><trkpt lat="43.68040448344971" lon="11.212053660438581"><ele>97.0</ele><time>2026-04-24T13:13:10.002Z</time></trkpt><trkpt lat="43.6801934785099" lon="11.212007382210826"><ele>98.0</ele><time>2026-04-24T13:13:11.002Z</time></trkpt><trkpt lat="43.68000213709769" lon="11.211952273797452"><ele>99.0</ele><time>2026-04-24T13:13:12.001Z</time></trkpt><trkpt lat="43.67982188199155" lon="11.211883797744653"><ele>99.0</ele><time>2026-04-24T13:13:13.001Z</time></trkpt><trkpt lat="43.67964452472153" lon="11.211810017029615"><ele>99.0</ele><time>2026-04-24T13:13:14.001Z</time></trkpt><trkpt lat="43.679461631392094" lon="11.211729796438364"><ele>99.0</ele><time>2026-04-24T13:13:15.001Z</time></trkpt><trkpt lat="43.67927902874269" lon="11.21162011809381"><ele>99.66666666666666</ele><time>2026-04-24T13:13:16.001Z</time></trkpt><trkpt lat="43.67909194380859" lon="11.211493990060927"><ele>100.33333333333333</ele><time>2026-04-24T13:13:17.001Z</time></trkpt><trkpt lat="43.67890096531206" lon="11.2113642212736"><ele>101.0</ele><time>2026-04-24T13:13:18.001Z</time></trkpt><trkpt lat="43.67871774975729" lon="11.211235913921048"><ele>103.66666666666666</ele><time>2026-04-24T13:13:19.001Z</time></trkpt><trkpt lat="43.67855239130289" lon="11.21111705956017"><ele>106.33333333333334</ele><time>2026-04-24T13:13:20.001Z</time></trkpt><trkpt lat="43.678400328757526" lon="11.21100734500472"><ele>109.0</ele><time>2026-04-24T13:13:21.001Z</time></trkpt><trkpt lat="43.67824046746605" lon="11.210892413354946"><ele>109.0</ele><time>2026-04-24T13:13:22.001Z</time></trkpt><trkpt lat="43.67806782800803" lon="11.210770575768635"><ele>109.0</ele><time>2026-04-24T13:13:23.001Z</time></trkpt><trkpt lat="43.67789080166827" lon="11.210654748271262"><ele>109.0</ele><time>2026-04-24T13:13:24.001Z</time></trkpt><trkpt lat="43.677713746332536" lon="11.210544054699305"><ele>108.0</ele><time>2026-04-24T13:13:25.001Z</time></trkpt><trkpt lat="43.67754978943081" lon="11.210453692067988"><ele>107.0</ele><time>2026-04-24T13:13:26.001Z</time></trkpt><trkpt lat="43.677399988895885" lon="11.210378455862493"><ele>106.0</ele><time>2026-04-24T13:13:27.001Z</time></trkpt><trkpt lat="43.677251799751865" lon="11.210312377522943"><ele>106.0</ele><time>2026-04-24T13:13:28.001Z</time></trkpt><trkpt lat="43.677106771186736" lon="11.210257412369161"><ele>106.0</ele><time>2026-04-24T13:13:29.001Z</time></trkpt><trkpt lat="43.67696417243879" lon="11.210211583544247"><ele>106.0</ele><time>2026-04-24T13:13:30.001Z</time></trkpt><trkpt lat="43.67681507885245" lon="11.210170251987861"><ele>106.0</ele><time>2026-04-24T13:13:31.001Z</time></trkpt><trkpt lat="43.67665003877257" lon="11.21013111864676"><ele>105.5</ele><time>2026-04-24T13:13:32.001Z</time></trkpt><trkpt lat="43.676503104651914" lon="11.210106117378706"><ele>105.0</ele><time>2026-04-24T13:13:33.001Z</time></trkpt><trkpt lat="43.6763653698534" lon="11.210088565588352"><ele>104.5</ele><time>2026-04-24T13:13:34.001Z</time></trkpt><trkpt lat="43.676226361668824" lon="11.210074725239618"><ele>104.0</ele><time>2026-04-24T13:13:35.001Z</time></trkpt><trkpt lat="43.67608346553182" lon="11.210060629262518"><ele>103.75</ele><time>2026-04-24T13:13:36.001Z</time></trkpt><trkpt lat="43.67594240536413" lon="11.21005316420625"><ele>103.5</ele><time>2026-04-24T13:13:37.001Z</time></trkpt><trkpt lat="43.6758077314322" lon="11.210059204975593"><ele>103.25</ele><time>2026-04-24T13:13:38.001Z</time></trkpt><trkpt lat="43.675678278315836" lon="11.210071928989064"><ele>103.0</ele><time>2026-04-24T13:13:39.001Z</time></trkpt><trkpt lat="43.67555290376022" lon="11.210084723037836"><ele>103.0</ele><time>2026-04-24T13:13:40.001Z</time></trkpt><trkpt lat="43.675426079666586" lon="11.210093050890864"><ele>103.0</ele><time>2026-04-24T13:13:41.001Z</time></trkpt><trkpt lat="43.6753091903347" lon="11.210098789119707"><ele>103.0</ele><time>2026-04-24T13:13:42.001Z</time></trkpt><trkpt lat="43.67518932978712" lon="11.210104117749543"><ele>103.0</ele><time>2026-04-24T13:13:43.001Z</time></trkpt><trkpt lat="43.675078878070494" lon="11.21010836556852"><ele>108.5</ele><time>2026-04-24T13:13:44.001Z</time></trkpt><trkpt lat="43.674964198605785" lon="11.210112864930869"><ele>114.0</ele><time>2026-04-24T13:13:45.001Z</time></trkpt><trkpt lat="43.674840350923965" lon="11.210119092345261"><ele>119.5</ele><time>2026-04-24T13:13:46.001Z</time></trkpt><trkpt lat="43.674709813050654" lon="11.210124300586495"><ele>125.0</ele><time>2026-04-24T13:13:47.001Z</time></trkpt><trkpt lat="43.67458061293621" lon="11.21013111549469"><ele>125.0</ele><time>2026-04-24T13:13:48.001Z</time></trkpt><trkpt lat="43.67445887751954" lon="11.210142794894953"><ele>125.0</ele><time>2026-04-24T13:13:49.001Z</time></trkpt><trkpt lat="43.674333730250744" lon="11.210152110895525"><ele>125.0</ele><time>2026-04-24T13:13:50.001Z</time></trkpt><trkpt lat="43.6742123468451" lon="11.210162302855949"><ele>125.0</ele><time>2026-04-24T13:13:51.001Z</time></trkpt><trkpt lat="43.674075278718114" lon="11.210190137581277"><ele>131.66666666666666</ele><time>2026-04-24T13:13:52.001Z</time></trkpt><trkpt lat="43.6739226447817" lon="11.210182663915427"><ele>138.33333333333334</ele><time>2026-04-24T13:13:53.001Z</time></trkpt><trkpt lat="43.6737633184724" lon="11.210192424985914"><ele>145.0</ele><time>2026-04-24T13:13:54.001Z</time></trkpt><trkpt lat="43.67359731690449" lon="11.210205444901755"><ele>145.66666666666669</ele><time>2026-04-24T13:13:55.001Z</time></trkpt><trkpt lat="43.673433233385545" lon="11.210218709650508"><ele>146.33333333333334</ele><time>2026-04-24T13:13:56.001Z</time></trkpt><trkpt lat="43.67327441630891" lon="11.210224258313968"><ele>147.0</ele><time>2026-04-24T13:13:57.001Z</time></trkpt><trkpt lat="43.6731134428871" lon="11.210231996114146"><ele>147.0</ele><time>2026-04-24T13:13:58.001Z</time></trkpt><trkpt lat="43.67295855462982" lon="11.21023916217123"><ele>147.0</ele><time>2026-04-24T13:13:59.001Z</time></trkpt><trkpt lat="43.67280108202048" lon="11.210252233187889"><ele>147.0</ele><time>2026-04-24T13:14:00.001Z</time></trkpt><trkpt lat="43.672648049214494" lon="11.210262188324288"><ele>147.0</ele><time>2026-04-24T13:14:01.001Z</time></trkpt><trkpt lat="43.67249337734957" lon="11.210274118190448"><ele>147.0</ele><time>2026-04-24T13:14:02.001Z</time></trkpt><trkpt lat="43.672338683732555" lon="11.210275093340893"><ele>147.0</ele><time>2026-04-24T13:14:03.001Z</time></trkpt><trkpt lat="43.67217638762341" lon="11.210279412192895"><ele>147.0</ele><time>2026-04-24T13:14:04.001Z</time></trkpt><trkpt lat="43.67200898747492" lon="11.210282160124693"><ele>147.0</ele><time>2026-04-24T13:14:05.001Z</time></trkpt><trkpt lat="43.67182879135194" lon="11.21028478964651"><ele>147.0</ele><time>2026-04-24T13:14:06.001Z</time></trkpt><trkpt lat="43.67166115733144" lon="11.210289156904588"><ele>150.0</ele><time>2026-04-24T13:14:07.001Z</time></trkpt><trkpt lat="43.671494902444856" lon="11.210279934991762"><ele>153.0</ele><time>2026-04-24T13:14:08.001Z</time></trkpt><trkpt lat="43.67132798897913" lon="11.210266824293656"><ele>156.0</ele><time>2026-04-24T13:14:09.001Z</time></trkpt><trkpt lat="43.67115620120867" lon="11.210249489594906"><ele>155.33333333333334</ele><time>2026-04-24T13:14:10.001Z</time></trkpt><trkpt lat="43.67098467164515" lon="11.210225096926086"><ele>154.66666666666669</ele><time>2026-04-24T13:14:11.001Z</time></trkpt><trkpt lat="43.67081644446232" lon="11.210195851189715"><ele>154.0</ele><time>2026-04-24T13:14:12.001Z</time></trkpt><trkpt lat="43.67064545786719" lon="11.2101635783248"><ele>154.0</ele><time>2026-04-24T13:14:13.001Z</time></trkpt><trkpt lat="43.67047332853988" lon="11.210129854985809"><ele>154.0</ele><time>2026-04-24T13:14:14.001Z</time></trkpt><trkpt lat="43.67030635517677" lon="11.210095520329956"><ele>154.0</ele><time>2026-04-24T13:14:15.001Z</time></trkpt><trkpt lat="43.6701403240167" lon="11.210066198845842"><ele>154.0</ele><time>2026-04-24T13:14:16.001Z</time></trkpt><trkpt lat="43.66997060632786" lon="11.210035036134114"><ele>154.0</ele><time>2026-04-24T13:14:17.001Z</time></trkpt><trkpt lat="43.66979984880741" lon="11.210000579842674"><ele>154.0</ele><time>2026-04-24T13:14:18.001Z</time></trkpt><trkpt lat="43.669628720298185" lon="11.209964631631289"><ele>154.0</ele><time>2026-04-24T13:14:19.001Z</time></trkpt><trkpt lat="43.66945807191383" lon="11.209931884724659"><ele>154.0</ele><time>2026-04-24T13:14:20.001Z</time></trkpt><trkpt lat="43.66928596717453" lon="11.209898454338719"><ele>154.0</ele><time>2026-04-24T13:14:21.001Z</time></trkpt><trkpt lat="43.66911149782648" lon="11.209864951983514"><ele>154.33333333333334</ele><time>2026-04-24T13:14:22.001Z</time></trkpt><trkpt lat="43.668938278792105" lon="11.20982763883962"><ele>154.66666666666666</ele><time>2026-04-24T13:14:23.001Z</time></trkpt><trkpt lat="43.668758495665465" lon="11.20978837125044"><ele>155.0</ele><time>2026-04-24T13:14:24.001Z</time></trkpt><trkpt lat="43.668573805039046" lon="11.209743995896279"><ele>158.0</ele><time>2026-04-24T13:14:25.001Z</time></trkpt><trkpt lat="43.66841088347995" lon="11.209696750824808"><ele>161.0</ele><time>2026-04-24T13:14:26.001Z</time></trkpt><trkpt lat="43.66826315572995" lon="11.20965941444507"><ele>164.0</ele><time>2026-04-24T13:14:27.001Z</time></trkpt><trkpt lat="43.6681336128934" lon="11.20961291720451"><ele>164.0</ele><time>2026-04-24T13:14:28.001Z</time></trkpt><trkpt lat="43.66801242795578" lon="11.209555952912222"><ele>164.0</ele><time>2026-04-24T13:14:29.001Z</time></trkpt><trkpt lat="43.66791947289721" lon="11.209460735778102"><ele>164.0</ele><time>2026-04-24T13:14:30.001Z</time></trkpt><trkpt lat="43.667871786602284" lon="11.209306488010418"><ele>164.0</ele><time>2026-04-24T13:14:31.001Z</time></trkpt><trkpt lat="43.66788028350024" lon="11.209166068764489"><ele>164.0</ele><time>2026-04-24T13:14:32.001Z</time></trkpt><trkpt lat="43.667947366250075" lon="11.209073617824822"><ele>164.0</ele><time>2026-04-24T13:14:33.001Z</time></trkpt><trkpt lat="43.668053888330675" lon="11.20902141092098"><ele>164.0</ele><time>2026-04-24T13:14:34.001Z</time></trkpt><trkpt lat="43.66818547920974" lon="11.209000138860844"><ele>164.0</ele><time>2026-04-24T13:14:35.001Z</time></trkpt><trkpt lat="43.66833014717177" lon="11.208961769527159"><ele>164.79999999999998</ele><time>2026-04-24T13:14:36.001Z</time></trkpt><trkpt lat="43.66843358017875" lon="11.208890238269195"><ele>165.6</ele><time>2026-04-24T13:14:37.001Z</time></trkpt><trkpt lat="43.66850216424245" lon="11.208793874166185"><ele>166.4</ele><time>2026-04-24T13:14:38.001Z</time></trkpt><trkpt lat="43.66852791351357" lon="11.208694870154384"><ele>167.2</ele><time>2026-04-24T13:14:39.001Z</time></trkpt><trkpt lat="43.66858623885701" lon="11.2085633341428"><ele>168.0</ele><time>2026-04-24T13:14:41.001Z</time></trkpt><trkpt lat="43.66866233094537" lon="11.208448517938198"><ele>168.2</ele><time>2026-04-24T13:14:43.001Z</time></trkpt><trkpt lat="43.66872026973251" lon="11.208407173875079"><ele>168.4</ele><time>2026-04-24T13:14:44.001Z</time></trkpt><trkpt lat="43.66880786009299" lon="11.208359746032423"><ele>168.6</ele><time>2026-04-24T13:14:45.001Z</time></trkpt><trkpt lat="43.66892645709696" lon="11.208311183034297"><ele>168.79999999999998</ele><time>2026-04-24T13:14:46.001Z</time></trkpt><trkpt lat="43.6690753772012" lon="11.208270612681615"><ele>169.0</ele><time>2026-04-24T13:14:47.001Z</time></trkpt><trkpt lat="43.66923995098285" lon="11.20823512308534"><ele>169.0</ele><time>2026-04-24T13:14:48.001Z</time></trkpt><trkpt lat="43.66940673714894" lon="11.208197987443143"><ele>169.0</ele><time>2026-04-24T13:14:49.001Z</time></trkpt><trkpt lat="43.66958581959793" lon="11.208149494303143"><ele>169.0</ele><time>2026-04-24T13:14:50.001Z</time></trkpt><trkpt lat="43.66976843179178" lon="11.208099571988129"><ele>170.33333333333334</ele><time>2026-04-24T13:14:51.001Z</time></trkpt><trkpt lat="43.6699324961806" lon="11.208053061267101"><ele>171.66666666666666</ele><time>2026-04-24T13:14:52.001Z</time></trkpt><trkpt lat="43.67007971806949" lon="11.208004612504999"><ele>173.0</ele><time>2026-04-24T13:14:53.001Z</time></trkpt><trkpt lat="43.670208104031765" lon="11.20793897265836"><ele>175.25</ele><time>2026-04-24T13:14:54.001Z</time></trkpt><trkpt lat="43.67031495357515" lon="11.207867560169241"><ele>177.5</ele><time>2026-04-24T13:14:55.001Z</time></trkpt><trkpt lat="43.670408325278544" lon="11.207767107586056"><ele>179.75</ele><time>2026-04-24T13:14:56.001Z</time></trkpt><trkpt lat="43.67047683600321" lon="11.207616605145475"><ele>182.0</ele><time>2026-04-24T13:14:57.001Z</time></trkpt><trkpt lat="43.67052019404032" lon="11.207415253756531"><ele>184.25</ele><time>2026-04-24T13:14:58.001Z</time></trkpt><trkpt lat="43.670534912413586" lon="11.207204339850191"><ele>186.5</ele><time>2026-04-24T13:14:59.001Z</time></trkpt><trkpt lat="43.67050036593716" lon="11.207024513678606"><ele>188.75</ele><time>2026-04-24T13:15:00.001Z</time></trkpt><trkpt lat="43.67041906361834" lon="11.206869767418167"><ele>191.0</ele><time>2026-04-24T13:15:01.001Z</time></trkpt><trkpt lat="43.67029922672446" lon="11.206731758153115"><ele>187.66666666666666</ele><time>2026-04-24T13:15:02.001Z</time></trkpt><trkpt lat="43.67015369686765" lon="11.206647611206066"><ele>184.33333333333334</ele><time>2026-04-24T13:15:03.001Z</time></trkpt><trkpt lat="43.669972117711" lon="11.206585191455567"><ele>181.0</ele><time>2026-04-24T13:15:04.001Z</time></trkpt><trkpt lat="43.66978626733103" lon="11.206525223944967"><ele>184.33333333333334</ele><time>2026-04-24T13:15:05.001Z</time></trkpt><trkpt lat="43.66959755553151" lon="11.206475490127804"><ele>187.66666666666666</ele><time>2026-04-24T13:15:06.001Z</time></trkpt><trkpt lat="43.66940274786931" lon="11.206411082706882"><ele>191.0</ele><time>2026-04-24T13:15:07.001Z</time></trkpt><trkpt lat="43.66918964304057" lon="11.2063473462285"><ele>191.0</ele><time>2026-04-24T13:15:08.001Z</time></trkpt><trkpt lat="43.668981752471495" lon="11.206284700677225"><ele>191.0</ele><time>2026-04-24T13:15:09.001Z</time></trkpt><trkpt lat="43.66880505693675" lon="11.206222706552659"><ele>191.0</ele><time>2026-04-24T13:15:10.001Z</time></trkpt><trkpt lat="43.668614076703804" lon="11.206187116325337"><ele>193.0</ele><time>2026-04-24T13:15:11.001Z</time></trkpt><trkpt lat="43.668423964130504" lon="11.206185120582065"><ele>195.0</ele><time>2026-04-24T13:15:12.001Z</time></trkpt><trkpt lat="43.668223960423134" lon="11.206221063203973"><ele>197.0</ele><time>2026-04-24T13:15:13.001Z</time></trkpt><trkpt lat="43.66801433008363" lon="11.206285414814369"><ele>197.0</ele><time>2026-04-24T13:15:14.001Z</time></trkpt><trkpt lat="43.66781462784797" lon="11.20636435478976"><ele>197.0</ele><time>2026-04-24T13:15:15.002Z</time></trkpt><trkpt lat="43.66762684562378" lon="11.206435326657054"><ele>197.0</ele><time>2026-04-24T13:15:16.002Z</time></trkpt><trkpt lat="43.6674376365028" lon="11.206499777292281"><ele>195.66666666666669</ele><time>2026-04-24T13:15:17.002Z</time></trkpt><trkpt lat="43.66728403497492" lon="11.20655636467384"><ele>194.33333333333331</ele><time>2026-04-24T13:15:18.002Z</time></trkpt><trkpt lat="43.66713208777892" lon="11.206642439866314"><ele>193.0</ele><time>2026-04-24T13:15:19.002Z</time></trkpt><trkpt lat="43.66697300187358" lon="11.206780959552246"><ele>196.66666666666666</ele><time>2026-04-24T13:15:20.002Z</time></trkpt><trkpt lat="43.66681803686493" lon="11.206946086459165"><ele>200.33333333333331</ele><time>2026-04-24T13:15:21.002Z</time></trkpt><trkpt lat="43.66668841696271" lon="11.207098684399698"><ele>204.0</ele><time>2026-04-24T13:15:22.001Z</time></trkpt><trkpt lat="43.66656768092705" lon="11.207241380209622"><ele>202.25</ele><time>2026-04-24T13:15:23.001Z</time></trkpt><trkpt lat="43.666447492795264" lon="11.207368400032601"><ele>200.5</ele><time>2026-04-24T13:15:24.001Z</time></trkpt><trkpt lat="43.66633658060318" lon="11.207474705646177"><ele>198.75</ele><time>2026-04-24T13:15:25.001Z</time></trkpt><trkpt lat="43.666236788948396" lon="11.207567113731722"><ele>197.0</ele><time>2026-04-24T13:15:26.001Z</time></trkpt><trkpt lat="43.666129370422226" lon="11.20759389337596"><ele>199.25</ele><time>2026-04-24T13:15:27.001Z</time></trkpt><trkpt lat="43.66600122660967" lon="11.207602472899147"><ele>201.5</ele><time>2026-04-24T13:15:28.001Z</time></trkpt><trkpt lat="43.665869931252" lon="11.207576253335118"><ele>203.75</ele><time>2026-04-24T13:15:29.001Z</time></trkpt><trkpt lat="43.66574936403209" lon="11.207478609518446"><ele>206.0</ele><time>2026-04-24T13:15:30.001Z</time></trkpt><trkpt lat="43.66565719031525" lon="11.207296499752738"><ele>208.33333333333334</ele><time>2026-04-24T13:15:31.001Z</time></trkpt><trkpt lat="43.66560719072394" lon="11.20711101333069"><ele>210.66666666666669</ele><time>2026-04-24T13:15:32.001Z</time></trkpt><trkpt lat="43.66559437025491" lon="11.206888613563835"><ele>213.0</ele><time>2026-04-24T13:15:33.001Z</time></trkpt><trkpt lat="43.66558982325715" lon="11.206652883131563"><ele>216.0</ele><time>2026-04-24T13:15:34.001Z</time></trkpt><trkpt lat="43.66557445986402" lon="11.206409263594328"><ele>219.0</ele><time>2026-04-24T13:15:35.001Z</time></trkpt><trkpt lat="43.66556113390496" lon="11.206155375255957"><ele>222.0</ele><time>2026-04-24T13:15:36.001Z</time></trkpt><trkpt lat="43.66557210042831" lon="11.205903996393308"><ele>223.66666666666669</ele><time>2026-04-24T13:15:37.001Z</time></trkpt><trkpt lat="43.66559473025746" lon="11.20565880578376"><ele>225.33333333333334</ele><time>2026-04-24T13:15:38.001Z</time></trkpt><trkpt lat="43.66563130646823" lon="11.205407260032281"><ele>227.0</ele><time>2026-04-24T13:15:39.001Z</time></trkpt><trkpt lat="43.66567354251696" lon="11.205152841995918"><ele>227.0</ele><time>2026-04-24T13:15:40.001Z</time></trkpt><trkpt lat="43.66569894128377" lon="11.2049083793981"><ele>227.0</ele><time>2026-04-24T13:15:41.001Z</time></trkpt><trkpt lat="43.665683782989944" lon="11.204649368120254"><ele>227.0</ele><time>2026-04-24T13:15:42.001Z</time></trkpt><trkpt lat="43.66562338713563" lon="11.204417880757733"><ele>229.33333333333334</ele><time>2026-04-24T13:15:43.001Z</time></trkpt><trkpt lat="43.66554347901745" lon="11.204179179724973"><ele>231.66666666666669</ele><time>2026-04-24T13:15:44.001Z</time></trkpt><trkpt lat="43.66544711403956" lon="11.203922591696799"><ele>234.0</ele><time>2026-04-24T13:15:45.001Z</time></trkpt><trkpt lat="43.66537269363042" lon="11.203667378206319"><ele>236.33333333333331</ele><time>2026-04-24T13:15:46.001Z</time></trkpt><trkpt lat="43.66533805428528" lon="11.203442565221795"><ele>238.66666666666666</ele><time>2026-04-24T13:15:47.001Z</time></trkpt><trkpt lat="43.66529086287472" lon="11.203215185694951"><ele>241.0</ele><time>2026-04-24T13:15:48.001Z</time></trkpt><trkpt lat="43.665301977403146" lon="11.202984313745496"><ele>241.0</ele><time>2026-04-24T13:15:49.001Z</time></trkpt><trkpt lat="43.665328082624534" lon="11.20277177982842"><ele>241.0</ele><time>2026-04-24T13:15:50.001Z</time></trkpt><trkpt lat="43.665370613561215" lon="11.202536193407848"><ele>241.0</ele><time>2026-04-24T13:15:51.001Z</time></trkpt><trkpt lat="43.66544924501405" lon="11.20229370384955"><ele>241.0</ele><time>2026-04-24T13:15:52.001Z</time></trkpt><trkpt lat="43.665533560127336" lon="11.202044184887583"><ele>241.0</ele><time>2026-04-24T13:15:53.001Z</time></trkpt><trkpt lat="43.665595746628654" lon="11.201781739520746"><ele>241.0</ele><time>2026-04-24T13:15:54.001Z</time></trkpt><trkpt lat="43.665621942471425" lon="11.201503027585964"><ele>241.0</ele><time>2026-04-24T13:15:55.001Z</time></trkpt><trkpt lat="43.66561407814653" lon="11.201237860127284"><ele>241.0</ele><time>2026-04-24T13:15:56.001Z</time></trkpt><trkpt lat="43.6656132607411" lon="11.201009883890869"><ele>241.0</ele><time>2026-04-24T13:15:57.001Z</time></trkpt><trkpt lat="43.6656456710436" lon="11.200794726067704"><ele>239.33333333333331</ele><time>2026-04-24T13:15:58.001Z</time></trkpt><trkpt lat="43.66571523023418" lon="11.20057624588812"><ele>237.66666666666669</ele><time>2026-04-24T13:15:59.001Z</time></trkpt><trkpt lat="43.66580982892794" lon="11.20035289832461"><ele>236.0</ele><time>2026-04-24T13:16:00.001Z</time></trkpt><trkpt lat="43.66590284654705" lon="11.200133120243931"><ele>236.0</ele><time>2026-04-24T13:16:01.001Z</time></trkpt><trkpt lat="43.66595738396191" lon="11.199907607974204"><ele>236.0</ele><time>2026-04-24T13:16:02.001Z</time></trkpt><trkpt lat="43.66598715670556" lon="11.199679838115737"><ele>236.0</ele><time>2026-04-24T13:16:03.001Z</time></trkpt><trkpt lat="43.66602929451616" lon="11.19948000987621"><ele>240.25</ele><time>2026-04-24T13:16:04.001Z</time></trkpt><trkpt lat="43.666120073278144" lon="11.199321260608551"><ele>244.5</ele><time>2026-04-24T13:16:05.001Z</time></trkpt><trkpt lat="43.66621337390008" lon="11.199175546103522"><ele>248.75</ele><time>2026-04-24T13:16:06.001Z</time></trkpt><trkpt lat="43.666296873193694" lon="11.199020423167157"><ele>253.0</ele><time>2026-04-24T13:16:07.001Z</time></trkpt><trkpt lat="43.66637769749998" lon="11.198877302718346"><ele>253.0</ele><time>2026-04-24T13:16:08.001Z</time></trkpt><trkpt lat="43.6664360675084" lon="11.198701145233292"><ele>253.0</ele><time>2026-04-24T13:16:09.001Z</time></trkpt><trkpt lat="43.66645778436797" lon="11.198485970819103"><ele>253.0</ele><time>2026-04-24T13:16:10.001Z</time></trkpt><trkpt lat="43.66643601581168" lon="11.19826953751523"><ele>252.0</ele><time>2026-04-24T13:16:11.001Z</time></trkpt><trkpt lat="43.66638037762304" lon="11.198086790010562"><ele>251.0</ele><time>2026-04-24T13:16:12.001Z</time></trkpt><trkpt lat="43.666284117707974" lon="11.197946191922245"><ele>250.0</ele><time>2026-04-24T13:16:13.001Z</time></trkpt><trkpt lat="43.66614731622121" lon="11.197833205029138"><ele>249.0</ele><time>2026-04-24T13:16:14.001Z</time></trkpt><trkpt lat="43.66599177687241" lon="11.197755472420143"><ele>249.0</ele><time>2026-04-24T13:16:15.001Z</time></trkpt><trkpt lat="43.665854660016166" lon="11.197705362319184"><ele>249.0</ele><time>2026-04-24T13:16:16.001Z</time></trkpt><trkpt lat="43.66574716583763" lon="11.197619874957084"><ele>249.0</ele><time>2026-04-24T13:16:17.001Z</time></trkpt><trkpt lat="43.66567789139427" lon="11.19749288943485"><ele>249.0</ele><time>2026-04-24T13:16:18.001Z</time></trkpt><trkpt lat="43.66561326500938" lon="11.1973496624244"><ele>251.5</ele><time>2026-04-24T13:16:19.001Z</time></trkpt><trkpt lat="43.66557167614725" lon="11.197175830485632"><ele>254.0</ele><time>2026-04-24T13:16:20.001Z</time></trkpt><trkpt lat="43.665556881577636" lon="11.196990925445034"><ele>256.5</ele><time>2026-04-24T13:16:21.001Z</time></trkpt><trkpt lat="43.66553099004009" lon="11.196796987044781"><ele>259.0</ele><time>2026-04-24T13:16:22.001Z</time></trkpt><trkpt lat="43.665520762458826" lon="11.196609894007082"><ele>257.5</ele><time>2026-04-24T13:16:23.001Z</time></trkpt><trkpt lat="43.66547045570466" lon="11.196440192346804"><ele>256.0</ele><time>2026-04-24T13:16:24.001Z</time></trkpt><trkpt lat="43.66539753886299" lon="11.196284682405665"><ele>254.5</ele><time>2026-04-24T13:16:25.001Z</time></trkpt><trkpt lat="43.66529976371206" lon="11.19614153733859"><ele>253.0</ele><time>2026-04-24T13:16:26.001Z</time></trkpt><trkpt lat="43.66521682477092" lon="11.196014167448846"><ele>253.0</ele><time>2026-04-24T13:16:27.001Z</time></trkpt><trkpt lat="43.665138984128546" lon="11.195892406775476"><ele>253.0</ele><time>2026-04-24T13:16:28.001Z</time></trkpt><trkpt lat="43.66506203606145" lon="11.19575327202497"><ele>253.0</ele><time>2026-04-24T13:16:29.001Z</time></trkpt><trkpt lat="43.66498258951538" lon="11.195603405931198"><ele>253.0</ele><time>2026-04-24T13:16:30.001Z</time></trkpt><trkpt lat="43.66491117425924" lon="11.195447480344983"><ele>256.0</ele><time>2026-04-24T13:16:31.001Z</time></trkpt><trkpt lat="43.664864605716026" lon="11.195273003864251"><ele>259.0</ele><time>2026-04-24T13:16:32.001Z</time></trkpt><trkpt lat="43.664840133231955" lon="11.195083794413032"><ele>262.0</ele><time>2026-04-24T13:16:33.001Z</time></trkpt><trkpt lat="43.664831059064724" lon="11.194897502970003"><ele>265.0</ele><time>2026-04-24T13:16:34.001Z</time></trkpt><trkpt lat="43.66485588802034" lon="11.194705857584948"><ele>266.3333333333333</ele><time>2026-04-24T13:16:35.001Z</time></trkpt><trkpt lat="43.66486139636872" lon="11.194494690901157"><ele>267.6666666666667</ele><time>2026-04-24T13:16:36.001Z</time></trkpt><trkpt lat="43.664888238852" lon="11.19428052795576"><ele>269.0</ele><time>2026-04-24T13:16:37.001Z</time></trkpt><trkpt lat="43.66491037812372" lon="11.19407509323282"><ele>269.75</ele><time>2026-04-24T13:16:38.001Z</time></trkpt><trkpt lat="43.664928466190176" lon="11.19390379850119"><ele>270.5</ele><time>2026-04-24T13:16:39.001Z</time></trkpt><trkpt lat="43.664943976434074" lon="11.193752871021418"><ele>271.25</ele><time>2026-04-24T13:16:40.001Z</time></trkpt><trkpt lat="43.664949896532306" lon="11.19359625300636"><ele>272.0</ele><time>2026-04-24T13:16:41.001Z</time></trkpt><trkpt lat="43.6649295892317" lon="11.1934347395716"><ele>272.0</ele><time>2026-04-24T13:16:42.001Z</time></trkpt><trkpt lat="43.664882393800404" lon="11.193266391027878"><ele>272.0</ele><time>2026-04-24T13:16:43.001Z</time></trkpt><trkpt lat="43.664794745514" lon="11.193100749755768"><ele>272.0</ele><time>2026-04-24T13:16:44.001Z</time></trkpt><trkpt lat="43.664671973479976" lon="11.192961334133866"><ele>272.0</ele><time>2026-04-24T13:16:45.001Z</time></trkpt><trkpt lat="43.664552317173566" lon="11.192806336178904"><ele>272.25</ele><time>2026-04-24T13:16:46.001Z</time></trkpt><trkpt lat="43.664447267074095" lon="11.192670275335512"><ele>272.5</ele><time>2026-04-24T13:16:47.001Z</time></trkpt><trkpt lat="43.66435150460706" lon="11.192537505043887"><ele>272.75</ele><time>2026-04-24T13:16:48.001Z</time></trkpt><trkpt lat="43.66425376133389" lon="11.192401054966407"><ele>273.0</ele><time>2026-04-24T13:16:49.001Z</time></trkpt><trkpt lat="43.66417234367233" lon="11.19224086136685"><ele>275.25</ele><time>2026-04-24T13:16:50.001Z</time></trkpt><trkpt lat="43.664069772335885" lon="11.192106622270465"><ele>277.5</ele><time>2026-04-24T13:16:51.001Z</time></trkpt><trkpt lat="43.66398695711711" lon="11.191980685285657"><ele>279.75</ele><time>2026-04-24T13:16:52.001Z</time></trkpt><trkpt lat="43.66389156239662" lon="11.191879002851543"><ele>282.0</ele><time>2026-04-24T13:16:53.001Z</time></trkpt><trkpt lat="43.66378175029296" lon="11.191799164876457"><ele>282.0</ele><time>2026-04-24T13:16:54.001Z</time></trkpt><trkpt lat="43.66366195094137" lon="11.191736134359395"><ele>282.0</ele><time>2026-04-24T13:16:55.001Z</time></trkpt><trkpt lat="43.66353712265122" lon="11.191697071249346"><ele>282.0</ele><time>2026-04-24T13:16:56.001Z</time></trkpt><trkpt lat="43.663430793346926" lon="11.191654770145798"><ele>282.0</ele><time>2026-04-24T13:16:57.001Z</time></trkpt><trkpt lat="43.66333146111165" lon="11.191619799812878"><ele>281.8</ele><time>2026-04-24T13:16:58.001Z</time></trkpt><trkpt lat="43.66323445419952" lon="11.19157904753028"><ele>281.6</ele><time>2026-04-24T13:16:59.001Z</time></trkpt><trkpt lat="43.66313374692272" lon="11.191536975590585"><ele>281.40000000000003</ele><time>2026-04-24T13:17:00.001Z</time></trkpt><trkpt lat="43.66303664487732" lon="11.191500220759258"><ele>281.2</ele><time>2026-04-24T13:17:01.001Z</time></trkpt><trkpt lat="43.662942229326276" lon="11.19146835731756"><ele>281.0</ele><time>2026-04-24T13:17:02.001Z</time></trkpt><trkpt lat="43.6628470081828" lon="11.191459944429207"><ele>281.6666666666667</ele><time>2026-04-24T13:17:03.001Z</time></trkpt><trkpt lat="43.66276637901675" lon="11.191481161009879"><ele>282.33333333333337</ele><time>2026-04-24T13:17:04.001Z</time></trkpt><trkpt lat="43.66269252075032" lon="11.191520091493052"><ele>283.0</ele><time>2026-04-24T13:17:05.001Z</time></trkpt><trkpt lat="43.66261712564239" lon="11.191509161519967"><ele>283.6666666666667</ele><time>2026-04-24T13:17:06.001Z</time></trkpt><trkpt lat="43.66254825632759" lon="11.191526040855937"><ele>284.3333333333333</ele><time>2026-04-24T13:17:07.001Z</time></trkpt><trkpt lat="43.66248652088505" lon="11.191501236783212"><ele>285.0</ele><time>2026-04-24T13:17:08.001Z</time></trkpt><trkpt lat="43.662397408009234" lon="11.191394315503409"><ele>285.0</ele><time>2026-04-24T13:17:10.001Z</time></trkpt><trkpt lat="43.662377774312866" lon="11.191299222528954"><ele>285.0</ele><time>2026-04-24T13:17:11.001Z</time></trkpt><trkpt lat="43.662373266880934" lon="11.191188007117995"><ele>285.0</ele><time>2026-04-24T13:17:12.001Z</time></trkpt><trkpt lat="43.662358920162085" lon="11.191081449227127"><ele>285.0</ele><time>2026-04-24T13:17:13.001Z</time></trkpt><trkpt lat="43.66231553051582" lon="11.190991114209867"><ele>285.0</ele><time>2026-04-24T13:17:14.001Z</time></trkpt><trkpt lat="43.662245422445515" lon="11.190916521704477"><ele>285.0</ele><time>2026-04-24T13:17:15.001Z</time></trkpt><trkpt lat="43.66215026576209" lon="11.190890478372586"><ele>285.0</ele><time>2026-04-24T13:17:16.001Z</time></trkpt><trkpt lat="43.66203775050395" lon="11.190873369454165"><ele>285.0</ele><time>2026-04-24T13:17:17.001Z</time></trkpt><trkpt lat="43.66191968761098" lon="11.190832024984587"><ele>285.0</ele><time>2026-04-24T13:17:18.001Z</time></trkpt><trkpt lat="43.66181646173349" lon="11.190771310500446"><ele>285.0</ele><time>2026-04-24T13:17:19.001Z</time></trkpt><trkpt lat="43.66171677302444" lon="11.190718898350719"><ele>285.0</ele><time>2026-04-24T13:17:20.001Z</time></trkpt><trkpt lat="43.661598560945116" lon="11.190667362961113"><ele>285.0</ele><time>2026-04-24T13:17:21.001Z</time></trkpt><trkpt lat="43.66146587423737" lon="11.190628472934982"><ele>285.0</ele><time>2026-04-24T13:17:22.001Z</time></trkpt><trkpt lat="43.66133716814776" lon="11.190598464466293"><ele>285.0</ele><time>2026-04-24T13:17:23.001Z</time></trkpt><trkpt lat="43.66121338035632" lon="11.190571922735865"><ele>286.5</ele><time>2026-04-24T13:17:24.001Z</time></trkpt><trkpt lat="43.661095788071684" lon="11.190550565378016"><ele>288.0</ele><time>2026-04-24T13:17:25.001Z</time></trkpt><trkpt lat="43.660988311198444" lon="11.190523813998167"><ele>289.5</ele><time>2026-04-24T13:17:26.001Z</time></trkpt><trkpt lat="43.660878428332786" lon="11.190497446033765"><ele>291.0</ele><time>2026-04-24T13:17:27.001Z</time></trkpt><trkpt lat="43.66075876095953" lon="11.190466313716541"><ele>291.0</ele><time>2026-04-24T13:17:28.001Z</time></trkpt><trkpt lat="43.66062149372437" lon="11.190419516563349"><ele>291.0</ele><time>2026-04-24T13:17:29.001Z</time></trkpt><trkpt lat="43.66047829059033" lon="11.190353613643248"><ele>291.0</ele><time>2026-04-24T13:17:30.001Z</time></trkpt><trkpt lat="43.66034089802124" lon="11.190228456500737"><ele>293.25</ele><time>2026-04-24T13:17:31.001Z</time></trkpt><trkpt lat="43.6601935877659" lon="11.190125004249133"><ele>295.5</ele><time>2026-04-24T13:17:32.001Z</time></trkpt><trkpt lat="43.66007962752047" lon="11.190025824657754"><ele>297.75</ele><time>2026-04-24T13:17:33.001Z</time></trkpt><trkpt lat="43.659978920027356" lon="11.189943721469257"><ele>300.0</ele><time>2026-04-24T13:17:34.001Z</time></trkpt><trkpt lat="43.659892272269715" lon="11.189863658536478"><ele>299.2</ele><time>2026-04-24T13:17:35.001Z</time></trkpt><trkpt lat="43.659812626399614" lon="11.189801042400578"><ele>298.4</ele><time>2026-04-24T13:17:36.001Z</time></trkpt><trkpt lat="43.65973651688679" lon="11.18972608298958"><ele>297.6</ele><time>2026-04-24T13:17:37.001Z</time></trkpt><trkpt lat="43.65964978117044" lon="11.18965912979639"><ele>296.8</ele><time>2026-04-24T13:17:38.001Z</time></trkpt><trkpt lat="43.65955553309899" lon="11.189584061323934"><ele>296.0</ele><time>2026-04-24T13:17:39.001Z</time></trkpt><trkpt lat="43.65945407734557" lon="11.189498904398487"><ele>297.75</ele><time>2026-04-24T13:17:40.001Z</time></trkpt><trkpt lat="43.659338033878086" lon="11.18944011504826"><ele>299.5</ele><time>2026-04-24T13:17:41.001Z</time></trkpt><trkpt lat="43.6592196919103" lon="11.189372952376024"><ele>301.25</ele><time>2026-04-24T13:17:42.001Z</time></trkpt><trkpt lat="43.65910023210281" lon="11.1893120781872"><ele>303.0</ele><time>2026-04-24T13:17:43.001Z</time></trkpt><trkpt lat="43.6590017520349" lon="11.189252256245727"><ele>303.0</ele><time>2026-04-24T13:17:44.001Z</time></trkpt><trkpt lat="43.6589231587704" lon="11.189185100821366"><ele>303.0</ele><time>2026-04-24T13:17:45.001Z</time></trkpt><trkpt lat="43.65885240285868" lon="11.189110868344994"><ele>303.0</ele><time>2026-04-24T13:17:46.001Z</time></trkpt><trkpt lat="43.65879475873571" lon="11.189039369050436"><ele>303.0</ele><time>2026-04-24T13:17:47.001Z</time></trkpt><trkpt lat="43.65874556206831" lon="11.188979342694523"><ele>303.0</ele><time>2026-04-24T13:17:48.001Z</time></trkpt><trkpt lat="43.658661498249614" lon="11.188885487304482"><ele>303.0</ele><time>2026-04-24T13:17:50.001Z</time></trkpt><trkpt lat="43.65861026450089" lon="11.188820569441734"><ele>303.4</ele><time>2026-04-24T13:17:52.001Z</time></trkpt><trkpt lat="43.65856044830047" lon="11.188750465077218"><ele>303.8</ele><time>2026-04-24T13:17:54.001Z</time></trkpt><trkpt lat="43.65851176657507" lon="11.188658312112581"><ele>304.2</ele><time>2026-04-24T13:17:56.001Z</time></trkpt><trkpt lat="43.65845704288757" lon="11.18854086065138"><ele>304.6</ele><time>2026-04-24T13:17:58.001Z</time></trkpt><trkpt lat="43.658374121711816" lon="11.188470495085525"><ele>305.0</ele><time>2026-04-24T13:18:00.001Z</time></trkpt><trkpt lat="43.65829971716913" lon="11.188617872666077"><ele>305.0</ele><time>2026-04-24T13:18:04.001Z</time></trkpt><trkpt lat="43.65834319170259" lon="11.188748224725284"><ele>305.0</ele><time>2026-04-24T13:18:06.001Z</time></trkpt><trkpt lat="43.65832862811653" lon="11.188857561927517"><ele>305.0</ele><time>2026-04-24T13:18:08.001Z</time></trkpt><trkpt lat="43.658271891923924" lon="11.188909642561335"><ele>305.0</ele><time>2026-04-24T13:18:10.001Z</time></trkpt><trkpt lat="43.65820231832206" lon="11.188882258585252"><ele>305.0</ele><time>2026-04-24T13:18:12.001Z</time></trkpt><trkpt lat="43.65813393660821" lon="11.18883259715414"><ele>305.0</ele><time>2026-04-24T13:18:15.001Z</time></trkpt><trkpt lat="43.658200129313464" lon="11.188668701126707"><ele>305.0</ele><time>2026-04-24T13:18:17.001Z</time></trkpt></trkseg></trk></gpx>